
Distance (Route):
Temperature : 15.4°C
Humidity : 80.9%
Pressure : 977.1hPa| Receiver | Frames | First received | Last received |
|---|---|---|---|
| BIOWL1-15 | 565 | 2026-09-01 05:04:40 | 2026-09-01 06:54:37 |
| DM0DOS-11 | 514 | 2026-09-01 05:04:18 | 2026-09-01 06:54:46 |
| DL1XH-west | 276 | 2026-09-01 05:52:45 | 2026-09-01 06:42:42 |
| DL1XH1-15 | 182 | 2026-09-01 05:53:40 | 2026-09-01 06:44:05 |
| HSKMA3-T | 162 | 2026-09-01 05:59:50 | 2026-09-01 06:49:09 |
| DO3MHA-11 | 153 | 2026-09-01 05:23:25 | 2026-09-01 06:51:29 |
| DJ2DS-15 | 136 | 2026-09-01 05:35:29 | 2026-09-01 06:45:39 |
| DL1NUX | 116 | 2026-09-01 05:44:04 | 2026-09-01 06:50:22 |
| DB0UT-7 | 106 | 2026-09-01 04:51:32 | 2026-09-01 07:00:44 |
| DL1ZP-14 | 95 | 2026-09-01 04:56:17 | 2026-09-01 07:01:03 |
| DK5PH-5 | 95 | 2026-09-01 04:59:34 | 2026-09-01 06:59:38 |
| DB0ND-19 | 90 | 2026-09-01 04:52:45 | 2026-09-01 07:01:00 |
| DB0UT-9 | 89 | 2026-09-01 04:51:22 | 2026-09-01 07:00:36 |
| DM3KS-11 | 83 | 2026-09-01 04:55:06 | 2026-09-01 06:48:57 |
| HEMX73-11 | 74 | 2026-09-01 04:53:31 | 2026-09-01 06:50:18 |
| AA1-15 | 72 | 2026-09-01 06:16:15 | 2026-09-01 06:36:54 |
| DL9PN | 71 | 2026-09-01 04:52:55 | 2026-09-01 06:55:07 |
| DF7PN | 62 | 2026-09-01 04:55:32 | 2026-09-01 07:00:49 |
| DL0LBS | 61 | 2026-09-01 05:11:01 | 2026-09-01 06:58:05 |
| DF1GD-15 | 59 | 2026-09-01 05:02:05 | 2026-09-01 06:56:29 |
| NBG1-10 | 59 | 2026-09-01 05:16:52 | 2026-09-01 06:57:12 |
| DM7RM-13 | 52 | 2026-09-01 05:20:31 | 2026-09-01 06:56:32 |
| BIOWL9-15 | 47 | 2026-09-01 05:07:44 | 2026-09-01 06:54:19 |
| DL3AQ-11 | 46 | 2026-09-01 05:53:51 | 2026-09-01 06:40:04 |
| DL8DAS-14 | 43 | 2026-09-01 05:23:52 | 2026-09-01 06:47:38 |
| DL1XH-15 | 37 | 2026-09-01 06:16:37 | 2026-09-01 06:38:09 |
| DF3TZ-5 | 35 | 2026-09-01 05:13:05 | 2026-09-01 06:49:19 |
| BIOWL7-15 | 34 | 2026-09-01 05:07:41 | 2026-09-01 06:38:11 |
| DL8DAS-15 | 32 | 2026-09-01 05:24:12 | 2026-09-01 06:47:04 |
| DJ2KF-10 | 31 | 2026-09-01 05:36:47 | 2026-09-01 06:12:13 |
| DF8AY | 30 | 2026-09-01 06:25:22 | 2026-09-01 06:35:46 |
| DB0NH | 29 | 2026-09-01 05:40:40 | 2026-09-01 06:59:34 |
| DF2AP-13 | 26 | 2026-09-01 05:29:32 | 2026-09-01 06:51:31 |
| DL4BBY-15 | 26 | 2026-09-01 05:44:39 | 2026-09-01 06:40:32 |
| DO1YAY-16 | 25 | 2026-09-01 05:10:02 | 2026-09-01 06:45:48 |
| DD1CC8 | 24 | 2026-09-01 05:57:10 | 2026-09-01 06:48:24 |
| DO3DL | 22 | 2026-09-01 05:57:03 | 2026-09-01 06:46:33 |
| KANTATE | 19 | 2026-09-01 05:47:36 | 2026-09-01 06:51:07 |
| SONCRA | 19 | 2026-09-01 05:56:22 | 2026-09-01 06:39:55 |
| SO1NDE-10 | 18 | 2026-09-01 05:49:21 | 2026-09-01 06:47:17 |
| SFWM-10 | 16 | 2026-09-01 05:36:22 | 2026-09-01 06:50:15 |
| AM1SDL-15 | 16 | 2026-09-01 05:45:23 | 2026-09-01 06:44:23 |
| DH7VM-15 | 15 | 2026-09-01 05:07:17 | 2026-09-01 06:53:45 |
| HARRO8 | 14 | 2026-09-01 05:57:50 | 2026-09-01 06:51:28 |
| SONDE2-11 | 12 | 2026-09-01 06:03:54 | 2026-09-01 06:34:57 |
| DN1GJH-1 | 11 | 2026-09-01 05:41:23 | 2026-09-01 06:34:37 |
| DJTTGO | 11 | 2026-09-01 05:48:37 | 2026-09-01 06:38:23 |
| DD1CC2-15 | 10 | 2026-09-01 06:02:12 | 2026-09-01 06:40:53 |
| DL8OAI-8 | 9 | 2026-09-01 06:03:37 | 2026-09-01 06:40:40 |
| BEGRI65-1 | 8 | 2026-09-01 05:46:02 | 2026-09-01 06:55:36 |
| DK7TD | 5 | 2026-09-01 05:47:42 | 2026-09-01 06:19:24 |
| EDDB2-12 | 5 | 2026-09-01 06:25:13 | 2026-09-01 06:37:38 |
| DL6DJ-15 | 5 | 2026-09-01 06:28:16 | 2026-09-01 06:36:03 |
| HTAHTA | 4 | 2026-09-01 06:06:58 | 2026-09-01 06:39:03 |
| OE5DXL-15 | 4 | 2026-09-01 06:33:15 | 2026-09-01 06:35:29 |
| HEMX73-6 | 2 | 2026-09-01 06:04:03 | 2026-09-01 06:10:36 |
| DG1MJG | 1 | 2026-09-01 06:29:29 | 2026-09-01 06:29:29 |
| DJ3KS | 1 | 2026-09-01 06:31:24 | 2026-09-01 06:31:24 |
| OE5GOL-10 | 1 | 2026-09-01 06:32:42 | 2026-09-01 06:32:42 |
| Receiver | Date | Latitude | Longitude | Direction | Speed | Altitude | Climb | Temperature | Humidity | Pressure | Voltage | Killtimer | Uptime | BKT | XDATA |
|---|---|---|---|---|---|---|---|---|---|---|---|---|---|---|---|
| DL1ZP-14 | 2026-09-01 07:01:03 | 49.75300 | 8.78550 | 60° | 18km/h | 418m | -10.2m/s | 15.4°C | 80.9% | 977.1hPa | 2.7V | 00:00:00 | 00:00:00 | 00:00:00 | |
| DB0ND-19 | 2026-09-01 07:01:00 | 49.75281 | 8.78500 | 58° | 22km/h | 482m | -8.8m/s | 14.8°C | 80.7% | 969.5hPa | 2.7V | 00:00:00 | 00:00:00 | 00:00:00 | |
| DF7PN | 2026-09-01 07:00:49 | 49.75263 | 8.78446 | 66° | 26km/h | 536m | -9.0m/s | 14.5°C | 79.6% | 963.4hPa | 2.7V | 00:00:00 | 00:00:00 | 00:00:00 | |
| DB0UT-7 | 2026-09-01 07:00:44 | 49.75254 | 8.78405 | 75° | 29km/h | 572m | -8.8m/s | 15.0°C | 67.3% | 959.3hPa | 2.7V | 02:52:00 | 02:29:23 | 00:00:00 | |
| DB0UT-7 | 2026-09-01 07:00:39 | 49.75246 | 8.78351 | 74° | 29km/h | 616m | -8.6m/s | 14.7°C | 68.3% | 954.6hPa | 2.7V | 00:00:00 | 00:00:00 | 00:00:00 | |
| DB0UT-9 | 2026-09-01 07:00:36 | 49.75244 | 8.78329 | 74° | 29km/h | 634m | -8.6m/s | 14.6°C | 68.7% | 952.6hPa | 2.7V | 02:53:00 | 00:00:00 | 00:00:00 | |
| DB0UT-7 | 2026-09-01 07:00:34 | 49.75239 | 8.78295 | 77° | 29km/h | 660m | -8.7m/s | 14.3°C | 70.1% | 949.8hPa | 2.7V | 00:00:00 | 02:29:13 | 00:00:00 | |
| DL1ZP-14 | 2026-09-01 07:00:31 | 49.75235 | 8.78261 | 76° | 29km/h | 685m | -8.6m/s | 14.2°C | 69.8% | 947.1hPa | 2.7V | 00:00:00 | 00:00:00 | 00:00:00 | |
| DB0ND-19 | 2026-09-01 07:00:29 | 49.75232 | 8.78237 | 85° | 31km/h | 703m | -8.8m/s | 14.1°C | 70.6% | 945.0hPa | 2.7V | 00:00:00 | 00:00:00 | 00:00:00 | |
| DB0UT-7 | 2026-09-01 07:00:29 | 49.75232 | 8.78237 | 86° | 31km/h | 703m | -8.7m/s | 14.0°C | 71.2% | 944.9hPa | 2.7V | 02:52:00 | 00:00:00 | 00:00:00 | |
| DB0UT-7 | 2026-09-01 07:00:24 | 49.75225 | 8.78179 | 76° | 31km/h | 748m | -10.1m/s | 13.7°C | 73.1% | 940.1hPa | 2.6V | 00:00:00 | 02:29:03 | 00:00:00 | |
| DB0UT-7 | 2026-09-01 07:00:19 | 49.75217 | 8.78119 | 81° | 33km/h | 798m | -9.9m/s | 13.3°C | 72.4% | 934.5hPa | 2.6V | 00:00:00 | 00:00:00 | 00:00:00 | |
| DF7PN | 2026-09-01 07:00:18 | 49.75214 | 8.78093 | 78° | 31km/h | 817m | -10.0m/s | 13.2°C | 71.3% | 932.5hPa | 2.6V | 00:00:00 | 00:00:00 | 00:00:00 | |
| DB0UT-9 | 2026-09-01 07:00:16 | 49.75214 | 8.78093 | 80° | 31km/h | 817m | -10.0m/s | 13.2°C | 71.3% | 932.5hPa | 2.6V | 02:53:00 | 00:00:00 | 00:00:00 | |
| DB0UT-7 | 2026-09-01 07:00:14 | 49.75208 | 8.78057 | 75° | 35km/h | 846m | -9.8m/s | 13.0°C | 71.4% | 929.1hPa | 2.6V | 02:53:00 | 02:28:53 | 00:00:00 | |
| DB0UT-7 | 2026-09-01 07:00:09 | 49.75199 | 8.77990 | 81° | 35km/h | 895m | -9.9m/s | 12.6°C | 70.2% | 923.7hPa | 2.7V | 00:00:00 | 00:00:00 | 00:00:00 | |
| DB0UT-7 | 2026-09-01 07:00:04 | 49.75190 | 8.77922 | 77° | 35km/h | 945m | -9.8m/s | 12.3°C | 71.4% | 918.3hPa | 2.7V | 00:00:00 | 02:28:43 | 00:00:00 | |
| DL1ZP-14 | 2026-09-01 07:00:01 | 49.75182 | 8.77870 | 74° | 33km/h | 983m | -9.8m/s | 12.0°C | 71.5% | 914.2hPa | 2.7V | 00:00:00 | 00:00:00 | 00:00:00 | |
| DB0ND-19 | 2026-09-01 06:59:58 | 49.75177 | 8.77844 | 75° | 33km/h | 1002m | -9.9m/s | 11.9°C | 74.0% | 911.9hPa | 2.7V | 00:00:00 | 00:00:00 | 00:00:00 | |
| DF7PN | 2026-09-01 06:59:47 | 49.75154 | 8.77682 | 76° | 33km/h | 1120m | -9.7m/s | 10.9°C | 76.7% | 899.1hPa | 2.7V | 00:00:00 | 00:00:00 | 00:00:00 | |
| DK5PH-5 | 2026-09-01 06:59:38 | 49.75135 | 8.77579 | 77° | 35km/h | 1197m | -9.9m/s | 10.2°C | 80.8% | 890.6hPa | 2.7V | 00:00:00 | 02:28:17 | 00:00:00 | |
| DB0NH | 2026-09-01 06:59:34 | 49.75126 | 8.77525 | 79° | 35km/h | 1236m | -9.9m/s | 10.1°C | 79.0% | 886.5hPa | 2.7V | 00:00:00 | 02:28:13 | 00:00:00 | |
| DL1ZP-14 | 2026-09-01 06:59:29 | 49.75116 | 8.77457 | 73° | 33km/h | 1285m | -9.7m/s | 9.9°C | 75.8% | 881.3hPa | 2.7V | 00:00:00 | 00:00:00 | 00:00:00 | |
| DK5PH-5 | 2026-09-01 06:59:28 | 49.75114 | 8.77444 | 72° | 33km/h | 1295m | -9.8m/s | 9.8°C | 76.6% | 880.1hPa | 2.7V | 00:00:00 | 02:28:07 | 00:00:00 | |
| DB0ND-19 | 2026-09-01 06:59:27 | 49.75111 | 8.77432 | 70° | 31km/h | 1305m | -10.2m/s | 9.7°C | 76.2% | 879.3hPa | 2.7V | 00:00:00 | 00:00:00 | 00:00:00 | |
| DB0NH | 2026-09-01 06:59:24 | 49.75103 | 8.77396 | 72° | 33km/h | 1335m | -10.0m/s | 9.4°C | 79.7% | 876.0hPa | 2.7V | 02:54:00 | 02:28:03 | 00:00:00 | |
| DF7PN | 2026-09-01 06:59:16 | 49.75087 | 8.77282 | 82° | 33km/h | 1424m | -9.9m/s | 8.8°C | 82.7% | 866.6hPa | 2.6V | 00:00:00 | 00:00:00 | 00:00:00 | |
| DB0UT-9 | 2026-09-01 06:59:14 | 49.75087 | 8.77282 | 84° | 35km/h | 1424m | -9.9m/s | 8.8°C | 82.7% | 866.6hPa | 2.6V | 02:54:00 | 00:00:00 | 00:00:00 | |
| DB0NH | 2026-09-01 06:59:12 | 49.75084 | 8.77243 | 82° | 38km/h | 1454m | -9.9m/s | 8.5°C | 84.2% | 863.4hPa | 2.6V | 00:00:00 | 02:27:51 | 00:00:00 | |
| DK5PH-5 | 2026-09-01 06:59:08 | 49.75077 | 8.77192 | 76° | 31km/h | 1493m | -9.7m/s | 8.2°C | 86.0% | 859.4hPa | 2.6V | 00:00:00 | 02:27:47 | 00:00:00 | |
| DL1ZP-14 | 2026-09-01 06:58:58 | 49.75057 | 8.77074 | 78° | 31km/h | 1592m | -10.2m/s | 7.6°C | 85.7% | 849.1hPa | 2.6V | 00:00:00 | 00:00:00 | 00:00:00 | |
| DB0ND-19 | 2026-09-01 06:58:56 | 49.75054 | 8.77049 | 82° | 31km/h | 1612m | -10.1m/s | 7.5°C | 88.2% | 847.1hPa | 2.6V | 00:00:00 | 00:00:00 | 00:00:00 | |
| DF7PN | 2026-09-01 06:58:45 | 49.75046 | 8.76908 | 85° | 27km/h | 1736m | -10.3m/s | 6.9°C | 85.0% | 834.9hPa | 2.6V | 00:00:00 | 00:00:00 | 00:00:00 | |
| DK5PH-5 | 2026-09-01 06:58:38 | 49.75045 | 8.76839 | 93° | 31km/h | 1797m | -10.1m/s | 6.9°C | 74.8% | 828.7hPa | 2.6V | 00:00:00 | 02:27:17 | 00:00:00 | |
| DB0UT-7 | 2026-09-01 06:58:37 | 49.75045 | 8.76827 | 94° | 31km/h | 1807m | -10.1m/s | 6.9°C | 74.8% | 827.7hPa | 2.6V | 02:54:00 | 02:27:16 | 00:00:00 | |
| DB0UT-9 | 2026-09-01 06:58:33 | 49.75047 | 8.76791 | 97° | 31km/h | 1837m | -10.5m/s | 6.7°C | 73.8% | 824.7hPa | 2.7V | 02:55:00 | 00:00:00 | 00:00:00 | |
| DK5PH-5 | 2026-09-01 06:58:28 | 49.75052 | 8.76720 | 98° | 29km/h | 1898m | -10.1m/s | 6.3°C | 78.9% | 818.5hPa | 2.7V | 00:00:00 | 02:27:07 | 00:00:00 | |
| DL1ZP-14 | 2026-09-01 06:58:27 | 49.75053 | 8.76709 | 98° | 29km/h | 1908m | -10.5m/s | 6.3°C | 78.9% | 817.5hPa | 2.7V | 00:00:00 | 00:00:00 | 00:00:00 | |
| DB0UT-7 | 2026-09-01 06:58:27 | 49.75053 | 8.76708 | 99° | 29km/h | 1908m | -10.4m/s | 6.2°C | 80.2% | 817.5hPa | 2.6V | 00:00:00 | 00:00:00 | 00:00:00 | |
| DB0ND-19 | 2026-09-01 06:58:25 | 49.75055 | 8.76685 | 95° | 29km/h | 1928m | -10.3m/s | 6.1°C | 78.4% | 815.5hPa | 2.6V | 00:00:00 | 00:00:00 | 00:00:00 | |
| DK5PH-5 | 2026-09-01 06:58:18 | 49.75060 | 8.76607 | 99° | 29km/h | 1998m | -10.4m/s | 5.5°C | 81.0% | 808.4hPa | 2.6V | 02:55:00 | 02:26:57 | 00:00:00 | |
| DB0UT-7 | 2026-09-01 06:58:17 | 49.75062 | 8.76596 | 101° | 29km/h | 2008m | -10.4m/s | 5.5°C | 82.5% | 807.4hPa | 2.6V | 00:00:00 | 02:26:56 | 00:00:00 | |
| DB0UT-9 | 2026-09-01 06:58:13 | 49.75066 | 8.76564 | 104° | 29km/h | 2039m | -10.6m/s | 5.3°C | 81.5% | 804.4hPa | 2.6V | 02:55:00 | 00:00:00 | 00:00:00 | |
| DK5PH-5 | 2026-09-01 06:58:06 | 49.75080 | 8.76476 | 111° | 31km/h | 2121m | -10.3m/s | 4.8°C | 76.1% | 796.2hPa | 2.6V | 00:00:00 | 02:26:45 | 00:00:00 | |
| DL0LBS | 2026-09-01 06:58:05 | 49.75080 | 8.76476 | 111° | 31km/h | 2121m | -10.4m/s | 4.9°C | 74.8% | 796.3hPa | 2.6V | 02:55:00 | 00:00:00 | 00:00:00 | |
| DL1ZP-14 | 2026-09-01 06:57:56 | 49.75109 | 8.76361 | 115° | 31km/h | 2225m | -10.9m/s | 4.0°C | 75.6% | 786.2hPa | 2.6V | 00:00:00 | 00:00:00 | 00:00:00 | |
| DB0UT-9 | 2026-09-01 06:57:54 | 49.75115 | 8.76339 | 117° | 31km/h | 2246m | -10.7m/s | 3.9°C | 76.3% | 784.3hPa | 2.6V | 02:55:00 | 00:00:00 | 00:00:00 | |
| DB0UT-7 | 2026-09-01 06:57:49 | 49.75131 | 8.76286 | 113° | 29km/h | 2298m | -10.7m/s | 3.4°C | 81.3% | 779.2hPa | 2.6V | 02:55:00 | 00:00:00 | 00:00:00 | |
| DK5PH-5 | 2026-09-01 06:57:46 | 49.75139 | 8.76254 | 111° | 27km/h | 2330m | -10.6m/s | 3.2°C | 83.0% | 776.0hPa | 2.6V | 00:00:00 | 02:26:25 | 00:00:00 | |
| DL0LBS | 2026-09-01 06:57:45 | 49.75140 | 8.76254 | 112° | 29km/h | 2330m | -10.6m/s | 3.2°C | 81.5% | 776.1hPa | 2.6V | 02:55:00 | 00:00:00 | 00:00:00 | |
| DF7PN | 2026-09-01 06:57:43 | 49.75150 | 8.76210 | 106° | 27km/h | 2372m | -10.9m/s | 2.9°C | 80.1% | 772.0hPa | 2.6V | 00:00:00 | 00:00:00 | 00:00:00 | |
| DB0UT-9 | 2026-09-01 06:57:32 | 49.75172 | 8.76116 | 107° | 27km/h | 2469m | -10.6m/s | 2.1°C | 82.7% | 763.1hPa | 2.6V | 02:55:00 | 00:00:00 | 00:00:00 | |
| DK5PH-5 | 2026-09-01 06:57:26 | 49.75184 | 8.76043 | 102° | 33km/h | 2543m | -11.1m/s | 1.6°C | 76.7% | 756.0hPa | 2.6V | 02:56:00 | 02:26:05 | 00:00:00 | |
| DL1ZP-14 | 2026-09-01 06:57:25 | 49.75185 | 8.76032 | 99° | 27km/h | 2554m | -11.0m/s | 1.7°C | 70.8% | 755.0hPa | 2.6V | 00:00:00 | 00:00:00 | 00:00:00 | |
| DL0LBS | 2026-09-01 06:57:24 | 49.75185 | 8.76032 | 100° | 29km/h | 2554m | -11.0m/s | 1.7°C | 70.8% | 755.0hPa | 2.5V | 02:56:00 | 00:00:00 | 00:00:00 | |
| DB0ND-19 | 2026-09-01 06:57:23 | 49.75187 | 8.76010 | 97° | 29km/h | 2575m | -11.0m/s | 1.7°C | 71.1% | 753.0hPa | 2.5V | 00:00:00 | 00:00:00 | 00:00:00 | |
| DB0UT-7 | 2026-09-01 06:57:13 | 49.75198 | 8.75891 | 103° | 38km/h | 2685m | -11.0m/s | 1.4°C | 62.7% | 743.0hPa | 2.5V | 00:00:00 | 02:25:52 | 00:00:00 | |
| NBG1-10 | 2026-09-01 06:57:12 | 49.75199 | 8.75879 | 104° | 38km/h | 2696m | -10.9m/s | 1.4°C | 61.0% | 742.1hPa | 2.5V | 00:00:00 | 02:25:51 | 00:00:00 | |
| DB0UT-9 | 2026-09-01 06:57:11 | 49.75199 | 8.75879 | 104° | 35km/h | 2696m | -11.0m/s | 1.4°C | 59.7% | 742.1hPa | 2.5V | 02:56:00 | 00:00:00 | 00:00:00 | |
| DK5PH-5 | 2026-09-01 06:57:06 | 49.75212 | 8.75799 | 106° | 38km/h | 2761m | -10.5m/s | 1.4°C | 55.8% | 736.2hPa | 2.5V | 00:00:00 | 02:25:45 | 00:00:00 | |
| DL0LBS | 2026-09-01 06:57:05 | 49.75214 | 8.75785 | 107° | 38km/h | 2771m | -10.7m/s | 1.4°C | 58.1% | 735.2hPa | 2.5V | 02:56:00 | 00:00:00 | 00:00:00 | |
| DL1ZP-14 | 2026-09-01 06:56:54 | 49.75236 | 8.75621 | 101° | 38km/h | 2888m | -11.2m/s | 1.7°C | 46.5% | 724.5hPa | 2.5V | 00:00:00 | 00:00:00 | 00:00:00 | |
| DB0ND-19 | 2026-09-01 06:56:52 | 49.75240 | 8.75591 | 100° | 38km/h | 2910m | -11.0m/s | 1.7°C | 44.3% | 722.5hPa | 2.6V | 00:00:00 | 00:00:00 | 00:00:00 | |
| NBG1-10 | 2026-09-01 06:56:50 | 49.75243 | 8.75560 | 102° | 38km/h | 2932m | -11.0m/s | 1.7°C | 42.0% | 720.5hPa | 2.6V | 00:00:00 | 02:25:29 | 00:00:00 | |
| DK5PH-5 | 2026-09-01 06:56:46 | 49.75251 | 8.75501 | 105° | 38km/h | 2975m | -11.0m/s | 1.5°C | 43.0% | 716.6hPa | 2.6V | 00:00:00 | 02:25:25 | 00:00:00 | |
| DL0LBS | 2026-09-01 06:56:44 | 49.75253 | 8.75487 | 105° | 38km/h | 2986m | -11.0m/s | 1.4°C | 42.6% | 715.7hPa | 2.6V | 02:56:00 | 00:00:00 | 00:00:00 | |
| DF7PN | 2026-09-01 06:56:40 | 49.75264 | 8.75417 | 108° | 37km/h | 3041m | -11.4m/s | 1.1°C | 44.5% | 710.8hPa | 2.6V | 00:00:00 | 00:00:00 | 00:00:00 | |
| DB0UT-7 | 2026-09-01 06:56:33 | 49.75282 | 8.75320 | 108° | 37km/h | 3119m | -11.5m/s | 0.6°C | 44.9% | 703.9hPa | 2.6V | 02:56:00 | 02:25:12 | 00:00:00 | |
| DM7RM-13 | 2026-09-01 06:56:32 | 49.75282 | 8.75320 | 108° | 37km/h | 3119m | -11.6m/s | 0.6°C | 43.9% | 703.9hPa | 2.6V | 02:57:00 | 00:00:00 | 00:00:00 | |
| DB0UT-9 | 2026-09-01 06:56:30 | 49.75287 | 8.75293 | 107° | 37km/h | 3142m | -11.5m/s | 0.5°C | 43.4% | 701.9hPa | 2.6V | 02:57:00 | 00:00:00 | 00:00:00 | |
| DF1GD-15 | 2026-09-01 06:56:29 | 49.75289 | 8.75279 | 107° | 38km/h | 3153m | -11.6m/s | 0.4°C | 43.1% | 700.9hPa | 2.6V | 02:57:00 | 00:00:00 | 00:00:00 | |
| NBG1-10 | 2026-09-01 06:56:28 | 49.75293 | 8.75251 | 105° | 35km/h | 3176m | -11.3m/s | 0.2°C | 42.6% | 698.7hPa | 2.6V | 02:57:00 | 02:25:07 | 00:00:00 | |
| DK5PH-5 | 2026-09-01 06:56:26 | 49.75297 | 8.75224 | 105° | 37km/h | 3199m | -11.5m/s | 0.1°C | 41.8% | 696.9hPa | 2.5V | 02:57:00 | 02:25:05 | 00:00:00 | |
| DL1ZP-14 | 2026-09-01 06:56:23 | 49.75303 | 8.75182 | 104° | 37km/h | 3233m | -11.5m/s | -0.1°C | 38.2% | 693.8hPa | 2.6V | 00:00:00 | 00:00:00 | 00:00:00 | |
| DB0ND-19 | 2026-09-01 06:56:21 | 49.75307 | 8.75155 | 105° | 37km/h | 3256m | -11.2m/s | -0.2°C | 39.6% | 691.8hPa | 2.5V | 00:00:00 | 00:00:00 | 00:00:00 | |
| DM7RM-13 | 2026-09-01 06:56:11 | 49.75330 | 8.75033 | 107° | 37km/h | 3359m | -11.8m/s | -0.9°C | 41.9% | 683.0hPa | 2.5V | 02:57:00 | 00:00:00 | 00:00:00 | |
| DF7PN | 2026-09-01 06:56:09 | 49.75337 | 8.74991 | 104° | 37km/h | 3394m | -11.8m/s | -1.2°C | 42.0% | 679.9hPa | 2.5V | 00:00:00 | 00:00:00 | 00:00:00 | |
| DF1GD-15 | 2026-09-01 06:56:08 | 49.75337 | 8.74992 | 106° | 38km/h | 3394m | -11.8m/s | -1.2°C | 42.0% | 679.9hPa | 2.5V | 02:57:00 | 00:00:00 | 00:00:00 | |
| DB0UT-9 | 2026-09-01 06:56:05 | 49.75345 | 8.74936 | 102° | 37km/h | 3441m | -11.6m/s | -1.4°C | 38.7% | 676.1hPa | 2.5V | 02:57:00 | 00:00:00 | 00:00:00 | |
| DL0LBS | 2026-09-01 06:56:02 | 49.75348 | 8.74908 | 102° | 37km/h | 3464m | -11.8m/s | -1.5°C | 38.1% | 674.1hPa | 2.5V | 02:57:00 | 00:00:00 | 00:00:00 | |
| DL1ZP-14 | 2026-09-01 06:55:52 | 49.75364 | 8.74758 | 96° | 33km/h | 3590m | -12.1m/s | -2.4°C | 38.6% | 663.4hPa | 2.5V | 00:00:00 | 00:00:00 | 00:00:00 | |
| DB0ND-19 | 2026-09-01 06:55:50 | 49.75366 | 8.74731 | 95° | 33km/h | 3613m | -12.3m/s | -2.6°C | 38.4% | 661.4hPa | 2.5V | 00:00:00 | 00:00:00 | 00:00:00 | |
| NBG1-10 | 2026-09-01 06:55:49 | 49.75367 | 8.74717 | 96° | 37km/h | 3625m | -12.1m/s | -2.6°C | 39.4% | 660.4hPa | 2.5V | 00:00:00 | 02:24:28 | 00:00:00 | |
| DF1GD-15 | 2026-09-01 06:55:48 | 49.75367 | 8.74718 | 97° | 35km/h | 3625m | -12.1m/s | -2.7°C | 38.3% | 660.5hPa | 2.5V | 02:58:00 | 00:00:00 | 00:00:00 | |
| DB0UT-9 | 2026-09-01 06:55:43 | 49.75370 | 8.74648 | 94° | 35km/h | 3684m | -11.9m/s | -3.1°C | 38.7% | 655.7hPa | 2.5V | 02:58:00 | 00:00:00 | 00:00:00 | |
| DL0LBS | 2026-09-01 06:55:41 | 49.75371 | 8.74620 | 94° | 37km/h | 3706m | -11.6m/s | -3.3°C | 38.5% | 653.8hPa | 2.5V | 02:58:00 | 00:00:00 | 00:00:00 | |
| DF7PN | 2026-09-01 06:55:38 | 49.75372 | 8.74562 | 92° | 37km/h | 3752m | -11.8m/s | -3.7°C | 37.2% | 650.0hPa | 2.5V | 00:00:00 | 00:00:00 | 00:00:00 | |
| BEGRI65-1 | 2026-09-01 06:55:36 | 49.75372 | 8.74547 | 94° | 38km/h | 3764m | -11.7m/s | -3.7°C | 37.3% | 649.0hPa | 2.5V | 00:00:00 | 00:00:00 | 00:00:00 | |
| DM7RM-13 | 2026-09-01 06:55:29 | 49.75378 | 8.74444 | 99° | 40km/h | 3843m | -11.8m/s | -4.3°C | 41.5% | 642.4hPa | 2.5V | 02:58:00 | 00:00:00 | 00:00:00 | |
| DF1GD-15 | 2026-09-01 06:55:28 | 49.75380 | 8.74428 | 99° | 40km/h | 3854m | -11.9m/s | -4.3°C | 37.7% | 641.4hPa | 2.5V | 02:58:00 | 00:00:00 | 00:00:00 | |
| DK5PH-5 | 2026-09-01 06:55:26 | 49.75383 | 8.74381 | 95° | 37km/h | 3889m | -11.9m/s | -4.2°C | 27.4% | 638.6hPa | 2.5V | 00:00:00 | 02:24:05 | 00:00:00 | |
| DB0UT-9 | 2026-09-01 06:55:23 | 49.75384 | 8.74349 | 95° | 40km/h | 3912m | -12.0m/s | -4.4°C | 25.4% | 636.7hPa | 2.5V | 02:58:00 | 00:00:00 | 00:00:00 | |
| DL0LBS | 2026-09-01 06:55:22 | 49.75387 | 8.74304 | 95° | 37km/h | 3948m | -12.4m/s | -4.7°C | 32.6% | 633.9hPa | 2.5V | 02:58:00 | 00:00:00 | 00:00:00 | |
| DL1ZP-14 | 2026-09-01 06:55:21 | 49.75387 | 8.74304 | 93° | 37km/h | 3948m | -12.4m/s | -4.7°C | 32.6% | 633.9hPa | 2.5V | 00:00:00 | 00:00:00 | 00:00:00 | |
| DB0ND-19 | 2026-09-01 06:55:19 | 49.75388 | 8.74275 | 93° | 35km/h | 3972m | -12.3m/s | -4.8°C | 37.0% | 632.0hPa | 2.6V | 00:00:00 | 00:00:00 | 00:00:00 | |
| NBG1-10 | 2026-09-01 06:55:16 | 49.75391 | 8.74234 | 93° | 40km/h | 4008m | -11.8m/s | -5.0°C | 35.8% | 628.8hPa | 2.6V | 00:00:00 | 02:23:55 | 00:00:00 | |
| BEGRI65-1 | 2026-09-01 06:55:12 | 49.75393 | 8.74193 | 99° | 37km/h | 4045m | -12.2m/s | -5.1°C | 32.4% | 626.1hPa | 2.6V | 00:00:00 | 00:00:00 | 00:00:00 | |
| DM7RM-13 | 2026-09-01 06:55:09 | 49.75398 | 8.74137 | 100° | 37km/h | 4092m | -11.9m/s | -5.3°C | 28.8% | 622.7hPa | 2.6V | 02:58:00 | 00:00:00 | 00:00:00 | |
| DL9PN | 2026-09-01 06:55:07 | 49.75402 | 8.74093 | 99° | 38km/h | 4127m | -11.8m/s | -5.4°C | 27.1% | 619.8hPa | 2.6V | 00:00:00 | 00:00:00 | 00:00:00 | |
| DB0UT-9 | 2026-09-01 06:55:03 | 49.75405 | 8.74063 | 100° | 38km/h | 4150m | -12.0m/s | -5.5°C | 26.3% | 618.0hPa | 2.6V | 02:58:00 | 00:00:00 | 00:00:00 | |
| DL1ZP-14 | 2026-09-01 06:54:50 | 49.75427 | 8.73855 | 101° | 40km/h | 4318m | -12.0m/s | -6.1°C | 19.1% | 604.9hPa | 2.6V | 00:00:00 | 00:00:00 | 00:00:00 | |
| DM7RM-13 | 2026-09-01 06:54:48 | 49.75431 | 8.73823 | 105° | 44km/h | 4342m | -12.2m/s | -6.1°C | 17.1% | 603.2hPa | 2.5V | 02:59:00 | 00:00:00 | 00:00:00 | |
| DF1GD-15 | 2026-09-01 06:54:47 | 49.75431 | 8.73823 | 105° | 44km/h | 4342m | -12.2m/s | -6.1°C | 17.1% | 603.2hPa | 2.5V | 00:00:00 | 00:00:00 | 00:00:00 | |
| DM0DOS-11 | 2026-09-01 06:54:46 | 49.75441 | 8.73758 | 106° | 46km/h | 4389m | -11.8m/s | -6.1°C | 14.2% | 599.5hPa | 2.5V | 02:58:44 | 02:23:23 | 00:00:00 | |
| NBG1-10 | 2026-09-01 06:54:43 | 49.75445 | 8.73741 | 108° | 46km/h | 4401m | -12.0m/s | -6.2°C | 14.2% | 598.5hPa | 2.6V | 02:58:00 | 02:23:22 | 00:00:00 | |
| DB0UT-9 | 2026-09-01 06:54:42 | 49.75445 | 8.73741 | 109° | 46km/h | 4401m | -12.0m/s | -6.2°C | 13.7% | 598.5hPa | 2.5V | 00:00:00 | 00:00:00 | 00:00:00 | |
| DM0DOS-11 | 2026-09-01 06:54:41 | 49.75458 | 8.73675 | 107° | 44km/h | 4446m | -12.2m/s | -6.6°C | 14.3% | 594.9hPa | 2.5V | 02:58:49 | 02:23:18 | 00:00:00 | |
| BIOWL1-15 | 2026-09-01 06:54:37 | 49.75471 | 8.73609 | 106° | 44km/h | 4494m | -12.4m/s | -6.6°C | 12.8% | 591.3hPa | 2.6V | 02:59:19 | 02:23:14 | 00:00:00 | |
| DL9PN | 2026-09-01 06:54:36 | 49.75471 | 8.73609 | 105° | 42km/h | 4494m | -12.4m/s | -6.6°C | 10.8% | 591.3hPa | 2.5V | 00:00:00 | 00:00:00 | 00:00:00 | |
| DB0NH | 2026-09-01 06:54:34 | 49.75474 | 8.73592 | 106° | 46km/h | 4506m | -12.3m/s | -6.7°C | 11.2% | 590.5hPa | 2.5V | 00:00:00 | 02:23:13 | 00:00:00 | |
| DM0DOS-11 | 2026-09-01 06:54:31 | 49.75491 | 8.73476 | 104° | 46km/h | 4588m | -12.4m/s | -7.3°C | 10.6% | 584hPa | 2.5V | 02:59:01 | 02:23:06 | 00:00:00 | |
| DF1GD-15 | 2026-09-01 06:54:27 | 49.75488 | 8.73493 | 107° | 46km/h | 4576m | -12.8m/s | -7.3°C | 10.7% | 585.1hPa | 2.6V | 00:00:00 | 00:00:00 | 00:00:00 | |
| DK5PH-5 | 2026-09-01 06:54:26 | 49.75494 | 8.73459 | 104° | 46km/h | 4601m | -11.8m/s | -7.2°C | 9.8% | 583.2hPa | 2.6V | 00:00:00 | 02:23:05 | 00:00:00 | |
| DM0DOS-11 | 2026-09-01 06:54:25 | 49.75505 | 8.73387 | 103° | 49km/h | 4647m | -12m/s | -7.4°C | 6.3% | 579.7hPa | 2.6V | 02:59:06 | 02:23:01 | 00:00:00 | |
| BIOWL1-15 | 2026-09-01 06:54:24 | 49.75510 | 8.73350 | 104° | 49km/h | 4670m | -12.2m/s | -7.3°C | 4.6% | 577.9hPa | 2.5V | 02:59:19 | 02:22:59 | 00:00:00 | |
| DM0DOS-11 | 2026-09-01 06:54:20 | 49.75518 | 8.73295 | 102° | 46km/h | 4706m | -12.4m/s | -7.4°C | 6.2% | 575.2hPa | 2.6V | 02:59:11 | 02:22:56 | 00:00:00 | |
| BIOWL9-15 | 2026-09-01 06:54:19 | 49.75516 | 8.73313 | 102° | 47km/h | 4694m | -12.3m/s | -7.3°C | 5.8% | 576.2hPa | 2.5V | 00:00:00 | 00:00:00 | 00:00:00 | |
| DB0ND-19 | 2026-09-01 06:54:17 | 49.75518 | 8.73295 | 102° | 46km/h | 4706m | -12.4m/s | -7.4°C | 5.8% | 575.2hPa | 2.5V | 00:00:00 | 00:00:00 | 00:00:00 | |
| DM0DOS-11 | 2026-09-01 06:54:15 | 49.75531 | 8.73210 | 102° | 44km/h | 4767m | -12m/s | -7.9°C | 6.7% | 570.9hPa | 2.5V | 02:59:16 | 02:22:51 | 00:00:00 | |
| BIOWL1-15 | 2026-09-01 06:54:15 | 49.75528 | 8.73227 | 103° | 44km/h | 4755m | -12.4m/s | -7.8°C | 6.6% | 571.7hPa | 2.5V | 02:59:19 | 02:22:52 | 00:00:00 | |
| DB0UT-9 | 2026-09-01 06:54:14 | 49.75523 | 8.73260 | 103° | 44km/h | 4731m | -12.6m/s | -7.6°C | 6.1% | 573.5hPa | 2.6V | 00:00:00 | 00:00:00 | 00:00:00 | |
| DM0DOS-11 | 2026-09-01 06:54:10 | 49.75547 | 8.73124 | 106° | 47km/h | 4827m | -11.7m/s | -8.3°C | 6.5% | 566.5hPa | 2.6V | 02:59:21 | 02:22:46 | 00:00:00 | |
| NBG1-10 | 2026-09-01 06:54:10 | 49.75536 | 8.73176 | 106° | 44km/h | 4791m | -12.2m/s | -8.0°C | 6.7% | 569.0hPa | 2.6V | 00:00:00 | 02:22:49 | 00:00:00 | |
| DM7RM-13 | 2026-09-01 06:54:06 | 49.75547 | 8.73123 | 108° | 47km/h | 4827m | -11.7m/s | -8.3°C | 6.2% | 566.6hPa | 2.6V | 03:00:00 | 00:00:00 | 00:00:00 | |
| DM0DOS-11 | 2026-09-01 06:54:05 | 49.75565 | 8.73036 | 105° | 44km/h | 4889m | -12.3m/s | -8.8°C | 6.4% | 562.3hPa | 2.6V | 02:59:26 | 02:22:41 | 00:00:00 | |
| BIOWL1-15 | 2026-09-01 06:54:03 | 49.75561 | 8.73053 | 106° | 46km/h | 4876m | -12.5m/s | -8.7°C | 6.3% | 563.1hPa | 2.6V | 03:00:10 | 02:22:42 | 00:00:00 | |
| BIOWL1-15 | 2026-09-01 06:53:52 | 49.75605 | 8.72826 | 107° | 44km/h | 5041m | -12.4m/s | -9.8°C | 6.9% | 551.1hPa | 2.6V | 03:00:10 | 02:22:28 | 00:00:00 | |
| BIOWL9-15 | 2026-09-01 06:53:48 | 49.75611 | 8.72794 | 109° | 40km/h | 5065m | -12.7m/s | -10.0°C | 11.4% | 549.5hPa | 2.6V | 00:00:00 | 00:00:00 | 00:00:00 | |
| DB0ND-19 | 2026-09-01 06:53:46 | 49.75614 | 8.72779 | 108° | 40km/h | 5077m | -12.5m/s | -10.1°C | 12.7% | 548.5hPa | 2.6V | 00:00:00 | 00:00:00 | 00:00:00 | |
| DH7VM-15 | 2026-09-01 06:53:45 | 49.75614 | 8.72779 | 109° | 40km/h | 5078m | -12.5m/s | -10.1°C | 12.7% | 548.5hPa | 2.6V | 00:00:00 | 00:00:00 | 00:00:00 | |
| BEGRI65-1 | 2026-09-01 06:53:44 | 49.75617 | 8.72763 | 109° | 40km/h | 5089m | -12.2m/s | -10.2°C | 12.0% | 547.7hPa | 2.6V | 03:00:00 | 00:00:00 | 00:00:00 | |
| DF1GD-15 | 2026-09-01 06:53:42 | 49.75626 | 8.72718 | 110° | 42km/h | 5125m | -11.7m/s | -10.4°C | 10.7% | 545.1hPa | 2.6V | 00:00:00 | 00:00:00 | 00:00:00 | |
| DM0DOS-11 | 2026-09-01 06:53:40 | 49.75637 | 8.72669 | 110° | 46km/h | 5158m | -11.6m/s | -10.7°C | 12.3% | 542.6hPa | 2.6V | 02:59:49 | 02:22:18 | 00:00:00 | |
| BIOWL1-15 | 2026-09-01 06:53:39 | 49.75641 | 8.72652 | 111° | 46km/h | 5169m | -12.2m/s | -10.8°C | 15% | 541.7hPa | 2.6V | 03:00:10 | 02:22:17 | 00:00:00 | |
| BIOWL1-15 | 2026-09-01 06:53:29 | 49.75668 | 8.72511 | 107° | 44km/h | 5278m | -11.8m/s | -11.7°C | 33.1% | 534.3hPa | 2.6V | 03:00:10 | 02:22:08 | 00:00:00 | |
| DB0UT-9 | 2026-09-01 06:53:28 | 49.75668 | 8.72511 | 108° | 44km/h | 5278m | -11.8m/s | -11.7°C | 27.2% | 534.3hPa | 2.5V | 03:00:00 | 00:00:00 | 00:00:00 | |
| DK5PH-5 | 2026-09-01 06:53:26 | 49.75678 | 8.72461 | 108° | 51km/h | 5311m | -11.6m/s | -11.9°C | 30.2% | 531.7hPa | 2.5V | 03:00:00 | 02:22:05 | 00:00:00 | |
| DM0DOS-11 | 2026-09-01 06:53:25 | 49.75685 | 8.72427 | 105° | 47km/h | 5334m | -12.3m/s | -12.1°C | 29.3% | 530.1hPa | 2.5V | 03:00:04 | 02:22:03 | 00:00:00 | |
| BIOWL1-15 | 2026-09-01 06:53:19 | 49.75700 | 8.72337 | 103° | 49km/h | 5393m | -12.1m/s | -12.4°C | 33.5% | 526.2hPa | 2.5V | 03:00:10 | 02:21:58 | 00:00:00 | |
| BIOWL1-15 | 2026-09-01 06:53:09 | 49.75722 | 8.72143 | 95° | 49km/h | 5513m | -11.9m/s | -12.7°C | 42.3% | 518.2hPa | 2.5V | 03:01:01 | 02:21:48 | 00:00:00 | |
| DB0UT-9 | 2026-09-01 06:53:08 | 49.75721 | 8.72143 | 96° | 49km/h | 5513m | -11.9m/s | -12.7°C | 35.3% | 518.2hPa | 2.5V | 03:01:00 | 00:00:00 | 00:00:00 | |
| DM0DOS-11 | 2026-09-01 06:53:05 | 49.75732 | 8.71977 | 95° | 55km/h | 5602m | -12.2m/s | -13.3°C | 54.5% | 511.9hPa | 2.5V | 03:00:27 | 02:21:40 | 00:00:00 | |
| BIOWL1-15 | 2026-09-01 06:53:00 | 49.75735 | 8.71913 | 94° | 53km/h | 5638m | -12.4m/s | -13.7°C | 63.4% | 509.5hPa | 2.6V | 03:01:01 | 02:21:37 | 00:00:00 | |
| DL0LBS | 2026-09-01 06:52:58 | 49.75734 | 8.71934 | 95° | 53km/h | 5626m | -12.4m/s | -13.6°C | 54.0% | 510.3hPa | 2.5V | 03:01:00 | 00:00:00 | 00:00:00 | |
| DF1GD-15 | 2026-09-01 06:52:57 | 49.75735 | 8.71913 | 95° | 53km/h | 5638m | -12.4m/s | -13.7°C | 55.7% | 509.5hPa | 2.5V | 03:01:00 | 00:00:00 | 00:00:00 | |
| DK5PH-5 | 2026-09-01 06:52:56 | 49.75737 | 8.71872 | 94° | 57km/h | 5662m | -12.2m/s | -13.8°C | 61.0% | 507.9hPa | 2.5V | 00:00:00 | 02:21:35 | 00:00:00 | |
| DM0DOS-11 | 2026-09-01 06:52:55 | 49.75741 | 8.71746 | 93° | 57km/h | 5732m | -11.6m/s | -14.4°C | 60.3% | 503.4hPa | 2.5V | 03:00:38 | 02:21:29 | 00:00:00 | |
| BIOWL1-15 | 2026-09-01 06:52:48 | 49.75742 | 8.71701 | 94° | 57km/h | 5755m | -12.3m/s | -14.6°C | 65.5% | 501.7hPa | 2.5V | 03:01:01 | 02:21:27 | 00:00:00 | |
| BIOWL9-15 | 2026-09-01 06:52:46 | 49.75743 | 8.71635 | 89° | 57km/h | 5789m | -12.2m/s | -14.9°C | 55.6% | 499.5hPa | 2.6V | 00:00:00 | 00:00:00 | 00:00:00 | |
| DB0ND-19 | 2026-09-01 06:52:44 | 49.75743 | 8.71612 | 88° | 57km/h | 5801m | -12.3m/s | -14.9°C | 45.7% | 498.7hPa | 2.6V | 00:00:00 | 00:00:00 | 00:00:00 | |
| BEGRI65-1 | 2026-09-01 06:52:43 | 49.75743 | 8.71612 | 90° | 58km/h | 5801m | -12.3m/s | -14.9°C | 45.8% | 498.7hPa | 2.6V | 03:01:00 | 00:00:00 | 00:00:00 | |
| DM0DOS-11 | 2026-09-01 06:52:39 | 49.75740 | 8.71481 | 88° | 58km/h | 5875m | -11.7m/s | -15.3°C | 40.3% | 494.1hPa | 2.6V | 03:00:50 | 02:21:17 | 00:00:00 | |
| BIOWL1-15 | 2026-09-01 06:52:39 | 49.75739 | 8.71457 | 90° | 60km/h | 5886m | -11.7m/s | -15.4°C | 49.5% | 493.3hPa | 2.6V | 03:01:01 | 02:21:16 | 00:00:00 | |
| BIOWL1-15 | 2026-09-01 06:52:26 | 49.75734 | 8.71207 | 92° | 60km/h | 6016m | -11.6m/s | -16.6°C | 62.7% | 484.9hPa | 2.6V | 03:01:52 | 02:21:05 | 00:00:00 | |
| BIOWL1-15 | 2026-09-01 06:52:18 | 49.75743 | 8.70971 | 96° | 58km/h | 6133m | -12.2m/s | -17.4°C | 60% | 477.5hPa | 2.6V | 03:01:52 | 02:20:55 | 00:00:00 | |
| DL0LBS | 2026-09-01 06:52:17 | 49.75740 | 8.71018 | 96° | 58km/h | 6109m | -12.1m/s | -17.2°C | 52.9% | 478.9hPa | 2.6V | 03:01:00 | 00:00:00 | 00:00:00 | |
| BIOWL9-15 | 2026-09-01 06:52:15 | 49.75746 | 8.70924 | 98° | 60km/h | 6156m | -11.9m/s | -17.6°C | 54.6% | 475.9hPa | 2.6V | 00:00:00 | 00:00:00 | 00:00:00 | |
| DL1ZP-14 | 2026-09-01 06:52:14 | 49.75746 | 8.70924 | 98° | 60km/h | 6156m | -11.9m/s | -17.6°C | 54.6% | 475.9hPa | 2.6V | 00:00:00 | 00:00:00 | 00:00:00 | |
| DB0ND-19 | 2026-09-01 06:52:13 | 49.75749 | 8.70900 | 100° | 60km/h | 6167m | -12.3m/s | -17.7°C | 55.4% | 475.1hPa | 2.6V | 00:00:00 | 00:00:00 | 00:00:00 | |
| DM0DOS-11 | 2026-09-01 06:52:09 | 49.75764 | 8.70776 | 100° | 66km/h | 6225m | -12.6m/s | -18°C | 56.9% | 471.3hPa | 2.6V | 03:01:20 | 02:20:47 | 00:00:00 | |
| BIOWL1-15 | 2026-09-01 06:52:06 | 49.75770 | 8.70726 | 100° | 64km/h | 6249m | -12.6m/s | -18.1°C | 58.9% | 469.9hPa | 2.5V | 03:01:52 | 02:20:45 | 00:00:00 | |
| BIOWL1-15 | 2026-09-01 06:52:00 | 49.75799 | 8.70471 | 98° | 64km/h | 6368m | -12.4m/s | -18.8°C | 67.9% | 462.5hPa | 2.6V | 03:01:52 | 02:20:35 | 00:00:00 | |
| BIOWL1-15 | 2026-09-01 06:51:45 | 49.75814 | 8.70192 | 91° | 64km/h | 6500m | -12.9m/s | -19.6°C | 48.4% | 454.4hPa | 2.6V | 03:01:52 | 02:20:24 | 00:00:00 | |
| BIOWL1-15 | 2026-09-01 06:51:36 | 49.75810 | 8.69853 | 88° | 68km/h | 6658m | -12m/s | -20.7°C | 36.7% | 445hPa | 2.6V | 03:02:43 | 02:20:11 | 00:00:00 | |
| DF1GD-15 | 2026-09-01 06:51:34 | 49.75812 | 8.69932 | 89° | 68km/h | 6622m | -12.7m/s | -20.5°C | 38.0% | 447.2hPa | 2.5V | 03:02:00 | 00:00:00 | 00:00:00 | |
| DF2AP-13 | 2026-09-01 06:51:31 | 49.75809 | 8.69826 | 90° | 75km/h | 6669m | -11.8m/s | -20.7°C | 31.1% | 444.3hPa | 2.5V | 00:00:00 | 02:20:10 | 00:00:00 | |
| DF7PN | 2026-09-01 06:51:30 | 49.75809 | 8.69770 | 90° | 71km/h | 6692m | -12.2m/s | -20.9°C | 25.2% | 442.9hPa | 2.5V | 00:00:00 | 00:00:00 | 00:00:00 | |
| DO3MHA-11 | 2026-09-01 06:51:29 | 49.75809 | 8.69770 | 91° | 71km/h | 6692m | -12.1m/s | -20.8°C | 27.1% | 442.9hPa | 2.5V | 00:00:00 | 02:20:08 | 00:00:00 | |
| HARRO8 | 2026-09-01 06:51:28 | 49.75809 | 8.69742 | 89° | 69km/h | 6703m | -12.3m/s | -20.9°C | 25.2% | 442.2hPa | 2.5V | 00:00:00 | 00:00:00 | 00:00:00 | |
| DH7VM-15 | 2026-09-01 06:51:26 | 49.75808 | 8.69687 | 90° | 68km/h | 6727m | -12.5m/s | -21.1°C | 27.0% | 440.8hPa | 2.5V | 00:00:00 | 00:00:00 | 00:00:00 | |
| NBG1-10 | 2026-09-01 06:51:25 | 49.75807 | 8.69660 | 90° | 80km/h | 6739m | -12.1m/s | -21.1°C | 29.9% | 440.1hPa | 2.5V | 00:00:00 | 02:20:04 | 00:00:00 | |
| DM0DOS-11 | 2026-09-01 06:51:23 | 49.75808 | 8.69578 | 93° | 71km/h | 6773m | -11.8m/s | -21.4°C | 31.9% | 437.9hPa | 2.5V | 03:02:06 | 02:20:01 | 00:00:00 | |
| BIOWL1-15 | 2026-09-01 06:51:23 | 49.75810 | 8.69464 | 92° | 71km/h | 6818m | -12.6m/s | -21.7°C | 37.3% | 435.2hPa | 2.5V | 03:02:43 | 02:19:57 | 00:00:00 | |
| DB0NH | 2026-09-01 06:51:21 | 49.75808 | 8.69550 | 94° | 80km/h | 6784m | -11.7m/s | -21.4°C | 33.1% | 437.2hPa | 2.5V | 00:00:00 | 02:20:00 | 00:00:00 | |
| DO3MHA-11 | 2026-09-01 06:51:19 | 49.75810 | 8.69492 | 93° | 75km/h | 6806m | -12.4m/s | -21.6°C | 33.8% | 435.8hPa | 2.5V | 00:00:00 | 02:19:58 | 00:00:00 | |
| DM0DOS-11 | 2026-09-01 06:51:17 | 49.75813 | 8.69289 | 92° | 78km/h | 6887m | -12.3m/s | -22.3°C | 34.4% | 431hPa | 2.5V | 03:02:16 | 02:19:51 | 00:00:00 | |
| BIOWL1-15 | 2026-09-01 06:51:14 | 49.75814 | 8.69195 | 90° | 78km/h | 6922m | -12.9m/s | -22.5°C | 36.6% | 428.9hPa | 2.6V | 03:02:43 | 02:19:48 | 00:00:00 | |
| DF1GD-15 | 2026-09-01 06:51:14 | 49.75811 | 8.69379 | 93° | 75km/h | 6853m | -11.7m/s | -22.0°C | 31.9% | 433.1hPa | 2.6V | 03:02:00 | 00:00:00 | 00:00:00 | |
| BIOWL9-15 | 2026-09-01 06:51:12 | 49.75813 | 8.69289 | 92° | 78km/h | 6887m | -12.3m/s | -22.3°C | 31.9% | 431.0hPa | 2.6V | 00:00:00 | 00:00:00 | 00:00:00 | |
| DB0ND-19 | 2026-09-01 06:51:11 | 49.75814 | 8.69258 | 91° | 78km/h | 6899m | -12.2m/s | -22.4°C | 32.0% | 430.3hPa | 2.6V | 00:00:00 | 00:00:00 | 00:00:00 | |
| DO3MHA-11 | 2026-09-01 06:51:09 | 49.75814 | 8.69195 | 90° | 82km/h | 6922m | -12.8m/s | -22.5°C | 33.2% | 428.9hPa | 2.6V | 00:00:00 | 02:19:48 | 00:00:00 | |
| KANTATE | 2026-09-01 06:51:07 | 49.75814 | 8.69164 | 90° | 80km/h | 6935m | -12.7m/s | -22.5°C | 29.6% | 428.2hPa | 2.6V | 00:00:00 | 00:00:00 | 00:00:00 | |
| DM0DOS-11 | 2026-09-01 06:51:05 | 49.75809 | 8.68970 | 87° | 86km/h | 7006m | -12.3m/s | -22.8°C | 27.8% | 424.1hPa | 2.6V | 03:02:26 | 02:19:41 | 00:00:00 | |
| BIOWL1-15 | 2026-09-01 06:51:00 | 49.75802 | 8.68836 | 82° | 86km/h | 7055m | -12.7m/s | -23°C | 29.9% | 421.3hPa | 2.6V | 03:02:43 | 02:19:37 | 00:00:00 | |
| DF7PN | 2026-09-01 06:50:59 | 49.75802 | 8.68836 | 82° | 84km/h | 7055m | -12.7m/s | -23.0°C | 24.0% | 421.3hPa | 2.5V | 00:00:00 | 00:00:00 | 00:00:00 | |
| DL9PN | 2026-09-01 06:50:58 | 49.75802 | 8.68836 | 82° | 84km/h | 7055m | -12.7m/s | -23.0°C | 24.0% | 421.3hPa | 2.5V | 00:00:00 | 00:00:00 | 00:00:00 | |
| HARRO8 | 2026-09-01 06:50:57 | 49.75799 | 8.68803 | 82° | 86km/h | 7067m | -12.6m/s | -23.1°C | 23.9% | 420.6hPa | 2.5V | 00:00:00 | 00:00:00 | 00:00:00 | |
| DK5PH-5 | 2026-09-01 06:50:56 | 49.75796 | 8.68769 | 83° | 91km/h | 7079m | -12.0m/s | -23.2°C | 26.0% | 419.9hPa | 2.5V | 00:00:00 | 02:19:35 | 00:00:00 | |
| DM0DOS-11 | 2026-09-01 06:50:54 | 49.75770 | 8.68525 | 77° | 89km/h | 7162m | -12.7m/s | -23.8°C | 26% | 415.1hPa | 2.5V | 03:02:39 | 02:19:28 | 00:00:00 | |
| BIOWL1-15 | 2026-09-01 06:50:48 | 49.75765 | 8.68491 | 78° | 91km/h | 7175m | -12.1m/s | -23.9°C | 30.4% | 414.4hPa | 2.6V | 03:02:43 | 02:19:27 | 00:00:00 | |
| DB0UT-7 | 2026-09-01 06:50:45 | 49.75751 | 8.68385 | 79° | 88km/h | 7211m | -12.4m/s | -24.1°C | 27.0% | 412.3hPa | 2.6V | 00:00:00 | 00:00:00 | 00:00:00 | |
| DB0UT-9 | 2026-09-01 06:50:44 | 49.75751 | 8.68385 | 79° | 93km/h | 7211m | -12.4m/s | -24.2°C | 24.8% | 412.4hPa | 2.6V | 03:02:00 | 00:00:00 | 00:00:00 | |
| DM0DOS-11 | 2026-09-01 06:50:43 | 49.75718 | 8.68174 | 76° | 93km/h | 7284m | -12.2m/s | -24.7°C | 30.4% | 408.3hPa | 2.6V | 03:02:49 | 02:19:18 | 00:00:00 | |
| BIOWL1-15 | 2026-09-01 06:50:37 | 49.75699 | 8.68068 | 73° | 91km/h | 7321m | -13.1m/s | -25°C | 36.3% | 406.2hPa | 2.5V | 03:03:34 | 02:19:15 | 00:00:00 | |
| DL0LBS | 2026-09-01 06:50:34 | 49.75680 | 8.67965 | 74° | 89km/h | 7360m | -15.4m/s | -25.3°C | 31.1% | 404.2hPa | 2.5V | 03:03:00 | 00:00:00 | 00:00:00 | |
| DM0DOS-11 | 2026-09-01 06:50:31 | 49.75650 | 8.67832 | 70° | 88km/h | 7425m | -16.8m/s | -25.8°C | 32.8% | 400.7hPa | 2.5V | 03:02:59 | 02:19:08 | 00:00:00 | |
| BIOWL1-15 | 2026-09-01 06:50:23 | 49.75592 | 8.67573 | 73° | 86km/h | 7548m | -14.2m/s | -26.8°C | 52.2% | 393.9hPa | 2.6V | 03:03:34 | 02:19:00 | 00:00:00 | |
| DL1NUX | 2026-09-01 06:50:22 | 49.75566 | 8.67441 | 71° | 88km/h | 7608m | -15.2m/s | -27.3°C | 42.1% | 390.6hPa | 2.6V | 03:03:11 | 02:18:56 | 00:00:00 | |
| DH7VM-15 | 2026-09-01 06:50:21 | 49.75599 | 8.67605 | 74° | 86km/h | 7534m | -14.8m/s | -26.6°C | 42.3% | 394.7hPa | 2.5V | 00:00:00 | 00:00:00 | 00:00:00 | |
| DM0DOS-11 | 2026-09-01 06:50:19 | 49.75579 | 8.67507 | 73° | 89km/h | 7577m | -15.2m/s | -27°C | 45.7% | 392.4hPa | 2.5V | 03:03:09 | 02:18:58 | 00:00:00 | |
| DO3MHA-11 | 2026-09-01 06:50:19 | 49.75579 | 8.67507 | 74° | 89km/h | 7577m | -15.2m/s | -27.0°C | 45.7% | 392.3hPa | 2.5V | 03:03:00 | 02:18:58 | 00:00:00 | |
| HEMX73-11 | 2026-09-01 06:50:18 | 49.75579 | 8.67507 | 75° | 89km/h | 7577m | -15.3m/s | -27.0°C | 42.1% | 392.4hPa | 2.5V | 03:03:00 | 00:00:00 | 00:00:00 | |
| SFWM-10 | 2026-09-01 06:50:15 | 49.75560 | 8.67407 | 73° | 88km/h | 7622m | -15.1m/s | -27.4°C | 38.5% | 389.9hPa | 2.5V | 00:00:00 | 00:00:00 | 00:00:00 | |
| DM0DOS-11 | 2026-09-01 06:50:14 | 49.75514 | 8.67171 | 75° | 91km/h | 7723m | -14m/s | -28.2°C | 40% | 384.4hPa | 2.5V | 03:03:19 | 02:18:48 | 00:00:00 | |
| BIOWL1-15 | 2026-09-01 06:50:12 | 49.75520 | 8.67206 | 75° | 89km/h | 7710m | -14.4m/s | -28.1°C | 44.5% | 385.1hPa | 2.6V | 03:03:34 | 02:18:49 | 00:00:00 | |
| DL0LBS | 2026-09-01 06:50:12 | 49.75532 | 8.67273 | 74° | 89km/h | 7681m | -15.1m/s | -27.9°C | 37.7% | 386.7hPa | 2.6V | 03:03:00 | 00:00:00 | 00:00:00 | |
| DL1ZP-14 | 2026-09-01 06:50:10 | 49.75520 | 8.67206 | 74° | 89km/h | 7710m | -14.4m/s | -28.1°C | 37.1% | 385.1hPa | 2.6V | 00:00:00 | 00:00:00 | 00:00:00 | |
| DO3MHA-11 | 2026-09-01 06:50:09 | 49.75514 | 8.67171 | 76° | 95km/h | 7724m | -13.9m/s | -28.2°C | 40.0% | 384.4hPa | 2.5V | 00:00:00 | 02:18:48 | 00:00:00 | |
| DM0DOS-11 | 2026-09-01 06:50:03 | 49.75460 | 8.66807 | 79° | 100km/h | 7860m | -14m/s | -29.2°C | 61% | 377.1hPa | 2.6V | 03:03:29 | 02:18:38 | 00:00:00 | |
| BIOWL1-15 | 2026-09-01 06:50:02 | 49.75476 | 8.66919 | 78° | 97km/h | 7820m | -14.6m/s | -28.9°C | 56.7% | 379.3hPa | 2.5V | 03:03:34 | 02:18:41 | 00:00:00 | |
| BIOWL1-15 | 2026-09-01 06:49:51 | 49.75412 | 8.66316 | 83° | 108km/h | 8046m | -17.2m/s | -30.1°C | 86.3% | 367.5hPa | 2.6V | 03:04:25 | 02:18:26 | 00:00:00 | |
| DM0DOS-11 | 2026-09-01 06:49:51 | 49.75419 | 8.66399 | 83° | 106km/h | 8011m | -16.8m/s | -29.9°C | 82.1% | 369.1hPa | 2.5V | 03:03:39 | 02:18:28 | 00:00:00 | |
| BIOWL1-15 | 2026-09-01 06:49:38 | 49.75379 | 8.65806 | 85° | 110km/h | 8236m | -17.6m/s | -31.5°C | 87.8% | 358.1hPa | 2.5V | 03:04:25 | 02:18:14 | 00:00:00 | |
| DL1NUX | 2026-09-01 06:49:38 | 49.75373 | 8.65677 | 87° | 110km/h | 8288m | -18.1m/s | -31.8°C | 81.8% | 355.4hPa | 2.6V | 03:03:56 | 02:18:11 | 00:00:00 | |
| BIOWL1-15 | 2026-09-01 06:49:26 | 49.75353 | 8.65344 | 85° | 108km/h | 8404m | -14.5m/s | -32.7°C | 88.7% | 349.3hPa | 2.5V | 03:04:25 | 02:18:03 | 00:00:00 | |
| DK5PH-5 | 2026-09-01 06:49:26 | 49.75358 | 8.65427 | 86° | 108km/h | 8377m | -14.2m/s | -32.4°C | 83.4% | 350.6hPa | 2.6V | 03:04:00 | 02:18:05 | 00:00:00 | |
| DL9PN | 2026-09-01 06:49:25 | 49.75355 | 8.65386 | 85° | 106km/h | 8391m | -14.5m/s | -32.6°C | 77.3% | 350.0hPa | 2.6V | 00:00:00 | 00:00:00 | 00:00:00 | |
| HARRO8 | 2026-09-01 06:49:24 | 49.75353 | 8.65344 | 85° | 108km/h | 8404m | -14.5m/s | -32.7°C | 77.9% | 349.3hPa | 2.6V | 00:00:00 | 00:00:00 | 00:00:00 | |
| DF2AP-13 | 2026-09-01 06:49:23 | 49.75350 | 8.65302 | 86° | 108km/h | 8419m | -15.5m/s | -32.8°C | 84.6% | 348.5hPa | 2.6V | 00:00:00 | 02:18:02 | 00:00:00 | |
| DF3TZ-5 | 2026-09-01 06:49:19 | 49.75335 | 8.65094 | 84° | 106km/h | 8500m | -15.7m/s | -33.5°C | 77.9% | 344.8hPa | 2.6V | 00:00:00 | 00:00:00 | 00:00:00 | |
| DH7VM-15 | 2026-09-01 06:49:17 | 49.75332 | 8.65052 | 87° | 108km/h | 8516m | -16.1m/s | -33.6°C | 77.3% | 344.0hPa | 2.6V | 00:00:00 | 00:00:00 | 00:00:00 | |
| DL1NUX | 2026-09-01 06:49:14 | 49.75313 | 8.64721 | 85° | 108km/h | 8633m | -13.8m/s | -34.7°C | 89.7% | 338.1hPa | 2.6V | 03:04:19 | 02:17:48 | 00:00:00 | |
| BIOWL1-15 | 2026-09-01 06:49:13 | 49.75323 | 8.64887 | 85° | 104km/h | 8577m | -14.8m/s | -34.2°C | 91.9% | 340.9hPa | 2.5V | 03:04:25 | 02:17:52 | 00:00:00 | |
| HSKMA3-T | 2026-09-01 06:49:09 | 49.75313 | 8.64722 | 86° | 108km/h | 8633m | -13.8m/s | -34.7°C | 93.3% | 338.1hPa | 2.6V | 03:09:31 | 02:17:48 | 00:00:00 | |
| DO3MHA-11 | 2026-09-01 06:49:09 | 49.75313 | 8.64721 | 86° | 108km/h | 8633m | -13.7m/s | -34.7°C | 89.7% | 338.1hPa | 2.6V | 00:00:00 | 02:17:48 | 00:00:00 | |
| BIOWL9-15 | 2026-09-01 06:49:08 | 49.75311 | 8.64679 | 84° | 108km/h | 8647m | -15.4m/s | -34.8°C | 82.3% | 337.4hPa | 2.6V | 00:00:00 | 00:00:00 | 00:00:00 | |
| DB0ND-19 | 2026-09-01 06:49:07 | 49.75306 | 8.64595 | 84° | 108km/h | 8676m | -15.0m/s | -35.1°C | 83.7% | 336.0hPa | 2.6V | 00:00:00 | 00:00:00 | 00:00:00 | |
| DM0DOS-11 | 2026-09-01 06:49:03 | 49.75291 | 8.64383 | 84° | 108km/h | 8747m | -15.5m/s | -35.7°C | 93.8% | 332.6hPa | 2.6V | 03:04:27 | 02:17:40 | 00:00:00 | |
| DL1NUX | 2026-09-01 06:49:03 | 49.75284 | 8.64255 | 84° | 108km/h | 8788m | -14.4m/s | -36°C | 93% | 330.7hPa | 2.5V | 03:04:30 | 02:17:37 | 00:00:00 | |
| BIOWL1-15 | 2026-09-01 06:49:03 | 49.75297 | 8.64468 | 84° | 108km/h | 8718m | -14.3m/s | -35.4°C | 96.5% | 334hPa | 2.5V | 03:04:25 | 02:17:42 | 00:00:00 | |
| DM3KS-11 | 2026-09-01 06:48:57 | 49.75281 | 8.64213 | 85° | 106km/h | 8803m | -14.4m/s | -36.1°C | 84.1% | 330.0hPa | 2.5V | 00:00:00 | 00:00:00 | 00:00:00 | |
| DM0DOS-11 | 2026-09-01 06:48:56 | 49.75270 | 8.63958 | 85° | 106km/h | 8886m | -14.6m/s | -36.8°C | 82.1% | 326.1hPa | 2.5V | 03:04:37 | 02:17:30 | 00:00:00 | |
| HSKMA3-T | 2026-09-01 06:48:55 | 49.75277 | 8.64129 | 87° | 110km/h | 8831m | -13.5m/s | -36.4°C | 91.4% | 328.7hPa | 2.6V | 03:09:31 | 02:17:34 | 00:00:00 | |
| BIOWL1-15 | 2026-09-01 06:48:52 | 49.75273 | 8.64000 | 86° | 110km/h | 8872m | -14.7m/s | -36.7°C | 85.2% | 326.8hPa | 2.5V | 03:05:16 | 02:17:31 | 00:00:00 | |
| BEGRI65-1 | 2026-09-01 06:48:52 | 49.75274 | 8.64043 | 88° | 110km/h | 8858m | -14.3m/s | 0°C | 0% | 0hPa | 2.6V | 03:05:00 | 00:00:00 | 00:00:00 | |
| DL1NUX | 2026-09-01 06:48:51 | 49.75263 | 8.63748 | 86° | 108km/h | 8955m | -14.7m/s | -37.3°C | 77.5% | 322.9hPa | 2.6V | 03:04:42 | 02:17:25 | 00:00:00 | |
| DF3TZ-5 | 2026-09-01 06:48:48 | 49.75264 | 8.63790 | 87° | 108km/h | 8941m | -14.3m/s | -37.2°C | 70.4% | 323.5hPa | 2.6V | 00:00:00 | 00:00:00 | 00:00:00 | |
| DM0DOS-11 | 2026-09-01 06:48:46 | 49.75254 | 8.63544 | 87° | 106km/h | 9027m | -13.8m/s | -37.8°C | 77.1% | 319.7hPa | 2.6V | 03:04:47 | 02:17:20 | 00:00:00 | |
| BIOWL1-15 | 2026-09-01 06:48:42 | 49.75254 | 8.63544 | 87° | 106km/h | 9027m | -13.8m/s | -37.8°C | 78.6% | 319.7hPa | 2.6V | 03:05:16 | 02:17:20 | 00:00:00 | |
| DL1NUX | 2026-09-01 06:48:41 | 49.75249 | 8.63336 | 86° | 104km/h | 9096m | -13.8m/s | -38.4°C | 78.8% | 316.5hPa | 2.5V | 03:04:52 | 02:17:15 | 00:00:00 | |
| NBG1-10 | 2026-09-01 06:48:40 | 49.75253 | 8.63502 | 89° | 106km/h | 9041m | -13.6m/s | -37.9°C | 77.5% | 319.0hPa | 2.6V | 03:04:00 | 02:17:19 | 00:00:00 | |
| DO3MHA-11 | 2026-09-01 06:48:39 | 49.75252 | 8.63460 | 89° | 106km/h | 9054m | -13.8m/s | -38.0°C | 78.1% | 318.4hPa | 2.6V | 00:00:00 | 02:17:18 | 00:00:00 | |
| DL1ZP-14 | 2026-09-01 06:48:37 | 49.75250 | 8.63377 | 87° | 104km/h | 9082m | -14.0m/s | -38.3°C | 71.0% | 317.1hPa | 2.5V | 00:00:00 | 00:00:00 | 00:00:00 | |
| DB0ND-19 | 2026-09-01 06:48:36 | 49.75247 | 8.63295 | 87° | 104km/h | 9109m | -13.4m/s | -38.5°C | 70.9% | 315.9hPa | 2.5V | 00:00:00 | 00:00:00 | 00:00:00 | |
| DM0DOS-11 | 2026-09-01 06:48:35 | 49.75243 | 8.63127 | 86° | 106km/h | 9163m | -14.1m/s | -39°C | 78% | 313.4hPa | 2.5V | 03:04:57 | 02:17:10 | 00:00:00 | |
| BIOWL1-15 | 2026-09-01 06:48:34 | 49.75245 | 8.63169 | 88° | 108km/h | 9149m | -13.6m/s | -38.9°C | 79.2% | 314hPa | 2.6V | 03:05:16 | 02:17:11 | 00:00:00 | |
| BEGRI65-1 | 2026-09-01 06:48:32 | 49.75245 | 8.63211 | 89° | 108km/h | 9136m | -13.6m/s | 0°C | 0% | 0hPa | 2.6V | 03:05:00 | 00:00:00 | 00:00:00 | |
| DL1NUX | 2026-09-01 06:48:31 | 49.75238 | 8.62918 | 87° | 106km/h | 9231m | -14.3m/s | -39.5°C | 73.2% | 310.3hPa | 2.6V | 03:05:02 | 02:17:05 | 00:00:00 | |
| DO3MHA-11 | 2026-09-01 06:48:29 | 49.75241 | 8.63045 | 89° | 108km/h | 9190m | -13.7m/s | -39.2°C | 77.2% | 312.1hPa | 2.5V | 00:00:00 | 02:17:08 | 00:00:00 | |
| DL0LBS | 2026-09-01 06:48:28 | 49.75241 | 8.63045 | 89° | 108km/h | 9190m | -13.8m/s | -39.2°C | 69.5% | 312.1hPa | 2.5V | 03:05:00 | 00:00:00 | 00:00:00 | |
| DK5PH-5 | 2026-09-01 06:48:26 | 49.75238 | 8.62918 | 88° | 106km/h | 9231m | -14.3m/s | -39.4°C | 73.2% | 310.2hPa | 2.5V | 00:00:00 | 02:17:05 | 00:00:00 | |
| DD1CC8 | 2026-09-01 06:48:24 | 49.75235 | 8.62836 | 86° | 104km/h | 9259m | -14.1m/s | -39.6°C | 63.8% | 309.0hPa | 2.5V | 00:00:00 | 00:00:00 | 00:00:00 | |
| DM0DOS-11 | 2026-09-01 06:48:23 | 49.75232 | 8.62711 | 88° | 108km/h | 9299m | -14.6m/s | -39.8°C | 72.1% | 307.1hPa | 2.5V | 03:05:07 | 02:17:00 | 00:00:00 | |
| BIOWL1-15 | 2026-09-01 06:48:21 | 49.75229 | 8.62628 | 85° | 104km/h | 9328m | -14.8m/s | -39.7°C | 74.6% | 305.9hPa | 2.6V | 03:05:16 | 02:16:58 | 00:00:00 | |
| BIOWL1-15 | 2026-09-01 06:48:13 | 49.75212 | 8.62297 | 85° | 106km/h | 9442m | -14.6m/s | -40.6°C | 77.3% | 300.8hPa | 2.6V | 03:06:07 | 02:16:50 | 00:00:00 | |
| DB0UT-7 | 2026-09-01 06:48:13 | 49.75217 | 8.62379 | 86° | 106km/h | 9413m | -14.7m/s | -40.4°C | 74.2% | 302.0hPa | 2.6V | 00:00:00 | 02:16:52 | 00:00:00 | |
| DM0DOS-11 | 2026-09-01 06:48:12 | 49.75212 | 8.62297 | 84° | 106km/h | 9442m | -14.6m/s | -40.6°C | 74.4% | 300.8hPa | 2.6V | 03:05:17 | 02:16:50 | 00:00:00 | |
| BEGRI65-1 | 2026-09-01 06:48:12 | 49.75215 | 8.62337 | 86° | 104km/h | 9428m | -15.2m/s | 0°C | 0% | 0hPa | 2.6V | 03:05:00 | 00:00:00 | 00:00:00 | |
| DL0LBS | 2026-09-01 06:48:09 | 49.75208 | 8.62215 | 87° | 106km/h | 9471m | -14.0m/s | -40.9°C | 67.2% | 299.5hPa | 2.6V | 03:06:00 | 00:00:00 | 00:00:00 | |
| NBG1-10 | 2026-09-01 06:48:07 | 49.75203 | 8.62132 | 86° | 106km/h | 9499m | -14.8m/s | -41.0°C | 76.3% | 298.2hPa | 2.6V | 00:00:00 | 02:16:46 | 00:00:00 | |
| DM0DOS-11 | 2026-09-01 06:48:06 | 49.75187 | 8.61886 | 85° | 106km/h | 9584m | -14.7m/s | -41.8°C | 79.6% | 294.7hPa | 2.6V | 03:05:27 | 02:16:40 | 00:00:00 | |
| DO3MHA-11 | 2026-09-01 06:48:06 | 49.75201 | 8.62090 | 84° | 106km/h | 9513m | -14.3m/s | -41.1°C | 77.0% | 297.6hPa | 2.6V | 00:00:00 | 02:16:45 | 00:00:00 | |
| DB0ND-19 | 2026-09-01 06:48:05 | 49.75195 | 8.62009 | 83° | 102km/h | 9541m | -14.2m/s | -41.4°C | 70.1% | 296.4hPa | 2.5V | 00:00:00 | 00:00:00 | 00:00:00 | |
| DL1NUX | 2026-09-01 06:48:02 | 49.75175 | 8.61723 | 84° | 106km/h | 9641m | -14.1m/s | -42.2°C | 79.8% | 292.2hPa | 2.5V | 03:05:31 | 02:16:36 | 00:00:00 | |
| BIOWL1-15 | 2026-09-01 06:48:00 | 49.75184 | 8.61845 | 83° | 104km/h | 9598m | -14.7m/s | -41.8°C | 82.8% | 294hPa | 2.6V | 03:06:07 | 02:16:39 | 00:00:00 | |
| DK5PH-5 | 2026-09-01 06:47:56 | 49.75172 | 8.61682 | 84° | 108km/h | 9655m | -14.3m/s | -42.3°C | 79.5% | 291.6hPa | 2.5V | 00:00:00 | 02:16:35 | 00:00:00 | |
| DM0DOS-11 | 2026-09-01 06:47:55 | 49.75157 | 8.61478 | 84° | 108km/h | 9725m | -14m/s | -43°C | 80% | 288.6hPa | 2.5V | 03:05:37 | 02:16:30 | 00:00:00 | |
| DO3MHA-11 | 2026-09-01 06:47:55 | 49.75169 | 8.61641 | 84° | 106km/h | 9669m | -14.7m/s | -42.4°C | 79.5% | 291.0hPa | 2.6V | 00:00:00 | 02:16:34 | 00:00:00 | |
| HEMX73-11 | 2026-09-01 06:47:54 | 49.75169 | 8.61641 | 85° | 104km/h | 9669m | -14.8m/s | -42.5°C | 70.9% | 291.0hPa | 2.6V | 03:06:00 | 00:00:00 | 00:00:00 | |
| DM7RM-13 | 2026-09-01 06:47:53 | 49.75166 | 8.61601 | 84° | 104km/h | 9683m | -14.4m/s | -42.6°C | 70.9% | 290.4hPa | 2.6V | 03:06:00 | 00:00:00 | 00:00:00 | |
| DL1NUX | 2026-09-01 06:47:52 | 49.75145 | 8.61313 | 84° | 108km/h | 9781m | -14.2m/s | -43.4°C | 81.7% | 286.2hPa | 2.6V | 03:05:41 | 02:16:26 | 00:00:00 | |
| HSKMA3-T | 2026-09-01 06:47:51 | 49.75157 | 8.61478 | 85° | 108km/h | 9725m | -14m/s | -43°C | 83.5% | 288.6hPa | 2.5V | 03:09:31 | 02:16:30 | 00:00:00 | |
| BIOWL1-15 | 2026-09-01 06:47:50 | 49.75154 | 8.61436 | 84° | 108km/h | 9738m | -14.6m/s | -43.1°C | 84% | 287.9hPa | 2.5V | 03:06:07 | 02:16:29 | 00:00:00 | |
| DF3TZ-5 | 2026-09-01 06:47:45 | 49.75136 | 8.61189 | 82° | 104km/h | 9824m | -14.4m/s | -43.8°C | 73.3% | 284.4hPa | 2.6V | 00:00:00 | 00:00:00 | 00:00:00 | |
| DO3MHA-11 | 2026-09-01 06:47:44 | 49.75136 | 8.61189 | 83° | 108km/h | 9824m | -14.3m/s | -43.7°C | 82.4% | 284.4hPa | 2.6V | 00:00:00 | 02:16:23 | 00:00:00 | |
| DM0DOS-11 | 2026-09-01 06:47:43 | 49.75128 | 8.61065 | 83° | 108km/h | 9867m | -14.6m/s | -44.1°C | 82.7% | 282.6hPa | 2.6V | 03:05:47 | 02:16:20 | 00:00:00 | |
| DB0UT-7 | 2026-09-01 06:47:43 | 49.75133 | 8.61148 | 85° | 110km/h | 9838m | -14.1m/s | -43.8°C | 82.7% | 283.7hPa | 2.5V | 00:00:00 | 00:00:00 | 00:00:00 | |
| DL1NUX | 2026-09-01 06:47:42 | 49.75116 | 8.60898 | 85° | 108km/h | 9924m | -14.1m/s | -44.5°C | 81.5% | 280.2hPa | 2.5V | 03:05:51 | 02:16:16 | 00:00:00 | |
| BIOWL1-15 | 2026-09-01 06:47:41 | 49.75122 | 8.60981 | 83° | 106km/h | 9895m | -14.9m/s | -44.3°C | 85.8% | 281.4hPa | 2.5V | 03:06:07 | 02:16:18 | 00:00:00 | |
| DL8DAS-14 | 2026-09-01 06:47:38 | 49.75119 | 8.60940 | 84° | 106km/h | 9910m | -14.6m/s | -44.4°C | 72.5% | 280.8hPa | 2.6V | 00:00:00 | 00:00:00 | 00:00:00 | |
| DL1ZP-14 | 2026-09-01 06:47:35 | 49.75112 | 8.60813 | 84° | 108km/h | 9952m | -14.0m/s | -44.8°C | 71.9% | 279.0hPa | 2.6V | 00:00:00 | 00:00:00 | 00:00:00 | |
| DB0ND-19 | 2026-09-01 06:47:34 | 49.75107 | 8.60730 | 84° | 106km/h | 9981m | -14.8m/s | -45.0°C | 71.3% | 277.8hPa | 2.5V | 00:00:00 | 00:00:00 | 00:00:00 | |
| DL1NUX | 2026-09-01 06:47:32 | 49.75090 | 8.60475 | 84° | 110km/h | 10066m | -14m/s | -45.7°C | 78% | 274.3hPa | 2.5V | 03:06:01 | 02:16:06 | 00:00:00 | |
| DM0DOS-11 | 2026-09-01 06:47:31 | 49.75101 | 8.60645 | 84° | 110km/h | 10009m | -14.6m/s | -45.3°C | 79.8% | 276.7hPa | 2.5V | 03:05:57 | 02:16:10 | 00:00:00 | |
| BIOWL1-15 | 2026-09-01 06:47:29 | 49.75096 | 8.60559 | 84° | 108km/h | 10038m | -14.8m/s | -45.5°C | 82.8% | 275.5hPa | 2.6V | 03:06:07 | 02:16:08 | 00:00:00 | |
| DF1GD-15 | 2026-09-01 06:47:28 | 49.75093 | 8.60517 | 85° | 108km/h | 10052m | -14.9m/s | -45.6°C | 69.2% | 274.9hPa | 2.6V | 03:06:00 | 00:00:00 | 00:00:00 | |
| DM0DOS-11 | 2026-09-01 06:47:26 | 49.75072 | 8.60216 | 84° | 113km/h | 10152m | -14.6m/s | -46.3°C | 76.8% | 270.8hPa | 2.6V | 03:06:07 | 02:16:00 | 00:00:00 | |
| HSKMA3-T | 2026-09-01 06:47:26 | 49.75087 | 8.60432 | 85° | 111km/h | 10080m | -13.8m/s | -45.8°C | 81.5% | 273.7hPa | 2.5V | 03:09:31 | 02:16:05 | 00:00:00 | |
| DK5PH-5 | 2026-09-01 06:47:26 | 49.75087 | 8.60432 | 86° | 113km/h | 10080m | -13.7m/s | -45.8°C | 77.7% | 273.7hPa | 2.5V | 03:06:00 | 02:16:05 | 00:00:00 | |
| DO3MHA-11 | 2026-09-01 06:47:24 | 49.75082 | 8.60345 | 84° | 111km/h | 10109m | -15.2m/s | -46.0°C | 77.1% | 272.5hPa | 2.6V | 00:00:00 | 02:16:03 | 00:00:00 | |
| DL1NUX | 2026-09-01 06:47:22 | 49.75059 | 8.60042 | 83° | 113km/h | 10211m | -14.3m/s | -46.8°C | 76.4% | 268.4hPa | 2.6V | 03:06:11 | 02:15:56 | 00:00:00 | |
| BIOWL1-15 | 2026-09-01 06:47:18 | 49.75062 | 8.60086 | 83° | 111km/h | 10197m | -14.4m/s | -46.7°C | 81.1% | 269hPa | 2.5V | 03:06:58 | 02:15:57 | 00:00:00 | |
| SO1NDE-10 | 2026-09-01 06:47:17 | 49.75059 | 8.60042 | 84° | 115km/h | 10211m | -14.3m/s | -46.7°C | 76.4% | 268.3hPa | 2.6V | 00:00:00 | 02:15:56 | 00:00:00 | |
| DM0DOS-11 | 2026-09-01 06:47:16 | 49.75034 | 8.59780 | 80° | 113km/h | 10298m | -15m/s | -47.5°C | 76% | 264.9hPa | 2.6V | 03:06:17 | 02:15:50 | 00:00:00 | |
| DO3MHA-11 | 2026-09-01 06:47:14 | 49.75047 | 8.59911 | 82° | 115km/h | 10255m | -14.3m/s | -47.1°C | 76.2% | 266.6hPa | 2.5V | 00:00:00 | 02:15:53 | 00:00:00 | |
| DB0UT-7 | 2026-09-01 06:47:13 | 49.75043 | 8.59868 | 83° | 117km/h | 10270m | -14.4m/s | -47.2°C | 76.1% | 266.0hPa | 2.5V | 03:06:00 | 02:15:52 | 00:00:00 | |
| DL1NUX | 2026-09-01 06:47:12 | 49.75016 | 8.59603 | 79° | 113km/h | 10357m | -15.4m/s | -47.9°C | 75% | 262.5hPa | 2.6V | 03:06:21 | 02:15:46 | 00:00:00 | |
| BIOWL1-15 | 2026-09-01 06:47:07 | 49.75016 | 8.59603 | 80° | 113km/h | 10357m | -15.4m/s | -47.9°C | 79.8% | 262.5hPa | 2.6V | 03:06:58 | 02:15:46 | 00:00:00 | |
| DF1GD-15 | 2026-09-01 06:47:06 | 49.75016 | 8.59603 | 81° | 113km/h | 10357m | -15.4m/s | -47.9°C | 65.5% | 262.5hPa | 2.6V | 03:06:00 | 00:00:00 | 00:00:00 | |
| DL8DAS-15 | 2026-09-01 06:47:04 | 49.75002 | 8.59469 | 81° | 117km/h | 10403m | -15.4m/s | -48.2°C | 65.6% | 260.7hPa | 2.6V | 00:00:00 | 00:00:00 | 00:00:00 | |
| DB0ND-19 | 2026-09-01 06:47:03 | 49.74991 | 8.59380 | 80° | 115km/h | 10433m | -14.9m/s | -48.5°C | 65.2% | 259.6hPa | 2.6V | 00:00:00 | 00:00:00 | 00:00:00 | |
| DL1NUX | 2026-09-01 06:47:02 | 49.74966 | 8.59155 | 81° | 119km/h | 10508m | -14.9m/s | -49.2°C | 73.7% | 256.6hPa | 2.6V | 03:06:31 | 02:15:36 | 00:00:00 | |
| BIOWL1-15 | 2026-09-01 06:46:56 | 49.74961 | 8.59110 | 80° | 119km/h | 10523m | -15.2m/s | -49.3°C | 78.1% | 256.1hPa | 2.5V | 03:06:58 | 02:15:35 | 00:00:00 | |
| DM3KS-11 | 2026-09-01 06:46:55 | 49.74945 | 8.58976 | 81° | 117km/h | 10568m | -14.8m/s | -49.7°C | 62.6% | 254.3hPa | 2.6V | 00:00:00 | 00:00:00 | 00:00:00 | |
| DO3MHA-11 | 2026-09-01 06:46:54 | 49.74950 | 8.59021 | 81° | 117km/h | 10553m | -14.8m/s | -49.5°C | 72.7% | 254.9hPa | 2.6V | 03:06:00 | 02:15:33 | 00:00:00 | |
| DM0DOS-11 | 2026-09-01 06:46:52 | 49.74934 | 8.58885 | 79° | 115km/h | 10597m | -15.3m/s | -50°C | 71.5% | 253.2hPa | 2.6V | 03:06:37 | 02:15:30 | 00:00:00 | |
| DL1NUX | 2026-09-01 06:46:52 | 49.74915 | 8.58704 | 80° | 117km/h | 10657m | -16m/s | -50.5°C | 70.1% | 250.8hPa | 2.5V | 03:06:41 | 02:15:26 | 00:00:00 | |
| BIOWL1-15 | 2026-09-01 06:46:45 | 49.74905 | 8.58614 | 81° | 117km/h | 10688m | -15.1m/s | -50.8°C | 73.7% | 249.7hPa | 2.6V | 03:06:58 | 02:15:24 | 00:00:00 | |
| DO3MHA-11 | 2026-09-01 06:46:44 | 49.74900 | 8.58568 | 82° | 119km/h | 10703m | -14.7m/s | -50.9°C | 69.1% | 249.1hPa | 2.5V | 00:00:00 | 02:15:23 | 00:00:00 | |
| DM0DOS-11 | 2026-09-01 06:46:43 | 49.74884 | 8.58431 | 80° | 117km/h | 10748m | -15.2m/s | -51.2°C | 68.1% | 247.4hPa | 2.5V | 03:06:47 | 02:15:20 | 00:00:00 | |
| DB0UT-7 | 2026-09-01 06:46:43 | 49.74895 | 8.58522 | 81° | 120km/h | 10718m | -15.4m/s | -51.0°C | 68.9% | 248.5hPa | 2.6V | 00:00:00 | 00:00:00 | 00:00:00 | |
| DL1NUX | 2026-09-01 06:46:42 | 49.74865 | 8.58247 | 80° | 119km/h | 10809m | -15.7m/s | -51.7°C | 66.9% | 245.1hPa | 2.6V | 03:06:51 | 02:15:16 | 00:00:00 | |
| DL8DAS-14 | 2026-09-01 06:46:38 | 49.74861 | 8.58202 | 82° | 117km/h | 10824m | -15.4m/s | -51.8°C | 56.8% | 244.5hPa | 2.6V | 00:00:00 | 00:00:00 | 00:00:00 | |
| DM0DOS-11 | 2026-09-01 06:46:36 | 49.74840 | 8.57970 | 83° | 120km/h | 10901m | -15.3m/s | -52.5°C | 65.3% | 241.6hPa | 2.6V | 03:06:57 | 02:15:10 | 00:00:00 | |
| BIOWL1-15 | 2026-09-01 06:46:34 | 49.74852 | 8.58109 | 82° | 120km/h | 10854m | -15.6m/s | -52.1°C | 70% | 243.3hPa | 2.5V | 03:06:58 | 02:15:13 | 00:00:00 | |
| DO3MHA-11 | 2026-09-01 06:46:34 | 49.74852 | 8.58109 | 82° | 120km/h | 10854m | -15.6m/s | -52.0°C | 66.0% | 243.3hPa | 2.5V | 00:00:00 | 02:15:13 | 00:00:00 | |
| DO3DL | 2026-09-01 06:46:33 | 49.74852 | 8.58109 | 83° | 120km/h | 10854m | -15.6m/s | -52.1°C | 56.2% | 243.3hPa | 2.5V | 00:00:00 | 00:00:00 | 00:00:00 | |
| DL1NUX | 2026-09-01 06:46:32 | 49.74825 | 8.57782 | 83° | 120km/h | 10963m | -15.5m/s | -53°C | 64.1% | 239.3hPa | 2.5V | 03:07:01 | 02:15:06 | 00:00:00 | |
| BIOWL1-15 | 2026-09-01 06:46:26 | 49.74813 | 8.57640 | 82° | 120km/h | 11008m | -15.6m/s | -53.4°C | 66.6% | 237.6hPa | 2.6V | 03:07:49 | 02:15:03 | 00:00:00 | |
| DF1GD-15 | 2026-09-01 06:46:25 | 49.74821 | 8.57734 | 85° | 124km/h | 10978m | -15.1m/s | -53.1°C | 53.8% | 238.7hPa | 2.5V | 03:07:00 | 00:00:00 | 00:00:00 | |
| DM0DOS-11 | 2026-09-01 06:46:23 | 49.74803 | 8.57498 | 84° | 124km/h | 11054m | -15.8m/s | -53.8°C | 61.7% | 235.9hPa | 2.5V | 03:07:07 | 02:15:00 | 00:00:00 | |
| SFWM-10 | 2026-09-01 06:46:22 | 49.74810 | 8.57593 | 84° | 120km/h | 11024m | -15.4m/s | -53.5°C | 52.9% | 237.1hPa | 2.5V | 03:07:00 | 00:00:00 | 00:00:00 | |
| DL1NUX | 2026-09-01 06:46:22 | 49.74789 | 8.57307 | 84° | 126km/h | 11116m | -15.1m/s | -54.3°C | 60.1% | 233.7hPa | 2.6V | 03:07:11 | 02:14:56 | 00:00:00 | |
| KANTATE | 2026-09-01 06:46:21 | 49.74806 | 8.57545 | 85° | 124km/h | 11039m | -15.1m/s | -53.7°C | 52.4% | 236.5hPa | 2.5V | 00:00:00 | 00:00:00 | 00:00:00 | |
| DO3DL | 2026-09-01 06:46:17 | 49.74789 | 8.57307 | 86° | 126km/h | 11116m | -15.1m/s | -54.3°C | 50.3% | 233.7hPa | 2.5V | 03:07:00 | 00:00:00 | 00:00:00 | |
| DM0DOS-11 | 2026-09-01 06:46:15 | 49.74770 | 8.57018 | 84° | 122km/h | 11209m | -16.1m/s | -55.1°C | 57.9% | 230.3hPa | 2.5V | 03:07:17 | 02:14:50 | 00:00:00 | |
| DM0DOS-11 | 2026-09-01 06:46:15 | 49.74733 | 8.56367 | 84° | 113km/h | 11427m | -15.4m/s | -57°C | 53.4% | 222.6hPa | 2.5V | 03:07:31 | 02:14:36 | 00:00:00 | |
| DM0DOS-11 | 2026-09-01 06:46:15 | 49.74717 | 8.56104 | 84° | 111km/h | 11521m | -15.8m/s | -57.3°C | 45.9% | 219.3hPa | 2.5V | 03:07:37 | 02:14:30 | 00:00:00 | |
| DL1NUX | 2026-09-01 06:46:15 | 49.74719 | 8.56148 | 85° | 113km/h | 11504m | -16.1m/s | -57.4°C | 47.5% | 219.8hPa | 2.5V | 03:07:36 | 02:14:31 | 00:00:00 | |
| BIOWL1-15 | 2026-09-01 06:45:52 | 49.74719 | 8.56148 | 86° | 113km/h | 11504m | -16.1m/s | -57.4°C | 46.3% | 219.8hPa | 2.5V | 03:07:49 | 02:14:31 | 00:00:00 | |
| DM3KS-11 | 2026-09-01 06:45:51 | 49.74717 | 8.56104 | 84° | 111km/h | 11521m | -15.8m/s | -57.3°C | 36.8% | 219.3hPa | 2.5V | 00:00:00 | 00:00:00 | 00:00:00 | |
| DD1CC8 | 2026-09-01 06:45:49 | 49.74710 | 8.56019 | 84° | 110km/h | 11553m | -15.8m/s | -57.5°C | 35.4% | 218.2hPa | 2.5V | 00:00:00 | 00:00:00 | 00:00:00 | |
| DO1YAY-16 | 2026-09-01 06:45:48 | 49.74708 | 8.55976 | 85° | 111km/h | 11568m | -15.4m/s | -57.5°C | 34.6% | 217.7hPa | 2.5V | 00:00:00 | 00:00:00 | 00:00:00 | |
| DL1NUX | 2026-09-01 06:45:47 | 49.74691 | 8.55719 | 85° | 108km/h | 11660m | -16.5m/s | -57.2°C | 36.1% | 214.4hPa | 2.5V | 03:07:46 | 02:14:21 | 00:00:00 | |
| DB0NH | 2026-09-01 06:45:47 | 49.74705 | 8.55932 | 85° | 100km/h | 11583m | -15.5m/s | -57.4°C | 42.4% | 217.1hPa | 2.6V | 00:00:00 | 02:14:26 | 00:00:00 | |
| DM0DOS-11 | 2026-09-01 06:45:46 | 49.74688 | 8.55677 | 85° | 106km/h | 11677m | -16.6m/s | -57.3°C | 36.1% | 213.9hPa | 2.6V | 03:07:47 | 02:14:20 | 00:00:00 | |
| BIOWL1-15 | 2026-09-01 06:45:41 | 49.74688 | 8.55677 | 86° | 106km/h | 11677m | -16.6m/s | -57.3°C | 35.8% | 213.9hPa | 2.6V | 03:07:49 | 02:14:20 | 00:00:00 | |
| SO1NDE-10 | 2026-09-01 06:45:41 | 49.74688 | 8.55677 | 86° | 100km/h | 11677m | -16.6m/s | -57.2°C | 36.1% | 213.9hPa | 2.5V | 00:00:00 | 02:14:20 | 00:00:00 | |
| KANTATE | 2026-09-01 06:45:40 | 49.74688 | 8.55677 | 87° | 106km/h | 11677m | -16.6m/s | -57.3°C | 28.2% | 213.9hPa | 2.5V | 00:00:00 | 00:00:00 | 00:00:00 | |
| DJ2DS-15 | 2026-09-01 06:45:39 | 49.74685 | 8.55593 | 87° | 100km/h | 11709m | -16.2m/s | -57.4°C | 35.8% | 212.7hPa | 2.5V | 00:00:00 | 02:14:18 | 00:00:00 | |
| DJ2DS-15 | 2026-09-01 06:45:38 | 49.74683 | 8.55552 | 85° | 106km/h | 11724m | -16.3m/s | -57.6°C | 27.8% | 212.3hPa | 2.5V | 00:00:00 | 00:00:00 | 00:00:00 | |
| DL1NUX | 2026-09-01 06:45:37 | 49.74669 | 8.55308 | 85° | 100km/h | 11821m | -16.5m/s | -58.1°C | 33% | 209hPa | 2.5V | 03:07:56 | 02:14:11 | 00:00:00 | |
| DM0DOS-11 | 2026-09-01 06:45:36 | 49.74667 | 8.55268 | 86° | 102km/h | 11837m | -16.6m/s | -58.2°C | 32.5% | 208.6hPa | 2.6V | 03:07:57 | 02:14:10 | 00:00:00 | |
| BIOWL1-15 | 2026-09-01 06:45:31 | 49.74667 | 8.55268 | 86° | 102km/h | 11837m | -16.6m/s | -58.3°C | 31.6% | 208.6hPa | 2.6V | 03:08:40 | 02:14:10 | 00:00:00 | |
| BIOWL9-15 | 2026-09-01 06:45:31 | 49.74667 | 8.55268 | 86° | 102km/h | 11837m | -16.6m/s | -58.3°C | 24.8% | 208.6hPa | 2.6V | 00:00:00 | 00:00:00 | 00:00:00 | |
| DM7RM-13 | 2026-09-01 06:45:30 | 49.74667 | 8.55268 | 87° | 102km/h | 11837m | -16.6m/s | -58.3°C | 24.8% | 208.6hPa | 2.6V | 03:08:00 | 00:00:00 | 00:00:00 | |
| DB0UT-9 | 2026-09-01 06:45:29 | 49.74664 | 8.55229 | 85° | 100km/h | 11853m | -16.5m/s | -58.4°C | 24.6% | 208.0hPa | 2.6V | 03:08:00 | 00:00:00 | 00:00:00 | |
| HEMX73-11 | 2026-09-01 06:45:28 | 49.74659 | 8.55152 | 85° | 97km/h | 11885m | -16.0m/s | -58.5°C | 24.2% | 206.9hPa | 2.6V | 03:08:00 | 00:00:00 | 00:00:00 | |
| DL1NUX | 2026-09-01 06:45:27 | 49.74651 | 8.54923 | 90° | 99km/h | 11981m | -17.1m/s | -57.7°C | 27.3% | 203.8hPa | 2.6V | 03:08:06 | 02:14:01 | 00:00:00 | |
| DM0DOS-11 | 2026-09-01 06:45:26 | 49.74650 | 8.54885 | 88° | 95km/h | 11998m | -17.5m/s | -57.7°C | 26.9% | 203.3hPa | 2.5V | 03:08:07 | 02:14:00 | 00:00:00 | |
| BIOWL1-15 | 2026-09-01 06:45:24 | 49.74650 | 8.54885 | 89° | 95km/h | 11998m | -17.5m/s | -57.7°C | 26.8% | 203.3hPa | 2.5V | 03:08:40 | 02:14:00 | 00:00:00 | |
| NBG1-10 | 2026-09-01 06:45:22 | 49.74650 | 8.54923 | 91° | 95km/h | 11981m | -17.0m/s | -57.6°C | 27.3% | 203.7hPa | 2.5V | 00:00:00 | 02:14:01 | 00:00:00 | |
| DF2AP-13 | 2026-09-01 06:45:20 | 49.74649 | 8.54847 | 90° | 95km/h | 12015m | -17.3m/s | -57.7°C | 26.6% | 202.7hPa | 2.5V | 00:00:00 | 02:13:59 | 00:00:00 | |
| KANTATE | 2026-09-01 06:45:19 | 49.74649 | 8.54847 | 90° | 95km/h | 12015m | -17.3m/s | -57.7°C | 19.9% | 202.7hPa | 2.5V | 03:08:00 | 00:00:00 | 00:00:00 | |
| DL1NUX | 2026-09-01 06:45:18 | 49.74645 | 8.54547 | 87° | 93km/h | 12149m | -16.9m/s | -58.5°C | 25.4% | 198.5hPa | 2.5V | 03:08:16 | 02:13:51 | 00:00:00 | |
| DM0DOS-11 | 2026-09-01 06:45:17 | 49.74644 | 8.54510 | 89° | 97km/h | 12166m | -16.3m/s | -58.5°C | 25.1% | 197.9hPa | 2.6V | 03:08:17 | 02:13:50 | 00:00:00 | |
| DB0NH | 2026-09-01 06:45:16 | 49.74648 | 8.54696 | 88° | 95km/h | 12083m | -16.9m/s | -58.1°C | 26.1% | 200.5hPa | 2.5V | 03:08:00 | 02:13:55 | 00:00:00 | |
| DO3MHA-11 | 2026-09-01 06:45:14 | 49.74647 | 8.54621 | 90° | 95km/h | 12116m | -16.9m/s | -58.3°C | 25.7% | 199.5hPa | 2.5V | 00:00:00 | 02:13:53 | 00:00:00 | |
| DB0UT-7 | 2026-09-01 06:45:13 | 49.74646 | 8.54583 | 88° | 93km/h | 12133m | -16.9m/s | -58.4°C | 25.5% | 198.9hPa | 2.5V | 03:08:00 | 02:13:52 | 00:00:00 | |
| DO3DL | 2026-09-01 06:45:12 | 49.74646 | 8.54583 | 89° | 95km/h | 12133m | -17.0m/s | -58.4°C | 18.7% | 199.0hPa | 2.5V | 03:08:00 | 00:00:00 | 00:00:00 | |
| SO1NDE-10 | 2026-09-01 06:45:11 | 49.74645 | 8.54510 | 90° | 93km/h | 12166m | -16.3m/s | -58.5°C | 25.1% | 197.9hPa | 2.5V | 00:00:00 | 02:13:50 | 00:00:00 | |
| DF3TZ-5 | 2026-09-01 06:45:10 | 49.74644 | 8.54472 | 88° | 95km/h | 12182m | -16.9m/s | -58.5°C | 18.0% | 197.4hPa | 2.5V | 00:00:00 | 00:00:00 | 00:00:00 | |
| BIOWL1-15 | 2026-09-01 06:45:10 | 49.74644 | 8.54472 | 88° | 97km/h | 12182m | -16.9m/s | -58.5°C | 22.8% | 197.4hPa | 2.6V | 03:08:40 | 02:13:49 | 00:00:00 | |
| DM7RM-13 | 2026-09-01 06:45:09 | 49.74644 | 8.54472 | 89° | 97km/h | 12182m | -16.9m/s | -58.5°C | 18.0% | 197.4hPa | 2.5V | 03:08:00 | 00:00:00 | 00:00:00 | |
| DB0UT-9 | 2026-09-01 06:45:08 | 49.74643 | 8.54434 | 89° | 95km/h | 12199m | -17.0m/s | -58.5°C | 17.5% | 197.0hPa | 2.5V | 03:08:00 | 00:00:00 | 00:00:00 | |
| DL1NUX | 2026-09-01 06:45:07 | 49.74633 | 8.54178 | 84° | 95km/h | 12315m | -17.4m/s | -58.9°C | 19.9% | 193.3hPa | 2.5V | 03:08:26 | 02:13:41 | 00:00:00 | |
| DM0DOS-11 | 2026-09-01 06:45:07 | 49.74630 | 8.54141 | 82° | 93km/h | 12332m | -17.1m/s | -58.8°C | 18.6% | 192.8hPa | 2.5V | 03:08:27 | 02:13:40 | 00:00:00 | |
| BIOWL1-15 | 2026-09-01 06:45:00 | 49.74624 | 8.54069 | 83° | 95km/h | 12365m | -17m/s | -58.3°C | 12.7% | 191.8hPa | 2.6V | 03:08:40 | 02:13:38 | 00:00:00 | |
| DL1ZP-14 | 2026-09-01 06:45:00 | 49.74624 | 8.54069 | 82° | 93km/h | 12365m | -17.0m/s | -58.3°C | 10.2% | 191.8hPa | 2.6V | 00:00:00 | 00:00:00 | 00:00:00 | |
| DB0ND-19 | 2026-09-01 06:44:59 | 49.74620 | 8.54033 | 80° | 95km/h | 12382m | -16.8m/s | -58.1°C | 9.5% | 191.2hPa | 2.6V | 00:00:00 | 00:00:00 | 00:00:00 | |
| DH7VM-15 | 2026-09-01 06:44:58 | 49.74624 | 8.54069 | 84° | 95km/h | 12365m | -17.0m/s | -58.3°C | 10.2% | 191.8hPa | 2.6V | 00:00:00 | 00:00:00 | 00:00:00 | |
| DL1NUX | 2026-09-01 06:44:57 | 49.74591 | 8.53817 | 77° | 91km/h | 12483m | -17.6m/s | -58.6°C | 13% | 188.2hPa | 2.6V | 03:08:36 | 02:13:31 | 00:00:00 | |
| DJ2DS-15 | 2026-09-01 06:44:57 | 49.74615 | 8.53996 | 79° | 93km/h | 12399m | -16.8m/s | -58.1°C | 14.3% | 190.6hPa | 2.5V | 03:08:00 | 02:13:36 | 00:00:00 | |
| DM0DOS-11 | 2026-09-01 06:44:56 | 49.74586 | 8.53782 | 79° | 93km/h | 12500m | -17.3m/s | -58.3°C | 12.3% | 187.6hPa | 2.5V | 03:08:37 | 02:13:30 | 00:00:00 | |
| HSKMA3-T | 2026-09-01 06:44:52 | 49.74591 | 8.53817 | 77° | 91km/h | 12483m | -17.6m/s | -58.6°C | 9.1% | 188.2hPa | 2.6V | 03:09:31 | 02:13:31 | 00:00:00 | |
| BIOWL1-15 | 2026-09-01 06:44:49 | 49.74573 | 8.53675 | 80° | 91km/h | 12553m | -17.5m/s | -57.8°C | 7.1% | 186.1hPa | 2.6V | 03:08:40 | 02:13:27 | 00:00:00 | |
| DM3KS-11 | 2026-09-01 06:44:49 | 49.74573 | 8.53675 | 79° | 91km/h | 12553m | -17.5m/s | -57.8°C | 6.3% | 186.1hPa | 2.5V | 00:00:00 | 00:00:00 | 00:00:00 | |
| DB0UT-9 | 2026-09-01 06:44:48 | 49.74577 | 8.53710 | 81° | 93km/h | 12535m | -18.0m/s | -57.9°C | 6.6% | 186.7hPa | 2.5V | 03:08:00 | 00:00:00 | 00:00:00 | |
| DM0DOS-11 | 2026-09-01 06:44:47 | 49.74554 | 8.53420 | 85° | 97km/h | 12673m | -17.2m/s | -57.2°C | 8.8% | 182.6hPa | 2.5V | 03:08:47 | 02:13:20 | 00:00:00 | |
| DO1YAY-16 | 2026-09-01 06:44:47 | 49.74566 | 8.53604 | 83° | 93km/h | 12587m | -17.2m/s | -57.7°C | 5.8% | 185.1hPa | 2.5V | 00:00:00 | 00:00:00 | 00:00:00 | |
| HARRO8 | 2026-09-01 06:44:46 | 49.74560 | 8.53531 | 82° | 91km/h | 12621m | -17.7m/s | -57.4°C | 5.3% | 184.2hPa | 2.5V | 00:00:00 | 00:00:00 | 00:00:00 | |
| BIOWL1-15 | 2026-09-01 06:44:39 | 49.74548 | 8.53273 | 88° | 93km/h | 12742m | -17.3m/s | -56.1°C | 3.6% | 180.7hPa | 2.5V | 03:09:31 | 02:13:16 | 00:00:00 | |
| DL1NUX | 2026-09-01 06:44:38 | 49.74543 | 8.53101 | 86° | 84km/h | 12828m | -18.2m/s | -55°C | 6.1% | 178.2hPa | 2.6V | 03:08:56 | 02:13:11 | 00:00:00 | |
| DJ2DS-15 | 2026-09-01 06:44:37 | 49.74548 | 8.53273 | 88° | 84km/h | 12742m | -17.3m/s | -56.1°C | 7.4% | 180.7hPa | 2.5V | 00:00:00 | 02:13:16 | 00:00:00 | |
| DO3MHA-11 | 2026-09-01 06:44:34 | 49.74545 | 8.53169 | 89° | 84km/h | 12793m | -17.2m/s | -55.3°C | 6.5% | 179.2hPa | 2.6V | 00:00:00 | 02:13:13 | 00:00:00 | |
| DO3DL | 2026-09-01 06:44:31 | 49.74543 | 8.53101 | 88° | 84km/h | 12828m | -18.3m/s | -55.0°C | 2.8% | 178.2hPa | 2.5V | 03:09:00 | 00:00:00 | 00:00:00 | |
| KANTATE | 2026-09-01 06:44:30 | 49.74541 | 8.53069 | 87° | 82km/h | 12846m | -18.0m/s | -54.7°C | 2.7% | 177.7hPa | 2.5V | 00:00:00 | 00:00:00 | 00:00:00 | |
| DL1ZP-14 | 2026-09-01 06:44:29 | 49.74538 | 8.52971 | 85° | 82km/h | 12900m | -18.6m/s | -53.9°C | 2.2% | 176.2hPa | 2.5V | 00:00:00 | 00:00:00 | 00:00:00 | |
| DL1NUX | 2026-09-01 06:44:27 | 49.74527 | 8.52779 | 84° | 84km/h | 13007m | -17.8m/s | -52.8°C | 4.5% | 173.3hPa | 2.5V | 03:09:06 | 02:13:01 | 00:00:00 | |
| BIOWL1-15 | 2026-09-01 06:44:26 | 49.74535 | 8.52907 | 87° | 84km/h | 12937m | -17.9m/s | -53.6°C | 1.5% | 175.3hPa | 2.6V | 03:09:31 | 02:13:05 | 00:00:00 | |
| DK5PH-5 | 2026-09-01 06:44:26 | 49.74535 | 8.52907 | 88° | 84km/h | 12937m | -17.9m/s | -53.6°C | 4.9% | 175.2hPa | 2.6V | 00:00:00 | 02:13:05 | 00:00:00 | |
| DL8DAS-15 | 2026-09-01 06:44:25 | 49.74535 | 8.52907 | 88° | 84km/h | 12937m | -17.9m/s | -53.6°C | 2.1% | 175.3hPa | 2.5V | 03:09:00 | 00:00:00 | 00:00:00 | |
| DL0LBS | 2026-09-01 06:44:24 | 49.74532 | 8.52842 | 84° | 80km/h | 12972m | -17.9m/s | -53.4°C | 2.0% | 174.3hPa | 2.5V | 03:09:00 | 00:00:00 | 00:00:00 | |
| AM1SDL-15 | 2026-09-01 06:44:23 | 49.74529 | 8.52811 | 85° | 80km/h | 12990m | -17.9m/s | -52.9°C | 4.6% | 173.8hPa | 2.5V | 00:00:00 | 02:13:02 | 00:00:00 | |
| DF1GD-15 | 2026-09-01 06:44:21 | 49.74527 | 8.52779 | 86° | 84km/h | 13007m | -17.8m/s | -52.8°C | 1.9% | 173.3hPa | 2.6V | 03:09:00 | 00:00:00 | 00:00:00 | |
| DF2AP-13 | 2026-09-01 06:44:20 | 49.74522 | 8.52716 | 83° | 78km/h | 13043m | -18.2m/s | -52.7°C | 4.4% | 172.2hPa | 2.6V | 00:00:00 | 02:12:59 | 00:00:00 | |
| DM3KS-11 | 2026-09-01 06:44:18 | 49.74514 | 8.52623 | 82° | 78km/h | 13096m | -19.1m/s | -52.7°C | 1.8% | 170.8hPa | 2.5V | 00:00:00 | 00:00:00 | 00:00:00 | |
| DJ2DS-15 | 2026-09-01 06:44:17 | 49.74514 | 8.52623 | 83° | 84km/h | 13097m | -19.0m/s | -52.6°C | 4.4% | 170.8hPa | 2.5V | 00:00:00 | 02:12:56 | 00:00:00 | |
| DL1NUX | 2026-09-01 06:44:16 | 49.74497 | 8.52436 | 83° | 84km/h | 13208m | -18.8m/s | -53.3°C | 4.5% | 168hPa | 2.5V | 03:09:17 | 02:12:50 | 00:00:00 | |
| BIOWL1-15 | 2026-09-01 06:44:15 | 49.74509 | 8.52561 | 84° | 80km/h | 13133m | -18.9m/s | -52.8°C | 1.1% | 169.9hPa | 2.6V | 03:09:31 | 02:12:54 | 00:00:00 | |
| HSKMA3-T | 2026-09-01 06:44:13 | 49.74502 | 8.52499 | 81° | 80km/h | 13170m | -19m/s | -53.1°C | 1% | 169hPa | 2.5V | 03:09:31 | 02:12:52 | 00:00:00 | |
| BIOWL1-15 | 2026-09-01 06:44:09 | 49.74480 | 8.52233 | 84° | 88km/h | 13317m | -18.6m/s | -53°C | 0.8% | 165.2hPa | 2.5V | 03:09:31 | 02:12:44 | 00:00:00 | |
| DF3TZ-5 | 2026-09-01 06:44:08 | 49.74487 | 8.52336 | 84° | 86km/h | 13262m | -18.4m/s | -53.4°C | 1.7% | 166.7hPa | 2.5V | 00:00:00 | 00:00:00 | 00:00:00 | |
| DM7RM-13 | 2026-09-01 06:44:07 | 49.74485 | 8.52302 | 85° | 89km/h | 13280m | -18.9m/s | -53.4°C | 1.8% | 166.2hPa | 2.5V | 03:09:00 | 00:00:00 | 00:00:00 | |
| HEMX73-11 | 2026-09-01 06:44:06 | 49.74482 | 8.52267 | 84° | 89km/h | 13299m | -18.5m/s | -53.2°C | 1.7% | 165.6hPa | 2.5V | 03:09:00 | 00:00:00 | 00:00:00 | |
| DM0DOS-11 | 2026-09-01 06:44:05 | 49.74474 | 8.52095 | 87° | 86km/h | 13390m | -18.5m/s | -53.4°C | 4.4% | 163.3hPa | 2.5V | 03:09:27 | 02:12:40 | 00:00:00 | |
| DM0DOS-11 | 2026-09-01 06:44:05 | 49.74482 | 8.51794 | 92° | 69km/h | 13572m | -18.6m/s | -52.5°C | 3.9% | 158.8hPa | 2.6V | 03:09:37 | 02:12:30 | 00:00:00 | |
| DM0DOS-11 | 2026-09-01 06:44:05 | 49.74504 | 8.50952 | 101° | 77km/h | 14139m | -19.4m/s | -52.4°C | 3.9% | 145.4hPa | 2.6V | 03:10:07 | 02:12:00 | 00:00:00 | |
| DM0DOS-11 | 2026-09-01 06:44:05 | 49.74540 | 8.50686 | 103° | 64km/h | 14331m | -19.2m/s | -52.5°C | 4% | 141.2hPa | 2.6V | 03:10:17 | 02:11:50 | 00:00:00 | |
| DM0DOS-11 | 2026-09-01 06:44:05 | 49.74562 | 8.50464 | 98° | 57km/h | 14526m | -19.7m/s | -53°C | 4.1% | 137hPa | 2.5V | 03:10:27 | 02:11:40 | 00:00:00 | |
| DM0DOS-11 | 2026-09-01 06:44:05 | 49.74577 | 8.50244 | 94° | 58km/h | 14726m | -20.1m/s | -52.8°C | 3.9% | 132.8hPa | 2.6V | 03:10:37 | 02:11:30 | 00:00:00 | |
| DM0DOS-11 | 2026-09-01 06:44:05 | 49.74585 | 8.50040 | 94° | 47km/h | 14927m | -20.3m/s | -53.3°C | 3.9% | 128.8hPa | 2.6V | 03:10:47 | 02:11:20 | 00:00:00 | |
| DL1NUX | 2026-09-01 06:44:05 | 49.74482 | 8.51532 | 91° | 69km/h | 13758m | -19.2m/s | -52.4°C | 4% | 154.2hPa | 2.5V | 03:09:47 | 02:12:20 | 00:00:00 | |
| DL1NUX | 2026-09-01 06:44:05 | 49.74485 | 8.51253 | 95° | 78km/h | 13946m | -19.2m/s | -52.8°C | 4.1% | 149.8hPa | 2.6V | 03:09:57 | 02:12:10 | 00:00:00 | |
| DL1XH1-15 | 2026-09-01 06:44:05 | 49.74584 | 8.50059 | 92° | 46km/h | 14907m | -20.1m/s | -53.2°C | 3.9% | 129.2hPa | 2.6V | 03:10:46 | 02:11:21 | 00:00:00 | |
| DO3MHA-11 | 2026-09-01 06:44:04 | 49.74478 | 8.52198 | 87° | 84km/h | 13336m | -18.2m/s | -53.0°C | 4.3% | 164.7hPa | 2.5V | 00:00:00 | 02:12:43 | 00:00:00 | |
| DM3KS-11 | 2026-09-01 06:42:44 | 49.74582 | 8.50096 | 95° | 49km/h | 14866m | -20.6m/s | -53.3°C | 1.3% | 130.0hPa | 2.6V | 00:00:00 | 00:00:00 | 00:00:00 | |
| DL1XH-west | 2026-09-01 06:42:42 | 49.74585 | 8.50040 | 94° | 49km/h | 14927m | -20.3m/s | -53.3°C | 0.3% | 128.8hPa | 2.6V | 03:12:04 | 02:11:20 | 00:00:00 | |
| SO1NDE-10 | 2026-09-01 06:42:41 | 49.74584 | 8.50040 | 95° | 47km/h | 14927m | -20.2m/s | -53.2°C | 3.9% | 128.8hPa | 2.6V | 03:10:00 | 02:11:20 | 00:00:00 | |
| DO3DL | 2026-09-01 06:42:40 | 49.74584 | 8.50040 | 95° | 47km/h | 14927m | -20.3m/s | -53.3°C | 1.3% | 128.8hPa | 2.6V | 00:00:00 | 00:00:00 | 00:00:00 | |
| DJ2DS-15 | 2026-09-01 06:42:38 | 49.74585 | 8.49985 | 92° | 47km/h | 14988m | -20.7m/s | -53.6°C | 1.3% | 127.6hPa | 2.6V | 00:00:00 | 00:00:00 | 00:00:00 | |
| NBG1-10 | 2026-09-01 06:42:37 | 49.74585 | 8.49967 | 90° | 47km/h | 15008m | -21.1m/s | -53.5°C | 4.0% | 127.1hPa | 2.6V | 00:00:00 | 02:11:16 | 00:00:00 | |
| DL1XH1-15 | 2026-09-01 06:42:36 | 49.74586 | 8.49859 | 91° | 46km/h | 15132m | -21.4m/s | -53.8°C | 4% | 124.8hPa | 2.6V | 03:10:57 | 02:11:10 | 00:00:00 | |
| DL1XH-west | 2026-09-01 06:42:30 | 49.74586 | 8.49842 | 90° | 42km/h | 15153m | -21.3m/s | -53.9°C | 0.3% | 124.3hPa | 2.6V | 03:12:04 | 02:11:09 | 00:00:00 | |
| KANTATE | 2026-09-01 06:42:27 | 49.74586 | 8.49808 | 92° | 46km/h | 15195m | -21.5m/s | -53.9°C | 1.2% | 123.5hPa | 2.5V | 03:11:00 | 00:00:00 | 00:00:00 | |
| DM0DOS-11 | 2026-09-01 06:42:26 | 49.74583 | 8.49688 | 81° | 46km/h | 15341m | -21.4m/s | -54.6°C | 4.2% | 120.7hPa | 2.5V | 03:11:07 | 02:11:00 | 00:00:00 | |
| BIOWL9-15 | 2026-09-01 06:42:25 | 49.74586 | 8.49740 | 85° | 40km/h | 15280m | -21.4m/s | -54.3°C | 1.3% | 121.9hPa | 2.5V | 00:00:00 | 00:00:00 | 00:00:00 | |
| HEMX73-11 | 2026-09-01 06:42:24 | 49.74586 | 8.49740 | 87° | 42km/h | 15280m | -21.4m/s | -54.3°C | 1.3% | 121.9hPa | 2.5V | 03:11:00 | 00:00:00 | 00:00:00 | |
| DB0ND-19 | 2026-09-01 06:42:23 | 49.74585 | 8.49723 | 86° | 42km/h | 15300m | -21.5m/s | -54.4°C | 1.2% | 121.5hPa | 2.5V | 00:00:00 | 00:00:00 | 00:00:00 | |
| DL1NUX | 2026-09-01 06:42:22 | 49.74573 | 8.49616 | 73° | 47km/h | 15425m | -21.4m/s | -54.3°C | 4.1% | 119.2hPa | 2.5V | 03:11:11 | 02:10:56 | 00:00:00 | |
| BIOWL1-15 | 2026-09-01 06:42:21 | 49.74579 | 8.49653 | 82° | 47km/h | 15384m | -21.3m/s | -54.5°C | 0.3% | 120hPa | 2.6V | 03:11:13 | 02:10:58 | 00:00:00 | |
| DL1XH-west | 2026-09-01 06:42:20 | 49.74581 | 8.49671 | 79° | 44km/h | 15363m | -21.3m/s | -54.6°C | 0.4% | 120.3hPa | 2.6V | 03:12:04 | 02:10:59 | 00:00:00 | |
| DF1GD-15 | 2026-09-01 06:42:18 | 49.74579 | 8.49653 | 83° | 47km/h | 15384m | -21.3m/s | -54.5°C | 1.3% | 120.0hPa | 2.5V | 03:11:00 | 00:00:00 | 00:00:00 | |
| DF2AP-13 | 2026-09-01 06:42:17 | 49.74573 | 8.49616 | 74° | 49km/h | 15426m | -21.4m/s | -54.2°C | 4.1% | 119.1hPa | 2.5V | 00:00:00 | 02:10:56 | 00:00:00 | |
| DM0DOS-11 | 2026-09-01 06:42:16 | 49.74551 | 8.49499 | 73° | 51km/h | 15553m | -21.7m/s | -54.3°C | 4% | 116.8hPa | 2.5V | 03:11:17 | 02:10:50 | 00:00:00 | |
| DL0LBS | 2026-09-01 06:42:15 | 49.74569 | 8.49598 | 77° | 49km/h | 15447m | -21.4m/s | -54.2°C | 1.2% | 118.8hPa | 2.6V | 03:11:00 | 00:00:00 | 00:00:00 | |
| DO3MHA-11 | 2026-09-01 06:42:14 | 49.74562 | 8.49559 | 73° | 51km/h | 15489m | -21.9m/s | -54.2°C | 4.0% | 117.9hPa | 2.6V | 03:11:00 | 02:10:53 | 00:00:00 | |
| DB0UT-7 | 2026-09-01 06:42:13 | 49.74558 | 8.49540 | 76° | 53km/h | 15511m | -21.7m/s | -54.1°C | 4.0% | 117.6hPa | 2.6V | 00:00:00 | 02:10:52 | 00:00:00 | |
| DL1NUX | 2026-09-01 06:42:12 | 49.74540 | 8.49422 | 81° | 47km/h | 15639m | -22.3m/s | -54.5°C | 4.1% | 115.2hPa | 2.6V | 03:11:21 | 02:10:46 | 00:00:00 | |
| BIOWL1-15 | 2026-09-01 06:42:09 | 49.74545 | 8.49460 | 79° | 51km/h | 15596m | -21.6m/s | -54.3°C | 0.2% | 116hPa | 2.6V | 03:12:04 | 02:10:48 | 00:00:00 | |
| DL1XH-west | 2026-09-01 06:42:07 | 49.74540 | 8.49422 | 82° | 47km/h | 15639m | -22.3m/s | -54.5°C | 0.3% | 115.2hPa | 2.6V | 03:12:04 | 02:10:46 | 00:00:00 | |
| DM0DOS-11 | 2026-09-01 06:42:06 | 49.74531 | 8.49315 | 83° | 44km/h | 15769m | -22.2m/s | -54.6°C | 4.1% | 113hPa | 2.5V | 03:11:27 | 02:10:40 | 00:00:00 | |
| SO1NDE-10 | 2026-09-01 06:42:05 | 49.74537 | 8.49385 | 82° | 53km/h | 15683m | -22.0m/s | -54.5°C | 4.1% | 114.5hPa | 2.5V | 00:00:00 | 02:10:44 | 00:00:00 | |
| DO3MHA-11 | 2026-09-01 06:42:04 | 49.74535 | 8.49368 | 82° | 46km/h | 15704m | -21.7m/s | -54.5°C | 4.1% | 114.1hPa | 2.5V | 00:00:00 | 02:10:43 | 00:00:00 | |
| NBG1-10 | 2026-09-01 06:42:03 | 49.74533 | 8.49350 | 87° | 55km/h | 15726m | -21.6m/s | -54.5°C | 4.1% | 113.7hPa | 2.6V | 03:11:00 | 02:10:42 | 00:00:00 | |
| DL1NUX | 2026-09-01 06:42:02 | 49.74527 | 8.49245 | 86° | 47km/h | 15856m | -22m/s | -54.9°C | 4.3% | 111.4hPa | 2.6V | 03:11:31 | 02:10:36 | 00:00:00 | |
| BIOWL1-15 | 2026-09-01 06:41:58 | 49.74528 | 8.49262 | 81° | 44km/h | 15834m | -22.2m/s | -54.8°C | 0.3% | 111.8hPa | 2.6V | 03:12:04 | 02:10:37 | 00:00:00 | |
| DL1XH-west | 2026-09-01 06:41:57 | 49.74527 | 8.49245 | 87° | 47km/h | 15856m | -22m/s | -54.9°C | 0.4% | 111.4hPa | 2.6V | 03:12:04 | 02:10:36 | 00:00:00 | |
| DL8DAS-14 | 2026-09-01 06:41:57 | 49.74526 | 8.49226 | 83° | 47km/h | 15878m | -22.3m/s | -55.0°C | 1.3% | 111.1hPa | 2.6V | 00:00:00 | 00:00:00 | 00:00:00 | |
| DM0DOS-11 | 2026-09-01 06:41:56 | 49.74516 | 8.49132 | 78° | 51km/h | 15988m | -22m/s | -55°C | 4.4% | 109.2hPa | 2.6V | 03:11:37 | 02:10:30 | 00:00:00 | |
| BIOWL9-15 | 2026-09-01 06:41:54 | 49.74521 | 8.49170 | 81° | 49km/h | 15944m | -22.5m/s | -55.1°C | 1.3% | 109.9hPa | 2.5V | 00:00:00 | 00:00:00 | 00:00:00 | |
| DL1ZP-14 | 2026-09-01 06:41:53 | 49.74521 | 8.49170 | 81° | 49km/h | 15944m | -22.5m/s | -55.1°C | 1.3% | 109.9hPa | 2.5V | 00:00:00 | 00:00:00 | 00:00:00 | |
| DL1XH1-15 | 2026-09-01 06:41:52 | 49.74503 | 8.49047 | 80° | 60km/h | 16076m | -22.2m/s | -55°C | 4.4% | 107.7hPa | 2.6V | 03:11:41 | 02:10:26 | 00:00:00 | |
| BIOWL1-15 | 2026-09-01 06:41:48 | 49.74506 | 8.49069 | 77° | 55km/h | 16054m | -22.8m/s | -55°C | 0.3% | 108hPa | 2.5V | 03:12:04 | 02:10:27 | 00:00:00 | |
| DM0DOS-11 | 2026-09-01 06:41:46 | 49.74488 | 8.48904 | 87° | 62km/h | 16210m | -22.7m/s | -54.3°C | 4.2% | 105.4hPa | 2.6V | 03:11:47 | 02:10:20 | 00:00:00 | |
| DL1XH-west | 2026-09-01 06:41:46 | 49.74500 | 8.49024 | 78° | 60km/h | 16098m | -22.5m/s | -55.1°C | 0.3% | 107.3hPa | 2.6V | 03:12:04 | 02:10:25 | 00:00:00 | |
| KANTATE | 2026-09-01 06:41:45 | 49.74500 | 8.49023 | 79° | 60km/h | 16099m | -22.5m/s | -55.1°C | 1.2% | 107.3hPa | 2.6V | 00:00:00 | 00:00:00 | 00:00:00 | |
| DO3MHA-11 | 2026-09-01 06:41:44 | 49.74493 | 8.48977 | 84° | 60km/h | 16143m | -22.2m/s | -55.0°C | 4.4% | 106.5hPa | 2.6V | 00:00:00 | 02:10:23 | 00:00:00 | |
| DB0UT-7 | 2026-09-01 06:41:43 | 49.74491 | 8.48952 | 83° | 53km/h | 16165m | -22.8m/s | -54.6°C | 4.3% | 106.1hPa | 2.6V | 00:00:00 | 00:00:00 | 00:00:00 | |
| DL1NUX | 2026-09-01 06:41:42 | 49.74484 | 8.48810 | 89° | 60km/h | 16301m | -23.4m/s | -54°C | 4% | 104hPa | 2.6V | 03:11:51 | 02:10:16 | 00:00:00 | |
| BIOWL1-15 | 2026-09-01 06:41:39 | 49.74484 | 8.48810 | 89° | 60km/h | 16301m | -23.4m/s | -54°C | 0.1% | 104hPa | 2.6V | 03:12:04 | 02:10:16 | 00:00:00 | |
| DL1XH-west | 2026-09-01 06:41:36 | 49.74484 | 8.48787 | 90° | 57km/h | 16325m | -23.9m/s | -53.9°C | 0.1% | 103.6hPa | 2.6V | 03:12:04 | 02:10:15 | 00:00:00 | |
| SO1NDE-10 | 2026-09-01 06:41:35 | 49.74484 | 8.48765 | 93° | 46km/h | 16349m | -22.9m/s | -53.8°C | 4.1% | 103.2hPa | 2.5V | 00:00:00 | 02:10:14 | 00:00:00 | |
| DO3MHA-11 | 2026-09-01 06:41:34 | 49.74484 | 8.48742 | 95° | 53km/h | 16371m | -23.3m/s | -53.9°C | 4.0% | 102.8hPa | 2.5V | 03:11:00 | 02:10:13 | 00:00:00 | |
| DF3TZ-5 | 2026-09-01 06:41:33 | 49.74485 | 8.48720 | 92° | 55km/h | 16394m | -23.6m/s | -54.0°C | 1.1% | 102.5hPa | 2.5V | 00:00:00 | 00:00:00 | 00:00:00 | |
| DL1NUX | 2026-09-01 06:41:32 | 49.74496 | 8.48592 | 97° | 51km/h | 16535m | -23.9m/s | -53.1°C | 3.8% | 100.3hPa | 2.5V | 03:12:01 | 02:10:06 | 00:00:00 | |
| DL1XH-west | 2026-09-01 06:41:26 | 49.74498 | 8.48573 | 95° | 47km/h | 16558m | -23.6m/s | -53.2°C | 0.1% | 99.9hPa | 2.6V | 03:12:04 | 02:10:05 | 00:00:00 | |
| DL8DAS-14 | 2026-09-01 06:41:26 | 49.74499 | 8.48555 | 96° | 47km/h | 16582m | -23.6m/s | -53.2°C | 1.0% | 99.6hPa | 2.5V | 00:00:00 | 00:00:00 | 00:00:00 | |
| DO3MHA-11 | 2026-09-01 06:41:24 | 49.74500 | 8.48536 | 94° | 44km/h | 16605m | -23.9m/s | -53.1°C | 3.9% | 99.2hPa | 2.5V | 00:00:00 | 02:10:03 | 00:00:00 | |
| BIOWL9-15 | 2026-09-01 06:41:23 | 49.74501 | 8.48501 | 92° | 46km/h | 16653m | -24.3m/s | -53.0°C | 1.0% | 98.5hPa | 2.5V | 00:00:00 | 00:00:00 | 00:00:00 | |
| DL1NUX | 2026-09-01 06:41:22 | 49.74495 | 8.48414 | 79° | 42km/h | 16773m | -24.6m/s | -52.7°C | 3.7% | 96.6hPa | 2.5V | 03:12:11 | 02:09:56 | 00:00:00 | |
| BIOWL1-15 | 2026-09-01 06:41:18 | 49.74494 | 8.48398 | 82° | 42km/h | 16798m | -25m/s | -52.7°C | 0% | 96.3hPa | 2.5V | 03:12:55 | 02:09:55 | 00:00:00 | |
| KANTATE | 2026-09-01 06:41:17 | 49.74497 | 8.48431 | 84° | 46km/h | 16749m | -24.3m/s | -52.9°C | 1.0% | 97.0hPa | 2.6V | 03:12:00 | 00:00:00 | 00:00:00 | |
| DM0DOS-11 | 2026-09-01 06:41:16 | 49.74481 | 8.48320 | 70° | 38km/h | 16923m | -25.5m/s | -52.3°C | 3.6% | 94.5hPa | 2.6V | 03:12:17 | 02:09:50 | 00:00:00 | |
| DL1XH-west | 2026-09-01 06:41:15 | 49.74492 | 8.48382 | 78° | 44km/h | 16823m | -25m/s | -52.8°C | 0% | 96hPa | 2.6V | 03:12:55 | 02:09:54 | 00:00:00 | |
| DJ2DS-15 | 2026-09-01 06:41:14 | 49.74489 | 8.48366 | 75° | 44km/h | 16848m | -25.2m/s | -52.8°C | 3.7% | 95.5hPa | 2.5V | 00:00:00 | 02:09:53 | 00:00:00 | |
| DB0UT-7 | 2026-09-01 06:41:13 | 49.74487 | 8.48350 | 78° | 44km/h | 16873m | -25.2m/s | -52.7°C | 3.7% | 95.1hPa | 2.5V | 03:12:00 | 02:09:52 | 00:00:00 | |
| DL1NUX | 2026-09-01 06:41:12 | 49.74466 | 8.48263 | 61° | 40km/h | 17020m | -24.2m/s | -51.4°C | 3.3% | 93hPa | 2.5V | 03:12:21 | 02:09:46 | 00:00:00 | |
| DK5PH-5 | 2026-09-01 06:41:11 | 49.74481 | 8.48319 | 71° | 44km/h | 16923m | -25.4m/s | -52.3°C | 3.6% | 94.4hPa | 2.6V | 03:12:00 | 02:09:50 | 00:00:00 | |
| DF7PN | 2026-09-01 06:41:09 | 49.74471 | 8.48277 | 65° | 40km/h | 16996m | -24.5m/s | -51.2°C | 0.8% | 93.3hPa | 2.5V | 00:00:00 | 00:00:00 | 00:00:00 | |
| DL9PN | 2026-09-01 06:41:08 | 49.74466 | 8.48263 | 61° | 40km/h | 17020m | -24.2m/s | -51.4°C | 0.8% | 93.0hPa | 2.5V | 00:00:00 | 00:00:00 | 00:00:00 | |
| HARRO8 | 2026-09-01 06:41:07 | 49.74466 | 8.48263 | 61° | 40km/h | 17020m | -24.2m/s | -51.4°C | 0.8% | 93.0hPa | 2.5V | 00:00:00 | 00:00:00 | 00:00:00 | |
| DM0DOS-11 | 2026-09-01 06:41:06 | 49.74429 | 8.48176 | 52° | 46km/h | 17162m | -24.9m/s | -52.3°C | 3.5% | 91hPa | 2.5V | 03:12:27 | 02:09:40 | 00:00:00 | |
| BIOWL1-15 | 2026-09-01 06:41:05 | 49.74455 | 8.48234 | 61° | 44km/h | 17066m | -23.5m/s | -51.7°C | 0% | 92.3hPa | 2.6V | 03:12:55 | 02:09:44 | 00:00:00 | |
| DL1XH-west | 2026-09-01 06:41:04 | 49.74449 | 8.48220 | 54° | 44km/h | 17090m | -24.4m/s | -51.8°C | 0% | 92hPa | 2.6V | 03:12:55 | 02:09:43 | 00:00:00 | |
| DO3MHA-11 | 2026-09-01 06:41:04 | 49.74449 | 8.48220 | 54° | 46km/h | 17090m | -24.4m/s | -51.7°C | 3.4% | 91.9hPa | 2.6V | 00:00:00 | 02:09:43 | 00:00:00 | |
| DL8DAS-15 | 2026-09-01 06:41:03 | 49.74449 | 8.48220 | 55° | 44km/h | 17090m | -24.4m/s | -51.8°C | 0.9% | 92.0hPa | 2.5V | 03:12:00 | 00:00:00 | 00:00:00 | |
| DL1NUX | 2026-09-01 06:41:02 | 49.74401 | 8.48117 | 58° | 46km/h | 17259m | -24.9m/s | -52.9°C | 3.8% | 89.6hPa | 2.5V | 03:12:31 | 02:09:36 | 00:00:00 | |
| HSKMA3-T | 2026-09-01 06:40:58 | 49.74408 | 8.48131 | 54° | 46km/h | 17235m | -24.9m/s | -52.8°C | 0% | 90hPa | 2.5V | 03:13:46 | 02:09:37 | 00:00:00 | |
| NBG1-10 | 2026-09-01 06:40:57 | 49.74401 | 8.48117 | 59° | 35km/h | 17260m | -24.9m/s | -52.9°C | 3.8% | 89.6hPa | 2.6V | 00:00:00 | 02:09:36 | 00:00:00 | |
| DM0DOS-11 | 2026-09-01 06:40:56 | 49.74373 | 8.48018 | 76° | 44km/h | 17406m | -24.4m/s | -53°C | 3.8% | 87.7hPa | 2.6V | 03:12:37 | 02:09:30 | 00:00:00 | |
| DL1XH-west | 2026-09-01 06:40:54 | 49.74384 | 8.48069 | 68° | 44km/h | 17333m | -24.3m/s | -52.9°C | 0.1% | 88.6hPa | 2.5V | 03:12:55 | 02:09:33 | 00:00:00 | |
| DO3MHA-11 | 2026-09-01 06:40:54 | 49.74384 | 8.48069 | 68° | 46km/h | 17333m | -24.2m/s | -52.8°C | 3.8% | 88.6hPa | 2.5V | 03:12:00 | 02:09:33 | 00:00:00 | |
| DD1CC2-15 | 2026-09-01 06:40:53 | 49.74384 | 8.48069 | 69° | 44km/h | 17333m | -24.3m/s | -52.9°C | 1.0% | 88.6hPa | 2.5V | 00:00:00 | 00:00:00 | 00:00:00 | |
| DL1XH1-15 | 2026-09-01 06:40:52 | 49.74368 | 8.47946 | 89° | 47km/h | 17504m | -23.9m/s | -53.2°C | 3.9% | 86.3hPa | 2.5V | 03:12:41 | 02:09:26 | 00:00:00 | |
| HSKMA3-T | 2026-09-01 06:40:47 | 49.74368 | 8.47946 | 90° | 47km/h | 17504m | -23.9m/s | -53.2°C | 0% | 86.3hPa | 2.5V | 03:13:46 | 02:09:26 | 00:00:00 | |
| DM0DOS-11 | 2026-09-01 06:40:46 | 49.74367 | 8.47849 | 89° | 33km/h | 17650m | -24.9m/s | -52.3°C | 3.6% | 84.4hPa | 2.6V | 03:12:47 | 02:09:20 | 00:00:00 | |
| BIOWL1-15 | 2026-09-01 06:40:46 | 49.74368 | 8.47894 | 92° | 42km/h | 17577m | -24.2m/s | -53.3°C | 0.1% | 85.3hPa | 2.6V | 03:12:55 | 02:09:23 | 00:00:00 | |
| DL1XH-west | 2026-09-01 06:40:43 | 49.74368 | 8.47878 | 89° | 40km/h | 17601m | -24.3m/s | -53°C | 0.1% | 85.1hPa | 2.5V | 03:12:55 | 02:09:22 | 00:00:00 | |
| DB0UT-7 | 2026-09-01 06:40:43 | 49.74368 | 8.47877 | 89° | 27km/h | 17601m | -24.2m/s | -52.9°C | 3.9% | 85.0hPa | 2.5V | 00:00:00 | 00:00:00 | 00:00:00 | |
| DL1XH1-15 | 2026-09-01 06:40:42 | 49.74363 | 8.47804 | 76° | 27km/h | 17749m | -24.9m/s | -52.2°C | 3.6% | 83.1hPa | 2.5V | 03:12:51 | 02:09:16 | 00:00:00 | |
| DK5PH-5 | 2026-09-01 06:40:41 | 49.74367 | 8.47849 | 90° | 26km/h | 17650m | -24.8m/s | -52.3°C | 3.6% | 84.3hPa | 2.6V | 00:00:00 | 02:09:20 | 00:00:00 | |
| DL8OAI-8 | 2026-09-01 06:40:40 | 49.74367 | 8.47849 | 90° | 33km/h | 17650m | -24.9m/s | -52.3°C | 0.9% | 84.4hPa | 2.6V | 00:00:00 | 00:00:00 | 00:00:00 | |
| DL1NUX | 2026-09-01 06:40:39 | 49.74358 | 8.47777 | 78° | 24km/h | 17822m | -25.2m/s | -51.6°C | 3.3% | 82.2hPa | 2.6V | 03:12:54 | 02:09:13 | 00:00:00 | |
| DD1CC8 | 2026-09-01 06:40:38 | 49.74364 | 8.47815 | 84° | 27km/h | 17724m | -24.8m/s | -52.1°C | 0.9% | 83.5hPa | 2.5V | 00:00:00 | 00:00:00 | 00:00:00 | |
| DL9PN | 2026-09-01 06:40:37 | 49.74357 | 8.47768 | 68° | 18km/h | 17847m | -25.5m/s | -51.5°C | 0.8% | 81.9hPa | 2.5V | 00:00:00 | 00:00:00 | 00:00:00 | |
| DM0DOS-11 | 2026-09-01 06:40:36 | 49.74353 | 8.47753 | 70° | 22km/h | 17897m | -26.2m/s | -51.1°C | 3.1% | 81.3hPa | 2.5V | 03:12:57 | 02:09:10 | 00:00:00 | |
| DL1XH-west | 2026-09-01 06:40:33 | 49.74357 | 8.47768 | 68° | 20km/h | 17847m | -25.5m/s | -51.5°C | 0% | 81.9hPa | 2.5V | 03:12:55 | 02:09:12 | 00:00:00 | |
| DL1XH1-15 | 2026-09-01 06:40:32 | 49.74342 | 8.47724 | 58° | 20km/h | 18000m | -26.2m/s | -51.2°C | 3.1% | 80hPa | 2.5V | 03:13:01 | 02:09:06 | 00:00:00 | |
| DL4BBY-15 | 2026-09-01 06:40:32 | 49.74355 | 8.47760 | 75° | 29km/h | 17873m | -25.3m/s | -50.3°C | 0% | 0hPa | 2.6V | 00:00:00 | 00:00:00 | 00:00:00 | |
| DF3TZ-5 | 2026-09-01 06:40:31 | 49.74353 | 8.47753 | 70° | 20km/h | 17897m | -26.2m/s | -51.1°C | 0.8% | 81.3hPa | 2.6V | 00:00:00 | 00:00:00 | 00:00:00 | |
| DD1CC2-15 | 2026-09-01 06:40:30 | 49.74353 | 8.47753 | 71° | 22km/h | 17898m | -26.2m/s | -51.1°C | 0.8% | 81.3hPa | 2.6V | 03:13:00 | 00:00:00 | 00:00:00 | |
| DL1NUX | 2026-09-01 06:40:29 | 49.74334 | 8.47701 | 61° | 22km/h | 18078m | -26.4m/s | -51.8°C | 3.2% | 79hPa | 2.6V | 03:13:04 | 02:09:03 | 00:00:00 | |
| DM0DOS-11 | 2026-09-01 06:40:26 | 49.74326 | 8.47677 | 63° | 24km/h | 18157m | -26.3m/s | -52.5°C | 3.5% | 78.1hPa | 2.5V | 03:13:07 | 02:09:00 | 00:00:00 | |
| BIOWL1-15 | 2026-09-01 06:40:25 | 49.74332 | 8.47693 | 68° | 24km/h | 18105m | -26.6m/s | -52°C | 0% | 78.8hPa | 2.6V | 03:13:46 | 02:09:02 | 00:00:00 | |
| DL1XH-west | 2026-09-01 06:40:22 | 49.74329 | 8.47685 | 60° | 24km/h | 18131m | -26.3m/s | -52.2°C | 0% | 78.4hPa | 2.5V | 03:13:46 | 02:09:01 | 00:00:00 | |
| HSKMA3-T | 2026-09-01 06:40:20 | 49.74323 | 8.47667 | 70° | 27km/h | 18183m | -26.2m/s | -52.7°C | 0% | 77.8hPa | 2.5V | 03:13:46 | 02:08:59 | 00:00:00 | |
| DL1NUX | 2026-09-01 06:40:19 | 49.74308 | 8.47605 | 75° | 31km/h | 18340m | -26.7m/s | -53.9°C | 3.9% | 75.9hPa | 2.5V | 03:13:14 | 02:08:53 | 00:00:00 | |
| DO3MHA-11 | 2026-09-01 06:40:18 | 49.74318 | 8.47648 | 71° | 33km/h | 18236m | -26.2m/s | -53.0°C | 3.7% | 77.1hPa | 2.6V | 00:00:00 | 02:08:57 | 00:00:00 | |
| DM0DOS-11 | 2026-09-01 06:40:16 | 49.74300 | 8.47567 | 76° | 38km/h | 18418m | -26.4m/s | -54.6°C | 4.2% | 75hPa | 2.5V | 03:13:17 | 02:08:50 | 00:00:00 | |
| DL1XH-west | 2026-09-01 06:40:12 | 49.74302 | 8.47581 | 75° | 35km/h | 18392m | -26.5m/s | -54.3°C | 0.2% | 75.2hPa | 2.6V | 03:13:46 | 02:08:51 | 00:00:00 | |
| DK5PH-5 | 2026-09-01 06:40:11 | 49.74300 | 8.47567 | 77° | 31km/h | 18418m | -26.3m/s | -54.5°C | 4.2% | 74.9hPa | 2.6V | 00:00:00 | 02:08:50 | 00:00:00 | |
| AM1SDL-15 | 2026-09-01 06:40:09 | 49.74294 | 8.47536 | 75° | 40km/h | 18470m | -26.3m/s | -54.9°C | 4.3% | 74.3hPa | 2.6V | 00:00:00 | 02:08:48 | 00:00:00 | |
| DO3MHA-11 | 2026-09-01 06:40:08 | 49.74292 | 8.47520 | 80° | 42km/h | 18496m | -26.3m/s | -55.0°C | 4.4% | 74.0hPa | 2.6V | 00:00:00 | 02:08:47 | 00:00:00 | |
| DD1CC8 | 2026-09-01 06:40:07 | 49.74289 | 8.47503 | 78° | 46km/h | 18522m | -26.6m/s | -55.1°C | 1.1% | 73.7hPa | 2.6V | 00:00:00 | 00:00:00 | 00:00:00 | |
| DM0DOS-11 | 2026-09-01 06:40:06 | 49.74282 | 8.47404 | 86° | 40km/h | 18683m | -27.7m/s | -53.4°C | 4% | 71.9hPa | 2.6V | 03:13:27 | 02:08:40 | 00:00:00 | |
| DL9PN | 2026-09-01 06:40:06 | 49.74282 | 8.47419 | 89° | 38km/h | 18656m | -27.2m/s | -53.4°C | 0.9% | 72.2hPa | 2.6V | 00:00:00 | 00:00:00 | 00:00:00 | |
| DL1NUX | 2026-09-01 06:40:05 | 49.74281 | 8.47389 | 86° | 35km/h | 18710m | -27.8m/s | -53.3°C | 3.9% | 71.6hPa | 2.6V | 03:13:28 | 02:08:39 | 00:00:00 | |
| SO1NDE-10 | 2026-09-01 06:40:05 | 49.74286 | 8.47469 | 86° | 18km/h | 18575m | -27.0m/s | -54.9°C | 4.5% | 73.1hPa | 2.5V | 00:00:00 | 02:08:44 | 00:00:00 | |
| DL3AQ-11 | 2026-09-01 06:40:04 | 49.74280 | 8.47349 | 90° | 29km/h | 18793m | -28.1m/s | -52.9°C | 0.9% | 70.7hPa | 2.5V | 00:00:00 | 00:00:00 | 00:00:00 | |
| DL1XH1-15 | 2026-09-01 06:40:02 | 49.74280 | 8.47348 | 90° | 31km/h | 18793m | -28.1m/s | -52.9°C | 3.7% | 70.7hPa | 2.5V | 03:13:31 | 02:08:36 | 00:00:00 | |
| BIOWL1-15 | 2026-09-01 06:40:01 | 49.74282 | 8.47404 | 86° | 40km/h | 18683m | -27.7m/s | -53.4°C | 0.1% | 71.9hPa | 2.6V | 03:13:46 | 02:08:40 | 00:00:00 | |
| HSKMA3-T | 2026-09-01 06:39:57 | 49.74280 | 8.47349 | 90° | 31km/h | 18793m | -28.1m/s | -52.9°C | 0% | 70.7hPa | 2.5V | 03:13:46 | 02:08:36 | 00:00:00 | |
| SONCRA | 2026-09-01 06:39:55 | 49.74281 | 8.47324 | 96° | 31km/h | 18849m | -28.1m/s | -52.9°C | 0.9% | 70.2hPa | 2.6V | 00:00:00 | 00:00:00 | 00:00:00 | |
| DL8DAS-14 | 2026-09-01 06:39:53 | 49.74286 | 8.47292 | 109° | 27km/h | 18931m | -27.5m/s | -52.3°C | 0.8% | 69.2hPa | 2.6V | 00:00:00 | 00:00:00 | 00:00:00 | |
| DL1XH1-15 | 2026-09-01 06:39:52 | 49.74297 | 8.47250 | 111° | 16km/h | 19069m | -27.9m/s | -51.6°C | 3.3% | 67.8hPa | 2.6V | 03:13:41 | 02:08:26 | 00:00:00 | |
| DL1XH-west | 2026-09-01 06:39:51 | 49.74288 | 8.47282 | 112° | 24km/h | 18959m | -27.7m/s | -52.1°C | 0% | 69hPa | 2.6V | 03:13:46 | 02:08:30 | 00:00:00 | |
| BIOWL1-15 | 2026-09-01 06:39:50 | 49.74290 | 8.47274 | 117° | 24km/h | 18986m | -27.6m/s | -51.9°C | 0% | 68.6hPa | 2.5V | 03:13:46 | 02:08:29 | 00:00:00 | |
| HSKMA3-T | 2026-09-01 06:39:47 | 49.74297 | 8.47250 | 112° | 16km/h | 19069m | -27.9m/s | -51.7°C | 0% | 67.8hPa | 2.6V | 03:13:46 | 02:08:26 | 00:00:00 | |
| DM0DOS-11 | 2026-09-01 06:39:46 | 49.74300 | 8.47210 | 89° | 18km/h | 19234m | -28m/s | -52.7°C | 3.6% | 66.1hPa | 2.6V | 03:13:47 | 02:08:20 | 00:00:00 | |
| AM1SDL-15 | 2026-09-01 06:39:44 | 49.74299 | 8.47231 | 97° | 18km/h | 19152m | -27.8m/s | -52.0°C | 3.4% | 66.9hPa | 2.5V | 00:00:00 | 02:08:23 | 00:00:00 | |
| DB0UT-7 | 2026-09-01 06:39:43 | 49.74300 | 8.47225 | 95° | 15km/h | 19179m | -28.1m/s | -52.1°C | 3.4% | 66.6hPa | 2.5V | 00:00:00 | 00:00:00 | 00:00:00 | |
| DL1XH1-15 | 2026-09-01 06:39:42 | 49.74300 | 8.47179 | 97° | 22km/h | 19347m | -28m/s | -53.3°C | 3.9% | 64.9hPa | 2.5V | 03:13:51 | 02:08:16 | 00:00:00 | |
| DL1XH-west | 2026-09-01 06:39:40 | 49.74299 | 8.47202 | 93° | 22km/h | 19262m | -28.2m/s | -52.9°C | 0% | 65.8hPa | 2.6V | 03:14:37 | 02:08:19 | 00:00:00 | |
| BIOWL1-15 | 2026-09-01 06:39:39 | 49.74299 | 8.47194 | 88° | 18km/h | 19290m | -28.6m/s | -53.1°C | 0% | 65.5hPa | 2.6V | 03:14:37 | 02:08:18 | 00:00:00 | |
| DM3KS-11 | 2026-09-01 06:39:38 | 49.74300 | 8.47187 | 98° | 18km/h | 19319m | -28.4m/s | -53.3°C | 0.9% | 65.3hPa | 2.6V | 00:00:00 | 00:00:00 | 00:00:00 | |
| DB0UT-9 | 2026-09-01 06:39:37 | 49.74299 | 8.47187 | 99° | 20km/h | 19319m | -28.4m/s | -53.3°C | 1.0% | 65.3hPa | 2.6V | 03:14:00 | 00:00:00 | 00:00:00 | |
| DM0DOS-11 | 2026-09-01 06:39:36 | 49.74306 | 8.47137 | 110° | 16km/h | 19516m | -28.4m/s | -53.1°C | 3.8% | 63.3hPa | 2.6V | 03:13:57 | 02:08:10 | 00:00:00 | |
| HSKMA3-T | 2026-09-01 06:39:35 | 49.74302 | 8.47164 | 105° | 20km/h | 19403m | -28.5m/s | -53.3°C | 0% | 64.4hPa | 2.6V | 03:15:28 | 02:08:14 | 00:00:00 | |
| DJ2DS-15 | 2026-09-01 06:39:34 | 49.74303 | 8.47156 | 106° | 13km/h | 19432m | -28.7m/s | -53.2°C | 3.8% | 64.0hPa | 2.6V | 03:13:00 | 02:08:13 | 00:00:00 | |
| DF1GD-15 | 2026-09-01 06:39:33 | 49.74303 | 8.47156 | 106° | 20km/h | 19432m | -28.7m/s | -53.2°C | 0.9% | 64.1hPa | 2.5V | 03:14:00 | 00:00:00 | 00:00:00 | |
| DL1XH1-15 | 2026-09-01 06:39:32 | 49.74310 | 8.47118 | 103° | 11km/h | 19631m | -29.6m/s | -52.7°C | 3.7% | 62.1hPa | 2.5V | 03:14:01 | 02:08:06 | 00:00:00 | |
| DL1XH-west | 2026-09-01 06:39:29 | 49.74308 | 8.47127 | 113° | 13km/h | 19573m | -28.7m/s | -53°C | 0% | 62.7hPa | 2.5V | 03:14:37 | 02:08:08 | 00:00:00 | |
| DF3TZ-5 | 2026-09-01 06:39:29 | 49.74309 | 8.47123 | 103° | 13km/h | 19602m | -29.1m/s | -52.9°C | 0.8% | 62.5hPa | 2.5V | 00:00:00 | 00:00:00 | 00:00:00 | |
| DD1CC2-15 | 2026-09-01 06:39:27 | 49.74309 | 8.47123 | 104° | 13km/h | 19602m | -29.1m/s | -52.9°C | 0.9% | 62.5hPa | 2.5V | 03:14:00 | 00:00:00 | 00:00:00 | |
| DM0DOS-11 | 2026-09-01 06:39:26 | 49.74309 | 8.47092 | 49° | 9km/h | 19805m | -29.1m/s | -53.5°C | 4% | 60.5hPa | 2.5V | 03:14:07 | 02:08:00 | 00:00:00 | |
| HSKMA3-T | 2026-09-01 06:39:24 | 49.74311 | 8.47104 | 82° | 11km/h | 19718m | -29.4m/s | -53.2°C | 0% | 61.3hPa | 2.6V | 03:15:28 | 02:08:03 | 00:00:00 | |
| DL3AQ-11 | 2026-09-01 06:39:23 | 49.74310 | 8.47095 | 73° | 11km/h | 19776m | -29.2m/s | -53.6°C | 0.9% | 60.8hPa | 2.5V | 00:00:00 | 00:00:00 | 00:00:00 | |
| DL1XH1-15 | 2026-09-01 06:39:22 | 49.74301 | 8.47084 | 23° | 11km/h | 19920m | -29.3m/s | -52.5°C | 3.8% | 59.4hPa | 2.5V | 03:14:11 | 02:07:56 | 00:00:00 | |
| DL1XH-west | 2026-09-01 06:39:19 | 49.74306 | 8.47087 | 40° | 9km/h | 19862m | -29.4m/s | -52.9°C | 0% | 60hPa | 2.6V | 03:14:37 | 02:07:58 | 00:00:00 | |
| BIOWL9-15 | 2026-09-01 06:39:19 | 49.74304 | 8.47085 | 11° | 9km/h | 19891m | -29.4m/s | -52.8°C | 0.9% | 59.7hPa | 2.5V | 00:00:00 | 00:00:00 | 00:00:00 | |
| NBG1-10 | 2026-09-01 06:39:18 | 49.74304 | 8.47085 | 12° | 13km/h | 19892m | -29.4m/s | -52.8°C | 3.9% | 59.6hPa | 2.5V | 00:00:00 | 02:07:57 | 00:00:00 | |
| DB0ND-19 | 2026-09-01 06:39:17 | 49.74301 | 8.47084 | 23° | 9km/h | 19921m | -29.3m/s | -52.5°C | 0.9% | 59.4hPa | 2.5V | 00:00:00 | 00:00:00 | 00:00:00 | |
| DM0DOS-11 | 2026-09-01 06:39:16 | 49.74279 | 8.47074 | 26° | 18km/h | 20099m | -29.9m/s | -52.5°C | 3.7% | 57.8hPa | 2.5V | 03:14:17 | 02:07:50 | 00:00:00 | |
| HSKMA3-T | 2026-09-01 06:39:13 | 49.74287 | 8.47078 | 17° | 16km/h | 20039m | -31m/s | -52.3°C | 0% | 58.3hPa | 2.6V | 03:15:28 | 02:07:52 | 00:00:00 | |
| DB0UT-7 | 2026-09-01 06:39:13 | 49.74287 | 8.47078 | 17° | 13km/h | 20040m | -30.9m/s | -52.3°C | 3.6% | 58.3hPa | 2.5V | 03:14:00 | 02:07:52 | 00:00:00 | |
| DL1XH1-15 | 2026-09-01 06:39:12 | 49.74261 | 8.47060 | 38° | 18km/h | 20219m | -30.9m/s | -52.8°C | 3.8% | 56.7hPa | 2.5V | 03:14:21 | 02:07:46 | 00:00:00 | |
| DL1XH-west | 2026-09-01 06:39:08 | 49.74265 | 8.47064 | 40° | 18km/h | 20189m | -30.2m/s | -52.9°C | 0.1% | 57hPa | 2.5V | 03:14:37 | 02:07:47 | 00:00:00 | |
| DM3KS-11 | 2026-09-01 06:39:07 | 49.74261 | 8.47060 | 38° | 16km/h | 20219m | -30.9m/s | -52.8°C | 0.9% | 56.7hPa | 2.5V | 00:00:00 | 00:00:00 | 00:00:00 | |
| DM0DOS-11 | 2026-09-01 06:39:06 | 49.74252 | 8.47030 | 81° | 13km/h | 20401m | -30.4m/s | -52.3°C | 3.7% | 55.2hPa | 2.5V | 03:14:27 | 02:07:40 | 00:00:00 | |
| HSKMA3-T | 2026-09-01 06:39:03 | 49.74252 | 8.47041 | 72° | 13km/h | 20341m | -30.3m/s | -52.3°C | 0% | 55.7hPa | 2.6V | 03:15:28 | 02:07:42 | 00:00:00 | |
| HTAHTA | 2026-09-01 06:39:03 | 49.74252 | 8.47030 | 81° | 13km/h | 20401m | -30.4m/s | 0°C | -1.0% | -1.0hPa | 2.6V | 00:00:00 | 00:00:00 | 00:00:00 | |
| DL1XH1-15 | 2026-09-01 06:39:02 | 49.74249 | 8.47013 | 61° | 9km/h | 20522m | -30.9m/s | -51.8°C | 3.5% | 54.2hPa | 2.6V | 03:14:31 | 02:07:36 | 00:00:00 | |
| BIOWL1-15 | 2026-09-01 06:38:57 | 49.74249 | 8.47013 | 61° | 9km/h | 20522m | -30.9m/s | -51.8°C | 0% | 54.2hPa | 2.6V | 03:14:37 | 02:07:36 | 00:00:00 | |
| SONCRA | 2026-09-01 06:38:53 | 49.74242 | 8.47004 | 31° | 7km/h | 20644m | -30.7m/s | -51.8°C | 0.8% | 53.1hPa | 2.6V | 00:00:00 | 00:00:00 | 00:00:00 | |
| DL1XH1-15 | 2026-09-01 06:38:52 | 49.74229 | 8.46998 | 37° | 11km/h | 20829m | -32.1m/s | -51.7°C | 3.5% | 51.6hPa | 2.6V | 03:14:41 | 02:07:26 | 00:00:00 | |
| BIOWL1-15 | 2026-09-01 06:38:47 | 49.74229 | 8.46998 | 38° | 11km/h | 20829m | -32.1m/s | -51.7°C | 0% | 51.6hPa | 2.6V | 03:15:28 | 02:07:26 | 00:00:00 | |
| DL1XH-west | 2026-09-01 06:38:46 | 49.74226 | 8.46996 | 19° | 11km/h | 20861m | -31.6m/s | -51.7°C | 0% | 51.5hPa | 2.6V | 03:15:28 | 02:07:25 | 00:00:00 | |
| NBG1-10 | 2026-09-01 06:38:45 | 49.74224 | 8.46994 | 44° | 16km/h | 20893m | -31.6m/s | -51.7°C | 3.5% | 51.1hPa | 2.5V | 00:00:00 | 02:07:24 | 00:00:00 | |
| DL3AQ-11 | 2026-09-01 06:38:43 | 49.74203 | 8.46973 | 43° | 18km/h | 21085m | -32.9m/s | -51.2°C | 0.7% | 49.7hPa | 2.5V | 00:00:00 | 00:00:00 | 00:00:00 | |
| DL1XH1-15 | 2026-09-01 06:38:42 | 49.74195 | 8.46963 | 38° | 20km/h | 21149m | -32.7m/s | -51.4°C | 3.4% | 49.2hPa | 2.5V | 03:14:51 | 02:07:16 | 00:00:00 | |
| BIOWL1-15 | 2026-09-01 06:38:37 | 49.74195 | 8.46963 | 39° | 20km/h | 21149m | -32.7m/s | -51.4°C | 0% | 49.2hPa | 2.5V | 03:15:28 | 02:07:16 | 00:00:00 | |
| DL1XH-west | 2026-09-01 06:38:36 | 49.74191 | 8.46958 | 50° | 20km/h | 21181m | -32.8m/s | -51.5°C | 0% | 48.9hPa | 2.5V | 03:15:28 | 02:07:15 | 00:00:00 | |
| HSKMA3-T | 2026-09-01 06:38:35 | 49.74187 | 8.46952 | 47° | 20km/h | 21214m | -33.4m/s | -51.7°C | 0% | 48.7hPa | 2.5V | 03:15:28 | 02:07:14 | 00:00:00 | |
| DJ2DS-15 | 2026-09-01 06:38:34 | 49.74184 | 8.46947 | 47° | 13km/h | 21247m | -32.5m/s | -51.7°C | 3.5% | 48.4hPa | 2.6V | 00:00:00 | 02:07:13 | 00:00:00 | |
| DL9PN | 2026-09-01 06:38:33 | 49.74179 | 8.46936 | 57° | 13km/h | 21312m | -33.0m/s | -51.7°C | 0.7% | 48.0hPa | 2.6V | 00:00:00 | 00:00:00 | 00:00:00 | |
| DL1XH1-15 | 2026-09-01 06:38:32 | 49.74180 | 8.46920 | 136° | 13km/h | 21477m | -33.6m/s | -51.3°C | 3.4% | 46.7hPa | 2.6V | 03:15:01 | 02:07:06 | 00:00:00 | |
| DO3MHA-11 | 2026-09-01 06:38:32 | 49.74179 | 8.46936 | 58° | 11km/h | 21312m | -33.0m/s | -51.6°C | 3.5% | 47.9hPa | 2.6V | 03:14:00 | 02:07:11 | 00:00:00 | |
| DL8DAS-15 | 2026-09-01 06:38:31 | 49.74179 | 8.46936 | 58° | 13km/h | 21312m | -33.0m/s | -51.7°C | 0.8% | 48.0hPa | 2.6V | 03:15:00 | 00:00:00 | 00:00:00 | |
| DF1GD-15 | 2026-09-01 06:38:30 | 49.74178 | 8.46932 | 75° | 9km/h | 21345m | -32.7m/s | -51.7°C | 0.8% | 47.7hPa | 2.6V | 03:15:00 | 00:00:00 | 00:00:00 | |
| DL0LBS | 2026-09-01 06:38:29 | 49.74177 | 8.46925 | 103° | 5km/h | 21410m | -33.7m/s | -51.6°C | 0.8% | 47.3hPa | 2.6V | 03:15:00 | 00:00:00 | 00:00:00 | |
| SFWM-10 | 2026-09-01 06:38:27 | 49.74178 | 8.46922 | 133° | 7km/h | 21444m | -33.4m/s | -51.3°C | 0.7% | 47.0hPa | 2.6V | 00:00:00 | 00:00:00 | 00:00:00 | |
| DM0DOS-11 | 2026-09-01 06:38:26 | 49.74198 | 8.46910 | 178° | 16km/h | 21676m | -33.2m/s | -51.6°C | 3.4% | 45.3hPa | 2.6V | 03:15:07 | 02:07:00 | 00:00:00 | |
| BIOWL1-15 | 2026-09-01 06:38:26 | 49.74182 | 8.46917 | 144° | 11km/h | 21511m | -33.7m/s | -51.4°C | 0% | 46.5hPa | 2.6V | 03:15:28 | 02:07:05 | 00:00:00 | |
| DL1XH-west | 2026-09-01 06:38:25 | 49.74184 | 8.46915 | 161° | 13km/h | 21544m | -33.3m/s | -51.4°C | 0% | 46.2hPa | 2.5V | 03:15:28 | 02:07:04 | 00:00:00 | |
| DJTTGO | 2026-09-01 06:38:23 | 49.74187 | 8.46913 | 160° | 16km/h | 21577m | -33.6m/s | -51.4°C | 0.7% | 46.1hPa | 2.6V | 00:00:00 | 00:00:00 | 00:00:00 | |
| DL1XH1-15 | 2026-09-01 06:38:22 | 49.74212 | 8.46916 | 215° | 13km/h | 21808m | -34m/s | -51.4°C | 3.4% | 44.4hPa | 2.6V | 03:15:11 | 02:06:56 | 00:00:00 | |
| DO3MHA-11 | 2026-09-01 06:38:22 | 49.74194 | 8.46910 | 180° | 13km/h | 21643m | -33.1m/s | -51.5°C | 3.4% | 45.5hPa | 2.5V | 00:00:00 | 02:07:01 | 00:00:00 | |
| DL8DAS-15 | 2026-09-01 06:38:21 | 49.74194 | 8.46910 | 180° | 16km/h | 21643m | -33.1m/s | -51.6°C | 0.8% | 45.5hPa | 2.5V | 03:15:00 | 00:00:00 | 00:00:00 | |
| DO3DL | 2026-09-01 06:38:19 | 49.74202 | 8.46910 | 192° | 15km/h | 21709m | -33.5m/s | -51.4°C | 0.7% | 45.2hPa | 2.5V | 00:00:00 | 00:00:00 | 00:00:00 | |
| HEMX73-11 | 2026-09-01 06:38:18 | 49.74205 | 8.46912 | 202° | 15km/h | 21742m | -33.1m/s | -51.4°C | 0.7% | 44.9hPa | 2.5V | 03:15:00 | 00:00:00 | 00:00:00 | |
| DM7RM-13 | 2026-09-01 06:38:17 | 49.74209 | 8.46914 | 200° | 15km/h | 21775m | -33.1m/s | -51.5°C | 0.8% | 44.7hPa | 2.5V | 03:15:00 | 00:00:00 | 00:00:00 | |
| DM0DOS-11 | 2026-09-01 06:38:16 | 49.74221 | 8.46928 | 211° | 4km/h | 22009m | -34.8m/s | -51.6°C | 3.4% | 43.1hPa | 2.5V | 03:15:17 | 02:06:50 | 00:00:00 | |
| BIOWL1-15 | 2026-09-01 06:38:15 | 49.74216 | 8.46922 | 208° | 9km/h | 21874m | -33.8m/s | -51.3°C | 0% | 44hPa | 2.5V | 03:15:28 | 02:06:54 | 00:00:00 | |
| DL1XH-west | 2026-09-01 06:38:14 | 49.74218 | 8.46924 | 229° | 7km/h | 21908m | -34.5m/s | -51.4°C | 0% | 43.7hPa | 2.6V | 03:15:28 | 02:06:53 | 00:00:00 | |
| DJ2DS-15 | 2026-09-01 06:38:14 | 49.74218 | 8.46924 | 229° | 9km/h | 21908m | -34.4m/s | -51.3°C | 3.3% | 43.7hPa | 2.6V | 03:15:00 | 02:06:53 | 00:00:00 | |
| AM1SDL-15 | 2026-09-01 06:38:13 | 49.74219 | 8.46926 | 215° | 7km/h | 21942m | -34.0m/s | -51.3°C | 3.4% | 43.5hPa | 2.6V | 00:00:00 | 02:06:52 | 00:00:00 | |
| DL1XH1-15 | 2026-09-01 06:38:12 | 49.74223 | 8.46924 | 134° | 9km/h | 22143m | -34m/s | -52.3°C | 3.7% | 42.2hPa | 2.6V | 03:15:21 | 02:06:46 | 00:00:00 | |
| NBG1-10 | 2026-09-01 06:38:12 | 49.74220 | 8.46927 | 182° | 11km/h | 21975m | -34.2m/s | -51.4°C | 3.4% | 43.2hPa | 2.5V | 00:00:00 | 02:06:51 | 00:00:00 | |
| BIOWL7-15 | 2026-09-01 06:38:11 | 49.74221 | 8.46927 | 213° | 4km/h | 22009m | -34.8m/s | -51.6°C | 0.7% | 43.1hPa | 2.5V | 00:00:00 | 00:00:00 | 00:00:00 | |
| DF1GD-15 | 2026-09-01 06:38:10 | 49.74221 | 8.46927 | 213° | 4km/h | 22009m | -34.8m/s | -51.6°C | 0.8% | 43.1hPa | 2.5V | 03:15:00 | 00:00:00 | 00:00:00 | |
| DL1XH-15 | 2026-09-01 06:38:09 | 49.74228 | 8.46916 | 142° | 13km/h | 22246m | -34.2m/s | -52.6°C | 3.7% | 41.5hPa | 2.5V | 03:15:24 | 02:06:43 | 00:00:00 | |
| DL0LBS | 2026-09-01 06:38:08 | 49.74222 | 8.46927 | 120° | 4km/h | 22076m | -34.0m/s | -51.9°C | 0.8% | 42.6hPa | 2.6V | 03:15:00 | 00:00:00 | 00:00:00 | |
| DF2AP-13 | 2026-09-01 06:38:07 | 49.74223 | 8.46924 | 135° | 13km/h | 22144m | -33.9m/s | -52.3°C | 3.7% | 42.2hPa | 2.6V | 00:00:00 | 02:06:46 | 00:00:00 | |
| DM0DOS-11 | 2026-09-01 06:38:06 | 49.74234 | 8.46908 | 149° | 15km/h | 22348m | -33.9m/s | -52.6°C | 3.8% | 40.9hPa | 2.6V | 03:15:27 | 02:06:40 | 00:00:00 | |
| BIOWL1-15 | 2026-09-01 06:38:04 | 49.74227 | 8.46916 | 143° | 13km/h | 22246m | -34.2m/s | -52.6°C | 0% | 41.5hPa | 2.5V | 03:15:28 | 02:06:43 | 00:00:00 | |
| DL1XH-west | 2026-09-01 06:38:03 | 49.74230 | 8.46912 | 137° | 13km/h | 22280m | -34.8m/s | -52.6°C | 0% | 41.3hPa | 2.6V | 03:15:28 | 02:06:42 | 00:00:00 | |
| HSKMA3-T | 2026-09-01 06:38:00 | 49.74237 | 8.46905 | 152° | 13km/h | 22382m | -35m/s | -52.5°C | 0% | 40.7hPa | 2.5V | 03:15:28 | 02:06:39 | 00:00:00 | |
| DL1XH-15 | 2026-09-01 06:37:59 | 49.74255 | 8.46899 | 224° | 9km/h | 22588m | -35.4m/s | -52.1°C | 3.6% | 39.4hPa | 2.5V | 03:15:34 | 02:06:33 | 00:00:00 | |
| DM7RM-13 | 2026-09-01 06:37:57 | 49.74244 | 8.46901 | 160° | 16km/h | 22451m | -34.3m/s | -52.1°C | 0.8% | 40.2hPa | 2.6V | 03:16:00 | 00:00:00 | 00:00:00 | |
| DM0DOS-11 | 2026-09-01 06:37:56 | 49.74257 | 8.46911 | 266° | 15km/h | 22689m | -33m/s | -51.8°C | 3.5% | 38.8hPa | 2.6V | 03:15:37 | 02:06:30 | 00:00:00 | |
| BIOWL1-15 | 2026-09-01 06:37:55 | 49.74256 | 8.46902 | 238° | 9km/h | 22622m | -35m/s | -52°C | 0% | 39.1hPa | 2.5V | 03:16:19 | 02:06:32 | 00:00:00 | |
| DL1XH-west | 2026-09-01 06:37:52 | 49.74257 | 8.46906 | 259° | 13km/h | 22656m | -34.4m/s | -51.9°C | 0% | 38.9hPa | 2.5V | 03:16:19 | 02:06:31 | 00:00:00 | |
| HSKMA3-T | 2026-09-01 06:37:50 | 49.74257 | 8.46917 | 271° | 16km/h | 22722m | -31.9m/s | -51.8°C | 0% | 38.5hPa | 2.6V | 03:16:19 | 02:06:29 | 00:00:00 | |
| DJ2DS-15 | 2026-09-01 06:37:50 | 49.74257 | 8.46923 | 278° | 16km/h | 22754m | -33.5m/s | -51.8°C | 0.7% | 38.3hPa | 2.5V | 00:00:00 | 00:00:00 | 00:00:00 | |
| DL8DAS-14 | 2026-09-01 06:37:49 | 49.74255 | 8.46930 | 283° | 18km/h | 22787m | -32.9m/s | -52.0°C | 0.8% | 38.1hPa | 2.5V | 00:00:00 | 00:00:00 | 00:00:00 | |
| DL1XH-15 | 2026-09-01 06:37:48 | 49.74245 | 8.46955 | 326° | 13km/h | 22944m | -30.2m/s | -51.3°C | 3.4% | 37.2hPa | 2.5V | 03:15:45 | 02:06:22 | 00:00:00 | |
| DH7VM-15 | 2026-09-01 06:37:47 | 49.74255 | 8.46930 | 285° | 18km/h | 22787m | -32.9m/s | -52.0°C | 0.8% | 38.2hPa | 2.6V | 00:00:00 | 00:00:00 | 00:00:00 | |
| DM0DOS-11 | 2026-09-01 06:37:46 | 49.74239 | 8.46958 | 347° | 13km/h | 23006m | -31.9m/s | -51.1°C | 3.4% | 36.9hPa | 2.6V | 03:15:47 | 02:06:20 | 00:00:00 | |
| DL1ZP-14 | 2026-09-01 06:37:45 | 49.74250 | 8.46947 | 303° | 18km/h | 22883m | -31.1m/s | -51.7°C | 0.7% | 37.6hPa | 2.6V | 00:00:00 | 00:00:00 | 00:00:00 | |
| DB0ND-19 | 2026-09-01 06:37:44 | 49.74248 | 8.46952 | 315° | 11km/h | 22913m | -31.6m/s | -51.4°C | 0.7% | 37.4hPa | 2.5V | 00:00:00 | 00:00:00 | 00:00:00 | |
| BIOWL1-15 | 2026-09-01 06:37:42 | 49.74242 | 8.46957 | 339° | 13km/h | 22975m | -30.9m/s | -51.2°C | 0% | 37hPa | 2.5V | 03:16:19 | 02:06:21 | 00:00:00 | |
| DL1XH-west | 2026-09-01 06:37:41 | 49.74239 | 8.46958 | 347° | 13km/h | 23006m | -31.9m/s | -51.1°C | 0% | 36.9hPa | 2.6V | 03:16:19 | 02:06:20 | 00:00:00 | |
| HSKMA3-T | 2026-09-01 06:37:39 | 49.74233 | 8.46957 | 8° | 9km/h | 23072m | -34.2m/s | -51.3°C | 0% | 36.5hPa | 2.5V | 03:16:19 | 02:06:18 | 00:00:00 | |
| NBG1-10 | 2026-09-01 06:37:39 | 49.74233 | 8.46957 | 9° | 15km/h | 23072m | -34.1m/s | -51.2°C | 3.4% | 36.4hPa | 2.6V | 03:15:00 | 02:06:18 | 00:00:00 | |
| DL1XH-15 | 2026-09-01 06:37:38 | 49.74223 | 8.46953 | 318° | 7km/h | 23267m | -32.7m/s | -51.9°C | 3.7% | 35.5hPa | 2.6V | 03:15:55 | 02:06:12 | 00:00:00 | |
| EDDB2-12 | 2026-09-01 06:37:38 | 49.74231 | 8.46956 | 9° | 7km/h | 23106m | -33.9m/s | -51.5°C | 0.7% | 36.4hPa | 2.6V | 00:00:00 | 00:00:00 | 00:00:00 | |
| DF2AP-13 | 2026-09-01 06:37:37 | 49.74229 | 8.46955 | 24° | 15km/h | 23138m | -32.0m/s | -51.6°C | 3.6% | 36.1hPa | 2.6V | 00:00:00 | 02:06:16 | 00:00:00 | |
| DM0DOS-11 | 2026-09-01 06:37:36 | 49.74220 | 8.46957 | 324° | 9km/h | 23329m | -30.8m/s | -52°C | 3.8% | 35.1hPa | 2.5V | 03:15:57 | 02:06:10 | 00:00:00 | |
| BIOWL1-15 | 2026-09-01 06:37:33 | 49.74220 | 8.46957 | 324° | 9km/h | 23329m | -30.8m/s | -52°C | 0% | 35.1hPa | 2.5V | 03:16:19 | 02:06:10 | 00:00:00 | |
| DL1XH1-15 | 2026-09-01 06:37:32 | 49.74208 | 8.46966 | 346° | 13km/h | 23455m | -33.4m/s | -52°C | 3.8% | 34.4hPa | 2.6V | 03:16:01 | 02:06:06 | 00:00:00 | |
| DL1XH-west | 2026-09-01 06:37:30 | 49.74218 | 8.46959 | 327° | 13km/h | 23359m | -31.7m/s | -52°C | 0% | 34.9hPa | 2.5V | 03:16:19 | 02:06:09 | 00:00:00 | |
| HSKMA3-T | 2026-09-01 06:37:28 | 49.74212 | 8.46964 | 337° | 16km/h | 23422m | -32.9m/s | -52°C | 0% | 34.6hPa | 2.6V | 03:16:19 | 02:06:07 | 00:00:00 | |
| DM0DOS-11 | 2026-09-01 06:37:25 | 49.74186 | 8.46955 | 30° | 16km/h | 23705m | -37.4m/s | -50.6°C | 3.3% | 33.1hPa | 2.6V | 03:16:08 | 02:05:59 | 00:00:00 | |
| KANTATE | 2026-09-01 06:37:23 | 49.74197 | 8.46966 | 22° | 13km/h | 23560m | -35.2m/s | -51.3°C | 0.7% | 33.9hPa | 2.6V | 00:00:00 | 00:00:00 | 00:00:00 | |
| DL1XH1-15 | 2026-09-01 06:37:22 | 49.74176 | 8.46943 | 33° | 16km/h | 23818m | -38m/s | -50.6°C | 3.3% | 32.6hPa | 2.6V | 03:16:11 | 02:05:56 | 00:00:00 | |
| BIOWL1-15 | 2026-09-01 06:37:21 | 49.74189 | 8.46959 | 38° | 15km/h | 23669m | -37m/s | -50.6°C | 0% | 33.3hPa | 2.6V | 03:16:19 | 02:06:00 | 00:00:00 | |
| DL1XH-west | 2026-09-01 06:37:20 | 49.74185 | 8.46955 | 30° | 16km/h | 23705m | -37.4m/s | -50.6°C | 0% | 33.1hPa | 2.6V | 03:16:19 | 02:05:59 | 00:00:00 | |
| HSKMA3-T | 2026-09-01 06:37:18 | 49.74179 | 8.46947 | 39° | 16km/h | 23780m | -39.2m/s | -50.5°C | 0% | 32.8hPa | 2.5V | 03:16:19 | 02:05:57 | 00:00:00 | |
| DL8DAS-14 | 2026-09-01 06:37:17 | 49.74176 | 8.46943 | 33° | 16km/h | 23818m | -38.0m/s | -50.6°C | 0.7% | 32.6hPa | 2.5V | 00:00:00 | 00:00:00 | 00:00:00 | |
| DM7RM-13 | 2026-09-01 06:37:16 | 49.74175 | 8.46943 | 35° | 16km/h | 23818m | -38.0m/s | -50.6°C | 0.7% | 32.6hPa | 2.5V | 03:16:00 | 00:00:00 | 00:00:00 | |
| DJ2DS-15 | 2026-09-01 06:37:14 | 49.74165 | 8.46932 | 33° | 13km/h | 23930m | -36.7m/s | -50.8°C | 3.4% | 32.0hPa | 2.5V | 00:00:00 | 02:05:53 | 00:00:00 | |
| DB0ND-19 | 2026-09-01 06:37:13 | 49.74161 | 8.46928 | 37° | 20km/h | 23966m | -37.3m/s | -50.9°C | 0.7% | 31.9hPa | 2.5V | 00:00:00 | 00:00:00 | 00:00:00 | |
| DL1XH1-15 | 2026-09-01 06:37:12 | 49.74138 | 8.46903 | 52° | 15km/h | 24190m | -38.3m/s | -50.9°C | 3.4% | 30.8hPa | 2.5V | 03:16:21 | 02:05:46 | 00:00:00 | |
| DL1XH-west | 2026-09-01 06:37:10 | 49.74148 | 8.46915 | 27° | 18km/h | 24076m | -37.4m/s | -50.9°C | 0% | 31.3hPa | 2.6V | 03:16:19 | 02:05:49 | 00:00:00 | |
| HSKMA3-T | 2026-09-01 06:37:07 | 49.74138 | 8.46903 | 52° | 15km/h | 24190m | -38.3m/s | -50.9°C | 0% | 30.8hPa | 2.5V | 03:17:10 | 02:05:46 | 00:00:00 | |
| EDDB2-12 | 2026-09-01 06:37:07 | 49.74136 | 8.46899 | 60° | 15km/h | 24228m | -38.8m/s | -50.7°C | 0.7% | 30.6hPa | 2.5V | 00:00:00 | 00:00:00 | 00:00:00 | |
| DM0DOS-11 | 2026-09-01 06:37:05 | 49.74136 | 8.46873 | 121° | 11km/h | 24453m | -36.7m/s | -50.6°C | 3.4% | 29.6hPa | 2.5V | 03:16:28 | 02:05:39 | 00:00:00 | |
| BIOWL7-15 | 2026-09-01 06:37:04 | 49.74134 | 8.46893 | 72° | 13km/h | 24266m | -39.1m/s | -50.6°C | 0.6% | 30.4hPa | 2.6V | 03:17:00 | 00:00:00 | 00:00:00 | |
| DL1XH-15 | 2026-09-01 06:37:03 | 49.74137 | 8.46868 | 133° | 5km/h | 24523m | -35.4m/s | -50.5°C | 3.3% | 29.2hPa | 2.6V | 03:16:30 | 02:05:37 | 00:00:00 | |
| DL1XH1-15 | 2026-09-01 06:37:02 | 49.74138 | 8.46866 | 101° | 5km/h | 24557m | -34.8m/s | -50.4°C | 3.3% | 29.1hPa | 2.6V | 03:16:31 | 02:05:36 | 00:00:00 | |
| BIOWL1-15 | 2026-09-01 06:36:59 | 49.74137 | 8.46870 | 116° | 9km/h | 24489m | -34.1m/s | -50.6°C | 0% | 29.4hPa | 2.6V | 03:17:10 | 02:05:38 | 00:00:00 | |
| HSKMA3-T | 2026-09-01 06:36:56 | 49.74138 | 8.46865 | 70° | 4km/h | 24592m | -33.9m/s | -50.5°C | 0% | 28.9hPa | 2.6V | 03:17:10 | 02:05:35 | 00:00:00 | |
| DM0DOS-11 | 2026-09-01 06:36:55 | 49.74131 | 8.46865 | 350° | 7km/h | 24795m | -38m/s | -50.2°C | 3.2% | 28hPa | 2.6V | 03:16:38 | 02:05:29 | 00:00:00 | |
| AA1-15 | 2026-09-01 06:36:54 | 49.74137 | 8.46864 | 32° | 4km/h | 24658m | -33.4m/s | -50.6°C | 0% | 28.6hPa | 2.5V | 03:18:01 | 02:05:33 | 00:00:00 | |
| DJ2DS-15 | 2026-09-01 06:36:54 | 49.74137 | 8.46864 | 33° | 7km/h | 24658m | -33.4m/s | -50.6°C | 3.4% | 28.6hPa | 2.6V | 03:16:00 | 02:05:33 | 00:00:00 | |
| DL1XH1-15 | 2026-09-01 06:36:53 | 49.74125 | 8.46863 | 42° | 7km/h | 24912m | -40.5m/s | -50.4°C | 3.3% | 27.6hPa | 2.6V | 03:16:41 | 02:05:26 | 00:00:00 | |
| BIOWL1-15 | 2026-09-01 06:36:49 | 49.74129 | 8.46865 | 17° | 5km/h | 24833m | -40.4m/s | -50.2°C | 0% | 27.9hPa | 2.5V | 03:17:10 | 02:05:28 | 00:00:00 | |
| DL1XH-west | 2026-09-01 06:36:48 | 49.74127 | 8.46864 | 25° | 7km/h | 24873m | -38.7m/s | -50.3°C | 0% | 27.7hPa | 2.5V | 03:17:10 | 02:05:27 | 00:00:00 | |
| HSKMA3-T | 2026-09-01 06:36:46 | 49.74124 | 8.46861 | 29° | 7km/h | 24952m | -39.2m/s | -50.5°C | 0% | 27.3hPa | 2.7V | 03:17:10 | 02:05:25 | 00:00:00 | |
| DM0DOS-11 | 2026-09-01 06:36:45 | 49.74123 | 8.46846 | 113° | 9km/h | 25174m | -36.6m/s | -50.5°C | 3.4% | 26.4hPa | 2.5V | 03:16:48 | 02:05:19 | 00:00:00 | |
| AA1-15 | 2026-09-01 06:36:43 | 49.74121 | 8.46854 | 54° | 7km/h | 25064m | -37.1m/s | -50.4°C | 0% | 26.9hPa | 2.6V | 03:18:01 | 02:05:22 | 00:00:00 | |
| DL1ZP-14 | 2026-09-01 06:36:43 | 49.74121 | 8.46852 | 102° | 5km/h | 25100m | -37.2m/s | -50.5°C | 0.7% | 26.7hPa | 2.7V | 00:00:00 | 00:00:00 | 00:00:00 | |
| DL1XH1-15 | 2026-09-01 06:36:42 | 49.74128 | 8.46838 | 144° | 11km/h | 25286m | -38.2m/s | -50.5°C | 3.4% | 26hPa | 2.6V | 03:16:51 | 02:05:16 | 00:00:00 | |
| DL1XH-west | 2026-09-01 06:36:38 | 49.74126 | 8.46840 | 139° | 11km/h | 25248m | -37.5m/s | -50.5°C | 0% | 26.1hPa | 2.7V | 03:17:10 | 02:05:17 | 00:00:00 | |
| HSKMA3-T | 2026-09-01 06:36:35 | 49.74133 | 8.46832 | 164° | 15km/h | 25363m | -39.1m/s | -50.5°C | 0% | 25.7hPa | 2.6V | 03:17:10 | 02:05:14 | 00:00:00 | |
| DJ2DS-15 | 2026-09-01 06:36:34 | 49.74137 | 8.46831 | 174° | 9km/h | 25403m | -41.6m/s | -50.4°C | 3.4% | 25.5hPa | 2.6V | 00:00:00 | 02:05:13 | 00:00:00 | |
| DH7VM-15 | 2026-09-01 06:36:33 | 49.74137 | 8.46831 | 174° | 13km/h | 25403m | -41.7m/s | -50.4°C | 0.7% | 25.6hPa | 2.5V | 00:00:00 | 00:00:00 | 00:00:00 | |
| DL1XH1-15 | 2026-09-01 06:36:32 | 49.74158 | 8.46832 | 218° | 7km/h | 25679m | -44m/s | -50.5°C | 3.4% | 24.5hPa | 2.5V | 03:17:01 | 02:05:06 | 00:00:00 | |
| AA1-15 | 2026-09-01 06:36:32 | 49.74144 | 8.46831 | 182° | 13km/h | 25482m | -37.7m/s | -50.7°C | 0% | 25.2hPa | 2.5V | 03:18:01 | 02:05:11 | 00:00:00 | |
| DL1XH-west | 2026-09-01 06:36:27 | 49.74158 | 8.46832 | 219° | 7km/h | 25679m | -44.1m/s | -50.5°C | 0% | 24.5hPa | 2.5V | 03:17:10 | 02:05:06 | 00:00:00 | |
| NBG1-10 | 2026-09-01 06:36:26 | 49.74159 | 8.46834 | 210° | 7km/h | 25723m | -43.5m/s | -50.5°C | 3.5% | 24.3hPa | 2.6V | 00:00:00 | 02:05:05 | 00:00:00 | |
| DM0DOS-11 | 2026-09-01 06:36:25 | 49.74170 | 8.46849 | 235° | 7km/h | 25975m | -40.9m/s | -50.2°C | 3.5% | 23.4hPa | 2.5V | 03:17:08 | 02:04:59 | 00:00:00 | |
| HSKMA3-T | 2026-09-01 06:36:25 | 49.74161 | 8.46836 | 211° | 13km/h | 25765m | -43.8m/s | -50.6°C | 0% | 24.1hPa | 2.6V | 03:17:10 | 02:05:04 | 00:00:00 | |
| DF3TZ-5 | 2026-09-01 06:36:23 | 49.74167 | 8.46843 | 220° | 13km/h | 25894m | -43.0m/s | -50.0°C | 0.6% | 23.7hPa | 2.7V | 00:00:00 | 00:00:00 | 00:00:00 | |
| DL1XH1-15 | 2026-09-01 06:36:22 | 49.74170 | 8.46854 | 290° | 5km/h | 26093m | -41.6m/s | -49.9°C | 3.5% | 22.9hPa | 2.7V | 03:17:11 | 02:04:56 | 00:00:00 | |
| BIOWL1-15 | 2026-09-01 06:36:17 | 49.74170 | 8.46854 | 291° | 5km/h | 26093m | -41.6m/s | -49.9°C | 0% | 23hPa | 2.7V | 03:18:01 | 02:04:56 | 00:00:00 | |
| DL1XH-west | 2026-09-01 06:36:16 | 49.74169 | 8.46856 | 302° | 7km/h | 26134m | -43.1m/s | -49.7°C | 0% | 22.8hPa | 2.6V | 03:18:01 | 02:04:55 | 00:00:00 | |
| DL1NUX | 2026-09-01 06:36:15 | 49.74161 | 8.46862 | 283° | 2km/h | 26391m | -45.5m/s | -49°C | 3.3% | 21.9hPa | 2.6V | 03:17:18 | 02:04:49 | 00:00:00 | |
| DJ2DS-15 | 2026-09-01 06:36:14 | 49.74165 | 8.46858 | 297° | 5km/h | 26223m | -45.5m/s | -49.3°C | 3.4% | 22.5hPa | 2.5V | 00:00:00 | 02:04:53 | 00:00:00 | |
| HSKMA3-T | 2026-09-01 06:36:14 | 49.74165 | 8.46859 | 296° | 4km/h | 26223m | -45.6m/s | -49.4°C | 0% | 22.5hPa | 2.5V | 03:18:01 | 02:04:53 | 00:00:00 | |
| DL1XH1-15 | 2026-09-01 06:36:12 | 49.74160 | 8.46865 | 269° | 5km/h | 26535m | -48.9m/s | -48.9°C | 3.3% | 21.5hPa | 2.5V | 03:17:21 | 02:04:46 | 00:00:00 | |
| BIOWL1-15 | 2026-09-01 06:36:06 | 49.74160 | 8.46868 | 263° | 9km/h | 26585m | -50.3m/s | -49.1°C | 0% | 21.4hPa | 2.5V | 03:18:01 | 02:04:45 | 00:00:00 | |
| DL1XH-west | 2026-09-01 06:36:05 | 49.74160 | 8.46871 | 266° | 7km/h | 26634m | -49.7m/s | -49.1°C | 0% | 21.2hPa | 2.6V | 03:18:01 | 02:04:44 | 00:00:00 | |
| HSKMA3-T | 2026-09-01 06:36:03 | 49.74160 | 8.46879 | 281° | 11km/h | 26736m | -52.1m/s | -49°C | 0% | 20.9hPa | 2.6V | 03:18:01 | 02:04:42 | 00:00:00 | |
| DL6DJ-15 | 2026-09-01 06:36:03 | 49.74159 | 8.46882 | 290° | 7km/h | 26787m | -51.4m/s | -48.7°C | 0.6% | 20.8hPa | 2.6V | 00:00:00 | 00:00:00 | 00:00:00 | |
| DL1XH1-15 | 2026-09-01 06:36:02 | 49.74157 | 8.46894 | 294° | 7km/h | 27046m | -53.4m/s | -47.2°C | 3% | 19.9hPa | 2.6V | 03:17:31 | 02:04:36 | 00:00:00 | |
| DL4BBY-15 | 2026-09-01 06:36:02 | 49.74159 | 8.46882 | 291° | 5km/h | 26787m | -51.3m/s | -47.7°C | 0% | 0hPa | 2.6V | 00:00:00 | 00:00:00 | 00:00:00 | |
| DM3KS-11 | 2026-09-01 06:36:01 | 49.74157 | 8.46887 | 282° | 5km/h | 26890m | -52.2m/s | -48.1°C | 0.6% | 20.4hPa | 2.6V | 00:00:00 | 00:00:00 | 00:00:00 | |
| DB0NH | 2026-09-01 06:36:00 | 49.74157 | 8.46887 | 283° | 5km/h | 26891m | -52.1m/s | -48.0°C | 3.2% | 20.4hPa | 2.6V | 03:17:00 | 02:04:39 | 00:00:00 | |
| DL1NUX | 2026-09-01 06:35:59 | 49.74156 | 8.46898 | 323° | 2km/h | 27204m | -54.1m/s | -47.1°C | 2.9% | 19.5hPa | 2.6V | 03:17:34 | 02:04:33 | 00:00:00 | |
| DL1XH-west | 2026-09-01 06:35:55 | 49.74156 | 8.46898 | 267° | 4km/h | 27151m | -52.4m/s | -47.1°C | 0% | 19.7hPa | 2.5V | 03:18:01 | 02:04:34 | 00:00:00 | |
| HSKMA3-T | 2026-09-01 06:35:52 | 49.74156 | 8.46900 | 231° | 2km/h | 27311m | -53.8m/s | -47.3°C | 0% | 19.2hPa | 2.6V | 03:18:01 | 02:04:31 | 00:00:00 | |
| DF3TZ-5 | 2026-09-01 06:35:51 | 49.74157 | 8.46901 | 196° | 4km/h | 27365m | -54.2m/s | -47.3°C | 0.6% | 19.0hPa | 2.5V | 00:00:00 | 00:00:00 | 00:00:00 | |
| DL3AQ-11 | 2026-09-01 06:35:50 | 49.74158 | 8.46901 | 185° | 5km/h | 27419m | -53.8m/s | -47.3°C | 0.6% | 18.9hPa | 2.5V | 00:00:00 | 00:00:00 | 00:00:00 | |
| DB0UT-9 | 2026-09-01 06:35:49 | 49.74158 | 8.46901 | 186° | 7km/h | 27419m | -53.8m/s | -47.3°C | 0.6% | 18.9hPa | 2.5V | 03:18:00 | 00:00:00 | 00:00:00 | |
| DL8DAS-15 | 2026-09-01 06:35:48 | 49.74160 | 8.46901 | 183° | 5km/h | 27472m | -53.2m/s | -47.2°C | 0.6% | 18.7hPa | 2.5V | 03:18:00 | 00:00:00 | 00:00:00 | |
| DL1NUX | 2026-09-01 06:35:47 | 49.74163 | 8.46918 | 305° | 5km/h | 27854m | -55.9m/s | -47.1°C | 3.1% | 17.6hPa | 2.5V | 03:17:46 | 02:04:21 | 00:00:00 | |
| DF8AY | 2026-09-01 06:35:46 | 49.74164 | 8.46906 | 246° | 5km/h | 27633m | -55.2m/s | -47.2°C | 0% | 18.3hPa | 2.6V | 03:18:52 | 02:04:25 | 00:00:00 | |
| DL1XH-west | 2026-09-01 06:35:45 | 49.74164 | 8.46909 | 274° | 7km/h | 27688m | -56.4m/s | -47.2°C | 0% | 18.1hPa | 2.6V | 03:18:01 | 02:04:24 | 00:00:00 | |
| AA1-15 | 2026-09-01 06:35:44 | 49.74164 | 8.46912 | 284° | 9km/h | 27744m | -55.5m/s | -47.2°C | 0% | 18hPa | 2.5V | 03:18:01 | 02:04:23 | 00:00:00 | |
| HSKMA3-T | 2026-09-01 06:35:42 | 49.74163 | 8.46918 | 306° | 5km/h | 27854m | -55.9m/s | -47.1°C | 0% | 17.6hPa | 2.5V | 03:18:01 | 02:04:21 | 00:00:00 | |
| DL1XH-west | 2026-09-01 06:35:35 | 49.74157 | 8.46933 | 315° | 2km/h | 28248m | -53.8m/s | -46.1°C | 0% | 16.6hPa | 2.7V | 03:18:01 | 02:04:14 | 00:00:00 | |
| DF8AY | 2026-09-01 06:35:34 | 49.74157 | 8.46933 | 358° | 4km/h | 28301m | -52.1m/s | -46.2°C | 0% | 16.5hPa | 2.6V | 03:18:52 | 02:04:13 | 00:00:00 | |
| HSKMA3-T | 2026-09-01 06:35:31 | 49.74155 | 8.46938 | 319° | 5km/h | 28460m | -52.8m/s | -45.8°C | 0% | 16.1hPa | 2.6V | 03:18:01 | 02:04:10 | 00:00:00 | |
| DB0NH | 2026-09-01 06:35:30 | 49.74153 | 8.46940 | 333° | 9km/h | 28513m | -51.9m/s | -45.6°C | 2.7% | 15.9hPa | 2.6V | 00:00:00 | 02:04:09 | 00:00:00 | |
| OE5DXL-15 | 2026-09-01 06:35:29 | 49.74151 | 8.46941 | 347° | 11km/h | 28565m | -50.8m/s | 0°C | 0% | 0hPa | 2.6V | 03:17:00 | 00:00:00 | 00:00:00 | |
| DD1CC8 | 2026-09-01 06:35:28 | 49.74144 | 8.46942 | 2° | 16km/h | 28662m | -47.1m/s | -45.5°C | 0.5% | 15.5hPa | 2.6V | 00:00:00 | 00:00:00 | 00:00:00 | |
| DL1NUX | 2026-09-01 06:35:27 | 49.74126 | 8.46937 | 27° | 9km/h | 28860m | -30.8m/s | -44.6°C | 2.5% | 15hPa | 2.6V | 03:18:06 | 02:04:01 | 00:00:00 | |
| DL1XH-west | 2026-09-01 06:35:25 | 49.74131 | 8.46939 | 18° | 11km/h | 28789m | -39.7m/s | -44.8°C | 0% | 15.2hPa | 2.7V | 03:18:52 | 02:04:03 | 00:00:00 | |
| BIOWL1-15 | 2026-09-01 06:35:24 | 49.74128 | 8.46938 | 21° | 7km/h | 28827m | -37.3m/s | -44.6°C | 0% | 15.1hPa | 2.6V | 03:18:52 | 02:04:02 | 00:00:00 | |
| HSKMA3-T | 2026-09-01 06:35:21 | 49.74125 | 8.46935 | 49° | 11km/h | 28887m | -23.4m/s | -44.7°C | 0% | 14.8hPa | 2.7V | 03:18:52 | 02:04:00 | 00:00:00 | |
| DL1XH-west | 2026-09-01 06:35:14 | 49.74113 | 8.46930 | 352° | 9km/h | 28897m | 5m/s | -44.6°C | 0% | 14.8hPa | 2.6V | 03:18:52 | 02:03:53 | 00:00:00 | |
| DJ2DS-15 | 2026-09-01 06:35:14 | 49.74113 | 8.46930 | 353° | 13km/h | 28898m | 4.9m/s | -44.6°C | 2.5% | 14.8hPa | 2.7V | 00:00:00 | 02:03:53 | 00:00:00 | |
| SFWM-10 | 2026-09-01 06:35:13 | 49.74113 | 8.46930 | 353° | 9km/h | 28898m | 5.0m/s | -44.6°C | 0.5% | 14.8hPa | 2.7V | 00:00:00 | 00:00:00 | 00:00:00 | |
| DL1XH1-15 | 2026-09-01 06:35:12 | 49.74104 | 8.46898 | 56° | 18km/h | 28862m | 4.4m/s | -44.7°C | 2.5% | 14.9hPa | 2.7V | 03:18:21 | 02:03:46 | 00:00:00 | |
| BIOWL1-15 | 2026-09-01 06:35:12 | 49.74110 | 8.46928 | 55° | 9km/h | 28887m | 6m/s | -44.6°C | 0% | 14.8hPa | 2.7V | 03:18:52 | 02:03:51 | 00:00:00 | |
| HSKMA3-T | 2026-09-01 06:35:11 | 49.74109 | 8.46923 | 81° | 13km/h | 28882m | 5.2m/s | -44.6°C | 0% | 14.8hPa | 2.6V | 03:18:52 | 02:03:50 | 00:00:00 | |
| DF8AY | 2026-09-01 06:35:05 | 49.74099 | 8.46888 | 39° | 15km/h | 28853m | 5.1m/s | -44.8°C | 0% | 14.9hPa | 2.6V | 03:18:52 | 02:03:44 | 00:00:00 | |
| DM0DOS-11 | 2026-09-01 06:35:05 | 49.74088 | 8.46884 | 333° | 11km/h | 28828m | 6.2m/s | -45.2°C | 2.6% | 14.9hPa | 2.7V | 03:18:28 | 02:03:39 | 00:00:00 | |
| DL1XH-west | 2026-09-01 06:35:04 | 49.74096 | 8.46885 | 35° | 11km/h | 28847m | 5.4m/s | -44.8°C | 0% | 14.9hPa | 2.6V | 03:18:52 | 02:03:43 | 00:00:00 | |
| EDDB2-12 | 2026-09-01 06:35:03 | 49.74092 | 8.46882 | 7° | 7km/h | 28838m | 4.4m/s | -45.0°C | 0.4% | 15.0hPa | 2.6V | 00:00:00 | 00:00:00 | 00:00:00 | |
| DL1XH1-15 | 2026-09-01 06:35:02 | 49.74080 | 8.46891 | 333° | 9km/h | 28812m | 5.9m/s | -45.3°C | 2.6% | 15hPa | 2.6V | 03:18:31 | 02:03:36 | 00:00:00 | |
| HSKMA3-T | 2026-09-01 06:35:01 | 49.74090 | 8.46883 | 342° | 9km/h | 28833m | 4.6m/s | -45.1°C | 0% | 14.9hPa | 2.7V | 03:18:52 | 02:03:40 | 00:00:00 | |
| DL3AQ-11 | 2026-09-01 06:35:00 | 49.74085 | 8.46887 | 328° | 13km/h | 28822m | 5.4m/s | -45.3°C | 0.5% | 15.0hPa | 2.7V | 00:00:00 | 00:00:00 | 00:00:00 | |
| DM3KS-11 | 2026-09-01 06:34:59 | 49.74083 | 8.46889 | 330° | 11km/h | 28817m | 4.6m/s | -45.3°C | 0.5% | 15.0hPa | 2.7V | 00:00:00 | 00:00:00 | 00:00:00 | |
| SONDE2-11 | 2026-09-01 06:34:57 | 49.74080 | 8.46891 | 333° | 9km/h | 28812m | 5.9m/s | -45.3°C | 0.5% | 15.0hPa | 2.7V | 00:00:00 | 00:00:00 | 00:00:00 | |
| DO3MHA-11 | 2026-09-01 06:34:56 | 49.74078 | 8.46892 | 346° | 7km/h | 28807m | 5.2m/s | -45.3°C | 2.6% | 15.0hPa | 2.7V | 00:00:00 | 02:03:35 | 00:00:00 | |
| DM0DOS-11 | 2026-09-01 06:34:55 | 49.74065 | 8.46892 | 345° | 11km/h | 28777m | 4.5m/s | -45.5°C | 2.6% | 15.1hPa | 2.7V | 03:18:38 | 02:03:29 | 00:00:00 | |
| DF8AY | 2026-09-01 06:34:54 | 49.74075 | 8.46892 | 16° | 7km/h | 28797m | 4.7m/s | -45.4°C | 0% | 15hPa | 2.7V | 03:18:52 | 02:03:33 | 00:00:00 | |
| DL1NUX | 2026-09-01 06:34:54 | 49.74063 | 8.46893 | 332° | 7km/h | 28771m | 6.2m/s | -45.6°C | 2.6% | 15.1hPa | 2.7V | 03:18:39 | 02:03:28 | 00:00:00 | |
| DL1XH-west | 2026-09-01 06:34:53 | 49.74073 | 8.46891 | 10° | 9km/h | 28791m | 6m/s | -45.5°C | 0% | 15.1hPa | 2.6V | 03:18:52 | 02:03:32 | 00:00:00 | |
| DL1XH1-15 | 2026-09-01 06:34:52 | 49.74062 | 8.46895 | 236° | 4km/h | 28760m | 4.8m/s | -45.7°C | 2.6% | 15.1hPa | 2.6V | 03:18:41 | 02:03:26 | 00:00:00 | |
| BIOWL1-15 | 2026-09-01 06:34:50 | 49.74065 | 8.46892 | 346° | 11km/h | 28777m | 4.5m/s | -45.5°C | 0% | 15.1hPa | 2.7V | 03:18:52 | 02:03:29 | 00:00:00 | |
| DB0NH | 2026-09-01 06:34:50 | 49.74065 | 8.46892 | 346° | 13km/h | 28777m | 4.5m/s | -45.5°C | 2.6% | 15.0hPa | 2.7V | 00:00:00 | 02:03:29 | 00:00:00 | |
| OE5DXL-15 | 2026-09-01 06:34:49 | 49.74063 | 8.46893 | 333° | 13km/h | 28772m | 6.1m/s | 0°C | 0% | 0hPa | 2.7V | 00:00:00 | 00:00:00 | 00:00:00 | |
| DK5PH-5 | 2026-09-01 06:34:48 | 49.74062 | 8.46894 | 280° | 13km/h | 28766m | 5.4m/s | -45.6°C | 2.6% | 15.1hPa | 2.7V | 03:18:00 | 02:03:27 | 00:00:00 | |
| DM7RM-13 | 2026-09-01 06:34:47 | 49.74062 | 8.46894 | 281° | 4km/h | 28766m | 5.4m/s | -45.6°C | 0.5% | 15.1hPa | 2.6V | 03:18:00 | 00:00:00 | 00:00:00 | |
| DO3MHA-11 | 2026-09-01 06:34:46 | 49.74063 | 8.46897 | 246° | 11km/h | 28756m | 4.8m/s | -45.6°C | 2.6% | 15.1hPa | 2.6V | 00:00:00 | 02:03:25 | 00:00:00 | |
| DM0DOS-11 | 2026-09-01 06:34:45 | 49.74054 | 8.46906 | 340° | 11km/h | 28724m | 4.1m/s | -46.3°C | 2.8% | 15.2hPa | 2.6V | 03:18:48 | 02:03:19 | 00:00:00 | |
| SONCRA | 2026-09-01 06:34:45 | 49.74062 | 8.46901 | 317° | 5km/h | 28745m | 4.9m/s | -45.9°C | 0.5% | 15.2hPa | 2.7V | 00:00:00 | 00:00:00 | 00:00:00 | |
| DL1XH-west | 2026-09-01 06:34:43 | 49.74060 | 8.46902 | 329° | 7km/h | 28740m | 4.8m/s | -45.9°C | 0% | 15.2hPa | 2.7V | 03:18:52 | 02:03:22 | 00:00:00 | |
| DL1XH1-15 | 2026-09-01 06:34:42 | 49.74043 | 8.46914 | 328° | 22km/h | 28709m | 5.6m/s | -46.3°C | 2.8% | 15.2hPa | 2.7V | 03:18:51 | 02:03:16 | 00:00:00 | |
| HSKMA3-T | 2026-09-01 06:34:40 | 49.74054 | 8.46906 | 340° | 11km/h | 28725m | 4.1m/s | -46.3°C | 0% | 15.2hPa | 2.6V | 03:18:52 | 02:03:19 | 00:00:00 | |
| AA1-15 | 2026-09-01 06:34:39 | 49.74051 | 8.46908 | 338° | 15km/h | 28720m | 4.5m/s | -46.4°C | 0% | 15.2hPa | 2.6V | 03:18:52 | 02:03:18 | 00:00:00 | |
| NBG1-10 | 2026-09-01 06:34:39 | 49.74051 | 8.46908 | 339° | 15km/h | 28721m | 4.5m/s | -46.3°C | 2.8% | 15.2hPa | 2.6V | 00:00:00 | 02:03:18 | 00:00:00 | |
| DB0UT-7 | 2026-09-01 06:34:38 | 49.74048 | 8.46910 | 335° | 15km/h | 28716m | 5.7m/s | -46.3°C | 2.8% | 15.2hPa | 2.6V | 00:00:00 | 00:00:00 | 00:00:00 | |
| DN1GJH-1 | 2026-09-01 06:34:37 | 49.74048 | 8.46911 | 335° | 18km/h | 28716m | 5.8m/s | -46.4°C | 0.5% | 15.2hPa | 2.6V | 00:00:00 | 00:00:00 | 00:00:00 | |
| DO3MHA-11 | 2026-09-01 06:34:36 | 49.74039 | 8.46919 | 321° | 20km/h | 28705m | 4.5m/s | -46.2°C | 2.8% | 15.2hPa | 2.6V | 00:00:00 | 02:03:15 | 00:00:00 | |
| DM0DOS-11 | 2026-09-01 06:34:35 | 49.74031 | 8.46963 | 270° | 20km/h | 28675m | 5.9m/s | -46.4°C | 2.7% | 15.3hPa | 2.7V | 03:18:58 | 02:03:09 | 00:00:00 | |
| DJ2DS-15 | 2026-09-01 06:34:34 | 49.74032 | 8.46932 | 296° | 16km/h | 28695m | 5.7m/s | -46.2°C | 2.8% | 15.2hPa | 2.7V | 00:00:00 | 02:03:13 | 00:00:00 | |
| DL1NUX | 2026-09-01 06:34:33 | 49.74029 | 8.46977 | 295° | 18km/h | 28665m | 4.7m/s | -46.3°C | 2.7% | 15.3hPa | 2.6V | 03:19:00 | 02:03:07 | 00:00:00 | |
| DL1XH-west | 2026-09-01 06:34:32 | 49.74030 | 8.46948 | 265° | 20km/h | 28685m | 4.1m/s | -46.3°C | 0% | 15.3hPa | 2.6V | 03:19:43 | 02:03:11 | 00:00:00 | |
| HSKMA3-T | 2026-09-01 06:34:29 | 49.74030 | 8.46970 | 283° | 18km/h | 28669m | 5.2m/s | -46.3°C | 0% | 15.3hPa | 2.7V | 03:19:43 | 02:03:08 | 00:00:00 | |
| AA1-15 | 2026-09-01 06:34:28 | 49.74029 | 8.46977 | 296° | 18km/h | 28665m | 4.7m/s | -46.3°C | 0% | 15.3hPa | 2.6V | 03:19:43 | 02:03:07 | 00:00:00 | |
| DM3KS-11 | 2026-09-01 06:34:28 | 49.74027 | 8.46983 | 306° | 16km/h | 28660m | 4.7m/s | -46.3°C | 0.5% | 15.4hPa | 2.6V | 00:00:00 | 00:00:00 | 00:00:00 | |
| DO3MHA-11 | 2026-09-01 06:34:26 | 49.74024 | 8.46987 | 311° | 13km/h | 28655m | 5.0m/s | -46.2°C | 2.8% | 15.3hPa | 2.6V | 03:19:00 | 02:03:05 | 00:00:00 | |
| DF7PN | 2026-09-01 06:34:25 | 49.74021 | 8.46994 | 291° | 7km/h | 28644m | 5.3m/s | -46.2°C | 0.5% | 15.4hPa | 2.6V | 00:00:00 | 00:00:00 | 00:00:00 | |
| HARRO8 | 2026-09-01 06:34:24 | 49.74021 | 8.46997 | 273° | 7km/h | 28639m | 4.8m/s | -46.2°C | 0.5% | 15.4hPa | 2.6V | 00:00:00 | 00:00:00 | 00:00:00 | |
| DL1XH1-15 | 2026-09-01 06:34:22 | 49.74024 | 8.47030 | 242° | 20km/h | 28608m | 4.9m/s | -46.5°C | 2.7% | 15.4hPa | 2.6V | 03:19:11 | 02:02:56 | 00:00:00 | |
| DL1XH-west | 2026-09-01 06:34:22 | 49.74020 | 8.47001 | 270° | 9km/h | 28634m | 4.9m/s | -46.2°C | 0% | 15.4hPa | 2.6V | 03:19:43 | 02:03:01 | 00:00:00 | |
| DB0NH | 2026-09-01 06:34:20 | 49.74021 | 8.47010 | 268° | 11km/h | 28624m | 4.9m/s | -46.3°C | 2.7% | 15.4hPa | 2.7V | 00:00:00 | 02:02:59 | 00:00:00 | |
| DL1XH-15 | 2026-09-01 06:34:19 | 49.74028 | 8.47048 | 267° | 13km/h | 28593m | 5.7m/s | -46.5°C | 2.8% | 15.5hPa | 2.7V | 03:19:14 | 02:02:53 | 00:00:00 | |
| HSKMA3-T | 2026-09-01 06:34:19 | 49.74021 | 8.47016 | 259° | 16km/h | 28619m | 4.6m/s | -46.4°C | 0% | 15.4hPa | 2.7V | 03:19:43 | 02:02:58 | 00:00:00 | |
| BIOWL1-15 | 2026-09-01 06:34:18 | 49.74022 | 8.47023 | 251° | 18km/h | 28613m | 6m/s | -46.5°C | 0% | 15.5hPa | 2.6V | 03:19:43 | 02:02:57 | 00:00:00 | |
| DF8AY | 2026-09-01 06:34:15 | 49.74028 | 8.47042 | 252° | 16km/h | 28599m | 5.2m/s | -46.5°C | 0% | 15.5hPa | 2.7V | 03:19:43 | 02:02:54 | 00:00:00 | |
| SONCRA | 2026-09-01 06:34:14 | 49.74028 | 8.47053 | 289° | 11km/h | 28588m | 4.9m/s | -46.5°C | 0.5% | 15.5hPa | 2.7V | 00:00:00 | 00:00:00 | 00:00:00 | |
| DJ2DS-15 | 2026-09-01 06:34:13 | 49.74028 | 8.47053 | 289° | 11km/h | 28588m | 4.9m/s | -46.5°C | 0.5% | 15.5hPa | 2.7V | 00:00:00 | 00:00:00 | 00:00:00 | |
| DL1NUX | 2026-09-01 06:34:12 | 49.74026 | 8.47063 | 252° | 5km/h | 28557m | 5.6m/s | -46.5°C | 2.7% | 15.6hPa | 2.7V | 03:19:21 | 02:02:46 | 00:00:00 | |
| DL1XH-west | 2026-09-01 06:34:11 | 49.74026 | 8.47059 | 312° | 5km/h | 28578m | 6m/s | -46.5°C | 0% | 15.6hPa | 2.6V | 03:19:43 | 02:02:50 | 00:00:00 | |
| SO1NDE-10 | 2026-09-01 06:34:10 | 49.74025 | 8.47060 | 300° | 9km/h | 28572m | 5.4m/s | -46.4°C | 2.8% | 15.5hPa | 2.6V | 03:19:00 | 02:02:49 | 00:00:00 | |
| DL1XH-15 | 2026-09-01 06:34:09 | 49.74027 | 8.47074 | 250° | 15km/h | 28541m | 4.6m/s | -46.6°C | 2.7% | 15.6hPa | 2.6V | 03:19:24 | 02:02:43 | 00:00:00 | |
| BIOWL1-15 | 2026-09-01 06:34:08 | 49.74025 | 8.47062 | 231° | 4km/h | 28562m | 4.9m/s | -46.5°C | 0% | 15.6hPa | 2.7V | 03:19:43 | 02:02:47 | 00:00:00 | |
| AA1-15 | 2026-09-01 06:34:06 | 49.74026 | 8.47065 | 263° | 7km/h | 28551m | 5.6m/s | -46.6°C | 0% | 15.6hPa | 2.6V | 03:19:43 | 02:02:45 | 00:00:00 | |
| DO3MHA-11 | 2026-09-01 06:34:06 | 49.74026 | 8.47065 | 263° | 15km/h | 28552m | 5.6m/s | -46.5°C | 2.7% | 15.6hPa | 2.6V | 00:00:00 | 02:02:45 | 00:00:00 | |
| DM0DOS-11 | 2026-09-01 06:34:05 | 49.74041 | 8.47097 | 218° | 20km/h | 28521m | 4.2m/s | -46.8°C | 2.8% | 15.7hPa | 2.6V | 03:19:28 | 02:02:39 | 00:00:00 | |
| DF8AY | 2026-09-01 06:34:04 | 49.74027 | 8.47074 | 250° | 15km/h | 28541m | 4.6m/s | -46.6°C | 0% | 15.6hPa | 2.6V | 03:19:43 | 02:02:43 | 00:00:00 | |
| DL3AQ-11 | 2026-09-01 06:34:03 | 49.74029 | 8.47080 | 238° | 16km/h | 28536m | 6.1m/s | -46.6°C | 0.5% | 15.6hPa | 2.7V | 00:00:00 | 00:00:00 | 00:00:00 | |
| DL1XH1-15 | 2026-09-01 06:34:02 | 49.74047 | 8.47108 | 250° | 5km/h | 28506m | 5m/s | -46.9°C | 2.8% | 15.7hPa | 2.7V | 03:19:31 | 02:02:36 | 00:00:00 | |
| DL1XH-west | 2026-09-01 06:34:00 | 49.74041 | 8.47097 | 219° | 20km/h | 28521m | 4.2m/s | -46.8°C | 0% | 15.7hPa | 2.6V | 03:19:43 | 02:02:39 | 00:00:00 | |
| DL1XH-15 | 2026-09-01 06:33:59 | 49.74048 | 8.47111 | 199° | 4km/h | 28489m | 5m/s | -46.8°C | 2.8% | 15.8hPa | 2.6V | 03:19:34 | 02:02:33 | 00:00:00 | |
| HSKMA3-T | 2026-09-01 06:33:57 | 49.74047 | 8.47108 | 250° | 5km/h | 28506m | 5m/s | -46.9°C | 0% | 15.7hPa | 2.7V | 03:19:43 | 02:02:36 | 00:00:00 | |
| DM3KS-11 | 2026-09-01 06:33:57 | 49.74048 | 8.47110 | 267° | 2km/h | 28501m | 5.1m/s | -46.9°C | 0.5% | 15.7hPa | 2.6V | 00:00:00 | 00:00:00 | 00:00:00 | |
| DO3MHA-11 | 2026-09-01 06:33:56 | 49.74047 | 8.47110 | 268° | 5km/h | 28501m | 5.1m/s | -46.8°C | 2.8% | 15.7hPa | 2.6V | 00:00:00 | 02:02:35 | 00:00:00 | |
| DL1NUX | 2026-09-01 06:33:55 | 49.74052 | 8.47114 | 220° | 5km/h | 28469m | 5.4m/s | -46.9°C | 2.9% | 15.8hPa | 2.6V | 03:19:38 | 02:02:29 | 00:00:00 | |
| AA1-15 | 2026-09-01 06:33:54 | 49.74048 | 8.47111 | 199° | 4km/h | 28489m | 5m/s | -46.8°C | 0% | 15.8hPa | 2.6V | 03:19:43 | 02:02:33 | 00:00:00 | |
| DF8AY | 2026-09-01 06:33:53 | 49.74049 | 8.47112 | 193° | 4km/h | 28484m | 4.6m/s | -46.8°C | 0% | 15.8hPa | 2.7V | 03:19:43 | 02:02:32 | 00:00:00 | |
| HARRO8 | 2026-09-01 06:33:53 | 49.74050 | 8.47112 | 197° | 4km/h | 28480m | 4.7m/s | -46.8°C | 0.5% | 15.8hPa | 2.6V | 00:00:00 | 00:00:00 | 00:00:00 | |
| DL1XH1-15 | 2026-09-01 06:33:52 | 49.74058 | 8.47119 | 200° | 15km/h | 28452m | 6m/s | -47.1°C | 2.9% | 15.8hPa | 2.6V | 03:19:41 | 02:02:26 | 00:00:00 | |
| DL1XH-west | 2026-09-01 06:33:50 | 49.74052 | 8.47114 | 220° | 5km/h | 28469m | 5.4m/s | -46.9°C | 0% | 15.8hPa | 2.6V | 03:19:43 | 02:02:29 | 00:00:00 | |
| DB0NH | 2026-09-01 06:33:50 | 49.74052 | 8.47114 | 221° | 7km/h | 28469m | 5.4m/s | -46.8°C | 2.9% | 15.8hPa | 2.7V | 03:19:00 | 02:02:29 | 00:00:00 | |
| DL1XH-15 | 2026-09-01 06:33:49 | 49.74068 | 8.47124 | 200° | 9km/h | 28439m | 4.9m/s | -47°C | 2.8% | 15.9hPa | 2.7V | 03:19:44 | 02:02:23 | 00:00:00 | |
| BIOWL1-15 | 2026-09-01 06:33:48 | 49.74062 | 8.47121 | 198° | 16km/h | 28447m | 4.4m/s | -47.1°C | 0% | 15.8hPa | 2.6V | 03:19:43 | 02:02:25 | 00:00:00 | |
| HSKMA3-T | 2026-09-01 06:33:47 | 49.74058 | 8.47119 | 201° | 15km/h | 28452m | 6m/s | -47.2°C | 0% | 15.8hPa | 2.6V | 03:19:43 | 02:02:26 | 00:00:00 | |
| DO3MHA-11 | 2026-09-01 06:33:46 | 49.74062 | 8.47121 | 199° | 7km/h | 28448m | 4.3m/s | -47.1°C | 2.9% | 15.8hPa | 2.6V | 03:19:00 | 02:02:25 | 00:00:00 | |
| DM0DOS-11 | 2026-09-01 06:33:45 | 49.74067 | 8.47130 | 339° | 7km/h | 28417m | 5.1m/s | -47.1°C | 2.9% | 15.9hPa | 2.6V | 03:19:48 | 02:02:19 | 00:00:00 | |
| OE5DXL-15 | 2026-09-01 06:33:45 | 49.74066 | 8.47123 | 198° | 7km/h | 28444m | 3.8m/s | 0°C | 0% | 0hPa | 2.6V | 00:00:00 | 02:02:24 | 00:00:00 | |
| DL1NUX | 2026-09-01 06:33:44 | 49.74065 | 8.47131 | 337° | 5km/h | 28412m | 5.9m/s | -47.1°C | 2.9% | 15.9hPa | 2.6V | 03:19:49 | 02:02:18 | 00:00:00 | |
| AA1-15 | 2026-09-01 06:33:43 | 49.74070 | 8.47126 | 229° | 5km/h | 28434m | 5.8m/s | -47°C | 0% | 15.9hPa | 2.7V | 03:20:34 | 02:02:22 | 00:00:00 | |
| DF8AY | 2026-09-01 06:33:42 | 49.74070 | 8.47127 | 317° | 5km/h | 28428m | 5.4m/s | -47°C | 0% | 15.9hPa | 2.7V | 03:20:34 | 02:02:21 | 00:00:00 | |
| DL1XH-west | 2026-09-01 06:33:40 | 49.74067 | 8.47130 | 339° | 7km/h | 28417m | 5.1m/s | -47.2°C | 0% | 15.9hPa | 2.6V | 03:20:34 | 02:02:19 | 00:00:00 | |
| DL3AQ-11 | 2026-09-01 06:33:40 | 49.74065 | 8.47131 | 337° | 5km/h | 28412m | 5.9m/s | -47.1°C | 0.5% | 15.9hPa | 2.6V | 00:00:00 | 00:00:00 | 00:00:00 | |
| DL1XH-15 | 2026-09-01 06:33:39 | 49.74065 | 8.47127 | 107° | 7km/h | 28385m | 5m/s | -47.1°C | 2.9% | 16hPa | 2.6V | 03:19:54 | 02:02:13 | 00:00:00 | |
| HSKMA3-T | 2026-09-01 06:33:36 | 49.74064 | 8.47131 | 98° | 2km/h | 28396m | 6.2m/s | -47.1°C | 0% | 16hPa | 2.7V | 03:20:34 | 02:02:15 | 00:00:00 | |
| DO3MHA-11 | 2026-09-01 06:33:36 | 49.74064 | 8.47130 | 99° | 7km/h | 28397m | 6.1m/s | -47.0°C | 2.9% | 15.9hPa | 2.7V | 00:00:00 | 02:02:15 | 00:00:00 | |
| DM0DOS-11 | 2026-09-01 06:33:35 | 49.74072 | 8.47118 | 157° | 7km/h | 28365m | 4m/s | -47.1°C | 2.8% | 16.1hPa | 2.7V | 03:19:58 | 02:02:09 | 00:00:00 | |
| BIOWL1-15 | 2026-09-01 06:33:35 | 49.74064 | 8.47129 | 99° | 4km/h | 28391m | 5.6m/s | -47.1°C | 0% | 16hPa | 2.6V | 03:20:34 | 02:02:14 | 00:00:00 | |
| DL1NUX | 2026-09-01 06:33:34 | 49.74073 | 8.47117 | 164° | 4km/h | 28360m | 5.7m/s | -47.1°C | 2.8% | 16hPa | 2.6V | 03:19:59 | 02:02:08 | 00:00:00 | |
| DJ2DS-15 | 2026-09-01 06:33:34 | 49.74064 | 8.47127 | 108° | 7km/h | 28385m | 5.0m/s | -47.1°C | 2.9% | 16.0hPa | 2.6V | 00:00:00 | 02:02:13 | 00:00:00 | |
| NBG1-10 | 2026-09-01 06:33:33 | 49.74065 | 8.47125 | 128° | 11km/h | 28381m | 5.0m/s | -47.1°C | 2.9% | 16.0hPa | 2.6V | 00:00:00 | 02:02:12 | 00:00:00 | |
| DL1XH1-15 | 2026-09-01 06:33:32 | 49.74072 | 8.47119 | 333° | 9km/h | 28348m | 5.2m/s | -47°C | 2.8% | 16.1hPa | 2.6V | 03:20:01 | 02:02:06 | 00:00:00 | |
| DF8AY | 2026-09-01 06:33:32 | 49.74067 | 8.47122 | 141° | 11km/h | 28374m | 6.1m/s | -47.2°C | 0% | 16hPa | 2.7V | 03:20:34 | 02:02:11 | 00:00:00 | |
| DL1XH-west | 2026-09-01 06:33:29 | 49.74073 | 8.47117 | 165° | 4km/h | 28360m | 5.7m/s | -47.1°C | 0% | 16.1hPa | 2.6V | 03:20:34 | 02:02:08 | 00:00:00 | |
| HSKMA3-T | 2026-09-01 06:33:25 | 49.74066 | 8.47123 | 326° | 13km/h | 28338m | 6.2m/s | -46.9°C | 0% | 16.1hPa | 2.7V | 03:20:34 | 02:02:04 | 00:00:00 | |
| DL3AQ-11 | 2026-09-01 06:33:24 | 49.74062 | 8.47128 | 313° | 7km/h | 28327m | 5.1m/s | -46.9°C | 0.5% | 16.2hPa | 2.6V | 00:00:00 | 00:00:00 | 00:00:00 | |
| DF7PN | 2026-09-01 06:33:23 | 49.74061 | 8.47130 | 307° | 5km/h | 28321m | 5.5m/s | -46.9°C | 0.5% | 16.2hPa | 2.6V | 00:00:00 | 00:00:00 | 00:00:00 | |
| DL1XH1-15 | 2026-09-01 06:33:22 | 49.74060 | 8.47139 | 216° | 7km/h | 28293m | 6.2m/s | -47°C | 2.8% | 16.2hPa | 2.6V | 03:20:11 | 02:01:56 | 00:00:00 | |
| AA1-15 | 2026-09-01 06:33:22 | 49.74061 | 8.47130 | 308° | 5km/h | 28321m | 5.5m/s | -46.9°C | 0% | 16.2hPa | 2.6V | 03:20:34 | 02:02:01 | 00:00:00 | |
| DF8AY | 2026-09-01 06:33:21 | 49.74060 | 8.47132 | 313° | 5km/h | 28315m | 6.4m/s | -46.9°C | 0% | 16.2hPa | 2.6V | 03:20:34 | 02:02:00 | 00:00:00 | |
| DL1XH-west | 2026-09-01 06:33:19 | 49.74059 | 8.47135 | 289° | 4km/h | 28304m | 5.1m/s | -47°C | 0% | 16.2hPa | 2.7V | 03:20:34 | 02:01:58 | 00:00:00 | |
| HSKMA3-T | 2026-09-01 06:33:15 | 49.74064 | 8.47144 | 234° | 11km/h | 28283m | 4.1m/s | -47.1°C | 0% | 16.3hPa | 2.7V | 03:20:34 | 02:01:54 | 00:00:00 | |
| OE5DXL-15 | 2026-09-01 06:33:15 | 49.74064 | 8.47143 | 234° | 15km/h | 28283m | 4.1m/s | 0°C | 0% | 0hPa | 2.7V | 00:00:00 | 00:00:00 | 00:00:00 | |
| DJ2DS-15 | 2026-09-01 06:33:14 | 49.74065 | 8.47147 | 260° | 16km/h | 28278m | 6.0m/s | -47.0°C | 2.9% | 16.2hPa | 2.7V | 00:00:00 | 02:01:53 | 00:00:00 | |
| DL1NUX | 2026-09-01 06:33:13 | 49.74052 | 8.47175 | 321° | 13km/h | 28244m | 5.2m/s | -46.8°C | 2.8% | 16.4hPa | 2.7V | 03:20:20 | 02:01:47 | 00:00:00 | |
| DL1XH1-15 | 2026-09-01 06:33:12 | 49.74049 | 8.47178 | 326° | 11km/h | 28238m | 5.4m/s | -46.8°C | 2.8% | 16.4hPa | 2.7V | 03:20:21 | 02:01:46 | 00:00:00 | |
| DF8AY | 2026-09-01 06:33:10 | 49.74057 | 8.47168 | 312° | 16km/h | 28255m | 6.3m/s | -46.8°C | 0% | 16.3hPa | 2.6V | 03:20:34 | 02:01:49 | 00:00:00 | |
| DL1XH-west | 2026-09-01 06:33:08 | 49.74052 | 8.47175 | 321° | 13km/h | 28244m | 5.2m/s | -46.8°C | 0% | 16.4hPa | 2.7V | 03:20:34 | 02:01:47 | 00:00:00 | |
| SO1NDE-10 | 2026-09-01 06:33:08 | 49.74052 | 8.47175 | 322° | 16km/h | 28244m | 5.2m/s | -46.8°C | 2.8% | 16.3hPa | 2.6V | 00:00:00 | 02:01:47 | 00:00:00 | |
| DO3MHA-11 | 2026-09-01 06:33:06 | 49.74047 | 8.47181 | 331° | 15km/h | 28233m | 6.3m/s | -46.9°C | 2.8% | 16.3hPa | 2.6V | 03:20:00 | 02:01:45 | 00:00:00 | |
| DM0DOS-11 | 2026-09-01 06:33:05 | 49.74044 | 8.47206 | 254° | 18km/h | 28200m | 4.6m/s | -46.9°C | 2.9% | 16.5hPa | 2.6V | 03:20:28 | 02:01:39 | 00:00:00 | |
| HSKMA3-T | 2026-09-01 06:33:05 | 49.74044 | 8.47183 | 326° | 11km/h | 28227m | 5.1m/s | -46.9°C | 0% | 16.4hPa | 2.6V | 03:20:34 | 02:01:44 | 00:00:00 | |
| BIOWL1-15 | 2026-09-01 06:33:04 | 49.74042 | 8.47186 | 306° | 9km/h | 28222m | 5m/s | -47°C | 0% | 16.4hPa | 2.6V | 03:20:34 | 02:01:43 | 00:00:00 | |
| AA1-15 | 2026-09-01 06:33:03 | 49.74041 | 8.47189 | 279° | 9km/h | 28216m | 6.4m/s | -47°C | 0% | 16.4hPa | 2.7V | 03:20:34 | 02:01:42 | 00:00:00 | |
| DL1XH1-15 | 2026-09-01 06:33:02 | 49.74042 | 8.47228 | 300° | 22km/h | 28183m | 5m/s | -47°C | 2.9% | 16.5hPa | 2.7V | 03:20:31 | 02:01:36 | 00:00:00 | |
| DL4BBY-15 | 2026-09-01 06:33:02 | 49.74042 | 8.47194 | 252° | 16km/h | 28211m | 5.8m/s | -46.0°C | 0% | 0hPa | 2.6V | 00:00:00 | 00:00:00 | 00:00:00 | |
| DJ2DS-15 | 2026-09-01 06:33:01 | 49.74043 | 8.47199 | 247° | 16km/h | 28205m | 4.7m/s | -47.0°C | 0.5% | 16.4hPa | 2.6V | 00:00:00 | 00:00:00 | 00:00:00 | |
| DL3AQ-11 | 2026-09-01 06:33:00 | 49.74045 | 8.47213 | 268° | 18km/h | 28195m | 6.0m/s | -46.9°C | 0.5% | 16.5hPa | 2.6V | 00:00:00 | 00:00:00 | 00:00:00 | |
| DL8OAI-8 | 2026-09-01 06:32:59 | 49.74044 | 8.47206 | 255° | 18km/h | 28200m | 4.6m/s | -46.9°C | 0.6% | 16.5hPa | 2.6V | 03:20:00 | 00:00:00 | 00:00:00 | |
| DL1XH-15 | 2026-09-01 06:32:58 | 49.74030 | 8.47255 | 299° | 18km/h | 28162m | 4.9m/s | -46.9°C | 2.8% | 16.5hPa | 2.6V | 03:20:35 | 02:01:32 | 00:00:00 | |
| DL1XH-west | 2026-09-01 06:32:57 | 49.74042 | 8.47228 | 301° | 22km/h | 28183m | 5m/s | -47°C | 0% | 16.5hPa | 2.7V | 03:20:34 | 02:01:36 | 00:00:00 | |
| DO3MHA-11 | 2026-09-01 06:32:56 | 49.74039 | 8.47235 | 308° | 18km/h | 28178m | 4.7m/s | -46.9°C | 2.9% | 16.5hPa | 2.7V | 00:00:00 | 02:01:35 | 00:00:00 | |
| DM0DOS-11 | 2026-09-01 06:32:55 | 49.74023 | 8.47274 | 300° | 18km/h | 28145m | 6.5m/s | -47°C | 2.8% | 16.6hPa | 2.7V | 03:20:38 | 02:01:29 | 00:00:00 | |
| HSKMA3-T | 2026-09-01 06:32:54 | 49.74032 | 8.47249 | 305° | 20km/h | 28167m | 5.8m/s | -46.9°C | 0% | 16.6hPa | 2.6V | 03:20:34 | 02:01:33 | 00:00:00 | |
| AA1-15 | 2026-09-01 06:32:53 | 49.74030 | 8.47255 | 300° | 18km/h | 28162m | 4.9m/s | -46.9°C | 0% | 16.5hPa | 2.6V | 03:21:25 | 02:01:32 | 00:00:00 | |
| DL1XH-west | 2026-09-01 06:32:47 | 49.74016 | 8.47291 | 299° | 15km/h | 28129m | 5.5m/s | -47°C | 0% | 16.6hPa | 2.6V | 03:21:25 | 02:01:26 | 00:00:00 | |
| DF8AY | 2026-09-01 06:32:46 | 49.74014 | 8.47296 | 289° | 13km/h | 28123m | 6.5m/s | 0°C | 0% | 16.6hPa | 2.6V | 03:21:25 | 02:01:25 | 00:00:00 | |
| DF3TZ-5 | 2026-09-01 06:32:45 | 49.74014 | 8.47300 | 276° | 9km/h | 28117m | 5.5m/s | -47.0°C | 0.5% | 16.7hPa | 2.6V | 00:00:00 | 00:00:00 | 00:00:00 | |
| HSKMA3-T | 2026-09-01 06:32:43 | 49.74013 | 8.47307 | 300° | 9km/h | 28106m | 6.3m/s | -47.1°C | 0% | 16.7hPa | 2.6V | 03:21:25 | 02:01:22 | 00:00:00 | |
| AA1-15 | 2026-09-01 06:32:42 | 49.74011 | 8.47310 | 324° | 11km/h | 28100m | 5.9m/s | -47.1°C | 0% | 16.7hPa | 2.6V | 03:21:25 | 02:01:21 | 00:00:00 | |
| OE5GOL-10 | 2026-09-01 06:32:42 | 49.74011 | 8.47310 | 324° | 11km/h | 28100m | 5.8m/s | 0°C | 0% | 0hPa | 2.6V | 00:00:00 | 02:01:21 | 00:00:00 | |
| DF1GD-15 | 2026-09-01 06:32:41 | 49.74011 | 8.47310 | 325° | 11km/h | 28100m | 5.9m/s | -47.1°C | 0.5% | 16.7hPa | 2.6V | 03:21:00 | 00:00:00 | 00:00:00 | |
| DL1NUX | 2026-09-01 06:32:40 | 49.73991 | 8.47321 | 330° | 15km/h | 28061m | 6.5m/s | -47.1°C | 2.8% | 16.8hPa | 2.6V | 03:20:53 | 02:01:14 | 00:00:00 | |
| DL8OAI-8 | 2026-09-01 06:32:39 | 49.74006 | 8.47314 | 343° | 13km/h | 28090m | 5.0m/s | -47.1°C | 0.6% | 16.7hPa | 2.7V | 03:21:00 | 00:00:00 | 00:00:00 | |
| DB0UT-7 | 2026-09-01 06:32:38 | 49.73999 | 8.47316 | 347° | 11km/h | 28078m | 5.6m/s | -47.0°C | 2.8% | 16.7hPa | 2.7V | 00:00:00 | 00:00:00 | 00:00:00 | |
| DL1XH-15 | 2026-09-01 06:32:37 | 49.73981 | 8.47334 | 306° | 16km/h | 28045m | 5.2m/s | -47.4°C | 2.9% | 16.9hPa | 2.7V | 03:20:56 | 02:01:11 | 00:00:00 | |
| DL1XH-west | 2026-09-01 06:32:36 | 49.73994 | 8.47319 | 337° | 11km/h | 28067m | 5.1m/s | -47.1°C | 0% | 16.8hPa | 2.7V | 03:21:25 | 02:01:15 | 00:00:00 | |
| BIOWL1-15 | 2026-09-01 06:32:35 | 49.73984 | 8.47329 | 316° | 18km/h | 28050m | 5m/s | -47.3°C | 0% | 16.8hPa | 2.6V | 03:21:25 | 02:01:12 | 00:00:00 | |
| DM0DOS-11 | 2026-09-01 06:32:35 | 49.73979 | 8.47344 | 272° | 11km/h | 28032m | 5.7m/s | -47.4°C | 2.9% | 16.9hPa | 2.7V | 03:20:58 | 02:01:09 | 00:00:00 | |
| DF8AY | 2026-09-01 06:32:35 | 49.73991 | 8.47321 | 331° | 15km/h | 28061m | 6.5m/s | 0°C | 0% | 16.8hPa | 2.6V | 03:21:25 | 02:01:14 | 00:00:00 | |
| HSKMA3-T | 2026-09-01 06:32:32 | 49.73981 | 8.47334 | 307° | 16km/h | 28045m | 5.2m/s | -47.4°C | 0% | 16.9hPa | 2.7V | 03:21:25 | 02:01:11 | 00:00:00 | |
| AA1-15 | 2026-09-01 06:32:31 | 49.73979 | 8.47339 | 294° | 15km/h | 28039m | 6.7m/s | -47.4°C | 0% | 16.9hPa | 2.7V | 03:21:25 | 02:01:10 | 00:00:00 | |
| DD1CC2-15 | 2026-09-01 06:32:30 | 49.73980 | 8.47339 | 295° | 15km/h | 28039m | 6.7m/s | -47.4°C | 0.6% | 16.9hPa | 2.6V | 03:21:00 | 00:00:00 | 00:00:00 | |
| HEMX73-11 | 2026-09-01 06:32:29 | 49.73979 | 8.47343 | 273° | 11km/h | 28033m | 5.7m/s | -47.4°C | 0.5% | 16.9hPa | 2.6V | 03:21:00 | 00:00:00 | 00:00:00 | |
| DL1XH-15 | 2026-09-01 06:32:27 | 49.73967 | 8.47363 | 26° | 11km/h | 27987m | 5.2m/s | -47.5°C | 2.9% | 17hPa | 2.6V | 03:21:06 | 02:01:01 | 00:00:00 | |
| DL1XH-west | 2026-09-01 06:32:26 | 49.73977 | 8.47360 | 310° | 11km/h | 28011m | 5.5m/s | -47.5°C | 0% | 16.9hPa | 2.7V | 03:21:25 | 02:01:05 | 00:00:00 | |
| DF8AY | 2026-09-01 06:32:25 | 49.73972 | 8.47364 | 350° | 11km/h | 28000m | 6.2m/s | 0°C | 0% | 17hPa | 2.7V | 03:21:25 | 02:01:03 | 00:00:00 | |
| BIOWL1-15 | 2026-09-01 06:32:24 | 49.73967 | 8.47363 | 27° | 11km/h | 27987m | 5.2m/s | -47.5°C | 0% | 17hPa | 2.6V | 03:21:25 | 02:01:01 | 00:00:00 | |
| HSKMA3-T | 2026-09-01 06:32:21 | 49.73964 | 8.47361 | 27° | 11km/h | 27982m | 4.7m/s | -47.5°C | 0% | 17hPa | 2.6V | 03:21:25 | 02:01:00 | 00:00:00 | |
| AA1-15 | 2026-09-01 06:32:20 | 49.73962 | 8.47359 | 18° | 11km/h | 27977m | 5.9m/s | -47.5°C | 0% | 17hPa | 2.7V | 03:21:25 | 02:00:59 | 00:00:00 | |
| DB0NH | 2026-09-01 06:32:19 | 49.73960 | 8.47359 | 359° | 13km/h | 27971m | 5.8m/s | -47.5°C | 2.9% | 17.0hPa | 2.6V | 00:00:00 | 02:00:58 | 00:00:00 | |
| DK5PH-5 | 2026-09-01 06:32:18 | 49.73957 | 8.47359 | 335° | 13km/h | 27966m | 4.8m/s | -47.4°C | 2.9% | 17.0hPa | 2.6V | 00:00:00 | 02:00:57 | 00:00:00 | |
| DL1XH-15 | 2026-09-01 06:32:16 | 49.73962 | 8.47378 | 278° | 11km/h | 27927m | 5.6m/s | -47.5°C | 2.9% | 17.2hPa | 2.6V | 03:21:17 | 02:00:50 | 00:00:00 | |
| DL1XH-west | 2026-09-01 06:32:15 | 49.73957 | 8.47366 | 226° | 7km/h | 27949m | 6.2m/s | -47.6°C | 0% | 17.1hPa | 2.6V | 03:21:25 | 02:00:54 | 00:00:00 | |
| DF8AY | 2026-09-01 06:32:13 | 49.73960 | 8.47371 | 225° | 11km/h | 27938m | 4.7m/s | 0°C | 0% | 17.1hPa | 2.7V | 03:21:25 | 02:00:52 | 00:00:00 | |
| DL1XH1-15 | 2026-09-01 06:32:12 | 49.73953 | 8.47389 | 355° | 15km/h | 27904m | 5.5m/s | -47.5°C | 2.9% | 17.2hPa | 2.6V | 03:21:21 | 02:00:46 | 00:00:00 | |
| BIOWL1-15 | 2026-09-01 06:32:12 | 49.73962 | 8.47375 | 245° | 11km/h | 27933m | 5.9m/s | -47.6°C | 0% | 17.1hPa | 2.6V | 03:21:25 | 02:00:51 | 00:00:00 | |
| HSKMA3-T | 2026-09-01 06:32:11 | 49.73962 | 8.47378 | 278° | 11km/h | 27927m | 5.6m/s | -47.6°C | 0% | 17.2hPa | 2.6V | 03:21:25 | 02:00:50 | 00:00:00 | |
| AA1-15 | 2026-09-01 06:32:09 | 49.73959 | 8.47386 | 325° | 13km/h | 27916m | 6.3m/s | -47.5°C | 0% | 17.2hPa | 2.7V | 03:21:25 | 02:00:48 | 00:00:00 | |
| DD1CC2-15 | 2026-09-01 06:32:08 | 49.73959 | 8.47386 | 326° | 13km/h | 27916m | 6.3m/s | -47.5°C | 0.6% | 17.2hPa | 2.7V | 03:21:00 | 00:00:00 | 00:00:00 | |
| DL8DAS-14 | 2026-09-01 06:32:07 | 49.73953 | 8.47389 | 355° | 13km/h | 27904m | 5.5m/s | -47.5°C | 0.6% | 17.2hPa | 2.7V | 00:00:00 | 00:00:00 | 00:00:00 | |
| DL1XH-15 | 2026-09-01 06:32:06 | 49.73940 | 8.47404 | 239° | 13km/h | 27871m | 6.8m/s | -47.7°C | 2.9% | 17.3hPa | 2.7V | 03:21:27 | 02:00:40 | 00:00:00 | |
| DO3MHA-11 | 2026-09-01 06:32:06 | 49.73949 | 8.47389 | 356° | 13km/h | 27898m | 5.2m/s | -47.5°C | 2.9% | 17.2hPa | 2.7V | 00:00:00 | 02:00:45 | 00:00:00 | |
| DM0DOS-11 | 2026-09-01 06:32:05 | 49.73942 | 8.47408 | 218° | 15km/h | 27865m | 5.8m/s | -47.7°C | 2.9% | 17.3hPa | 2.7V | 03:21:28 | 02:00:39 | 00:00:00 | |
| DL1XH-west | 2026-09-01 06:32:04 | 49.73943 | 8.47392 | 330° | 15km/h | 27887m | 5.3m/s | -47.5°C | 0% | 17.3hPa | 2.6V | 03:21:25 | 02:00:43 | 00:00:00 | |
| DF8AY | 2026-09-01 06:32:03 | 49.73940 | 8.47396 | 304° | 13km/h | 27882m | 4.3m/s | 0°C | 0% | 17.3hPa | 2.6V | 03:21:25 | 02:00:42 | 00:00:00 | |
| DB0ND-19 | 2026-09-01 06:32:03 | 49.73939 | 8.47400 | 272° | 9km/h | 27878m | 5.5m/s | -47.6°C | 0.6% | 17.3hPa | 2.6V | 00:00:00 | 00:00:00 | 00:00:00 | |
| DL1XH1-15 | 2026-09-01 06:32:02 | 49.73951 | 8.47418 | 235° | 11km/h | 27850m | 5.8m/s | -47.7°C | 2.9% | 17.4hPa | 2.6V | 03:21:31 | 02:00:36 | 00:00:00 | |
| BIOWL1-15 | 2026-09-01 06:32:01 | 49.73940 | 8.47404 | 240° | 13km/h | 27871m | 6.8m/s | -47.7°C | 0% | 17.3hPa | 2.7V | 03:22:16 | 02:00:40 | 00:00:00 | |
| HSKMA3-T | 2026-09-01 06:32:00 | 49.73942 | 8.47408 | 219° | 15km/h | 27865m | 5.8m/s | -47.7°C | 0% | 17.3hPa | 2.7V | 03:22:16 | 02:00:39 | 00:00:00 | |
| AA1-15 | 2026-09-01 06:31:58 | 49.73949 | 8.47414 | 215° | 15km/h | 27855m | 4.5m/s | -47.6°C | 0% | 17.4hPa | 2.6V | 03:22:16 | 02:00:37 | 00:00:00 | |
| DO3MHA-11 | 2026-09-01 06:31:56 | 49.73951 | 8.47421 | 273° | 13km/h | 27845m | 6.2m/s | -47.7°C | 3.0% | 17.3hPa | 2.6V | 00:00:00 | 02:00:35 | 00:00:00 | |
| DM0DOS-11 | 2026-09-01 06:31:55 | 49.73938 | 8.47444 | 316° | 9km/h | 27810m | 5.5m/s | -47.7°C | 3% | 17.5hPa | 2.6V | 03:21:38 | 02:00:29 | 00:00:00 | |
| DL1XH-west | 2026-09-01 06:31:54 | 49.73948 | 8.47431 | 314° | 16km/h | 27833m | 5.2m/s | -47.6°C | 0% | 17.4hPa | 2.7V | 03:22:16 | 02:00:33 | 00:00:00 | |
| DF8AY | 2026-09-01 06:31:53 | 49.73945 | 8.47435 | 321° | 16km/h | 27827m | 6.2m/s | 0°C | 0% | 17.4hPa | 2.7V | 18:12:15 | 02:00:32 | 00:00:00 | |
| DL1XH1-15 | 2026-09-01 06:31:52 | 49.73935 | 8.47454 | 258° | 11km/h | 27793m | 4.8m/s | -47.5°C | 2.9% | 17.5hPa | 2.7V | 03:21:41 | 02:00:26 | 00:00:00 | |
| DL1NUX | 2026-09-01 06:31:51 | 49.73936 | 8.47458 | 237° | 11km/h | 27788m | 5.5m/s | -47.5°C | 2.8% | 17.5hPa | 2.6V | 03:21:42 | 02:00:25 | 00:00:00 | |
| BIOWL1-15 | 2026-09-01 06:31:50 | 49.73938 | 8.47444 | 317° | 9km/h | 27810m | 5.5m/s | -47.7°C | 0% | 17.5hPa | 2.6V | 03:22:16 | 02:00:29 | 00:00:00 | |
| HSKMA3-T | 2026-09-01 06:31:49 | 49.73936 | 8.47447 | 304° | 9km/h | 27804m | 6.5m/s | -47.5°C | 0% | 17.5hPa | 2.7V | 03:22:16 | 02:00:28 | 00:00:00 | |
| AA1-15 | 2026-09-01 06:31:47 | 49.73935 | 8.47454 | 259° | 11km/h | 27793m | 4.8m/s | -47.5°C | 0% | 17.5hPa | 2.7V | 03:22:16 | 02:00:26 | 00:00:00 | |
| DO3MHA-11 | 2026-09-01 06:31:46 | 49.73936 | 8.47458 | 238° | 11km/h | 27788m | 5.4m/s | -47.4°C | 2.8% | 17.5hPa | 2.6V | 03:21:00 | 02:00:25 | 00:00:00 | |
| DM0DOS-11 | 2026-09-01 06:31:45 | 49.73949 | 8.47474 | 284° | 9km/h | 27754m | 5.3m/s | -47.7°C | 3% | 17.6hPa | 2.6V | 03:21:48 | 02:00:19 | 00:00:00 | |
| DL1XH-west | 2026-09-01 06:31:43 | 49.73944 | 8.47466 | 203° | 15km/h | 27770m | 4.8m/s | -47.6°C | 0% | 17.6hPa | 2.7V | 03:22:16 | 02:00:22 | 00:00:00 | |
| DF8AY | 2026-09-01 06:31:42 | 49.73947 | 8.47468 | 214° | 13km/h | 27765m | 5.4m/s | 0°C | 0% | 0hPa | 2.7V | 18:12:15 | 02:00:21 | 00:00:00 | |
| DL1NUX | 2026-09-01 06:31:41 | 49.73943 | 8.47481 | 343° | 4km/h | 27731m | 5m/s | -47.7°C | 2.9% | 17.7hPa | 2.6V | 03:21:52 | 02:00:15 | 00:00:00 | |
| BIOWL1-15 | 2026-09-01 06:31:40 | 49.73949 | 8.47474 | 285° | 9km/h | 27754m | 5.3m/s | -47.7°C | 0% | 17.6hPa | 2.6V | 03:22:16 | 02:00:19 | 00:00:00 | |
| HSKMA3-T | 2026-09-01 06:31:38 | 49.73946 | 8.47480 | 328° | 9km/h | 27743m | 6.1m/s | -47.6°C | 0% | 17.6hPa | 2.7V | 03:22:16 | 02:00:17 | 00:00:00 | |
| AA1-15 | 2026-09-01 06:31:37 | 49.73945 | 8.47481 | 342° | 7km/h | 27736m | 5.8m/s | -47.7°C | 0% | 17.7hPa | 2.6V | 03:22:16 | 02:00:16 | 00:00:00 | |
| DB0UT-7 | 2026-09-01 06:31:37 | 49.73945 | 8.47481 | 342° | 13km/h | 27737m | 5.8m/s | -47.6°C | 3.0% | 17.6hPa | 2.6V | 00:00:00 | 00:00:00 | 00:00:00 | |
| DO3MHA-11 | 2026-09-01 06:31:36 | 49.73943 | 8.47481 | 344° | 9km/h | 27731m | 5.0m/s | -47.7°C | 2.9% | 17.7hPa | 2.6V | 00:00:00 | 02:00:15 | 00:00:00 | |
| DM0DOS-11 | 2026-09-01 06:31:35 | 49.73951 | 8.47491 | 190° | 13km/h | 27698m | 6.5m/s | -47.7°C | 2.9% | 17.8hPa | 2.7V | 03:21:58 | 02:00:09 | 00:00:00 | |
| DL0LBS | 2026-09-01 06:31:34 | 49.73943 | 8.47483 | 242° | 4km/h | 27721m | 5.7m/s | -47.9°C | 0.6% | 17.7hPa | 2.6V | 03:22:00 | 00:00:00 | 00:00:00 | |
| DL1XH1-15 | 2026-09-01 06:31:32 | 49.73960 | 8.47490 | 175° | 13km/h | 27681m | 5.9m/s | -47.6°C | 3% | 17.8hPa | 2.6V | 03:22:01 | 02:00:06 | 00:00:00 | |
| DL1XH-west | 2026-09-01 06:31:32 | 49.73945 | 8.47488 | 222° | 11km/h | 27710m | 4.9m/s | -47.9°C | 0% | 17.8hPa | 2.6V | 03:22:16 | 02:00:11 | 00:00:00 | |
| DB0ND-19 | 2026-09-01 06:31:32 | 49.73948 | 8.47490 | 207° | 11km/h | 27704m | 5.6m/s | -47.8°C | 0.5% | 17.8hPa | 2.6V | 00:00:00 | 00:00:00 | 00:00:00 | |
| DL1XH-15 | 2026-09-01 06:31:30 | 49.73966 | 8.47491 | 196° | 9km/h | 27670m | 5.3m/s | -47.7°C | 3% | 17.9hPa | 2.6V | 03:22:03 | 02:00:04 | 00:00:00 | |
| DF8AY | 2026-09-01 06:31:29 | 49.73954 | 8.47492 | 175° | 13km/h | 27692m | 5.4m/s | 0°C | 0% | 0hPa | 2.7V | 18:12:15 | 02:00:08 | 00:00:00 | |
| HSKMA3-T | 2026-09-01 06:31:27 | 49.73960 | 8.47490 | 176° | 13km/h | 27681m | 5.9m/s | -47.6°C | 0% | 17.8hPa | 2.6V | 03:22:16 | 02:00:06 | 00:00:00 | |
| AA1-15 | 2026-09-01 06:31:26 | 49.73963 | 8.47491 | 189° | 11km/h | 27675m | 5.9m/s | -47.6°C | 0% | 17.8hPa | 2.6V | 03:22:16 | 02:00:05 | 00:00:00 | |
| DO3MHA-11 | 2026-09-01 06:31:26 | 49.73963 | 8.47490 | 189° | 13km/h | 27676m | 5.9m/s | -47.6°C | 3.0% | 17.8hPa | 2.6V | 00:00:00 | 02:00:05 | 00:00:00 | |
| DM0DOS-11 | 2026-09-01 06:31:25 | 49.73977 | 8.47495 | 203° | 15km/h | 27642m | 6.4m/s | -47.8°C | 3% | 17.9hPa | 2.6V | 03:22:08 | 01:59:59 | 00:00:00 | |
| DJ3KS | 2026-09-01 06:31:24 | 49.73966 | 8.47491 | 197° | 9km/h | 27670m | 5.4m/s | 0°C | 0% | 0hPa | 2.7V | 00:00:00 | 00:00:00 | 00:00:00 | |
| DL6DJ-15 | 2026-09-01 06:31:23 | 49.73970 | 8.47493 | 183° | 7km/h | 27658m | 6.2m/s | -47.8°C | 0.6% | 17.9hPa | 2.7V | 00:00:00 | 00:00:00 | 00:00:00 | |
| DL1XH1-15 | 2026-09-01 06:31:22 | 49.73990 | 8.47504 | 199° | 22km/h | 27625m | 6.1m/s | -47.7°C | 2.9% | 18hPa | 2.7V | 03:22:11 | 01:59:56 | 00:00:00 | |
| DL1XH-west | 2026-09-01 06:31:21 | 49.73974 | 8.47493 | 191° | 11km/h | 27647m | 5.1m/s | -47.8°C | 0% | 17.9hPa | 2.6V | 03:22:16 | 02:00:00 | 00:00:00 | |
| BIOWL1-15 | 2026-09-01 06:31:20 | 49.73985 | 8.47501 | 207° | 20km/h | 27631m | 4.7m/s | -47.7°C | 0% | 18hPa | 2.7V | 03:22:16 | 01:59:57 | 00:00:00 | |
| DF8AY | 2026-09-01 06:31:19 | 49.73981 | 8.47497 | 210° | 18km/h | 27636m | 5.3m/s | 0°C | 0% | 0hPa | 2.6V | 18:12:15 | 01:59:58 | 00:00:00 | |
| HSKMA3-T | 2026-09-01 06:31:17 | 49.73990 | 8.47504 | 200° | 22km/h | 27625m | 6.1m/s | -47.7°C | 0% | 18hPa | 2.7V | 03:22:16 | 01:59:56 | 00:00:00 | |
| AA1-15 | 2026-09-01 06:31:16 | 49.73995 | 8.47507 | 190° | 22km/h | 27619m | 6m/s | -47.7°C | 0% | 18hPa | 2.7V | 03:22:16 | 01:59:55 | 00:00:00 | |
| DO3MHA-11 | 2026-09-01 06:31:16 | 49.73995 | 8.47506 | 191° | 15km/h | 27620m | 5.9m/s | -47.6°C | 2.9% | 17.9hPa | 2.7V | 00:00:00 | 01:59:55 | 00:00:00 | |
| DJ2DS-15 | 2026-09-01 06:31:14 | 49.74005 | 8.47508 | 181° | 11km/h | 27609m | 5.0m/s | -47.7°C | 3.0% | 18.0hPa | 2.7V | 00:00:00 | 01:59:53 | 00:00:00 | |
| DJ2DS-15 | 2026-09-01 06:31:13 | 49.74010 | 8.47508 | 181° | 15km/h | 27603m | 6.1m/s | -47.8°C | 0.6% | 18.0hPa | 2.7V | 00:00:00 | 00:00:00 | 00:00:00 | |
| DL1XH1-15 | 2026-09-01 06:31:12 | 49.74026 | 8.47508 | 153° | 11km/h | 27569m | 5.1m/s | -47.7°C | 2.9% | 18.1hPa | 2.7V | 03:22:21 | 01:59:46 | 00:00:00 | |
| BIOWL1-15 | 2026-09-01 06:31:10 | 49.74024 | 8.47510 | 156° | 9km/h | 27575m | 5.9m/s | -47.7°C | 0% | 18.1hPa | 2.7V | 03:23:07 | 01:59:47 | 00:00:00 | |
| DL1XH-west | 2026-09-01 06:31:10 | 49.74019 | 8.47511 | 191° | 11km/h | 27587m | 4.9m/s | -47.7°C | 0% | 18.1hPa | 2.6V | 03:23:07 | 01:59:49 | 00:00:00 | |
| DL1NUX | 2026-09-01 06:31:08 | 49.74038 | 8.47504 | 166° | 13km/h | 27547m | 6.2m/s | -47.6°C | 2.9% | 18.2hPa | 2.7V | 03:22:25 | 01:59:42 | 00:00:00 | |
| HSKMA3-T | 2026-09-01 06:31:06 | 49.74028 | 8.47507 | 164° | 11km/h | 27564m | 6.4m/s | -47.7°C | 0% | 18.1hPa | 2.6V | 03:23:07 | 01:59:45 | 00:00:00 | |
| AA1-15 | 2026-09-01 06:31:05 | 49.74031 | 8.47506 | 174° | 11km/h | 27558m | 5.4m/s | -47.8°C | 0% | 18.1hPa | 2.6V | 03:23:07 | 01:59:44 | 00:00:00 | |
| DF8AY | 2026-09-01 06:31:03 | 49.74037 | 8.47504 | 167° | 13km/h | 27547m | 6.3m/s | 0°C | 0% | 0hPa | 2.7V | 18:12:15 | 01:59:42 | 00:00:00 | |
| DL1XH1-15 | 2026-09-01 06:31:02 | 49.74052 | 8.47502 | 200° | 7km/h | 27515m | 4.5m/s | -47.6°C | 2.9% | 18.3hPa | 2.7V | 03:22:31 | 01:59:36 | 00:00:00 | |
| DL1XH-west | 2026-09-01 06:31:00 | 49.74046 | 8.47500 | 173° | 11km/h | 27530m | 5.6m/s | -47.7°C | 0% | 18.2hPa | 2.6V | 03:23:07 | 01:59:39 | 00:00:00 | |
| DL3AQ-11 | 2026-09-01 06:31:00 | 49.74049 | 8.47500 | 191° | 9km/h | 27525m | 6.0m/s | -47.7°C | 0.5% | 18.2hPa | 2.7V | 00:00:00 | 00:00:00 | 00:00:00 | |
| DL1NUX | 2026-09-01 06:30:58 | 49.74057 | 8.47495 | 114° | 9km/h | 27492m | 5.4m/s | -47.7°C | 2.9% | 18.3hPa | 2.7V | 03:22:35 | 01:59:32 | 00:00:00 | |
| BIOWL1-15 | 2026-09-01 06:30:57 | 49.74053 | 8.47502 | 200° | 7km/h | 27515m | 4.5m/s | -47.6°C | 0% | 18.3hPa | 2.7V | 03:23:07 | 01:59:36 | 00:00:00 | |
| HSKMA3-T | 2026-09-01 06:30:55 | 49.74055 | 8.47501 | 123° | 7km/h | 27503m | 5.7m/s | -47.7°C | 0% | 18.3hPa | 2.6V | 03:23:07 | 01:59:34 | 00:00:00 | |
| AA1-15 | 2026-09-01 06:30:54 | 49.74056 | 8.47499 | 113° | 9km/h | 27498m | 5.2m/s | -47.7°C | 0% | 18.3hPa | 2.6V | 03:23:07 | 01:59:33 | 00:00:00 | |
| DJ2DS-15 | 2026-09-01 06:30:54 | 49.74056 | 8.47499 | 113° | 9km/h | 27498m | 5.1m/s | -47.7°C | 2.9% | 18.3hPa | 2.7V | 00:00:00 | 01:59:33 | 00:00:00 | |
| DL1XH1-15 | 2026-09-01 06:30:52 | 49.74067 | 8.47476 | 139° | 11km/h | 27460m | 4.7m/s | -47.7°C | 3% | 18.4hPa | 2.7V | 03:22:41 | 01:59:26 | 00:00:00 | |
| DF8AY | 2026-09-01 06:30:52 | 49.74058 | 8.47492 | 122° | 9km/h | 27487m | 5.9m/s | 0°C | 0% | 0hPa | 2.7V | 18:12:15 | 01:59:31 | 00:00:00 | |
| DL1XH-west | 2026-09-01 06:30:50 | 49.74061 | 8.47486 | 130° | 11km/h | 27476m | 5.1m/s | -47.7°C | 0% | 18.4hPa | 2.6V | 03:23:07 | 01:59:29 | 00:00:00 | |
| SONDE2-11 | 2026-09-01 06:30:49 | 49.74064 | 8.47479 | 128° | 11km/h | 27465m | 5.0m/s | -47.7°C | 0.5% | 18.4hPa | 2.7V | 00:00:00 | 00:00:00 | 00:00:00 | |
| DL1XH-15 | 2026-09-01 06:30:48 | 49.74076 | 8.47475 | 188° | 9km/h | 27439m | 5.1m/s | -47.8°C | 2.9% | 18.5hPa | 2.7V | 03:22:45 | 01:59:22 | 00:00:00 | |
| BIOWL1-15 | 2026-09-01 06:30:48 | 49.74069 | 8.47474 | 159° | 9km/h | 27455m | 6.2m/s | -47.7°C | 0% | 18.4hPa | 2.7V | 03:23:07 | 01:59:25 | 00:00:00 | |
| DF7PN | 2026-09-01 06:30:47 | 49.74069 | 8.47474 | 159° | 9km/h | 27455m | 6.2m/s | -47.7°C | 0.6% | 18.4hPa | 2.6V | 00:00:00 | 00:00:00 | 00:00:00 | |
| DO3MHA-11 | 2026-09-01 06:30:46 | 49.74069 | 8.47474 | 160° | 9km/h | 27455m | 6.2m/s | -47.7°C | 2.9% | 18.4hPa | 2.6V | 00:00:00 | 01:59:25 | 00:00:00 | |
| DM0DOS-11 | 2026-09-01 06:30:45 | 49.74082 | 8.47470 | 133° | 11km/h | 27423m | 4.6m/s | -47.9°C | 3% | 18.5hPa | 2.6V | 03:22:48 | 01:59:19 | 00:00:00 | |
| HSKMA3-T | 2026-09-01 06:30:44 | 49.74073 | 8.47474 | 195° | 9km/h | 27444m | 4.2m/s | -47.8°C | 0% | 18.5hPa | 2.6V | 03:23:07 | 01:59:23 | 00:00:00 | |
| AA1-15 | 2026-09-01 06:30:43 | 49.74076 | 8.47475 | 188° | 9km/h | 27439m | 5.1m/s | -47.8°C | 0% | 18.5hPa | 2.7V | 03:23:07 | 01:59:22 | 00:00:00 | |
| DF8AY | 2026-09-01 06:30:42 | 49.74078 | 8.47475 | 165° | 9km/h | 27434m | 5.6m/s | 0°C | 0% | 0hPa | 2.7V | 18:12:15 | 01:59:21 | 00:00:00 | |
| DL1XH-west | 2026-09-01 06:30:39 | 49.74084 | 8.47467 | 131° | 11km/h | 27419m | 4.8m/s | -47.9°C | 0% | 18.6hPa | 2.7V | 03:23:07 | 01:59:18 | 00:00:00 | |
| BIOWL1-15 | 2026-09-01 06:30:38 | 49.74088 | 8.47463 | 196° | 4km/h | 27403m | 4.6m/s | -48°C | 0% | 18.6hPa | 2.6V | 03:23:07 | 01:59:15 | 00:00:00 | |
| NBG1-10 | 2026-09-01 06:30:38 | 49.74085 | 8.47464 | 137° | 5km/h | 27414m | 5.8m/s | -47.8°C | 3.0% | 18.5hPa | 2.6V | 03:22:00 | 01:59:17 | 00:00:00 | |
| DB0UT-7 | 2026-09-01 06:30:37 | 49.74087 | 8.47463 | 158° | 5km/h | 27408m | 5.5m/s | -47.9°C | 3.0% | 18.5hPa | 2.6V | 00:00:00 | 00:00:00 | 00:00:00 | |
| DO3MHA-11 | 2026-09-01 06:30:36 | 49.74088 | 8.47463 | 196° | 4km/h | 27403m | 4.6m/s | -48.0°C | 3.0% | 18.6hPa | 2.6V | 00:00:00 | 01:59:15 | 00:00:00 | |
| DM0DOS-11 | 2026-09-01 06:30:35 | 49.74090 | 8.47457 | 121° | 4km/h | 27372m | 6m/s | -48°C | 3% | 18.7hPa | 2.6V | 03:22:58 | 01:59:09 | 00:00:00 | |
| HSKMA3-T | 2026-09-01 06:30:34 | 49.74089 | 8.47463 | 141° | 2km/h | 27393m | 5.8m/s | -48°C | 0% | 18.6hPa | 2.7V | 03:23:07 | 01:59:13 | 00:00:00 | |
| DJ2DS-15 | 2026-09-01 06:30:34 | 49.74089 | 8.47463 | 142° | 5km/h | 27393m | 5.8m/s | -47.9°C | 3.0% | 18.6hPa | 2.7V | 00:00:00 | 01:59:13 | 00:00:00 | |
| DL0LBS | 2026-09-01 06:30:33 | 49.74089 | 8.47462 | 101° | 4km/h | 27388m | 5.2m/s | -48.0°C | 0.6% | 18.7hPa | 2.7V | 03:23:00 | 00:00:00 | 00:00:00 | |
| DL1XH1-15 | 2026-09-01 06:30:32 | 49.74090 | 8.47454 | 83° | 5km/h | 27356m | 6m/s | -48.1°C | 3% | 18.7hPa | 2.7V | 03:23:01 | 01:59:06 | 00:00:00 | |
| AA1-15 | 2026-09-01 06:30:32 | 49.74089 | 8.47460 | 101° | 5km/h | 27383m | 4.7m/s | -48.1°C | 0% | 18.6hPa | 2.7V | 03:23:07 | 01:59:11 | 00:00:00 | |
| DF8AY | 2026-09-01 06:30:30 | 49.74090 | 8.47457 | 121° | 4km/h | 27372m | 6m/s | 0°C | 0% | 0hPa | 2.6V | 18:12:15 | 01:59:09 | 00:00:00 | |
| DL1XH-west | 2026-09-01 06:30:28 | 49.74090 | 8.47456 | 95° | 2km/h | 27362m | 4.8m/s | -48.1°C | 0% | 18.7hPa | 2.7V | 03:23:07 | 01:59:07 | 00:00:00 | |
| BIOWL1-15 | 2026-09-01 06:30:25 | 49.74089 | 8.47448 | 68° | 11km/h | 27346m | 4.2m/s | -48.1°C | 0% | 18.8hPa | 2.6V | 03:23:07 | 01:59:04 | 00:00:00 | |
| DL1XH-15 | 2026-09-01 06:30:24 | 49.74081 | 8.47443 | 326° | 2km/h | 27314m | 5.2m/s | -48.1°C | 3% | 18.9hPa | 2.6V | 03:23:09 | 01:58:58 | 00:00:00 | |
| HSKMA3-T | 2026-09-01 06:30:23 | 49.74086 | 8.47442 | 32° | 7km/h | 27336m | 5.8m/s | -48.1°C | 0% | 18.8hPa | 2.6V | 03:23:07 | 01:59:02 | 00:00:00 | |
| DL1XH1-15 | 2026-09-01 06:30:22 | 49.74081 | 8.47445 | 299° | 4km/h | 27305m | 5.1m/s | -48.1°C | 3% | 18.9hPa | 2.7V | 03:23:11 | 01:58:56 | 00:00:00 | |
| DL1NUX | 2026-09-01 06:30:21 | 49.74080 | 8.47447 | 302° | 7km/h | 27299m | 6m/s | -48°C | 3% | 18.9hPa | 2.6V | 03:23:12 | 01:58:55 | 00:00:00 | |
| AA1-15 | 2026-09-01 06:30:21 | 49.74083 | 8.47442 | 334° | 5km/h | 27326m | 4.8m/s | -48.2°C | 0% | 18.8hPa | 2.7V | 03:23:07 | 01:59:00 | 00:00:00 | |
| DL1XH-west | 2026-09-01 06:30:17 | 49.74081 | 8.47445 | 299° | 4km/h | 27305m | 5.1m/s | -48.1°C | 0% | 18.9hPa | 2.7V | 03:23:58 | 01:58:56 | 00:00:00 | |
| BIOWL1-15 | 2026-09-01 06:30:17 | 49.74079 | 8.47449 | 314° | 9km/h | 27294m | 4.8m/s | -48°C | 0% | 18.9hPa | 2.6V | 03:23:58 | 01:58:54 | 00:00:00 | |
| DF8AY | 2026-09-01 06:30:16 | 49.74080 | 8.47447 | 302° | 7km/h | 27299m | 6.1m/s | 0°C | 0% | 0hPa | 2.6V | 18:12:15 | 01:58:55 | 00:00:00 | |
| HSKMA3-T | 2026-09-01 06:30:12 | 49.74073 | 8.47451 | 31° | 9km/h | 27278m | 5.5m/s | -48°C | 0% | 19hPa | 2.6V | 03:23:58 | 01:58:51 | 00:00:00 | |
| AA1-15 | 2026-09-01 06:30:10 | 49.74070 | 8.47447 | 37° | 7km/h | 27268m | 4.9m/s | -48°C | 0% | 19hPa | 2.6V | 03:23:58 | 01:58:49 | 00:00:00 | |
| DL1NUX | 2026-09-01 06:30:08 | 49.74065 | 8.47455 | 275° | 7km/h | 27231m | 5.2m/s | -47.9°C | 3% | 19.1hPa | 2.7V | 03:23:25 | 01:58:42 | 00:00:00 | |
| DL1XH-west | 2026-09-01 06:30:07 | 49.74066 | 8.47447 | 302° | 5km/h | 27252m | 5m/s | -48°C | 0% | 19hPa | 2.7V | 03:23:58 | 01:58:46 | 00:00:00 | |
| DF8AY | 2026-09-01 06:30:05 | 49.74065 | 8.47451 | 285° | 4km/h | 27241m | 5.1m/s | 0°C | 0% | 0hPa | 2.6V | 18:12:15 | 01:58:44 | 00:00:00 | |
| DM0DOS-11 | 2026-09-01 06:30:05 | 49.74062 | 8.47466 | 312° | 11km/h | 27216m | 5m/s | -47.9°C | 2.9% | 19.1hPa | 2.6V | 03:23:28 | 01:58:39 | 00:00:00 | |
| BIOWL1-15 | 2026-09-01 06:30:04 | 49.74065 | 8.47453 | 276° | 5km/h | 27236m | 4.4m/s | -48°C | 0% | 19.1hPa | 2.6V | 03:23:58 | 01:58:43 | 00:00:00 | |
| HSKMA3-T | 2026-09-01 06:30:02 | 49.74064 | 8.47459 | 281° | 9km/h | 27226m | 6m/s | -48°C | 0% | 19.1hPa | 2.7V | 03:23:58 | 01:58:41 | 00:00:00 | |
| AA1-15 | 2026-09-01 06:29:59 | 49.74060 | 8.47469 | 338° | 11km/h | 27210m | 6.1m/s | -48°C | 0% | 19.1hPa | 2.6V | 03:23:58 | 01:58:38 | 00:00:00 | |
| BIOWL1-15 | 2026-09-01 06:29:56 | 49.74044 | 8.47471 | 322° | 11km/h | 27185m | 5.5m/s | -48°C | 0% | 19.2hPa | 2.6V | 03:23:58 | 01:58:33 | 00:00:00 | |
| DL1XH-west | 2026-09-01 06:29:56 | 49.74050 | 8.47469 | 1° | 15km/h | 27196m | 5m/s | -48°C | 0% | 19.2hPa | 2.7V | 03:23:58 | 01:58:35 | 00:00:00 | |
| DM0DOS-11 | 2026-09-01 06:29:55 | 49.74042 | 8.47485 | 247° | 7km/h | 27164m | 5.6m/s | -48.1°C | 2.9% | 19.3hPa | 2.6V | 03:23:38 | 01:58:29 | 00:00:00 | |
| DF8AY | 2026-09-01 06:29:53 | 49.74042 | 8.47475 | 293° | 11km/h | 27180m | 4.8m/s | 0°C | 0% | 0hPa | 2.7V | 18:12:15 | 01:58:32 | 00:00:00 | |
| EDDB2-12 | 2026-09-01 06:29:53 | 49.74041 | 8.47479 | 276° | 9km/h | 27175m | 5.0m/s | -48.1°C | 0.6% | 19.3hPa | 2.7V | 00:00:00 | 00:00:00 | 00:00:00 | |
| DL1XH1-15 | 2026-09-01 06:29:52 | 49.74043 | 8.47491 | 287° | 5km/h | 27147m | 6.2m/s | -48.2°C | 3% | 19.3hPa | 2.7V | 03:23:41 | 01:58:26 | 00:00:00 | |
| HSKMA3-T | 2026-09-01 06:29:51 | 49.74042 | 8.47482 | 258° | 9km/h | 27169m | 5.4m/s | -48.1°C | 0% | 19.2hPa | 2.6V | 03:23:58 | 01:58:30 | 00:00:00 | |
| AA1-15 | 2026-09-01 06:29:48 | 49.74043 | 8.47489 | 266° | 5km/h | 27153m | 5.3m/s | -48.1°C | 0% | 19.3hPa | 2.7V | 03:23:58 | 01:58:27 | 00:00:00 | |
| DL1XH-west | 2026-09-01 06:29:46 | 49.74042 | 8.47494 | 300° | 7km/h | 27142m | 4.6m/s | -48.3°C | 0% | 19.4hPa | 2.7V | 03:23:58 | 01:58:25 | 00:00:00 | |
| BIOWL1-15 | 2026-09-01 06:29:45 | 49.74041 | 8.47498 | 208° | 2km/h | 27125m | 5.3m/s | -48.3°C | 0% | 19.4hPa | 2.6V | 03:23:58 | 01:58:22 | 00:00:00 | |
| DO3MHA-11 | 2026-09-01 06:29:45 | 49.74041 | 8.47496 | 310° | 7km/h | 27137m | 4.9m/s | -48.2°C | 3.0% | 19.3hPa | 2.6V | 03:23:00 | 01:58:24 | 00:00:00 | |
| DL1XH-15 | 2026-09-01 06:29:44 | 49.74044 | 8.47505 | 256° | 11km/h | 27106m | 5.2m/s | -48.3°C | 3% | 19.4hPa | 2.6V | 03:23:49 | 01:58:18 | 00:00:00 | |
| DL1XH1-15 | 2026-09-01 06:29:42 | 49.74045 | 8.47513 | 262° | 11km/h | 27096m | 5m/s | -48.4°C | 3% | 19.5hPa | 2.6V | 03:23:51 | 01:58:16 | 00:00:00 | |
| DF8AY | 2026-09-01 06:29:41 | 49.74042 | 8.47499 | 219° | 5km/h | 27116m | 4.2m/s | 0°C | 0% | 0hPa | 2.7V | 18:12:15 | 01:58:20 | 00:00:00 | |
| HSKMA3-T | 2026-09-01 06:29:40 | 49.74043 | 8.47501 | 240° | 7km/h | 27111m | 5.5m/s | -48.3°C | 0% | 19.4hPa | 2.7V | 03:23:58 | 01:58:19 | 00:00:00 | |
| DL3AQ-11 | 2026-09-01 06:29:40 | 49.74044 | 8.47505 | 256° | 9km/h | 27106m | 5.2m/s | -48.3°C | 0.6% | 19.4hPa | 2.6V | 00:00:00 | 00:00:00 | 00:00:00 | |
| DF3TZ-5 | 2026-09-01 06:29:39 | 49.74044 | 8.47505 | 256° | 9km/h | 27106m | 5.2m/s | -48.3°C | 0.6% | 19.4hPa | 2.6V | 00:00:00 | 00:00:00 | 00:00:00 | |
| DL1NUX | 2026-09-01 06:29:38 | 49.74047 | 8.47524 | 246° | 5km/h | 27075m | 6m/s | -48.5°C | 3% | 19.5hPa | 2.6V | 03:23:55 | 01:58:12 | 00:00:00 | |
| AA1-15 | 2026-09-01 06:29:37 | 49.74045 | 8.47513 | 263° | 11km/h | 27096m | 5m/s | -48.4°C | 0% | 19.5hPa | 2.6V | 03:23:58 | 01:58:16 | 00:00:00 | |
| DB0UT-7 | 2026-09-01 06:29:37 | 49.74045 | 8.47513 | 263° | 7km/h | 27096m | 5.0m/s | -48.4°C | 3.0% | 19.4hPa | 2.6V | 00:00:00 | 00:00:00 | 00:00:00 | |
| DM0DOS-11 | 2026-09-01 06:29:35 | 49.74050 | 8.47532 | 234° | 7km/h | 27059m | 5.2m/s | -48.7°C | 3% | 19.6hPa | 2.6V | 03:23:58 | 01:58:09 | 00:00:00 | |
| DL1XH-west | 2026-09-01 06:29:35 | 49.74046 | 8.47520 | 242° | 7km/h | 27085m | 5m/s | -48.5°C | 0% | 19.5hPa | 2.7V | 03:23:58 | 01:58:14 | 00:00:00 | |
| BIOWL1-15 | 2026-09-01 06:29:34 | 49.74048 | 8.47527 | 254° | 9km/h | 27069m | 5.6m/s | -48.6°C | 0% | 19.6hPa | 2.7V | 03:23:58 | 01:58:11 | 00:00:00 | |
| HSKMA3-T | 2026-09-01 06:29:29 | 49.74051 | 8.47534 | 209° | 7km/h | 27053m | 6m/s | -48.8°C | 0% | 19.6hPa | 2.6V | 03:24:49 | 01:58:08 | 00:00:00 | |
| DG1MJG | 2026-09-01 06:29:29 | 49.74051 | 8.47534 | 210° | 5km/h | 27053m | 6.0m/s | 0°C | 0% | 0hPa | 2.6V | 00:00:00 | 00:00:00 | 00:00:00 | |
| DL1NUX | 2026-09-01 06:29:28 | 49.74053 | 8.47540 | 332° | 4km/h | 27022m | 5.8m/s | -48.9°C | 3% | 19.7hPa | 2.6V | 03:24:05 | 01:58:02 | 00:00:00 | |
| AA1-15 | 2026-09-01 06:29:27 | 49.74053 | 8.47535 | 191° | 4km/h | 27042m | 4.9m/s | -48.8°C | 0% | 19.6hPa | 2.7V | 03:24:49 | 01:58:06 | 00:00:00 | |
| DM0DOS-11 | 2026-09-01 06:29:25 | 49.74052 | 8.47540 | 317° | 2km/h | 27006m | 4.5m/s | -49°C | 3.1% | 19.7hPa | 2.7V | 03:24:08 | 01:57:59 | 00:00:00 | |
| DL1XH-west | 2026-09-01 06:29:24 | 49.74054 | 8.47539 | 306° | 4km/h | 27027m | 4.6m/s | -48.8°C | 0% | 19.7hPa | 2.6V | 03:24:49 | 01:58:03 | 00:00:00 | |
| HEMX73-11 | 2026-09-01 06:29:24 | 49.74054 | 8.47538 | 306° | 4km/h | 27027m | 4.6m/s | -48.8°C | 0.6% | 19.7hPa | 2.6V | 03:24:00 | 00:00:00 | 00:00:00 | |
| DL1XH-15 | 2026-09-01 06:29:23 | 49.74051 | 8.47543 | 278° | 9km/h | 26996m | 5.9m/s | -49.1°C | 3.1% | 19.8hPa | 2.6V | 03:24:10 | 01:57:57 | 00:00:00 | |
| BIOWL1-15 | 2026-09-01 06:29:22 | 49.74052 | 8.47540 | 9° | 2km/h | 27016m | 5.6m/s | -49°C | 0% | 19.7hPa | 2.6V | 03:24:49 | 01:58:01 | 00:00:00 | |
| HSKMA3-T | 2026-09-01 06:29:19 | 49.74051 | 8.47541 | 284° | 5km/h | 27001m | 5.7m/s | -49.1°C | 0% | 19.8hPa | 2.7V | 03:24:49 | 01:57:58 | 00:00:00 | |
| DL6DJ-15 | 2026-09-01 06:29:19 | 49.74051 | 8.47543 | 278° | 9km/h | 26996m | 5.9m/s | -49.2°C | 0.6% | 19.8hPa | 2.6V | 00:00:00 | 00:00:00 | 00:00:00 | |
| DL1NUX | 2026-09-01 06:29:18 | 49.74052 | 8.47563 | 261° | 7km/h | 26969m | 4.6m/s | -49.2°C | 3.1% | 19.9hPa | 2.6V | 03:24:15 | 01:57:52 | 00:00:00 | |
| AA1-15 | 2026-09-01 06:29:16 | 49.74051 | 8.47552 | 265° | 13km/h | 26985m | 5.4m/s | -49.1°C | 0% | 19.8hPa | 2.6V | 03:24:49 | 01:57:55 | 00:00:00 | |
| BIOWL1-15 | 2026-09-01 06:29:15 | 49.74051 | 8.47568 | 318° | 9km/h | 26957m | 5.8m/s | -49.3°C | 0% | 19.9hPa | 2.7V | 03:24:49 | 01:57:50 | 00:00:00 | |
| DO3MHA-11 | 2026-09-01 06:29:15 | 49.74051 | 8.47556 | 258° | 9km/h | 26979m | 6.0m/s | -49.1°C | 3.1% | 19.8hPa | 2.6V | 00:00:00 | 01:57:54 | 00:00:00 | |
| DJ2DS-15 | 2026-09-01 06:29:14 | 49.74052 | 8.47560 | 249° | 11km/h | 26974m | 4.6m/s | -49.2°C | 3.1% | 19.8hPa | 2.6V | 00:00:00 | 01:57:53 | 00:00:00 | |
| DL1XH-15 | 2026-09-01 06:29:13 | 49.74044 | 8.47573 | 347° | 9km/h | 26942m | 6m/s | -49.4°C | 3.1% | 19.9hPa | 2.6V | 03:24:20 | 01:57:47 | 00:00:00 | |
| DL1XH-west | 2026-09-01 06:29:13 | 49.74052 | 8.47563 | 262° | 7km/h | 26969m | 4.6m/s | -49.2°C | 0% | 19.9hPa | 2.6V | 03:24:49 | 01:57:52 | 00:00:00 | |
| DL1XH1-15 | 2026-09-01 06:29:12 | 49.74042 | 8.47574 | 350° | 7km/h | 26936m | 4.8m/s | -49.5°C | 3.2% | 20hPa | 2.6V | 03:24:21 | 01:57:46 | 00:00:00 | |
| HSKMA3-T | 2026-09-01 06:29:09 | 49.74046 | 8.47572 | 341° | 11km/h | 26947m | 5.2m/s | -49.4°C | 0% | 19.9hPa | 2.6V | 03:24:49 | 01:57:48 | 00:00:00 | |
| DL1NUX | 2026-09-01 06:29:08 | 49.74035 | 8.47583 | 304° | 15km/h | 26915m | 5m/s | -49.5°C | 3.1% | 20hPa | 2.6V | 03:24:25 | 01:57:42 | 00:00:00 | |
| DF3TZ-5 | 2026-09-01 06:29:08 | 49.74044 | 8.47573 | 347° | 7km/h | 26942m | 6.0m/s | -49.4°C | 0.6% | 20.0hPa | 2.6V | 00:00:00 | 00:00:00 | 00:00:00 | |
| DB0UT-7 | 2026-09-01 06:29:07 | 49.74042 | 8.47573 | 351° | 15km/h | 26936m | 4.8m/s | -49.4°C | 3.2% | 19.9hPa | 2.6V | 03:24:00 | 01:57:46 | 00:00:00 | |
| DM0DOS-11 | 2026-09-01 06:29:05 | 49.74031 | 8.47598 | 280° | 13km/h | 26899m | 5.3m/s | -49.6°C | 3.2% | 20.1hPa | 2.7V | 03:24:28 | 01:57:39 | 00:00:00 | |
| AA1-15 | 2026-09-01 06:29:05 | 49.74039 | 8.47576 | 321° | 7km/h | 26926m | 5.8m/s | -49.4°C | 0% | 20hPa | 2.7V | 03:24:49 | 01:57:44 | 00:00:00 | |
| DO3MHA-11 | 2026-09-01 06:29:05 | 49.74039 | 8.47576 | 321° | 13km/h | 26927m | 5.7m/s | -49.4°C | 3.2% | 20.0hPa | 2.7V | 03:24:00 | 01:57:44 | 00:00:00 | |
| DL1XH-15 | 2026-09-01 06:29:03 | 49.74030 | 8.47608 | 286° | 15km/h | 26888m | 6.2m/s | -49.6°C | 3.1% | 20.1hPa | 2.7V | 03:24:30 | 01:57:37 | 00:00:00 | |
| DL1XH-west | 2026-09-01 06:29:03 | 49.74035 | 8.47583 | 305° | 15km/h | 26915m | 5m/s | -49.5°C | 0% | 20hPa | 2.6V | 03:24:49 | 01:57:42 | 00:00:00 | |
| DL1XH1-15 | 2026-09-01 06:29:02 | 49.74028 | 8.47614 | 291° | 15km/h | 26882m | 5.3m/s | -49.7°C | 3.2% | 20.1hPa | 2.6V | 03:24:31 | 01:57:36 | 00:00:00 | |
| BIOWL1-15 | 2026-09-01 06:29:01 | 49.74032 | 8.47593 | 288° | 15km/h | 26904m | 6.1m/s | -49.6°C | 0% | 20.1hPa | 2.6V | 03:24:49 | 01:57:40 | 00:00:00 | |
| HSKMA3-T | 2026-09-01 06:28:59 | 49.74030 | 8.47603 | 281° | 13km/h | 26894m | 5.2m/s | -49.7°C | 0% | 20.1hPa | 2.7V | 03:24:49 | 01:57:38 | 00:00:00 | |
| DB0ND-19 | 2026-09-01 06:28:57 | 49.74027 | 8.47619 | 291° | 13km/h | 26877m | 5.2m/s | -49.8°C | 0.6% | 20.2hPa | 2.7V | 00:00:00 | 00:00:00 | 00:00:00 | |
| DM0DOS-11 | 2026-09-01 06:28:55 | 49.74025 | 8.47649 | 289° | 16km/h | 26843m | 5.4m/s | -50°C | 3.2% | 20.3hPa | 2.7V | 03:24:38 | 01:57:29 | 00:00:00 | |
| AA1-15 | 2026-09-01 06:28:54 | 49.74025 | 8.47629 | 270° | 11km/h | 26865m | 5.6m/s | -49.8°C | 0% | 20.2hPa | 2.7V | 03:24:49 | 01:57:33 | 00:00:00 | |
| DL1XH-west | 2026-09-01 06:28:53 | 49.74026 | 8.47633 | 263° | 11km/h | 26860m | 4.5m/s | -49.8°C | 0% | 20.2hPa | 2.7V | 03:24:49 | 01:57:32 | 00:00:00 | |
| DL1XH1-15 | 2026-09-01 06:28:52 | 49.74021 | 8.47669 | 270° | 18km/h | 26827m | 5.9m/s | -50.1°C | 3.3% | 20.3hPa | 2.6V | 03:24:41 | 01:57:26 | 00:00:00 | |
| BIOWL1-15 | 2026-09-01 06:28:50 | 49.74025 | 8.47649 | 289° | 16km/h | 26843m | 5.4m/s | -50°C | 0% | 20.3hPa | 2.7V | 03:24:49 | 01:57:29 | 00:00:00 | |
| HSKMA3-T | 2026-09-01 06:28:48 | 49.74022 | 8.47662 | 283° | 18km/h | 26833m | 5.7m/s | -50°C | 0% | 20.3hPa | 2.6V | 03:24:49 | 01:57:27 | 00:00:00 | |
| DL6DJ-15 | 2026-09-01 06:28:48 | 49.74021 | 8.47669 | 270° | 16km/h | 26827m | 5.9m/s | -50.1°C | 0.7% | 20.3hPa | 2.6V | 00:00:00 | 00:00:00 | 00:00:00 | |
| DL1NUX | 2026-09-01 06:28:47 | 49.74024 | 8.47706 | 270° | 18km/h | 26800m | 4.8m/s | -50.2°C | 3.4% | 20.4hPa | 2.6V | 03:24:46 | 01:57:21 | 00:00:00 | |
| DM3KS-11 | 2026-09-01 06:28:46 | 49.74022 | 8.47676 | 259° | 18km/h | 26821m | 5.4m/s | -50.1°C | 0.6% | 20.3hPa | 2.6V | 00:00:00 | 00:00:00 | 00:00:00 | |
| DM0DOS-11 | 2026-09-01 06:28:45 | 49.74025 | 8.47719 | 253° | 15km/h | 26789m | 6.2m/s | -50.2°C | 3.3% | 20.4hPa | 2.6V | 03:24:48 | 01:57:19 | 00:00:00 | |
| DD1CC8 | 2026-09-01 06:28:44 | 49.74023 | 8.47691 | 261° | 18km/h | 26811m | 5.9m/s | -50.2°C | 0.6% | 20.4hPa | 2.7V | 00:00:00 | 00:00:00 | 00:00:00 | |
| DL1XH-west | 2026-09-01 06:28:43 | 49.74024 | 8.47698 | 267° | 20km/h | 26805m | 5.6m/s | -50.3°C | 0% | 20.4hPa | 2.7V | 03:24:49 | 01:57:22 | 00:00:00 | |
| BIOWL1-15 | 2026-09-01 06:28:39 | 49.74026 | 8.47723 | 239° | 13km/h | 26783m | 5.7m/s | -50.2°C | 0% | 20.5hPa | 2.7V | 03:24:49 | 01:57:18 | 00:00:00 | |
| DL8DAS-15 | 2026-09-01 06:28:39 | 49.74026 | 8.47723 | 240° | 13km/h | 26783m | 5.7m/s | -50.2°C | 0.7% | 20.5hPa | 2.7V | 03:24:00 | 00:00:00 | 00:00:00 | |
| DB0UT-9 | 2026-09-01 06:28:38 | 49.74026 | 8.47723 | 240° | 13km/h | 26783m | 5.7m/s | -50.2°C | 0.7% | 20.5hPa | 2.7V | 03:24:00 | 00:00:00 | 00:00:00 | |
| DL1NUX | 2026-09-01 06:28:37 | 49.74034 | 8.47743 | 215° | 7km/h | 26743m | 5.3m/s | -50.1°C | 3.3% | 20.6hPa | 2.7V | 03:24:56 | 01:57:11 | 00:00:00 | |
| HSKMA3-T | 2026-09-01 06:28:37 | 49.74029 | 8.47730 | 240° | 9km/h | 26771m | 6.3m/s | -50.3°C | 0% | 20.5hPa | 2.7V | 03:25:40 | 01:57:16 | 00:00:00 | |
| DB0UT-7 | 2026-09-01 06:28:37 | 49.74029 | 8.47730 | 240° | 7km/h | 26772m | 6.2m/s | -50.2°C | 3.3% | 20.4hPa | 2.6V | 00:00:00 | 00:00:00 | 00:00:00 | |
| KANTATE | 2026-09-01 06:28:36 | 49.74029 | 8.47730 | 241° | 9km/h | 26772m | 6.3m/s | -50.3°C | 0.7% | 20.5hPa | 2.6V | 00:00:00 | 00:00:00 | 00:00:00 | |
| DM0DOS-11 | 2026-09-01 06:28:35 | 49.74036 | 8.47747 | 249° | 5km/h | 26731m | 6m/s | -50.2°C | 3.4% | 20.6hPa | 2.6V | 03:24:58 | 01:57:09 | 00:00:00 | |
| DL1XH-west | 2026-09-01 06:28:32 | 49.74034 | 8.47743 | 215° | 7km/h | 26743m | 5.3m/s | -50.1°C | 0% | 20.6hPa | 2.7V | 03:25:40 | 01:57:11 | 00:00:00 | |
| BIOWL1-15 | 2026-09-01 06:28:31 | 49.74036 | 8.47749 | 255° | 7km/h | 26726m | 4.9m/s | -50.2°C | 0% | 20.6hPa | 2.7V | 03:25:40 | 01:57:08 | 00:00:00 | |
| HSKMA3-T | 2026-09-01 06:28:27 | 49.74038 | 8.47754 | 224° | 9km/h | 26715m | 6.6m/s | -50.3°C | 0% | 20.7hPa | 2.6V | 03:25:40 | 01:57:06 | 00:00:00 | |
| DL1ZP-14 | 2026-09-01 06:28:26 | 49.74043 | 8.47759 | 209° | 13km/h | 26704m | 4.8m/s | -50.3°C | 0.7% | 20.7hPa | 2.6V | 00:00:00 | 00:00:00 | 00:00:00 | |
| DM0DOS-11 | 2026-09-01 06:28:25 | 49.74051 | 8.47768 | 152° | 4km/h | 26677m | 6.2m/s | -50.2°C | 3.3% | 20.8hPa | 2.6V | 03:25:08 | 01:56:59 | 00:00:00 | |
| DO3MHA-11 | 2026-09-01 06:28:25 | 49.74043 | 8.47759 | 210° | 7km/h | 26704m | 4.8m/s | -50.3°C | 3.4% | 20.7hPa | 2.7V | 03:25:00 | 01:57:04 | 00:00:00 | |
| DO3DL | 2026-09-01 06:28:24 | 49.74043 | 8.47759 | 211° | 13km/h | 26704m | 4.8m/s | -50.3°C | 0.7% | 20.7hPa | 2.7V | 03:25:00 | 00:00:00 | 00:00:00 | |
| DL1XH1-15 | 2026-09-01 06:28:22 | 49.74055 | 8.47762 | 137° | 9km/h | 26660m | 5m/s | -50.1°C | 3.2% | 20.8hPa | 2.7V | 03:25:11 | 01:56:56 | 00:00:00 | |
| DL1XH-west | 2026-09-01 06:28:21 | 49.74050 | 8.47768 | 209° | 4km/h | 26683m | 4.5m/s | -50.2°C | 0% | 20.8hPa | 2.6V | 03:25:40 | 01:57:00 | 00:00:00 | |
| BIOWL1-15 | 2026-09-01 06:28:21 | 49.74052 | 8.47767 | 137° | 7km/h | 26671m | 6.2m/s | -50.2°C | 0% | 20.8hPa | 2.6V | 03:25:40 | 01:56:58 | 00:00:00 | |
| HSKMA3-T | 2026-09-01 06:28:17 | 49.74055 | 8.47762 | 137° | 9km/h | 26660m | 5m/s | -50.1°C | 0% | 20.9hPa | 2.7V | 03:25:40 | 01:56:56 | 00:00:00 | |
| DL6DJ-15 | 2026-09-01 06:28:16 | 49.74056 | 8.47760 | 142° | 4km/h | 26655m | 5.8m/s | -50.2°C | 0.7% | 20.9hPa | 2.6V | 00:00:00 | 00:00:00 | 00:00:00 | |
| DM0DOS-11 | 2026-09-01 06:28:15 | 49.74060 | 8.47774 | 209° | 9km/h | 26622m | 4.9m/s | -50°C | 3.3% | 21hPa | 2.6V | 03:25:18 | 01:56:49 | 00:00:00 | |
| DO3MHA-11 | 2026-09-01 06:28:15 | 49.74057 | 8.47760 | 225° | 7km/h | 26649m | 6.2m/s | -50.1°C | 3.3% | 20.8hPa | 2.7V | 00:00:00 | 01:56:54 | 00:00:00 | |
| DJ2DS-15 | 2026-09-01 06:28:14 | 49.74057 | 8.47762 | 278° | 7km/h | 26643m | 5.0m/s | -49.9°C | 3.3% | 20.8hPa | 2.7V | 00:00:00 | 01:56:53 | 00:00:00 | |
| DJ2DS-15 | 2026-09-01 06:28:13 | 49.74057 | 8.47768 | 259° | 9km/h | 26633m | 6.0m/s | -50.0°C | 0.6% | 20.9hPa | 2.7V | 00:00:00 | 00:00:00 | 00:00:00 | |
| DL1XH1-15 | 2026-09-01 06:28:12 | 49.74067 | 8.47777 | 184° | 7km/h | 26606m | 5.9m/s | -50°C | 3.3% | 21hPa | 2.7V | 03:25:21 | 01:56:46 | 00:00:00 | |
| BIOWL1-15 | 2026-09-01 06:28:12 | 49.74064 | 8.47776 | 189° | 9km/h | 26612m | 5.8m/s | -50.1°C | 0% | 21hPa | 2.7V | 03:25:40 | 01:56:47 | 00:00:00 | |
| DL1XH-west | 2026-09-01 06:28:11 | 49.74058 | 8.47771 | 235° | 9km/h | 26627m | 6.1m/s | -50°C | 0% | 21hPa | 2.7V | 03:25:40 | 01:56:50 | 00:00:00 | |
| AA1-15 | 2026-09-01 06:28:10 | 49.74060 | 8.47774 | 210° | 11km/h | 26622m | 4.9m/s | -50°C | 0% | 21hPa | 2.6V | 03:25:40 | 01:56:49 | 00:00:00 | |
| HSKMA3-T | 2026-09-01 06:28:06 | 49.74068 | 8.47776 | 170° | 4km/h | 26600m | 5.7m/s | -49.9°C | 0% | 21hPa | 2.6V | 03:25:40 | 01:56:45 | 00:00:00 | |
| DB0UT-7 | 2026-09-01 06:28:06 | 49.74068 | 8.47776 | 171° | 5km/h | 26601m | 5.6m/s | -49.9°C | 3.3% | 21.0hPa | 2.6V | 00:00:00 | 01:56:45 | 00:00:00 | |
| DO3MHA-11 | 2026-09-01 06:28:05 | 49.74069 | 8.47776 | 138° | 5km/h | 26595m | 5.1m/s | -49.9°C | 3.3% | 21.0hPa | 2.6V | 00:00:00 | 01:56:44 | 00:00:00 | |
| DL1XH-15 | 2026-09-01 06:28:03 | 49.74075 | 8.47762 | 252° | 2km/h | 26555m | 4.8m/s | -50.1°C | 3.3% | 21.2hPa | 2.6V | 03:25:30 | 01:56:37 | 00:00:00 | |
| DM0DOS-11 | 2026-09-01 06:28:02 | 49.74075 | 8.47763 | 230° | 4km/h | 26550m | 6.1m/s | -50.1°C | 3.3% | 21.2hPa | 2.7V | 03:25:31 | 01:56:36 | 00:00:00 | |
| DL1XH-west | 2026-09-01 06:28:00 | 49.74074 | 8.47763 | 120° | 5km/h | 26566m | 6.3m/s | -50.2°C | 0% | 21.1hPa | 2.6V | 03:25:40 | 01:56:39 | 00:00:00 | |
| AA1-15 | 2026-09-01 06:27:59 | 49.74074 | 8.47762 | 146° | 0km/h | 26560m | 5.6m/s | -50.1°C | 0% | 21.2hPa | 2.6V | 03:25:40 | 01:56:38 | 00:00:00 | |
| BIOWL1-15 | 2026-09-01 06:27:59 | 49.74075 | 8.47763 | 230° | 5km/h | 26550m | 6.1m/s | -50.1°C | 0% | 21.2hPa | 2.7V | 03:25:40 | 01:56:36 | 00:00:00 | |
| HSKMA3-T | 2026-09-01 06:27:55 | 49.74078 | 8.47766 | 204° | 7km/h | 26538m | 5.1m/s | -49.9°C | 0% | 21.2hPa | 2.7V | 03:25:40 | 01:56:34 | 00:00:00 | |
| DL1ZP-14 | 2026-09-01 06:27:55 | 49.74079 | 8.47767 | 205° | 5km/h | 26533m | 5.4m/s | -49.9°C | 0.6% | 21.3hPa | 2.6V | 00:00:00 | 00:00:00 | 00:00:00 | |
| DJ2DS-15 | 2026-09-01 06:27:54 | 49.74079 | 8.47767 | 206° | 5km/h | 26533m | 5.4m/s | -49.8°C | 3.3% | 21.2hPa | 2.6V | 00:00:00 | 01:56:33 | 00:00:00 | |
| DL1XH-15 | 2026-09-01 06:27:53 | 49.74082 | 8.47758 | 90° | 11km/h | 26499m | 4.8m/s | 0°C | 0% | 0hPa | 2.6V | 03:25:40 | 01:56:27 | 00:00:00 | |
| NBG1-10 | 2026-09-01 06:27:53 | 49.74080 | 8.47768 | 211° | 5km/h | 26527m | 6.3m/s | -49.8°C | 3.2% | 21.2hPa | 2.6V | 00:00:00 | 01:56:32 | 00:00:00 | |
| DM0DOS-11 | 2026-09-01 06:27:52 | 49.74082 | 8.47754 | 76° | 9km/h | 26494m | 6.5m/s | -50.1°C | 3.3% | 21.4hPa | 2.7V | 03:25:41 | 01:56:26 | 00:00:00 | |
| DL1XH-west | 2026-09-01 06:27:50 | 49.74081 | 8.47765 | 104° | 7km/h | 26509m | 6.3m/s | -50°C | 0% | 21.3hPa | 2.7V | 03:25:40 | 01:56:29 | 00:00:00 | |
| AA1-15 | 2026-09-01 06:27:48 | 49.74082 | 8.47758 | 90° | 11km/h | 26499m | 4.8m/s | -50.1°C | 0% | 21.4hPa | 2.6V | 03:25:40 | 01:56:27 | 00:00:00 | |
| BIOWL1-15 | 2026-09-01 06:27:48 | 49.74081 | 8.47751 | 54° | 7km/h | 26488m | 5.7m/s | -50.1°C | 0% | 21.4hPa | 2.7V | 03:26:31 | 01:56:25 | 00:00:00 | |
| HSKMA3-T | 2026-09-01 06:27:44 | 49.74079 | 8.47748 | 48° | 4km/h | 26476m | 6.2m/s | -50.1°C | 0% | 21.4hPa | 2.6V | 03:26:31 | 01:56:23 | 00:00:00 | |
| SONDE2-11 | 2026-09-01 06:27:43 | 49.74080 | 8.47747 | 177° | 2km/h | 26465m | 5.1m/s | -50.2°C | 0.6% | 21.5hPa | 2.6V | 00:00:00 | 00:00:00 | 00:00:00 | |
| DM0DOS-11 | 2026-09-01 06:27:42 | 49.74080 | 8.47751 | 116° | 0km/h | 26437m | 5.9m/s | -50.2°C | 3.3% | 21.6hPa | 2.6V | 03:25:51 | 01:56:16 | 00:00:00 | |
| DD1CC8 | 2026-09-01 06:27:42 | 49.74080 | 8.47747 | 177° | 2km/h | 26465m | 5.1m/s | -50.2°C | 0.6% | 21.5hPa | 2.7V | 00:00:00 | 00:00:00 | 00:00:00 | |
| DF7PN | 2026-09-01 06:27:41 | 49.74080 | 8.47747 | 226° | 2km/h | 26460m | 5.7m/s | -50.3°C | 0.7% | 21.5hPa | 2.7V | 00:00:00 | 00:00:00 | 00:00:00 | |
| DL1NUX | 2026-09-01 06:27:40 | 49.74079 | 8.47749 | 48° | 4km/h | 26426m | 5.5m/s | -50.3°C | 3.4% | 21.6hPa | 2.7V | 03:25:53 | 01:56:14 | 00:00:00 | |
| DL1XH-west | 2026-09-01 06:27:39 | 49.74080 | 8.47750 | 294° | 4km/h | 26448m | 5.4m/s | -50.3°C | 0% | 21.5hPa | 2.6V | 03:26:31 | 01:56:18 | 00:00:00 | |
| BIOWL1-15 | 2026-09-01 06:27:38 | 49.74080 | 8.47750 | 82° | 2km/h | 26431m | 4.8m/s | -50.2°C | 0% | 21.6hPa | 2.7V | 03:26:31 | 01:56:15 | 00:00:00 | |
| AA1-15 | 2026-09-01 06:27:37 | 49.74080 | 8.47751 | 117° | 0km/h | 26437m | 5.9m/s | -50.2°C | 0% | 21.6hPa | 2.6V | 03:26:31 | 01:56:16 | 00:00:00 | |
| HSKMA3-T | 2026-09-01 06:27:33 | 49.74076 | 8.47747 | 16° | 7km/h | 26414m | 5.3m/s | -50.3°C | 0% | 21.6hPa | 2.6V | 03:26:31 | 01:56:12 | 00:00:00 | |
| DL1XH1-15 | 2026-09-01 06:27:32 | 49.74073 | 8.47740 | 205° | 2km/h | 26380m | 6m/s | -50.3°C | 3.3% | 21.8hPa | 2.6V | 03:26:01 | 01:56:06 | 00:00:00 | |
| DL1XH-west | 2026-09-01 06:27:29 | 49.74072 | 8.47741 | 106° | 4km/h | 26392m | 5.4m/s | -50.3°C | 0% | 21.7hPa | 2.7V | 03:26:31 | 01:56:08 | 00:00:00 | |
| AA1-15 | 2026-09-01 06:27:26 | 49.74074 | 8.47741 | 215° | 5km/h | 26374m | 5.4m/s | -50.2°C | 0% | 21.8hPa | 2.7V | 03:26:31 | 01:56:05 | 00:00:00 | |
| BIOWL1-15 | 2026-09-01 06:27:25 | 49.74075 | 8.47742 | 207° | 5km/h | 26369m | 5.7m/s | -50.2°C | 0% | 21.8hPa | 2.7V | 03:26:31 | 01:56:04 | 00:00:00 | |
| HSKMA3-T | 2026-09-01 06:27:23 | 49.74078 | 8.47743 | 192° | 7km/h | 26357m | 5m/s | -50°C | 0% | 21.9hPa | 2.6V | 03:26:31 | 01:56:02 | 00:00:00 | |
| DL1XH1-15 | 2026-09-01 06:27:22 | 49.74078 | 8.47751 | 259° | 0km/h | 26324m | 6m/s | -50.1°C | 3.3% | 21.9hPa | 2.6V | 03:26:11 | 01:55:56 | 00:00:00 | |
| DO3MHA-11 | 2026-09-01 06:27:22 | 49.74080 | 8.47744 | 211° | 4km/h | 26352m | 5.7m/s | -49.9°C | 3.3% | 21.8hPa | 2.7V | 00:00:00 | 01:56:01 | 00:00:00 | |
| BIOWL7-15 | 2026-09-01 06:27:21 | 49.74080 | 8.47744 | 212° | 5km/h | 26352m | 5.8m/s | -50.0°C | 0.6% | 21.8hPa | 2.7V | 03:26:00 | 00:00:00 | 00:00:00 | |
| NBG1-10 | 2026-09-01 06:27:20 | 49.74080 | 8.47747 | 291° | 9km/h | 26341m | 5.0m/s | -50.0°C | 3.3% | 21.9hPa | 2.7V | 00:00:00 | 01:55:59 | 00:00:00 | |
| DL1NUX | 2026-09-01 06:27:19 | 49.74080 | 8.47750 | 184° | 4km/h | 26308m | 5.6m/s | -50.1°C | 3.3% | 22hPa | 2.7V | 03:26:14 | 01:55:53 | 00:00:00 | |
| DL1XH-west | 2026-09-01 06:27:18 | 49.74079 | 8.47750 | 305° | 4km/h | 26330m | 5.8m/s | -50.1°C | 0% | 21.9hPa | 2.6V | 03:26:31 | 01:55:57 | 00:00:00 | |
| AA1-15 | 2026-09-01 06:27:16 | 49.74079 | 8.47751 | 143° | 4km/h | 26319m | 5.3m/s | -50.1°C | 0% | 22hPa | 2.6V | 03:26:31 | 01:55:55 | 00:00:00 | |
| BIOWL1-15 | 2026-09-01 06:27:15 | 49.74080 | 8.47750 | 153° | 4km/h | 26313m | 5.2m/s | -50.1°C | 0% | 22hPa | 2.7V | 03:26:31 | 01:55:54 | 00:00:00 | |
| HSKMA3-T | 2026-09-01 06:27:12 | 49.74081 | 8.47753 | 254° | 7km/h | 26296m | 5.2m/s | -50.2°C | 0% | 22.1hPa | 2.6V | 03:26:31 | 01:55:51 | 00:00:00 | |
| DL1XH-west | 2026-09-01 06:27:08 | 49.74088 | 8.47768 | 233° | 16km/h | 26274m | 5.8m/s | -50.2°C | 0% | 22.1hPa | 2.7V | 03:26:31 | 01:55:47 | 00:00:00 | |
| AA1-15 | 2026-09-01 06:27:05 | 49.74095 | 8.47784 | 229° | 15km/h | 26257m | 5.6m/s | -50.3°C | 0% | 22.2hPa | 2.6V | 03:26:31 | 01:55:44 | 00:00:00 | |
| BIOWL1-15 | 2026-09-01 06:27:04 | 49.74097 | 8.47788 | 219° | 13km/h | 26251m | 6.2m/s | -50.4°C | 0% | 22.2hPa | 2.7V | 03:26:31 | 01:55:43 | 00:00:00 | |
| HSKMA3-T | 2026-09-01 06:27:02 | 49.74102 | 8.47792 | 207° | 7km/h | 26240m | 5m/s | -50.5°C | 0% | 22.2hPa | 2.7V | 03:26:31 | 01:55:41 | 00:00:00 | |
| DL4BBY-15 | 2026-09-01 06:27:02 | 49.74101 | 8.47792 | 208° | 7km/h | 26241m | 4.9m/s | -49.5°C | 0% | 0hPa | 2.6V | 00:00:00 | 00:00:00 | 00:00:00 | |
| DJ2DS-15 | 2026-09-01 06:27:01 | 49.74103 | 8.47795 | 272° | 5km/h | 26229m | 5.6m/s | -50.6°C | 0.7% | 22.3hPa | 2.6V | 00:00:00 | 00:00:00 | 00:00:00 | |
| DB0NH | 2026-09-01 06:27:00 | 49.74103 | 8.47795 | 273° | 7km/h | 26229m | 5.6m/s | -50.6°C | 3.3% | 22.2hPa | 2.6V | 03:26:00 | 01:55:39 | 00:00:00 | |
| DL1NUX | 2026-09-01 06:26:59 | 49.74105 | 8.47812 | 210° | 5km/h | 26198m | 5.3m/s | -50.6°C | 3.3% | 22.4hPa | 2.6V | 03:26:34 | 01:55:33 | 00:00:00 | |
| DL1XH-west | 2026-09-01 06:26:57 | 49.74102 | 8.47805 | 264° | 9km/h | 26214m | 5.7m/s | -50.5°C | 0% | 22.3hPa | 2.7V | 03:26:31 | 01:55:36 | 00:00:00 | |
| AA1-15 | 2026-09-01 06:26:54 | 49.74105 | 8.47812 | 210° | 5km/h | 26198m | 5.3m/s | -50.6°C | 0% | 22.4hPa | 2.6V | 03:27:22 | 01:55:33 | 00:00:00 | |
| BIOWL1-15 | 2026-09-01 06:26:53 | 49.74106 | 8.47813 | 232° | 5km/h | 26192m | 5.7m/s | -50.6°C | 0% | 22.4hPa | 2.6V | 03:27:22 | 01:55:32 | 00:00:00 | |
| DL1ZP-14 | 2026-09-01 06:26:53 | 49.74106 | 8.47815 | 264° | 5km/h | 26187m | 5.8m/s | -50.5°C | 0.7% | 22.4hPa | 2.7V | 00:00:00 | 00:00:00 | 00:00:00 | |
| DM0DOS-11 | 2026-09-01 06:26:52 | 49.74109 | 8.47831 | 237° | 9km/h | 26158m | 5.7m/s | -50.7°C | 3.4% | 22.5hPa | 2.7V | 03:26:41 | 01:55:26 | 00:00:00 | |
| HSKMA3-T | 2026-09-01 06:26:51 | 49.74106 | 8.47818 | 270° | 9km/h | 26181m | 5.3m/s | -50.5°C | 0% | 22.4hPa | 2.7V | 03:27:22 | 01:55:30 | 00:00:00 | |
| DO3MHA-11 | 2026-09-01 06:26:51 | 49.74106 | 8.47818 | 270° | 7km/h | 26181m | 5.2m/s | -50.4°C | 3.4% | 22.4hPa | 2.6V | 00:00:00 | 01:55:30 | 00:00:00 | |
| DL1NUX | 2026-09-01 06:26:49 | 49.74112 | 8.47839 | 243° | 5km/h | 26141m | 4.6m/s | -50.7°C | 3.3% | 22.6hPa | 2.6V | 03:26:44 | 01:55:23 | 00:00:00 | |
| DL1XH-west | 2026-09-01 06:26:46 | 49.74110 | 8.47834 | 242° | 9km/h | 26152m | 6.2m/s | -50.7°C | 0% | 22.5hPa | 2.6V | 03:27:22 | 01:55:25 | 00:00:00 | |
| BIOWL1-15 | 2026-09-01 06:26:43 | 49.74112 | 8.47840 | 205° | 4km/h | 26136m | 6m/s | -50.8°C | 0% | 22.6hPa | 2.7V | 03:27:22 | 01:55:22 | 00:00:00 | |
| HSKMA3-T | 2026-09-01 06:26:41 | 49.74115 | 8.47839 | 132° | 7km/h | 26125m | 4.7m/s | -50.9°C | 0% | 22.7hPa | 2.7V | 03:27:22 | 01:55:20 | 00:00:00 | |
| DO3MHA-11 | 2026-09-01 06:26:41 | 49.74114 | 8.47838 | 132° | 7km/h | 26125m | 4.6m/s | -50.8°C | 3.3% | 0hPa | 2.6V | 00:00:00 | 01:55:20 | 00:00:00 | |
| DD1CC8 | 2026-09-01 06:26:40 | 49.74115 | 8.47835 | 69° | 2km/h | 26115m | 6.3m/s | -50.9°C | 0.7% | 22.7hPa | 2.6V | 00:00:00 | 00:00:00 | 00:00:00 | |
| DL1NUX | 2026-09-01 06:26:39 | 49.74114 | 8.47844 | 239° | 7km/h | 26088m | 5.4m/s | -50.9°C | 3.5% | 22.8hPa | 2.6V | 03:26:54 | 01:55:13 | 00:00:00 | |
| DL1XH-west | 2026-09-01 06:26:35 | 49.74113 | 8.47841 | 265° | 7km/h | 26094m | 5.8m/s | -51°C | 0% | 22.8hPa | 2.7V | 03:27:22 | 01:55:14 | 00:00:00 | |
| BIOWL1-15 | 2026-09-01 06:26:33 | 49.74115 | 8.47847 | 224° | 9km/h | 26083m | 4.8m/s | -50.9°C | 0% | 22.8hPa | 2.6V | 03:27:22 | 01:55:12 | 00:00:00 | |
| DF3TZ-5 | 2026-09-01 06:26:33 | 49.74116 | 8.47849 | 221° | 7km/h | 26078m | 5.2m/s | -50.9°C | 0.7% | 22.8hPa | 2.6V | 00:00:00 | 00:00:00 | 00:00:00 | |
| DM0DOS-11 | 2026-09-01 06:26:32 | 49.74122 | 8.47859 | 202° | 9km/h | 26049m | 5.7m/s | -50.9°C | 3.4% | 22.9hPa | 2.6V | 03:27:01 | 01:55:06 | 00:00:00 | |
| AA1-15 | 2026-09-01 06:26:32 | 49.74116 | 8.47849 | 222° | 7km/h | 26078m | 5.2m/s | -50.9°C | 0% | 22.8hPa | 2.6V | 03:27:22 | 01:55:11 | 00:00:00 | |
| HSKMA3-T | 2026-09-01 06:26:30 | 49.74119 | 8.47853 | 244° | 7km/h | 26066m | 5.3m/s | -51°C | 0% | 22.9hPa | 2.7V | 03:27:22 | 01:55:09 | 00:00:00 | |
| DB0NH | 2026-09-01 06:26:30 | 49.74119 | 8.47853 | 244° | 11km/h | 26067m | 5.3m/s | -50.9°C | 3.4% | 22.8hPa | 2.6V | 00:00:00 | 01:55:09 | 00:00:00 | |
| SONCRA | 2026-09-01 06:26:28 | 49.74122 | 8.47859 | 202° | 7km/h | 26050m | 5.7m/s | -50.9°C | 0.7% | 22.9hPa | 2.6V | 00:00:00 | 00:00:00 | 00:00:00 | |
| DL1NUX | 2026-09-01 06:26:27 | 49.74131 | 8.47866 | 197° | 11km/h | 26022m | 6.2m/s | -50.9°C | 3.5% | 23hPa | 2.6V | 03:27:06 | 01:55:01 | 00:00:00 | |
| BIOWL1-15 | 2026-09-01 06:26:25 | 49.74129 | 8.47864 | 210° | 7km/h | 26027m | 4.7m/s | -50.8°C | 0% | 23hPa | 2.6V | 03:27:22 | 01:55:02 | 00:00:00 | |
| DL1XH-west | 2026-09-01 06:26:24 | 49.74127 | 8.47863 | 217° | 7km/h | 26032m | 5m/s | -50.8°C | 0% | 23hPa | 2.7V | 03:27:22 | 01:55:03 | 00:00:00 | |
| AA1-15 | 2026-09-01 06:26:21 | 49.74134 | 8.47867 | 190° | 15km/h | 26016m | 5.7m/s | -50.8°C | 0% | 23hPa | 2.6V | 03:27:22 | 01:55:00 | 00:00:00 | |
| HSKMA3-T | 2026-09-01 06:26:19 | 49.74142 | 8.47869 | 192° | 15km/h | 26006m | 5.8m/s | -50.6°C | 0% | 23.1hPa | 2.7V | 03:27:22 | 01:54:58 | 00:00:00 | |
| DF2AP-13 | 2026-09-01 06:26:18 | 49.74145 | 8.47870 | 202° | 11km/h | 26000m | 5.9m/s | -50.6°C | 3.3% | 23.0hPa | 2.6V | 00:00:00 | 01:54:57 | 00:00:00 | |
| DL1NUX | 2026-09-01 06:26:17 | 49.74163 | 8.47885 | 213° | 15km/h | 25967m | 6.5m/s | -50.8°C | 3.5% | 23.2hPa | 2.6V | 03:27:16 | 01:54:51 | 00:00:00 | |
| DL1XH-west | 2026-09-01 06:26:13 | 49.74160 | 8.47882 | 207° | 15km/h | 25973m | 4.6m/s | -50.8°C | 0% | 23.2hPa | 2.7V | 03:27:22 | 01:54:52 | 00:00:00 | |
| BIOWL1-15 | 2026-09-01 06:26:12 | 49.74163 | 8.47885 | 214° | 15km/h | 25967m | 6.5m/s | -50.8°C | 0% | 23.2hPa | 2.6V | 03:27:22 | 01:54:51 | 00:00:00 | |
| AA1-15 | 2026-09-01 06:26:10 | 49.74169 | 8.47892 | 215° | 15km/h | 25956m | 5.1m/s | -50.6°C | 0% | 23.2hPa | 2.7V | 03:27:22 | 01:54:49 | 00:00:00 | |
| HSKMA3-T | 2026-09-01 06:26:08 | 49.74176 | 8.47898 | 201° | 18km/h | 25945m | 5m/s | -50.5°C | 0% | 23.3hPa | 2.6V | 03:27:22 | 01:54:47 | 00:00:00 | |
| BIOWL1-15 | 2026-09-01 06:26:05 | 49.74198 | 8.47914 | 197° | 13km/h | 25908m | 5.1m/s | -50.5°C | 0% | 23.4hPa | 2.6V | 03:28:13 | 01:54:40 | 00:00:00 | |
| KANTATE | 2026-09-01 06:26:04 | 49.74187 | 8.47905 | 214° | 13km/h | 25929m | 5.3m/s | -50.6°C | 0.6% | 23.3hPa | 2.7V | 00:00:00 | 00:00:00 | 00:00:00 | |
| DO3DL | 2026-09-01 06:26:03 | 49.74189 | 8.47908 | 218° | 11km/h | 25924m | 4.6m/s | -50.7°C | 0.7% | 23.4hPa | 2.7V | 03:28:00 | 00:00:00 | 00:00:00 | |
| DM0DOS-11 | 2026-09-01 06:26:02 | 49.74208 | 8.47921 | 211° | 9km/h | 25886m | 4.6m/s | -50.7°C | 3.4% | 23.5hPa | 2.7V | 03:27:31 | 01:54:36 | 00:00:00 | |
| DL1XH-west | 2026-09-01 06:26:02 | 49.74194 | 8.47912 | 202° | 13km/h | 25913m | 5.9m/s | -50.6°C | 0% | 23.4hPa | 2.6V | 03:28:13 | 01:54:41 | 00:00:00 | |
| AA1-15 | 2026-09-01 06:25:59 | 49.74204 | 8.47917 | 208° | 11km/h | 25897m | 6.1m/s | -50.6°C | 0% | 23.4hPa | 2.7V | 03:28:13 | 01:54:38 | 00:00:00 | |
| HSKMA3-T | 2026-09-01 06:25:58 | 49.74206 | 8.47919 | 216° | 9km/h | 25891m | 4.9m/s | -50.7°C | 0% | 23.5hPa | 2.7V | 03:28:13 | 01:54:37 | 00:00:00 | |
| SONCRA | 2026-09-01 06:25:57 | 49.74210 | 8.47923 | 195° | 7km/h | 25881m | 6.4m/s | -50.7°C | 0.7% | 23.5hPa | 2.7V | 00:00:00 | 00:00:00 | 00:00:00 | |
| DL8DAS-14 | 2026-09-01 06:25:55 | 49.74212 | 8.47923 | 177° | 7km/h | 25875m | 5.4m/s | -50.8°C | 0.7% | 23.6hPa | 2.7V | 00:00:00 | 00:00:00 | 00:00:00 | |
| DJ2DS-15 | 2026-09-01 06:25:54 | 49.74214 | 8.47923 | 172° | 5km/h | 25870m | 5.2m/s | -50.9°C | 3.4% | 23.5hPa | 2.7V | 00:00:00 | 01:54:33 | 00:00:00 | |
| DB0UT-9 | 2026-09-01 06:25:53 | 49.74213 | 8.47923 | 173° | 7km/h | 25870m | 5.3m/s | -50.9°C | 0.7% | 23.5hPa | 2.7V | 00:00:00 | 00:00:00 | 00:00:00 | |
| DM0DOS-11 | 2026-09-01 06:25:52 | 49.74223 | 8.47925 | 194° | 7km/h | 25832m | 4.9m/s | -51.2°C | 3.4% | 23.7hPa | 2.7V | 03:27:41 | 01:54:26 | 00:00:00 | |
| DL1XH-west | 2026-09-01 06:25:51 | 49.74216 | 8.47923 | 216° | 4km/h | 25853m | 5m/s | -51°C | 0% | 23.6hPa | 2.6V | 03:28:13 | 01:54:30 | 00:00:00 | |
| BIOWL1-15 | 2026-09-01 06:25:50 | 49.74217 | 8.47924 | 197° | 4km/h | 25847m | 6.2m/s | -51°C | 0% | 23.6hPa | 2.6V | 03:28:13 | 01:54:29 | 00:00:00 | |
| AA1-15 | 2026-09-01 06:25:48 | 49.74221 | 8.47924 | 184° | 7km/h | 25836m | 4.5m/s | -51.2°C | 0% | 23.7hPa | 2.7V | 03:28:13 | 01:54:27 | 00:00:00 | |
| HSKMA3-T | 2026-09-01 06:25:47 | 49.74222 | 8.47925 | 194° | 7km/h | 25832m | 4.9m/s | -51.3°C | 0% | 23.7hPa | 2.7V | 03:28:13 | 01:54:26 | 00:00:00 | |
| DL0LBS | 2026-09-01 06:25:44 | 49.74226 | 8.47929 | 215° | 4km/h | 25816m | 4.9m/s | -51.2°C | 0.7% | 23.7hPa | 2.6V | 03:28:00 | 00:00:00 | 00:00:00 | |
| KANTATE | 2026-09-01 06:25:43 | 49.74226 | 8.47929 | 215° | 4km/h | 25816m | 4.9m/s | -51.2°C | 0.7% | 23.7hPa | 2.6V | 00:00:00 | 00:00:00 | 00:00:00 | |
| DM0DOS-11 | 2026-09-01 06:25:42 | 49.74226 | 8.47920 | 85° | 2km/h | 25779m | 6.2m/s | -51.4°C | 3.6% | 23.9hPa | 2.6V | 03:27:51 | 01:54:16 | 00:00:00 | |
| BIOWL1-15 | 2026-09-01 06:25:41 | 49.74227 | 8.47922 | 40° | 4km/h | 25789m | 4.7m/s | -51.4°C | 0% | 23.9hPa | 2.6V | 03:28:13 | 01:54:18 | 00:00:00 | |
| DL1XH-west | 2026-09-01 06:25:40 | 49.74227 | 8.47923 | 64° | 5km/h | 25794m | 6.3m/s | -51.4°C | 0% | 23.8hPa | 2.7V | 03:28:13 | 01:54:19 | 00:00:00 | |
| HSKMA3-T | 2026-09-01 06:25:37 | 49.74226 | 8.47920 | 86° | 2km/h | 25779m | 6.2m/s | -51.4°C | 0% | 23.9hPa | 2.6V | 03:28:13 | 01:54:16 | 00:00:00 | |
| DO1YAY-16 | 2026-09-01 06:25:37 | 49.74226 | 8.47919 | 146° | 4km/h | 25773m | 5.6m/s | -51.3°C | 0.7% | 23.9hPa | 2.6V | 00:00:00 | 00:00:00 | 00:00:00 | |
| DB0UT-7 | 2026-09-01 06:25:36 | 49.74226 | 8.47919 | 147° | 9km/h | 25773m | 5.6m/s | -51.3°C | 3.5% | 23.9hPa | 2.6V | 00:00:00 | 00:00:00 | 00:00:00 | |
| DJ2DS-15 | 2026-09-01 06:25:34 | 49.74228 | 8.47918 | 175° | 9km/h | 25764m | 4.1m/s | -51.3°C | 3.5% | 23.9hPa | 2.6V | 00:00:00 | 01:54:13 | 00:00:00 | |
| DL8DAS-15 | 2026-09-01 06:25:33 | 49.74228 | 8.47918 | 176° | 5km/h | 25764m | 4.2m/s | -51.3°C | 0.8% | 24.0hPa | 2.6V | 00:00:00 | 00:00:00 | 00:00:00 | |
| DM0DOS-11 | 2026-09-01 06:25:32 | 49.74236 | 8.47926 | 155° | 11km/h | 25727m | 4.4m/s | -51.1°C | 3.5% | 24.1hPa | 2.6V | 03:28:01 | 01:54:06 | 00:00:00 | |
| DF8AY | 2026-09-01 06:25:32 | 49.74230 | 8.47920 | 249° | 5km/h | 25753m | 5.5m/s | 0°C | 0% | 0hPa | 2.6V | 18:12:15 | 01:54:11 | 00:00:00 | |
| DL1XH-west | 2026-09-01 06:25:30 | 49.74231 | 8.47925 | 247° | 7km/h | 25743m | 4.7m/s | -51.1°C | 0% | 24hPa | 2.7V | 03:28:13 | 01:54:09 | 00:00:00 | |
| BIOWL1-15 | 2026-09-01 06:25:28 | 49.74234 | 8.47927 | 172° | 7km/h | 25732m | 5.3m/s | -51.1°C | 0% | 24.1hPa | 2.6V | 03:28:13 | 01:54:07 | 00:00:00 | |
| HSKMA3-T | 2026-09-01 06:25:26 | 49.74238 | 8.47924 | 150° | 11km/h | 25722m | 5m/s | -51.2°C | 0% | 24.1hPa | 2.6V | 03:28:13 | 01:54:05 | 00:00:00 | |
| DF8AY | 2026-09-01 06:25:22 | 49.74246 | 8.47917 | 149° | 9km/h | 25700m | 5.8m/s | 0°C | 0% | 0hPa | 2.6V | 18:12:15 | 01:54:01 | 00:00:00 | |
| DM0DOS-11 | 2026-09-01 06:25:22 | 49.74259 | 8.47917 | 217° | 13km/h | 25673m | 4.8m/s | -51°C | 3.5% | 24.2hPa | 2.6V | 03:28:11 | 01:53:56 | 00:00:00 | |
| BIOWL1-15 | 2026-09-01 06:25:21 | 49.74259 | 8.47917 | 217° | 13km/h | 25673m | 4.8m/s | -51°C | 0% | 24.3hPa | 2.6V | 03:28:13 | 01:53:56 | 00:00:00 | |
| DL1XH-west | 2026-09-01 06:25:20 | 49.74250 | 8.47914 | 166° | 11km/h | 25689m | 4.9m/s | -51.1°C | 0% | 24.2hPa | 2.6V | 03:28:13 | 01:53:59 | 00:00:00 | |
| HSKMA3-T | 2026-09-01 06:25:15 | 49.74264 | 8.47923 | 204° | 13km/h | 25663m | 6m/s | -51°C | 0% | 24.3hPa | 2.7V | 03:28:13 | 01:53:54 | 00:00:00 | |
| DJ2DS-15 | 2026-09-01 06:25:14 | 49.74267 | 8.47924 | 185° | 16km/h | 25658m | 5.4m/s | -50.9°C | 3.4% | 24.3hPa | 2.6V | 00:00:00 | 01:53:53 | 00:00:00 | |
| EDDB2-12 | 2026-09-01 06:25:13 | 49.74273 | 8.47923 | 160° | 11km/h | 25648m | 5.0m/s | -50.9°C | 0.7% | 24.4hPa | 2.6V | 00:00:00 | 00:00:00 | 00:00:00 | |
| DM0DOS-11 | 2026-09-01 06:25:12 | 49.74289 | 8.47917 | 166° | 20km/h | 25621m | 5.7m/s | -50.9°C | 3.5% | 24.5hPa | 2.6V | 03:28:21 | 01:53:46 | 00:00:00 | |
| DL1XH-west | 2026-09-01 06:25:09 | 49.74281 | 8.47919 | 172° | 13km/h | 25632m | 4.9m/s | -51°C | 0% | 24.4hPa | 2.7V | 03:29:04 | 01:53:48 | 00:00:00 | |
| BIOWL1-15 | 2026-09-01 06:25:06 | 49.74294 | 8.47915 | 167° | 20km/h | 25615m | 4.9m/s | -50.8°C | 0% | 24.5hPa | 2.6V | 03:29:04 | 01:53:45 | 00:00:00 | |
| AA1-15 | 2026-09-01 06:25:05 | 49.74299 | 8.47914 | 171° | 18km/h | 25610m | 5.6m/s | -50.9°C | 0% | 24.5hPa | 2.6V | 03:29:04 | 01:53:44 | 00:00:00 | |
| HSKMA3-T | 2026-09-01 06:25:04 | 49.74303 | 8.47913 | 179° | 16km/h | 25604m | 5.7m/s | -50.9°C | 0% | 24.5hPa | 2.7V | 03:29:04 | 01:53:43 | 00:00:00 | |
| DL0LBS | 2026-09-01 06:25:04 | 49.74303 | 8.47913 | 180° | 16km/h | 25605m | 5.7m/s | -50.9°C | 0.7% | 24.5hPa | 2.6V | 03:29:00 | 00:00:00 | 00:00:00 | |
| DF1GD-15 | 2026-09-01 06:25:03 | 49.74303 | 8.47913 | 180° | 16km/h | 25605m | 5.7m/s | -50.9°C | 0.7% | 24.5hPa | 2.6V | 03:29:00 | 00:00:00 | 00:00:00 | |
| DM0DOS-11 | 2026-09-01 06:25:02 | 49.74337 | 8.47913 | 188° | 22km/h | 25567m | 5.7m/s | -50.9°C | 3.5% | 24.7hPa | 2.6V | 03:28:31 | 01:53:36 | 00:00:00 | |
| DL1XH-west | 2026-09-01 06:24:58 | 49.74331 | 8.47913 | 182° | 22km/h | 25573m | 6.2m/s | -50.8°C | 0% | 24.7hPa | 2.6V | 03:29:04 | 01:53:37 | 00:00:00 | |
| BIOWL1-15 | 2026-09-01 06:24:55 | 49.74348 | 8.47915 | 180° | 24km/h | 25557m | 5.2m/s | -50.7°C | 0% | 24.7hPa | 2.7V | 03:29:04 | 01:53:34 | 00:00:00 | |
| AA1-15 | 2026-09-01 06:24:54 | 49.74354 | 8.47914 | 171° | 24km/h | 25551m | 6m/s | -50.7°C | 0% | 24.7hPa | 2.7V | 03:29:04 | 01:53:33 | 00:00:00 | |
| HSKMA3-T | 2026-09-01 06:24:53 | 49.74360 | 8.47912 | 164° | 24km/h | 25546m | 4.3m/s | -50.8°C | 0% | 24.8hPa | 2.7V | 03:29:04 | 01:53:32 | 00:00:00 | |
| DM0DOS-11 | 2026-09-01 06:24:52 | 49.74385 | 8.47903 | 171° | 15km/h | 25515m | 6.2m/s | -50.8°C | 3.4% | 24.9hPa | 2.7V | 03:28:41 | 01:53:26 | 00:00:00 | |
| DL1XH-west | 2026-09-01 06:24:48 | 49.74382 | 8.47904 | 176° | 13km/h | 25520m | 4.9m/s | -50.7°C | 0% | 24.9hPa | 2.7V | 03:29:04 | 01:53:27 | 00:00:00 | |
| BIOWL1-15 | 2026-09-01 06:24:45 | 49.74392 | 8.47901 | 166° | 15km/h | 25504m | 4.8m/s | -50.8°C | 0% | 24.9hPa | 2.6V | 03:29:04 | 01:53:24 | 00:00:00 | |
| HSKMA3-T | 2026-09-01 06:24:43 | 49.74399 | 8.47898 | 168° | 13km/h | 25492m | 5.3m/s | -50.8°C | 0% | 25hPa | 2.7V | 03:29:04 | 01:53:22 | 00:00:00 | |
| BIOWL1-15 | 2026-09-01 06:24:40 | 49.74431 | 8.47889 | 158° | 11km/h | 25445m | 5.8m/s | -50.6°C | 0% | 25.2hPa | 2.6V | 03:29:04 | 01:53:13 | 00:00:00 | |
| DL1XH-west | 2026-09-01 06:24:38 | 49.74420 | 8.47892 | 175° | 15km/h | 25466m | 6.3m/s | -50.8°C | 0% | 25.1hPa | 2.7V | 03:29:04 | 01:53:17 | 00:00:00 | |
| HSKMA3-T | 2026-09-01 06:24:32 | 49.74437 | 8.47885 | 160° | 15km/h | 25434m | 5.1m/s | -50.6°C | 0% | 25.2hPa | 2.7V | 03:29:04 | 01:53:11 | 00:00:00 | |
| DL1XH-west | 2026-09-01 06:24:27 | 49.74451 | 8.47882 | 166° | 11km/h | 25408m | 5.8m/s | -50.5°C | 0% | 25.3hPa | 2.6V | 03:29:04 | 01:53:06 | 00:00:00 | |
| BIOWL1-15 | 2026-09-01 06:24:26 | 49.74458 | 8.47876 | 135° | 7km/h | 25391m | 6.3m/s | -50.5°C | 0% | 25.4hPa | 2.6V | 03:29:04 | 01:53:03 | 00:00:00 | |
| DO3DL | 2026-09-01 06:24:25 | 49.74454 | 8.47880 | 154° | 11km/h | 25402m | 5.1m/s | -50.5°C | 0.7% | 25.3hPa | 2.6V | 03:29:00 | 00:00:00 | 00:00:00 | |
| NBG1-10 | 2026-09-01 06:24:24 | 49.74458 | 8.47876 | 136° | 9km/h | 25391m | 6.3m/s | -50.5°C | 3.4% | 25.3hPa | 2.6V | 00:00:00 | 01:53:03 | 00:00:00 | |
| DB0NH | 2026-09-01 06:24:23 | 49.74459 | 8.47874 | 123° | 9km/h | 25386m | 5.3m/s | -50.5°C | 3.4% | 25.3hPa | 2.6V | 00:00:00 | 01:53:02 | 00:00:00 | |
| DL1XH1-15 | 2026-09-01 06:24:22 | 49.74467 | 8.47860 | 152° | 9km/h | 25352m | 5.1m/s | -50.4°C | 3.4% | 25.5hPa | 2.6V | 03:29:11 | 01:52:56 | 00:00:00 | |
| HSKMA3-T | 2026-09-01 06:24:21 | 49.74460 | 8.47870 | 121° | 7km/h | 25375m | 6.2m/s | -50.5°C | 0% | 25.4hPa | 2.7V | 03:29:55 | 01:53:00 | 00:00:00 | |
| BIOWL1-15 | 2026-09-01 06:24:16 | 49.74474 | 8.47854 | 137° | 13km/h | 25337m | 6m/s | -50.4°C | 0% | 25.6hPa | 2.7V | 03:29:55 | 01:52:53 | 00:00:00 | |
| DL1XH-west | 2026-09-01 06:24:16 | 49.74469 | 8.47859 | 152° | 9km/h | 25347m | 4.4m/s | -50.5°C | 0% | 25.5hPa | 2.6V | 03:29:55 | 01:52:55 | 00:00:00 | |
| DJ2DS-15 | 2026-09-01 06:24:14 | 49.74474 | 8.47854 | 138° | 9km/h | 25337m | 6.0m/s | -50.4°C | 3.4% | 25.6hPa | 2.6V | 00:00:00 | 01:52:53 | 00:00:00 | |
| DL1XH1-15 | 2026-09-01 06:24:12 | 49.74483 | 8.47830 | 111° | 11km/h | 25298m | 6.2m/s | -50.3°C | 3.3% | 25.8hPa | 2.6V | 03:29:21 | 01:52:46 | 00:00:00 | |
| HSKMA3-T | 2026-09-01 06:24:11 | 49.74480 | 8.47842 | 121° | 11km/h | 25321m | 6m/s | -50.4°C | 0% | 25.6hPa | 2.6V | 03:29:55 | 01:52:50 | 00:00:00 | |
| AA1-15 | 2026-09-01 06:24:10 | 49.74481 | 8.47839 | 106° | 7km/h | 25315m | 6m/s | -50.4°C | 0% | 25.6hPa | 2.6V | 03:29:55 | 01:52:49 | 00:00:00 | |
| DL1XH-west | 2026-09-01 06:24:05 | 49.74485 | 8.47822 | 120° | 13km/h | 25288m | 4.6m/s | -50.3°C | 0% | 25.8hPa | 2.6V | 03:29:55 | 01:52:44 | 00:00:00 | |
| BIOWL1-15 | 2026-09-01 06:24:03 | 49.74488 | 8.47815 | 126° | 7km/h | 25277m | 5.6m/s | -50.4°C | 0% | 25.8hPa | 2.7V | 03:29:55 | 01:52:42 | 00:00:00 | |
| DM0DOS-11 | 2026-09-01 06:24:02 | 49.74500 | 8.47806 | 177° | 7km/h | 25245m | 6.2m/s | -50.4°C | 3.4% | 25.9hPa | 2.7V | 03:29:31 | 01:52:36 | 00:00:00 | |
| HSKMA3-T | 2026-09-01 06:24:00 | 49.74493 | 8.47809 | 153° | 11km/h | 25261m | 5.7m/s | -50.4°C | 0% | 25.9hPa | 2.6V | 03:29:55 | 01:52:39 | 00:00:00 | |
| AA1-15 | 2026-09-01 06:23:59 | 49.74495 | 8.47807 | 159° | 11km/h | 25256m | 4.3m/s | -50.3°C | 0% | 25.9hPa | 2.6V | 03:29:55 | 01:52:38 | 00:00:00 | |
| BIOWL1-15 | 2026-09-01 06:23:56 | 49.74504 | 8.47797 | 87° | 9km/h | 25217m | 5m/s | -50.4°C | 0% | 26.1hPa | 2.7V | 03:29:55 | 01:52:31 | 00:00:00 | |
| DL1XH-west | 2026-09-01 06:23:54 | 49.74503 | 8.47804 | 121° | 5km/h | 25228m | 6.1m/s | -50.4°C | 0% | 26hPa | 2.6V | 03:29:55 | 01:52:33 | 00:00:00 | |
| HSKMA3-T | 2026-09-01 06:23:49 | 49.74501 | 8.47789 | 46° | 7km/h | 25202m | 3.9m/s | -50.4°C | 0% | 26.1hPa | 2.6V | 03:29:55 | 01:52:28 | 00:00:00 | |
| AA1-15 | 2026-09-01 06:23:48 | 49.74500 | 8.47787 | 66° | 5km/h | 25197m | 5.1m/s | -50.3°C | 0% | 26.1hPa | 2.7V | 03:29:55 | 01:52:27 | 00:00:00 | |
| BIOWL9-15 | 2026-09-01 06:23:47 | 49.74500 | 8.47784 | 97° | 5km/h | 25192m | 5.8m/s | -50.3°C | 0.7% | 26.2hPa | 2.7V | 00:00:00 | 00:00:00 | 00:00:00 | |
| DB0ND-19 | 2026-09-01 06:23:46 | 49.74501 | 8.47781 | 112° | 9km/h | 25186m | 5.3m/s | -50.4°C | 0.7% | 26.2hPa | 2.7V | 00:00:00 | 00:00:00 | 00:00:00 | |
| DL1XH-west | 2026-09-01 06:23:43 | 49.74503 | 8.47771 | 80° | 7km/h | 25169m | 5.5m/s | -50.2°C | 0% | 26.2hPa | 2.7V | 03:29:55 | 01:52:22 | 00:00:00 | |
| DL1XH1-15 | 2026-09-01 06:23:42 | 49.74491 | 8.47754 | 19° | 15km/h | 25137m | 5.8m/s | -50.2°C | 3.3% | 26.4hPa | 2.7V | 03:29:51 | 01:52:16 | 00:00:00 | |
| BIOWL1-15 | 2026-09-01 06:23:42 | 49.74502 | 8.47769 | 52° | 9km/h | 25164m | 4.7m/s | -50.3°C | 0% | 26.3hPa | 2.7V | 03:29:55 | 01:52:21 | 00:00:00 | |
| HSKMA3-T | 2026-09-01 06:23:39 | 49.74497 | 8.47759 | 41° | 13km/h | 25148m | 5m/s | -50.2°C | 0% | 26.3hPa | 2.6V | 03:29:55 | 01:52:18 | 00:00:00 | |
| AA1-15 | 2026-09-01 06:23:37 | 49.74491 | 8.47754 | 20° | 15km/h | 25137m | 5.8m/s | -50.2°C | 0% | 26.4hPa | 2.7V | 03:29:55 | 01:52:16 | 00:00:00 | |
| DO3MHA-11 | 2026-09-01 06:23:37 | 49.74491 | 8.47754 | 20° | 9km/h | 25137m | 5.7m/s | -50.1°C | 3.3% | 26.3hPa | 2.6V | 03:29:00 | 01:52:16 | 00:00:00 | |
| DB0UT-7 | 2026-09-01 06:23:36 | 49.74487 | 8.47752 | 17° | 9km/h | 25132m | 4.7m/s | -50.1°C | 3.3% | 26.3hPa | 2.6V | 00:00:00 | 00:00:00 | 00:00:00 | |
| KANTATE | 2026-09-01 06:23:35 | 49.74484 | 8.47751 | 26° | 11km/h | 25126m | 6.2m/s | -50.2°C | 0.7% | 26.4hPa | 2.6V | 00:00:00 | 00:00:00 | 00:00:00 | |
| DJ2DS-15 | 2026-09-01 06:23:34 | 49.74483 | 8.47749 | 48° | 7km/h | 25120m | 5.8m/s | -50.1°C | 3.3% | 26.4hPa | 2.6V | 03:29:00 | 01:52:13 | 00:00:00 | |
| DF7PN | 2026-09-01 06:23:33 | 49.74482 | 8.47744 | 83° | 5km/h | 25110m | 4.8m/s | -50.2°C | 0.7% | 26.5hPa | 2.7V | 00:00:00 | 00:00:00 | 00:00:00 | |
| DL1XH1-15 | 2026-09-01 06:23:32 | 49.74475 | 8.47734 | 44° | 9km/h | 25082m | 6m/s | -50.2°C | 3.3% | 26.6hPa | 2.7V | 03:30:01 | 01:52:06 | 00:00:00 | |
| DL1XH-west | 2026-09-01 06:23:32 | 49.74482 | 8.47744 | 84° | 5km/h | 25110m | 4.8m/s | -50.2°C | 0% | 26.5hPa | 2.7V | 03:30:46 | 01:52:11 | 00:00:00 | |
| BIOWL1-15 | 2026-09-01 06:23:31 | 49.74481 | 8.47742 | 73° | 5km/h | 25104m | 6.3m/s | -50.2°C | 0% | 26.5hPa | 2.6V | 03:30:46 | 01:52:10 | 00:00:00 | |
| HSKMA3-T | 2026-09-01 06:23:28 | 49.74477 | 8.47737 | 38° | 9km/h | 25088m | 5.6m/s | -50.2°C | 0% | 26.6hPa | 2.7V | 03:30:46 | 01:52:07 | 00:00:00 | |
| AA1-15 | 2026-09-01 06:23:26 | 49.74474 | 8.47732 | 42° | 11km/h | 25077m | 5m/s | -50.2°C | 0% | 26.6hPa | 2.7V | 03:31:37 | 01:52:05 | 00:00:00 | |
| DL1XH-west | 2026-09-01 06:23:22 | 49.74463 | 8.47726 | 17° | 11km/h | 25055m | 6.2m/s | -50.1°C | 0% | 26.7hPa | 2.7V | 03:30:46 | 01:52:01 | 00:00:00 | |
| BIOWL1-15 | 2026-09-01 06:23:20 | 49.74459 | 8.47723 | 32° | 7km/h | 25044m | 4.8m/s | -50.1°C | 0% | 26.8hPa | 2.6V | 03:30:46 | 01:51:59 | 00:00:00 | |
| HSKMA3-T | 2026-09-01 06:23:18 | 49.74456 | 8.47721 | 15° | 7km/h | 25032m | 5.1m/s | -50°C | 0% | 26.8hPa | 2.7V | 03:30:46 | 01:51:57 | 00:00:00 | |
| AA1-15 | 2026-09-01 06:23:15 | 49.74453 | 8.47717 | 90° | 5km/h | 25015m | 5.7m/s | -50.1°C | 0% | 0hPa | 2.6V | 03:31:37 | 01:51:54 | 00:00:00 | |
| DL1XH-west | 2026-09-01 06:23:12 | 49.74452 | 8.47709 | 50° | 9km/h | 24999m | 6.4m/s | -50.2°C | 0% | 26.9hPa | 2.7V | 03:30:46 | 01:51:51 | 00:00:00 | |
| BIOWL1-15 | 2026-09-01 06:23:11 | 49.74445 | 8.47703 | 28° | 11km/h | 24983m | 6.2m/s | -50.2°C | 0% | 27hPa | 2.6V | 03:30:46 | 01:51:48 | 00:00:00 | |
| NBG1-10 | 2026-09-01 06:23:11 | 49.74450 | 8.47706 | 29° | 9km/h | 24994m | 5.0m/s | -50.1°C | 3.3% | 26.9hPa | 2.6V | 00:00:00 | 01:51:50 | 00:00:00 | |
| DL1XH-15 | 2026-09-01 06:23:10 | 49.74436 | 8.47693 | 29° | 11km/h | 24961m | 5.7m/s | 0°C | 0% | 0hPa | 2.6V | 00:00:00 | 01:51:44 | 00:00:00 | |
| HSKMA3-T | 2026-09-01 06:23:07 | 49.74441 | 8.47698 | 39° | 11km/h | 24972m | 4.6m/s | -50.2°C | 0% | 27.1hPa | 2.7V | 03:30:46 | 01:51:46 | 00:00:00 | |
| AA1-15 | 2026-09-01 06:23:04 | 49.74434 | 8.47691 | 34° | 11km/h | 24956m | 5.4m/s | -50.2°C | 0% | 0hPa | 2.6V | 03:31:37 | 01:51:43 | 00:00:00 | |
| DL1XH-west | 2026-09-01 06:23:01 | 49.74429 | 8.47682 | 73° | 7km/h | 24939m | 4.3m/s | -50.3°C | 0% | 27.2hPa | 2.6V | 03:30:46 | 01:51:40 | 00:00:00 | |
| BIOWL1-15 | 2026-09-01 06:22:58 | 49.74425 | 8.47678 | 352° | 9km/h | 24923m | 5.1m/s | -50.4°C | 0% | 27.3hPa | 2.7V | 03:30:46 | 01:51:37 | 00:00:00 | |
| HSKMA3-T | 2026-09-01 06:22:56 | 49.74420 | 8.47680 | 350° | 11km/h | 24913m | 5.9m/s | -50.3°C | 0% | 27.3hPa | 2.7V | 03:30:46 | 01:51:35 | 00:00:00 | |
| AA1-15 | 2026-09-01 06:22:54 | 49.74414 | 8.47680 | 0° | 13km/h | 24901m | 5.4m/s | -50.3°C | 0% | 0hPa | 2.6V | 03:31:37 | 01:51:33 | 00:00:00 | |
| DJ2DS-15 | 2026-09-01 06:22:53 | 49.74410 | 8.47680 | 359° | 9km/h | 24896m | 5.7m/s | -50.2°C | 3.4% | 27.3hPa | 2.7V | 00:00:00 | 01:51:32 | 00:00:00 | |
| DM0DOS-11 | 2026-09-01 06:22:52 | 49.74387 | 8.47677 | 23° | 11km/h | 24863m | 5m/s | -50.3°C | 3.4% | 27.5hPa | 2.7V | 03:30:41 | 01:51:26 | 00:00:00 | |
| DL1XH-west | 2026-09-01 06:22:51 | 49.74401 | 8.47681 | 358° | 20km/h | 24884m | 4.6m/s | -50.2°C | 0% | 27.4hPa | 2.7V | 03:30:46 | 01:51:30 | 00:00:00 | |
| DL1XH-15 | 2026-09-01 06:22:50 | 49.74382 | 8.47675 | 5° | 9km/h | 24852m | 5.5m/s | 0°C | 0% | 0hPa | 2.6V | 00:00:00 | 01:51:24 | 00:00:00 | |
| BIOWL1-15 | 2026-09-01 06:22:47 | 49.74386 | 8.47677 | 24° | 11km/h | 24863m | 5m/s | -50.3°C | 0% | 27.5hPa | 2.7V | 03:30:46 | 01:51:26 | 00:00:00 | |
| HSKMA3-T | 2026-09-01 06:22:45 | 49.74382 | 8.47675 | 5° | 9km/h | 24852m | 5.5m/s | -50.2°C | 0% | 27.5hPa | 2.6V | 03:30:46 | 01:51:24 | 00:00:00 | |
| DB0ND-19 | 2026-09-01 06:22:44 | 49.74380 | 8.47675 | 355° | 5km/h | 24847m | 4.9m/s | -50.2°C | 0.7% | 27.6hPa | 2.7V | 00:00:00 | 00:00:00 | 00:00:00 | |
| AA1-15 | 2026-09-01 06:22:43 | 49.74379 | 8.47675 | 355° | 4km/h | 24841m | 6.7m/s | -50.2°C | 0% | 0hPa | 2.7V | 03:31:37 | 01:51:22 | 00:00:00 | |
| DL1XH-west | 2026-09-01 06:22:41 | 49.74378 | 8.47676 | 286° | 4km/h | 24829m | 5.1m/s | -50.3°C | 0% | 27.7hPa | 2.7V | 03:31:37 | 01:51:20 | 00:00:00 | |
| BIOWL1-15 | 2026-09-01 06:22:38 | 49.74373 | 8.47684 | 356° | 4km/h | 24801m | 4.9m/s | -50°C | 0% | 27.8hPa | 2.7V | 03:31:37 | 01:51:15 | 00:00:00 | |
| HSKMA3-T | 2026-09-01 06:22:34 | 49.74370 | 8.47684 | 10° | 11km/h | 24790m | 6.4m/s | -50°C | 0% | 27.9hPa | 2.6V | 03:31:37 | 01:51:13 | 00:00:00 | |
| DM3KS-11 | 2026-09-01 06:22:34 | 49.74367 | 8.47683 | 11° | 13km/h | 24785m | 4.7m/s | -50.0°C | 0.7% | 27.8hPa | 2.7V | 00:00:00 | 00:00:00 | 00:00:00 | |
| DO3DL | 2026-09-01 06:22:33 | 49.74367 | 8.47683 | 13° | 13km/h | 24785m | 4.7m/s | -50.0°C | 0.7% | 27.8hPa | 2.7V | 03:31:00 | 00:00:00 | 00:00:00 | |
| DM0DOS-11 | 2026-09-01 06:22:32 | 49.74353 | 8.47672 | 7° | 9km/h | 24752m | 6.3m/s | -50.3°C | 3.3% | 28hPa | 2.7V | 03:31:01 | 01:51:06 | 00:00:00 | |
| AA1-15 | 2026-09-01 06:22:32 | 49.74364 | 8.47682 | 16° | 15km/h | 24780m | 4.4m/s | -50.1°C | 0% | 0hPa | 2.7V | 03:31:37 | 01:51:11 | 00:00:00 | |
| DL1XH-west | 2026-09-01 06:22:30 | 49.74358 | 8.47677 | 39° | 11km/h | 24769m | 5.7m/s | -50.1°C | 0% | 27.9hPa | 2.6V | 03:31:37 | 01:51:09 | 00:00:00 | |
| BIOWL1-15 | 2026-09-01 06:22:27 | 49.74348 | 8.47673 | 336° | 7km/h | 24742m | 4.8m/s | -50.2°C | 0% | 28hPa | 2.6V | 03:31:37 | 01:51:04 | 00:00:00 | |
| HSKMA3-T | 2026-09-01 06:22:23 | 49.74346 | 8.47675 | 347° | 4km/h | 24731m | 5.3m/s | -50.2°C | 0% | 28.1hPa | 2.6V | 03:31:37 | 01:51:02 | 00:00:00 | |
| AA1-15 | 2026-09-01 06:22:21 | 49.74344 | 8.47674 | 38° | 7km/h | 24721m | 5m/s | -50.3°C | 0% | 0hPa | 2.7V | 03:31:37 | 01:51:00 | 00:00:00 | |
| DL1XH-west | 2026-09-01 06:22:19 | 49.74340 | 8.47670 | 28° | 13km/h | 24709m | 5.3m/s | -50.4°C | 0% | 28.2hPa | 2.6V | 03:31:37 | 01:50:58 | 00:00:00 | |
| DK5PH-5 | 2026-09-01 06:22:18 | 49.74337 | 8.47668 | 35° | 5km/h | 24704m | 5.0m/s | -50.4°C | 3.5% | 28.2hPa | 2.7V | 00:00:00 | 01:50:57 | 00:00:00 | |
| DL1XH-15 | 2026-09-01 06:22:17 | 49.74329 | 8.47650 | 62° | 5km/h | 24672m | 5.1m/s | 0°C | 0% | 0hPa | 2.7V | 00:00:00 | 01:50:51 | 00:00:00 | |
| BIOWL1-15 | 2026-09-01 06:22:14 | 49.74331 | 8.47654 | 52° | 9km/h | 24682m | 6.2m/s | -50.3°C | 0% | 28.3hPa | 2.6V | 03:31:37 | 01:50:53 | 00:00:00 | |
| HSKMA3-T | 2026-09-01 06:22:12 | 49.74328 | 8.47650 | 63° | 5km/h | 24672m | 5.1m/s | -50.3°C | 0% | 28.3hPa | 2.7V | 03:31:37 | 01:50:51 | 00:00:00 | |
| AA1-15 | 2026-09-01 06:22:10 | 49.74329 | 8.47647 | 122° | 4km/h | 24660m | 4.5m/s | -50.4°C | 0% | 0hPa | 2.6V | 03:31:37 | 01:50:49 | 00:00:00 | |
| DL1XH-west | 2026-09-01 06:22:09 | 49.74329 | 8.47645 | 104° | 4km/h | 24656m | 4.5m/s | -50.4°C | 0% | 28.4hPa | 2.6V | 03:31:37 | 01:50:48 | 00:00:00 | |
| BIOWL1-15 | 2026-09-01 06:22:08 | 49.74321 | 8.47636 | 42° | 9km/h | 24630m | 5.8m/s | -50.2°C | 0% | 28.5hPa | 2.6V | 03:31:37 | 01:50:43 | 00:00:00 | |
| DO3MHA-11 | 2026-09-01 06:22:07 | 49.74328 | 8.47642 | 28° | 5km/h | 24645m | 5.2m/s | -50.3°C | 3.4% | 28.4hPa | 2.7V | 00:00:00 | 01:50:46 | 00:00:00 | |
| DB0UT-7 | 2026-09-01 06:22:06 | 49.74325 | 8.47641 | 25° | 9km/h | 24640m | 4.4m/s | -50.3°C | 3.4% | 28.4hPa | 2.7V | 00:00:00 | 01:50:45 | 00:00:00 | |
| DB0UT-9 | 2026-09-01 06:22:05 | 49.74325 | 8.47641 | 25° | 11km/h | 24640m | 4.5m/s | -50.3°C | 0.7% | 28.5hPa | 2.7V | 03:31:00 | 00:00:00 | 00:00:00 | |
| DL3AQ-11 | 2026-09-01 06:22:04 | 49.74320 | 8.47634 | 56° | 5km/h | 24625m | 4.9m/s | -50.2°C | 0% | 28.5hPa | 2.7V | 00:00:00 | 00:00:00 | 00:00:00 | |
| DM3KS-11 | 2026-09-01 06:22:03 | 49.74319 | 8.47632 | 73° | 4km/h | 24620m | 4.8m/s | -50.2°C | 0.7% | 28.6hPa | 2.7V | 00:00:00 | 00:00:00 | 00:00:00 | |
| DL1XH1-15 | 2026-09-01 06:22:02 | 49.74318 | 8.47633 | 96° | 2km/h | 24594m | 6.3m/s | -50.1°C | 3.3% | 28.7hPa | 2.7V | 03:31:31 | 01:50:36 | 00:00:00 | |
| HSKMA3-T | 2026-09-01 06:22:01 | 49.74319 | 8.47631 | 70° | 0km/h | 24614m | 5.7m/s | -50.1°C | 0% | 28.6hPa | 2.6V | 03:31:37 | 01:50:40 | 00:00:00 | |
| DL1XH-west | 2026-09-01 06:21:59 | 49.74318 | 8.47632 | 294° | 4km/h | 24604m | 4.3m/s | -50.2°C | 0% | 28.6hPa | 2.6V | 03:31:37 | 01:50:38 | 00:00:00 | |
| AA1-15 | 2026-09-01 06:21:57 | 49.74318 | 8.47633 | 97° | 2km/h | 24594m | 6.3m/s | -50.1°C | 0% | 0hPa | 2.7V | 03:31:37 | 01:50:36 | 00:00:00 | |
| BIOWL1-15 | 2026-09-01 06:21:53 | 49.74318 | 8.47626 | 43° | 4km/h | 24574m | 5.6m/s | -50.2°C | 0% | 28.8hPa | 2.6V | 03:31:37 | 01:50:32 | 00:00:00 | |
| DJ2DS-15 | 2026-09-01 06:21:53 | 49.74318 | 8.47626 | 44° | 7km/h | 24574m | 5.5m/s | -50.1°C | 3.3% | 28.7hPa | 2.7V | 00:00:00 | 01:50:32 | 00:00:00 | |
| DM0DOS-11 | 2026-09-01 06:21:52 | 49.74322 | 8.47624 | 155° | 5km/h | 24542m | 5.9m/s | -50.2°C | 3.4% | 28.9hPa | 2.7V | 03:31:41 | 01:50:26 | 00:00:00 | |
| HSKMA3-T | 2026-09-01 06:21:51 | 49.74317 | 8.47626 | 225° | 2km/h | 24564m | 4.7m/s | -50°C | 0% | 28.8hPa | 2.7V | 03:31:37 | 01:50:30 | 00:00:00 | |
| DL3AQ-11 | 2026-09-01 06:21:50 | 49.74318 | 8.47626 | 168° | 2km/h | 24558m | 6.3m/s | -50.0°C | 0.7% | 28.8hPa | 2.6V | 00:00:00 | 00:00:00 | 00:00:00 | |
| DL1XH-15 | 2026-09-01 06:21:49 | 49.74322 | 8.47620 | 73° | 7km/h | 24526m | 5.9m/s | 0°C | 0% | 0hPa | 2.6V | 00:00:00 | 01:50:23 | 00:00:00 | |
| DL1XH-west | 2026-09-01 06:21:48 | 49.74321 | 8.47625 | 160° | 7km/h | 24547m | 4.6m/s | -50.1°C | 0% | 28.9hPa | 2.6V | 03:32:28 | 01:50:27 | 00:00:00 | |
| AA1-15 | 2026-09-01 06:21:46 | 49.74323 | 8.47623 | 130° | 2km/h | 24536m | 5.3m/s | 0°C | 0% | 0hPa | 2.7V | 03:35:01 | 01:50:25 | 00:00:00 | |
| BIOWL1-15 | 2026-09-01 06:21:42 | 49.74321 | 8.47612 | 78° | 11km/h | 24515m | 4.4m/s | -50.1°C | 0% | 29hPa | 2.6V | 03:32:28 | 01:50:21 | 00:00:00 | |
| HSKMA3-T | 2026-09-01 06:21:40 | 49.74320 | 8.47605 | 81° | 7km/h | 24504m | 5.5m/s | -50.2°C | 0% | 29.1hPa | 2.7V | 03:32:28 | 01:50:19 | 00:00:00 | |
| DL1XH-west | 2026-09-01 06:21:37 | 49.74322 | 8.47598 | 128° | 9km/h | 24488m | 5.6m/s | -50.2°C | 0% | 29.1hPa | 2.7V | 03:32:28 | 01:50:16 | 00:00:00 | |
| AA1-15 | 2026-09-01 06:21:34 | 49.74328 | 8.47591 | 162° | 9km/h | 24472m | 5.7m/s | 0°C | 0% | 0hPa | 2.6V | 03:35:01 | 01:50:13 | 00:00:00 | |
| BIOWL1-15 | 2026-09-01 06:21:32 | 49.74332 | 8.47588 | 138° | 7km/h | 24463m | 4.4m/s | -50.3°C | 0% | 29.2hPa | 2.7V | 03:32:28 | 01:50:11 | 00:00:00 | |
| HSKMA3-T | 2026-09-01 06:21:30 | 49.74334 | 8.47581 | 93° | 15km/h | 24451m | 5.4m/s | -50.4°C | 0% | 29.3hPa | 2.7V | 03:32:28 | 01:50:09 | 00:00:00 | |
| DL1XH-west | 2026-09-01 06:21:26 | 49.74332 | 8.47553 | 81° | 15km/h | 24431m | 5m/s | -50.4°C | 0% | 29.4hPa | 2.7V | 03:32:28 | 01:50:05 | 00:00:00 | |
| BIOWL1-15 | 2026-09-01 06:21:25 | 49.74334 | 8.47526 | 110° | 11km/h | 24403m | 6.4m/s | -50.3°C | 0% | 29.5hPa | 2.7V | 03:32:28 | 01:50:00 | 00:00:00 | |
| AA1-15 | 2026-09-01 06:21:22 | 49.74333 | 8.47530 | 107° | 15km/h | 24409m | 4.8m/s | 0°C | 0% | 0hPa | 2.7V | 03:35:01 | 01:50:01 | 00:00:00 | |
| HSKMA3-T | 2026-09-01 06:21:19 | 49.74335 | 8.47518 | 104° | 11km/h | 24392m | 5.2m/s | -50.2°C | 0% | 29.6hPa | 2.6V | 03:32:28 | 01:49:58 | 00:00:00 | |
| DL1XH-west | 2026-09-01 06:21:15 | 49.74336 | 8.47495 | 75° | 15km/h | 24370m | 6.1m/s | -50.3°C | 0% | 29.7hPa | 2.7V | 03:32:28 | 01:49:54 | 00:00:00 | |
| BIOWL1-15 | 2026-09-01 06:21:15 | 49.74331 | 8.47470 | 80° | 18km/h | 24348m | 4.7m/s | -50.4°C | 0% | 29.8hPa | 2.7V | 03:32:28 | 01:49:50 | 00:00:00 | |
| DL1XH-15 | 2026-09-01 06:21:13 | 49.74328 | 8.47454 | 67° | 11km/h | 24332m | 5.2m/s | 0°C | 0% | 0hPa | 2.6V | 00:00:00 | 01:49:47 | 00:00:00 | |
| DJ2DS-15 | 2026-09-01 06:21:13 | 49.74333 | 8.47484 | 72° | 18km/h | 24360m | 5.0m/s | -50.3°C | 3.4% | 29.7hPa | 2.6V | 00:00:00 | 01:49:52 | 00:00:00 | |
| DL1XH1-15 | 2026-09-01 06:21:12 | 49.74327 | 8.47450 | 70° | 11km/h | 24327m | 5.5m/s | -50.4°C | 3.3% | 29.9hPa | 2.6V | 03:32:21 | 01:49:46 | 00:00:00 | |
| AA1-15 | 2026-09-01 06:21:12 | 49.74332 | 8.47477 | 76° | 18km/h | 24354m | 6.1m/s | 0°C | 0% | 0hPa | 2.6V | 03:35:01 | 01:49:51 | 00:00:00 | |
| HSKMA3-T | 2026-09-01 06:21:09 | 49.74329 | 8.47459 | 72° | 13km/h | 24338m | 6.2m/s | -50.3°C | 0% | 29.8hPa | 2.6V | 03:32:28 | 01:49:48 | 00:00:00 | |
| DL1XH-west | 2026-09-01 06:21:05 | 49.74325 | 8.47440 | 71° | 15km/h | 24316m | 4.6m/s | -50.3°C | 0% | 29.9hPa | 2.7V | 03:32:28 | 01:49:44 | 00:00:00 | |
| DM0DOS-11 | 2026-09-01 06:21:02 | 49.74297 | 8.47396 | 36° | 24km/h | 24274m | 5.5m/s | -50.4°C | 3.3% | 30.1hPa | 2.6V | 03:32:31 | 01:49:36 | 00:00:00 | |
| AA1-15 | 2026-09-01 06:21:01 | 49.74315 | 8.47421 | 43° | 20km/h | 24295m | 6m/s | 0°C | 0% | 0hPa | 2.6V | 03:35:01 | 01:49:40 | 00:00:00 | |
| BIOWL1-15 | 2026-09-01 06:21:00 | 49.74311 | 8.47415 | 47° | 24km/h | 24290m | 5.5m/s | -50.4°C | 0% | 30.1hPa | 2.7V | 03:32:28 | 01:49:39 | 00:00:00 | |
| DL3AQ-11 | 2026-09-01 06:21:00 | 49.74306 | 8.47409 | 46° | 24km/h | 24285m | 4.3m/s | -50.3°C | 0.7% | 30.1hPa | 2.6V | 00:00:00 | 00:00:00 | 00:00:00 | |
| SONDE2-11 | 2026-09-01 06:20:59 | 49.74302 | 8.47402 | 42° | 24km/h | 24280m | 5.8m/s | -50.4°C | 0.7% | 30.1hPa | 2.6V | 00:00:00 | 00:00:00 | 00:00:00 | |
| HSKMA3-T | 2026-09-01 06:20:59 | 49.74306 | 8.47409 | 47° | 24km/h | 24285m | 4.3m/s | -50.3°C | 0% | 30.1hPa | 2.7V | 03:33:19 | 01:49:38 | 00:00:00 | |
| DD1CC8 | 2026-09-01 06:20:58 | 49.74302 | 8.47402 | 42° | 24km/h | 24280m | 5.8m/s | -50.4°C | 0.7% | 30.1hPa | 2.6V | 00:00:00 | 00:00:00 | 00:00:00 | |
| DL1XH-15 | 2026-09-01 06:20:57 | 49.74279 | 8.47370 | 45° | 16km/h | 24247m | 5.8m/s | 0°C | 0% | 0hPa | 2.6V | 00:00:00 | 01:49:31 | 00:00:00 | |
| DL1XH-west | 2026-09-01 06:20:54 | 49.74285 | 8.47380 | 48° | 20km/h | 24258m | 5.6m/s | -50.3°C | 0% | 30.2hPa | 2.6V | 03:33:19 | 01:49:33 | 00:00:00 | |
| NBG1-10 | 2026-09-01 06:20:53 | 49.74282 | 8.47375 | 50° | 26km/h | 24253m | 4.8m/s | -50.3°C | 3.3% | 30.2hPa | 2.6V | 00:00:00 | 01:49:32 | 00:00:00 | |
| DM0DOS-11 | 2026-09-01 06:20:52 | 49.74263 | 8.47350 | 36° | 22km/h | 24221m | 4.5m/s | -50.6°C | 3.4% | 30.4hPa | 2.6V | 03:32:41 | 01:49:26 | 00:00:00 | |
| BIOWL1-15 | 2026-09-01 06:20:49 | 49.74270 | 8.47360 | 37° | 16km/h | 24231m | 5.8m/s | -50.5°C | 0% | 30.3hPa | 2.7V | 03:33:19 | 01:49:28 | 00:00:00 | |
| HSKMA3-T | 2026-09-01 06:20:48 | 49.74266 | 8.47355 | 41° | 18km/h | 24226m | 5.1m/s | -50.5°C | 0% | 30.4hPa | 2.6V | 03:33:19 | 01:49:27 | 00:00:00 | |
| DL1XH-15 | 2026-09-01 06:20:47 | 49.74231 | 8.47327 | 26° | 29km/h | 24194m | 4.7m/s | 0°C | 0% | 0hPa | 2.6V | 00:00:00 | 01:49:21 | 00:00:00 | |
| SONCRA | 2026-09-01 06:20:46 | 49.74257 | 8.47345 | 29° | 24km/h | 24216m | 6.3m/s | -50.6°C | 0.7% | 30.4hPa | 2.6V | 00:00:00 | 00:00:00 | 00:00:00 | |
| DL8DAS-14 | 2026-09-01 06:20:45 | 49.74244 | 8.47336 | 21° | 29km/h | 24205m | 5.0m/s | -50.9°C | 0.7% | 30.4hPa | 2.6V | 00:00:00 | 00:00:00 | 00:00:00 | |
| DL1XH-west | 2026-09-01 06:20:43 | 49.74237 | 8.47332 | 22° | 31km/h | 24199m | 5.8m/s | -50.9°C | 0% | 30.5hPa | 2.6V | 03:33:19 | 01:49:22 | 00:00:00 | |
| DL1XH1-15 | 2026-09-01 06:20:42 | 49.74203 | 8.47311 | 17° | 18km/h | 24169m | 5.8m/s | -50.8°C | 3.4% | 30.6hPa | 2.6V | 03:32:51 | 01:49:16 | 00:00:00 | |
| BIOWL1-15 | 2026-09-01 06:20:40 | 49.74208 | 8.47313 | 13° | 20km/h | 24174m | 5.1m/s | -50.8°C | 0% | 30.6hPa | 2.6V | 03:33:19 | 01:49:17 | 00:00:00 | |
| HSKMA3-T | 2026-09-01 06:20:37 | 49.74203 | 8.47311 | 18° | 18km/h | 24169m | 5.8m/s | -50.8°C | 0% | 30.6hPa | 2.6V | 03:33:19 | 01:49:16 | 00:00:00 | |
| DL1XH-west | 2026-09-01 06:20:33 | 49.74184 | 8.47302 | 9° | 26km/h | 24149m | 5.5m/s | -50.8°C | 0% | 30.7hPa | 2.5V | 03:33:19 | 01:49:12 | 00:00:00 | |
| DL1XH1-15 | 2026-09-01 06:20:32 | 49.74135 | 8.47282 | 16° | 37km/h | 24119m | 5.7m/s | -50.8°C | 3.5% | 30.9hPa | 2.6V | 03:33:01 | 01:49:06 | 00:00:00 | |
| BIOWL1-15 | 2026-09-01 06:20:27 | 49.74135 | 8.47282 | 17° | 37km/h | 24119m | 5.7m/s | -50.8°C | 0% | 30.9hPa | 2.6V | 03:33:19 | 01:49:06 | 00:00:00 | |
| DL1XH-west | 2026-09-01 06:20:23 | 49.74105 | 8.47270 | 21° | 24km/h | 24098m | 5.4m/s | -50.8°C | 0% | 31hPa | 2.7V | 03:33:19 | 01:49:02 | 00:00:00 | |
| BIOWL1-15 | 2026-09-01 06:20:17 | 49.74076 | 8.47258 | 17° | 22km/h | 24067m | 5.6m/s | -50.8°C | 0% | 31.1hPa | 2.6V | 03:33:19 | 01:48:56 | 00:00:00 | |
| HSKMA3-T | 2026-09-01 06:20:16 | 49.74070 | 8.47256 | 17° | 24km/h | 24062m | 4.3m/s | -50.8°C | 0% | 31.1hPa | 2.6V | 03:33:19 | 01:48:55 | 00:00:00 | |
| DL1XH-west | 2026-09-01 06:20:12 | 49.74043 | 8.47248 | 8° | 29km/h | 24042m | 4.3m/s | -50.8°C | 0% | 31.2hPa | 2.6V | 03:33:19 | 01:48:51 | 00:00:00 | |
| BIOWL1-15 | 2026-09-01 06:20:06 | 49.74014 | 8.47234 | 21° | 13km/h | 24012m | 4.4m/s | -50.7°C | 0% | 31.4hPa | 2.6V | 03:34:10 | 01:48:45 | 00:00:00 | |
| HSKMA3-T | 2026-09-01 06:20:05 | 49.74011 | 8.47232 | 29° | 13km/h | 24006m | 6.1m/s | -50.7°C | 0% | 31.4hPa | 2.6V | 03:34:10 | 01:48:44 | 00:00:00 | |
| DL1XH-west | 2026-09-01 06:20:01 | 49.73998 | 8.47222 | 15° | 20km/h | 23984m | 4.2m/s | -50.8°C | 0% | 31.5hPa | 2.6V | 03:34:10 | 01:48:40 | 00:00:00 | |
| HSKMA3-T | 2026-09-01 06:19:55 | 49.73970 | 8.47199 | 32° | 18km/h | 23955m | 6m/s | -50.9°C | 0% | 31.7hPa | 2.6V | 03:34:10 | 01:48:34 | 00:00:00 | |
| HARRO8 | 2026-09-01 06:19:55 | 49.73966 | 8.47196 | 19° | 15km/h | 23949m | 5.1m/s | -50.9°C | 0.7% | 31.7hPa | 2.5V | 00:00:00 | 00:00:00 | 00:00:00 | |
| HTAHTA | 2026-09-01 06:19:54 | 49.73962 | 8.47194 | 14° | 13km/h | 23945m | 4.6m/s | -50.9°C | 0.7% | 31.7hPa | 2.5V | 00:00:00 | 00:00:00 | 00:00:00 | |
| DJ2DS-15 | 2026-09-01 06:19:53 | 49.73962 | 8.47194 | 15° | 15km/h | 23945m | 4.6m/s | -50.9°C | 3.4% | 31.6hPa | 2.5V | 00:00:00 | 01:48:32 | 00:00:00 | |
| DM0DOS-11 | 2026-09-01 06:19:52 | 49.73942 | 8.47185 | 9° | 15km/h | 23914m | 3.3m/s | -50.8°C | 3.4% | 31.8hPa | 2.5V | 03:33:41 | 01:48:26 | 00:00:00 | |
| DL1XH-west | 2026-09-01 06:19:51 | 49.73956 | 8.47191 | 22° | 15km/h | 23934m | 5.8m/s | -50.9°C | 0% | 31.8hPa | 2.6V | 03:34:10 | 01:48:30 | 00:00:00 | |
| HSKMA3-T | 2026-09-01 06:19:45 | 49.73934 | 8.47181 | 25° | 18km/h | 23904m | 5.9m/s | -50.9°C | 0% | 31.9hPa | 2.6V | 03:34:10 | 01:48:24 | 00:00:00 | |
| BIOWL1-15 | 2026-09-01 06:19:44 | 49.73930 | 8.47178 | 29° | 18km/h | 23898m | 5m/s | -50.9°C | 0% | 31.9hPa | 2.7V | 03:34:10 | 01:48:23 | 00:00:00 | |
| DL8DAS-14 | 2026-09-01 06:19:43 | 49.73921 | 8.47172 | 23° | 16km/h | 23888m | 4.7m/s | -50.8°C | 0.7% | 32.0hPa | 2.7V | 00:00:00 | 00:00:00 | 00:00:00 | |
| DM0DOS-11 | 2026-09-01 06:19:42 | 49.73904 | 8.47152 | 50° | 15km/h | 23864m | 3.9m/s | -50.9°C | 3.5% | 32.1hPa | 2.7V | 03:33:51 | 01:48:16 | 00:00:00 | |
| DL1XH-west | 2026-09-01 06:19:41 | 49.73917 | 8.47169 | 26° | 18km/h | 23884m | 3.7m/s | -50.8°C | 0% | 32hPa | 2.5V | 03:34:10 | 01:48:20 | 00:00:00 | |
| BIOWL9-15 | 2026-09-01 06:19:39 | 49.73906 | 8.47157 | 47° | 16km/h | 23868m | 4.4m/s | -50.9°C | 0.7% | 32.1hPa | 2.7V | 00:00:00 | 00:00:00 | 00:00:00 | |
| DL1ZP-14 | 2026-09-01 06:19:38 | 49.73904 | 8.47152 | 50° | 15km/h | 23864m | 3.9m/s | -50.9°C | 0.7% | 32.1hPa | 2.7V | 00:00:00 | 00:00:00 | 00:00:00 | |
| DO3MHA-11 | 2026-09-01 06:19:37 | 49.73904 | 8.47152 | 51° | 15km/h | 23864m | 3.9m/s | -50.9°C | 3.5% | 32.0hPa | 2.5V | 03:33:00 | 01:48:16 | 00:00:00 | |
| DK5PH-5 | 2026-09-01 06:19:36 | 49.73901 | 8.47148 | 47° | 15km/h | 23860m | 5.3m/s | -50.8°C | 3.5% | 32.1hPa | 2.5V | 00:00:00 | 01:48:15 | 00:00:00 | |
| DL1XH-15 | 2026-09-01 06:19:35 | 49.73885 | 8.47136 | 40° | 18km/h | 23830m | 4.6m/s | 0°C | 0% | 0hPa | 2.5V | 00:00:00 | 01:48:09 | 00:00:00 | |
| BIOWL1-15 | 2026-09-01 06:19:35 | 49.73895 | 8.47144 | 10° | 11km/h | 23845m | 4.6m/s | -50.9°C | 0% | 32.2hPa | 2.7V | 03:34:10 | 01:48:12 | 00:00:00 | |
| HSKMA3-T | 2026-09-01 06:19:34 | 49.73897 | 8.47145 | 8° | 9km/h | 23849m | 4.5m/s | -50.8°C | 0% | 32.1hPa | 2.6V | 03:34:10 | 01:48:13 | 00:00:00 | |
| DL1XH-west | 2026-09-01 06:19:30 | 49.73885 | 8.47136 | 40° | 18km/h | 23830m | 4.6m/s | -50.8°C | 0% | 32.3hPa | 2.5V | 03:34:10 | 01:48:09 | 00:00:00 | |
| HEMX73-11 | 2026-09-01 06:19:29 | 49.73885 | 8.47136 | 41° | 18km/h | 23831m | 4.6m/s | -50.8°C | 0.7% | 32.3hPa | 2.7V | 03:34:00 | 00:00:00 | 00:00:00 | |
| DM3KS-11 | 2026-09-01 06:19:28 | 49.73876 | 8.47122 | 53° | 16km/h | 23815m | 4.6m/s | -50.8°C | 0.7% | 32.3hPa | 2.7V | 00:00:00 | 00:00:00 | 00:00:00 | |
| DO3MHA-11 | 2026-09-01 06:19:27 | 49.73876 | 8.47122 | 54° | 18km/h | 23815m | 4.5m/s | -50.7°C | 3.4% | 32.3hPa | 2.7V | 00:00:00 | 01:48:06 | 00:00:00 | |
| SONDE2-11 | 2026-09-01 06:19:26 | 49.73871 | 8.47109 | 54° | 20km/h | 23804m | 5.6m/s | -50.8°C | 0.7% | 32.4hPa | 2.6V | 00:00:00 | 00:00:00 | 00:00:00 | |
| DL1XH-15 | 2026-09-01 06:19:25 | 49.73855 | 8.47086 | 23° | 16km/h | 23778m | 5.4m/s | 0°C | 0% | 0hPa | 2.6V | 00:00:00 | 01:47:59 | 00:00:00 | |
| DK7TD | 2026-09-01 06:19:24 | 49.73867 | 8.47103 | 54° | 22km/h | 23798m | 5.4m/s | 0°C | 0% | 0hPa | 2.6V | 18:12:15 | 01:48:03 | 00:00:00 | |
| HSKMA3-T | 2026-09-01 06:19:23 | 49.73864 | 8.47097 | 49° | 18km/h | 23792m | 5.8m/s | -50.9°C | 0% | 32.4hPa | 2.7V | 03:34:10 | 01:48:02 | 00:00:00 | |
| DM0DOS-11 | 2026-09-01 06:19:22 | 49.73844 | 8.47081 | 10° | 13km/h | 23763m | 6m/s | -50.7°C | 3.4% | 32.6hPa | 2.7V | 03:34:11 | 01:47:56 | 00:00:00 | |
| BIOWL1-15 | 2026-09-01 06:19:22 | 49.73861 | 8.47092 | 41° | 15km/h | 23787m | 4.7m/s | -50.9°C | 0% | 32.5hPa | 2.7V | 03:34:10 | 01:48:01 | 00:00:00 | |
| DL1XH-west | 2026-09-01 06:19:19 | 49.73851 | 8.47084 | 18° | 16km/h | 23773m | 5.1m/s | -50.7°C | 0% | 32.5hPa | 2.6V | 03:34:10 | 01:47:58 | 00:00:00 | |
| DF3TZ-5 | 2026-09-01 06:19:18 | 49.73847 | 8.47082 | 13° | 15km/h | 23768m | 4.8m/s | -50.7°C | 0.7% | 32.6hPa | 2.6V | 00:00:00 | 00:00:00 | 00:00:00 | |
| DO3MHA-11 | 2026-09-01 06:19:17 | 49.73844 | 8.47081 | 11° | 13km/h | 23763m | 6.0m/s | -50.7°C | 3.4% | 32.5hPa | 2.6V | 00:00:00 | 01:47:56 | 00:00:00 | |
| DL8OAI-8 | 2026-09-01 06:19:15 | 49.73841 | 8.47080 | 17° | 11km/h | 23758m | 5.0m/s | -50.8°C | 0.8% | 32.6hPa | 2.6V | 03:35:00 | 00:00:00 | 00:00:00 | |
| DL1XH-15 | 2026-09-01 06:19:14 | 49.73820 | 8.47059 | 24° | 11km/h | 23721m | 3.9m/s | 0°C | 0% | 0hPa | 2.6V | 00:00:00 | 01:47:48 | 00:00:00 | |
| BIOWL1-15 | 2026-09-01 06:19:13 | 49.73825 | 8.47065 | 43° | 15km/h | 23731m | 6.1m/s | -50.9°C | 0% | 32.8hPa | 2.7V | 03:35:01 | 01:47:50 | 00:00:00 | |
| HSKMA3-T | 2026-09-01 06:19:12 | 49.73828 | 8.47069 | 40° | 16km/h | 23737m | 4.9m/s | -50.8°C | 0% | 32.7hPa | 2.7V | 03:35:01 | 01:47:51 | 00:00:00 | |
| DL1XH-west | 2026-09-01 06:19:09 | 49.73820 | 8.47059 | 25° | 11km/h | 23721m | 3.9m/s | -50.8°C | 0% | 32.8hPa | 2.6V | 03:35:01 | 01:47:48 | 00:00:00 | |
| HSKMA3-T | 2026-09-01 06:19:02 | 49.73789 | 8.47060 | 355° | 16km/h | 23686m | 3.8m/s | -50.9°C | 0% | 33hPa | 2.6V | 03:35:01 | 01:47:41 | 00:00:00 | |
| BIOWL1-15 | 2026-09-01 06:19:00 | 49.73780 | 8.47059 | 13° | 18km/h | 23675m | 5.4m/s | -50.9°C | 0% | 33hPa | 2.7V | 03:35:01 | 01:47:39 | 00:00:00 | |
| DL1XH-west | 2026-09-01 06:18:58 | 49.73771 | 8.47054 | 23° | 18km/h | 23665m | 5m/s | -50.9°C | 0% | 33.1hPa | 2.6V | 03:35:01 | 01:47:37 | 00:00:00 | |
| DM3KS-11 | 2026-09-01 06:18:57 | 49.73763 | 8.47050 | 12° | 13km/h | 23654m | 4.9m/s | -51.1°C | 0.7% | 33.1hPa | 2.6V | 00:00:00 | 00:00:00 | 00:00:00 | |
| DD1CC8 | 2026-09-01 06:18:54 | 49.73756 | 8.47049 | 5° | 15km/h | 23644m | 5.6m/s | -51.2°C | 0.8% | 33.2hPa | 2.6V | 00:00:00 | 00:00:00 | 00:00:00 | |
| HARRO8 | 2026-09-01 06:18:53 | 49.73748 | 8.47048 | 354° | 16km/h | 23633m | 5.2m/s | -51.3°C | 0.7% | 33.3hPa | 2.6V | 00:00:00 | 00:00:00 | 00:00:00 | |
| DM0DOS-11 | 2026-09-01 06:18:52 | 49.73727 | 8.47055 | 1° | 18km/h | 23606m | 4.8m/s | -51.3°C | 3.5% | 33.4hPa | 2.6V | 03:34:41 | 01:47:26 | 00:00:00 | |
| HSKMA3-T | 2026-09-01 06:18:51 | 49.73744 | 8.47050 | 345° | 16km/h | 23627m | 6.1m/s | -51.3°C | 0% | 33.3hPa | 2.7V | 03:35:01 | 01:47:30 | 00:00:00 | |
| BIOWL1-15 | 2026-09-01 06:18:49 | 49.73736 | 8.47053 | 346° | 16km/h | 23617m | 5m/s | -51.3°C | 0% | 33.3hPa | 2.5V | 03:35:01 | 01:47:28 | 00:00:00 | |
| DL1XH-west | 2026-09-01 06:18:47 | 49.73727 | 8.47055 | 1° | 18km/h | 23606m | 4.8m/s | -51.3°C | 0% | 33.4hPa | 2.6V | 03:35:01 | 01:47:26 | 00:00:00 | |
| BIOWL7-15 | 2026-09-01 06:18:43 | 49.73714 | 8.47055 | 354° | 16km/h | 23590m | 5.1m/s | -51.3°C | 0.8% | 33.5hPa | 2.6V | 03:35:00 | 00:00:00 | 00:00:00 | |
| DL1XH1-15 | 2026-09-01 06:18:42 | 49.73687 | 8.47065 | 330° | 13km/h | 23552m | 6.2m/s | -51.6°C | 3.5% | 33.6hPa | 2.6V | 03:34:51 | 01:47:16 | 00:00:00 | |
| HSKMA3-T | 2026-09-01 06:18:41 | 49.73701 | 8.47057 | 356° | 18km/h | 23574m | 4.5m/s | -51.5°C | 0% | 33.5hPa | 2.7V | 03:35:01 | 01:47:20 | 00:00:00 | |
| BIOWL1-15 | 2026-09-01 06:18:39 | 49.73693 | 8.47060 | 335° | 15km/h | 23563m | 6.3m/s | -51.6°C | 0% | 33.6hPa | 2.7V | 03:35:01 | 01:47:18 | 00:00:00 | |
| DL1XH-15 | 2026-09-01 06:18:38 | 49.73675 | 8.47077 | 317° | 15km/h | 23530m | 5.1m/s | 0°C | 0% | 0hPa | 2.6V | 00:00:00 | 01:47:12 | 00:00:00 | |
| AA1-15 | 2026-09-01 06:18:38 | 49.73690 | 8.47062 | 327° | 13km/h | 23558m | 5.3m/s | 0°C | 0% | 0hPa | 2.5V | 03:35:01 | 01:47:17 | 00:00:00 | |
| DL1XH-west | 2026-09-01 06:18:37 | 49.73687 | 8.47065 | 331° | 13km/h | 23552m | 6.2m/s | -51.6°C | 0% | 33.7hPa | 2.6V | 03:35:01 | 01:47:16 | 00:00:00 | |
| BIOWL9-15 | 2026-09-01 06:18:37 | 49.73684 | 8.47068 | 333° | 13km/h | 23546m | 5.2m/s | -51.6°C | 0.8% | 33.7hPa | 2.6V | 00:00:00 | 00:00:00 | 00:00:00 | |
| DK5PH-5 | 2026-09-01 06:18:36 | 49.73684 | 8.47068 | 334° | 20km/h | 23546m | 5.1m/s | -51.6°C | 3.5% | 33.6hPa | 2.6V | 00:00:00 | 01:47:15 | 00:00:00 | |
| DO3DL | 2026-09-01 06:18:35 | 49.73684 | 8.47068 | 335° | 15km/h | 23546m | 5.2m/s | -51.6°C | 0.8% | 33.7hPa | 2.6V | 00:00:00 | 00:00:00 | 00:00:00 | |
| DL8OAI-8 | 2026-09-01 06:18:34 | 49.73681 | 8.47070 | 330° | 15km/h | 23542m | 4.7m/s | -51.7°C | 0.8% | 33.7hPa | 2.6V | 03:35:00 | 00:00:00 | 00:00:00 | |
| DJ2DS-15 | 2026-09-01 06:18:33 | 49.73675 | 8.47077 | 318° | 22km/h | 23530m | 5.1m/s | -51.7°C | 3.5% | 33.7hPa | 2.6V | 00:00:00 | 01:47:12 | 00:00:00 | |
| DM0DOS-11 | 2026-09-01 06:18:32 | 49.73650 | 8.47102 | 314° | 24km/h | 23499m | 5.8m/s | -52.1°C | 3.6% | 33.9hPa | 2.5V | 03:35:01 | 01:47:06 | 00:00:00 | |
| BIOWL1-15 | 2026-09-01 06:18:30 | 49.73655 | 8.47096 | 326° | 22km/h | 23505m | 6m/s | -52°C | 0% | 33.9hPa | 2.7V | 03:35:01 | 01:47:07 | 00:00:00 | |
| HSKMA3-T | 2026-09-01 06:18:30 | 49.73664 | 8.47088 | 334° | 20km/h | 23514m | 4.5m/s | -51.8°C | 0% | 33.9hPa | 2.7V | 03:35:01 | 01:47:09 | 00:00:00 | |
| AA1-15 | 2026-09-01 06:18:27 | 49.73650 | 8.47102 | 315° | 24km/h | 23499m | 5.8m/s | 0°C | 0% | 0hPa | 2.5V | 03:35:01 | 01:47:06 | 00:00:00 | |
| DL1XH-west | 2026-09-01 06:18:26 | 49.73646 | 8.47109 | 309° | 24km/h | 23493m | 5.2m/s | -52.1°C | 0% | 34hPa | 2.6V | 03:35:52 | 01:47:05 | 00:00:00 | |
| NBG1-10 | 2026-09-01 06:18:26 | 49.73646 | 8.47109 | 309° | 16km/h | 23493m | 5.1m/s | -52.0°C | 3.7% | 33.9hPa | 2.6V | 00:00:00 | 01:47:05 | 00:00:00 | |
| DB0UT-7 | 2026-09-01 06:18:25 | 49.73642 | 8.47116 | 312° | 16km/h | 23488m | 5.7m/s | -52.1°C | 3.7% | 34.0hPa | 2.6V | 00:00:00 | 00:00:00 | 00:00:00 | |
| DD1CC8 | 2026-09-01 06:18:23 | 49.73633 | 8.47131 | 315° | 26km/h | 23477m | 4.9m/s | -52.1°C | 0.8% | 34.1hPa | 2.6V | 00:00:00 | 00:00:00 | 00:00:00 | |
| DL1XH1-15 | 2026-09-01 06:18:22 | 49.73608 | 8.47166 | 333° | 18km/h | 23444m | 5.2m/s | -52.1°C | 3.7% | 34.2hPa | 2.6V | 03:35:11 | 01:46:56 | 00:00:00 | |
| HSKMA3-T | 2026-09-01 06:18:19 | 49.73617 | 8.47158 | 321° | 20km/h | 23454m | 6.4m/s | -52.1°C | 0% | 34.2hPa | 2.7V | 03:35:52 | 01:46:58 | 00:00:00 | |
| BIOWL1-15 | 2026-09-01 06:18:18 | 49.73613 | 8.47163 | 331° | 18km/h | 23449m | 4.7m/s | -52.1°C | 0% | 34.2hPa | 2.5V | 03:35:52 | 01:46:57 | 00:00:00 | |
| DL1XH-west | 2026-09-01 06:18:15 | 49.73601 | 8.47174 | 320° | 20km/h | 23433m | 5.1m/s | -52.1°C | 0% | 34.3hPa | 2.7V | 03:35:52 | 01:46:54 | 00:00:00 | |
| DL8DAS-15 | 2026-09-01 06:18:14 | 49.73597 | 8.47179 | 318° | 22km/h | 23428m | 4.9m/s | -52.1°C | 0.8% | 34.3hPa | 2.6V | 03:35:00 | 00:00:00 | 00:00:00 | |
| DJ2DS-15 | 2026-09-01 06:18:13 | 49.73592 | 8.47185 | 318° | 15km/h | 23422m | 6.2m/s | -52.1°C | 3.7% | 34.3hPa | 2.6V | 03:35:00 | 01:46:52 | 00:00:00 | |
| DM0DOS-11 | 2026-09-01 06:18:12 | 49.73573 | 8.47227 | 298° | 16km/h | 23389m | 6.2m/s | -52.1°C | 3.7% | 34.5hPa | 2.6V | 03:35:21 | 01:46:46 | 00:00:00 | |
| SONCRA | 2026-09-01 06:18:11 | 49.73584 | 8.47198 | 312° | 24km/h | 23411m | 5.0m/s | -52.1°C | 0.8% | 34.4hPa | 2.7V | 00:00:00 | 00:00:00 | 00:00:00 | |
| DL8DAS-14 | 2026-09-01 06:18:10 | 49.73577 | 8.47213 | 295° | 22km/h | 23400m | 4.9m/s | -52.2°C | 0.8% | 34.5hPa | 2.7V | 00:00:00 | 00:00:00 | 00:00:00 | |
| DL1XH-15 | 2026-09-01 06:18:09 | 49.73567 | 8.47238 | 309° | 9km/h | 23373m | 5.9m/s | 0°C | 0% | 0hPa | 2.7V | 00:00:00 | 01:46:43 | 00:00:00 | |
| HSKMA3-T | 2026-09-01 06:18:08 | 49.73575 | 8.47221 | 293° | 20km/h | 23395m | 4.9m/s | -52.1°C | 0% | 34.5hPa | 2.7V | 03:35:52 | 01:46:47 | 00:00:00 | |
| BIOWL1-15 | 2026-09-01 06:18:07 | 49.73573 | 8.47227 | 299° | 16km/h | 23389m | 6.2m/s | -52.1°C | 0% | 34.5hPa | 2.6V | 03:35:52 | 01:46:46 | 00:00:00 | |
| DL1XH-west | 2026-09-01 06:18:05 | 49.73569 | 8.47235 | 312° | 11km/h | 23378m | 5.2m/s | -52.1°C | 0% | 34.6hPa | 2.6V | 03:35:52 | 01:46:44 | 00:00:00 | |
| DO3DL | 2026-09-01 06:18:04 | 49.73567 | 8.47238 | 311° | 9km/h | 23373m | 5.9m/s | -52.1°C | 0.8% | 34.6hPa | 2.7V | 00:00:00 | 00:00:00 | 00:00:00 | |
| DL8DAS-15 | 2026-09-01 06:18:03 | 49.73567 | 8.47238 | 311° | 9km/h | 23373m | 5.9m/s | -52.1°C | 0.8% | 34.6hPa | 2.7V | 03:35:00 | 00:00:00 | 00:00:00 | |
| DL1XH1-15 | 2026-09-01 06:18:02 | 49.73553 | 8.47255 | 310° | 13km/h | 23334m | 5.2m/s | -52.3°C | 3.7% | 34.8hPa | 2.7V | 03:35:31 | 01:46:36 | 00:00:00 | |
| AA1-15 | 2026-09-01 06:18:02 | 49.73564 | 8.47244 | 312° | 9km/h | 23362m | 4.5m/s | 0°C | 0% | 0hPa | 2.7V | 18:12:15 | 01:46:41 | 00:00:00 | |
| BIOWL1-15 | 2026-09-01 06:17:59 | 49.73553 | 8.47255 | 311° | 13km/h | 23334m | 5.2m/s | -52.3°C | 0% | 34.8hPa | 2.7V | 03:35:52 | 01:46:36 | 00:00:00 | |
| HSKMA3-T | 2026-09-01 06:17:58 | 49.73555 | 8.47252 | 322° | 13km/h | 23340m | 6.2m/s | -52.2°C | 0% | 34.8hPa | 2.7V | 03:35:52 | 01:46:37 | 00:00:00 | |
| DL1XH-west | 2026-09-01 06:17:54 | 49.73548 | 8.47263 | 306° | 4km/h | 23317m | 4.9m/s | -52.2°C | 0% | 34.9hPa | 2.6V | 03:35:52 | 01:46:33 | 00:00:00 | |
| SONDE2-11 | 2026-09-01 06:17:53 | 49.73548 | 8.47266 | 215° | 4km/h | 23306m | 5.2m/s | -52.2°C | 0.8% | 35.0hPa | 2.7V | 00:00:00 | 00:00:00 | 00:00:00 | |
| DM0DOS-11 | 2026-09-01 06:17:52 | 49.73552 | 8.47261 | 96° | 5km/h | 23279m | 5.8m/s | -52.1°C | 3.7% | 35.1hPa | 2.7V | 03:35:41 | 01:46:26 | 00:00:00 | |
| HSKMA3-T | 2026-09-01 06:17:47 | 49.73552 | 8.47261 | 97° | 5km/h | 23279m | 5.8m/s | -52.1°C | 0.1% | 35.1hPa | 2.7V | 03:35:52 | 01:46:26 | 00:00:00 | |
| BIOWL1-15 | 2026-09-01 06:17:46 | 49.73552 | 8.47259 | 104° | 4km/h | 23273m | 5.4m/s | -52.1°C | 0.1% | 35.2hPa | 2.7V | 03:35:52 | 01:46:25 | 00:00:00 | |
| DL1XH-west | 2026-09-01 06:17:43 | 49.73551 | 8.47255 | 45° | 7km/h | 23258m | 6.4m/s | -52°C | 0% | 35.2hPa | 2.7V | 03:35:52 | 01:46:22 | 00:00:00 | |
| DM0DOS-11 | 2026-09-01 06:17:42 | 49.73541 | 8.47246 | 357° | 4km/h | 23226m | 4.2m/s | -52°C | 3.7% | 35.4hPa | 2.7V | 03:35:51 | 01:46:16 | 00:00:00 | |
| AA1-15 | 2026-09-01 06:17:39 | 49.73544 | 8.47247 | 17° | 7km/h | 23236m | 6m/s | 0°C | 0% | 0hPa | 2.6V | 18:12:15 | 01:46:18 | 00:00:00 | |
| BIOWL1-15 | 2026-09-01 06:17:38 | 49.73540 | 8.47246 | 14° | 5km/h | 23221m | 6.2m/s | -51.9°C | 0% | 35.4hPa | 2.7V | 03:35:52 | 01:46:15 | 00:00:00 | |
| HSKMA3-T | 2026-09-01 06:17:37 | 49.73541 | 8.47246 | 358° | 4km/h | 23226m | 4.2m/s | -52°C | 0% | 35.4hPa | 2.7V | 03:35:52 | 01:46:16 | 00:00:00 | |
| DO3MHA-11 | 2026-09-01 06:17:37 | 49.73541 | 8.47246 | 358° | 9km/h | 23227m | 4.1m/s | -51.9°C | 3.7% | 35.4hPa | 2.6V | 03:35:00 | 01:46:16 | 00:00:00 | |
| DK5PH-5 | 2026-09-01 06:17:36 | 49.73540 | 8.47246 | 14° | 11km/h | 23221m | 6.1m/s | -51.9°C | 3.7% | 35.4hPa | 2.6V | 00:00:00 | 01:46:15 | 00:00:00 | |
| BIOWL9-15 | 2026-09-01 06:17:35 | 49.73537 | 8.47243 | 36° | 9km/h | 23210m | 5.0m/s | -52.0°C | 0.8% | 35.5hPa | 2.6V | 00:00:00 | 00:00:00 | 00:00:00 | |
| DB0ND-19 | 2026-09-01 06:17:34 | 49.73535 | 8.47241 | 41° | 7km/h | 23205m | 5.9m/s | -51.9°C | 0.8% | 35.5hPa | 2.6V | 00:00:00 | 00:00:00 | 00:00:00 | |
| DJ2DS-15 | 2026-09-01 06:17:33 | 49.73535 | 8.47241 | 42° | 11km/h | 23205m | 5.9m/s | -51.9°C | 3.6% | 35.5hPa | 2.6V | 00:00:00 | 01:46:12 | 00:00:00 | |
| DL1XH1-15 | 2026-09-01 06:17:32 | 49.73522 | 8.47222 | 37° | 15km/h | 23171m | 6.4m/s | -51.9°C | 3.7% | 35.7hPa | 2.7V | 03:36:01 | 01:46:06 | 00:00:00 | |
| DL1XH-west | 2026-09-01 06:17:32 | 49.73533 | 8.47239 | 44° | 7km/h | 23199m | 5.7m/s | -52°C | 0% | 35.6hPa | 2.7V | 03:36:43 | 01:46:11 | 00:00:00 | |
| HSKMA3-T | 2026-09-01 06:17:26 | 49.73519 | 8.47219 | 31° | 13km/h | 23165m | 5.2m/s | -51.9°C | 0.1% | 35.7hPa | 2.7V | 03:36:43 | 01:46:05 | 00:00:00 | |
| BIOWL1-15 | 2026-09-01 06:17:25 | 49.73517 | 8.47217 | 22° | 13km/h | 23160m | 5.2m/s | -51.8°C | 0% | 35.8hPa | 2.7V | 03:36:43 | 01:46:04 | 00:00:00 | |
| DL1XH-west | 2026-09-01 06:17:22 | 49.73506 | 8.47213 | 6° | 13km/h | 23143m | 5.8m/s | -51.7°C | 0% | 35.8hPa | 2.6V | 03:36:43 | 01:46:01 | 00:00:00 | |
| BIOWL1-15 | 2026-09-01 06:17:16 | 49.73486 | 8.47210 | 21° | 5km/h | 23100m | 5.1m/s | -51.6°C | 0% | 36.1hPa | 2.7V | 03:36:43 | 01:45:53 | 00:00:00 | |
| HSKMA3-T | 2026-09-01 06:17:15 | 49.73487 | 8.47211 | 19° | 7km/h | 23105m | 6.2m/s | -51.7°C | 0% | 36.1hPa | 2.7V | 03:36:43 | 01:45:54 | 00:00:00 | |
| DL1XH-west | 2026-09-01 06:17:12 | 49.73482 | 8.47207 | 19° | 9km/h | 23089m | 5.8m/s | -51.6°C | 0% | 36.2hPa | 2.6V | 03:36:43 | 01:45:51 | 00:00:00 | |
| HSKMA3-T | 2026-09-01 06:17:05 | 49.73463 | 8.47217 | 348° | 15km/h | 23052m | 4.9m/s | -51.5°C | 0% | 36.4hPa | 2.7V | 03:36:43 | 01:45:44 | 00:00:00 | |
| BIOWL9-15 | 2026-09-01 06:17:04 | 49.73457 | 8.47219 | 348° | 7km/h | 23042m | 5.9m/s | -51.5°C | 0.8% | 36.4hPa | 2.6V | 00:00:00 | 00:00:00 | 00:00:00 | |
| BIOWL1-15 | 2026-09-01 06:17:04 | 49.73457 | 8.47219 | 349° | 9km/h | 23042m | 5.9m/s | -51.5°C | 0% | 36.4hPa | 2.6V | 03:36:43 | 01:45:42 | 00:00:00 | |
| DB0ND-19 | 2026-09-01 06:17:03 | 49.73456 | 8.47220 | 329° | 5km/h | 23036m | 5.2m/s | -51.5°C | 0.7% | 36.5hPa | 2.6V | 00:00:00 | 00:00:00 | 00:00:00 | |
| DM0DOS-11 | 2026-09-01 06:17:02 | 49.73447 | 8.47230 | 311° | 9km/h | 23011m | 6m/s | -51.6°C | 3.4% | 36.6hPa | 2.6V | 03:36:31 | 01:45:36 | 00:00:00 | |
| DL1XH-west | 2026-09-01 06:17:01 | 49.73454 | 8.47222 | 320° | 7km/h | 23031m | 5.4m/s | -51.5°C | 0% | 36.5hPa | 2.7V | 03:36:43 | 01:45:40 | 00:00:00 | |
| HSKMA3-T | 2026-09-01 06:16:54 | 49.73443 | 8.47241 | 307° | 15km/h | 22994m | 6.1m/s | -51.8°C | 0% | 36.7hPa | 2.7V | 03:36:43 | 01:45:33 | 00:00:00 | |
| BIOWL1-15 | 2026-09-01 06:16:53 | 49.73440 | 8.47246 | 316° | 16km/h | 22988m | 5.3m/s | -51.9°C | 0% | 36.7hPa | 2.5V | 03:36:43 | 01:45:32 | 00:00:00 | |
| DJ2DS-15 | 2026-09-01 06:16:53 | 49.73440 | 8.47245 | 317° | 18km/h | 22988m | 5.3m/s | -51.8°C | 3.6% | 36.7hPa | 2.5V | 03:36:00 | 01:45:32 | 00:00:00 | |
| DM0DOS-11 | 2026-09-01 06:16:52 | 49.73428 | 8.47270 | 304° | 11km/h | 22958m | 5.7m/s | -52.2°C | 3.7% | 36.9hPa | 2.5V | 03:36:41 | 01:45:26 | 00:00:00 | |
| DL1XH-west | 2026-09-01 06:16:51 | 49.73435 | 8.47254 | 315° | 15km/h | 22979m | 5.6m/s | -52°C | 0% | 36.8hPa | 2.6V | 03:36:43 | 01:45:30 | 00:00:00 | |
| HSKMA3-T | 2026-09-01 06:16:44 | 49.73423 | 8.47281 | 293° | 11km/h | 22942m | 5.8m/s | -52.5°C | 0.1% | 37hPa | 2.7V | 03:37:34 | 01:45:23 | 00:00:00 | |
| BIOWL1-15 | 2026-09-01 06:16:42 | 49.73421 | 8.47292 | 290° | 16km/h | 22931m | 5.5m/s | -52.6°C | 0.1% | 37hPa | 2.5V | 03:37:34 | 01:45:21 | 00:00:00 | |
| DL1XH-west | 2026-09-01 06:16:40 | 49.73417 | 8.47306 | 290° | 24km/h | 22920m | 5.3m/s | -52.6°C | 0% | 37.1hPa | 2.6V | 03:37:34 | 01:45:19 | 00:00:00 | |
| SONCRA | 2026-09-01 06:16:38 | 49.73414 | 8.47337 | 269° | 27km/h | 22904m | 4.0m/s | -52.5°C | 0.8% | 37.2hPa | 2.7V | 00:00:00 | 00:00:00 | 00:00:00 | |
| DL1XH-15 | 2026-09-01 06:16:37 | 49.73413 | 8.47386 | 266° | 22km/h | 22879m | 5.8m/s | 0°C | 0% | 0hPa | 2.7V | 00:00:00 | 01:45:11 | 00:00:00 | |
| BIOWL1-15 | 2026-09-01 06:16:34 | 49.73413 | 8.47386 | 267° | 22km/h | 22879m | 5.8m/s | -52.4°C | 0% | 37.3hPa | 2.7V | 03:37:34 | 01:45:11 | 00:00:00 | |
| HSKMA3-T | 2026-09-01 06:16:33 | 49.73413 | 8.47378 | 273° | 22km/h | 22884m | 3.8m/s | -52.3°C | 0% | 37.3hPa | 2.7V | 03:37:34 | 01:45:12 | 00:00:00 | |
| DL1XH-west | 2026-09-01 06:16:31 | 49.73415 | 8.47404 | 253° | 22km/h | 22868m | 5.1m/s | -52.3°C | 0% | 37.4hPa | 2.6V | 03:37:34 | 01:45:09 | 00:00:00 | |
| HSKMA3-T | 2026-09-01 06:16:23 | 49.73422 | 8.47462 | 264° | 22km/h | 22832m | 5.3m/s | -52.2°C | 0% | 37.6hPa | 2.7V | 03:37:34 | 01:45:02 | 00:00:00 | |
| DM0DOS-11 | 2026-09-01 06:16:22 | 49.73428 | 8.47510 | 241° | 20km/h | 22802m | 5.1m/s | -52.2°C | 3.6% | 37.8hPa | 2.7V | 03:37:11 | 01:44:56 | 00:00:00 | |
| BIOWL1-15 | 2026-09-01 06:16:21 | 49.73423 | 8.47479 | 271° | 20km/h | 22822m | 4.2m/s | -52.2°C | 0.1% | 37.7hPa | 2.5V | 03:37:34 | 01:45:00 | 00:00:00 | |
| DL1XH-west | 2026-09-01 06:16:19 | 49.73424 | 8.47495 | 255° | 22km/h | 22812m | 5.7m/s | -52.2°C | 0.1% | 37.8hPa | 2.6V | 03:37:34 | 01:44:58 | 00:00:00 | |
| AA1-15 | 2026-09-01 06:16:15 | 49.73432 | 8.47522 | 235° | 15km/h | 22791m | 4.8m/s | 0°C | 0% | 0hPa | 2.5V | 18:12:15 | 01:44:54 | 00:00:00 | |
| BIOWL1-15 | 2026-09-01 06:16:13 | 49.73443 | 8.47539 | 233° | 13km/h | 22770m | 5.8m/s | -52.4°C | 0% | 38hPa | 2.7V | 03:37:34 | 01:44:50 | 00:00:00 | |
| HSKMA3-T | 2026-09-01 06:16:12 | 49.73440 | 8.47535 | 224° | 15km/h | 22775m | 4.4m/s | -52.4°C | 0% | 38hPa | 2.7V | 03:37:34 | 01:44:51 | 00:00:00 | |
| DL1XH-west | 2026-09-01 06:16:09 | 49.73445 | 8.47547 | 256° | 11km/h | 22760m | 4.3m/s | -52.3°C | 0% | 38hPa | 2.6V | 03:37:34 | 01:44:48 | 00:00:00 | |
| DB0UT-9 | 2026-09-01 06:16:08 | 49.73445 | 8.47547 | 257° | 11km/h | 22760m | 4.3m/s | -52.3°C | 0.8% | 38.0hPa | 2.6V | 03:37:00 | 00:00:00 | 00:00:00 | |
| SONCRA | 2026-09-01 06:16:07 | 49.73448 | 8.47559 | 246° | 11km/h | 22745m | 4.5m/s | -52.6°C | 0.8% | 38.1hPa | 2.6V | 00:00:00 | 00:00:00 | 00:00:00 | |
| DF1GD-15 | 2026-09-01 06:16:06 | 49.73448 | 8.47559 | 248° | 13km/h | 22745m | 4.5m/s | -52.6°C | 0.9% | 38.1hPa | 2.6V | 03:37:00 | 00:00:00 | 00:00:00 | |
| HEMX73-11 | 2026-09-01 06:16:04 | 49.73449 | 8.47564 | 251° | 13km/h | 22740m | 5.9m/s | -52.6°C | 0.8% | 38.2hPa | 2.6V | 03:37:00 | 00:00:00 | 00:00:00 | |
| AM1SDL-15 | 2026-09-01 06:16:03 | 49.73452 | 8.47572 | 227° | 16km/h | 22730m | 5.5m/s | -52.6°C | 3.7% | 38.2hPa | 2.6V | 00:00:00 | 01:44:42 | 00:00:00 | |
| DL1XH1-15 | 2026-09-01 06:16:02 | 49.73474 | 8.47591 | 208° | 9km/h | 22699m | 5m/s | -52.9°C | 3.8% | 38.4hPa | 2.6V | 03:37:31 | 01:44:36 | 00:00:00 | |
| HSKMA3-T | 2026-09-01 06:16:02 | 49.73456 | 8.47576 | 212° | 18km/h | 22724m | 5.2m/s | -52.7°C | 0.1% | 38.3hPa | 2.7V | 03:37:34 | 01:44:41 | 00:00:00 | |
| BIOWL1-15 | 2026-09-01 06:16:00 | 49.73464 | 8.47583 | 204° | 18km/h | 22715m | 5.4m/s | -52.8°C | 0% | 38.3hPa | 2.7V | 03:37:34 | 01:44:39 | 00:00:00 | |
| DL1XH-west | 2026-09-01 06:15:58 | 49.73471 | 8.47588 | 213° | 13km/h | 22704m | 4.9m/s | -52.9°C | 0.1% | 38.4hPa | 2.6V | 03:37:34 | 01:44:37 | 00:00:00 | |
| DO3MHA-11 | 2026-09-01 06:15:57 | 49.73473 | 8.47590 | 209° | 9km/h | 22699m | 5.0m/s | -52.8°C | 3.8% | 38.4hPa | 2.6V | 00:00:00 | 01:44:36 | 00:00:00 | |
| DL0LBS | 2026-09-01 06:15:56 | 49.73475 | 8.47592 | 192° | 7km/h | 22694m | 6.1m/s | -52.8°C | 0.9% | 38.4hPa | 2.6V | 03:37:00 | 00:00:00 | 00:00:00 | |
| DB0UT-7 | 2026-09-01 06:15:55 | 49.73477 | 8.47592 | 167° | 16km/h | 22688m | 5.2m/s | -52.8°C | 3.7% | 38.4hPa | 2.6V | 00:00:00 | 01:44:34 | 00:00:00 | |
| DM7RM-13 | 2026-09-01 06:15:54 | 49.73477 | 8.47592 | 167° | 9km/h | 22688m | 5.3m/s | -52.9°C | 0.9% | 38.5hPa | 2.6V | 03:37:00 | 00:00:00 | 00:00:00 | |
| DJ2DS-15 | 2026-09-01 06:15:53 | 49.73481 | 8.47590 | 155° | 16km/h | 22678m | 5.6m/s | -52.9°C | 3.8% | 38.5hPa | 2.6V | 00:00:00 | 01:44:32 | 00:00:00 | |
| DL1XH1-15 | 2026-09-01 06:15:52 | 49.73499 | 8.47581 | 169° | 22km/h | 22647m | 5.6m/s | -53°C | 3.8% | 38.7hPa | 2.6V | 03:37:41 | 01:44:26 | 00:00:00 | |
| HSKMA3-T | 2026-09-01 06:15:51 | 49.73484 | 8.47588 | 162° | 5km/h | 22668m | 4.3m/s | -53°C | 0.1% | 38.6hPa | 2.7V | 03:38:25 | 01:44:30 | 00:00:00 | |
| BIOWL1-15 | 2026-09-01 06:15:50 | 49.73486 | 8.47587 | 162° | 11km/h | 22663m | 5.6m/s | -53°C | 0.1% | 38.6hPa | 2.7V | 03:38:25 | 01:44:29 | 00:00:00 | |
| DD1CC8 | 2026-09-01 06:15:48 | 49.73499 | 8.47581 | 169° | 22km/h | 22648m | 5.6m/s | -53.0°C | 0.8% | 38.7hPa | 2.6V | 00:00:00 | 00:00:00 | 00:00:00 | |
| DL1XH-west | 2026-09-01 06:15:48 | 49.73493 | 8.47583 | 165° | 20km/h | 22652m | 4.6m/s | -53°C | 0.1% | 38.7hPa | 2.5V | 03:38:25 | 01:44:27 | 00:00:00 | |
| DO1YAY-16 | 2026-09-01 06:15:47 | 49.73504 | 8.47580 | 174° | 22km/h | 22642m | 5.6m/s | -52.9°C | 0.9% | 38.8hPa | 2.6V | 00:00:00 | 00:00:00 | 00:00:00 | |
| DL9PN | 2026-09-01 06:15:46 | 49.73510 | 8.47579 | 174° | 22km/h | 22637m | 4.7m/s | -53.0°C | 0.8% | 38.8hPa | 2.6V | 00:00:00 | 00:00:00 | 00:00:00 | |
| BIOWL7-15 | 2026-09-01 06:15:45 | 49.73504 | 8.47580 | 175° | 22km/h | 22642m | 5.6m/s | -52.9°C | 0.9% | 38.8hPa | 2.6V | 03:38:00 | 00:00:00 | 00:00:00 | |
| DF1GD-15 | 2026-09-01 06:15:44 | 49.73510 | 8.47579 | 175° | 24km/h | 22637m | 4.7m/s | -53.0°C | 0.9% | 38.8hPa | 2.6V | 03:38:00 | 00:00:00 | 00:00:00 | |
| DO3DL | 2026-09-01 06:15:43 | 49.73516 | 8.47578 | 172° | 24km/h | 22631m | 5.9m/s | -53.0°C | 0.9% | 38.8hPa | 2.6V | 03:38:00 | 00:00:00 | 00:00:00 | |
| DL1XH1-15 | 2026-09-01 06:15:42 | 49.73544 | 8.47560 | 136° | 15km/h | 22595m | 5.1m/s | -52.8°C | 3.8% | 39hPa | 2.6V | 03:37:51 | 01:44:16 | 00:00:00 | |
| DM0DOS-11 | 2026-09-01 06:15:41 | 49.73547 | 8.47556 | 140° | 16km/h | 22591m | 4m/s | -52.8°C | 3.7% | 39hPa | 2.7V | 03:37:52 | 01:44:15 | 00:00:00 | |
| BIOWL1-15 | 2026-09-01 06:15:40 | 49.73536 | 8.47569 | 156° | 13km/h | 22610m | 5.2m/s | -52.9°C | 0% | 38.9hPa | 2.7V | 03:38:25 | 01:44:19 | 00:00:00 | |
| DL1XH-west | 2026-09-01 06:15:37 | 49.73544 | 8.47560 | 137° | 15km/h | 22595m | 5.1m/s | -52.8°C | 0.1% | 39hPa | 2.6V | 03:38:25 | 01:44:16 | 00:00:00 | |
| DO3MHA-11 | 2026-09-01 06:15:37 | 49.73544 | 8.47560 | 137° | 18km/h | 22595m | 5.1m/s | -52.8°C | 3.8% | 39.0hPa | 2.5V | 03:37:00 | 01:44:16 | 00:00:00 | |
| DJ2DS-15 | 2026-09-01 06:15:36 | 49.73550 | 8.47552 | 144° | 16km/h | 22586m | 4.7m/s | -52.8°C | 0.8% | 39.1hPa | 2.5V | 00:00:00 | 00:00:00 | 00:00:00 | |
| DL0LBS | 2026-09-01 06:15:35 | 49.73550 | 8.47552 | 146° | 16km/h | 22587m | 4.7m/s | -52.8°C | 0.9% | 39.1hPa | 2.5V | 03:38:00 | 00:00:00 | 00:00:00 | |
| DM7RM-13 | 2026-09-01 06:15:34 | 49.73550 | 8.47552 | 146° | 16km/h | 22587m | 4.7m/s | -52.8°C | 0.9% | 39.1hPa | 2.5V | 03:38:00 | 00:00:00 | 00:00:00 | |
| DJ2DS-15 | 2026-09-01 06:15:33 | 49.73557 | 8.47545 | 149° | 18km/h | 22577m | 4.7m/s | -52.7°C | 3.7% | 39.1hPa | 2.5V | 03:37:00 | 01:44:12 | 00:00:00 | |
| DL1XH1-15 | 2026-09-01 06:15:32 | 49.73581 | 8.47521 | 155° | 18km/h | 22545m | 5m/s | -52.7°C | 3.7% | 39.4hPa | 2.6V | 03:38:01 | 01:44:06 | 00:00:00 | |
| DL4BBY-15 | 2026-09-01 06:15:32 | 49.73560 | 8.47542 | 148° | 16km/h | 22572m | 4.7m/s | -51.8°C | 0% | 0hPa | 2.6V | 00:00:00 | 00:00:00 | 00:00:00 | |
| DM0DOS-11 | 2026-09-01 06:15:31 | 49.73585 | 8.47518 | 157° | 18km/h | 22540m | 4.5m/s | -52.7°C | 3.7% | 39.4hPa | 2.6V | 03:38:02 | 01:44:05 | 00:00:00 | |
| HSKMA3-T | 2026-09-01 06:15:30 | 49.73568 | 8.47534 | 143° | 22km/h | 22561m | 4.8m/s | -52.7°C | 0.1% | 39.2hPa | 2.7V | 03:38:25 | 01:44:09 | 00:00:00 | |
| DL1XH-west | 2026-09-01 06:15:26 | 49.73585 | 8.47518 | 158° | 18km/h | 22540m | 4.5m/s | -52.7°C | 0% | 39.4hPa | 2.6V | 03:38:25 | 01:44:05 | 00:00:00 | |
| DB0UT-7 | 2026-09-01 06:15:25 | 49.73589 | 8.47515 | 157° | 15km/h | 22535m | 5.6m/s | -52.7°C | 3.7% | 39.4hPa | 2.7V | 00:00:00 | 00:00:00 | 00:00:00 | |
| HEMX73-11 | 2026-09-01 06:15:24 | 49.73594 | 8.47512 | 160° | 20km/h | 22530m | 4.6m/s | -52.7°C | 0.9% | 39.4hPa | 2.5V | 03:38:00 | 00:00:00 | 00:00:00 | |
| DL1XH1-15 | 2026-09-01 06:15:22 | 49.73624 | 8.47498 | 151° | 18km/h | 22495m | 4.9m/s | -52.9°C | 3.7% | 39.6hPa | 2.5V | 03:38:11 | 01:43:56 | 00:00:00 | |
| DM0DOS-11 | 2026-09-01 06:15:21 | 49.73628 | 8.47495 | 152° | 16km/h | 22490m | 5.9m/s | -53°C | 3.8% | 39.7hPa | 2.6V | 03:38:12 | 01:43:55 | 00:00:00 | |
| BIOWL1-15 | 2026-09-01 06:15:19 | 49.73615 | 8.47505 | 158° | 18km/h | 22504m | 4.9m/s | -52.8°C | 0% | 39.6hPa | 2.7V | 03:38:25 | 01:43:58 | 00:00:00 | |
| DL1XH-west | 2026-09-01 06:15:15 | 49.73631 | 8.47492 | 152° | 15km/h | 22484m | 4.6m/s | -53.1°C | 0.1% | 39.7hPa | 2.6V | 03:38:25 | 01:43:54 | 00:00:00 | |
| DK5PH-5 | 2026-09-01 06:15:15 | 49.73631 | 8.47492 | 152° | 13km/h | 22484m | 4.6m/s | -53.1°C | 3.8% | 39.7hPa | 2.7V | 00:00:00 | 01:43:54 | 00:00:00 | |
| DL0LBS | 2026-09-01 06:15:14 | 49.73631 | 8.47492 | 152° | 15km/h | 22484m | 4.6m/s | -53.1°C | 0.9% | 39.7hPa | 2.7V | 03:38:00 | 00:00:00 | 00:00:00 | |
| DJ2DS-15 | 2026-09-01 06:15:13 | 49.73638 | 8.47486 | 150° | 13km/h | 22474m | 5.1m/s | -53.1°C | 3.9% | 39.7hPa | 2.7V | 00:00:00 | 01:43:52 | 00:00:00 | |
| DL1XH1-15 | 2026-09-01 06:15:12 | 49.73658 | 8.47480 | 178° | 16km/h | 22442m | 5.2m/s | -53.2°C | 3.8% | 40hPa | 2.7V | 03:38:21 | 01:43:46 | 00:00:00 | |
| DM0DOS-11 | 2026-09-01 06:15:11 | 49.73662 | 8.47480 | 183° | 16km/h | 22437m | 5.8m/s | -53.2°C | 3.8% | 40hPa | 2.6V | 03:38:22 | 01:43:45 | 00:00:00 | |
| BIOWL1-15 | 2026-09-01 06:15:09 | 49.73651 | 8.47481 | 181° | 11km/h | 22453m | 4.8m/s | -53.2°C | 0.1% | 39.9hPa | 2.6V | 03:38:25 | 01:43:48 | 00:00:00 | |
| DL1XH-west | 2026-09-01 06:15:05 | 49.73666 | 8.47481 | 186° | 15km/h | 22432m | 4.9m/s | -53.2°C | 0.1% | 40hPa | 2.6V | 03:38:25 | 01:43:44 | 00:00:00 | |
| BIOWL7-15 | 2026-09-01 06:15:04 | 49.73666 | 8.47481 | 187° | 15km/h | 22432m | 4.9m/s | -53.2°C | 0.9% | 40.0hPa | 2.7V | 03:38:00 | 00:00:00 | 00:00:00 | |
| DL8DAS-14 | 2026-09-01 06:15:03 | 49.73674 | 8.47481 | 172° | 15km/h | 22423m | 5.4m/s | -53.2°C | 0.9% | 40.1hPa | 2.7V | 00:00:00 | 00:00:00 | 00:00:00 | |
| DL1XH1-15 | 2026-09-01 06:15:02 | 49.73692 | 8.47469 | 176° | 9km/h | 22393m | 4.7m/s | -53.3°C | 3.9% | 40.3hPa | 2.7V | 03:38:31 | 01:43:36 | 00:00:00 | |
| DJTTGO | 2026-09-01 06:15:02 | 49.73678 | 8.47479 | 162° | 16km/h | 22417m | 5.3m/s | -53.2°C | 0.9% | 40.1hPa | 2.5V | 03:39:00 | 00:00:00 | 00:00:00 | |
| DM0DOS-11 | 2026-09-01 06:15:01 | 49.73694 | 8.47469 | 176° | 11km/h | 22388m | 5.6m/s | -53.3°C | 3.9% | 40.3hPa | 2.5V | 03:38:32 | 01:43:35 | 00:00:00 | |
| BIOWL1-15 | 2026-09-01 06:15:00 | 49.73690 | 8.47470 | 164° | 7km/h | 22398m | 4.5m/s | -53.2°C | 0.1% | 40.2hPa | 2.7V | 03:39:16 | 01:43:37 | 00:00:00 | |
| HSKMA3-T | 2026-09-01 06:14:59 | 49.73688 | 8.47471 | 153° | 11km/h | 22403m | 5m/s | -53.3°C | 0.1% | 40.2hPa | 2.7V | 03:39:16 | 01:43:38 | 00:00:00 | |
| DL1XH-west | 2026-09-01 06:14:54 | 49.73701 | 8.47468 | 164° | 13km/h | 22378m | 4.3m/s | -53.2°C | 0.1% | 40.4hPa | 2.6V | 03:39:16 | 01:43:33 | 00:00:00 | |
| DJ2DS-15 | 2026-09-01 06:14:53 | 49.73703 | 8.47466 | 155° | 9km/h | 22374m | 5.9m/s | -53.2°C | 3.9% | 40.4hPa | 2.7V | 00:00:00 | 01:43:32 | 00:00:00 | |
| DL1XH1-15 | 2026-09-01 06:14:52 | 49.73716 | 8.47445 | 126° | 13km/h | 22343m | 5.8m/s | -53.2°C | 3.9% | 40.6hPa | 2.7V | 03:38:41 | 01:43:26 | 00:00:00 | |
| DM0DOS-11 | 2026-09-01 06:14:51 | 49.73718 | 8.47441 | 118° | 11km/h | 22338m | 5.2m/s | -53.2°C | 3.9% | 40.6hPa | 2.7V | 03:38:42 | 01:43:25 | 00:00:00 | |
| HSKMA3-T | 2026-09-01 06:14:49 | 49.73712 | 8.47453 | 134° | 15km/h | 22353m | 5m/s | -53.2°C | 0.1% | 40.5hPa | 2.6V | 03:39:16 | 01:43:28 | 00:00:00 | |
| BIOWL1-15 | 2026-09-01 06:14:47 | 49.73716 | 8.47445 | 126° | 13km/h | 22343m | 5.8m/s | -53.2°C | 0.1% | 40.6hPa | 2.7V | 03:39:16 | 01:43:26 | 00:00:00 | |
| DL1XH-west | 2026-09-01 06:14:44 | 49.73721 | 8.47435 | 133° | 9km/h | 22327m | 6m/s | -53.2°C | 0.2% | 40.7hPa | 2.6V | 03:39:16 | 01:43:23 | 00:00:00 | |
| DL9PN | 2026-09-01 06:14:44 | 49.73722 | 8.47432 | 130° | 9km/h | 22321m | 4.5m/s | -53.2°C | 0.9% | 40.7hPa | 2.7V | 00:00:00 | 00:00:00 | 00:00:00 | |
| NBG1-10 | 2026-09-01 06:14:43 | 49.73722 | 8.47432 | 131° | 7km/h | 22321m | 4.5m/s | -53.1°C | 3.9% | 40.7hPa | 2.7V | 00:00:00 | 01:43:22 | 00:00:00 | |
| DL1XH1-15 | 2026-09-01 06:14:42 | 49.73729 | 8.47414 | 134° | 9km/h | 22290m | 4.7m/s | -53.1°C | 3.9% | 40.9hPa | 2.7V | 03:38:51 | 01:43:16 | 00:00:00 | |
| DM0DOS-11 | 2026-09-01 06:14:41 | 49.73730 | 8.47411 | 129° | 7km/h | 22285m | 5.4m/s | -53.1°C | 3.9% | 41hPa | 2.7V | 03:38:52 | 01:43:15 | 00:00:00 | |
| HSKMA3-T | 2026-09-01 06:14:38 | 49.73727 | 8.47417 | 129° | 9km/h | 22295m | 5.9m/s | -53.1°C | 0.1% | 40.9hPa | 2.6V | 03:39:16 | 01:43:17 | 00:00:00 | |
| BIOWL1-15 | 2026-09-01 06:14:38 | 49.73730 | 8.47411 | 129° | 7km/h | 22285m | 5.4m/s | -53.1°C | 0.2% | 41hPa | 2.7V | 03:39:16 | 01:43:15 | 00:00:00 | |
| DL1XH-west | 2026-09-01 06:14:33 | 49.73731 | 8.47405 | 99° | 5km/h | 22269m | 5.2m/s | -53.1°C | 0.1% | 41.1hPa | 2.6V | 03:39:16 | 01:43:12 | 00:00:00 | |
| DJ2DS-15 | 2026-09-01 06:14:33 | 49.73731 | 8.47405 | 100° | 5km/h | 22270m | 5.1m/s | -53.1°C | 3.9% | 41.0hPa | 2.6V | 00:00:00 | 01:43:12 | 00:00:00 | |
| DL4BBY-15 | 2026-09-01 06:14:32 | 49.73732 | 8.47403 | 108° | 5km/h | 22264m | 5.2m/s | -52.1°C | 0% | 0hPa | 2.7V | 00:00:00 | 00:00:00 | 00:00:00 | |
| DM0DOS-11 | 2026-09-01 06:14:31 | 49.73730 | 8.47380 | 110° | 9km/h | 22234m | 5.5m/s | -53.1°C | 3.8% | 41.3hPa | 2.7V | 03:39:02 | 01:43:05 | 00:00:00 | |
| HSKMA3-T | 2026-09-01 06:14:27 | 49.73730 | 8.47384 | 84° | 9km/h | 22239m | 5.5m/s | -53.1°C | 0.1% | 41.2hPa | 2.7V | 03:39:16 | 01:43:06 | 00:00:00 | |
| BIOWL1-15 | 2026-09-01 06:14:25 | 49.73732 | 8.47378 | 134° | 9km/h | 22229m | 4.4m/s | -53.1°C | 0.2% | 41.3hPa | 2.5V | 03:39:16 | 01:43:04 | 00:00:00 | |
| SFWM-10 | 2026-09-01 06:14:24 | 49.73732 | 8.47377 | 135° | 9km/h | 22229m | 4.4m/s | -53.1°C | 0.9% | 41.3hPa | 2.6V | 03:39:00 | 00:00:00 | 00:00:00 | |
| BIOWL7-15 | 2026-09-01 06:14:23 | 49.73733 | 8.47375 | 146° | 7km/h | 22224m | 4.9m/s | -53.1°C | 0.9% | 41.4hPa | 2.6V | 00:00:00 | 00:00:00 | 00:00:00 | |
| DL1XH1-15 | 2026-09-01 06:14:22 | 49.73742 | 8.47368 | 127° | 2km/h | 22188m | 6.3m/s | -52.9°C | 3.9% | 41.6hPa | 2.6V | 03:39:11 | 01:42:56 | 00:00:00 | |
| DL1XH-west | 2026-09-01 06:14:22 | 49.73736 | 8.47372 | 143° | 5km/h | 22214m | 4.6m/s | -53°C | 0.2% | 41.4hPa | 2.7V | 03:39:16 | 01:43:01 | 00:00:00 | |
| HSKMA3-T | 2026-09-01 06:14:17 | 49.73741 | 8.47368 | 128° | 2km/h | 22188m | 6.3m/s | -52.9°C | 0.2% | 41.6hPa | 2.6V | 03:39:16 | 01:42:56 | 00:00:00 | |
| BIOWL1-15 | 2026-09-01 06:14:14 | 49.73740 | 8.47366 | 10° | 2km/h | 22173m | 5.8m/s | -52.7°C | 0.1% | 41.7hPa | 2.7V | 03:39:16 | 01:42:53 | 00:00:00 | |
| DO1YAY-16 | 2026-09-01 06:14:14 | 49.73740 | 8.47367 | 212° | 2km/h | 22167m | 4.9m/s | -52.7°C | 0.9% | 41.7hPa | 2.6V | 00:00:00 | 00:00:00 | 00:00:00 | |
| DM7RM-13 | 2026-09-01 06:14:13 | 49.73740 | 8.47367 | 214° | 2km/h | 22168m | 4.9m/s | -52.7°C | 0.9% | 41.7hPa | 2.6V | 03:39:00 | 00:00:00 | 00:00:00 | |
| DL1XH1-15 | 2026-09-01 06:14:12 | 49.73746 | 8.47373 | 209° | 7km/h | 22137m | 6.1m/s | -52.5°C | 3.8% | 41.9hPa | 2.6V | 03:39:21 | 01:42:46 | 00:00:00 | |
| DM0DOS-11 | 2026-09-01 06:14:11 | 49.73747 | 8.47374 | 212° | 9km/h | 22132m | 5.1m/s | -52.5°C | 3.8% | 42hPa | 2.6V | 03:39:22 | 01:42:45 | 00:00:00 | |
| DL1XH-west | 2026-09-01 06:14:11 | 49.73742 | 8.47368 | 214° | 5km/h | 22158m | 5.4m/s | -52.7°C | 0.1% | 41.8hPa | 2.6V | 03:40:07 | 01:42:50 | 00:00:00 | |
| BIOWL1-15 | 2026-09-01 06:14:06 | 49.73750 | 8.47378 | 227° | 5km/h | 22122m | 5.7m/s | -52.5°C | 0.1% | 42hPa | 2.7V | 03:40:07 | 01:42:43 | 00:00:00 | |
| HSKMA3-T | 2026-09-01 06:14:06 | 49.73747 | 8.47374 | 213° | 9km/h | 22132m | 5.1m/s | -52.5°C | 0.1% | 42hPa | 2.6V | 03:40:07 | 01:42:45 | 00:00:00 | |
| DB0UT-9 | 2026-09-01 06:14:05 | 49.73749 | 8.47376 | 216° | 7km/h | 22127m | 4.8m/s | -52.5°C | 0.9% | 42.0hPa | 2.5V | 03:40:00 | 00:00:00 | 00:00:00 | |
| SFWM-10 | 2026-09-01 06:14:04 | 49.73749 | 8.47376 | 216° | 7km/h | 22127m | 4.8m/s | -52.5°C | 0.8% | 42.0hPa | 2.5V | 00:00:00 | 00:00:00 | 00:00:00 | |
| DO3DL | 2026-09-01 06:14:03 | 49.73750 | 8.47377 | 228° | 5km/h | 22122m | 5.7m/s | -52.5°C | 0.9% | 42.0hPa | 2.5V | 00:00:00 | 00:00:00 | 00:00:00 | |
| DL1XH1-15 | 2026-09-01 06:14:02 | 49.73756 | 8.47386 | 208° | 5km/h | 22084m | 5.6m/s | -52.3°C | 3.8% | 42.3hPa | 2.5V | 03:39:31 | 01:42:36 | 00:00:00 | |
| DL4BBY-15 | 2026-09-01 06:14:02 | 49.73751 | 8.47380 | 228° | 11km/h | 22112m | 5.7m/s | -51.4°C | 0% | 0hPa | 2.5V | 00:00:00 | 00:00:00 | 00:00:00 | |
| DM0DOS-11 | 2026-09-01 06:14:01 | 49.73758 | 8.47388 | 204° | 9km/h | 22079m | 5.7m/s | -52.3°C | 3.7% | 42.3hPa | 2.5V | 03:39:32 | 01:42:35 | 00:00:00 | |
| DL1XH-west | 2026-09-01 06:14:00 | 49.73754 | 8.47383 | 214° | 5km/h | 22101m | 4.6m/s | -52.3°C | 0.1% | 42.1hPa | 2.7V | 03:40:07 | 01:42:39 | 00:00:00 | |
| HSKMA3-T | 2026-09-01 06:13:56 | 49.73758 | 8.47388 | 204° | 9km/h | 22079m | 5.7m/s | -52.3°C | 0.1% | 42.3hPa | 2.5V | 03:40:07 | 01:42:35 | 00:00:00 | |
| BIOWL1-15 | 2026-09-01 06:13:54 | 49.73763 | 8.47391 | 202° | 11km/h | 22069m | 5.6m/s | -52.3°C | 0.1% | 42.4hPa | 2.7V | 03:40:07 | 01:42:33 | 00:00:00 | |
| DJ2DS-15 | 2026-09-01 06:13:53 | 49.73765 | 8.47392 | 199° | 13km/h | 22063m | 5.6m/s | -52.2°C | 3.7% | 42.4hPa | 2.7V | 00:00:00 | 01:42:32 | 00:00:00 | |
| DL1XH1-15 | 2026-09-01 06:13:52 | 49.73781 | 8.47398 | 194° | 7km/h | 22030m | 5.6m/s | -52°C | 3.7% | 42.6hPa | 2.7V | 03:39:41 | 01:42:26 | 00:00:00 | |
| DM0DOS-11 | 2026-09-01 06:13:51 | 49.73783 | 8.47399 | 198° | 7km/h | 22025m | 4.9m/s | -52°C | 3.6% | 42.6hPa | 2.5V | 03:39:42 | 01:42:25 | 00:00:00 | |
| DL1XH-west | 2026-09-01 06:13:49 | 49.73776 | 8.47396 | 192° | 13km/h | 22041m | 4.3m/s | -52.1°C | 0% | 42.5hPa | 2.7V | 03:40:07 | 01:42:28 | 00:00:00 | |
| HSKMA3-T | 2026-09-01 06:13:45 | 49.73785 | 8.47400 | 195° | 9km/h | 22019m | 6.1m/s | -51.9°C | 0% | 42.7hPa | 2.6V | 03:40:07 | 01:42:24 | 00:00:00 | |
| BIOWL1-15 | 2026-09-01 06:13:43 | 49.73790 | 8.47402 | 201° | 11km/h | 22008m | 4.9m/s | -51.8°C | 0% | 42.7hPa | 2.7V | 03:40:07 | 01:42:22 | 00:00:00 | |
| DK5PH-5 | 2026-09-01 06:13:43 | 49.73790 | 8.47402 | 202° | 18km/h | 22009m | 4.8m/s | -51.8°C | 3.6% | 42.7hPa | 2.7V | 00:00:00 | 01:42:22 | 00:00:00 | |
| HTAHTA | 2026-09-01 06:13:42 | 49.73795 | 8.47406 | 207° | 13km/h | 21998m | 4.5m/s | -51.8°C | 0.8% | 42.8hPa | 2.7V | 00:00:00 | 00:00:00 | 00:00:00 | |
| DM0DOS-11 | 2026-09-01 06:13:41 | 49.73818 | 8.47419 | 200° | 18km/h | 21972m | 5.8m/s | -51.8°C | 3.6% | 43hPa | 2.7V | 03:39:52 | 01:42:15 | 00:00:00 | |
| DL1XH-west | 2026-09-01 06:13:39 | 49.73803 | 8.47411 | 200° | 20km/h | 21987m | 5.6m/s | -51.7°C | 0% | 42.9hPa | 2.6V | 03:40:07 | 01:42:18 | 00:00:00 | |
| BIOWL1-15 | 2026-09-01 06:13:36 | 49.73832 | 8.47428 | 206° | 15km/h | 21952m | 4.7m/s | -52°C | 0.1% | 43.1hPa | 2.7V | 03:40:07 | 01:42:11 | 00:00:00 | |
| HSKMA3-T | 2026-09-01 06:13:34 | 49.73825 | 8.47424 | 204° | 13km/h | 21962m | 4.7m/s | -51.9°C | 0% | 43.1hPa | 2.6V | 03:40:07 | 01:42:13 | 00:00:00 | |
| DJ2DS-15 | 2026-09-01 06:13:33 | 49.73829 | 8.47426 | 203° | 18km/h | 21957m | 5.7m/s | -51.9°C | 3.6% | 43.0hPa | 2.6V | 00:00:00 | 01:42:12 | 00:00:00 | |
| DL1XH1-15 | 2026-09-01 06:13:32 | 49.73846 | 8.47451 | 227° | 18km/h | 21925m | 5.8m/s | -52°C | 3.7% | 43.3hPa | 2.7V | 03:40:01 | 01:42:06 | 00:00:00 | |
| BIOWL1-15 | 2026-09-01 06:13:30 | 49.73868 | 8.47473 | 195° | 20km/h | 21893m | 5.7m/s | -51.7°C | 0% | 43.5hPa | 2.7V | 03:40:07 | 01:42:00 | 00:00:00 | |
| DL1XH-west | 2026-09-01 06:13:29 | 49.73841 | 8.47440 | 237° | 16km/h | 21936m | 5.3m/s | -52°C | 0.1% | 43.3hPa | 2.6V | 03:40:07 | 01:42:08 | 00:00:00 | |
| HSKMA3-T | 2026-09-01 06:13:23 | 49.73860 | 8.47467 | 212° | 16km/h | 21904m | 4.8m/s | -51.8°C | 0% | 43.5hPa | 2.5V | 03:40:07 | 01:42:02 | 00:00:00 | |
| DL1XH1-15 | 2026-09-01 06:13:22 | 49.73888 | 8.47481 | 205° | 18km/h | 21872m | 4.7m/s | -51.8°C | 3.5% | 43.7hPa | 2.6V | 03:40:11 | 01:41:56 | 00:00:00 | |
| DM0DOS-11 | 2026-09-01 06:13:21 | 49.73893 | 8.47485 | 208° | 20km/h | 21868m | 4.5m/s | -51.9°C | 3.6% | 43.7hPa | 2.7V | 03:40:12 | 01:41:55 | 00:00:00 | |
| DL1XH-west | 2026-09-01 06:13:18 | 49.73883 | 8.47478 | 198° | 20km/h | 21878m | 5.9m/s | -51.7°C | 0% | 43.6hPa | 2.6V | 03:40:58 | 01:41:57 | 00:00:00 | |
| HSKMA3-T | 2026-09-01 06:13:12 | 49.73912 | 8.47498 | 202° | 20km/h | 21847m | 5.8m/s | -51.9°C | 0.1% | 43.8hPa | 2.6V | 03:40:58 | 01:41:51 | 00:00:00 | |
| DM0DOS-11 | 2026-09-01 06:13:11 | 49.73948 | 8.47501 | 177° | 24km/h | 21815m | 4.8m/s | -51.8°C | 3.6% | 44.1hPa | 2.6V | 03:40:22 | 01:41:45 | 00:00:00 | |
| BIOWL1-15 | 2026-09-01 06:13:10 | 49.73923 | 8.47503 | 187° | 22km/h | 21836m | 6.1m/s | -51.9°C | 0.1% | 43.9hPa | 2.7V | 03:40:58 | 01:41:49 | 00:00:00 | |
| DL1XH-west | 2026-09-01 06:13:07 | 49.73942 | 8.47502 | 176° | 24km/h | 21820m | 6m/s | -51.7°C | 0% | 44hPa | 2.6V | 03:40:58 | 01:41:46 | 00:00:00 | |
| DO3MHA-11 | 2026-09-01 06:13:07 | 49.73942 | 8.47502 | 176° | 24km/h | 21820m | 6.0m/s | -51.7°C | 3.6% | 44.0hPa | 2.5V | 00:00:00 | 01:41:46 | 00:00:00 | |
| DF3TZ-5 | 2026-09-01 06:13:06 | 49.73954 | 8.47501 | 178° | 22km/h | 21810m | 5.3m/s | -51.8°C | 0.8% | 44.1hPa | 2.5V | 00:00:00 | 00:00:00 | 00:00:00 | |
| NBG1-10 | 2026-09-01 06:13:04 | 49.73960 | 8.47501 | 180° | 20km/h | 21804m | 5.5m/s | -51.8°C | 3.5% | 44.1hPa | 2.5V | 00:00:00 | 01:41:43 | 00:00:00 | |
| DL8DAS-15 | 2026-09-01 06:13:03 | 49.73960 | 8.47501 | 180° | 26km/h | 21804m | 5.5m/s | -51.8°C | 0.9% | 44.1hPa | 2.5V | 03:40:00 | 00:00:00 | 00:00:00 | |
| DL1XH1-15 | 2026-09-01 06:13:02 | 49.74002 | 8.47505 | 167° | 26km/h | 21770m | 4.8m/s | -51.8°C | 3.7% | 44.4hPa | 2.5V | 03:40:31 | 01:41:36 | 00:00:00 | |
| HSKMA3-T | 2026-09-01 06:13:02 | 49.73973 | 8.47502 | 187° | 26km/h | 21795m | 4.1m/s | -51.7°C | 0% | 44.2hPa | 2.5V | 03:40:58 | 01:41:41 | 00:00:00 | |
| BIOWL1-15 | 2026-09-01 06:13:01 | 49.73990 | 8.47506 | 184° | 22km/h | 21780m | 4m/s | -51.7°C | 0% | 44.3hPa | 2.7V | 03:40:58 | 01:41:38 | 00:00:00 | |
| DL1XH-west | 2026-09-01 06:12:56 | 49.74008 | 8.47502 | 161° | 26km/h | 21765m | 4.7m/s | -51.9°C | 0.1% | 44.4hPa | 2.6V | 03:40:58 | 01:41:35 | 00:00:00 | |
| DB0ND-19 | 2026-09-01 06:12:55 | 49.74019 | 8.47495 | 157° | 22km/h | 21756m | 4.8m/s | -52.1°C | 0.9% | 44.5hPa | 2.7V | 00:00:00 | 00:00:00 | 00:00:00 | |
| DL1ZP-14 | 2026-09-01 06:12:54 | 49.74019 | 8.47495 | 157° | 22km/h | 21756m | 4.8m/s | -52.1°C | 0.9% | 44.5hPa | 2.7V | 00:00:00 | 00:00:00 | 00:00:00 | |
| DJ2DS-15 | 2026-09-01 06:12:53 | 49.74024 | 8.47492 | 164° | 18km/h | 21751m | 4.2m/s | -52.0°C | 3.7% | 44.4hPa | 2.7V | 03:40:00 | 01:41:32 | 00:00:00 | |
| DL1XH1-15 | 2026-09-01 06:12:52 | 49.74057 | 8.47484 | 173° | 16km/h | 21722m | 5.4m/s | -52.3°C | 3.7% | 44.7hPa | 2.7V | 03:40:41 | 01:41:26 | 00:00:00 | |
| DM0DOS-11 | 2026-09-01 06:12:51 | 49.74061 | 8.47484 | 174° | 13km/h | 21716m | 5.4m/s | -52.2°C | 3.6% | 44.7hPa | 2.6V | 03:40:42 | 01:41:25 | 00:00:00 | |
| HSKMA3-T | 2026-09-01 06:12:51 | 49.74035 | 8.47489 | 174° | 24km/h | 21741m | 5.7m/s | -52.2°C | 0% | 44.6hPa | 2.5V | 03:40:58 | 01:41:30 | 00:00:00 | |
| BIOWL1-15 | 2026-09-01 06:12:48 | 49.74052 | 8.47485 | 172° | 20km/h | 21727m | 4.9m/s | -52.2°C | 0.1% | 44.7hPa | 2.7V | 03:40:58 | 01:41:27 | 00:00:00 | |
| DL1XH-west | 2026-09-01 06:12:46 | 49.74061 | 8.47484 | 175° | 13km/h | 21716m | 5.4m/s | -52.2°C | 0% | 44.7hPa | 2.6V | 03:40:58 | 01:41:25 | 00:00:00 | |
| DO3DL | 2026-09-01 06:12:45 | 49.74061 | 8.47484 | 176° | 13km/h | 21716m | 5.4m/s | -52.2°C | 0.8% | 44.7hPa | 2.7V | 03:40:00 | 00:00:00 | 00:00:00 | |
| DL3AQ-11 | 2026-09-01 06:12:44 | 49.74071 | 8.47481 | 163° | 15km/h | 21700m | 4.6m/s | -52.2°C | 0.8% | 44.9hPa | 2.7V | 00:00:00 | 00:00:00 | 00:00:00 | |
| DK5PH-5 | 2026-09-01 06:12:43 | 49.74071 | 8.47481 | 164° | 11km/h | 21701m | 4.5m/s | -52.2°C | 3.7% | 44.8hPa | 2.7V | 00:00:00 | 01:41:22 | 00:00:00 | |
| DL1XH1-15 | 2026-09-01 06:12:42 | 49.74092 | 8.47454 | 131° | 22km/h | 21669m | 4.9m/s | -52°C | 3.7% | 45.1hPa | 2.7V | 03:40:51 | 01:41:16 | 00:00:00 | |
| HSKMA3-T | 2026-09-01 06:12:40 | 49.74081 | 8.47472 | 136° | 18km/h | 21685m | 4.3m/s | -52.1°C | 0% | 45hPa | 2.6V | 03:40:58 | 01:41:19 | 00:00:00 | |
| BIOWL1-15 | 2026-09-01 06:12:40 | 49.74088 | 8.47461 | 134° | 24km/h | 21674m | 4.9m/s | -52.1°C | 0.1% | 45.1hPa | 2.7V | 03:40:58 | 01:41:17 | 00:00:00 | |
| DL1XH-west | 2026-09-01 06:12:35 | 49.74099 | 8.47442 | 132° | 16km/h | 21659m | 4.2m/s | -52°C | 0% | 45.1hPa | 2.6V | 03:40:58 | 01:41:14 | 00:00:00 | |
| DF3TZ-5 | 2026-09-01 06:12:35 | 49.74105 | 8.47435 | 150° | 15km/h | 21649m | 6.1m/s | -51.9°C | 0.9% | 45.2hPa | 2.7V | 00:00:00 | 00:00:00 | 00:00:00 | |
| DJ2DS-15 | 2026-09-01 06:12:33 | 49.74105 | 8.47435 | 151° | 13km/h | 21649m | 6.1m/s | -51.9°C | 3.7% | 45.1hPa | 2.7V | 00:00:00 | 01:41:12 | 00:00:00 | |
| DL1XH1-15 | 2026-09-01 06:12:32 | 49.74121 | 8.47419 | 128° | 15km/h | 21619m | 5.5m/s | -51.8°C | 3.7% | 45.4hPa | 2.7V | 03:41:01 | 01:41:06 | 00:00:00 | |
| HSKMA3-T | 2026-09-01 06:12:29 | 49.74117 | 8.47427 | 144° | 11km/h | 21628m | 4.9m/s | -51.8°C | 0.1% | 45.4hPa | 2.6V | 03:41:49 | 01:41:08 | 00:00:00 | |
| BIOWL1-15 | 2026-09-01 06:12:27 | 49.74121 | 8.47419 | 128° | 15km/h | 21619m | 5.5m/s | -51.8°C | 0.1% | 45.4hPa | 2.7V | 03:41:49 | 01:41:06 | 00:00:00 | |
| DL1XH-west | 2026-09-01 06:12:25 | 49.74128 | 8.47408 | 132° | 20km/h | 21608m | 4.6m/s | -51.9°C | 0.1% | 45.5hPa | 2.5V | 03:41:49 | 01:41:04 | 00:00:00 | |
| BIOWL9-15 | 2026-09-01 06:12:24 | 49.74131 | 8.47402 | 128° | 18km/h | 21604m | 5.5m/s | -51.8°C | 0.8% | 45.5hPa | 2.6V | 00:00:00 | 00:00:00 | 00:00:00 | |
| DL1ZP-14 | 2026-09-01 06:12:23 | 49.74134 | 8.47396 | 126° | 16km/h | 21598m | 5.5m/s | -51.8°C | 0.8% | 45.5hPa | 2.6V | 00:00:00 | 00:00:00 | 00:00:00 | |
| DL1XH1-15 | 2026-09-01 06:12:22 | 49.74147 | 8.47379 | 165° | 4km/h | 21566m | 5.1m/s | -51.9°C | 3.5% | 45.8hPa | 2.7V | 03:41:11 | 01:40:56 | 00:00:00 | |
| DB0UT-9 | 2026-09-01 06:12:21 | 49.74136 | 8.47391 | 129° | 15km/h | 21593m | 5.3m/s | -51.8°C | 0.9% | 45.6hPa | 2.7V | 03:41:00 | 00:00:00 | 00:00:00 | |
| DM0DOS-11 | 2026-09-01 06:12:20 | 49.74149 | 8.47379 | 180° | 5km/h | 21555m | 5.8m/s | -51.8°C | 3.6% | 45.9hPa | 2.7V | 03:41:13 | 01:40:54 | 00:00:00 | |
| HSKMA3-T | 2026-09-01 06:12:19 | 49.74144 | 8.47381 | 153° | 9km/h | 21577m | 3.9m/s | -51.9°C | 0% | 45.7hPa | 2.6V | 03:41:49 | 01:40:58 | 00:00:00 | |
| BIOWL1-15 | 2026-09-01 06:12:16 | 49.74148 | 8.47379 | 184° | 4km/h | 21561m | 5.4m/s | -51.9°C | 0% | 45.8hPa | 2.7V | 03:41:49 | 01:40:55 | 00:00:00 | |
| DL1XH-west | 2026-09-01 06:12:15 | 49.74149 | 8.47379 | 180° | 5km/h | 21555m | 5.8m/s | -51.8°C | 0% | 45.9hPa | 2.7V | 03:41:49 | 01:40:54 | 00:00:00 | |
| DD1CC2-15 | 2026-09-01 06:12:14 | 49.74149 | 8.47379 | 181° | 5km/h | 21556m | 5.8m/s | -51.8°C | 0.9% | 45.9hPa | 2.6V | 03:41:00 | 00:00:00 | 00:00:00 | |
| DJ2KF-10 | 2026-09-01 06:12:13 | 49.74152 | 8.47377 | 148° | 9km/h | 21546m | 4.5m/s | -51.7°C | 3.6% | 45.9hPa | 2.6V | 03:41:00 | 01:40:52 | 00:00:00 | |
| DL1XH1-15 | 2026-09-01 06:12:12 | 49.74161 | 8.47348 | 108° | 16km/h | 21514m | 5.9m/s | -51.8°C | 3.6% | 46.1hPa | 2.6V | 03:41:21 | 01:40:46 | 00:00:00 | |
| SONDE2-11 | 2026-09-01 06:12:11 | 49.74157 | 8.47366 | 108° | 15km/h | 21530m | 4.6m/s | -51.8°C | 0.8% | 46.0hPa | 2.7V | 00:00:00 | 00:00:00 | 00:00:00 | |
| DM0DOS-11 | 2026-09-01 06:12:10 | 49.74163 | 8.47338 | 108° | 9km/h | 21504m | 4.4m/s | -51.7°C | 3.5% | 46.2hPa | 2.7V | 03:41:23 | 01:40:44 | 00:00:00 | |
| HSKMA3-T | 2026-09-01 06:12:09 | 49.74158 | 8.47360 | 113° | 16km/h | 21525m | 6.1m/s | -51.8°C | 0.1% | 0hPa | 2.5V | 03:41:49 | 01:40:48 | 00:00:00 | |
| DL1XH-west | 2026-09-01 06:12:05 | 49.74163 | 8.47338 | 109° | 11km/h | 21504m | 4.4m/s | -51.7°C | 0% | 46.2hPa | 2.7V | 03:41:49 | 01:40:44 | 00:00:00 | |
| DF3TZ-5 | 2026-09-01 06:12:04 | 49.74165 | 8.47333 | 127° | 2km/h | 21493m | 4.4m/s | -51.8°C | 0.8% | 46.3hPa | 2.6V | 00:00:00 | 00:00:00 | 00:00:00 | |
| DL3AQ-11 | 2026-09-01 06:12:03 | 49.74165 | 8.47333 | 127° | 2km/h | 21493m | 4.4m/s | -51.8°C | 0.8% | 46.3hPa | 2.6V | 00:00:00 | 00:00:00 | 00:00:00 | |
| DL1XH1-15 | 2026-09-01 06:12:02 | 49.74164 | 8.47328 | 85° | 5km/h | 21462m | 5.3m/s | -52.3°C | 3.7% | 46.5hPa | 2.6V | 03:41:31 | 01:40:36 | 00:00:00 | |
| DL4BBY-15 | 2026-09-01 06:12:02 | 49.74165 | 8.47332 | 60° | 11km/h | 21488m | 6.3m/s | -50.9°C | 0% | 0hPa | 2.7V | 00:00:00 | 00:00:00 | 00:00:00 | |
| DM0DOS-11 | 2026-09-01 06:12:00 | 49.74162 | 8.47321 | 67° | 11km/h | 21452m | 4.5m/s | -52.3°C | 3.7% | 46.6hPa | 2.7V | 03:41:33 | 01:40:34 | 00:00:00 | |
| HSKMA3-T | 2026-09-01 06:11:58 | 49.74164 | 8.47330 | 98° | 4km/h | 21467m | 4.3m/s | -52.2°C | 0% | 0hPa | 2.5V | 03:41:49 | 01:40:37 | 00:00:00 | |
| DL1XH-west | 2026-09-01 06:11:54 | 49.74161 | 8.47317 | 71° | 11km/h | 21448m | 4.4m/s | -52.3°C | 0.1% | 46.6hPa | 2.7V | 03:41:49 | 01:40:33 | 00:00:00 | |
| DJ2DS-15 | 2026-09-01 06:11:53 | 49.74160 | 8.47312 | 81° | 15km/h | 21443m | 5.7m/s | -52.3°C | 3.7% | 46.6hPa | 2.6V | 00:00:00 | 01:40:32 | 00:00:00 | |
| DL1XH1-15 | 2026-09-01 06:11:52 | 49.74160 | 8.47289 | 83° | 7km/h | 21411m | 4.6m/s | -52.2°C | 3.7% | 46.9hPa | 2.6V | 03:41:41 | 01:40:26 | 00:00:00 | |
| DL1ZP-14 | 2026-09-01 06:11:52 | 49.74160 | 8.47309 | 92° | 9km/h | 21437m | 4.9m/s | -52.3°C | 0.8% | 46.7hPa | 2.5V | 00:00:00 | 00:00:00 | 00:00:00 | |
| DL3AQ-11 | 2026-09-01 06:11:51 | 49.74161 | 8.47300 | 90° | 11km/h | 21427m | 5.9m/s | -52.2°C | 0.9% | 46.8hPa | 2.6V | 00:00:00 | 00:00:00 | 00:00:00 | |
| DM0DOS-11 | 2026-09-01 06:11:50 | 49.74159 | 8.47284 | 55° | 9km/h | 21402m | 5.9m/s | -52.2°C | 3.6% | 47hPa | 2.6V | 03:41:43 | 01:40:24 | 00:00:00 | |
| HSKMA3-T | 2026-09-01 06:11:48 | 49.74161 | 8.47292 | 91° | 9km/h | 21416m | 6m/s | -52.2°C | 0% | 0hPa | 2.7V | 03:41:49 | 01:40:27 | 00:00:00 | |
| BIOWL1-15 | 2026-09-01 06:11:44 | 49.74157 | 8.47280 | 49° | 13km/h | 21396m | 5m/s | -52.2°C | 0% | 47hPa | 2.7V | 03:41:49 | 01:40:23 | 00:00:00 | |
| DL1XH-west | 2026-09-01 06:11:43 | 49.74155 | 8.47276 | 50° | 15km/h | 21391m | 4.9m/s | -52.2°C | 0% | 47hPa | 2.7V | 03:41:49 | 01:40:22 | 00:00:00 | |
| DK5PH-5 | 2026-09-01 06:11:43 | 49.74155 | 8.47276 | 51° | 9km/h | 21391m | 4.9m/s | -52.1°C | 3.7% | 47.0hPa | 2.7V | 00:00:00 | 01:40:22 | 00:00:00 | |
| DL1XH1-15 | 2026-09-01 06:11:42 | 49.74145 | 8.47235 | 76° | 22km/h | 21361m | 4.3m/s | -52.1°C | 3.7% | 47.2hPa | 2.7V | 03:41:51 | 01:40:16 | 00:00:00 | |
| DM3KS-11 | 2026-09-01 06:11:42 | 49.74150 | 8.47266 | 63° | 15km/h | 21381m | 4.8m/s | -52.1°C | 0.8% | 47.1hPa | 2.5V | 00:00:00 | 00:00:00 | 00:00:00 | |
| AM1SDL-15 | 2026-09-01 06:11:41 | 49.74150 | 8.47266 | 64° | 18km/h | 21381m | 4.7m/s | -52.1°C | 3.6% | 47.1hPa | 2.5V | 03:41:00 | 01:40:20 | 00:00:00 | |
| DM0DOS-11 | 2026-09-01 06:11:40 | 49.74141 | 8.47222 | 51° | 15km/h | 21350m | 4.5m/s | -52.1°C | 3.7% | 47.3hPa | 2.6V | 03:41:53 | 01:40:14 | 00:00:00 | |
| HSKMA3-T | 2026-09-01 06:11:38 | 49.74146 | 8.47244 | 77° | 24km/h | 21365m | 4.5m/s | 0°C | 0% | 0hPa | 2.7V | 18:12:15 | 01:40:17 | 00:00:00 | |
| DL1XH-west | 2026-09-01 06:11:33 | 49.74135 | 8.47215 | 30° | 16km/h | 21341m | 5.4m/s | -52.3°C | 0% | 47.4hPa | 2.7V | 03:42:40 | 01:40:12 | 00:00:00 | |
| DF3TZ-5 | 2026-09-01 06:11:33 | 49.74131 | 8.47211 | 29° | 18km/h | 21335m | 5.1m/s | -52.4°C | 0.9% | 47.5hPa | 2.6V | 00:00:00 | 00:00:00 | 00:00:00 | |
| DL4BBY-15 | 2026-09-01 06:11:32 | 49.74131 | 8.47211 | 30° | 20km/h | 21336m | 5.0m/s | -51.4°C | 0% | 0hPa | 2.6V | 00:00:00 | 00:00:00 | 00:00:00 | |
| DM0DOS-11 | 2026-09-01 06:11:30 | 49.74109 | 8.47176 | 62° | 24km/h | 21301m | 4.4m/s | -52.3°C | 3.7% | 47.7hPa | 2.6V | 03:42:03 | 01:40:04 | 00:00:00 | |
| HSKMA3-T | 2026-09-01 06:11:27 | 49.74114 | 8.47190 | 57° | 18km/h | 21311m | 4.6m/s | 0°C | 0% | 0hPa | 2.7V | 18:12:15 | 01:40:06 | 00:00:00 | |
| BIOWL1-15 | 2026-09-01 06:11:25 | 49.74103 | 8.47159 | 61° | 22km/h | 21291m | 5.5m/s | -52.3°C | 0.1% | 47.8hPa | 2.6V | 03:42:40 | 01:40:02 | 00:00:00 | |
| DL1XH-west | 2026-09-01 06:11:22 | 49.74100 | 8.47152 | 54° | 20km/h | 21287m | 4.5m/s | -52.3°C | 0.1% | 47.8hPa | 2.7V | 03:42:40 | 01:40:01 | 00:00:00 | |
| DL1ZP-14 | 2026-09-01 06:11:21 | 49.74093 | 8.47140 | 39° | 22km/h | 21277m | 5.9m/s | -52.3°C | 0.9% | 47.9hPa | 2.7V | 00:00:00 | 00:00:00 | 00:00:00 | |
| DM0DOS-11 | 2026-09-01 06:11:20 | 49.74067 | 8.47120 | 21° | 20km/h | 21251m | 4.6m/s | -52.3°C | 3.8% | 48.1hPa | 2.7V | 03:42:13 | 01:39:54 | 00:00:00 | |
| BIOWL1-15 | 2026-09-01 06:11:14 | 49.74053 | 8.47105 | 44° | 24km/h | 21236m | 4.6m/s | -52.2°C | 0.1% | 48.2hPa | 2.6V | 03:42:40 | 01:39:51 | 00:00:00 | |
| DL1XH-west | 2026-09-01 06:11:11 | 49.74049 | 8.47099 | 45° | 22km/h | 21230m | 5.8m/s | -52.1°C | 0.1% | 48.2hPa | 2.7V | 03:42:40 | 01:39:50 | 00:00:00 | |
| DM3KS-11 | 2026-09-01 06:11:11 | 49.74045 | 8.47093 | 45° | 20km/h | 21225m | 4.1m/s | -52.1°C | 0.9% | 48.3hPa | 2.7V | 00:00:00 | 00:00:00 | 00:00:00 | |
| DM0DOS-11 | 2026-09-01 06:11:10 | 49.74026 | 8.47065 | 32° | 15km/h | 21201m | 4.8m/s | -52.1°C | 3.7% | 48.5hPa | 2.7V | 03:42:23 | 01:39:44 | 00:00:00 | |
| DL1XH-west | 2026-09-01 06:11:01 | 49.74012 | 8.47059 | 3° | 16km/h | 21180m | 6.1m/s | -51.9°C | 0% | 48.6hPa | 2.6V | 03:42:40 | 01:39:40 | 00:00:00 | |
| DM0DOS-11 | 2026-09-01 06:11:00 | 49.73985 | 8.47044 | 39° | 16km/h | 21149m | 5.5m/s | -51.7°C | 3.6% | 48.8hPa | 2.6V | 03:42:33 | 01:39:34 | 00:00:00 | |
| BIOWL1-15 | 2026-09-01 06:10:55 | 49.73975 | 8.47032 | 28° | 13km/h | 21130m | 4.5m/s | -51.6°C | 0% | 49hPa | 2.6V | 03:42:40 | 01:39:30 | 00:00:00 | |
| DJ2DS-15 | 2026-09-01 06:10:53 | 49.73980 | 8.47037 | 43° | 9km/h | 21141m | 4.4m/s | -51.6°C | 3.6% | 48.8hPa | 2.7V | 00:00:00 | 01:39:32 | 00:00:00 | |
| DL1XH1-15 | 2026-09-01 06:10:52 | 49.73966 | 8.47028 | 1° | 9km/h | 21112m | 4.2m/s | -51.9°C | 3.4% | 49.1hPa | 2.7V | 03:42:41 | 01:39:26 | 00:00:00 | |
| DL1XH-west | 2026-09-01 06:10:50 | 49.73972 | 8.47030 | 19° | 11km/h | 21126m | 3.8m/s | -51.7°C | 0% | 49hPa | 2.6V | 03:42:40 | 01:39:29 | 00:00:00 | |
| DL1ZP-14 | 2026-09-01 06:10:50 | 49.73970 | 8.47029 | 14° | 7km/h | 21121m | 5.8m/s | -51.8°C | 0.8% | 49.0hPa | 2.7V | 00:00:00 | 00:00:00 | 00:00:00 | |
| DJ2DS-15 | 2026-09-01 06:10:47 | 49.73966 | 8.47028 | 1° | 9km/h | 21112m | 4.2m/s | -51.9°C | 0.8% | 49.1hPa | 2.6V | 00:00:00 | 00:00:00 | 00:00:00 | |
| BIOWL1-15 | 2026-09-01 06:10:43 | 49.73947 | 8.47020 | 29° | 9km/h | 21084m | 4.1m/s | -52.5°C | 0% | 49.4hPa | 2.6V | 03:43:31 | 01:39:20 | 00:00:00 | |
| DL1XH1-15 | 2026-09-01 06:10:42 | 49.73940 | 8.47014 | 40° | 4km/h | 21065m | 6.1m/s | -52.7°C | 3.8% | 49.5hPa | 2.7V | 03:42:51 | 01:39:16 | 00:00:00 | |
| DL1XH-west | 2026-09-01 06:10:40 | 49.73945 | 8.47018 | 27° | 9km/h | 21079m | 5.5m/s | -52.6°C | 0% | 49.4hPa | 2.6V | 03:43:31 | 01:39:19 | 00:00:00 | |
| DM3KS-11 | 2026-09-01 06:10:40 | 49.73942 | 8.47016 | 26° | 7km/h | 21074m | 4.8m/s | -52.6°C | 0.8% | 49.4hPa | 2.6V | 00:00:00 | 00:00:00 | 00:00:00 | |
| SONDE2-11 | 2026-09-01 06:10:38 | 49.73940 | 8.47014 | 40° | 4km/h | 21065m | 6.1m/s | -52.7°C | 0.9% | 49.5hPa | 2.6V | 00:00:00 | 00:00:00 | 00:00:00 | |
| DO3MHA-11 | 2026-09-01 06:10:37 | 49.73940 | 8.47014 | 41° | 5km/h | 21065m | 6.1m/s | -52.7°C | 3.8% | 49.4hPa | 2.6V | 00:00:00 | 01:39:16 | 00:00:00 | |
| HEMX73-6 | 2026-09-01 06:10:36 | 49.73939 | 8.47013 | 60° | 13km/h | 21060m | 4.7m/s | -52.8°C | 3.8% | 49.5hPa | 2.6V | 00:00:00 | 01:39:15 | 00:00:00 | |
| DL9PN | 2026-09-01 06:10:35 | 49.73939 | 8.47013 | 35° | 0km/h | 21055m | 4.5m/s | -52.9°C | 0.9% | 49.6hPa | 2.6V | 00:00:00 | 00:00:00 | 00:00:00 | |
| HEMX73-11 | 2026-09-01 06:10:34 | 49.73939 | 8.47012 | 0° | 0km/h | 21055m | 4.5m/s | -52.9°C | 0.9% | 49.6hPa | 2.6V | 03:43:00 | 00:00:00 | 00:00:00 | |
| DJ2DS-15 | 2026-09-01 06:10:33 | 49.73937 | 8.47012 | 19° | 9km/h | 21046m | 3.6m/s | -52.8°C | 3.9% | 49.6hPa | 2.6V | 00:00:00 | 01:39:12 | 00:00:00 | |
| DL1XH1-15 | 2026-09-01 06:10:32 | 49.73933 | 8.46998 | 63° | 13km/h | 21017m | 5.1m/s | -52.8°C | 3.8% | 49.8hPa | 2.7V | 03:43:01 | 01:39:06 | 00:00:00 | |
| BIOWL1-15 | 2026-09-01 06:10:30 | 49.73934 | 8.47008 | 82° | 5km/h | 21032m | 4.8m/s | -52.9°C | 0.1% | 49.7hPa | 2.6V | 03:43:31 | 01:39:09 | 00:00:00 | |
| DL1XH-west | 2026-09-01 06:10:29 | 49.73934 | 8.47005 | 87° | 7km/h | 21027m | 4.6m/s | -52.9°C | 0.1% | 49.8hPa | 2.6V | 03:43:31 | 01:39:08 | 00:00:00 | |
| BIOWL1-15 | 2026-09-01 06:10:24 | 49.73920 | 8.46973 | 45° | 9km/h | 20982m | 5.7m/s | -52.7°C | 0.1% | 50.1hPa | 2.7V | 03:43:31 | 01:38:59 | 00:00:00 | |
| DK5PH-5 | 2026-09-01 06:10:23 | 49.73927 | 8.46982 | 51° | 9km/h | 20998m | 4.4m/s | -52.7°C | 3.8% | 50.0hPa | 2.6V | 00:00:00 | 01:39:02 | 00:00:00 | |
| DL1XH1-15 | 2026-09-01 06:10:22 | 49.73917 | 8.46965 | 68° | 9km/h | 20967m | 5.8m/s | -52.7°C | 3.8% | 50.2hPa | 2.6V | 03:43:11 | 01:38:56 | 00:00:00 | |
| BIOWL7-15 | 2026-09-01 06:10:21 | 49.73925 | 8.46979 | 43° | 13km/h | 20993m | 5.7m/s | -52.7°C | 0.9% | 50.0hPa | 2.7V | 03:43:00 | 00:00:00 | 00:00:00 | |
| DM0DOS-11 | 2026-09-01 06:10:20 | 49.73915 | 8.46959 | 66° | 9km/h | 20958m | 4.1m/s | -52.6°C | 3.7% | 50.3hPa | 2.7V | 03:43:13 | 01:38:54 | 00:00:00 | |
| DL1XH-west | 2026-09-01 06:10:19 | 49.73919 | 8.46971 | 63° | 7km/h | 20977m | 4.8m/s | -52.6°C | 0.1% | 50.2hPa | 2.6V | 03:43:31 | 01:38:58 | 00:00:00 | |
| DL1ZP-14 | 2026-09-01 06:10:19 | 49.73918 | 8.46968 | 74° | 7km/h | 20973m | 4.0m/s | -52.7°C | 0.9% | 50.2hPa | 2.6V | 00:00:00 | 00:00:00 | 00:00:00 | |
| DB0NH | 2026-09-01 06:10:18 | 49.73918 | 8.46968 | 75° | 9km/h | 20973m | 3.9m/s | -52.6°C | 3.8% | 50.1hPa | 2.7V | 00:00:00 | 01:38:57 | 00:00:00 | |
| DO3MHA-11 | 2026-09-01 06:10:17 | 49.73918 | 8.46965 | 69° | 7km/h | 20968m | 5.8m/s | -52.6°C | 3.8% | 50.2hPa | 2.7V | 03:43:00 | 01:38:56 | 00:00:00 | |
| DF2AP-13 | 2026-09-01 06:10:16 | 49.73917 | 8.46962 | 63° | 7km/h | 20963m | 4.2m/s | -52.6°C | 3.8% | 50.2hPa | 2.7V | 00:00:00 | 01:38:55 | 00:00:00 | |
| AM1SDL-15 | 2026-09-01 06:10:15 | 49.73916 | 8.46958 | 67° | 9km/h | 20959m | 4.0m/s | -52.6°C | 3.7% | 50.3hPa | 2.6V | 00:00:00 | 01:38:54 | 00:00:00 | |
| DF1GD-15 | 2026-09-01 06:10:14 | 49.73915 | 8.46958 | 68° | 9km/h | 20959m | 4.1m/s | -52.6°C | 0.9% | 50.3hPa | 2.6V | 03:43:00 | 00:00:00 | 00:00:00 | |
| DJ2DS-15 | 2026-09-01 06:10:13 | 49.73915 | 8.46953 | 102° | 9km/h | 20949m | 4.8m/s | -52.7°C | 3.8% | 50.3hPa | 2.6V | 03:43:00 | 01:38:52 | 00:00:00 | |
| DL1XH1-15 | 2026-09-01 06:10:12 | 49.73907 | 8.46947 | 344° | 11km/h | 20919m | 4.3m/s | -52.7°C | 3.8% | 50.6hPa | 2.6V | 03:43:21 | 01:38:46 | 00:00:00 | |
| DJ2DS-15 | 2026-09-01 06:10:11 | 49.73915 | 8.46948 | 61° | 4km/h | 20939m | 5.4m/s | -52.7°C | 0.9% | 50.5hPa | 2.7V | 00:00:00 | 00:00:00 | 00:00:00 | |
| DM0DOS-11 | 2026-09-01 06:10:10 | 49.73901 | 8.46950 | 348° | 15km/h | 20910m | 5.3m/s | -52.6°C | 3.8% | 50.7hPa | 2.7V | 03:43:23 | 01:38:44 | 00:00:00 | |
| BIOWL1-15 | 2026-09-01 06:10:10 | 49.73914 | 8.46947 | 22° | 7km/h | 20934m | 5m/s | -52.7°C | 0.1% | 50.5hPa | 2.7V | 03:43:31 | 01:38:49 | 00:00:00 | |
| DL1XH-west | 2026-09-01 06:10:09 | 49.73912 | 8.46946 | 2° | 9km/h | 20929m | 4.1m/s | -52.7°C | 0.1% | 50.5hPa | 2.7V | 03:43:31 | 01:38:48 | 00:00:00 | |
| DM3KS-11 | 2026-09-01 06:10:09 | 49.73910 | 8.46947 | 352° | 9km/h | 20925m | 5.8m/s | -52.7°C | 0.9% | 50.6hPa | 2.5V | 00:00:00 | 00:00:00 | 00:00:00 | |
| SONDE2-11 | 2026-09-01 06:10:07 | 49.73904 | 8.46949 | 345° | 11km/h | 20915m | 5.0m/s | -52.7°C | 0.9% | -1.0hPa | 2.5V | 00:00:00 | 00:00:00 | 00:00:00 | |
| DD1CC8 | 2026-09-01 06:10:06 | 49.73904 | 8.46949 | 345° | 11km/h | 20915m | 5.0m/s | -52.7°C | 0.9% | 50.6hPa | 2.5V | 00:00:00 | 00:00:00 | 00:00:00 | |
| HARRO8 | 2026-09-01 06:10:05 | 49.73901 | 8.46950 | 348° | 13km/h | 20910m | 5.3m/s | -52.6°C | 0.9% | 50.7hPa | 2.5V | 00:00:00 | 00:00:00 | 00:00:00 | |
| DL3AQ-11 | 2026-09-01 06:10:04 | 49.73895 | 8.46951 | 350° | 9km/h | 20900m | 5.7m/s | -52.5°C | 0.9% | 50.8hPa | 2.5V | 00:00:00 | 00:00:00 | 00:00:00 | |
| AM1SDL-15 | 2026-09-01 06:10:03 | 49.73895 | 8.46951 | 351° | 9km/h | 20900m | 5.6m/s | -52.4°C | 3.8% | 50.7hPa | 2.5V | 03:43:00 | 01:38:42 | 00:00:00 | |
| DL1XH1-15 | 2026-09-01 06:10:02 | 49.73884 | 8.46955 | 334° | 11km/h | 20872m | 5.2m/s | -52.8°C | 3.6% | 51hPa | 2.5V | 03:43:31 | 01:38:36 | 00:00:00 | |
| BIOWL1-15 | 2026-09-01 06:10:00 | 49.73890 | 8.46953 | 354° | 5km/h | 20886m | 5.3m/s | -52.6°C | 0% | 50.9hPa | 2.6V | 03:43:31 | 01:38:39 | 00:00:00 | |
| DL1XH-west | 2026-09-01 06:09:58 | 49.73886 | 8.46954 | 347° | 11km/h | 20877m | 4.1m/s | -52.7°C | 0% | 50.9hPa | 2.7V | 03:43:31 | 01:38:37 | 00:00:00 | |
| SONCRA | 2026-09-01 06:09:54 | 49.73879 | 8.46963 | 306° | 7km/h | 20857m | 4.3m/s | -52.9°C | 0.9% | 51.1hPa | 2.7V | 00:00:00 | 00:00:00 | 00:00:00 | |
| DJ2DS-15 | 2026-09-01 06:09:53 | 49.73877 | 8.46965 | 317° | 5km/h | 20853m | 5.2m/s | -53.0°C | 3.7% | 51.1hPa | 2.7V | 00:00:00 | 01:38:32 | 00:00:00 | |
| DL1XH1-15 | 2026-09-01 06:09:52 | 49.73873 | 8.46972 | 84° | 4km/h | 20823m | 5.4m/s | -53.1°C | 3.8% | 51.4hPa | 2.7V | 03:43:41 | 01:38:26 | 00:00:00 | |
| DL3AQ-11 | 2026-09-01 06:09:51 | 49.73873 | 8.46970 | 297° | 4km/h | 20838m | 5.6m/s | -53.1°C | 0.9% | 51.3hPa | 2.6V | 00:00:00 | 00:00:00 | 00:00:00 | |
| DM0DOS-11 | 2026-09-01 06:09:50 | 49.73874 | 8.46968 | 115° | 5km/h | 20813m | 5.2m/s | -53.1°C | 3.8% | 51.4hPa | 2.6V | 03:43:43 | 01:38:24 | 00:00:00 | |
| BIOWL1-15 | 2026-09-01 06:09:50 | 49.73873 | 8.46970 | 297° | 5km/h | 20838m | 5.6m/s | -53.1°C | 0.1% | 51.3hPa | 2.6V | 03:44:22 | 01:38:29 | 00:00:00 | |
| DL1XH-west | 2026-09-01 06:09:48 | 49.73873 | 8.46972 | 257° | 0km/h | 20829m | 5m/s | -53.1°C | 0.1% | 51.3hPa | 2.7V | 03:44:22 | 01:38:27 | 00:00:00 | |
| DL1ZP-14 | 2026-09-01 06:09:48 | 49.73873 | 8.46972 | 84° | 2km/h | 20823m | 5.4m/s | -53.1°C | 0.9% | 51.4hPa | 2.7V | 00:00:00 | 00:00:00 | 00:00:00 | |
| DO3MHA-11 | 2026-09-01 06:09:47 | 49.73873 | 8.46972 | 85° | 5km/h | 20823m | 5.3m/s | -53.1°C | 3.8% | 51.3hPa | 2.7V | 00:00:00 | 01:38:26 | 00:00:00 | |
| DF2AP-13 | 2026-09-01 06:09:46 | 49.73873 | 8.46970 | 93° | 7km/h | 20818m | 4.6m/s | -53.1°C | 3.8% | 51.4hPa | 2.7V | 00:00:00 | 01:38:25 | 00:00:00 | |
| DM7RM-13 | 2026-09-01 06:09:44 | 49.73873 | 8.46968 | 117° | 5km/h | 20814m | 5.2m/s | -53.1°C | 0.9% | 51.4hPa | 2.7V | 03:44:00 | 00:00:00 | 00:00:00 | |
| DJTTGO | 2026-09-01 06:09:43 | 49.73874 | 8.46966 | 127° | 5km/h | 20809m | 3.8m/s | -53.2°C | 0.9% | 51.5hPa | 2.7V | 03:44:00 | 00:00:00 | 00:00:00 | |
| DL1XH1-15 | 2026-09-01 06:09:42 | 49.73872 | 8.46955 | 26° | 2km/h | 20776m | 4.2m/s | -53.4°C | 4% | 51.8hPa | 2.7V | 03:43:51 | 01:38:16 | 00:00:00 | |
| DM0DOS-11 | 2026-09-01 06:09:40 | 49.73870 | 8.46953 | 20° | 7km/h | 20766m | 5.2m/s | -53.4°C | 3.9% | 51.8hPa | 2.6V | 03:43:53 | 01:38:14 | 00:00:00 | |
| BIOWL1-15 | 2026-09-01 06:09:39 | 49.73873 | 8.46956 | 45° | 5km/h | 20786m | 5.6m/s | -53.3°C | 0.1% | 51.7hPa | 2.6V | 03:44:22 | 01:38:18 | 00:00:00 | |
| DL1XH-west | 2026-09-01 06:09:37 | 49.73872 | 8.46955 | 27° | 2km/h | 20776m | 4.2m/s | -53.4°C | 0.2% | 51.8hPa | 2.7V | 03:44:22 | 01:38:16 | 00:00:00 | |
| SONDE2-11 | 2026-09-01 06:09:36 | 49.73870 | 8.46953 | 20° | 5km/h | 20767m | 5.2m/s | -53.4°C | -1.0% | -1.0hPa | 2.6V | 00:00:00 | 00:00:00 | 00:00:00 | |
| DD1CC8 | 2026-09-01 06:09:35 | 49.73870 | 8.46953 | 20° | 5km/h | 20767m | 5.2m/s | -53.4°C | 0.9% | 51.8hPa | 2.6V | 00:00:00 | 00:00:00 | 00:00:00 | |
| DF7PN | 2026-09-01 06:09:34 | 49.73866 | 8.46951 | 21° | 7km/h | 20757m | 5.4m/s | -53.4°C | 0.9% | 51.9hPa | 2.6V | 00:00:00 | 00:00:00 | 00:00:00 | |
| DJ2DS-15 | 2026-09-01 06:09:33 | 49.73866 | 8.46951 | 22° | 9km/h | 20757m | 5.4m/s | -53.4°C | 3.9% | 51.8hPa | 2.6V | 00:00:00 | 01:38:12 | 00:00:00 | |
| DL1XH1-15 | 2026-09-01 06:09:32 | 49.73854 | 8.46931 | 67° | 13km/h | 20728m | 4.5m/s | -53.3°C | 3.9% | 52.1hPa | 2.6V | 03:44:01 | 01:38:06 | 00:00:00 | |
| DL4BBY-15 | 2026-09-01 06:09:32 | 49.73864 | 8.46950 | 32° | 9km/h | 20753m | 4.2m/s | -52.3°C | 0% | 0hPa | 2.7V | 00:00:00 | 00:00:00 | 00:00:00 | |
| DM0DOS-11 | 2026-09-01 06:09:30 | 49.73852 | 8.46922 | 62° | 13km/h | 20720m | 5.1m/s | -53.3°C | 3.9% | 52.2hPa | 2.7V | 03:44:03 | 01:38:04 | 00:00:00 | |
| BIOWL1-15 | 2026-09-01 06:09:30 | 49.73856 | 8.46935 | 61° | 15km/h | 20733m | 5.2m/s | -53.3°C | 0.2% | 52.1hPa | 2.6V | 03:44:22 | 01:38:07 | 00:00:00 | |
| DL1XH-west | 2026-09-01 06:09:27 | 49.73855 | 8.46931 | 68° | 13km/h | 20728m | 4.5m/s | -53.3°C | 0.1% | 52.1hPa | 2.6V | 03:44:22 | 01:38:06 | 00:00:00 | |
| DO3MHA-11 | 2026-09-01 06:09:27 | 49.73855 | 8.46930 | 68° | 9km/h | 20729m | 4.4m/s | -53.3°C | 3.9% | 52.1hPa | 2.6V | 00:00:00 | 01:38:06 | 00:00:00 | |
| DL0LBS | 2026-09-01 06:09:26 | 49.73854 | 8.46930 | 69° | 13km/h | 20729m | 4.5m/s | -53.3°C | 1.0% | 52.1hPa | 2.6V | 03:44:00 | 00:00:00 | 00:00:00 | |
| DL3AQ-11 | 2026-09-01 06:09:24 | 49.73849 | 8.46914 | 59° | 9km/h | 20711m | 4.1m/s | -53.4°C | 0.9% | 52.3hPa | 2.6V | 00:00:00 | 00:00:00 | 00:00:00 | |
| DK5PH-5 | 2026-09-01 06:09:23 | 49.73849 | 8.46914 | 60° | 13km/h | 20711m | 4.1m/s | -53.3°C | 3.8% | 52.3hPa | 2.6V | 03:44:00 | 01:38:02 | 00:00:00 | |
| DL1XH1-15 | 2026-09-01 06:09:22 | 49.73848 | 8.46898 | 63° | 5km/h | 20683m | 3.7m/s | -53.3°C | 3.8% | 52.5hPa | 2.6V | 03:44:11 | 01:37:56 | 00:00:00 | |
| DM0DOS-11 | 2026-09-01 06:09:20 | 49.73848 | 8.46894 | 104° | 5km/h | 20675m | 4.8m/s | -53.2°C | 3.8% | 52.6hPa | 2.7V | 03:44:13 | 01:37:54 | 00:00:00 | |
| BIOWL1-15 | 2026-09-01 06:09:18 | 49.73849 | 8.46900 | 77° | 5km/h | 20687m | 4.7m/s | -53.3°C | 0.1% | 52.5hPa | 2.6V | 03:44:22 | 01:37:57 | 00:00:00 | |
| DB0ND-19 | 2026-09-01 06:09:18 | 49.73848 | 8.46898 | 63° | 5km/h | 20683m | 3.7m/s | -53.3°C | 0.9% | 52.5hPa | 2.6V | 00:00:00 | 00:00:00 | 00:00:00 | |
| DL1XH-west | 2026-09-01 06:09:17 | 49.73848 | 8.46898 | 63° | 5km/h | 20683m | 3.7m/s | -53.3°C | 0.1% | 52.5hPa | 2.6V | 03:44:22 | 01:37:56 | 00:00:00 | |
| DL1ZP-14 | 2026-09-01 06:09:17 | 49.73848 | 8.46896 | 76° | 4km/h | 20679m | 4.4m/s | -53.2°C | 0.9% | 52.5hPa | 2.6V | 00:00:00 | 00:00:00 | 00:00:00 | |
| DF2AP-13 | 2026-09-01 06:09:16 | 49.73847 | 8.46896 | 77° | 15km/h | 20679m | 4.3m/s | -53.2°C | 3.8% | 52.5hPa | 2.5V | 00:00:00 | 01:37:55 | 00:00:00 | |
| DJ2KF-10 | 2026-09-01 06:09:15 | 49.73847 | 8.46894 | 105° | 13km/h | 20675m | 4.8m/s | -53.2°C | 3.8% | 52.5hPa | 2.5V | 03:44:00 | 01:37:54 | 00:00:00 | |
| DJ2DS-15 | 2026-09-01 06:09:13 | 49.73849 | 8.46889 | 114° | 16km/h | 20665m | 5.1m/s | -53.2°C | 3.8% | 52.6hPa | 2.5V | 00:00:00 | 01:37:52 | 00:00:00 | |
| DL1XH1-15 | 2026-09-01 06:09:12 | 49.73855 | 8.46864 | 101° | 11km/h | 20637m | 5.4m/s | -53.5°C | 3.9% | 52.9hPa | 2.5V | 03:44:21 | 01:37:46 | 00:00:00 | |
| DM0DOS-11 | 2026-09-01 06:09:10 | 49.73856 | 8.46856 | 97° | 9km/h | 20626m | 4.7m/s | -53.8°C | 4% | 53hPa | 2.6V | 03:44:23 | 01:37:44 | 00:00:00 | |
| BIOWL1-15 | 2026-09-01 06:09:09 | 49.73855 | 8.46864 | 101° | 11km/h | 20637m | 5.4m/s | -53.5°C | 0.1% | 52.9hPa | 2.5V | 03:44:22 | 01:37:46 | 00:00:00 | |
| DL1XH-west | 2026-09-01 06:09:06 | 49.73856 | 8.46860 | 93° | 11km/h | 20631m | 5m/s | -53.6°C | 0.2% | 52.9hPa | 2.6V | 03:44:22 | 01:37:45 | 00:00:00 | |
| DD1CC8 | 2026-09-01 06:09:04 | 49.73856 | 8.46852 | 112° | 9km/h | 20622m | 5.1m/s | -53.8°C | 0.9% | 53.0hPa | 2.6V | 00:00:00 | 00:00:00 | 00:00:00 | |
| DL8DAS-15 | 2026-09-01 06:09:03 | 49.73857 | 8.46849 | 122° | 13km/h | 20617m | 4.0m/s | -53.8°C | 1.0% | 53.0hPa | 2.6V | 00:00:00 | 00:00:00 | 00:00:00 | |
| DL4BBY-15 | 2026-09-01 06:09:02 | 49.73860 | 8.46844 | 118° | 16km/h | 20613m | 4.7m/s | -52.8°C | 0% | 0hPa | 2.6V | 00:00:00 | 00:00:00 | 00:00:00 | |
| DL1XH1-15 | 2026-09-01 06:09:02 | 49.73870 | 8.46808 | 117° | 24km/h | 20588m | 4.1m/s | -53.8°C | 3.9% | 53.3hPa | 2.7V | 03:44:31 | 01:37:36 | 00:00:00 | |
| DM0DOS-11 | 2026-09-01 06:09:00 | 49.73875 | 8.46790 | 107° | 26km/h | 20579m | 4.2m/s | -53.9°C | 3.9% | 53.4hPa | 2.6V | 03:44:33 | 01:37:34 | 00:00:00 | |
| DL1XH-west | 2026-09-01 06:08:56 | 49.73873 | 8.46799 | 112° | 26km/h | 20583m | 5.4m/s | -53.8°C | 0.1% | 53.3hPa | 2.6V | 03:45:13 | 01:37:35 | 00:00:00 | |
| DJ2DS-15 | 2026-09-01 06:08:53 | 49.73879 | 8.46772 | 110° | 15km/h | 20569m | 5.8m/s | -53.8°C | 3.9% | 53.4hPa | 2.7V | 03:44:00 | 01:37:32 | 00:00:00 | |
| DL1XH1-15 | 2026-09-01 06:08:52 | 49.73883 | 8.46735 | 92° | 15km/h | 20541m | 4.8m/s | -53.7°C | 3.9% | 53.7hPa | 2.7V | 03:44:41 | 01:37:26 | 00:00:00 | |
| DL8DAS-14 | 2026-09-01 06:08:51 | 49.73882 | 8.46758 | 106° | 15km/h | 20559m | 4.3m/s | -53.8°C | 1.0% | 53.5hPa | 2.6V | 00:00:00 | 00:00:00 | 00:00:00 | |
| DM0DOS-11 | 2026-09-01 06:08:50 | 49.73884 | 8.46725 | 106° | 13km/h | 20530m | 4.3m/s | -53.7°C | 3.9% | 53.8hPa | 2.6V | 03:44:43 | 01:37:24 | 00:00:00 | |
| BIOWL1-15 | 2026-09-01 06:08:46 | 49.73883 | 8.46730 | 101° | 13km/h | 20536m | 5.7m/s | -53.7°C | 0.1% | 53.7hPa | 2.7V | 03:45:13 | 01:37:25 | 00:00:00 | |
| DL1XH-west | 2026-09-01 06:08:45 | 49.73884 | 8.46725 | 106° | 13km/h | 20530m | 4.4m/s | -53.7°C | 0.1% | 53.8hPa | 2.6V | 03:45:13 | 01:37:24 | 00:00:00 | |
| DJ2KF-10 | 2026-09-01 06:08:44 | 49.73885 | 8.46720 | 101° | 15km/h | 20526m | 5.5m/s | -53.6°C | 3.9% | 53.8hPa | 2.6V | 00:00:00 | 01:37:23 | 00:00:00 | |
| DM7RM-13 | 2026-09-01 06:08:43 | 49.73884 | 8.46720 | 102° | 13km/h | 20526m | 5.6m/s | -53.7°C | 1.0% | 53.8hPa | 2.7V | 03:45:00 | 00:00:00 | 00:00:00 | |
| DL1XH1-15 | 2026-09-01 06:08:42 | 49.73884 | 8.46685 | 70° | 13km/h | 20492m | 3.9m/s | -53.7°C | 3.9% | 54.1hPa | 2.7V | 03:44:51 | 01:37:16 | 00:00:00 | |
| DL8DAS-15 | 2026-09-01 06:08:41 | 49.73885 | 8.46710 | 89° | 13km/h | 20516m | 4.0m/s | -53.7°C | 1.0% | 53.9hPa | 2.7V | 00:00:00 | 00:00:00 | 00:00:00 | |
| DM0DOS-11 | 2026-09-01 06:08:40 | 49.73881 | 8.46678 | 51° | 9km/h | 20482m | 4.9m/s | -53.7°C | 3.8% | 54.2hPa | 2.7V | 03:44:53 | 01:37:14 | 00:00:00 | |
| BIOWL1-15 | 2026-09-01 06:08:36 | 49.73882 | 8.46681 | 64° | 11km/h | 20487m | 5.6m/s | -53.7°C | 0.1% | 54.1hPa | 2.7V | 03:45:13 | 01:37:15 | 00:00:00 | |
| DL1XH-west | 2026-09-01 06:08:35 | 49.73881 | 8.46678 | 51° | 9km/h | 20482m | 4.9m/s | -53.7°C | 0.1% | 54.2hPa | 2.7V | 03:45:13 | 01:37:14 | 00:00:00 | |
| SONDE2-11 | 2026-09-01 06:08:34 | 49.73877 | 8.46672 | 35° | 11km/h | 20473m | 5.8m/s | 0°C | -1.0% | -1.0hPa | 2.6V | 00:00:00 | 00:00:00 | 00:00:00 | |
| DJ2DS-15 | 2026-09-01 06:08:33 | 49.73877 | 8.46672 | 36° | 15km/h | 20473m | 5.8m/s | -53.8°C | 4.0% | 54.2hPa | 2.6V | 00:00:00 | 01:37:12 | 00:00:00 | |
| DL1XH1-15 | 2026-09-01 06:08:32 | 49.73864 | 8.46653 | 64° | 15km/h | 20444m | 5.4m/s | -54.2°C | 4% | 54.5hPa | 2.6V | 03:45:01 | 01:37:06 | 00:00:00 | |
| HARRO8 | 2026-09-01 06:08:32 | 49.73872 | 8.46667 | 30° | 13km/h | 20463m | 4.6m/s | -54.1°C | 1.0% | 54.3hPa | 2.7V | 00:00:00 | 00:00:00 | 00:00:00 | |
| DL3AQ-11 | 2026-09-01 06:08:31 | 49.73869 | 8.46664 | 34° | 11km/h | 20458m | 5.4m/s | -54.1°C | 1.0% | 54.4hPa | 2.7V | 00:00:00 | 00:00:00 | 00:00:00 | |
| DM0DOS-11 | 2026-09-01 06:08:30 | 49.73859 | 8.46641 | 57° | 20km/h | 20436m | 4m/s | -54.2°C | 4.1% | 54.6hPa | 2.7V | 03:45:03 | 01:37:04 | 00:00:00 | |
| BIOWL1-15 | 2026-09-01 06:08:25 | 49.73859 | 8.46641 | 58° | 20km/h | 20436m | 4m/s | -54.2°C | 0.2% | 54.6hPa | 2.7V | 03:45:13 | 01:37:04 | 00:00:00 | |
| DL1XH-west | 2026-09-01 06:08:24 | 49.73857 | 8.46635 | 52° | 18km/h | 20431m | 5.3m/s | -54.1°C | 0.2% | 54.6hPa | 2.7V | 03:45:13 | 01:37:03 | 00:00:00 | |
| DK5PH-5 | 2026-09-01 06:08:23 | 49.73854 | 8.46630 | 44° | 15km/h | 20426m | 4.9m/s | -54.1°C | 4.1% | 54.6hPa | 2.6V | 00:00:00 | 01:37:02 | 00:00:00 | |
| DL1XH1-15 | 2026-09-01 06:08:22 | 49.73835 | 8.46611 | 19° | 11km/h | 20397m | 4.6m/s | -54.1°C | 4% | 54.9hPa | 2.6V | 03:45:11 | 01:36:56 | 00:00:00 | |
| DL8DAS-14 | 2026-09-01 06:08:21 | 49.73844 | 8.46619 | 32° | 15km/h | 20411m | 4.2m/s | -54.1°C | 1.0% | 54.8hPa | 2.7V | 00:00:00 | 00:00:00 | 00:00:00 | |
| DM0DOS-11 | 2026-09-01 06:08:20 | 49.73829 | 8.46608 | 25° | 13km/h | 20387m | 5.5m/s | -54.1°C | 4% | 55hPa | 2.7V | 03:45:13 | 01:36:54 | 00:00:00 | |
| DL1XH-west | 2026-09-01 06:08:14 | 49.73826 | 8.46606 | 29° | 15km/h | 20382m | 3.9m/s | -54°C | 0.2% | 55hPa | 2.7V | 03:46:04 | 01:36:53 | 00:00:00 | |
| NBG1-10 | 2026-09-01 06:08:14 | 49.73826 | 8.46606 | 30° | 15km/h | 20382m | 3.9m/s | -54.0°C | 4.0% | 55.0hPa | 2.6V | 00:00:00 | 01:36:53 | 00:00:00 | |
| DJ2DS-15 | 2026-09-01 06:08:13 | 49.73823 | 8.46603 | 25° | 15km/h | 20378m | 5.0m/s | -53.9°C | 3.9% | 55.0hPa | 2.6V | 00:00:00 | 01:36:52 | 00:00:00 | |
| DL1XH1-15 | 2026-09-01 06:08:12 | 49.73803 | 8.46599 | 358° | 16km/h | 20347m | 5.8m/s | -54°C | 4.1% | 55.3hPa | 2.6V | 03:45:21 | 01:36:46 | 00:00:00 | |
| DJ2KF-10 | 2026-09-01 06:08:12 | 49.73820 | 8.46602 | 12° | 16km/h | 20372m | 5.8m/s | -53.9°C | 3.9% | 55.1hPa | 2.6V | 00:00:00 | 01:36:51 | 00:00:00 | |
| DM0DOS-11 | 2026-09-01 06:08:10 | 49.73795 | 8.46600 | 355° | 18km/h | 20337m | 4.9m/s | -54.1°C | 4.1% | 55.4hPa | 2.6V | 03:45:23 | 01:36:44 | 00:00:00 | |
| BIOWL1-15 | 2026-09-01 06:08:04 | 49.73790 | 8.46600 | 359° | 20km/h | 20332m | 5.8m/s | -54.2°C | 0.3% | 55.5hPa | 2.7V | 03:46:04 | 01:36:43 | 00:00:00 | |
| DM7RM-13 | 2026-09-01 06:08:03 | 49.73790 | 8.46600 | 360° | 20km/h | 20332m | 5.8m/s | -54.2°C | 1.0% | 55.5hPa | 2.7V | 03:46:00 | 00:00:00 | 00:00:00 | |
| DL1XH1-15 | 2026-09-01 06:08:02 | 49.73763 | 8.46599 | 22° | 11km/h | 20298m | 5.2m/s | -54.1°C | 4.1% | 55.8hPa | 2.7V | 03:45:31 | 01:36:36 | 00:00:00 | |
| DL4BBY-15 | 2026-09-01 06:08:02 | 49.73779 | 8.46600 | 1° | 15km/h | 20323m | 3.7m/s | -53.2°C | 0% | 0hPa | 2.6V | 00:00:00 | 00:00:00 | 00:00:00 | |
| DF7PN | 2026-09-01 06:08:01 | 49.73771 | 8.46600 | 355° | 13km/h | 20313m | 4.9m/s | -54.1°C | 1.0% | 55.6hPa | 2.6V | 00:00:00 | 00:00:00 | 00:00:00 | |
| DM0DOS-11 | 2026-09-01 06:08:00 | 49.73758 | 8.46595 | 33° | 9km/h | 20288m | 5.4m/s | -54.1°C | 4.2% | 55.9hPa | 2.6V | 03:45:33 | 01:36:34 | 00:00:00 | |
| DL1XH-west | 2026-09-01 06:07:53 | 49.73754 | 8.46592 | 22° | 9km/h | 20278m | 4m/s | -54°C | 0.2% | 55.9hPa | 2.7V | 03:46:04 | 01:36:32 | 00:00:00 | |
| DK5PH-5 | 2026-09-01 06:07:53 | 49.73753 | 8.46592 | 23° | 15km/h | 20279m | 4.0m/s | -54.0°C | 4.1% | 55.9hPa | 2.7V | 00:00:00 | 01:36:32 | 00:00:00 | |
| DL1XH1-15 | 2026-09-01 06:07:52 | 49.73730 | 8.46597 | 337° | 22km/h | 20249m | 6m/s | -53.7°C | 4% | 56.2hPa | 2.7V | 03:45:41 | 01:36:26 | 00:00:00 | |
| DL3AQ-11 | 2026-09-01 06:07:51 | 49.73743 | 8.46589 | 351° | 15km/h | 20264m | 5.1m/s | -53.9°C | 0.9% | 56.0hPa | 2.6V | 00:00:00 | 00:00:00 | 00:00:00 | |
| DM0DOS-11 | 2026-09-01 06:07:50 | 49.73720 | 8.46603 | 338° | 18km/h | 20238m | 5.2m/s | -53.6°C | 3.9% | 56.3hPa | 2.6V | 03:45:43 | 01:36:24 | 00:00:00 | |
| SONCRA | 2026-09-01 06:07:50 | 49.73739 | 8.46591 | 339° | 16km/h | 20259m | 5.5m/s | -53.8°C | 1.0% | 56.1hPa | 2.6V | 00:00:00 | 00:00:00 | 00:00:00 | |
| DL8DAS-14 | 2026-09-01 06:07:49 | 49.73739 | 8.46591 | 339° | 16km/h | 20259m | 5.5m/s | -53.8°C | 1.0% | 56.1hPa | 2.6V | 00:00:00 | 00:00:00 | 00:00:00 | |
| DJ2DS-15 | 2026-09-01 06:07:47 | 49.73730 | 8.46597 | 337° | 22km/h | 20249m | 6.0m/s | -53.7°C | 1.0% | 56.2hPa | 2.6V | 00:00:00 | 00:00:00 | 00:00:00 | |
| BIOWL9-15 | 2026-09-01 06:07:45 | 49.73720 | 8.46603 | 338° | 18km/h | 20239m | 5.2m/s | -53.6°C | 1.0% | 56.3hPa | 2.6V | 00:00:00 | 00:00:00 | 00:00:00 | |
| DB0ND-19 | 2026-09-01 06:07:44 | 49.73716 | 8.46605 | 339° | 13km/h | 20234m | 5.2m/s | -53.6°C | 1.0% | 56.3hPa | 2.6V | 00:00:00 | 00:00:00 | 00:00:00 | |
| DL1XH-west | 2026-09-01 06:07:43 | 49.73713 | 8.46607 | 348° | 9km/h | 20229m | 4.2m/s | -53.6°C | 0.2% | 56.4hPa | 2.6V | 03:46:04 | 01:36:22 | 00:00:00 | |
| DD1CC2-15 | 2026-09-01 06:07:42 | 49.73713 | 8.46607 | 349° | 9km/h | 20229m | 4.2m/s | -53.6°C | 1.0% | 56.4hPa | 2.7V | 03:46:00 | 00:00:00 | 00:00:00 | |
| NBG1-10 | 2026-09-01 06:07:41 | 49.73708 | 8.46606 | 23° | 11km/h | 20219m | 4.9m/s | -53.4°C | 3.9% | 56.4hPa | 2.7V | 00:00:00 | 01:36:20 | 00:00:00 | |
| DM0DOS-11 | 2026-09-01 06:07:40 | 49.73693 | 8.46606 | 339° | 16km/h | 20189m | 5.3m/s | -53.4°C | 3.9% | 56.7hPa | 2.7V | 03:45:53 | 01:36:14 | 00:00:00 | |
| DL1XH-west | 2026-09-01 06:07:33 | 49.73684 | 8.46612 | 328° | 20km/h | 20179m | 6m/s | -53.5°C | 0.1% | 56.8hPa | 2.6V | 03:46:04 | 01:36:12 | 00:00:00 | |
| BIOWL1-15 | 2026-09-01 06:07:32 | 49.73680 | 8.46617 | 326° | 20km/h | 20173m | 4.3m/s | -53.5°C | 0.2% | 56.9hPa | 2.6V | 03:46:04 | 01:36:11 | 00:00:00 | |
| DL4BBY-15 | 2026-09-01 06:07:32 | 49.73680 | 8.46617 | 327° | 11km/h | 20173m | 4.3m/s | -52.5°C | 0% | 0hPa | 2.7V | 00:00:00 | 00:00:00 | 00:00:00 | |
| DD1CC8 | 2026-09-01 06:07:31 | 49.73671 | 8.46624 | 339° | 18km/h | 20164m | 5.9m/s | -53.4°C | 1.0% | 56.9hPa | 2.7V | 00:00:00 | 00:00:00 | 00:00:00 | |
| DM0DOS-11 | 2026-09-01 06:07:30 | 49.73657 | 8.46629 | 327° | 4km/h | 20140m | 4.4m/s | -53.3°C | 3.9% | 57.1hPa | 2.7V | 03:46:03 | 01:36:04 | 00:00:00 | |
| DL1XH-west | 2026-09-01 06:07:22 | 49.73654 | 8.46632 | 291° | 5km/h | 20124m | 5.9m/s | -53.2°C | 0.2% | 57.3hPa | 2.6V | 03:46:55 | 01:36:01 | 00:00:00 | |
| BIOWL1-15 | 2026-09-01 06:07:21 | 49.73654 | 8.46634 | 284° | 7km/h | 20119m | 5.3m/s | -53.2°C | 0.1% | 57.4hPa | 2.6V | 03:46:55 | 01:36:00 | 00:00:00 | |
| DM0DOS-11 | 2026-09-01 06:07:20 | 49.73640 | 8.46657 | 317° | 16km/h | 20088m | 5.1m/s | -53.1°C | 3.9% | 57.6hPa | 2.6V | 03:46:13 | 01:35:54 | 00:00:00 | |
| BIOWL1-15 | 2026-09-01 06:07:11 | 49.73632 | 8.46667 | 286° | 4km/h | 20065m | 5m/s | -52.9°C | 0.1% | 57.8hPa | 2.6V | 03:46:55 | 01:35:50 | 00:00:00 | |
| DL3AQ-11 | 2026-09-01 06:07:11 | 49.73632 | 8.46668 | 254° | 2km/h | 20061m | 4.5m/s | -52.8°C | 0.9% | 57.9hPa | 2.7V | 00:00:00 | 00:00:00 | 00:00:00 | |
| DB0UT-7 | 2026-09-01 06:07:09 | 49.73632 | 8.46669 | 267° | 7km/h | 20056m | 6.0m/s | -52.7°C | 3.7% | 57.9hPa | 2.7V | 00:00:00 | 00:00:00 | 00:00:00 | |
| NBG1-10 | 2026-09-01 06:07:08 | 49.73632 | 8.46671 | 296° | 7km/h | 20050m | 4.9m/s | -52.7°C | 3.7% | 57.9hPa | 2.7V | 00:00:00 | 01:35:47 | 00:00:00 | |
| DO3MHA-11 | 2026-09-01 06:07:07 | 49.73631 | 8.46672 | 300° | 11km/h | 20045m | 4.8m/s | -52.7°C | 3.7% | 57.9hPa | 2.7V | 00:00:00 | 01:35:46 | 00:00:00 | |
| BIOWL7-15 | 2026-09-01 06:07:06 | 49.73631 | 8.46672 | 300° | 5km/h | 20045m | 4.9m/s | -52.7°C | 0.9% | 58.0hPa | 2.7V | 03:46:00 | 00:00:00 | 00:00:00 | |
| DJTTGO | 2026-09-01 06:07:04 | 49.73630 | 8.46678 | 287° | 9km/h | 20034m | 5.2m/s | -52.7°C | 0.9% | 58.1hPa | 2.7V | 00:00:00 | 00:00:00 | 00:00:00 | |
| DL0LBS | 2026-09-01 06:07:03 | 49.73629 | 8.46681 | 290° | 11km/h | 20030m | 4.4m/s | -52.7°C | 0.9% | 58.2hPa | 2.7V | 03:46:00 | 00:00:00 | 00:00:00 | |
| DL1XH1-15 | 2026-09-01 06:07:02 | 49.73618 | 8.46705 | 279° | 5km/h | 19994m | 5.8m/s | -52.8°C | 3.7% | 58.4hPa | 2.7V | 03:46:31 | 01:35:36 | 00:00:00 | |
| DL1XH-west | 2026-09-01 06:07:01 | 49.73623 | 8.46692 | 318° | 15km/h | 20014m | 4.8m/s | -52.7°C | 0% | 58.3hPa | 2.6V | 03:46:55 | 01:35:40 | 00:00:00 | |
| BIOWL1-15 | 2026-09-01 06:07:00 | 49.73621 | 8.46696 | 312° | 13km/h | 20009m | 5.9m/s | -52.7°C | 0% | 58.3hPa | 2.6V | 03:46:55 | 01:35:39 | 00:00:00 | |
| DL3AQ-11 | 2026-09-01 06:07:00 | 49.73619 | 8.46700 | 299° | 9km/h | 20004m | 4.9m/s | -52.8°C | 0.9% | 58.4hPa | 2.7V | 00:00:00 | 00:00:00 | 00:00:00 | |
| HARRO8 | 2026-09-01 06:06:59 | 49.73618 | 8.46703 | 283° | 7km/h | 19999m | 4.3m/s | -52.8°C | 0.9% | 58.4hPa | 2.7V | 00:00:00 | 00:00:00 | 00:00:00 | |
| HTAHTA | 2026-09-01 06:06:58 | 49.73618 | 8.46705 | 279° | 5km/h | 19994m | 5.8m/s | 0°C | -1.0% | -1.0hPa | 2.7V | 00:00:00 | 00:00:00 | 00:00:00 | |
| DO3MHA-11 | 2026-09-01 06:06:57 | 49.73618 | 8.46705 | 280° | 4km/h | 19994m | 5.8m/s | -52.8°C | 3.7% | 58.4hPa | 2.7V | 03:46:00 | 01:35:36 | 00:00:00 | |
| DJ2KF-10 | 2026-09-01 06:06:55 | 49.73618 | 8.46707 | 219° | 7km/h | 19983m | 5.3m/s | -52.9°C | 3.8% | 58.5hPa | 2.6V | 03:46:00 | 01:35:34 | 00:00:00 | |
| DB0UT-9 | 2026-09-01 06:06:54 | 49.73619 | 8.46708 | 201° | 4km/h | 19978m | 6.2m/s | -53.0°C | 1.0% | 58.6hPa | 2.7V | 03:46:00 | 00:00:00 | 00:00:00 | |
| DK5PH-5 | 2026-09-01 06:06:53 | 49.73620 | 8.46708 | 187° | 9km/h | 19972m | 5.1m/s | -53.0°C | 3.8% | 58.6hPa | 2.7V | 00:00:00 | 01:35:32 | 00:00:00 | |
| DL1XH1-15 | 2026-09-01 06:06:52 | 49.73622 | 8.46707 | 5° | 4km/h | 19940m | 5.3m/s | -53.2°C | 3.8% | 59hPa | 2.7V | 03:46:41 | 01:35:26 | 00:00:00 | |
| DL1XH-west | 2026-09-01 06:06:51 | 49.73622 | 8.46708 | 150° | 4km/h | 19961m | 5.9m/s | -53.1°C | 0.1% | 58.7hPa | 2.7V | 03:46:55 | 01:35:30 | 00:00:00 | |
| BIOWL1-15 | 2026-09-01 06:06:49 | 49.73623 | 8.46707 | 46° | 0km/h | 19951m | 5.7m/s | -53.2°C | 0.1% | 58.9hPa | 2.6V | 03:46:55 | 01:35:28 | 00:00:00 | |
| SONCRA | 2026-09-01 06:06:48 | 49.73622 | 8.46707 | 5° | 2km/h | 19941m | 5.3m/s | -53.2°C | 0.9% | 59.0hPa | 2.6V | 00:00:00 | 00:00:00 | 00:00:00 | |
| DO3MHA-11 | 2026-09-01 06:06:47 | 49.73622 | 8.46707 | 6° | 5km/h | 19941m | 5.2m/s | -53.2°C | 3.8% | 58.9hPa | 2.6V | 00:00:00 | 01:35:26 | 00:00:00 | |
| BIOWL7-15 | 2026-09-01 06:06:46 | 49.73622 | 8.46707 | 7° | 4km/h | 19941m | 5.3m/s | -53.2°C | 0.9% | 59.0hPa | 2.6V | 03:46:00 | 00:00:00 | 00:00:00 | |
| DL8OAI-8 | 2026-09-01 06:06:45 | 49.73621 | 8.46706 | 35° | 5km/h | 19935m | 5.8m/s | -53.2°C | 0.9% | 59.0hPa | 2.6V | 03:46:00 | 00:00:00 | 00:00:00 | |
| DL3AQ-11 | 2026-09-01 06:06:44 | 49.73619 | 8.46702 | 113° | 2km/h | 19919m | 5.8m/s | -53.4°C | 0.9% | 59.1hPa | 2.6V | 00:00:00 | 00:00:00 | 00:00:00 | |
| BIOWL9-15 | 2026-09-01 06:06:43 | 49.73620 | 8.46701 | 152° | 4km/h | 19914m | 4.6m/s | -53.4°C | 0.9% | 59.2hPa | 2.6V | 00:00:00 | 00:00:00 | 00:00:00 | |
| DL1XH1-15 | 2026-09-01 06:06:42 | 49.73625 | 8.46687 | 94° | 9km/h | 19889m | 5.8m/s | -53.6°C | 3.8% | 59.4hPa | 2.6V | 03:46:51 | 01:35:16 | 00:00:00 | |
| DL1XH-west | 2026-09-01 06:06:40 | 49.73622 | 8.46698 | 129° | 9km/h | 19904m | 5.3m/s | -53.4°C | 0% | 59.3hPa | 2.7V | 03:46:55 | 01:35:19 | 00:00:00 | |
| BIOWL1-15 | 2026-09-01 06:06:39 | 49.73624 | 8.46694 | 114° | 11km/h | 19899m | 4.6m/s | -53.4°C | 0% | 59.3hPa | 2.6V | 03:46:55 | 01:35:18 | 00:00:00 | |
| DB0NH | 2026-09-01 06:06:39 | 49.73624 | 8.46694 | 114° | 16km/h | 19899m | 4.6m/s | -53.4°C | 3.8% | 59.3hPa | 2.6V | 00:00:00 | 01:35:18 | 00:00:00 | |
| SFWM-10 | 2026-09-01 06:06:38 | 49.73623 | 8.46694 | 115° | 11km/h | 19899m | 4.6m/s | -53.4°C | 0.9% | 59.3hPa | 2.6V | 03:46:00 | 00:00:00 | 00:00:00 | |
| DO3MHA-11 | 2026-09-01 06:06:37 | 49.73625 | 8.46687 | 95° | 11km/h | 19889m | 5.7m/s | -53.6°C | 3.8% | 59.4hPa | 2.6V | 00:00:00 | 01:35:16 | 00:00:00 | |
| NBG1-10 | 2026-09-01 06:06:35 | 49.73625 | 8.46680 | 91° | 16km/h | 19878m | 6.4m/s | -53.8°C | 3.9% | 59.5hPa | 2.6V | 03:46:00 | 01:35:14 | 00:00:00 | |
| DJ2DS-15 | 2026-09-01 06:06:33 | 49.73625 | 8.46672 | 86° | 16km/h | 19867m | 5.8m/s | -53.8°C | 3.9% | 59.6hPa | 2.6V | 00:00:00 | 01:35:12 | 00:00:00 | |
| DL1XH1-15 | 2026-09-01 06:06:32 | 49.73627 | 8.46640 | 104° | 18km/h | 19835m | 6m/s | -54°C | 4% | 59.9hPa | 2.6V | 03:47:01 | 01:35:06 | 00:00:00 | |
| BIOWL1-15 | 2026-09-01 06:06:32 | 49.73626 | 8.46647 | 105° | 18km/h | 19840m | 5m/s | -54°C | 0.2% | 59.9hPa | 2.6V | 03:47:46 | 01:35:07 | 00:00:00 | |
| DL4BBY-15 | 2026-09-01 06:06:32 | 49.73624 | 8.46669 | 81° | 16km/h | 19861m | 5.2m/s | -52.9°C | 0% | 0hPa | 2.7V | 00:00:00 | 00:00:00 | 00:00:00 | |
| DL3AQ-11 | 2026-09-01 06:06:31 | 49.73624 | 8.46660 | 94° | 13km/h | 19850m | 6.3m/s | -54.0°C | 1.0% | 59.8hPa | 2.7V | 00:00:00 | 00:00:00 | 00:00:00 | |
| DM0DOS-11 | 2026-09-01 06:06:30 | 49.73629 | 8.46627 | 100° | 18km/h | 19825m | 4.3m/s | -54.1°C | 4.1% | 60hPa | 2.7V | 03:47:03 | 01:35:04 | 00:00:00 | |
| DL1XH-west | 2026-09-01 06:06:29 | 49.73625 | 8.46654 | 103° | 18km/h | 19845m | 4.6m/s | -54°C | 0.2% | 59.8hPa | 2.7V | 03:47:46 | 01:35:08 | 00:00:00 | |
| DD1CC8 | 2026-09-01 06:06:29 | 49.73626 | 8.46647 | 105° | 18km/h | 19840m | 5.0m/s | -54.0°C | 1.0% | 59.9hPa | 2.6V | 00:00:00 | 00:00:00 | 00:00:00 | |
| DO1YAY-16 | 2026-09-01 06:06:28 | 49.73627 | 8.46640 | 104° | 16km/h | 19835m | 6.0m/s | -54.0°C | 1.0% | 59.9hPa | 2.6V | 00:00:00 | 00:00:00 | 00:00:00 | |
| DO3MHA-11 | 2026-09-01 06:06:27 | 49.73627 | 8.46640 | 105° | 18km/h | 19835m | 5.9m/s | -54.0°C | 4.0% | 59.8hPa | 2.6V | 00:00:00 | 01:35:06 | 00:00:00 | |
| DL9PN | 2026-09-01 06:06:26 | 49.73629 | 8.46627 | 100° | 16km/h | 19825m | 4.3m/s | -54.1°C | 1.0% | 60.0hPa | 2.6V | 00:00:00 | 00:00:00 | 00:00:00 | |
| DJ2KF-10 | 2026-09-01 06:06:25 | 49.73629 | 8.46627 | 101° | 18km/h | 19825m | 4.3m/s | -54.1°C | 4.1% | 60.0hPa | 2.6V | 00:00:00 | 01:35:04 | 00:00:00 | |
| BIOWL7-15 | 2026-09-01 06:06:24 | 49.73629 | 8.46627 | 102° | 18km/h | 19825m | 4.3m/s | -54.1°C | 1.0% | 60.0hPa | 2.6V | 00:00:00 | 00:00:00 | 00:00:00 | |
| DK5PH-5 | 2026-09-01 06:06:23 | 49.73631 | 8.46612 | 104° | 18km/h | 19815m | 5.1m/s | -54.1°C | 4.1% | 60.1hPa | 2.6V | 00:00:00 | 01:35:02 | 00:00:00 | |
| DL1XH1-15 | 2026-09-01 06:06:22 | 49.73634 | 8.46572 | 84° | 16km/h | 19783m | 4.6m/s | -54°C | 4% | 60.4hPa | 2.6V | 03:47:11 | 01:34:56 | 00:00:00 | |
| DM7RM-13 | 2026-09-01 06:06:21 | 49.73632 | 8.46604 | 104° | 20km/h | 19810m | 4.8m/s | -54.2°C | 1.0% | 60.1hPa | 2.6V | 03:47:00 | 00:00:00 | 00:00:00 | |
| DM0DOS-11 | 2026-09-01 06:06:20 | 49.73632 | 8.46560 | 81° | 13km/h | 19772m | 5.3m/s | -53.9°C | 3.9% | 60.5hPa | 2.6V | 03:47:13 | 01:34:54 | 00:00:00 | |
| BIOWL1-15 | 2026-09-01 06:06:19 | 49.73634 | 8.46572 | 84° | 16km/h | 19783m | 4.6m/s | -54°C | 0.2% | 60.4hPa | 2.6V | 03:47:46 | 01:34:56 | 00:00:00 | |
| DL1XH-west | 2026-09-01 06:06:19 | 49.73634 | 8.46585 | 88° | 15km/h | 19793m | 6.1m/s | -54.1°C | 0.2% | 60.3hPa | 2.7V | 03:47:46 | 01:34:58 | 00:00:00 | |
| SONCRA | 2026-09-01 06:06:17 | 49.73633 | 8.46566 | 78° | 15km/h | 19778m | 6.0m/s | -54.0°C | 1.0% | 60.4hPa | 2.7V | 00:00:00 | 00:00:00 | 00:00:00 | |
| DL8DAS-14 | 2026-09-01 06:06:16 | 49.73633 | 8.46566 | 78° | 15km/h | 19778m | 6.0m/s | -54.0°C | 1.0% | 60.4hPa | 2.7V | 00:00:00 | 00:00:00 | 00:00:00 | |
| DJ2DS-15 | 2026-09-01 06:06:13 | 49.73632 | 8.46549 | 93° | 18km/h | 19763m | 5.7m/s | -53.8°C | 3.9% | 60.5hPa | 2.7V | 03:47:00 | 01:34:52 | 00:00:00 | |
| DL1XH1-15 | 2026-09-01 06:06:12 | 49.73642 | 8.46507 | 116° | 22km/h | 19732m | 5m/s | -53.6°C | 3.9% | 60.9hPa | 2.7V | 03:47:21 | 01:34:46 | 00:00:00 | |
| BIOWL9-15 | 2026-09-01 06:06:12 | 49.73634 | 8.46535 | 105° | 18km/h | 19753m | 4.7m/s | -53.7°C | 0.9% | 60.7hPa | 2.6V | 00:00:00 | 00:00:00 | 00:00:00 | |
| DB0ND-19 | 2026-09-01 06:06:11 | 49.73634 | 8.46535 | 105° | 18km/h | 19753m | 4.7m/s | -53.7°C | 0.9% | 60.7hPa | 2.6V | 00:00:00 | 00:00:00 | 00:00:00 | |
| DM0DOS-11 | 2026-09-01 06:06:10 | 49.73647 | 8.46492 | 122° | 18km/h | 19723m | 5.1m/s | -53.7°C | 4% | 61hPa | 2.6V | 03:47:23 | 01:34:44 | 00:00:00 | |
| BIOWL1-15 | 2026-09-01 06:06:08 | 49.73644 | 8.46499 | 118° | 22km/h | 19728m | 4.4m/s | -53.7°C | 0.2% | 60.9hPa | 2.6V | 03:47:46 | 01:34:45 | 00:00:00 | |
| DL1XH-west | 2026-09-01 06:06:08 | 49.73639 | 8.46514 | 118° | 20km/h | 19738m | 5.3m/s | -53.6°C | 0.2% | 60.8hPa | 2.7V | 03:47:46 | 01:34:47 | 00:00:00 | |
| DB0NH | 2026-09-01 06:06:08 | 49.73639 | 8.46514 | 118° | 18km/h | 19738m | 5.3m/s | -53.6°C | 3.9% | 60.8hPa | 2.7V | 00:00:00 | 01:34:47 | 00:00:00 | |
| DO3MHA-11 | 2026-09-01 06:06:07 | 49.73642 | 8.46506 | 117° | 16km/h | 19733m | 5.0m/s | -53.6°C | 3.9% | 60.8hPa | 2.7V | 00:00:00 | 01:34:46 | 00:00:00 | |
| DO3DL | 2026-09-01 06:06:06 | 49.73642 | 8.46507 | 118° | 22km/h | 19733m | 5.0m/s | -53.6°C | 0.9% | 60.9hPa | 2.7V | 00:00:00 | 00:00:00 | 00:00:00 | |
| BIOWL7-15 | 2026-09-01 06:06:03 | 49.73649 | 8.46486 | 127° | 15km/h | 19718m | 5.0m/s | -53.8°C | 1.0% | 61.0hPa | 2.7V | 00:00:00 | 00:00:00 | 00:00:00 | |
| DL1XH1-15 | 2026-09-01 06:06:02 | 49.73660 | 8.46449 | 118° | 16km/h | 19683m | 4.1m/s | -53.6°C | 3.9% | 61.3hPa | 2.7V | 03:47:31 | 01:34:36 | 00:00:00 | |
| NBG1-10 | 2026-09-01 06:06:02 | 49.73653 | 8.46478 | 114° | 18km/h | 19709m | 5.7m/s | -53.7°C | 4.0% | 61.0hPa | 2.7V | 00:00:00 | 01:34:41 | 00:00:00 | |
| DM0DOS-11 | 2026-09-01 06:06:00 | 49.73664 | 8.46436 | 114° | 20km/h | 19674m | 5.6m/s | -53.6°C | 3.9% | 61.5hPa | 2.6V | 03:47:33 | 01:34:34 | 00:00:00 | |
| DL1XH-west | 2026-09-01 06:05:57 | 49.73659 | 8.46449 | 118° | 16km/h | 19683m | 4.1m/s | -53.6°C | 0.1% | 61.3hPa | 2.7V | 03:47:46 | 01:34:36 | 00:00:00 | |
| BIOWL1-15 | 2026-09-01 06:05:55 | 49.73664 | 8.46436 | 114° | 20km/h | 19674m | 5.6m/s | -53.6°C | 0.1% | 61.5hPa | 2.6V | 03:47:46 | 01:34:34 | 00:00:00 | |
| DJ2KF-10 | 2026-09-01 06:05:55 | 49.73664 | 8.46436 | 115° | 16km/h | 19674m | 5.5m/s | -53.6°C | 3.9% | 61.4hPa | 2.6V | 00:00:00 | 01:34:34 | 00:00:00 | |
| SFWM-10 | 2026-09-01 06:05:54 | 49.73664 | 8.46436 | 115° | 20km/h | 19674m | 5.6m/s | -53.6°C | 0.9% | 61.5hPa | 2.6V | 03:47:00 | 00:00:00 | 00:00:00 | |
| DK5PH-5 | 2026-09-01 06:05:53 | 49.73668 | 8.46421 | 112° | 18km/h | 19664m | 3.8m/s | -53.7°C | 3.9% | 61.5hPa | 2.6V | 00:00:00 | 01:34:32 | 00:00:00 | |
| DL1XH1-15 | 2026-09-01 06:05:52 | 49.73685 | 8.46384 | 135° | 18km/h | 19635m | 4.4m/s | -53.8°C | 3.9% | 61.8hPa | 2.6V | 03:47:41 | 01:34:26 | 00:00:00 | |
| DF3TZ-5 | 2026-09-01 06:05:51 | 49.73672 | 8.46406 | 125° | 18km/h | 19654m | 5.2m/s | -53.8°C | 1.0% | 61.6hPa | 2.7V | 00:00:00 | 00:00:00 | 00:00:00 | |
| DM0DOS-11 | 2026-09-01 06:05:50 | 49.73692 | 8.46374 | 139° | 18km/h | 19625m | 4.5m/s | -53.8°C | 4% | 61.9hPa | 2.7V | 03:47:43 | 01:34:24 | 00:00:00 | |
| BIOWL1-15 | 2026-09-01 06:05:46 | 49.73695 | 8.46369 | 131° | 20km/h | 19620m | 5.6m/s | -53.7°C | 0.2% | 62hPa | 2.6V | 03:47:46 | 01:34:23 | 00:00:00 | |
| DL1XH-west | 2026-09-01 06:05:46 | 49.73688 | 8.46379 | 139° | 18km/h | 19630m | 5.6m/s | -53.8°C | 0.2% | 61.9hPa | 2.7V | 03:47:46 | 01:34:25 | 00:00:00 | |
| SONCRA | 2026-09-01 06:05:46 | 49.73692 | 8.46374 | 139° | 18km/h | 19625m | 4.5m/s | -53.8°C | 1.0% | 61.9hPa | 2.6V | 00:00:00 | 00:00:00 | 00:00:00 | |
| DL8DAS-14 | 2026-09-01 06:05:45 | 49.73692 | 8.46374 | 139° | 18km/h | 19625m | 4.5m/s | -53.8°C | 1.0% | 61.9hPa | 2.6V | 00:00:00 | 00:00:00 | 00:00:00 | |
| BIOWL7-15 | 2026-09-01 06:05:43 | 49.73695 | 8.46369 | 132° | 20km/h | 19620m | 5.6m/s | -53.7°C | 1.0% | 62.0hPa | 2.6V | 00:00:00 | 00:00:00 | 00:00:00 | |
| DL1XH1-15 | 2026-09-01 06:05:42 | 49.73710 | 8.46323 | 106° | 20km/h | 19585m | 3.8m/s | -53.7°C | 3.9% | 62.3hPa | 2.6V | 03:47:51 | 01:34:16 | 00:00:00 | |
| DL0LBS | 2026-09-01 06:05:41 | 49.73705 | 8.46344 | 117° | 18km/h | 19600m | 4.4m/s | -53.6°C | 1.0% | 62.2hPa | 2.7V | 03:48:00 | 00:00:00 | 00:00:00 | |
| DM0DOS-11 | 2026-09-01 06:05:40 | 49.73713 | 8.46312 | 121° | 13km/h | 19575m | 4.5m/s | -53.7°C | 3.9% | 62.4hPa | 2.7V | 03:47:53 | 01:34:14 | 00:00:00 | |
| DL1XH-west | 2026-09-01 06:05:35 | 49.73713 | 8.46312 | 122° | 13km/h | 19575m | 4.5m/s | -53.7°C | 0.1% | 62.4hPa | 2.7V | 03:48:37 | 01:34:14 | 00:00:00 | |
| BIOWL1-15 | 2026-09-01 06:05:34 | 49.73715 | 8.46308 | 128° | 9km/h | 19571m | 4.3m/s | -53.8°C | 0.1% | 62.5hPa | 2.7V | 03:48:37 | 01:34:13 | 00:00:00 | |
| DJ2DS-15 | 2026-09-01 06:05:33 | 49.73716 | 8.46305 | 120° | 20km/h | 19566m | 5.2m/s | -53.7°C | 3.9% | 62.4hPa | 2.6V | 00:00:00 | 01:34:12 | 00:00:00 | |
| DL1XH1-15 | 2026-09-01 06:05:32 | 49.73722 | 8.46284 | 114° | 18km/h | 19537m | 5.7m/s | -53.8°C | 4% | 62.8hPa | 2.6V | 03:48:01 | 01:34:06 | 00:00:00 | |
| DL4BBY-15 | 2026-09-01 06:05:32 | 49.73717 | 8.46302 | 102° | 22km/h | 19561m | 4.6m/s | -52.8°C | 0% | 0hPa | 2.6V | 00:00:00 | 00:00:00 | 00:00:00 | |
| DM0DOS-11 | 2026-09-01 06:05:30 | 49.73727 | 8.46268 | 114° | 26km/h | 19526m | 5.5m/s | -53.8°C | 4% | 62.9hPa | 2.6V | 03:48:03 | 01:34:04 | 00:00:00 | |
| DL1XH-west | 2026-09-01 06:05:24 | 49.73730 | 8.46258 | 116° | 29km/h | 19521m | 4.7m/s | -53.8°C | 0.2% | 62.9hPa | 2.7V | 03:48:37 | 01:34:03 | 00:00:00 | |
| BIOWL1-15 | 2026-09-01 06:05:23 | 49.73733 | 8.46248 | 113° | 29km/h | 19517m | 3.3m/s | -53.8°C | 0.2% | 63hPa | 2.7V | 03:48:37 | 01:34:02 | 00:00:00 | |
| DK5PH-5 | 2026-09-01 06:05:23 | 49.73733 | 8.46247 | 114° | 24km/h | 19518m | 3.2m/s | -53.7°C | 4.0% | 62.9hPa | 2.7V | 03:48:00 | 01:34:02 | 00:00:00 | |
| DL1XH1-15 | 2026-09-01 06:05:22 | 49.73740 | 8.46190 | 85° | 20km/h | 19489m | 5.9m/s | -53.8°C | 4% | 63.2hPa | 2.7V | 03:48:11 | 01:33:56 | 00:00:00 | |
| AM1SDL-15 | 2026-09-01 06:05:22 | 49.73735 | 8.46236 | 107° | 22km/h | 19514m | 5.1m/s | -53.8°C | 4.0% | 62.9hPa | 2.6V | 00:00:00 | 01:34:01 | 00:00:00 | |
| DL8OAI-8 | 2026-09-01 06:05:21 | 49.73735 | 8.46236 | 108° | 29km/h | 19514m | 5.2m/s | -53.8°C | 1.0% | 63.0hPa | 2.6V | 03:48:00 | 00:00:00 | 00:00:00 | |
| DM0DOS-11 | 2026-09-01 06:05:20 | 49.73738 | 8.46175 | 88° | 18km/h | 19479m | 5m/s | -53.8°C | 4% | 63.3hPa | 2.6V | 03:48:13 | 01:33:54 | 00:00:00 | |
| DL1XH-west | 2026-09-01 06:05:13 | 49.73740 | 8.46161 | 105° | 20km/h | 19470m | 3.7m/s | -53.8°C | 0.2% | 63.4hPa | 2.7V | 03:48:37 | 01:33:52 | 00:00:00 | |
| DJ2DS-15 | 2026-09-01 06:05:13 | 49.73740 | 8.46161 | 106° | 24km/h | 19471m | 3.6m/s | -53.7°C | 4.0% | 63.3hPa | 2.7V | 00:00:00 | 01:33:52 | 00:00:00 | |
| DL1XH1-15 | 2026-09-01 06:05:12 | 49.73748 | 8.46109 | 104° | 24km/h | 19443m | 4.2m/s | -53.7°C | 4% | 63.7hPa | 2.7V | 03:48:21 | 01:33:46 | 00:00:00 | |
| DL3AQ-11 | 2026-09-01 06:05:11 | 49.73744 | 8.46136 | 100° | 24km/h | 19457m | 4.0m/s | -53.7°C | 1.0% | 63.5hPa | 2.6V | 00:00:00 | 00:00:00 | 00:00:00 | |
| DM0DOS-11 | 2026-09-01 06:05:10 | 49.73750 | 8.46091 | 93° | 26km/h | 19433m | 4.1m/s | -53.7°C | 4% | 63.8hPa | 2.6V | 03:48:23 | 01:33:44 | 00:00:00 | |
| BIOWL1-15 | 2026-09-01 06:05:03 | 49.73750 | 8.46071 | 95° | 24km/h | 19424m | 4.9m/s | -53.7°C | 0.2% | 63.9hPa | 2.6V | 03:48:37 | 01:33:42 | 00:00:00 | |
| DL1XH-west | 2026-09-01 06:05:02 | 49.73751 | 8.46061 | 95° | 26km/h | 19420m | 3.9m/s | -53.7°C | 0.2% | 63.9hPa | 2.7V | 03:48:37 | 01:33:41 | 00:00:00 | |
| DL4BBY-15 | 2026-09-01 06:05:02 | 49.73751 | 8.46061 | 96° | 22km/h | 19420m | 3.9m/s | -52.7°C | 0% | 0hPa | 2.7V | 00:00:00 | 00:00:00 | 00:00:00 | |
| DM0DOS-11 | 2026-09-01 06:05:00 | 49.73754 | 8.45991 | 90° | 26km/h | 19387m | 3.9m/s | -53.5°C | 4% | 64.2hPa | 2.7V | 03:48:33 | 01:33:34 | 00:00:00 | |
| DL1XH-west | 2026-09-01 06:04:52 | 49.73755 | 8.45961 | 95° | 26km/h | 19375m | 3.7m/s | -53.5°C | 0.2% | 64.4hPa | 2.6V | 03:48:37 | 01:33:31 | 00:00:00 | |
| DM0DOS-11 | 2026-09-01 06:04:50 | 49.73754 | 8.45897 | 95° | 18km/h | 19344m | 3.9m/s | -53.3°C | 3.9% | 64.7hPa | 2.7V | 03:48:43 | 01:33:24 | 00:00:00 | |
| DF3TZ-5 | 2026-09-01 06:04:49 | 49.73754 | 8.45932 | 81° | 24km/h | 19362m | 3.8m/s | -53.3°C | 0.9% | 64.5hPa | 2.6V | 00:00:00 | 00:00:00 | 00:00:00 | |
| DJ2DS-15 | 2026-09-01 06:04:47 | 49.73753 | 8.45905 | 94° | 20km/h | 19348m | 4.3m/s | -53.4°C | 1.0% | 64.7hPa | 2.6V | 00:00:00 | 00:00:00 | 00:00:00 | |
| BIOWL1-15 | 2026-09-01 06:04:41 | 49.73754 | 8.45872 | 91° | 16km/h | 19326m | 5.2m/s | -53.3°C | 0.2% | 64.9hPa | 2.6V | 03:49:28 | 01:33:20 | 00:00:00 | |
| DM0DOS-11 | 2026-09-01 06:04:40 | 49.73749 | 8.45824 | 84° | 24km/h | 19298m | 4.5m/s | -53.3°C | 3.9% | 65.2hPa | 2.7V | 03:48:53 | 01:33:14 | 00:00:00 | |
| BIOWL9-15 | 2026-09-01 06:04:39 | 49.73752 | 8.45850 | 76° | 20km/h | 19312m | 4.3m/s | -53.3°C | 1.0% | 65.0hPa | 2.6V | 00:00:00 | 00:00:00 | 00:00:00 | |
| DB0NH | 2026-09-01 06:04:38 | 49.73752 | 8.45850 | 77° | 22km/h | 19312m | 4.2m/s | -53.3°C | 4.0% | 65.0hPa | 2.6V | 00:00:00 | 01:33:17 | 00:00:00 | |
| DO3MHA-11 | 2026-09-01 06:04:37 | 49.73751 | 8.45841 | 76° | 20km/h | 19308m | 3.8m/s | -53.2°C | 3.9% | 65.0hPa | 2.6V | 00:00:00 | 01:33:16 | 00:00:00 | |
| DB0UT-7 | 2026-09-01 06:04:36 | 49.73750 | 8.45832 | 82° | 22km/h | 19303m | 5.1m/s | -53.2°C | 3.9% | 65.1hPa | 2.6V | 03:48:00 | 01:33:15 | 00:00:00 | |
| DL8DAS-15 | 2026-09-01 06:04:35 | 49.73749 | 8.45832 | 82° | 24km/h | 19303m | 5.2m/s | -53.3°C | 1.0% | 65.1hPa | 2.7V | 00:00:00 | 00:00:00 | 00:00:00 | |
| DJ2DS-15 | 2026-09-01 06:04:33 | 49.73747 | 8.45806 | 79° | 22km/h | 19289m | 5.2m/s | -53.2°C | 3.9% | 65.2hPa | 2.7V | 00:00:00 | 01:33:12 | 00:00:00 | |
| DL1XH1-15 | 2026-09-01 06:04:32 | 49.73742 | 8.45767 | 65° | 18km/h | 19259m | 4.5m/s | -53.2°C | 4% | 65.5hPa | 2.6V | 03:49:01 | 01:33:06 | 00:00:00 | |
| DL1XH-west | 2026-09-01 06:04:31 | 49.73746 | 8.45792 | 80° | 18km/h | 19280m | 5.6m/s | -53.2°C | 0.1% | 65.3hPa | 2.6V | 03:49:28 | 01:33:10 | 00:00:00 | |
| BIOWL1-15 | 2026-09-01 06:04:30 | 49.73745 | 8.45785 | 85° | 16km/h | 19274m | 5m/s | -53.2°C | 0.2% | 65.4hPa | 2.6V | 03:49:28 | 01:33:09 | 00:00:00 | |
| SFWM-10 | 2026-09-01 06:04:29 | 49.73745 | 8.45785 | 86° | 16km/h | 19275m | 5.0m/s | -53.2°C | 1.0% | 65.4hPa | 2.6V | 03:49:00 | 00:00:00 | 00:00:00 | |
| DB0UT-9 | 2026-09-01 06:04:28 | 49.73745 | 8.45779 | 84° | 15km/h | 19270m | 4.6m/s | -53.3°C | 1.0% | 65.5hPa | 2.6V | 03:49:00 | 00:00:00 | 00:00:00 | |
| DO3MHA-11 | 2026-09-01 06:04:27 | 49.73742 | 8.45767 | 66° | 24km/h | 19260m | 4.4m/s | -53.1°C | 4.0% | 65.5hPa | 2.6V | 00:00:00 | 01:33:06 | 00:00:00 | |
| DJ2KF-10 | 2026-09-01 06:04:25 | 49.73738 | 8.45753 | 72° | 22km/h | 19250m | 5.5m/s | -53.0°C | 4.0% | 65.6hPa | 2.7V | 00:00:00 | 01:33:04 | 00:00:00 | |
| DD1CC8 | 2026-09-01 06:04:24 | 49.73737 | 8.45745 | 75° | 22km/h | 19245m | 4.2m/s | -53.0°C | 1.0% | 65.7hPa | 2.7V | 00:00:00 | 00:00:00 | 00:00:00 | |
| DK5PH-5 | 2026-09-01 06:04:23 | 49.73735 | 8.45736 | 75° | 22km/h | 19241m | 4.2m/s | -53.0°C | 4.0% | 65.7hPa | 2.7V | 00:00:00 | 01:33:02 | 00:00:00 | |
| DL1XH1-15 | 2026-09-01 06:04:22 | 49.73731 | 8.45674 | 118° | 22km/h | 19212m | 4.8m/s | -52.7°C | 3.8% | 66hPa | 2.7V | 03:49:11 | 01:32:56 | 00:00:00 | |
| DL1XH-west | 2026-09-01 06:04:21 | 49.73731 | 8.45715 | 74° | 31km/h | 19230m | 3.9m/s | -52.8°C | 0.2% | 65.9hPa | 2.6V | 03:49:28 | 01:33:00 | 00:00:00 | |
| BIOWL1-15 | 2026-09-01 06:04:20 | 49.73729 | 8.45703 | 80° | 29km/h | 19227m | 3m/s | -52.8°C | 0.2% | 65.9hPa | 2.6V | 03:49:28 | 01:32:59 | 00:00:00 | |
| DL8OAI-8 | 2026-09-01 06:04:19 | 49.73729 | 8.45703 | 80° | 29km/h | 19227m | 3.0m/s | -52.8°C | 1.0% | 65.9hPa | 2.7V | 03:49:00 | 00:00:00 | 00:00:00 | |
| DL0LBS | 2026-09-01 06:04:18 | 49.73729 | 8.45682 | 104° | 26km/h | 19218m | 5.7m/s | -52.7°C | 1.0% | 65.9hPa | 2.7V | 03:49:00 | 00:00:00 | 00:00:00 | |
| DO3MHA-11 | 2026-09-01 06:04:17 | 49.73731 | 8.45673 | 119° | 20km/h | 19213m | 4.8m/s | -52.7°C | 3.8% | 66.0hPa | 2.7V | 03:49:00 | 01:32:56 | 00:00:00 | |
| DD1CC2-15 | 2026-09-01 06:04:16 | 49.73731 | 8.45673 | 119° | 22km/h | 19213m | 4.9m/s | -52.7°C | 1.0% | 66.0hPa | 2.7V | 03:49:00 | 00:00:00 | 00:00:00 | |
| DM7RM-13 | 2026-09-01 06:04:15 | 49.73734 | 8.45667 | 128° | 18km/h | 19207m | 5.5m/s | -52.7°C | 1.0% | 66.1hPa | 2.7V | 03:49:00 | 00:00:00 | 00:00:00 | |
| SONCRA | 2026-09-01 06:04:13 | 49.73742 | 8.45648 | 112° | 16km/h | 19186m | 5.5m/s | -52.5°C | 1.0% | 66.3hPa | 2.7V | 00:00:00 | 00:00:00 | 00:00:00 | |
| DL1XH1-15 | 2026-09-01 06:04:12 | 49.73748 | 8.45604 | 82° | 27km/h | 19159m | 5.5m/s | -52.2°C | 3.8% | 66.6hPa | 2.7V | 03:49:21 | 01:32:46 | 00:00:00 | |
| DL1XH-west | 2026-09-01 06:04:10 | 49.73746 | 8.45634 | 108° | 24km/h | 19174m | 4.7m/s | -52.4°C | 0.2% | 66.4hPa | 2.6V | 03:49:28 | 01:32:49 | 00:00:00 | |
| BIOWL1-15 | 2026-09-01 06:04:09 | 49.73747 | 8.45624 | 102° | 26km/h | 19170m | 4.2m/s | -52.3°C | 0.1% | 66.5hPa | 2.6V | 03:49:28 | 01:32:48 | 00:00:00 | |
| BIOWL9-15 | 2026-09-01 06:04:08 | 49.73748 | 8.45604 | 82° | 26km/h | 19159m | 5.5m/s | -52.2°C | 0.9% | 66.6hPa | 2.6V | 00:00:00 | 00:00:00 | 00:00:00 | |
| NBG1-10 | 2026-09-01 06:04:07 | 49.73748 | 8.45603 | 83° | 26km/h | 19160m | 5.5m/s | -52.2°C | 3.8% | 66.5hPa | 2.6V | 00:00:00 | 01:32:46 | 00:00:00 | |
| DB0UT-9 | 2026-09-01 06:04:06 | 49.73747 | 8.45593 | 78° | 26km/h | 19155m | 4.1m/s | -52.1°C | 1.0% | 66.6hPa | 2.6V | 03:49:00 | 00:00:00 | 00:00:00 | |
| HEMX73-11 | 2026-09-01 06:04:05 | 49.73747 | 8.45593 | 78° | 26km/h | 19155m | 4.1m/s | -52.1°C | 1.0% | 66.6hPa | 2.6V | 03:49:00 | 00:00:00 | 00:00:00 | |
| DF1GD-15 | 2026-09-01 06:04:04 | 49.73745 | 8.45584 | 79° | 24km/h | 19151m | 4.1m/s | -52.1°C | 1.0% | 66.7hPa | 2.6V | 03:49:00 | 00:00:00 | 00:00:00 | |
| HEMX73-6 | 2026-09-01 06:04:03 | 49.73745 | 8.45568 | 106° | 80km/h | 19141m | 4.9m/s | -52.0°C | 3.7% | 66.7hPa | 2.6V | 00:00:00 | 01:32:42 | 00:00:00 | |
| DL1XH1-15 | 2026-09-01 06:04:02 | 49.73758 | 8.45519 | 100° | 20km/h | 19113m | 4.3m/s | -51.9°C | 3.5% | 67hPa | 2.6V | 03:49:31 | 01:32:36 | 00:00:00 | |
| BIOWL1-15 | 2026-09-01 06:04:01 | 49.73755 | 8.45535 | 111° | 24km/h | 19122m | 4.7m/s | -51.9°C | 0% | 67hPa | 2.6V | 03:50:19 | 01:32:38 | 00:00:00 | |
| DM0DOS-11 | 2026-09-01 06:04:00 | 49.73761 | 8.45503 | 105° | 22km/h | 19103m | 5m/s | -51.9°C | 3.5% | 67.2hPa | 2.7V | 03:49:33 | 01:32:34 | 00:00:00 | |
| DL1XH-west | 2026-09-01 06:04:00 | 49.73753 | 8.45544 | 117° | 24km/h | 19127m | 4.7m/s | -51.9°C | 0.1% | 66.9hPa | 2.7V | 03:49:28 | 01:32:39 | 00:00:00 | |
| DM3KS-11 | 2026-09-01 06:03:56 | 49.73759 | 8.45511 | 104° | 20km/h | 19108m | 5.7m/s | -51.9°C | 0.9% | 67.1hPa | 2.6V | 00:00:00 | 00:00:00 | 00:00:00 | |
| SONDE2-11 | 2026-09-01 06:03:54 | 49.73766 | 8.45460 | 105° | 22km/h | 19078m | 6.1m/s | 0°C | -1.0% | -1.0hPa | 2.6V | 00:00:00 | 00:00:00 | 00:00:00 | |
| DJ2DS-15 | 2026-09-01 06:03:53 | 49.73763 | 8.45486 | 99° | 26km/h | 19092m | 6.3m/s | -51.9°C | 3.6% | 67.2hPa | 2.6V | 00:00:00 | 01:32:32 | 00:00:00 | |
| DL1XH1-15 | 2026-09-01 06:03:52 | 49.73774 | 8.45433 | 117° | 24km/h | 19063m | 5.8m/s | -51.9°C | 3.6% | 67.6hPa | 2.6V | 03:49:41 | 01:32:26 | 00:00:00 | |
| DL9PN | 2026-09-01 06:03:51 | 49.73765 | 8.45469 | 99° | 22km/h | 19083m | 3.1m/s | -51.8°C | 0.9% | 67.3hPa | 2.6V | 00:00:00 | 00:00:00 | 00:00:00 | |
| DM0DOS-11 | 2026-09-01 06:03:50 | 49.73779 | 8.45418 | 120° | 20km/h | 19053m | 4.3m/s | -52.1°C | 3.5% | 67.6hPa | 2.6V | 03:49:43 | 01:32:24 | 00:00:00 | |
| DL1XH-west | 2026-09-01 06:03:49 | 49.73768 | 8.45451 | 114° | 26km/h | 19073m | 5.5m/s | -51.8°C | 0.1% | 67.5hPa | 2.7V | 03:50:19 | 01:32:28 | 00:00:00 | |
| DF3TZ-5 | 2026-09-01 06:03:47 | 49.73774 | 8.45433 | 117° | 24km/h | 19063m | 5.8m/s | -51.9°C | 0.9% | 67.6hPa | 2.6V | 00:00:00 | 00:00:00 | 00:00:00 | |
| AM1SDL-15 | 2026-09-01 06:03:45 | 49.73779 | 8.45418 | 121° | 29km/h | 19053m | 4.2m/s | -52.1°C | 3.5% | 67.6hPa | 2.6V | 00:00:00 | 01:32:24 | 00:00:00 | |
| DF1GD-15 | 2026-09-01 06:03:44 | 49.73782 | 8.45412 | 126° | 20km/h | 19048m | 5.7m/s | -52.3°C | 0.9% | 67.7hPa | 2.7V | 03:50:00 | 00:00:00 | 00:00:00 | |
| DL1XH1-15 | 2026-09-01 06:03:42 | 49.73805 | 8.45343 | 112° | 35km/h | 19014m | 4.6m/s | -52.5°C | 3.6% | 68.1hPa | 2.7V | 03:49:51 | 01:32:16 | 00:00:00 | |
| DL0LBS | 2026-09-01 06:03:41 | 49.73805 | 8.45343 | 113° | 35km/h | 19014m | 4.6m/s | -52.5°C | 1.0% | 68.1hPa | 2.6V | 03:50:00 | 00:00:00 | 00:00:00 | |
| DM0DOS-11 | 2026-09-01 06:03:40 | 49.73811 | 8.45317 | 104° | 35km/h | 19003m | 4.5m/s | -52.7°C | 3.7% | 68.2hPa | 2.6V | 03:49:53 | 01:32:14 | 00:00:00 | |
| DL1XH-west | 2026-09-01 06:03:38 | 49.73802 | 8.45356 | 114° | 35km/h | 19019m | 5.4m/s | -52.5°C | 0% | 68hPa | 2.7V | 03:50:19 | 01:32:17 | 00:00:00 | |
| BIOWL7-15 | 2026-09-01 06:03:38 | 49.73802 | 8.45356 | 115° | 35km/h | 19019m | 5.4m/s | -52.5°C | 0.9% | 68.0hPa | 2.7V | 00:00:00 | 00:00:00 | 00:00:00 | |
| DL8OAI-8 | 2026-09-01 06:03:37 | 49.73802 | 8.45356 | 115° | 35km/h | 19019m | 5.4m/s | -52.5°C | 1.0% | 68.0hPa | 2.7V | 03:50:00 | 00:00:00 | 00:00:00 | |
| DB0UT-7 | 2026-09-01 06:03:36 | 49.73808 | 8.45330 | 109° | 35km/h | 19009m | 6.0m/s | -52.5°C | 3.6% | 68.1hPa | 2.7V | 00:00:00 | 01:32:15 | 00:00:00 | |
| DJ2DS-15 | 2026-09-01 06:03:35 | 49.73813 | 8.45305 | 105° | 33km/h | 18999m | 4.8m/s | -52.7°C | 0.9% | 68.2hPa | 2.7V | 00:00:00 | 00:00:00 | 00:00:00 | |
| DJ2DS-15 | 2026-09-01 06:03:33 | 49.73816 | 8.45292 | 109° | 33km/h | 18994m | 5.9m/s | -52.7°C | 3.7% | 68.2hPa | 2.7V | 03:49:00 | 01:32:12 | 00:00:00 | |
| DL1XH1-15 | 2026-09-01 06:03:32 | 49.73829 | 8.45222 | 103° | 35km/h | 18963m | 5.7m/s | -53.2°C | 3.8% | 68.6hPa | 2.7V | 03:50:01 | 01:32:06 | 00:00:00 | |
| DM0DOS-11 | 2026-09-01 06:03:30 | 49.73833 | 8.45194 | 99° | 38km/h | 18954m | 4.7m/s | -53.4°C | 3.9% | 68.7hPa | 2.6V | 03:50:03 | 01:32:04 | 00:00:00 | |
| DL1XH-west | 2026-09-01 06:03:28 | 49.73827 | 8.45235 | 102° | 33km/h | 18969m | 5m/s | -53.1°C | 0.1% | 68.5hPa | 2.7V | 03:50:19 | 01:32:07 | 00:00:00 | |
| DL8DAS-15 | 2026-09-01 06:03:26 | 49.73829 | 8.45222 | 104° | 35km/h | 18964m | 5.7m/s | -53.2°C | 1.0% | 68.6hPa | 2.6V | 00:00:00 | 00:00:00 | 00:00:00 | |
| DJ2KF-10 | 2026-09-01 06:03:25 | 49.73833 | 8.45194 | 100° | 37km/h | 18954m | 4.6m/s | -53.4°C | 3.9% | 68.7hPa | 2.6V | 00:00:00 | 01:32:04 | 00:00:00 | |
| DK5PH-5 | 2026-09-01 06:03:23 | 49.73835 | 8.45166 | 92° | 38km/h | 18944m | 4.9m/s | -53.5°C | 3.8% | 68.8hPa | 2.6V | 03:50:00 | 01:32:02 | 00:00:00 | |
| DL1XH1-15 | 2026-09-01 06:03:22 | 49.73833 | 8.45103 | 78° | 29km/h | 18913m | 4.7m/s | -53.6°C | 4% | 69.1hPa | 2.6V | 03:50:11 | 01:31:56 | 00:00:00 | |
| AM1SDL-15 | 2026-09-01 06:03:21 | 49.73835 | 8.45143 | 92° | 37km/h | 18933m | 6.0m/s | -53.6°C | 3.9% | 68.9hPa | 2.7V | 00:00:00 | 01:32:00 | 00:00:00 | |
| DM0DOS-11 | 2026-09-01 06:03:20 | 49.73830 | 8.45076 | 80° | 38km/h | 18902m | 4.9m/s | -53.6°C | 4% | 69.3hPa | 2.7V | 03:50:13 | 01:31:54 | 00:00:00 | |
| DL1XH-west | 2026-09-01 06:03:18 | 49.73835 | 8.45113 | 81° | 26km/h | 18918m | 6m/s | -53.7°C | 0.1% | 69.1hPa | 2.6V | 03:50:19 | 01:31:57 | 00:00:00 | |
| BIOWL1-15 | 2026-09-01 06:03:17 | 49.73833 | 8.45102 | 78° | 29km/h | 18913m | 4.7m/s | -53.6°C | 0.2% | 69.1hPa | 2.6V | 03:50:19 | 01:31:56 | 00:00:00 | |
| DO3MHA-11 | 2026-09-01 06:03:16 | 49.73832 | 8.45090 | 80° | 44km/h | 18908m | 5.8m/s | -53.6°C | 4.0% | 69.1hPa | 2.7V | 00:00:00 | 01:31:55 | 00:00:00 | |
| DD1CC2-15 | 2026-09-01 06:03:14 | 49.73830 | 8.45076 | 81° | 38km/h | 18902m | 4.9m/s | -53.6°C | 1.0% | 69.3hPa | 2.7V | 03:50:00 | 00:00:00 | 00:00:00 | |
| DJ2DS-15 | 2026-09-01 06:03:13 | 49.73826 | 8.45043 | 76° | 40km/h | 18892m | 5.8m/s | -53.5°C | 3.9% | 69.3hPa | 2.7V | 00:00:00 | 01:31:52 | 00:00:00 | |
| DL1XH1-15 | 2026-09-01 06:03:12 | 49.73810 | 8.44939 | 74° | 38km/h | 18860m | 5.6m/s | -53.6°C | 3.9% | 69.7hPa | 2.7V | 03:50:21 | 01:31:46 | 00:00:00 | |
| DL3AQ-11 | 2026-09-01 06:03:11 | 49.73817 | 8.44989 | 77° | 47km/h | 18876m | 5.6m/s | -53.6°C | 1.0% | 69.5hPa | 2.7V | 00:00:00 | 00:00:00 | 00:00:00 | |
| DM0DOS-11 | 2026-09-01 06:03:10 | 49.73805 | 8.44912 | 76° | 35km/h | 18851m | 5.6m/s | -53.6°C | 3.9% | 69.8hPa | 2.7V | 03:50:23 | 01:31:44 | 00:00:00 | |
| DL1XH-west | 2026-09-01 06:03:07 | 49.73810 | 8.44939 | 75° | 38km/h | 18860m | 5.6m/s | -53.7°C | 0.1% | 69.7hPa | 2.7V | 03:51:10 | 01:31:46 | 00:00:00 | |
| BIOWL1-15 | 2026-09-01 06:03:06 | 49.73807 | 8.44925 | 74° | 37km/h | 18856m | 4.4m/s | -53.7°C | 0.2% | 69.8hPa | 2.7V | 03:51:10 | 01:31:45 | 00:00:00 | |
| DB0UT-7 | 2026-09-01 06:03:06 | 49.73807 | 8.44925 | 74° | 42km/h | 18856m | 4.3m/s | -53.6°C | 3.9% | 69.7hPa | 2.7V | 00:00:00 | 00:00:00 | 00:00:00 | |
| DB0ND-19 | 2026-09-01 06:03:05 | 49.73803 | 8.44898 | 81° | 33km/h | 18845m | 5.6m/s | -53.6°C | 1.0% | 69.9hPa | 2.6V | 00:00:00 | 00:00:00 | 00:00:00 | |
| DF1GD-15 | 2026-09-01 06:03:04 | 49.73803 | 8.44898 | 82° | 35km/h | 18845m | 5.6m/s | -53.6°C | 1.1% | 69.9hPa | 2.6V | 03:51:00 | 00:00:00 | 00:00:00 | |
| HEMX73-11 | 2026-09-01 06:03:03 | 49.73803 | 8.44898 | 82° | 35km/h | 18845m | 5.6m/s | -53.6°C | 1.0% | 69.9hPa | 2.6V | 03:51:00 | 00:00:00 | 00:00:00 | |
| DL1XH1-15 | 2026-09-01 06:03:02 | 49.73793 | 8.44798 | 80° | 40km/h | 18809m | 4.1m/s | -53.9°C | 4% | 70.3hPa | 2.6V | 03:50:31 | 01:31:36 | 00:00:00 | |
| DM0DOS-11 | 2026-09-01 06:03:01 | 49.73788 | 8.44765 | 76° | 44km/h | 18798m | 5.4m/s | -53.9°C | 3.9% | 70.4hPa | 2.6V | 03:50:33 | 01:31:34 | 00:00:00 | |
| DL1XH-west | 2026-09-01 06:02:57 | 49.73793 | 8.44798 | 80° | 40km/h | 18809m | 4.1m/s | -53.9°C | 0.2% | 70.3hPa | 2.6V | 03:51:10 | 01:31:36 | 00:00:00 | |
| BIOWL1-15 | 2026-09-01 06:02:56 | 49.73791 | 8.44782 | 77° | 42km/h | 18804m | 6.2m/s | -53.9°C | 0.2% | 70.3hPa | 2.6V | 03:51:10 | 01:31:35 | 00:00:00 | |
| DM3KS-11 | 2026-09-01 06:02:54 | 49.73784 | 8.44730 | 81° | 44km/h | 18788m | 5.8m/s | -54.0°C | 1.0% | 70.5hPa | 2.7V | 00:00:00 | 00:00:00 | 00:00:00 | |
| DK5PH-5 | 2026-09-01 06:02:53 | 49.73784 | 8.44730 | 82° | 46km/h | 18788m | 5.8m/s | -54.0°C | 4.0% | 70.4hPa | 2.7V | 00:00:00 | 01:31:32 | 00:00:00 | |
| DL1XH1-15 | 2026-09-01 06:02:52 | 49.73777 | 8.44631 | 90° | 38km/h | 18754m | 5m/s | -53.9°C | 3.9% | 70.9hPa | 2.6V | 03:50:41 | 01:31:26 | 00:00:00 | |
| DD1CC8 | 2026-09-01 06:02:51 | 49.73781 | 8.44695 | 82° | 44km/h | 18776m | 6.5m/s | -53.9°C | 1.0% | 70.6hPa | 2.7V | 00:00:00 | 00:00:00 | 00:00:00 | |
| DM0DOS-11 | 2026-09-01 06:02:50 | 49.73777 | 8.44600 | 86° | 40km/h | 18743m | 5.7m/s | -53.9°C | 3.9% | 71hPa | 2.7V | 03:50:43 | 01:31:24 | 00:00:00 | |
| DL1NUX | 2026-09-01 06:02:49 | 49.73775 | 8.44584 | 83° | 44km/h | 18738m | 4.8m/s | -53.9°C | 3.8% | 71hPa | 2.7V | 03:50:44 | 01:31:23 | 00:00:00 | |
| BIOWL1-15 | 2026-09-01 06:02:47 | 49.73776 | 8.44600 | 86° | 40km/h | 18743m | 5.7m/s | -53.9°C | 0.1% | 71hPa | 2.7V | 03:51:10 | 01:31:24 | 00:00:00 | |
| DL1XH-west | 2026-09-01 06:02:47 | 49.73777 | 8.44631 | 90° | 38km/h | 18754m | 5.1m/s | -53.9°C | 0.1% | 70.9hPa | 2.6V | 03:51:10 | 01:31:26 | 00:00:00 | |
| DF3TZ-5 | 2026-09-01 06:02:45 | 49.73776 | 8.44600 | 86° | 40km/h | 18744m | 5.7m/s | -53.9°C | 1.0% | 71.0hPa | 2.7V | 00:00:00 | 00:00:00 | 00:00:00 | |
| DB0UT-9 | 2026-09-01 06:02:44 | 49.73777 | 8.44600 | 87° | 40km/h | 18744m | 5.7m/s | -53.9°C | 1.0% | 71.0hPa | 2.7V | 03:51:00 | 00:00:00 | 00:00:00 | |
| DF1GD-15 | 2026-09-01 06:02:43 | 49.73775 | 8.44584 | 85° | 44km/h | 18738m | 4.8m/s | -53.9°C | 1.0% | 71.1hPa | 2.7V | 03:51:00 | 00:00:00 | 00:00:00 | |
| DL1XH1-15 | 2026-09-01 06:02:42 | 49.73764 | 8.44459 | 82° | 44km/h | 18701m | 5.9m/s | -54.2°C | 3.9% | 71.5hPa | 2.7V | 03:50:51 | 01:31:16 | 00:00:00 | |
| DM0DOS-11 | 2026-09-01 06:02:40 | 49.73761 | 8.44425 | 81° | 42km/h | 18690m | 6.2m/s | -54.2°C | 3.9% | 71.6hPa | 2.6V | 03:50:53 | 01:31:14 | 00:00:00 | |
| DL1XH-west | 2026-09-01 06:02:37 | 49.73764 | 8.44459 | 83° | 44km/h | 18701m | 5.9m/s | -54.2°C | 0.1% | 71.5hPa | 2.7V | 03:51:10 | 01:31:16 | 00:00:00 | |
| BIOWL1-15 | 2026-09-01 06:02:34 | 49.73760 | 8.44409 | 81° | 42km/h | 18685m | 5m/s | -54.3°C | 0% | 71.7hPa | 2.6V | 03:51:10 | 01:31:13 | 00:00:00 | |
| DJ2DS-15 | 2026-09-01 06:02:33 | 49.73758 | 8.44393 | 82° | 49km/h | 18679m | 6.0m/s | -54.4°C | 3.9% | 71.7hPa | 2.6V | 00:00:00 | 01:31:12 | 00:00:00 | |
| DL1XH1-15 | 2026-09-01 06:02:32 | 49.73746 | 8.44290 | 78° | 51km/h | 18646m | 6.1m/s | -55.5°C | 4.3% | 72.1hPa | 2.7V | 03:51:01 | 01:31:06 | 00:00:00 | |
| DB0UT-7 | 2026-09-01 06:02:32 | 49.73757 | 8.44377 | 84° | 47km/h | 18674m | 5.0m/s | -54.5°C | 3.9% | 71.7hPa | 2.6V | 03:50:00 | 01:31:11 | 00:00:00 | |
| DL1NUX | 2026-09-01 06:02:31 | 49.73743 | 8.44270 | 79° | 51km/h | 18641m | 4.8m/s | -55.6°C | 4.3% | 72.1hPa | 2.6V | 03:51:02 | 01:31:05 | 00:00:00 | |
| DM0DOS-11 | 2026-09-01 06:02:31 | 49.73741 | 8.44250 | 79° | 53km/h | 18637m | 4.3m/s | -55.6°C | 4.3% | 72.2hPa | 2.6V | 03:51:03 | 01:31:04 | 00:00:00 | |
| DL1XH-west | 2026-09-01 06:02:26 | 49.73744 | 8.44270 | 80° | 51km/h | 18641m | 4.8m/s | -55.6°C | 0.4% | 72.1hPa | 2.6V | 03:51:10 | 01:31:05 | 00:00:00 | |
| BIOWL1-15 | 2026-09-01 06:02:23 | 49.73735 | 8.44207 | 76° | 58km/h | 18626m | 5.5m/s | -55.6°C | 0.3% | 72.4hPa | 2.7V | 03:51:10 | 01:31:02 | 00:00:00 | |
| DK5PH-5 | 2026-09-01 06:02:23 | 49.73735 | 8.44207 | 76° | 44km/h | 18626m | 5.4m/s | -55.6°C | 4.3% | 72.3hPa | 2.7V | 00:00:00 | 01:31:02 | 00:00:00 | |
| HEMX73-11 | 2026-09-01 06:02:22 | 49.73735 | 8.44207 | 77° | 58km/h | 18626m | 5.5m/s | -55.6°C | 1.1% | 72.4hPa | 2.7V | 03:51:00 | 00:00:00 | 00:00:00 | |
| DL1XH1-15 | 2026-09-01 06:02:22 | 49.73711 | 8.44093 | 66° | 47km/h | 18592m | 5.1m/s | -55.6°C | 4.4% | 72.7hPa | 2.6V | 03:51:11 | 01:30:56 | 00:00:00 | |
| DM0DOS-11 | 2026-09-01 06:02:20 | 49.73702 | 8.44060 | 69° | 46km/h | 18581m | 5m/s | -55.6°C | 4.4% | 72.8hPa | 2.7V | 03:51:13 | 01:30:54 | 00:00:00 | |
| DL1XH-west | 2026-09-01 06:02:15 | 49.73702 | 8.44060 | 70° | 46km/h | 18581m | 5m/s | -55.6°C | 0.4% | 72.8hPa | 2.7V | 03:52:01 | 01:30:54 | 00:00:00 | |
| BIOWL1-15 | 2026-09-01 06:02:13 | 49.73693 | 8.44024 | 68° | 51km/h | 18569m | 5.2m/s | -55.6°C | 0.4% | 73hPa | 2.6V | 03:52:01 | 01:30:52 | 00:00:00 | |
| DJ2DS-15 | 2026-09-01 06:02:13 | 49.73693 | 8.44024 | 68° | 40km/h | 18570m | 5.1m/s | -55.5°C | 4.4% | 72.9hPa | 2.7V | 03:51:00 | 01:30:52 | 00:00:00 | |
| DD1CC2-15 | 2026-09-01 06:02:12 | 49.73693 | 8.44024 | 69° | 51km/h | 18570m | 5.2m/s | -55.6°C | 1.2% | 73.0hPa | 2.7V | 03:52:00 | 00:00:00 | 00:00:00 | |
| DM7RM-13 | 2026-09-01 06:02:11 | 49.73688 | 8.44006 | 69° | 51km/h | 18565m | 4.9m/s | -55.5°C | 1.2% | 73.0hPa | 2.7V | 03:52:00 | 00:00:00 | 00:00:00 | |
| DM0DOS-11 | 2026-09-01 06:02:10 | 49.73657 | 8.43896 | 68° | 38km/h | 18526m | 6.1m/s | -55.4°C | 4.4% | 73.4hPa | 2.7V | 03:51:23 | 01:30:44 | 00:00:00 | |
| DL8DAS-14 | 2026-09-01 06:02:08 | 49.73665 | 8.43924 | 63° | 40km/h | 18538m | 4.6m/s | -55.4°C | 1.1% | 73.3hPa | 2.6V | 00:00:00 | 00:00:00 | 00:00:00 | |
| DL1NUX | 2026-09-01 06:02:07 | 49.73646 | 8.43854 | 67° | 38km/h | 18510m | 4.3m/s | -55.2°C | 4.4% | 73.6hPa | 2.6V | 03:51:26 | 01:30:41 | 00:00:00 | |
| DL1XH-west | 2026-09-01 06:02:04 | 49.73653 | 8.43882 | 69° | 38km/h | 18521m | 5.6m/s | -55.4°C | 0.4% | 73.5hPa | 2.6V | 03:52:01 | 01:30:43 | 00:00:00 | |
| BIOWL1-15 | 2026-09-01 06:02:02 | 49.73646 | 8.43854 | 68° | 38km/h | 18510m | 4.3m/s | -55.3°C | 0.4% | 73.6hPa | 2.6V | 03:52:01 | 01:30:41 | 00:00:00 | |
| DB0UT-7 | 2026-09-01 06:02:02 | 49.73646 | 8.43854 | 68° | 35km/h | 18511m | 4.3m/s | -55.2°C | 4.4% | 73.6hPa | 2.7V | 00:00:00 | 00:00:00 | 00:00:00 | |
| AM1SDL-15 | 2026-09-01 06:02:01 | 49.73642 | 8.43840 | 72° | 37km/h | 18505m | 6.1m/s | -55.2°C | 4.3% | 73.6hPa | 2.7V | 00:00:00 | 01:30:40 | 00:00:00 | |
| DM0DOS-11 | 2026-09-01 06:02:00 | 49.73620 | 8.43760 | 60° | 37km/h | 18473m | 5.5m/s | -55°C | 4.3% | 74hPa | 2.7V | 03:51:33 | 01:30:34 | 00:00:00 | |
| DL1XH-west | 2026-09-01 06:01:54 | 49.73615 | 8.43748 | 57° | 37km/h | 18468m | 4.3m/s | -54.9°C | 0.3% | 74.1hPa | 2.7V | 03:52:01 | 01:30:33 | 00:00:00 | |
| BIOWL1-15 | 2026-09-01 06:01:53 | 49.73599 | 8.43716 | 53° | 33km/h | 18453m | 5.5m/s | -54.8°C | 0.3% | 74.3hPa | 2.6V | 03:52:01 | 01:30:30 | 00:00:00 | |
| DJ2DS-15 | 2026-09-01 06:01:53 | 49.73610 | 8.43737 | 53° | 35km/h | 18463m | 5.9m/s | -54.8°C | 4.2% | 74.1hPa | 2.6V | 00:00:00 | 01:30:32 | 00:00:00 | |
| DL1XH1-15 | 2026-09-01 06:01:52 | 49.73583 | 8.43671 | 63° | 37km/h | 18432m | 4.8m/s | -54.5°C | 4.3% | 74.6hPa | 2.6V | 03:51:41 | 01:30:26 | 00:00:00 | |
| DM3KS-11 | 2026-09-01 06:01:52 | 49.73599 | 8.43716 | 52° | 33km/h | 18453m | 5.5m/s | -54.8°C | 1.1% | 74.3hPa | 2.6V | 00:00:00 | 00:00:00 | 00:00:00 | |
| DM0DOS-11 | 2026-09-01 06:01:50 | 49.73575 | 8.43644 | 69° | 38km/h | 18422m | 5.2m/s | -54.5°C | 4.2% | 74.7hPa | 2.6V | 03:51:43 | 01:30:24 | 00:00:00 | |
| DD1CC8 | 2026-09-01 06:01:49 | 49.73591 | 8.43695 | 62° | 31km/h | 18443m | 4.6m/s | -54.7°C | 1.1% | 74.4hPa | 2.7V | 00:00:00 | 00:00:00 | 00:00:00 | |
| DO1YAY-16 | 2026-09-01 06:01:48 | 49.73587 | 8.43683 | 63° | 33km/h | 18437m | 6.1m/s | -54.6°C | 1.1% | 74.5hPa | 2.7V | 00:00:00 | 00:00:00 | 00:00:00 | |
| DJ2DS-15 | 2026-09-01 06:01:47 | 49.73579 | 8.43657 | 64° | 38km/h | 18427m | 4.7m/s | -54.6°C | 1.1% | 74.6hPa | 2.7V | 00:00:00 | 00:00:00 | 00:00:00 | |
| DL1XH-west | 2026-09-01 06:01:43 | 49.73569 | 8.43616 | 71° | 37km/h | 18412m | 4.5m/s | -54.4°C | 0.3% | 74.8hPa | 2.7V | 03:52:01 | 01:30:22 | 00:00:00 | |
| BIOWL1-15 | 2026-09-01 06:01:43 | 49.73562 | 8.43590 | 60° | 35km/h | 18402m | 4.4m/s | -54.3°C | 0.3% | 74.9hPa | 2.6V | 03:52:01 | 01:30:20 | 00:00:00 | |
| DL1XH1-15 | 2026-09-01 06:01:42 | 49.73542 | 8.43551 | 44° | 33km/h | 18382m | 5.4m/s | -54.2°C | 4.2% | 75.1hPa | 2.7V | 03:51:51 | 01:30:16 | 00:00:00 | |
| DJTTGO | 2026-09-01 06:01:41 | 49.73566 | 8.43602 | 68° | 37km/h | 18407m | 5.5m/s | -54.4°C | 1.1% | 74.8hPa | 2.6V | 03:52:00 | 00:00:00 | 00:00:00 | |
| DO3DL | 2026-09-01 06:01:40 | 49.73562 | 8.43590 | 61° | 35km/h | 18402m | 4.4m/s | -54.3°C | 1.1% | 74.9hPa | 2.6V | 00:00:00 | 00:00:00 | 00:00:00 | |
| DM0DOS-11 | 2026-09-01 06:01:39 | 49.73529 | 8.43532 | 44° | 37km/h | 18373m | 3.9m/s | -54.1°C | 4.1% | 75.2hPa | 2.6V | 03:51:53 | 01:30:14 | 00:00:00 | |
| DL1XH-west | 2026-09-01 06:01:33 | 49.73517 | 8.43511 | 53° | 35km/h | 18364m | 4.7m/s | -54°C | 0.3% | 75.3hPa | 2.7V | 03:52:01 | 01:30:12 | 00:00:00 | |
| DJ2DS-15 | 2026-09-01 06:01:33 | 49.73517 | 8.43511 | 53° | 35km/h | 18364m | 4.6m/s | -54.0°C | 4.1% | 75.3hPa | 2.7V | 00:00:00 | 01:30:12 | 00:00:00 | |
| DL1XH1-15 | 2026-09-01 06:01:32 | 49.73494 | 8.43437 | 70° | 33km/h | 18334m | 4.5m/s | -53.9°C | 4.1% | 75.7hPa | 2.7V | 03:52:01 | 01:30:06 | 00:00:00 | |
| BIOWL1-15 | 2026-09-01 06:01:30 | 49.73471 | 8.43378 | 47° | 35km/h | 18309m | 5.1m/s | -53.7°C | 0.2% | 76hPa | 2.7V | 03:52:52 | 01:30:01 | 00:00:00 | |
| KANTATE | 2026-09-01 06:01:29 | 49.73504 | 8.43476 | 67° | 37km/h | 18349m | 5.2m/s | -54.0°C | 1.0% | 75.5hPa | 2.6V | 00:00:00 | 00:00:00 | 00:00:00 | |
| DL1NUX | 2026-09-01 06:01:28 | 49.73477 | 8.43388 | 51° | 37km/h | 18315m | 5.5m/s | -53.8°C | 4% | 75.9hPa | 2.6V | 03:52:05 | 01:30:02 | 00:00:00 | |
| DM0DOS-11 | 2026-09-01 06:01:27 | 49.73487 | 8.43412 | 62° | 37km/h | 18324m | 5.2m/s | -53.8°C | 4.1% | 75.8hPa | 2.6V | 03:52:03 | 01:30:04 | 00:00:00 | |
| DL1XH-west | 2026-09-01 06:01:23 | 49.73477 | 8.43388 | 51° | 37km/h | 18315m | 5.5m/s | -53.8°C | 0.2% | 75.9hPa | 2.6V | 03:52:52 | 01:30:02 | 00:00:00 | |
| DK5PH-5 | 2026-09-01 06:01:23 | 49.73477 | 8.43388 | 52° | 33km/h | 18315m | 5.5m/s | -53.7°C | 4.0% | 75.9hPa | 2.6V | 03:52:00 | 01:30:02 | 00:00:00 | |
| DL1XH1-15 | 2026-09-01 06:01:22 | 49.73438 | 8.43330 | 48° | 31km/h | 18285m | 5.2m/s | -53.5°C | 4% | 76.3hPa | 2.7V | 03:52:11 | 01:29:56 | 00:00:00 | |
| BIOWL1-15 | 2026-09-01 06:01:16 | 49.73425 | 8.43301 | 61° | 33km/h | 18270m | 4.6m/s | -53.3°C | 0.2% | 76.4hPa | 2.6V | 03:52:52 | 01:29:53 | 00:00:00 | |
| DL1NUX | 2026-09-01 06:01:16 | 49.73414 | 8.43267 | 62° | 29km/h | 18257m | 5.2m/s | -53.2°C | 4% | 76.6hPa | 2.7V | 03:52:17 | 01:29:50 | 00:00:00 | |
| DM0DOS-11 | 2026-09-01 06:01:15 | 49.73429 | 8.43312 | 57° | 31km/h | 18275m | 5.6m/s | -53.4°C | 4% | 76.4hPa | 2.7V | 03:52:13 | 01:29:54 | 00:00:00 | |
| DL1XH-west | 2026-09-01 06:01:13 | 49.73421 | 8.43290 | 64° | 33km/h | 18266m | 3.8m/s | -53.3°C | 0.2% | 76.5hPa | 2.6V | 03:52:52 | 01:29:52 | 00:00:00 | |
| DJ2DS-15 | 2026-09-01 06:01:13 | 49.73421 | 8.43290 | 64° | 31km/h | 18266m | 3.8m/s | -53.2°C | 4.0% | 76.5hPa | 2.7V | 00:00:00 | 01:29:52 | 00:00:00 | |
| DF3TZ-5 | 2026-09-01 06:01:12 | 49.73414 | 8.43267 | 62° | 29km/h | 18257m | 5.2m/s | -53.2°C | 1.0% | 76.6hPa | 2.7V | 00:00:00 | 00:00:00 | 00:00:00 | |
| DL1XH1-15 | 2026-09-01 06:01:12 | 49.73394 | 8.43229 | 42° | 35km/h | 18238m | 3.8m/s | -53°C | 3.9% | 76.8hPa | 2.6V | 03:52:21 | 01:29:46 | 00:00:00 | |
| DL3AQ-11 | 2026-09-01 06:01:11 | 49.73410 | 8.43257 | 56° | 29km/h | 18252m | 4.1m/s | -53.1°C | 1.0% | 76.7hPa | 2.7V | 00:00:00 | 00:00:00 | 00:00:00 | |
| DM0DOS-11 | 2026-09-01 06:01:10 | 49.73382 | 8.43212 | 45° | 31km/h | 18229m | 4.5m/s | -53°C | 3.9% | 76.9hPa | 2.7V | 03:52:23 | 01:29:44 | 00:00:00 | |
| SO1NDE-10 | 2026-09-01 06:01:08 | 49.73400 | 8.43238 | 45° | 33km/h | 18243m | 4.4m/s | -53.0°C | 4.0% | 76.7hPa | 2.6V | 00:00:00 | 01:29:47 | 00:00:00 | |
| DL1NUX | 2026-09-01 06:01:06 | 49.73363 | 8.43174 | 55° | 33km/h | 18211m | 4m/s | -52.8°C | 3.9% | 77.2hPa | 2.6V | 03:52:27 | 01:29:40 | 00:00:00 | |
| BIOWL1-15 | 2026-09-01 06:01:03 | 49.73372 | 8.43194 | 52° | 31km/h | 18220m | 4.9m/s | -52.9°C | 0.2% | 77hPa | 2.6V | 03:52:52 | 01:29:42 | 00:00:00 | |
| DL1XH-west | 2026-09-01 06:01:02 | 49.73368 | 8.43184 | 55° | 33km/h | 18215m | 4.6m/s | -52.8°C | 0.2% | 77.1hPa | 2.6V | 03:52:52 | 01:29:41 | 00:00:00 | |
| DB0UT-7 | 2026-09-01 06:01:02 | 49.73368 | 8.43184 | 55° | 29km/h | 18216m | 4.5m/s | -52.8°C | 3.9% | 77.1hPa | 2.7V | 00:00:00 | 00:00:00 | 00:00:00 | |
| DB0ND-19 | 2026-09-01 06:01:01 | 49.73363 | 8.43174 | 55° | 31km/h | 18211m | 4.1m/s | -52.8°C | 1.0% | 77.2hPa | 2.7V | 00:00:00 | 00:00:00 | 00:00:00 | |
| DL3AQ-11 | 2026-09-01 06:01:00 | 49.73350 | 8.43146 | 52° | 27km/h | 18197m | 4.5m/s | -52.7°C | 1.0% | 77.3hPa | 2.7V | 00:00:00 | 00:00:00 | 00:00:00 | |
| DM0DOS-11 | 2026-09-01 06:00:59 | 49.73335 | 8.43119 | 45° | 29km/h | 18184m | 5.4m/s | -52.5°C | 3.8% | 77.5hPa | 2.7V | 03:52:33 | 01:29:34 | 00:00:00 | |
| BIOWL1-15 | 2026-09-01 06:00:53 | 49.73308 | 8.43076 | 51° | 29km/h | 18161m | 5.3m/s | -52.4°C | 0.1% | 77.8hPa | 2.6V | 03:52:52 | 01:29:29 | 00:00:00 | |
| DJ2DS-15 | 2026-09-01 06:00:53 | 49.73324 | 8.43102 | 45° | 29km/h | 18175m | 4.7m/s | -52.4°C | 3.8% | 77.6hPa | 2.7V | 03:52:00 | 01:29:32 | 00:00:00 | |
| DL0LBS | 2026-09-01 06:00:52 | 49.73324 | 8.43102 | 45° | 29km/h | 18175m | 4.7m/s | -52.5°C | 1.0% | 77.6hPa | 2.7V | 03:52:00 | 00:00:00 | 00:00:00 | |
| DL1XH-west | 2026-09-01 06:00:52 | 49.73318 | 8.43094 | 45° | 33km/h | 18170m | 4.9m/s | -52.4°C | 0.1% | 77.7hPa | 2.6V | 03:52:52 | 01:29:31 | 00:00:00 | |
| DM7RM-13 | 2026-09-01 06:00:50 | 49.73313 | 8.43085 | 49° | 33km/h | 18166m | 3.7m/s | -52.4°C | 1.0% | 77.7hPa | 2.7V | 00:00:00 | 00:00:00 | 00:00:00 | |
| DJ2KF-10 | 2026-09-01 06:00:49 | 49.73303 | 8.43067 | 57° | 29km/h | 18156m | 4.7m/s | -52.3°C | 3.8% | 77.8hPa | 2.7V | 03:52:00 | 01:29:28 | 00:00:00 | |
| BIOWL7-15 | 2026-09-01 06:00:48 | 49.73303 | 8.43067 | 58° | 27km/h | 18156m | 4.8m/s | -52.3°C | 1.0% | 77.8hPa | 2.6V | 00:00:00 | 00:00:00 | 00:00:00 | |
| DM0DOS-11 | 2026-09-01 06:00:47 | 49.73291 | 8.43025 | 66° | 31km/h | 18137m | 3.8m/s | -52.2°C | 3.8% | 78hPa | 2.6V | 03:52:43 | 01:29:24 | 00:00:00 | |
| DD1CC8 | 2026-09-01 06:00:47 | 49.73297 | 8.43047 | 66° | 27km/h | 18147m | 6.3m/s | -52.2°C | 1.0% | 77.9hPa | 2.7V | 00:00:00 | 00:00:00 | 00:00:00 | |
| DO1YAY-16 | 2026-09-01 06:00:46 | 49.73291 | 8.43025 | 66° | 29km/h | 18138m | 3.8m/s | -52.2°C | 1.0% | 78.0hPa | 2.7V | 00:00:00 | 00:00:00 | 00:00:00 | |
| DL9PN | 2026-09-01 06:00:45 | 49.73288 | 8.43015 | 63° | 27km/h | 18133m | 5.2m/s | -52.2°C | 1.0% | 78.1hPa | 2.7V | 00:00:00 | 00:00:00 | 00:00:00 | |
| DL3AQ-11 | 2026-09-01 06:00:44 | 49.73280 | 8.42997 | 47° | 27km/h | 18124m | 4.5m/s | -52.1°C | 1.0% | 78.2hPa | 2.7V | 00:00:00 | 00:00:00 | 00:00:00 | |
| DL1XH1-15 | 2026-09-01 06:00:42 | 49.73254 | 8.42954 | 50° | 26km/h | 18102m | 4.8m/s | -51.9°C | 3.8% | 78.5hPa | 2.7V | 03:52:51 | 01:29:16 | 00:00:00 | |
| BIOWL1-15 | 2026-09-01 06:00:41 | 49.73269 | 8.42980 | 46° | 33km/h | 18115m | 3.7m/s | -52°C | 0.1% | 78.3hPa | 2.6V | 03:52:52 | 01:29:19 | 00:00:00 | |
| DL1XH-west | 2026-09-01 06:00:41 | 49.73275 | 8.42989 | 45° | 31km/h | 18119m | 4.9m/s | -52.1°C | 0.2% | 78.2hPa | 2.6V | 03:52:52 | 01:29:20 | 00:00:00 | |
| DJTTGO | 2026-09-01 06:00:40 | 49.73275 | 8.42989 | 46° | 31km/h | 18119m | 4.9m/s | -52.1°C | 1.0% | 78.2hPa | 2.6V | 00:00:00 | 00:00:00 | 00:00:00 | |
| AM1SDL-15 | 2026-09-01 06:00:37 | 49.73254 | 8.42954 | 51° | 29km/h | 18102m | 4.8m/s | 0°C | 0% | 0hPa | 2.6V | 03:52:00 | 01:29:16 | 00:00:00 | |
| DO3MHA-11 | 2026-09-01 06:00:36 | 49.73250 | 8.42947 | 57° | 29km/h | 18098m | 3.9m/s | -51.9°C | 3.8% | 78.5hPa | 2.6V | 00:00:00 | 01:29:15 | 00:00:00 | |
| DL8DAS-14 | 2026-09-01 06:00:35 | 49.73243 | 8.42929 | 59° | 27km/h | 18089m | 4.8m/s | -51.8°C | 1.0% | 78.7hPa | 2.7V | 00:00:00 | 00:00:00 | 00:00:00 | |
| DJ2DS-15 | 2026-09-01 06:00:34 | 49.73243 | 8.42929 | 59° | 27km/h | 18089m | 4.8m/s | -51.8°C | 1.0% | 78.7hPa | 2.7V | 00:00:00 | 00:00:00 | 00:00:00 | |
| DJ2DS-15 | 2026-09-01 06:00:33 | 49.73240 | 8.42919 | 60° | 29km/h | 18084m | 4.1m/s | -51.7°C | 3.7% | 78.7hPa | 2.7V | 00:00:00 | 01:29:12 | 00:00:00 | |
| DL1XH1-15 | 2026-09-01 06:00:32 | 49.73217 | 8.42858 | 62° | 35km/h | 18057m | 4.2m/s | -51.6°C | 3.6% | 79hPa | 2.7V | 03:53:01 | 01:29:06 | 00:00:00 | |
| BIOWL1-15 | 2026-09-01 06:00:31 | 49.73232 | 8.42899 | 60° | 29km/h | 18075m | 5.4m/s | -51.7°C | 0.1% | 78.8hPa | 2.7V | 03:53:43 | 01:29:10 | 00:00:00 | |
| DL1XH-west | 2026-09-01 06:00:30 | 49.73228 | 8.42890 | 61° | 29km/h | 18070m | 3.7m/s | -51.7°C | 0.1% | 78.9hPa | 2.6V | 03:53:43 | 01:29:09 | 00:00:00 | |
| DB0ND-19 | 2026-09-01 06:00:30 | 49.73225 | 8.42880 | 60° | 29km/h | 18066m | 4.5m/s | -51.7°C | 1.0% | 78.9hPa | 2.6V | 00:00:00 | 00:00:00 | 00:00:00 | |
| DM0DOS-11 | 2026-09-01 06:00:29 | 49.73210 | 8.42834 | 70° | 31km/h | 18047m | 4.5m/s | -51.5°C | 3.6% | 79.1hPa | 2.6V | 03:53:03 | 01:29:04 | 00:00:00 | |
| DL1ZP-14 | 2026-09-01 06:00:29 | 49.73221 | 8.42869 | 61° | 31km/h | 18062m | 4.8m/s | -51.6°C | 1.0% | 79.0hPa | 2.6V | 00:00:00 | 00:00:00 | 00:00:00 | |
| BIOWL7-15 | 2026-09-01 06:00:27 | 49.73221 | 8.42869 | 62° | 33km/h | 18062m | 4.8m/s | -51.6°C | 1.0% | 79.0hPa | 2.6V | 00:00:00 | 00:00:00 | 00:00:00 | |
| DO3MHA-11 | 2026-09-01 06:00:26 | 49.73213 | 8.42846 | 67° | 27km/h | 18052m | 5.5m/s | -51.5°C | 3.6% | 79.0hPa | 2.6V | 00:00:00 | 01:29:05 | 00:00:00 | |
| AM1SDL-15 | 2026-09-01 06:00:25 | 49.73210 | 8.42834 | 71° | 29km/h | 18047m | 4.5m/s | 0°C | 0% | 0hPa | 2.6V | 00:00:00 | 01:29:04 | 00:00:00 | |
| DL1NUX | 2026-09-01 06:00:24 | 49.73196 | 8.42769 | 71° | 24km/h | 18019m | 3.4m/s | -51.5°C | 3.5% | 79.5hPa | 2.6V | 03:53:09 | 01:28:58 | 00:00:00 | |
| DK5PH-5 | 2026-09-01 06:00:23 | 49.73205 | 8.42811 | 73° | 29km/h | 18038m | 5.8m/s | -51.4°C | 3.5% | 79.2hPa | 2.7V | 00:00:00 | 01:29:02 | 00:00:00 | |
| DL1XH1-15 | 2026-09-01 06:00:21 | 49.73189 | 8.42742 | 67° | 27km/h | 18005m | 4.2m/s | -51.5°C | 3.5% | 79.7hPa | 2.7V | 03:53:12 | 01:28:55 | 00:00:00 | |
| DL1XH-west | 2026-09-01 06:00:19 | 49.73196 | 8.42769 | 71° | 24km/h | 18019m | 3.4m/s | -51.5°C | 0% | 79.5hPa | 2.6V | 03:53:43 | 01:28:58 | 00:00:00 | |
| DJ2KF-10 | 2026-09-01 06:00:18 | 49.73194 | 8.42760 | 68° | 35km/h | 18015m | 5.3m/s | -51.5°C | 3.5% | 79.5hPa | 2.7V | 00:00:00 | 01:28:57 | 00:00:00 | |
| DM0DOS-11 | 2026-09-01 06:00:17 | 49.73186 | 8.42732 | 70° | 26km/h | 17999m | 5.8m/s | -51.4°C | 3.5% | 79.7hPa | 2.7V | 03:53:13 | 01:28:54 | 00:00:00 | |
| DL1XH-west | 2026-09-01 06:00:08 | 49.73177 | 8.42650 | 83° | 29km/h | 17967m | 3.5m/s | -51.7°C | 0% | 80.1hPa | 2.6V | 03:53:43 | 01:28:47 | 00:00:00 | |
| DM0DOS-11 | 2026-09-01 06:00:05 | 49.73173 | 8.42615 | 77° | 31km/h | 17955m | 3.6m/s | -52°C | 3.6% | 80.3hPa | 2.7V | 03:53:23 | 01:28:44 | 00:00:00 | |
| DN1GJH-1 | 2026-09-01 06:00:03 | 49.73171 | 8.42604 | 82° | 29km/h | 17951m | 4.8m/s | -52.1°C | 1.0% | 80.3hPa | 2.6V | 03:53:00 | 00:00:00 | 00:00:00 | |
| DB0UT-7 | 2026-09-01 06:00:02 | 49.73170 | 8.42581 | 87° | 31km/h | 17942m | 3.4m/s | -52.1°C | 3.7% | 80.3hPa | 2.6V | 00:00:00 | 00:00:00 | 00:00:00 | |
| DL1XH1-15 | 2026-09-01 06:00:01 | 49.73168 | 8.42508 | 88° | 33km/h | 17916m | 4.8m/s | -52.3°C | 3.7% | 80.7hPa | 2.6V | 03:53:32 | 01:28:35 | 00:00:00 | |
| DM0DOS-11 | 2026-09-01 06:00:00 | 49.73168 | 8.42495 | 88° | 35km/h | 17912m | 3.7m/s | -52.4°C | 3.7% | 80.8hPa | 2.6V | 03:53:33 | 01:28:34 | 00:00:00 | |
| DL1XH-west | 2026-09-01 05:59:58 | 49.73168 | 8.42532 | 89° | 31km/h | 17925m | 4.8m/s | -52.2°C | 0.1% | 80.6hPa | 2.7V | 03:53:43 | 01:28:37 | 00:00:00 | |
| BIOWL1-15 | 2026-09-01 05:59:57 | 49.73168 | 8.42508 | 88° | 33km/h | 17916m | 4.9m/s | -52.3°C | 0.1% | 80.7hPa | 2.6V | 03:53:43 | 01:28:35 | 00:00:00 | |
| HSKMA3-T | 2026-09-01 05:59:50 | 49.73169 | 8.42431 | 89° | 35km/h | 17892m | 4.6m/s | 0°C | 0% | 0hPa | 2.6V | 18:12:15 | 01:28:29 | 00:00:00 | |
| DM0DOS-11 | 2026-09-01 05:59:49 | 49.73166 | 8.42364 | 87° | 33km/h | 17872m | 4.8m/s | -53.1°C | 3.9% | 81.3hPa | 2.6V | 03:53:43 | 01:28:24 | 00:00:00 | |
| DL1XH1-15 | 2026-09-01 05:59:49 | 49.73166 | 8.42377 | 86° | 33km/h | 17877m | 3.8m/s | -53.1°C | 3.8% | 81.2hPa | 2.6V | 03:53:42 | 01:28:25 | 00:00:00 | |
| BIOWL1-15 | 2026-09-01 05:59:47 | 49.73167 | 8.42390 | 84° | 33km/h | 17880m | 4.2m/s | -52.8°C | 0.1% | 81.2hPa | 2.7V | 03:53:43 | 01:28:26 | 00:00:00 | |
| DD1CC8 | 2026-09-01 05:59:45 | 49.73166 | 8.42364 | 87° | 33km/h | 17872m | 4.8m/s | -53.2°C | 1.0% | 81.3hPa | 2.7V | 00:00:00 | 00:00:00 | 00:00:00 | |
| DF7PN | 2026-09-01 05:59:44 | 49.73165 | 8.42339 | 86° | 31km/h | 17864m | 4.0m/s | -53.2°C | 1.0% | 81.4hPa | 2.7V | 00:00:00 | 00:00:00 | 00:00:00 | |
| DB0NH | 2026-09-01 05:59:43 | 49.73165 | 8.42339 | 87° | 33km/h | 17864m | 4.0m/s | -53.1°C | 3.9% | 81.4hPa | 2.7V | 03:53:00 | 01:28:22 | 00:00:00 | |
| DN1GJH-1 | 2026-09-01 05:59:42 | 49.73165 | 8.42339 | 88° | 31km/h | 17864m | 4.0m/s | -53.2°C | 1.1% | 81.4hPa | 2.7V | 03:54:00 | 00:00:00 | 00:00:00 | |
| DF1GD-15 | 2026-09-01 05:59:40 | 49.73163 | 8.42317 | 78° | 26km/h | 17855m | 4.0m/s | -53.1°C | 1.1% | 81.5hPa | 2.7V | 03:54:00 | 00:00:00 | 00:00:00 | |
| HEMX73-11 | 2026-09-01 05:59:39 | 49.73162 | 8.42307 | 76° | 27km/h | 17851m | 4.8m/s | -53.1°C | 1.0% | 81.6hPa | 2.7V | 03:54:00 | 00:00:00 | 00:00:00 | |
| DL1XH1-15 | 2026-09-01 05:59:37 | 49.73152 | 8.42269 | 65° | 26km/h | 17834m | 3.4m/s | -53.2°C | 3.9% | 81.8hPa | 2.7V | 03:53:52 | 01:28:15 | 00:00:00 | |
| DM0DOS-11 | 2026-09-01 05:59:37 | 49.73149 | 8.42259 | 69° | 26km/h | 17830m | 4m/s | -53.2°C | 3.9% | 81.8hPa | 2.6V | 03:53:53 | 01:28:14 | 00:00:00 | |
| DL1XH-west | 2026-09-01 05:59:37 | 49.73155 | 8.42278 | 65° | 26km/h | 17838m | 5m/s | -53.2°C | 0.2% | 81.7hPa | 2.7V | 03:54:34 | 01:28:16 | 00:00:00 | |
| BIOWL1-15 | 2026-09-01 05:59:36 | 49.73149 | 8.42259 | 70° | 26km/h | 17830m | 4.1m/s | -53.2°C | 0.2% | 81.8hPa | 2.6V | 03:54:34 | 01:28:14 | 00:00:00 | |
| DB0UT-9 | 2026-09-01 05:59:35 | 49.73152 | 8.42269 | 66° | 26km/h | 17834m | 3.4m/s | -53.2°C | 1.1% | 81.8hPa | 2.6V | 03:54:00 | 00:00:00 | 00:00:00 | |
| DJ2DS-15 | 2026-09-01 05:59:33 | 49.73145 | 8.42238 | 75° | 33km/h | 17823m | 3.4m/s | -53.1°C | 3.8% | 81.9hPa | 2.6V | 03:53:00 | 01:28:12 | 00:00:00 | |
| DJTTGO | 2026-09-01 05:59:32 | 49.73146 | 8.42238 | 76° | 29km/h | 17823m | 3.5m/s | -53.2°C | 1.0% | 82.0hPa | 2.7V | 03:54:00 | 00:00:00 | 00:00:00 | |
| DL1XH1-15 | 2026-09-01 05:59:31 | 49.73132 | 8.42157 | 78° | 31km/h | 17789m | 4.3m/s | -53.1°C | 3.8% | 82.3hPa | 2.7V | 03:54:02 | 01:28:05 | 00:00:00 | |
| BIOWL1-15 | 2026-09-01 05:59:26 | 49.73129 | 8.42133 | 87° | 33km/h | 17781m | 5.3m/s | -53°C | 0.1% | 82.5hPa | 2.6V | 03:54:34 | 01:28:03 | 00:00:00 | |
| DL1XH-west | 2026-09-01 05:59:26 | 49.73131 | 8.42157 | 79° | 31km/h | 17789m | 4.3m/s | -53.1°C | 0.1% | 82.4hPa | 2.7V | 03:54:34 | 01:28:05 | 00:00:00 | |
| DM0DOS-11 | 2026-09-01 05:59:25 | 49.73130 | 8.42145 | 81° | 31km/h | 17785m | 3.8m/s | -53°C | 3.8% | 82.4hPa | 2.7V | 03:54:03 | 01:28:04 | 00:00:00 | |
| DL3AQ-11 | 2026-09-01 05:59:24 | 49.73129 | 8.42120 | 91° | 33km/h | 17776m | 4.8m/s | -53.1°C | 1.0% | 82.5hPa | 2.7V | 00:00:00 | 00:00:00 | 00:00:00 | |
| DK5PH-5 | 2026-09-01 05:59:23 | 49.73129 | 8.42120 | 92° | 40km/h | 17776m | 4.7m/s | -53.0°C | 3.8% | 82.5hPa | 2.7V | 03:54:00 | 01:28:02 | 00:00:00 | |
| DJ2DS-15 | 2026-09-01 05:59:22 | 49.73130 | 8.42107 | 92° | 35km/h | 17771m | 3.7m/s | -53.1°C | 1.0% | 82.6hPa | 2.7V | 00:00:00 | 00:00:00 | 00:00:00 | |
| DN1GJH-1 | 2026-09-01 05:59:21 | 49.73130 | 8.42106 | 93° | 35km/h | 17772m | 3.7m/s | -53.1°C | 1.0% | 82.6hPa | 2.7V | 03:54:00 | 00:00:00 | 00:00:00 | |
| DM0DOS-11 | 2026-09-01 05:59:20 | 49.73130 | 8.42010 | 84° | 37km/h | 17740m | 3.5m/s | -53.4°C | 3.8% | 83hPa | 2.7V | 03:54:13 | 01:27:54 | 00:00:00 | |
| DL1XH1-15 | 2026-09-01 05:59:19 | 49.73130 | 8.42024 | 86° | 37km/h | 17745m | 5.1m/s | -53.4°C | 3.8% | 82.9hPa | 2.7V | 03:54:12 | 01:27:55 | 00:00:00 | |
| DL1XH-west | 2026-09-01 05:59:15 | 49.73129 | 8.42010 | 84° | 37km/h | 17740m | 3.5m/s | -53.4°C | 0.1% | 83hPa | 2.7V | 03:54:34 | 01:27:54 | 00:00:00 | |
| BIOWL1-15 | 2026-09-01 05:59:13 | 49.73128 | 8.41981 | 89° | 38km/h | 17731m | 5.1m/s | -53.6°C | 0.2% | 83.1hPa | 2.6V | 03:54:34 | 01:27:52 | 00:00:00 | |
| DO1YAY-16 | 2026-09-01 05:59:13 | 49.73128 | 8.41966 | 89° | 37km/h | 17727m | 4.3m/s | -53.7°C | 1.0% | 83.2hPa | 2.7V | 00:00:00 | 00:00:00 | 00:00:00 | |
| DL9PN | 2026-09-01 05:59:12 | 49.73128 | 8.41952 | 90° | 37km/h | 17722m | 4.9m/s | -53.9°C | 1.0% | 83.2hPa | 2.7V | 00:00:00 | 00:00:00 | 00:00:00 | |
| DL3AQ-11 | 2026-09-01 05:59:11 | 49.73129 | 8.41937 | 94° | 37km/h | 17718m | 3.7m/s | -54.0°C | 1.1% | 83.3hPa | 2.7V | 00:00:00 | 00:00:00 | 00:00:00 | |
| DM0DOS-11 | 2026-09-01 05:59:10 | 49.73137 | 8.41863 | 101° | 38km/h | 17695m | 3.4m/s | -54.1°C | 4% | 83.6hPa | 2.7V | 03:54:23 | 01:27:44 | 00:00:00 | |
| NBG1-10 | 2026-09-01 05:59:10 | 49.73129 | 8.41937 | 95° | 44km/h | 17718m | 3.7m/s | -53.9°C | 4.0% | 83.2hPa | 2.6V | 03:54:00 | 01:27:49 | 00:00:00 | |
| DL1XH1-15 | 2026-09-01 05:59:07 | 49.73135 | 8.41877 | 101° | 38km/h | 17699m | 4.7m/s | -54.1°C | 4% | 83.5hPa | 2.6V | 03:54:22 | 01:27:45 | 00:00:00 | |
| DL1XH-west | 2026-09-01 05:59:04 | 49.73139 | 8.41847 | 101° | 42km/h | 17691m | 4.4m/s | -54.1°C | 0.2% | 83.6hPa | 2.7V | 03:54:34 | 01:27:43 | 00:00:00 | |
| BIOWL1-15 | 2026-09-01 05:59:02 | 49.73143 | 8.41813 | 98° | 47km/h | 17682m | 3.8m/s | -54.1°C | 0.3% | 83.7hPa | 2.6V | 03:54:34 | 01:27:41 | 00:00:00 | |
| DL8DAS-14 | 2026-09-01 05:59:02 | 49.73144 | 8.41795 | 95° | 47km/h | 17678m | 4.4m/s | -54.1°C | 1.1% | 83.8hPa | 2.6V | 00:00:00 | 00:00:00 | 00:00:00 | |
| DL1XH1-15 | 2026-09-01 05:59:01 | 49.73148 | 8.41702 | 92° | 47km/h | 17655m | 3.9m/s | -54.3°C | 4.1% | 84.1hPa | 2.6V | 03:54:32 | 01:27:35 | 00:00:00 | |
| DL3AQ-11 | 2026-09-01 05:59:00 | 49.73146 | 8.41757 | 91° | 46km/h | 17669m | 3.9m/s | -54.3°C | 1.1% | 83.9hPa | 2.7V | 00:00:00 | 00:00:00 | 00:00:00 | |
| DM0DOS-11 | 2026-09-01 05:58:59 | 49.73148 | 8.41683 | 90° | 46km/h | 17651m | 5.1m/s | -54.4°C | 4.2% | 84.1hPa | 2.7V | 03:54:33 | 01:27:34 | 00:00:00 | |
| DL1XH-west | 2026-09-01 05:58:54 | 49.73148 | 8.41666 | 89° | 46km/h | 17646m | 4.1m/s | -54.3°C | 0.3% | 84.2hPa | 2.7V | 03:54:34 | 01:27:33 | 00:00:00 | |
| DO3MHA-11 | 2026-09-01 05:58:54 | 49.73148 | 8.41666 | 89° | 49km/h | 17646m | 4.0m/s | -54.3°C | 4.1% | 84.2hPa | 2.7V | 00:00:00 | 01:27:33 | 00:00:00 | |
| DL1NUX | 2026-09-01 05:58:53 | 49.73139 | 8.41553 | 80° | 51km/h | 17619m | 5.2m/s | -54.2°C | 4.1% | 84.5hPa | 2.7V | 03:54:40 | 01:27:27 | 00:00:00 | |
| BIOWL1-15 | 2026-09-01 05:58:52 | 49.73147 | 8.41629 | 87° | 49km/h | 17637m | 4.1m/s | -54.3°C | 0.3% | 84.3hPa | 2.6V | 03:55:25 | 01:27:31 | 00:00:00 | |
| DL1XH1-15 | 2026-09-01 05:58:49 | 49.73136 | 8.41514 | 84° | 49km/h | 17610m | 3.5m/s | -54.2°C | 4.2% | 84.7hPa | 2.6V | 03:54:42 | 01:27:25 | 00:00:00 | |
| DO3DL | 2026-09-01 05:58:47 | 49.73139 | 8.41553 | 81° | 51km/h | 17619m | 5.2m/s | -54.3°C | 1.1% | 84.5hPa | 2.6V | 03:55:00 | 00:00:00 | 00:00:00 | |
| DM0DOS-11 | 2026-09-01 05:58:46 | 49.73135 | 8.41495 | 83° | 47km/h | 17606m | 5.2m/s | -54.2°C | 4.1% | 84.8hPa | 2.6V | 03:54:43 | 01:27:24 | 00:00:00 | |
| DL1XH-west | 2026-09-01 05:58:44 | 49.73133 | 8.41478 | 83° | 44km/h | 17600m | 5.3m/s | -54.2°C | 0.3% | 84.8hPa | 2.7V | 03:55:25 | 01:27:23 | 00:00:00 | |
| DL3AQ-11 | 2026-09-01 05:58:44 | 49.73132 | 8.41461 | 80° | 40km/h | 17595m | 4.9m/s | -54.2°C | 1.1% | 84.9hPa | 2.7V | 00:00:00 | 00:00:00 | 00:00:00 | |
| DD1CC8 | 2026-09-01 05:58:43 | 49.73130 | 8.41445 | 79° | 40km/h | 17591m | 5.1m/s | -54.1°C | 1.1% | 84.9hPa | 2.7V | 00:00:00 | 00:00:00 | 00:00:00 | |
| DL1NUX | 2026-09-01 05:58:42 | 49.73119 | 8.41366 | 73° | 40km/h | 17566m | 3.9m/s | -54°C | 4.1% | 85.3hPa | 2.7V | 03:54:51 | 01:27:16 | 00:00:00 | |
| BIOWL1-15 | 2026-09-01 05:58:41 | 49.73121 | 8.41381 | 76° | 40km/h | 17571m | 5.5m/s | -54°C | 0.3% | 85.2hPa | 2.7V | 03:55:25 | 01:27:17 | 00:00:00 | |
| DL1XH1-15 | 2026-09-01 05:58:41 | 49.73116 | 8.41351 | 72° | 42km/h | 17562m | 5m/s | -54°C | 4.1% | 85.3hPa | 2.6V | 03:54:52 | 01:27:15 | 00:00:00 | |
| DL1XH-west | 2026-09-01 05:58:33 | 49.73104 | 8.41301 | 70° | 46km/h | 17547m | 5.2m/s | -54.1°C | 0.3% | 85.5hPa | 2.7V | 03:55:25 | 01:27:12 | 00:00:00 | |
| DJ2DS-15 | 2026-09-01 05:58:33 | 49.73104 | 8.41301 | 71° | 38km/h | 17547m | 5.2m/s | -54.0°C | 4.1% | 85.5hPa | 2.7V | 00:00:00 | 01:27:12 | 00:00:00 | |
| SFWM-10 | 2026-09-01 05:58:32 | 49.73104 | 8.41301 | 71° | 47km/h | 17547m | 5.2m/s | -54.1°C | 1.1% | 85.5hPa | 2.7V | 03:55:00 | 00:00:00 | 00:00:00 | |
| KANTATE | 2026-09-01 05:58:30 | 49.73097 | 8.41269 | 73° | 42km/h | 17537m | 5.0m/s | -54.0°C | 1.1% | 85.7hPa | 2.7V | 00:00:00 | 00:00:00 | 00:00:00 | |
| BIOWL1-15 | 2026-09-01 05:58:30 | 49.73084 | 8.41194 | 78° | 35km/h | 17512m | 5.6m/s | -54°C | 0.3% | 86hPa | 2.7V | 03:55:25 | 01:27:05 | 00:00:00 | |
| DL1XH1-15 | 2026-09-01 05:58:29 | 49.73084 | 8.41194 | 77° | 35km/h | 17512m | 5.6m/s | -54°C | 4.1% | 86hPa | 2.7V | 03:55:02 | 01:27:05 | 00:00:00 | |
| DM0DOS-11 | 2026-09-01 05:58:29 | 49.73082 | 8.41181 | 77° | 33km/h | 17507m | 4.4m/s | -53.9°C | 4.1% | 86.1hPa | 2.6V | 03:55:03 | 01:27:04 | 00:00:00 | |
| DL1XH-west | 2026-09-01 05:58:23 | 49.73078 | 8.41156 | 74° | 35km/h | 17499m | 5.3m/s | -53.9°C | 0.3% | 86.2hPa | 2.6V | 03:55:25 | 01:27:02 | 00:00:00 | |
| AM1SDL-15 | 2026-09-01 05:58:22 | 49.73075 | 8.41142 | 70° | 44km/h | 17494m | 4.7m/s | 0°C | 0% | 0hPa | 2.7V | 00:00:00 | 01:27:01 | 00:00:00 | |
| HARRO8 | 2026-09-01 05:58:21 | 49.73071 | 8.41128 | 66° | 38km/h | 17489m | 5.5m/s | -53.8°C | 1.1% | 86.3hPa | 2.7V | 00:00:00 | 00:00:00 | 00:00:00 | |
| DL3AQ-11 | 2026-09-01 05:58:20 | 49.73062 | 8.41101 | 58° | 38km/h | 17478m | 4.8m/s | -53.7°C | 1.1% | 86.4hPa | 2.7V | 00:00:00 | 00:00:00 | 00:00:00 | |
| DL1XH1-15 | 2026-09-01 05:58:19 | 49.73045 | 8.41063 | 50° | 38km/h | 17463m | 5.9m/s | -53.6°C | 4% | 86.6hPa | 2.7V | 03:55:12 | 01:26:55 | 00:00:00 | |
| DM0DOS-11 | 2026-09-01 05:58:19 | 49.73038 | 8.41052 | 50° | 35km/h | 17458m | 4.7m/s | -53.6°C | 4% | 86.7hPa | 2.7V | 03:55:13 | 01:26:54 | 00:00:00 | |
| BIOWL1-15 | 2026-09-01 05:58:19 | 49.73062 | 8.41101 | 59° | 40km/h | 17478m | 4.8m/s | -53.7°C | 0.3% | 86.4hPa | 2.6V | 03:55:25 | 01:26:58 | 00:00:00 | |
| HEMX73-11 | 2026-09-01 05:58:18 | 49.73062 | 8.41101 | 60° | 40km/h | 17478m | 4.8m/s | -53.7°C | 1.1% | 86.4hPa | 2.6V | 03:55:00 | 00:00:00 | 00:00:00 | |
| DL1NUX | 2026-09-01 05:58:17 | 49.73024 | 8.41020 | 61° | 31km/h | 17442m | 5.3m/s | -53.5°C | 4% | 86.9hPa | 2.6V | 03:55:16 | 01:26:51 | 00:00:00 | |
| DL1XH-west | 2026-09-01 05:58:12 | 49.73024 | 8.41020 | 61° | 31km/h | 17442m | 5.3m/s | -53.5°C | 0.2% | 86.9hPa | 2.6V | 03:55:25 | 01:26:51 | 00:00:00 | |
| DF7PN | 2026-09-01 05:58:11 | 49.73017 | 8.40998 | 64° | 31km/h | 17432m | 4.3m/s | -53.5°C | 1.1% | 87.1hPa | 2.7V | 00:00:00 | 00:00:00 | 00:00:00 | |
| DJ2DS-15 | 2026-09-01 05:58:10 | 49.73014 | 8.40986 | 66° | 35km/h | 17427m | 5.8m/s | -53.4°C | 1.1% | 87.1hPa | 2.7V | 00:00:00 | 00:00:00 | 00:00:00 | |
| DL1XH1-15 | 2026-09-01 05:58:09 | 49.73001 | 8.40945 | 61° | 40km/h | 17413m | 5.6m/s | -53.4°C | 4% | 87.3hPa | 2.7V | 03:55:22 | 01:26:45 | 00:00:00 | |
| BIOWL1-15 | 2026-09-01 05:58:08 | 49.73010 | 8.40973 | 66° | 38km/h | 17421m | 4.8m/s | -53.4°C | 0.3% | 87.2hPa | 2.6V | 03:55:25 | 01:26:47 | 00:00:00 | |
| DO3DL | 2026-09-01 05:58:07 | 49.73010 | 8.40973 | 67° | 38km/h | 17421m | 4.8m/s | -53.4°C | 1.1% | 87.2hPa | 2.7V | 03:55:00 | 00:00:00 | 00:00:00 | |
| DM0DOS-11 | 2026-09-01 05:58:06 | 49.72996 | 8.40932 | 57° | 38km/h | 17407m | 5.2m/s | -53.3°C | 4% | 87.4hPa | 2.7V | 03:55:23 | 01:26:44 | 00:00:00 | |
| DL1XH-west | 2026-09-01 05:58:02 | 49.72980 | 8.40898 | 53° | 35km/h | 17392m | 6.4m/s | -53.3°C | 0.2% | 87.6hPa | 2.6V | 03:56:16 | 01:26:41 | 00:00:00 | |
| DO3DL | 2026-09-01 05:58:02 | 49.72980 | 8.40898 | 53° | 35km/h | 17392m | 6.4m/s | -53.3°C | 1.1% | 87.6hPa | 2.7V | 03:56:00 | 00:00:00 | 00:00:00 | |
| DM0DOS-11 | 2026-09-01 05:58:00 | 49.72944 | 8.40828 | 47° | 35km/h | 17352m | 5.4m/s | -53°C | 3.8% | 88.1hPa | 2.7V | 03:55:33 | 01:26:34 | 00:00:00 | |
| BIOWL1-15 | 2026-09-01 05:58:00 | 49.72960 | 8.40858 | 52° | 29km/h | 17369m | 4.7m/s | -53.1°C | 0.1% | 87.9hPa | 2.6V | 03:56:16 | 01:26:37 | 00:00:00 | |
| DL8DAS-14 | 2026-09-01 05:58:00 | 49.72964 | 8.40867 | 51° | 29km/h | 17374m | 6.0m/s | -53.1°C | 1.1% | 87.8hPa | 2.6V | 00:00:00 | 00:00:00 | 00:00:00 | |
| DL4BBY-15 | 2026-09-01 05:57:59 | 49.72964 | 8.40867 | 52° | 37km/h | 17374m | 6.0m/s | -52.1°C | 0% | 0hPa | 2.6V | 00:00:00 | 00:00:00 | 00:00:00 | |
| DN1GJH-1 | 2026-09-01 05:57:58 | 49.72964 | 8.40867 | 53° | 29km/h | 17374m | 6.0m/s | -53.1°C | 1.1% | 87.8hPa | 2.6V | 03:56:00 | 00:00:00 | 00:00:00 | |
| DL1NUX | 2026-09-01 05:57:57 | 49.72924 | 8.40799 | 41° | 38km/h | 17336m | 5.6m/s | -53°C | 3.9% | 88.3hPa | 2.6V | 03:55:36 | 01:26:31 | 00:00:00 | |
| DL1XH-west | 2026-09-01 05:57:51 | 49.72916 | 8.40790 | 41° | 38km/h | 17331m | 4.5m/s | -53°C | 0.2% | 88.4hPa | 2.6V | 03:56:16 | 01:26:30 | 00:00:00 | |
| DL3AQ-11 | 2026-09-01 05:57:51 | 49.72909 | 8.40780 | 39° | 35km/h | 17326m | 6.1m/s | -53.1°C | 1.1% | 88.5hPa | 2.6V | 00:00:00 | 00:00:00 | 00:00:00 | |
| HARRO8 | 2026-09-01 05:57:50 | 49.72909 | 8.40780 | 39° | 35km/h | 17326m | 6.1m/s | -53.1°C | 1.1% | 88.5hPa | 2.6V | 00:00:00 | 00:00:00 | 00:00:00 | |
| DL1XH1-15 | 2026-09-01 05:57:49 | 49.72884 | 8.40745 | 47° | 33km/h | 17306m | 4.4m/s | -53.1°C | 3.9% | 88.8hPa | 2.6V | 03:55:42 | 01:26:25 | 00:00:00 | |
| SO1NDE-10 | 2026-09-01 05:57:48 | 49.72896 | 8.40763 | 42° | 37km/h | 17316m | 5.1m/s | -53.1°C | 3.9% | 88.6hPa | 2.7V | 03:55:00 | 01:26:27 | 00:00:00 | |
| BIOWL1-15 | 2026-09-01 05:57:48 | 49.72896 | 8.40763 | 42° | 33km/h | 17316m | 5.1m/s | -53.1°C | 0.2% | 88.6hPa | 2.7V | 03:56:16 | 01:26:27 | 00:00:00 | |
| DL0LBS | 2026-09-01 05:57:47 | 49.72896 | 8.40763 | 43° | 33km/h | 17316m | 5.1m/s | -53.1°C | 1.1% | 88.6hPa | 2.7V | 03:56:00 | 00:00:00 | 00:00:00 | |
| DL1NUX | 2026-09-01 05:57:45 | 49.72843 | 8.40686 | 33° | 42km/h | 17276m | 5.5m/s | -53°C | 3.8% | 89.2hPa | 2.7V | 03:55:48 | 01:26:19 | 00:00:00 | |
| DL1XH-west | 2026-09-01 05:57:40 | 49.72843 | 8.40686 | 33° | 42km/h | 17276m | 5.5m/s | -53°C | 0.1% | 89.2hPa | 2.7V | 03:56:16 | 01:26:19 | 00:00:00 | |
| DL3AQ-11 | 2026-09-01 05:57:40 | 49.72834 | 8.40678 | 29° | 40km/h | 17271m | 3.9m/s | -53.0°C | 1.0% | 89.2hPa | 2.6V | 00:00:00 | 00:00:00 | 00:00:00 | |
| DL1XH1-15 | 2026-09-01 05:57:39 | 49.72808 | 8.40651 | 36° | 42km/h | 17257m | 4.5m/s | -53°C | 3.9% | 89.5hPa | 2.6V | 03:55:52 | 01:26:15 | 00:00:00 | |
| DM0DOS-11 | 2026-09-01 05:57:39 | 49.72799 | 8.40641 | 37° | 42km/h | 17253m | 4.2m/s | -52.9°C | 3.9% | 89.5hPa | 2.6V | 03:55:53 | 01:26:14 | 00:00:00 | |
| BIOWL1-15 | 2026-09-01 05:57:37 | 49.72816 | 8.40661 | 34° | 42km/h | 17262m | 5.5m/s | -53°C | 0.2% | 89.4hPa | 2.6V | 03:56:16 | 01:26:16 | 00:00:00 | |
| HEMX73-11 | 2026-09-01 05:57:36 | 49.72816 | 8.40660 | 35° | 42km/h | 17262m | 5.5m/s | -53.0°C | 1.0% | 89.4hPa | 2.7V | 03:56:00 | 00:00:00 | 00:00:00 | |
| DO3DL | 2026-09-01 05:57:35 | 49.72808 | 8.40651 | 37° | 42km/h | 17257m | 4.5m/s | -53.0°C | 1.1% | 89.5hPa | 2.7V | 03:56:00 | 00:00:00 | 00:00:00 | |
| DO3MHA-11 | 2026-09-01 05:57:34 | 49.72791 | 8.40632 | 36° | 37km/h | 17249m | 5.0m/s | -52.8°C | 4.0% | 89.5hPa | 2.7V | 00:00:00 | 01:26:13 | 00:00:00 | |
| DL1NUX | 2026-09-01 05:57:33 | 49.72752 | 8.40577 | 42° | 37km/h | 17222m | 5m/s | -52.7°C | 3.9% | 89.9hPa | 2.7V | 03:56:00 | 01:26:07 | 00:00:00 | |
| DJ2DS-15 | 2026-09-01 05:57:33 | 49.72783 | 8.40623 | 36° | 35km/h | 17244m | 3.4m/s | -52.8°C | 4.1% | 89.6hPa | 2.7V | 00:00:00 | 01:26:12 | 00:00:00 | |
| DM7RM-13 | 2026-09-01 05:57:31 | 49.72776 | 8.40615 | 40° | 35km/h | 17241m | 4.0m/s | -52.9°C | 1.1% | 89.7hPa | 2.6V | 03:56:00 | 00:00:00 | 00:00:00 | |
| DL1XH1-15 | 2026-09-01 05:57:29 | 49.72736 | 8.40560 | 28° | 38km/h | 17211m | 4.7m/s | -52.6°C | 3.8% | 90.1hPa | 2.6V | 03:56:02 | 01:26:05 | 00:00:00 | |
| DL1XH-west | 2026-09-01 05:57:29 | 49.72758 | 8.40586 | 49° | 35km/h | 17226m | 4.1m/s | -52.8°C | 0.2% | 89.9hPa | 2.7V | 03:56:16 | 01:26:08 | 00:00:00 | |
| BIOWL1-15 | 2026-09-01 05:57:27 | 49.72744 | 8.40568 | 35° | 38km/h | 17217m | 5.4m/s | -52.6°C | 0.2% | 90hPa | 2.7V | 03:56:16 | 01:26:06 | 00:00:00 | |
| DM0DOS-11 | 2026-09-01 05:57:26 | 49.72728 | 8.40553 | 26° | 38km/h | 17206m | 5.3m/s | -52.6°C | 3.8% | 90.2hPa | 2.6V | 03:56:03 | 01:26:04 | 00:00:00 | |
| SONCRA | 2026-09-01 05:57:24 | 49.72711 | 8.40540 | 30° | 33km/h | 17195m | 4.7m/s | -52.6°C | 1.0% | 90.3hPa | 2.7V | 00:00:00 | 00:00:00 | 00:00:00 | |
| DK5PH-5 | 2026-09-01 05:57:23 | 49.72711 | 8.40540 | 31° | 29km/h | 17196m | 4.7m/s | -52.5°C | 3.8% | 90.3hPa | 2.7V | 03:56:00 | 01:26:02 | 00:00:00 | |
| DL1ZP-14 | 2026-09-01 05:57:22 | 49.72704 | 8.40533 | 32° | 35km/h | 17190m | 5.1m/s | -52.6°C | 1.1% | 90.4hPa | 2.7V | 00:00:00 | 00:00:00 | 00:00:00 | |
| DM0DOS-11 | 2026-09-01 05:57:20 | 49.72656 | 8.40477 | 34° | 29km/h | 17154m | 3.6m/s | -52.2°C | 3.8% | 90.9hPa | 2.6V | 03:56:13 | 01:25:54 | 00:00:00 | |
| DL1XH1-15 | 2026-09-01 05:57:19 | 49.72662 | 8.40484 | 36° | 29km/h | 17157m | 4.6m/s | -52.2°C | 3.8% | 90.8hPa | 2.7V | 03:56:12 | 01:25:55 | 00:00:00 | |
| DL1NUX | 2026-09-01 05:57:18 | 49.72644 | 8.40463 | 41° | 29km/h | 17143m | 5.7m/s | -52.2°C | 3.8% | 91hPa | 2.6V | 03:56:15 | 01:25:52 | 00:00:00 | |
| BIOWL1-15 | 2026-09-01 05:57:18 | 49.72663 | 8.40484 | 36° | 29km/h | 17157m | 4.6m/s | -52.2°C | 0.1% | 90.8hPa | 2.7V | 03:56:16 | 01:25:55 | 00:00:00 | |
| DL1XH-west | 2026-09-01 05:57:18 | 49.72675 | 8.40499 | 42° | 35km/h | 17168m | 5.2m/s | -52.3°C | 0.1% | 90.7hPa | 2.7V | 03:56:16 | 01:25:57 | 00:00:00 | |
| SO1NDE-10 | 2026-09-01 05:57:18 | 49.72675 | 8.40499 | 42° | 27km/h | 17168m | 5.1m/s | -52.2°C | 3.8% | 90.7hPa | 2.7V | 00:00:00 | 01:25:57 | 00:00:00 | |
| HEMX73-11 | 2026-09-01 05:57:16 | 49.72668 | 8.40491 | 41° | 31km/h | 17163m | 5.2m/s | -52.2°C | 1.0% | 90.8hPa | 2.7V | 03:56:00 | 00:00:00 | 00:00:00 | |
| DO3MHA-11 | 2026-09-01 05:57:14 | 49.72650 | 8.40470 | 37° | 26km/h | 17149m | 5.6m/s | -52.3°C | 3.8% | 90.9hPa | 2.7V | 00:00:00 | 01:25:53 | 00:00:00 | |
| DJ2DS-15 | 2026-09-01 05:57:13 | 49.72644 | 8.40463 | 42° | 26km/h | 17143m | 5.7m/s | -52.2°C | 3.8% | 91.0hPa | 2.7V | 00:00:00 | 01:25:52 | 00:00:00 | |
| DM7RM-13 | 2026-09-01 05:57:12 | 49.72639 | 8.40455 | 47° | 29km/h | 17138m | 4.8m/s | -52.2°C | 1.1% | 91.1hPa | 2.7V | 03:56:00 | 00:00:00 | 00:00:00 | |
| DL3AQ-11 | 2026-09-01 05:57:11 | 49.72631 | 8.40440 | 51° | 22km/h | 17127m | 5.1m/s | -52.0°C | 1.0% | 91.3hPa | 2.7V | 00:00:00 | 00:00:00 | 00:00:00 | |
| DD1CC8 | 2026-09-01 05:57:10 | 49.72627 | 8.40434 | 43° | 20km/h | 17122m | 5.3m/s | 0°C | -1.0% | -1.0hPa | 2.7V | 00:00:00 | 00:00:00 | 00:00:00 | |
| DM0DOS-11 | 2026-09-01 05:57:09 | 49.72610 | 8.40412 | 46° | 26km/h | 17102m | 5.7m/s | -51.9°C | 3.8% | 91.6hPa | 2.7V | 03:56:23 | 01:25:44 | 00:00:00 | |
| DL1XH1-15 | 2026-09-01 05:57:09 | 49.72614 | 8.40419 | 39° | 24km/h | 17108m | 5.8m/s | -51.9°C | 3.8% | 91.6hPa | 2.7V | 03:56:22 | 01:25:45 | 00:00:00 | |
| DL1NUX | 2026-09-01 05:57:08 | 49.72600 | 8.40395 | 48° | 33km/h | 17091m | 6.2m/s | -51.8°C | 3.8% | 91.8hPa | 2.6V | 03:56:25 | 01:25:42 | 00:00:00 | |
| BIOWL1-15 | 2026-09-01 05:57:08 | 49.72614 | 8.40419 | 40° | 24km/h | 17108m | 5.8m/s | -51.9°C | 0.1% | 91.6hPa | 2.7V | 03:57:07 | 01:25:45 | 00:00:00 | |
| DL1XH-west | 2026-09-01 05:57:07 | 49.72619 | 8.40424 | 34° | 22km/h | 17112m | 3.8m/s | -51.9°C | 0.1% | 91.5hPa | 2.7V | 03:57:07 | 01:25:46 | 00:00:00 | |
| DJ2KF-10 | 2026-09-01 05:57:07 | 49.72619 | 8.40424 | 34° | 26km/h | 17113m | 3.8m/s | -51.9°C | 3.8% | 91.4hPa | 2.7V | 00:00:00 | 01:25:46 | 00:00:00 | |
| DL0LBS | 2026-09-01 05:57:05 | 49.72614 | 8.40419 | 41° | 24km/h | 17108m | 5.8m/s | -51.9°C | 1.1% | 91.6hPa | 2.7V | 03:57:00 | 00:00:00 | 00:00:00 | |
| DO3MHA-11 | 2026-09-01 05:57:04 | 49.72605 | 8.40404 | 50° | 29km/h | 17097m | 4.9m/s | -51.8°C | 3.8% | 91.6hPa | 2.7V | 00:00:00 | 01:25:43 | 00:00:00 | |
| DO3DL | 2026-09-01 05:57:03 | 49.72606 | 8.40404 | 50° | 29km/h | 17097m | 5.0m/s | -51.8°C | 0% | 91.7hPa | 2.7V | 00:00:00 | 00:00:00 | 00:00:00 | |
| DL3AQ-11 | 2026-09-01 05:57:00 | 49.72578 | 8.40356 | 58° | 31km/h | 17071m | 6.4m/s | -51.6°C | 1.0% | 92.1hPa | 2.7V | 00:00:00 | 00:00:00 | 00:00:00 | |
| DL1XH1-15 | 2026-09-01 05:56:59 | 49.72569 | 8.40329 | 57° | 20km/h | 17055m | 6.2m/s | -51.6°C | 3.6% | 92.3hPa | 2.7V | 03:56:32 | 01:25:35 | 00:00:00 | |
| DL4BBY-15 | 2026-09-01 05:56:59 | 49.72577 | 8.40356 | 59° | 26km/h | 17071m | 6.3m/s | -50.6°C | 0% | 0hPa | 2.6V | 00:00:00 | 00:00:00 | 00:00:00 | |
| DL1NUX | 2026-09-01 05:56:58 | 49.72557 | 8.40313 | 37° | 26km/h | 17038m | 6m/s | -51.5°C | 3.6% | 92.5hPa | 2.6V | 03:56:35 | 01:25:32 | 00:00:00 | |
| DL8DAS-14 | 2026-09-01 05:56:58 | 49.72571 | 8.40337 | 63° | 22km/h | 17060m | 5.0m/s | -51.6°C | 1.0% | 92.2hPa | 2.6V | 00:00:00 | 00:00:00 | 00:00:00 | |
| DJTTGO | 2026-09-01 05:56:57 | 49.72574 | 8.40346 | 66° | 27km/h | 17065m | 4.6m/s | -51.5°C | 1.0% | 92.2hPa | 2.6V | 03:57:00 | 00:00:00 | 00:00:00 | |
| DM0DOS-11 | 2026-09-01 05:56:56 | 49.72566 | 8.40324 | 43° | 18km/h | 17049m | 4.5m/s | -51.6°C | 3.6% | 92.4hPa | 2.6V | 03:56:33 | 01:25:34 | 00:00:00 | |
| BIOWL1-15 | 2026-09-01 05:56:56 | 49.72569 | 8.40329 | 57° | 20km/h | 17055m | 6.2m/s | -51.6°C | 0.1% | 92.3hPa | 2.7V | 03:57:07 | 01:25:35 | 00:00:00 | |
| SONCRA | 2026-09-01 05:56:53 | 49.72552 | 8.40307 | 40° | 27km/h | 17033m | 4.5m/s | -51.5°C | 1.0% | 92.6hPa | 2.7V | 00:00:00 | 00:00:00 | 00:00:00 | |
| DB0ND-19 | 2026-09-01 05:56:52 | 49.72552 | 8.40307 | 40° | 27km/h | 17033m | 4.5m/s | -51.5°C | 1.0% | 92.6hPa | 2.7V | 00:00:00 | 00:00:00 | 00:00:00 | |
| DL1ZP-14 | 2026-09-01 05:56:51 | 49.72547 | 8.40300 | 40° | 27km/h | 17028m | 4.9m/s | -51.4°C | 1.0% | 92.7hPa | 2.7V | 00:00:00 | 00:00:00 | 00:00:00 | |
| DM0DOS-11 | 2026-09-01 05:56:50 | 49.72518 | 8.40256 | 61° | 31km/h | 16998m | 5m/s | -51.4°C | 3.6% | 93.1hPa | 2.7V | 03:56:43 | 01:25:24 | 00:00:00 | |
| DL1XH1-15 | 2026-09-01 05:56:49 | 49.72522 | 8.40266 | 52° | 27km/h | 17003m | 5.5m/s | -51.4°C | 3.6% | 93hPa | 2.7V | 03:56:42 | 01:25:25 | 00:00:00 | |
| DB0NH | 2026-09-01 05:56:49 | 49.72536 | 8.40286 | 38° | 26km/h | 17018m | 5.0m/s | -51.3°C | 3.6% | 92.8hPa | 2.6V | 03:56:00 | 01:25:28 | 00:00:00 | |
| SO1NDE-10 | 2026-09-01 05:56:48 | 49.72531 | 8.40280 | 38° | 29km/h | 17013m | 5.2m/s | -51.3°C | 3.5% | 92.9hPa | 2.6V | 00:00:00 | 01:25:27 | 00:00:00 | |
| DL1NUX | 2026-09-01 05:56:47 | 49.72508 | 8.40224 | 62° | 29km/h | 16984m | 5.1m/s | -51.4°C | 3.6% | 93.3hPa | 2.6V | 03:56:46 | 01:25:21 | 00:00:00 | |
| DL1XH-west | 2026-09-01 05:56:45 | 49.72518 | 8.40256 | 62° | 31km/h | 16998m | 5m/s | -51.4°C | 0.1% | 93.1hPa | 2.7V | 03:57:07 | 01:25:24 | 00:00:00 | |
| DO3MHA-11 | 2026-09-01 05:56:44 | 49.72514 | 8.40245 | 67° | 24km/h | 16994m | 4.0m/s | -51.3°C | 3.6% | 93.2hPa | 2.6V | 03:56:00 | 01:25:23 | 00:00:00 | |
| KANTATE | 2026-09-01 05:56:43 | 49.72514 | 8.40245 | 68° | 31km/h | 16994m | 4.0m/s | -51.3°C | 1.0% | 93.2hPa | 2.6V | 03:57:00 | 00:00:00 | 00:00:00 | |
| DM3KS-11 | 2026-09-01 05:56:41 | 49.72505 | 8.40215 | 60° | 24km/h | 16979m | 3.5m/s | -51.4°C | 1.0% | 93.4hPa | 2.6V | 00:00:00 | 00:00:00 | 00:00:00 | |
| DL1XH1-15 | 2026-09-01 05:56:39 | 49.72491 | 8.40187 | 45° | 22km/h | 16952m | 6.9m/s | -51.3°C | 3.5% | 93.8hPa | 2.6V | 03:56:52 | 01:25:15 | 00:00:00 | |
| DH7VM-15 | 2026-09-01 05:56:37 | 49.72497 | 8.40197 | 54° | 15km/h | 16964m | 5.4m/s | -51.4°C | 1.0% | 93.6hPa | 2.7V | 00:00:00 | 00:00:00 | 00:00:00 | |
| DM0DOS-11 | 2026-09-01 05:56:36 | 49.72486 | 8.40180 | 45° | 29km/h | 16945m | 7.8m/s | -51.5°C | 3.6% | 93.9hPa | 2.7V | 03:56:53 | 01:25:14 | 00:00:00 | |
| DL1XH-west | 2026-09-01 05:56:35 | 49.72487 | 8.40180 | 46° | 29km/h | 16945m | 7.8m/s | -51.5°C | 0.1% | 93.9hPa | 2.7V | 03:57:07 | 01:25:14 | 00:00:00 | |
| BIOWL1-15 | 2026-09-01 05:56:34 | 49.72481 | 8.40170 | 50° | 35km/h | 16938m | 6.1m/s | -51.6°C | 0.1% | 94hPa | 2.7V | 03:57:07 | 01:25:13 | 00:00:00 | |
| BIOWL7-15 | 2026-09-01 05:56:34 | 49.72481 | 8.40170 | 51° | 35km/h | 16938m | 6.1m/s | -51.6°C | 1.0% | 94.0hPa | 2.6V | 00:00:00 | 00:00:00 | 00:00:00 | |
| DL8DAS-15 | 2026-09-01 05:56:33 | 49.72476 | 8.40159 | 58° | 35km/h | 16933m | 5.1m/s | -51.7°C | 1.1% | 94.1hPa | 2.6V | 00:00:00 | 00:00:00 | 00:00:00 | |
| DL1XH1-15 | 2026-09-01 05:56:30 | 49.72452 | 8.40098 | 56° | 22km/h | 16891m | 4.4m/s | -51.8°C | 3.6% | 94.7hPa | 2.6V | 03:57:02 | 01:25:05 | 00:00:00 | |
| DM0DOS-11 | 2026-09-01 05:56:30 | 49.72449 | 8.40091 | 57° | 20km/h | 16885m | 6.2m/s | -51.9°C | 3.6% | 94.7hPa | 2.6V | 03:57:03 | 01:25:04 | 00:00:00 | |
| DL1XH-west | 2026-09-01 05:56:25 | 49.72449 | 8.40091 | 58° | 20km/h | 16886m | 6.3m/s | -51.9°C | 0.1% | 94.7hPa | 2.6V | 03:57:07 | 01:25:04 | 00:00:00 | |
| DO3MHA-11 | 2026-09-01 05:56:24 | 49.72446 | 8.40084 | 69° | 33km/h | 16880m | 4.9m/s | -51.8°C | 3.6% | 94.8hPa | 2.7V | 00:00:00 | 01:25:03 | 00:00:00 | |
| DL1NUX | 2026-09-01 05:56:23 | 49.72442 | 8.40011 | 90° | 37km/h | 16846m | 5.2m/s | -52°C | 3.7% | 95.3hPa | 2.7V | 03:57:10 | 01:24:57 | 00:00:00 | |
| BIOWL1-15 | 2026-09-01 05:56:23 | 49.72445 | 8.40076 | 77° | 24km/h | 16875m | 4.5m/s | -51.9°C | 0.1% | 94.9hPa | 2.7V | 03:57:07 | 01:25:02 | 00:00:00 | |
| DK5PH-5 | 2026-09-01 05:56:23 | 49.72445 | 8.40076 | 77° | 38km/h | 16876m | 4.4m/s | -51.9°C | 3.6% | 94.8hPa | 2.6V | 00:00:00 | 01:25:02 | 00:00:00 | |
| SONCRA | 2026-09-01 05:56:22 | 49.72443 | 8.40054 | 84° | 33km/h | 16864m | 5.3m/s | -51.9°C | -1.0% | 95.1hPa | 2.6V | 00:00:00 | 00:00:00 | 00:00:00 | |
| DB0ND-19 | 2026-09-01 05:56:21 | 49.72443 | 8.40054 | 84° | 33km/h | 16864m | 5.3m/s | -51.9°C | 1.0% | 95.1hPa | 2.6V | 00:00:00 | 00:00:00 | 00:00:00 | |
| DL1ZP-14 | 2026-09-01 05:56:20 | 49.72442 | 8.40040 | 88° | 37km/h | 16859m | 5.5m/s | -52.0°C | 1.0% | 95.1hPa | 2.6V | 00:00:00 | 00:00:00 | 00:00:00 | |
| DL1XH1-15 | 2026-09-01 05:56:19 | 49.72441 | 8.39982 | 85° | 38km/h | 16835m | 6.2m/s | -52.1°C | 3.7% | 95.5hPa | 2.6V | 03:57:12 | 01:24:55 | 00:00:00 | |
| DB0NH | 2026-09-01 05:56:19 | 49.72442 | 8.40025 | 91° | 38km/h | 16853m | 6.9m/s | -52.0°C | 3.7% | 95.2hPa | 2.7V | 00:00:00 | 01:24:58 | 00:00:00 | |
| SO1NDE-10 | 2026-09-01 05:56:17 | 49.72442 | 8.39997 | 89° | 35km/h | 16841m | 5.4m/s | -52.0°C | 3.7% | 95.3hPa | 2.6V | 00:00:00 | 01:24:56 | 00:00:00 | |
| DM0DOS-11 | 2026-09-01 05:56:16 | 49.72440 | 8.39967 | 81° | 38km/h | 16830m | 4.7m/s | -52°C | 3.7% | 95.5hPa | 2.6V | 03:57:13 | 01:24:54 | 00:00:00 | |
| BIOWL1-15 | 2026-09-01 05:56:14 | 49.72435 | 8.39925 | 77° | 35km/h | 16815m | 4.6m/s | -52°C | 0.1% | 95.8hPa | 2.7V | 03:57:58 | 01:24:51 | 00:00:00 | |
| DL1XH-west | 2026-09-01 05:56:14 | 49.72439 | 8.39952 | 80° | 37km/h | 16825m | 5.5m/s | -52°C | 0.1% | 95.6hPa | 2.6V | 03:57:58 | 01:24:53 | 00:00:00 | |
| DL1NUX | 2026-09-01 05:56:13 | 49.72427 | 8.39874 | 81° | 33km/h | 16795m | 4.3m/s | -52.2°C | 3.8% | 96.1hPa | 2.7V | 03:57:20 | 01:24:47 | 00:00:00 | |
| DL1XH1-15 | 2026-09-01 05:56:11 | 49.72425 | 8.39848 | 83° | 35km/h | 16787m | 5.2m/s | -52.3°C | 3.9% | 96.2hPa | 2.7V | 03:57:22 | 01:24:45 | 00:00:00 | |
| DJTTGO | 2026-09-01 05:56:11 | 49.72433 | 8.39912 | 74° | 35km/h | 16810m | 5.9m/s | -52.1°C | 1.1% | 95.9hPa | 2.6V | 00:00:00 | 00:00:00 | 00:00:00 | |
| DM0DOS-11 | 2026-09-01 05:56:10 | 49.72424 | 8.39834 | 80° | 38km/h | 16782m | 4.8m/s | -52.2°C | 3.8% | 96.2hPa | 2.6V | 03:57:23 | 01:24:44 | 00:00:00 | |
| DL1XH-west | 2026-09-01 05:56:04 | 49.72422 | 8.39819 | 80° | 40km/h | 16777m | 4.3m/s | -52.3°C | 0.1% | 96.3hPa | 2.6V | 03:57:58 | 01:24:43 | 00:00:00 | |
| DO3MHA-11 | 2026-09-01 05:56:04 | 49.72422 | 8.39819 | 80° | 42km/h | 16778m | 4.2m/s | -52.2°C | 3.8% | 96.3hPa | 2.7V | 03:57:00 | 01:24:43 | 00:00:00 | |
| DL3AQ-11 | 2026-09-01 05:56:03 | 49.72420 | 8.39804 | 79° | 40km/h | 16773m | 5.2m/s | -52.3°C | 1.1% | 96.4hPa | 2.7V | 00:00:00 | 00:00:00 | 00:00:00 | |
| DF3TZ-5 | 2026-09-01 05:56:01 | 49.72404 | 8.39724 | 68° | 42km/h | 16748m | 5.1m/s | -52.3°C | 1.1% | 96.7hPa | 2.7V | 00:00:00 | 00:00:00 | 00:00:00 | |
| BIOWL1-15 | 2026-09-01 05:56:01 | 49.72415 | 8.39772 | 75° | 42km/h | 16763m | 4.7m/s | -52.3°C | 0.2% | 96.5hPa | 2.7V | 03:57:58 | 01:24:40 | 00:00:00 | |
| DM0DOS-11 | 2026-09-01 05:55:59 | 49.72393 | 8.39676 | 71° | 44km/h | 16734m | 5m/s | -52.3°C | 3.8% | 97hPa | 2.7V | 03:57:33 | 01:24:34 | 00:00:00 | |
| DL1XH-west | 2026-09-01 05:55:53 | 49.72387 | 8.39643 | 77° | 44km/h | 16726m | 5.1m/s | -52.1°C | 0.1% | 97.1hPa | 2.6V | 03:57:58 | 01:24:32 | 00:00:00 | |
| BIOWL1-15 | 2026-09-01 05:55:53 | 49.72383 | 8.39611 | 79° | 40km/h | 16716m | 4.9m/s | -52.1°C | 0.2% | 97.3hPa | 2.7V | 03:57:58 | 01:24:30 | 00:00:00 | |
| DJ2DS-15 | 2026-09-01 05:55:53 | 49.72387 | 8.39643 | 78° | 37km/h | 16726m | 5.1m/s | -52.1°C | 3.7% | 97.1hPa | 2.6V | 00:00:00 | 01:24:32 | 00:00:00 | |
| DL1NUX | 2026-09-01 05:55:52 | 49.72374 | 8.39552 | 76° | 37km/h | 16697m | 5m/s | -52°C | 3.8% | 97.6hPa | 2.6V | 03:57:41 | 01:24:26 | 00:00:00 | |
| DL3AQ-11 | 2026-09-01 05:55:51 | 49.72381 | 8.39595 | 75° | 38km/h | 16711m | 5.4m/s | -52.1°C | 1.1% | 97.3hPa | 2.7V | 00:00:00 | 00:00:00 | 00:00:00 | |
| DB0ND-19 | 2026-09-01 05:55:50 | 49.72381 | 8.39595 | 75° | 38km/h | 16711m | 5.4m/s | -52.1°C | 1.1% | 97.3hPa | 2.7V | 00:00:00 | 00:00:00 | 00:00:00 | |
| DL1XH1-15 | 2026-09-01 05:55:49 | 49.72371 | 8.39538 | 75° | 37km/h | 16692m | 5.1m/s | -52°C | 3.9% | 97.6hPa | 2.7V | 03:57:42 | 01:24:25 | 00:00:00 | |
| DL1XH-west | 2026-09-01 05:55:43 | 49.72364 | 8.39495 | 78° | 38km/h | 16678m | 5.1m/s | -51.9°C | 0.2% | 97.8hPa | 2.6V | 03:57:58 | 01:24:22 | 00:00:00 | |
| BIOWL1-15 | 2026-09-01 05:55:40 | 49.72359 | 8.39453 | 79° | 37km/h | 16664m | 5.5m/s | -51.8°C | 0.1% | 98hPa | 2.7V | 03:57:58 | 01:24:19 | 00:00:00 | |
| DL3AQ-11 | 2026-09-01 05:55:40 | 49.72357 | 8.39439 | 76° | 37km/h | 16659m | 4.6m/s | -51.8°C | -1.0% | 98.1hPa | 2.6V | 00:00:00 | 00:00:00 | 00:00:00 | |
| DL1XH1-15 | 2026-09-01 05:55:39 | 49.72351 | 8.39400 | 77° | 33km/h | 16645m | 4m/s | -51.7°C | 3.6% | 98.3hPa | 2.6V | 03:57:52 | 01:24:15 | 00:00:00 | |
| DL1XH-west | 2026-09-01 05:55:32 | 49.72343 | 8.39345 | 81° | 38km/h | 16627m | 4.7m/s | -51.7°C | 0.1% | 98.6hPa | 2.6V | 03:57:58 | 01:24:11 | 00:00:00 | |
| BIOWL1-15 | 2026-09-01 05:55:31 | 49.72341 | 8.39303 | 86° | 35km/h | 16613m | 5.4m/s | -51.7°C | 0.1% | 98.8hPa | 2.7V | 03:58:49 | 01:24:08 | 00:00:00 | |
| DF3TZ-5 | 2026-09-01 05:55:30 | 49.72342 | 8.39317 | 87° | 35km/h | 16618m | 4.0m/s | -51.7°C | 1.0% | 98.8hPa | 2.6V | 00:00:00 | 00:00:00 | 00:00:00 | |
| DL4BBY-15 | 2026-09-01 05:55:29 | 49.72341 | 8.39303 | 86° | 38km/h | 16613m | 5.3m/s | -50.7°C | 0% | 0hPa | 2.6V | 00:00:00 | 00:00:00 | 00:00:00 | |
| DM7RM-13 | 2026-09-01 05:55:27 | 49.72340 | 8.39289 | 85° | 37km/h | 16608m | 4.9m/s | -51.7°C | 1.1% | 98.9hPa | 2.6V | 03:58:00 | 00:00:00 | 00:00:00 | |
| DM0DOS-11 | 2026-09-01 05:55:25 | 49.72339 | 8.39246 | 89° | 37km/h | 16593m | 4m/s | -51.8°C | 3.7% | 99.1hPa | 2.6V | 03:58:03 | 01:24:04 | 00:00:00 | |
| DL8DAS-14 | 2026-09-01 05:55:25 | 49.72339 | 8.39231 | 87° | 38km/h | 16589m | 5.2m/s | -51.8°C | 1.1% | 99.2hPa | 2.7V | 00:00:00 | 00:00:00 | 00:00:00 | |
| DL3AQ-11 | 2026-09-01 05:55:24 | 49.72338 | 8.39216 | 87° | 40km/h | 16584m | 4.6m/s | -51.8°C | -1.0% | 99.2hPa | 2.7V | 00:00:00 | 00:00:00 | 00:00:00 | |
| DL1NUX | 2026-09-01 05:55:23 | 49.72339 | 8.39134 | 92° | 40km/h | 16561m | 5.2m/s | -52°C | 3.8% | 99.6hPa | 2.7V | 03:58:10 | 01:23:57 | 00:00:00 | |
| DL1XH-west | 2026-09-01 05:55:21 | 49.72337 | 8.39183 | 90° | 44km/h | 16575m | 4.9m/s | -51.9°C | 0.2% | 99.4hPa | 2.6V | 03:58:49 | 01:24:00 | 00:00:00 | |
| BIOWL1-15 | 2026-09-01 05:55:21 | 49.72338 | 8.39150 | 94° | 42km/h | 16566m | 4.2m/s | -52°C | 0.2% | 99.5hPa | 2.6V | 03:58:49 | 01:23:58 | 00:00:00 | |
| DB0UT-7 | 2026-09-01 05:55:20 | 49.72338 | 8.39166 | 94° | 40km/h | 16571m | 4.3m/s | -51.9°C | 3.7% | 99.4hPa | 2.6V | 00:00:00 | 01:23:59 | 00:00:00 | |
| DM0DOS-11 | 2026-09-01 05:55:19 | 49.72340 | 8.39091 | 93° | 33km/h | 16548m | 4.7m/s | -52°C | 3.7% | 99.8hPa | 2.6V | 03:58:13 | 01:23:54 | 00:00:00 | |
| DL1ZP-14 | 2026-09-01 05:55:18 | 49.72339 | 8.39134 | 92° | 38km/h | 16561m | 5.2m/s | -52.0°C | 1.1% | 99.6hPa | 2.7V | 00:00:00 | 00:00:00 | 00:00:00 | |
| DB0NH | 2026-09-01 05:55:15 | 49.72340 | 8.39091 | 94° | 33km/h | 16548m | 4.7m/s | -51.9°C | 3.7% | 99.7hPa | 2.7V | 00:00:00 | 01:23:54 | 00:00:00 | |
| DO3MHA-11 | 2026-09-01 05:55:14 | 49.72340 | 8.39078 | 94° | 37km/h | 16543m | 4.2m/s | -51.9°C | 3.6% | 99.8hPa | 2.7V | 00:00:00 | 01:23:53 | 00:00:00 | |
| HEMX73-11 | 2026-09-01 05:55:13 | 49.72340 | 8.39066 | 91° | 33km/h | 16538m | 5.6m/s | -51.9°C | 1.1% | 99.9hPa | 2.7V | 03:58:00 | 00:00:00 | 00:00:00 | |
| DL1NUX | 2026-09-01 05:55:12 | 49.72339 | 8.38980 | 88° | 40km/h | 16509m | 4.4m/s | -51.7°C | 3.7% | 100.4hPa | 2.7V | 03:58:21 | 01:23:46 | 00:00:00 | |
| DL1XH-west | 2026-09-01 05:55:10 | 49.72340 | 8.39025 | 90° | 38km/h | 16524m | 4.7m/s | -51.8°C | 0.1% | 100.2hPa | 2.6V | 03:58:49 | 01:23:49 | 00:00:00 | |
| DL1XH1-15 | 2026-09-01 05:55:09 | 49.72339 | 8.38964 | 91° | 40km/h | 16504m | 5.9m/s | -51.8°C | 3.7% | 100.5hPa | 2.7V | 03:58:22 | 01:23:45 | 00:00:00 | |
| BIOWL1-15 | 2026-09-01 05:55:08 | 49.72339 | 8.38995 | 88° | 38km/h | 16515m | 6.3m/s | -51.7°C | 0.2% | 100.3hPa | 2.6V | 03:58:49 | 01:23:47 | 00:00:00 | |
| DL1XH-west | 2026-09-01 05:55:00 | 49.72345 | 8.38867 | 98° | 40km/h | 16477m | 5.6m/s | -52.2°C | 0.1% | 100.9hPa | 2.7V | 03:58:49 | 01:23:39 | 00:00:00 | |
| DM0DOS-11 | 2026-09-01 05:54:59 | 49.72350 | 8.38793 | 94° | 40km/h | 16453m | 4.9m/s | -52.4°C | 3.7% | 101.2hPa | 2.7V | 03:58:33 | 01:23:34 | 00:00:00 | |
| DL1XH1-15 | 2026-09-01 05:54:59 | 49.72349 | 8.38808 | 92° | 38km/h | 16458m | 3.9m/s | -52.4°C | 3.8% | 101.2hPa | 2.7V | 03:58:32 | 01:23:35 | 00:00:00 | |
| BIOWL1-15 | 2026-09-01 05:54:57 | 49.72349 | 8.38823 | 94° | 37km/h | 16462m | 4.1m/s | -52.3°C | 0.2% | 101.1hPa | 2.6V | 03:58:49 | 01:23:36 | 00:00:00 | |
| DO3MHA-11 | 2026-09-01 05:54:54 | 49.72351 | 8.38777 | 96° | 51km/h | 16449m | 4.5m/s | -52.4°C | 3.8% | 101.3hPa | 2.6V | 00:00:00 | 01:23:33 | 00:00:00 | |
| DJ2DS-15 | 2026-09-01 05:54:53 | 49.72352 | 8.38760 | 96° | 55km/h | 16445m | 4.3m/s | -52.4°C | 3.8% | 101.3hPa | 2.7V | 00:00:00 | 01:23:32 | 00:00:00 | |
| HEMX73-11 | 2026-09-01 05:54:52 | 49.72352 | 8.38760 | 96° | 44km/h | 16445m | 4.3m/s | -52.5°C | 1.1% | 101.4hPa | 2.7V | 03:58:00 | 00:00:00 | 00:00:00 | |
| DL1XH1-15 | 2026-09-01 05:54:50 | 49.72361 | 8.38620 | 96° | 55km/h | 16411m | 4m/s | -52.5°C | 3.8% | 101.9hPa | 2.7V | 03:58:42 | 01:23:25 | 00:00:00 | |
| BIOWL1-15 | 2026-09-01 05:54:49 | 49.72359 | 8.38641 | 96° | 55km/h | 16415m | 5.3m/s | -52.5°C | 0.2% | 101.9hPa | 2.7V | 03:58:49 | 01:23:26 | 00:00:00 | |
| DL1XH-west | 2026-09-01 05:54:49 | 49.72356 | 8.38684 | 98° | 55km/h | 16425m | 5.2m/s | -52.5°C | 0.3% | 101.7hPa | 2.6V | 03:58:49 | 01:23:28 | 00:00:00 | |
| BIOWL9-15 | 2026-09-01 05:54:49 | 49.72358 | 8.38663 | 97° | 55km/h | 16420m | 4.6m/s | -52.5°C | 1.1% | 101.8hPa | 2.7V | 00:00:00 | 00:00:00 | 00:00:00 | |
| DB0ND-19 | 2026-09-01 05:54:48 | 49.72358 | 8.38663 | 97° | 55km/h | 16420m | 4.6m/s | -52.5°C | 1.1% | 101.8hPa | 2.7V | 00:00:00 | 00:00:00 | 00:00:00 | |
| DL1ZP-14 | 2026-09-01 05:54:47 | 49.72359 | 8.38641 | 96° | 55km/h | 16415m | 5.3m/s | -52.5°C | 1.1% | 101.9hPa | 2.7V | 00:00:00 | 00:00:00 | 00:00:00 | |
| DM0DOS-11 | 2026-09-01 05:54:45 | 49.72363 | 8.38599 | 97° | 55km/h | 16406m | 5.2m/s | -52.5°C | 3.8% | 102hPa | 2.7V | 03:58:43 | 01:23:24 | 00:00:00 | |
| BIOWL1-15 | 2026-09-01 05:54:41 | 49.72373 | 8.38431 | 98° | 60km/h | 16371m | 3.9m/s | -52.8°C | 0.3% | 102.6hPa | 2.6V | 03:59:40 | 01:23:16 | 00:00:00 | |
| DL1XH1-15 | 2026-09-01 05:54:40 | 49.72375 | 8.38408 | 96° | 62km/h | 16367m | 4.9m/s | -52.8°C | 3.9% | 102.6hPa | 2.6V | 03:58:52 | 01:23:15 | 00:00:00 | |
| SO1NDE-10 | 2026-09-01 05:54:40 | 49.72369 | 8.38496 | 94° | 57km/h | 16384m | 4.0m/s | -52.7°C | 3.9% | 102.3hPa | 2.7V | 00:00:00 | 01:23:19 | 00:00:00 | |
| DL1NUX | 2026-09-01 05:54:39 | 49.72379 | 8.38360 | 96° | 60km/h | 16358m | 4.5m/s | -52.8°C | 3.9% | 102.8hPa | 2.7V | 03:58:54 | 01:23:13 | 00:00:00 | |
| DL1XH-west | 2026-09-01 05:54:38 | 49.72371 | 8.38454 | 98° | 57km/h | 16375m | 4m/s | -52.7°C | 0.3% | 102.5hPa | 2.7V | 03:59:40 | 01:23:17 | 00:00:00 | |
| DM3KS-11 | 2026-09-01 05:54:37 | 49.72373 | 8.38431 | 98° | 58km/h | 16371m | 3.9m/s | -52.8°C | 1.2% | 102.6hPa | 2.6V | 00:00:00 | 00:00:00 | 00:00:00 | |
| DM0DOS-11 | 2026-09-01 05:54:35 | 49.72377 | 8.38384 | 95° | 62km/h | 16362m | 4.3m/s | -52.8°C | 3.9% | 102.7hPa | 2.6V | 03:58:53 | 01:23:14 | 00:00:00 | |
| DO3MHA-11 | 2026-09-01 05:54:34 | 49.72379 | 8.38360 | 97° | 55km/h | 16358m | 4.5m/s | -52.8°C | 3.9% | 102.7hPa | 2.7V | 00:00:00 | 01:23:13 | 00:00:00 | |
| DJ2DS-15 | 2026-09-01 05:54:33 | 49.72380 | 8.38337 | 97° | 57km/h | 16353m | 4.5m/s | -52.8°C | 3.9% | 102.8hPa | 2.7V | 00:00:00 | 01:23:12 | 00:00:00 | |
| DL9PN | 2026-09-01 05:54:32 | 49.72382 | 8.38314 | 94° | 57km/h | 16349m | 3.9m/s | -52.8°C | 1.2% | 102.9hPa | 2.6V | 00:00:00 | 00:00:00 | 00:00:00 | |
| DL3AQ-11 | 2026-09-01 05:54:31 | 49.72383 | 8.38250 | 90° | 51km/h | 16335m | 5.2m/s | -52.9°C | -1.0% | 103.2hPa | 2.6V | 00:00:00 | 00:00:00 | 00:00:00 | |
| DL1XH1-15 | 2026-09-01 05:54:30 | 49.72382 | 8.38191 | 86° | 51km/h | 16320m | 4.3m/s | -52.9°C | 3.9% | 0hPa | 2.6V | 03:59:02 | 01:23:05 | 00:00:00 | |
| BIOWL1-15 | 2026-09-01 05:54:29 | 49.72383 | 8.38211 | 88° | 49km/h | 16325m | 5.1m/s | -52.9°C | 0.4% | 103.3hPa | 2.6V | 03:59:40 | 01:23:06 | 00:00:00 | |
| DL1XH-west | 2026-09-01 05:54:28 | 49.72383 | 8.38230 | 90° | 49km/h | 16330m | 4.2m/s | -52.9°C | 0.3% | 103.2hPa | 2.6V | 03:59:40 | 01:23:07 | 00:00:00 | |
| BIOWL7-15 | 2026-09-01 05:54:27 | 49.72383 | 8.38230 | 91° | 49km/h | 16330m | 4.2m/s | -52.9°C | 1.2% | 103.2hPa | 2.7V | 03:59:00 | 00:00:00 | 00:00:00 | |
| DL8DAS-15 | 2026-09-01 05:54:26 | 49.72383 | 8.38211 | 89° | 49km/h | 16325m | 5.1m/s | -52.9°C | 1.2% | 103.3hPa | 2.7V | 03:59:00 | 00:00:00 | 00:00:00 | |
| DM0DOS-11 | 2026-09-01 05:54:25 | 49.72382 | 8.38171 | 86° | 53km/h | 16316m | 4.1m/s | -52.9°C | 4% | 103.4hPa | 2.7V | 03:59:03 | 01:23:04 | 00:00:00 | |
| DO3MHA-11 | 2026-09-01 05:54:24 | 49.72381 | 8.38150 | 89° | 60km/h | 16312m | 4.7m/s | -52.8°C | 3.9% | 103.5hPa | 2.7V | 00:00:00 | 01:23:03 | 00:00:00 | |
| DK5PH-5 | 2026-09-01 05:54:23 | 49.72381 | 8.38129 | 90° | 57km/h | 16307m | 3.6m/s | -52.8°C | 3.9% | 103.5hPa | 2.6V | 00:00:00 | 01:23:02 | 00:00:00 | |
| DB0UT-9 | 2026-09-01 05:54:22 | 49.72381 | 8.38129 | 90° | 57km/h | 16307m | 3.6m/s | -52.9°C | 1.2% | 103.6hPa | 2.6V | 03:59:00 | 00:00:00 | 00:00:00 | |
| DM0DOS-11 | 2026-09-01 05:54:20 | 49.72376 | 8.37941 | 86° | 60km/h | 16271m | 3.8m/s | -52.9°C | 3.9% | 104.2hPa | 2.6V | 03:59:13 | 01:22:54 | 00:00:00 | |
| DL1XH1-15 | 2026-09-01 05:54:20 | 49.72377 | 8.37964 | 85° | 60km/h | 16274m | 3.8m/s | -52.8°C | 3.9% | 0hPa | 2.6V | 03:59:12 | 01:22:55 | 00:00:00 | |
| DL1XH-west | 2026-09-01 05:54:17 | 49.72378 | 8.37988 | 87° | 62km/h | 16279m | 5.4m/s | -52.8°C | 0.3% | 104hPa | 2.6V | 03:59:40 | 01:22:56 | 00:00:00 | |
| BIOWL1-15 | 2026-09-01 05:54:16 | 49.72377 | 8.37964 | 86° | 60km/h | 16274m | 3.8m/s | -52.8°C | 0.3% | 104.1hPa | 2.6V | 03:59:40 | 01:22:55 | 00:00:00 | |
| DL8DAS-15 | 2026-09-01 05:54:15 | 49.72377 | 8.37964 | 87° | 60km/h | 16275m | 3.8m/s | -52.8°C | 1.2% | 104.1hPa | 2.6V | 03:59:00 | 00:00:00 | 00:00:00 | |
| DO3MHA-11 | 2026-09-01 05:54:14 | 49.72375 | 8.37918 | 87° | 53km/h | 16266m | 5.2m/s | -52.9°C | 3.9% | 104.2hPa | 2.6V | 00:00:00 | 01:22:53 | 00:00:00 | |
| DJ2DS-15 | 2026-09-01 05:54:13 | 49.72374 | 8.37897 | 88° | 55km/h | 16262m | 3.8m/s | -53.0°C | 4.0% | 104.3hPa | 2.6V | 03:59:00 | 01:22:52 | 00:00:00 | |
| DJ2KF-10 | 2026-09-01 05:54:12 | 49.72373 | 8.37876 | 87° | 57km/h | 16258m | 4.0m/s | -53.0°C | 4.0% | 104.3hPa | 2.6V | 03:59:00 | 01:22:51 | 00:00:00 | |
| HEMX73-11 | 2026-09-01 05:54:11 | 49.72373 | 8.37876 | 87° | 53km/h | 16258m | 4.0m/s | -53.1°C | 1.2% | 104.4hPa | 2.6V | 03:59:00 | 00:00:00 | 00:00:00 | |
| DL1XH1-15 | 2026-09-01 05:54:10 | 49.72364 | 8.37754 | 82° | 55km/h | 16229m | 5.4m/s | -53.1°C | 0% | 0hPa | 2.6V | 03:59:22 | 01:22:45 | 00:00:00 | |
| BIOWL1-15 | 2026-09-01 05:54:07 | 49.72362 | 8.37732 | 82° | 57km/h | 16224m | 4.3m/s | -53.2°C | 0.5% | 104.9hPa | 2.6V | 03:59:40 | 01:22:44 | 00:00:00 | |
| DL1XH-west | 2026-09-01 05:54:06 | 49.72364 | 8.37754 | 83° | 55km/h | 16229m | 5.4m/s | -53.2°C | 0.4% | 104.8hPa | 2.6V | 03:59:40 | 01:22:45 | 00:00:00 | |
| DM0DOS-11 | 2026-09-01 05:54:05 | 49.72362 | 8.37732 | 81° | 57km/h | 16224m | 4.3m/s | -53.2°C | 4.1% | 104.9hPa | 2.6V | 03:59:23 | 01:22:44 | 00:00:00 | |
| DO3MHA-11 | 2026-09-01 05:54:04 | 49.72360 | 8.37710 | 82° | 55km/h | 16221m | 3.9m/s | -53.2°C | 4.0% | 104.9hPa | 2.7V | 03:59:00 | 01:22:43 | 00:00:00 | |
| DN1GJH-1 | 2026-09-01 05:54:03 | 49.72359 | 8.37710 | 83° | 57km/h | 16221m | 3.9m/s | 0°C | 0% | 0hPa | 2.7V | 03:59:00 | 00:00:00 | 00:00:00 | |
| DO1YAY-16 | 2026-09-01 05:54:02 | 49.72353 | 8.37647 | 80° | 53km/h | 16207m | 4.7m/s | -53.2°C | 1.2% | 105.2hPa | 2.7V | 00:00:00 | 00:00:00 | 00:00:00 | |
| DL9PN | 2026-09-01 05:54:01 | 49.72353 | 8.37647 | 80° | 53km/h | 16207m | 4.7m/s | -53.2°C | 1.2% | 105.2hPa | 2.7V | 00:00:00 | 00:00:00 | 00:00:00 | |
| DL1XH1-15 | 2026-09-01 05:54:00 | 49.72342 | 8.37541 | 82° | 55km/h | 16184m | 3.5m/s | -53.3°C | 0% | 0hPa | 2.7V | 03:59:32 | 01:22:35 | 00:00:00 | |
| DL1XH-west | 2026-09-01 05:53:56 | 49.72342 | 8.37541 | 83° | 55km/h | 16184m | 3.5m/s | -53.3°C | 0.4% | 105.6hPa | 2.7V | 03:59:40 | 01:22:35 | 00:00:00 | |
| DM0DOS-11 | 2026-09-01 05:53:55 | 49.72341 | 8.37520 | 83° | 57km/h | 16180m | 5.2m/s | -53.3°C | 4% | 105.7hPa | 2.6V | 03:59:33 | 01:22:34 | 00:00:00 | |
| BIOWL1-15 | 2026-09-01 05:53:54 | 49.72339 | 8.37497 | 86° | 58km/h | 16175m | 4.2m/s | -53.3°C | 0.4% | 105.7hPa | 2.6V | 03:59:40 | 01:22:33 | 00:00:00 | |
| DL3AQ-11 | 2026-09-01 05:53:51 | 49.72338 | 8.37408 | 89° | 55km/h | 16158m | 4.5m/s | 0°C | -1.0% | 106.0hPa | 2.7V | 00:00:00 | 00:00:00 | 00:00:00 | |
| DL1XH1-15 | 2026-09-01 05:53:50 | 49.72334 | 8.37317 | 81° | 60km/h | 16139m | 4.5m/s | 0°C | 0% | 0hPa | 2.7V | 00:00:00 | 01:22:25 | 00:00:00 | |
| DM0DOS-11 | 2026-09-01 05:53:50 | 49.72331 | 8.37293 | 78° | 62km/h | 16134m | 4m/s | -53.5°C | 4.2% | 106.4hPa | 2.7V | 03:59:43 | 01:22:24 | 00:00:00 | |
| DL1XH-west | 2026-09-01 05:53:46 | 49.72334 | 8.37317 | 82° | 60km/h | 16139m | 4.5m/s | 0°C | 0% | 106.3hPa | 2.7V | 18:12:15 | 01:22:25 | 00:00:00 | |
| BIOWL1-15 | 2026-09-01 05:53:45 | 49.72324 | 8.37244 | 77° | 68km/h | 16125m | 4.8m/s | -53.7°C | 0.6% | 106.6hPa | 2.6V | 04:00:31 | 01:22:22 | 00:00:00 | |
| DO3MHA-11 | 2026-09-01 05:53:44 | 49.72328 | 8.37269 | 78° | 66km/h | 16130m | 5.5m/s | -53.6°C | 4.2% | 106.4hPa | 2.6V | 00:00:00 | 01:22:23 | 00:00:00 | |
| DM7RM-13 | 2026-09-01 05:53:43 | 49.72328 | 8.37269 | 78° | 64km/h | 16130m | 5.6m/s | -53.7°C | 1.4% | 106.5hPa | 2.6V | 04:00:00 | 00:00:00 | 00:00:00 | |
| DJ2KF-10 | 2026-09-01 05:53:42 | 49.72320 | 8.37218 | 78° | 68km/h | 16120m | 3.8m/s | -53.6°C | 4.2% | 106.6hPa | 2.6V | 00:00:00 | 01:22:21 | 00:00:00 | |
| BIOWL7-15 | 2026-09-01 05:53:41 | 49.72320 | 8.37218 | 79° | 69km/h | 16120m | 3.8m/s | -53.6°C | 1.3% | 106.6hPa | 2.6V | 00:00:00 | 00:00:00 | 00:00:00 | |
| DL1XH1-15 | 2026-09-01 05:53:40 | 49.72303 | 8.37065 | 83° | 64km/h | 16092m | 5.3m/s | 0°C | 0% | 0hPa | 2.6V | 00:00:00 | 01:22:15 | 00:00:00 | |
| DL1NUX | 2026-09-01 05:53:40 | 49.72301 | 8.37040 | 83° | 64km/h | 16087m | 4.7m/s | -53.9°C | 4.2% | 107.2hPa | 2.7V | 03:59:53 | 01:22:14 | 00:00:00 | |
| DL1XH-west | 2026-09-01 05:53:36 | 49.72303 | 8.37065 | 84° | 64km/h | 16092m | 5.3m/s | 0°C | 0% | 107.1hPa | 2.6V | 18:12:15 | 01:22:15 | 00:00:00 | |
| BIOWL1-15 | 2026-09-01 05:53:33 | 49.72297 | 8.36990 | 82° | 68km/h | 16078m | 5.3m/s | -53.9°C | 0.6% | 107.3hPa | 2.6V | 04:00:31 | 01:22:12 | 00:00:00 | |
| DJ2DS-15 | 2026-09-01 05:53:32 | 49.72294 | 8.36964 | 81° | 68km/h | 16073m | 4.3m/s | -53.8°C | 4.2% | 107.4hPa | 2.6V | 00:00:00 | 01:22:11 | 00:00:00 | |
| DF1GD-15 | 2026-09-01 05:53:31 | 49.72294 | 8.36964 | 81° | 68km/h | 16073m | 4.4m/s | -53.9°C | 1.3% | 107.4hPa | 2.7V | 04:00:00 | 00:00:00 | 00:00:00 | |
| DL9PN | 2026-09-01 05:53:30 | 49.72288 | 8.36913 | 78° | 64km/h | 16063m | 4.6m/s | -53.8°C | 1.3% | 107.6hPa | 2.7V | 00:00:00 | 00:00:00 | 00:00:00 | |
| DM0DOS-11 | 2026-09-01 05:53:25 | 49.72267 | 8.36786 | 74° | 68km/h | 16038m | 5.4m/s | -53.7°C | 4.2% | 108hPa | 2.7V | 04:00:03 | 01:22:04 | 00:00:00 | |
| DL1XH-west | 2026-09-01 05:53:25 | 49.72267 | 8.36786 | 75° | 68km/h | 16039m | 5.4m/s | 0°C | 0% | 0hPa | 2.7V | 18:12:15 | 01:22:04 | 00:00:00 | |
| BIOWL1-15 | 2026-09-01 05:53:23 | 49.72259 | 8.36736 | 77° | 66km/h | 16029m | 4.8m/s | -53.7°C | 0.5% | 108.2hPa | 2.6V | 04:00:31 | 01:22:02 | 00:00:00 | |
| DJ2DS-15 | 2026-09-01 05:53:22 | 49.72255 | 8.36711 | 76° | 68km/h | 16024m | 5.3m/s | -53.7°C | 1.3% | 108.2hPa | 2.7V | 00:00:00 | 00:00:00 | 00:00:00 | |
| DB0UT-9 | 2026-09-01 05:53:21 | 49.72255 | 8.36711 | 77° | 68km/h | 16024m | 5.3m/s | -53.7°C | 1.4% | 108.2hPa | 2.7V | 00:00:00 | 00:00:00 | 00:00:00 | |
| DH7VM-15 | 2026-09-01 05:53:20 | 49.72251 | 8.36685 | 77° | 68km/h | 16019m | 4.4m/s | -53.7°C | 1.3% | 108.3hPa | 2.7V | 00:00:00 | 00:00:00 | 00:00:00 | |
| DL0LBS | 2026-09-01 05:53:18 | 49.72242 | 8.36635 | 75° | 66km/h | 16009m | 4.5m/s | -53.8°C | 1.4% | 108.5hPa | 2.7V | 04:00:00 | 00:00:00 | 00:00:00 | |
| DB0UT-7 | 2026-09-01 05:53:17 | 49.72232 | 8.36585 | 71° | 62km/h | 15999m | 5.2m/s | -53.8°C | 4.3% | 108.7hPa | 2.7V | 00:00:00 | 01:21:56 | 00:00:00 | |
| DM0DOS-11 | 2026-09-01 05:53:15 | 49.72220 | 8.36535 | 69° | 68km/h | 15989m | 5.8m/s | -53.7°C | 4.2% | 108.9hPa | 2.7V | 04:00:13 | 01:21:54 | 00:00:00 | |
| DL1XH-west | 2026-09-01 05:53:15 | 49.72220 | 8.36535 | 69° | 68km/h | 15989m | 5.8m/s | 0°C | 0% | 0hPa | 2.7V | 18:12:15 | 01:21:54 | 00:00:00 | |
| BIOWL1-15 | 2026-09-01 05:53:12 | 49.72201 | 8.36460 | 70° | 69km/h | 15973m | 4.5m/s | -53.6°C | 0.5% | 109.1hPa | 2.6V | 04:00:31 | 01:21:51 | 00:00:00 | |
| DJ2KF-10 | 2026-09-01 05:53:12 | 49.72201 | 8.36460 | 71° | 60km/h | 15974m | 4.4m/s | -53.6°C | 4.2% | 109.1hPa | 2.6V | 00:00:00 | 01:21:51 | 00:00:00 | |
| DL1NUX | 2026-09-01 05:53:10 | 49.72166 | 8.36293 | 73° | 62km/h | 15938m | 4.4m/s | -53.5°C | 4.1% | 109.7hPa | 2.6V | 04:00:23 | 01:21:44 | 00:00:00 | |
| DL1XH-west | 2026-09-01 05:53:05 | 49.72167 | 8.36293 | 73° | 62km/h | 15938m | 4.4m/s | 0°C | 0% | 0hPa | 2.6V | 18:12:15 | 01:21:44 | 00:00:00 | |
| BIOWL1-15 | 2026-09-01 05:53:01 | 49.72146 | 8.36197 | 71° | 64km/h | 15918m | 5.6m/s | -53.5°C | 0.6% | 110hPa | 2.6V | 04:00:31 | 01:21:40 | 00:00:00 | |
| DL1XH-west | 2026-09-01 05:52:55 | 49.72113 | 8.36068 | 68° | 57km/h | 15889m | 4.8m/s | 0°C | 0% | 0hPa | 2.6V | 18:12:15 | 01:21:34 | 00:00:00 | |
| BIOWL1-15 | 2026-09-01 05:52:52 | 49.72092 | 8.35960 | 80° | 57km/h | 15864m | 5.4m/s | -53.2°C | 0.4% | 111hPa | 2.6V | 04:01:22 | 01:21:29 | 00:00:00 | |
| DJ2DS-15 | 2026-09-01 05:52:46 | 49.72080 | 8.35848 | 79° | 57km/h | 15839m | 5.5m/s | -53.1°C | 1.3% | 111.4hPa | 2.6V | 00:00:00 | 00:00:00 | 00:00:00 | |
| DM0DOS-11 | 2026-09-01 05:52:45 | 49.72080 | 8.35848 | 79° | 57km/h | 15839m | 5.5m/s | -53.1°C | 4.1% | 111.4hPa | 2.6V | 04:00:43 | 01:21:24 | 00:00:00 | |
| DL1XH-west | 2026-09-01 05:52:45 | 49.72080 | 8.35848 | 79° | 57km/h | 15839m | 5.5m/s | 0°C | 0% | 0hPa | 2.6V | 18:12:15 | 01:21:24 | 00:00:00 | |
| BIOWL9-15 | 2026-09-01 05:52:45 | 49.72077 | 8.35827 | 77° | 55km/h | 15834m | 4.9m/s | -53.1°C | 1.3% | 111.5hPa | 2.6V | 00:00:00 | 00:00:00 | 00:00:00 | |
| DB0ND-19 | 2026-09-01 05:52:44 | 49.72077 | 8.35827 | 77° | 55km/h | 15834m | 4.9m/s | -53.1°C | 1.3% | 111.5hPa | 2.6V | 00:00:00 | 00:00:00 | 00:00:00 | |
| BIOWL1-15 | 2026-09-01 05:52:39 | 49.72062 | 8.35726 | 79° | 49km/h | 15810m | 4.2m/s | -53°C | 0.6% | 111.9hPa | 2.6V | 04:01:22 | 01:21:18 | 00:00:00 | |
| DN1GJH-1 | 2026-09-01 05:52:37 | 49.72060 | 8.35706 | 81° | 51km/h | 15805m | 5.3m/s | 0°C | 0% | 0hPa | 2.7V | 04:01:00 | 00:00:00 | 00:00:00 | |
| DL0LBS | 2026-09-01 05:52:36 | 49.72057 | 8.35686 | 81° | 53km/h | 15800m | 5.5m/s | -53.1°C | 1.4% | 112.1hPa | 2.7V | 04:01:00 | 00:00:00 | 00:00:00 | |
| DM0DOS-11 | 2026-09-01 05:52:35 | 49.72053 | 8.35646 | 81° | 51km/h | 15790m | 5.8m/s | -53.1°C | 4.1% | 112.2hPa | 2.7V | 04:00:53 | 01:21:14 | 00:00:00 | |
| DO3MHA-11 | 2026-09-01 05:52:34 | 49.72051 | 8.35627 | 83° | 51km/h | 15785m | 4.6m/s | -53.0°C | 4.1% | 112.3hPa | 2.6V | 00:00:00 | 01:21:13 | 00:00:00 | |
| DM3KS-11 | 2026-09-01 05:52:33 | 49.72047 | 8.35587 | 79° | 51km/h | 15775m | 4.7m/s | -53.1°C | 1.3% | 112.5hPa | 2.6V | 00:00:00 | 00:00:00 | 00:00:00 | |
| DJ2DS-15 | 2026-09-01 05:52:32 | 49.72047 | 8.35587 | 80° | 55km/h | 15775m | 4.6m/s | -53.1°C | 4.0% | 112.4hPa | 2.6V | 00:00:00 | 01:21:11 | 00:00:00 | |
| NBG1-10 | 2026-09-01 05:52:31 | 49.72045 | 8.35567 | 81° | 53km/h | 15770m | 4.5m/s | -53.0°C | 4.0% | 112.5hPa | 2.7V | 00:00:00 | 01:21:10 | 00:00:00 | |
| DL1NUX | 2026-09-01 05:52:30 | 49.72036 | 8.35448 | 85° | 51km/h | 15742m | 5.1m/s | 0°C | 0% | 0hPa | 2.7V | 04:01:03 | 01:21:04 | 00:00:00 | |
| BIOWL1-15 | 2026-09-01 05:52:30 | 49.72040 | 8.35508 | 82° | 51km/h | 15755m | 5.6m/s | -53°C | 0.5% | 112.8hPa | 2.6V | 04:01:22 | 01:21:07 | 00:00:00 | |
| BIOWL1-15 | 2026-09-01 05:52:17 | 49.72035 | 8.35283 | 95° | 58km/h | 15704m | 4m/s | -53.1°C | 0.6% | 113.7hPa | 2.6V | 04:01:22 | 01:20:56 | 00:00:00 | |
| DL0LBS | 2026-09-01 05:52:16 | 49.72035 | 8.35283 | 96° | 58km/h | 15704m | 4.0m/s | -53.1°C | 1.4% | 113.7hPa | 2.6V | 04:01:00 | 00:00:00 | 00:00:00 | |
| DM0DOS-11 | 2026-09-01 05:52:15 | 49.72038 | 8.35238 | 96° | 57km/h | 15694m | 3.9m/s | -53.1°C | 4.1% | 113.9hPa | 2.6V | 04:01:13 | 01:20:54 | 00:00:00 | |
| BIOWL1-15 | 2026-09-01 05:52:09 | 49.72043 | 8.35074 | 91° | 51km/h | 15659m | 4.2m/s | -53.1°C | 0.5% | 114.5hPa | 2.6V | 04:01:22 | 01:20:46 | 00:00:00 | |
| HEMX73-11 | 2026-09-01 05:52:06 | 49.72043 | 8.35074 | 92° | 51km/h | 15660m | 4.2m/s | -53.1°C | 1.3% | 114.5hPa | 2.7V | 04:01:00 | 00:00:00 | 00:00:00 | |
| DM0DOS-11 | 2026-09-01 05:52:05 | 49.72044 | 8.35033 | 94° | 53km/h | 15650m | 4.4m/s | -53°C | 4.2% | 114.7hPa | 2.7V | 04:01:23 | 01:20:44 | 00:00:00 | |
| DF2AP-13 | 2026-09-01 05:52:05 | 49.72044 | 8.35033 | 95° | 51km/h | 15651m | 4.3m/s | -53.0°C | 4.2% | 114.7hPa | 2.6V | 00:00:00 | 01:20:44 | 00:00:00 | |
| DO3MHA-11 | 2026-09-01 05:52:04 | 49.72045 | 8.35013 | 94° | 51km/h | 15647m | 3.4m/s | -53.0°C | 4.1% | 114.7hPa | 2.6V | 04:01:00 | 01:20:43 | 00:00:00 | |
| DM3KS-11 | 2026-09-01 05:52:02 | 49.72045 | 8.34949 | 86° | 53km/h | 15633m | 4.1m/s | -53.0°C | 1.3% | 115.0hPa | 2.6V | 00:00:00 | 00:00:00 | 00:00:00 | |
| DL1NUX | 2026-09-01 05:52:01 | 49.72039 | 8.34852 | 84° | 46km/h | 15610m | 4.9m/s | 0°C | 0% | 0hPa | 2.6V | 04:01:32 | 01:20:35 | 00:00:00 | |
| BIOWL1-15 | 2026-09-01 05:51:58 | 49.72039 | 8.34852 | 85° | 46km/h | 15610m | 4.9m/s | -53°C | 0.5% | 115.4hPa | 2.6V | 04:02:13 | 01:20:35 | 00:00:00 | |
| DO1YAY-16 | 2026-09-01 05:51:58 | 49.72041 | 8.34870 | 82° | 47km/h | 15615m | 4.4m/s | -52.9°C | 1.3% | 115.3hPa | 2.6V | 00:00:00 | 00:00:00 | 00:00:00 | |
| DL9PN | 2026-09-01 05:51:57 | 49.72039 | 8.34852 | 84° | 46km/h | 15610m | 4.9m/s | -53.0°C | 1.3% | 115.4hPa | 2.6V | 00:00:00 | 00:00:00 | 00:00:00 | |
| DM0DOS-11 | 2026-09-01 05:51:55 | 49.72039 | 8.34834 | 87° | 44km/h | 15605m | 4.8m/s | -52.9°C | 4.1% | 115.5hPa | 2.6V | 04:01:33 | 01:20:34 | 00:00:00 | |
| DO3MHA-11 | 2026-09-01 05:51:54 | 49.72038 | 8.34817 | 90° | 51km/h | 15601m | 3.5m/s | -52.9°C | 4.2% | 115.5hPa | 2.7V | 00:00:00 | 01:20:33 | 00:00:00 | |
| DK5PH-5 | 2026-09-01 05:51:53 | 49.72038 | 8.34800 | 90° | 51km/h | 15597m | 5.1m/s | -52.9°C | 4.2% | 115.6hPa | 2.6V | 00:00:00 | 01:20:32 | 00:00:00 | |
| DL1NUX | 2026-09-01 05:51:51 | 49.72035 | 8.34658 | 87° | 55km/h | 15565m | 4.8m/s | 0°C | 0% | 0hPa | 2.6V | 04:01:42 | 01:20:25 | 00:00:00 | |
| DJ2DS-15 | 2026-09-01 05:51:51 | 49.72038 | 8.34763 | 90° | 53km/h | 15587m | 5.0m/s | -52.8°C | 4.1% | 115.8hPa | 2.6V | 00:00:00 | 01:20:30 | 00:00:00 | |
| DM0DOS-11 | 2026-09-01 05:51:50 | 49.72035 | 8.34637 | 88° | 55km/h | 15560m | 3.8m/s | -52.7°C | 3.9% | 116.3hPa | 2.6V | 04:01:43 | 01:20:24 | 00:00:00 | |
| BIOWL1-15 | 2026-09-01 05:51:46 | 49.72035 | 8.34658 | 88° | 55km/h | 15565m | 4.8m/s | -52.7°C | 0.4% | 116.2hPa | 2.6V | 04:02:13 | 01:20:25 | 00:00:00 | |
| DO3MHA-11 | 2026-09-01 05:51:44 | 49.72034 | 8.34615 | 88° | 49km/h | 15556m | 5.5m/s | -52.7°C | 4.0% | 116.3hPa | 2.7V | 00:00:00 | 01:20:23 | 00:00:00 | |
| DJ2KF-10 | 2026-09-01 05:51:42 | 49.72033 | 8.34574 | 87° | 55km/h | 15546m | 5.0m/s | -52.8°C | 4.0% | 116.5hPa | 2.7V | 04:01:00 | 01:20:21 | 00:00:00 | |
| DL1NUX | 2026-09-01 05:51:41 | 49.72026 | 8.34463 | 85° | 51km/h | 15521m | 4.5m/s | 0°C | 0% | 0hPa | 2.7V | 04:01:52 | 01:20:15 | 00:00:00 | |
| DL1ZP-14 | 2026-09-01 05:51:41 | 49.72031 | 8.34537 | 84° | 44km/h | 15538m | 3.3m/s | -52.9°C | 1.3% | 116.7hPa | 2.6V | 00:00:00 | 00:00:00 | 00:00:00 | |
| DM0DOS-11 | 2026-09-01 05:51:40 | 49.72025 | 8.34442 | 87° | 53km/h | 15516m | 4m/s | -52.9°C | 4% | 117.1hPa | 2.6V | 04:01:53 | 01:20:14 | 00:00:00 | |
| DB0UT-9 | 2026-09-01 05:51:38 | 49.72030 | 8.34520 | 84° | 46km/h | 15534m | 5.1m/s | -52.8°C | 1.4% | 116.8hPa | 2.6V | 04:02:00 | 00:00:00 | 00:00:00 | |
| BIOWL7-15 | 2026-09-01 05:51:36 | 49.72027 | 8.34482 | 84° | 49km/h | 15525m | 4.2m/s | -52.8°C | 1.3% | 116.9hPa | 2.6V | 00:00:00 | 00:00:00 | 00:00:00 | |
| DF2AP-13 | 2026-09-01 05:51:35 | 49.72025 | 8.34442 | 88° | 57km/h | 15517m | 4.0m/s | -52.8°C | 4.0% | 117.0hPa | 2.6V | 00:00:00 | 01:20:14 | 00:00:00 | |
| BIOWL1-15 | 2026-09-01 05:51:35 | 49.72025 | 8.34442 | 87° | 53km/h | 15516m | 4m/s | -52.9°C | 0.4% | 117.1hPa | 2.6V | 04:02:13 | 01:20:14 | 00:00:00 | |
| DJ2DS-15 | 2026-09-01 05:51:34 | 49.72024 | 8.34399 | 87° | 57km/h | 15509m | 4.7m/s | -53.0°C | 1.3% | 117.2hPa | 2.6V | 00:00:00 | 00:00:00 | 00:00:00 | |
| DM3KS-11 | 2026-09-01 05:51:31 | 49.72024 | 8.34331 | 93° | 55km/h | 15496m | 3.6m/s | -53.0°C | 1.3% | 117.5hPa | 2.6V | 00:00:00 | 00:00:00 | 00:00:00 | |
| DB0NH | 2026-09-01 05:51:30 | 49.72024 | 8.34331 | 94° | 53km/h | 15496m | 3.5m/s | 0°C | 0% | 0hPa | 2.6V | 00:00:00 | 01:20:09 | 00:00:00 | |
| DL1NUX | 2026-09-01 05:51:29 | 49.72027 | 8.34206 | 90° | 55km/h | 15472m | 4.3m/s | 0°C | 0% | 0hPa | 2.6V | 04:02:04 | 01:20:03 | 00:00:00 | |
| DF1GD-15 | 2026-09-01 05:51:28 | 49.72025 | 8.34310 | 94° | 53km/h | 15492m | 3.8m/s | -53.0°C | 1.3% | 117.5hPa | 2.7V | 04:02:00 | 00:00:00 | 00:00:00 | |
| DF7PN | 2026-09-01 05:51:27 | 49.72026 | 8.34269 | 90° | 51km/h | 15484m | 3.9m/s | -53.0°C | 1.3% | 117.7hPa | 2.7V | 00:00:00 | 00:00:00 | 00:00:00 | |
| DM0DOS-11 | 2026-09-01 05:51:25 | 49.72026 | 8.34228 | 92° | 53km/h | 15476m | 3.9m/s | -52.8°C | 4% | 117.8hPa | 2.7V | 04:02:03 | 01:20:04 | 00:00:00 | |
| BIOWL1-15 | 2026-09-01 05:51:25 | 49.72027 | 8.34228 | 92° | 53km/h | 15476m | 3.9m/s | -52.8°C | 0.4% | 117.8hPa | 2.7V | 04:02:13 | 01:20:04 | 00:00:00 | |
| SO1NDE-10 | 2026-09-01 05:51:25 | 49.72027 | 8.34227 | 93° | 55km/h | 15476m | 3.8m/s | 0°C | 0% | 0hPa | 2.6V | 04:02:00 | 01:20:04 | 00:00:00 | |
| DO3MHA-11 | 2026-09-01 05:51:24 | 49.72027 | 8.34206 | 91° | 57km/h | 15472m | 4.3m/s | -52.8°C | 4.0% | 117.9hPa | 2.6V | 00:00:00 | 01:20:03 | 00:00:00 | |
| DK5PH-5 | 2026-09-01 05:51:23 | 49.72027 | 8.34185 | 88° | 55km/h | 15467m | 5.2m/s | -52.8°C | 4.1% | 118.0hPa | 2.6V | 04:02:00 | 01:20:02 | 00:00:00 | |
| DL8DAS-15 | 2026-09-01 05:51:20 | 49.72025 | 8.34141 | 87° | 57km/h | 15459m | 4.8m/s | -53.0°C | 1.4% | 118.2hPa | 2.6V | 00:00:00 | 00:00:00 | 00:00:00 | |
| DL1NUX | 2026-09-01 05:51:19 | 49.72020 | 8.33986 | 90° | 55km/h | 15428m | 3.5m/s | 0°C | 0% | 0hPa | 2.6V | 04:02:14 | 01:19:53 | 00:00:00 | |
| DL4BBY-15 | 2026-09-01 05:51:19 | 49.72023 | 8.34096 | 88° | 55km/h | 15450m | 3.5m/s | -51.9°C | 0% | 0hPa | 2.7V | 00:00:00 | 00:00:00 | 00:00:00 | |
| DB0UT-9 | 2026-09-01 05:51:18 | 49.72023 | 8.34096 | 88° | 57km/h | 15450m | 3.5m/s | -52.9°C | 1.4% | 118.3hPa | 2.7V | 04:02:00 | 00:00:00 | 00:00:00 | |
| DM0DOS-11 | 2026-09-01 05:51:15 | 49.72020 | 8.34008 | 89° | 57km/h | 15432m | 4.4m/s | -52.9°C | 4% | 118.6hPa | 2.7V | 04:02:13 | 01:19:54 | 00:00:00 | |
| BIOWL1-15 | 2026-09-01 05:51:14 | 49.72019 | 8.33921 | 85° | 57km/h | 15416m | 3.6m/s | -53°C | 0.5% | 118.9hPa | 2.7V | 04:03:04 | 01:19:50 | 00:00:00 | |
| DO3MHA-11 | 2026-09-01 05:51:14 | 49.72020 | 8.33986 | 91° | 57km/h | 15429m | 3.5m/s | -52.9°C | 4.1% | 118.6hPa | 2.6V | 04:02:00 | 01:19:53 | 00:00:00 | |
| DJTTGO | 2026-09-01 05:51:13 | 49.72020 | 8.33986 | 92° | 55km/h | 15429m | 3.5m/s | 0°C | 0% | 118.7hPa | 2.6V | 00:00:00 | 00:00:00 | 00:00:00 | |
| DB0UT-7 | 2026-09-01 05:51:11 | 49.72019 | 8.33921 | 86° | 55km/h | 15416m | 3.5m/s | -52.9°C | 4.1% | 118.9hPa | 2.6V | 00:00:00 | 01:19:50 | 00:00:00 | |
| DL1ZP-14 | 2026-09-01 05:51:10 | 49.72016 | 8.33877 | 85° | 57km/h | 15408m | 3.6m/s | -53.0°C | 1.3% | 119.1hPa | 2.6V | 00:00:00 | 00:00:00 | 00:00:00 | |
| DL1NUX | 2026-09-01 05:51:09 | 49.72008 | 8.33763 | 86° | 57km/h | 15388m | 3.9m/s | 0°C | 0% | 0hPa | 2.7V | 04:02:24 | 01:19:43 | 00:00:00 | |
| BIOWL1-15 | 2026-09-01 05:51:02 | 49.72006 | 8.33680 | 89° | 51km/h | 15372m | 4.8m/s | -53.1°C | 0.5% | 119.8hPa | 2.7V | 04:03:04 | 01:19:39 | 00:00:00 | |
| DM3KS-11 | 2026-09-01 05:51:00 | 49.72005 | 8.33660 | 89° | 51km/h | 15367m | 3.7m/s | -53.1°C | 1.3% | 119.8hPa | 2.7V | 00:00:00 | 00:00:00 | 00:00:00 | |
| DL1NUX | 2026-09-01 05:50:58 | 49.72001 | 8.33543 | 88° | 53km/h | 15344m | 3.3m/s | 0°C | 0% | 0hPa | 2.7V | 04:02:35 | 01:19:32 | 00:00:00 | |
| BIOWL1-15 | 2026-09-01 05:50:49 | 49.71996 | 8.33460 | 86° | 55km/h | 15327m | 4.5m/s | -53.3°C | 0.6% | 120.6hPa | 2.7V | 04:03:04 | 01:19:28 | 00:00:00 | |
| DL4BBY-15 | 2026-09-01 05:50:49 | 49.71997 | 8.33460 | 87° | 58km/h | 15328m | 4.4m/s | -52.3°C | 0% | 0hPa | 2.7V | 00:00:00 | 00:00:00 | 00:00:00 | |
| DL1NUX | 2026-09-01 05:50:47 | 49.71991 | 8.33311 | 86° | 57km/h | 15298m | 4.3m/s | 0°C | 0% | 0hPa | 2.7V | 04:02:46 | 01:19:21 | 00:00:00 | |
| DL8DAS-14 | 2026-09-01 05:50:45 | 49.71992 | 8.33376 | 86° | 53km/h | 15310m | 4.9m/s | -53.4°C | 1.4% | 120.9hPa | 2.6V | 00:00:00 | 00:00:00 | 00:00:00 | |
| DO3MHA-11 | 2026-09-01 05:50:44 | 49.71992 | 8.33355 | 89° | 57km/h | 15306m | 3.8m/s | -53.3°C | 4.2% | 120.9hPa | 2.6V | 00:00:00 | 01:19:23 | 00:00:00 | |
| DJ2KF-10 | 2026-09-01 05:50:41 | 49.71990 | 8.33289 | 88° | 58km/h | 15294m | 2.9m/s | -53.4°C | 4.2% | 121.1hPa | 2.6V | 00:00:00 | 01:19:20 | 00:00:00 | |
| DM0DOS-11 | 2026-09-01 05:50:40 | 49.71988 | 8.33154 | 91° | 57km/h | 15268m | 3.7m/s | -53.4°C | 4.1% | 121.7hPa | 2.6V | 04:02:53 | 01:19:14 | 00:00:00 | |
| BIOWL1-15 | 2026-09-01 05:50:39 | 49.71989 | 8.33244 | 89° | 58km/h | 15286m | 3.9m/s | -53.5°C | 0.6% | 121.3hPa | 2.6V | 04:03:04 | 01:19:18 | 00:00:00 | |
| DM7RM-13 | 2026-09-01 05:50:38 | 49.71989 | 8.33243 | 90° | 58km/h | 15286m | 3.9m/s | -53.5°C | 1.4% | 121.3hPa | 2.7V | 04:03:00 | 00:00:00 | 00:00:00 | |
| DB0UT-7 | 2026-09-01 05:50:37 | 49.71988 | 8.33199 | 89° | 58km/h | 15277m | 3.7m/s | -53.4°C | 4.1% | 121.4hPa | 2.7V | 00:00:00 | 00:00:00 | 00:00:00 | |
| DB0UT-9 | 2026-09-01 05:50:36 | 49.71988 | 8.33199 | 89° | 57km/h | 15277m | 3.7m/s | -53.4°C | 1.4% | 121.5hPa | 2.7V | 04:03:00 | 00:00:00 | 00:00:00 | |
| DF2AP-13 | 2026-09-01 05:50:35 | 49.71988 | 8.33154 | 92° | 57km/h | 15268m | 3.6m/s | -53.4°C | 4.1% | 121.6hPa | 2.7V | 00:00:00 | 01:19:14 | 00:00:00 | |
| DO3MHA-11 | 2026-09-01 05:50:34 | 49.71988 | 8.33132 | 92° | 60km/h | 15264m | 4.7m/s | -53.4°C | 4.1% | 121.7hPa | 2.7V | 00:00:00 | 01:19:13 | 00:00:00 | |
| KANTATE | 2026-09-01 05:50:33 | 49.71988 | 8.33132 | 93° | 55km/h | 15264m | 4.7m/s | 0°C | 0% | 121.7hPa | 2.7V | 00:00:00 | 00:00:00 | 00:00:00 | |
| DJ2DS-15 | 2026-09-01 05:50:31 | 49.71991 | 8.33067 | 95° | 60km/h | 15252m | 3.7m/s | -53.5°C | 4.2% | 121.9hPa | 2.7V | 04:02:00 | 01:19:10 | 00:00:00 | |
| DM0DOS-11 | 2026-09-01 05:50:30 | 49.71992 | 8.32924 | 88° | 60km/h | 15229m | 4.1m/s | -53.7°C | 4.3% | 122.4hPa | 2.6V | 04:03:03 | 01:19:04 | 00:00:00 | |
| BIOWL1-15 | 2026-09-01 05:50:29 | 49.71992 | 8.33021 | 91° | 60km/h | 15244m | 4.2m/s | -53.6°C | 0.6% | 122.1hPa | 2.6V | 04:03:04 | 01:19:08 | 00:00:00 | |
| DM3KS-11 | 2026-09-01 05:50:29 | 49.71992 | 8.32997 | 89° | 60km/h | 15240m | 3.9m/s | -53.6°C | 1.4% | 122.2hPa | 2.7V | 00:00:00 | 00:00:00 | 00:00:00 | |
| DL1NUX | 2026-09-01 05:50:27 | 49.71989 | 8.32858 | 88° | 53km/h | 15217m | 4.6m/s | 0°C | 0% | 0hPa | 2.7V | 04:03:06 | 01:19:01 | 00:00:00 | |
| SO1NDE-10 | 2026-09-01 05:50:25 | 49.71992 | 8.32924 | 89° | 55km/h | 15229m | 4.0m/s | 0°C | 0% | 0hPa | 2.6V | 00:00:00 | 01:19:04 | 00:00:00 | |
| DO3MHA-11 | 2026-09-01 05:50:24 | 49.71991 | 8.32901 | 87° | 58km/h | 15225m | 3.9m/s | -53.7°C | 4.3% | 122.5hPa | 2.6V | 04:03:00 | 01:19:03 | 00:00:00 | |
| DK5PH-5 | 2026-09-01 05:50:23 | 49.71990 | 8.32879 | 87° | 57km/h | 15221m | 3.3m/s | -53.8°C | 4.3% | 122.5hPa | 2.7V | 00:00:00 | 01:19:02 | 00:00:00 | |
| DJ2DS-15 | 2026-09-01 05:50:22 | 49.71990 | 8.32837 | 91° | 53km/h | 15213m | 3.8m/s | -53.9°C | 1.4% | 122.7hPa | 2.7V | 00:00:00 | 00:00:00 | 00:00:00 | |
| DM0DOS-11 | 2026-09-01 05:50:20 | 49.71996 | 8.32698 | 95° | 64km/h | 15189m | 3.7m/s | -54°C | 4.3% | 123.2hPa | 2.7V | 04:03:13 | 01:18:54 | 00:00:00 | |
| BIOWL1-15 | 2026-09-01 05:50:18 | 49.71992 | 8.32747 | 96° | 64km/h | 15197m | 4.7m/s | -54.1°C | 0.8% | 123hPa | 2.6V | 04:03:55 | 01:18:56 | 00:00:00 | |
| DL4BBY-15 | 2026-09-01 05:50:18 | 49.71991 | 8.32771 | 94° | 58km/h | 15202m | 3.9m/s | -53.0°C | 0% | 0hPa | 2.7V | 00:00:00 | 00:00:00 | 00:00:00 | |
| DL1NUX | 2026-09-01 05:50:16 | 49.71998 | 8.32607 | 90° | 51km/h | 15172m | 3.8m/s | 0°C | 0% | 0hPa | 2.7V | 04:03:17 | 01:18:50 | 00:00:00 | |
| BIOWL1-15 | 2026-09-01 05:50:10 | 49.71996 | 8.32547 | 86° | 51km/h | 15160m | 3.9m/s | -54°C | 0.7% | 123.7hPa | 2.6V | 04:03:55 | 01:18:47 | 00:00:00 | |
| DB0ND-19 | 2026-09-01 05:50:09 | 49.71997 | 8.32567 | 85° | 51km/h | 15163m | 4.1m/s | -54.0°C | 1.4% | 123.7hPa | 2.7V | 00:00:00 | 00:00:00 | 00:00:00 | |
| SFWM-10 | 2026-09-01 05:50:08 | 49.71997 | 8.32567 | 87° | 51km/h | 15164m | 4.1m/s | -54.0°C | 1.4% | 123.7hPa | 2.7V | 00:00:00 | 00:00:00 | 00:00:00 | |
| KANTATE | 2026-09-01 05:50:07 | 49.71996 | 8.32547 | 87° | 51km/h | 15160m | 3.9m/s | 0°C | 0% | 123.7hPa | 2.7V | 00:00:00 | 00:00:00 | 00:00:00 | |
| DM0DOS-11 | 2026-09-01 05:50:05 | 49.71994 | 8.32485 | 86° | 57km/h | 15149m | 4.7m/s | -53.9°C | 4.3% | 124hPa | 2.7V | 04:03:23 | 01:18:44 | 00:00:00 | |
| DF2AP-13 | 2026-09-01 05:50:05 | 49.71994 | 8.32485 | 87° | 57km/h | 15149m | 4.6m/s | -53.9°C | 4.3% | 123.9hPa | 2.7V | 00:00:00 | 01:18:44 | 00:00:00 | |
| DO3MHA-11 | 2026-09-01 05:50:04 | 49.71993 | 8.32462 | 87° | 58km/h | 15145m | 3.4m/s | -53.9°C | 4.3% | 124.0hPa | 2.7V | 00:00:00 | 01:18:43 | 00:00:00 | |
| HEMX73-11 | 2026-09-01 05:50:03 | 49.71993 | 8.32462 | 88° | 60km/h | 15145m | 3.4m/s | -53.9°C | 1.5% | 124.0hPa | 2.7V | 04:03:00 | 00:00:00 | 00:00:00 | |
| DM0DOS-11 | 2026-09-01 05:50:00 | 49.72000 | 8.32258 | 96° | 57km/h | 15109m | 4.8m/s | -53.9°C | 4.4% | 124.7hPa | 2.7V | 04:03:33 | 01:18:34 | 00:00:00 | |
| BIOWL1-15 | 2026-09-01 05:49:57 | 49.71996 | 8.32301 | 96° | 55km/h | 15118m | 4.7m/s | -53.9°C | 0.7% | 124.5hPa | 2.6V | 04:03:55 | 01:18:36 | 00:00:00 | |
| DL1NUX | 2026-09-01 05:49:55 | 49.72007 | 8.32145 | 93° | 60km/h | 15088m | 3.7m/s | 0°C | 0% | 0hPa | 2.6V | 04:03:38 | 01:18:29 | 00:00:00 | |
| BIOWL1-15 | 2026-09-01 05:49:52 | 49.72012 | 8.32052 | 94° | 60km/h | 15072m | 4.4m/s | -53.6°C | 0.8% | 125.4hPa | 2.6V | 04:03:55 | 01:18:25 | 00:00:00 | |
| DJ2DS-15 | 2026-09-01 05:49:51 | 49.72006 | 8.32168 | 96° | 57km/h | 15092m | 4.4m/s | -53.7°C | 4.4% | 125.0hPa | 2.6V | 00:00:00 | 01:18:30 | 00:00:00 | |
| DM0DOS-11 | 2026-09-01 05:49:50 | 49.72013 | 8.32028 | 95° | 60km/h | 15067m | 3.9m/s | -53.6°C | 4.3% | 125.5hPa | 2.6V | 04:03:43 | 01:18:24 | 00:00:00 | |
| DJ2DS-15 | 2026-09-01 05:49:46 | 49.72014 | 8.32028 | 95° | 58km/h | 15067m | 3.9m/s | -53.6°C | 1.5% | 125.5hPa | 2.6V | 00:00:00 | 00:00:00 | 00:00:00 | |
| DL1NUX | 2026-09-01 05:49:45 | 49.72021 | 8.31918 | 94° | 55km/h | 15047m | 3.4m/s | 0°C | 0% | 0hPa | 2.6V | 04:03:48 | 01:18:19 | 00:00:00 | |
| DO3MHA-11 | 2026-09-01 05:49:44 | 49.72015 | 8.32006 | 98° | 55km/h | 15064m | 4.5m/s | -53.5°C | 4.4% | 125.5hPa | 2.6V | 00:00:00 | 01:18:23 | 00:00:00 | |
| DL8DAS-14 | 2026-09-01 05:49:43 | 49.72017 | 8.31983 | 97° | 57km/h | 15059m | 3.5m/s | -53.5°C | 1.5% | 125.7hPa | 2.6V | 00:00:00 | 00:00:00 | 00:00:00 | |
| DB0NH | 2026-09-01 05:49:42 | 49.72019 | 8.31961 | 97° | 55km/h | 15055m | 4.9m/s | 0°C | 0% | 0hPa | 2.6V | 00:00:00 | 01:18:21 | 00:00:00 | |
| DJ2KF-10 | 2026-09-01 05:49:41 | 49.72020 | 8.31939 | 96° | 58km/h | 15051m | 3.5m/s | -53.5°C | 4.3% | 125.8hPa | 2.6V | 00:00:00 | 01:18:20 | 00:00:00 | |
| DM0DOS-11 | 2026-09-01 05:49:40 | 49.72028 | 8.31814 | 95° | 55km/h | 15026m | 4.8m/s | -53.6°C | 4.3% | 126.3hPa | 2.6V | 04:03:53 | 01:18:14 | 00:00:00 | |
| BIOWL1-15 | 2026-09-01 05:49:36 | 49.72027 | 8.31835 | 94° | 53km/h | 15030m | 4m/s | -53.6°C | 0.8% | 126.2hPa | 2.6V | 04:03:55 | 01:18:15 | 00:00:00 | |
| BIOWL1-15 | 2026-09-01 05:49:28 | 49.72044 | 8.31605 | 95° | 58km/h | 14989m | 3.4m/s | -53.6°C | 0.8% | 127hPa | 2.6V | 04:04:46 | 01:18:05 | 00:00:00 | |
| DN1GJH-1 | 2026-09-01 05:49:27 | 49.72041 | 8.31652 | 99° | 62km/h | 14998m | 4.8m/s | -53.5°C | 1.6% | 126.9hPa | 2.6V | 04:04:00 | 00:00:00 | 00:00:00 | |
| SFWM-10 | 2026-09-01 05:49:26 | 49.72042 | 8.31628 | 97° | 60km/h | 14993m | 4.1m/s | -53.6°C | 1.5% | 127.0hPa | 2.6V | 00:00:00 | 00:00:00 | 00:00:00 | |
| DM0DOS-11 | 2026-09-01 05:49:25 | 49.72047 | 8.31561 | 97° | 55km/h | 14981m | 4.3m/s | -53.6°C | 4.4% | 127.2hPa | 2.6V | 04:04:04 | 01:18:03 | 00:00:00 | |
| DK7TD | 2026-09-01 05:49:22 | 49.72051 | 8.31518 | 97° | 58km/h | 14972m | 5.2m/s | 0°C | 0% | 0hPa | 2.7V | 18:12:15 | 01:18:01 | 00:00:00 | |
| SO1NDE-10 | 2026-09-01 05:49:21 | 49.72053 | 8.31495 | 96° | 62km/h | 14968m | 3.5m/s | 0°C | 0% | 0hPa | 2.6V | 00:00:00 | 01:18:00 | 00:00:00 | |
| DM0DOS-11 | 2026-09-01 05:49:19 | 49.72061 | 8.31326 | 94° | 60km/h | 14938m | 3.9m/s | -53.7°C | 4.5% | 128hPa | 2.6V | 04:04:14 | 01:17:53 | 00:00:00 | |
| BIOWL1-15 | 2026-09-01 05:49:15 | 49.72064 | 8.31281 | 95° | 57km/h | 14929m | 4.4m/s | -53.7°C | 0.9% | 128.2hPa | 2.7V | 04:04:46 | 01:17:51 | 00:00:00 | |
| DO3MHA-11 | 2026-09-01 05:49:14 | 49.72061 | 8.31326 | 95° | 57km/h | 14939m | 3.8m/s | -53.7°C | 4.5% | 128.0hPa | 2.7V | 00:00:00 | 01:17:53 | 00:00:00 | |
| NBG1-10 | 2026-09-01 05:49:13 | 49.72062 | 8.31303 | 95° | 60km/h | 14934m | 4.6m/s | -53.7°C | 4.5% | 128.1hPa | 2.7V | 00:00:00 | 01:17:52 | 00:00:00 | |
| DL8DAS-14 | 2026-09-01 05:49:12 | 49.72064 | 8.31281 | 95° | 57km/h | 14929m | 4.4m/s | -53.7°C | 1.6% | 128.2hPa | 2.7V | 00:00:00 | 00:00:00 | 00:00:00 | |
| DJ2KF-10 | 2026-09-01 05:49:11 | 49.72065 | 8.31259 | 97° | 60km/h | 14925m | 4.7m/s | -53.7°C | 4.5% | 128.3hPa | 2.7V | 04:04:00 | 01:17:50 | 00:00:00 | |
| DJ2DS-15 | 2026-09-01 05:49:09 | 49.72068 | 8.31216 | 94° | 55km/h | 14917m | 5.1m/s | -53.7°C | 1.6% | 128.5hPa | 2.6V | 00:00:00 | 00:00:00 | 00:00:00 | |
| DL1NUX | 2026-09-01 05:49:08 | 49.72075 | 8.31080 | 95° | 60km/h | 14890m | 4.7m/s | 0°C | 0% | 0hPa | 2.6V | 04:04:25 | 01:17:42 | 00:00:00 | |
| DB0ND-19 | 2026-09-01 05:49:07 | 49.72070 | 8.31171 | 94° | 57km/h | 14908m | 4.9m/s | -53.6°C | 1.6% | 128.7hPa | 2.6V | 00:00:00 | 00:00:00 | 00:00:00 | |
| DM0DOS-11 | 2026-09-01 05:49:05 | 49.72073 | 8.31103 | 93° | 60km/h | 14895m | 4.2m/s | -53.6°C | 4.4% | 128.9hPa | 2.6V | 04:04:24 | 01:17:43 | 00:00:00 | |
| DK7TD | 2026-09-01 05:49:01 | 49.72078 | 8.31033 | 96° | 60km/h | 14882m | 4.4m/s | 0°C | 0% | 0hPa | 2.7V | 18:12:15 | 01:17:40 | 00:00:00 | |
| DM3KS-11 | 2026-09-01 05:48:56 | 49.72091 | 8.30898 | 100° | 57km/h | 14856m | 4.2m/s | -53.5°C | 1.6% | 129.7hPa | 2.7V | 00:00:00 | 00:00:00 | 00:00:00 | |
| DL1NUX | 2026-09-01 05:48:55 | 49.72105 | 8.30779 | 97° | 64km/h | 14836m | 4.4m/s | 0°C | 0% | 0hPa | 2.7V | 04:04:38 | 01:17:29 | 00:00:00 | |
| DF7PN | 2026-09-01 05:48:52 | 49.72103 | 8.30803 | 99° | 62km/h | 14840m | 4.5m/s | -53.6°C | 1.7% | 130.0hPa | 2.7V | 00:00:00 | 00:00:00 | 00:00:00 | |
| DO1YAY-16 | 2026-09-01 05:48:51 | 49.72103 | 8.30803 | 99° | 62km/h | 14840m | 4.5m/s | -53.6°C | 1.7% | 130.0hPa | 2.7V | 00:00:00 | 00:00:00 | 00:00:00 | |
| BIOWL1-15 | 2026-09-01 05:48:51 | 49.72103 | 8.30803 | 99° | 64km/h | 14840m | 4.5m/s | -53.6°C | 1% | 130hPa | 2.6V | 04:04:46 | 01:17:30 | 00:00:00 | |
| DL9PN | 2026-09-01 05:48:50 | 49.72105 | 8.30779 | 97° | 64km/h | 14836m | 4.4m/s | -53.5°C | 1.6% | 130.1hPa | 2.7V | 00:00:00 | 00:00:00 | 00:00:00 | |
| DM0DOS-11 | 2026-09-01 05:48:49 | 49.72119 | 8.30628 | 97° | 62km/h | 14811m | 3.8m/s | -53.4°C | 4.5% | 130.6hPa | 2.7V | 04:04:44 | 01:17:23 | 00:00:00 | |
| DL4BBY-15 | 2026-09-01 05:48:48 | 49.72110 | 8.30729 | 99° | 62km/h | 14828m | 4.8m/s | -52.5°C | 0% | 0hPa | 2.7V | 00:00:00 | 00:00:00 | 00:00:00 | |
| DN1GJH-1 | 2026-09-01 05:48:46 | 49.72112 | 8.30703 | 101° | 66km/h | 14824m | 3.5m/s | -53.4°C | 0% | 0hPa | 2.7V | 04:04:00 | 00:00:00 | 00:00:00 | |
| SFWM-10 | 2026-09-01 05:48:45 | 49.72114 | 8.30677 | 99° | 66km/h | 14820m | 4.6m/s | -53.4°C | 1.6% | 130.5hPa | 2.7V | 00:00:00 | 00:00:00 | 00:00:00 | |
| DO3MHA-11 | 2026-09-01 05:48:44 | 49.72119 | 8.30628 | 98° | 62km/h | 14811m | 3.8m/s | -53.3°C | 4.5% | 130.6hPa | 2.7V | 04:04:00 | 01:17:23 | 00:00:00 | |
| DL1NUX | 2026-09-01 05:48:43 | 49.72135 | 8.30489 | 99° | 64km/h | 14785m | 4.9m/s | 0°C | 0% | 0hPa | 2.7V | 00:00:00 | 01:17:17 | 00:00:00 | |
| BIOWL1-15 | 2026-09-01 05:48:42 | 49.72133 | 8.30513 | 99° | 60km/h | 14790m | 3.9m/s | -53.3°C | 1% | 131.1hPa | 2.7V | 04:05:37 | 01:17:18 | 00:00:00 | |
| DJ2KF-10 | 2026-09-01 05:48:41 | 49.72127 | 8.30558 | 102° | 62km/h | 14798m | 4.0m/s | -53.3°C | 4.5% | 130.8hPa | 2.6V | 00:00:00 | 01:17:20 | 00:00:00 | |
| NBG1-10 | 2026-09-01 05:48:40 | 49.72130 | 8.30536 | 100° | 62km/h | 14794m | 4.3m/s | -53.2°C | 4.5% | 130.9hPa | 2.6V | 00:00:00 | 01:17:19 | 00:00:00 | |
| DL8DAS-15 | 2026-09-01 05:48:39 | 49.72130 | 8.30536 | 101° | 60km/h | 14794m | 4.3m/s | -53.3°C | 1.7% | 131.0hPa | 2.6V | 00:00:00 | 00:00:00 | 00:00:00 | |
| DJTTGO | 2026-09-01 05:48:37 | 49.72135 | 8.30489 | 101° | 64km/h | 14786m | 4.9m/s | 0°C | 0% | 0hPa | 2.6V | 00:00:00 | 00:00:00 | 00:00:00 | |
| DM0DOS-11 | 2026-09-01 05:48:35 | 49.72144 | 8.30389 | 96° | 64km/h | 14768m | 4.2m/s | -53.1°C | 4.4% | 131.5hPa | 2.6V | 04:04:54 | 01:17:13 | 00:00:00 | |
| BIOWL1-15 | 2026-09-01 05:48:30 | 49.72151 | 8.30293 | 95° | 58km/h | 14750m | 3.5m/s | -53.1°C | 1% | 131.8hPa | 2.6V | 04:05:37 | 01:17:09 | 00:00:00 | |
| BIOWL1-15 | 2026-09-01 05:48:20 | 49.72172 | 8.30061 | 96° | 66km/h | 14708m | 3.2m/s | -53.1°C | 1% | 132.7hPa | 2.6V | 04:05:37 | 01:16:59 | 00:00:00 | |
| BIOWL1-15 | 2026-09-01 05:48:09 | 49.72186 | 8.29786 | 97° | 60km/h | 14661m | 3.4m/s | -53.4°C | 1% | 133.7hPa | 2.6V | 04:05:37 | 01:16:48 | 00:00:00 | |
| DK7TD | 2026-09-01 05:48:05 | 49.72191 | 8.29691 | 95° | 62km/h | 14644m | 4.1m/s | 0°C | 0% | 0hPa | 2.6V | 18:12:15 | 01:16:44 | 00:00:00 | |
| DF2AP-13 | 2026-09-01 05:48:05 | 49.72191 | 8.29691 | 96° | 66km/h | 14644m | 4.0m/s | -53.8°C | 4.4% | 134.0hPa | 2.6V | 00:00:00 | 01:16:44 | 00:00:00 | |
| DO3MHA-11 | 2026-09-01 05:48:04 | 49.72192 | 8.29667 | 94° | 60km/h | 14639m | 4.2m/s | -53.8°C | 4.4% | 134.1hPa | 2.6V | 00:00:00 | 01:16:43 | 00:00:00 | |
| DL1ZP-14 | 2026-09-01 05:48:03 | 49.72193 | 8.29644 | 90° | 60km/h | 14635m | 5.3m/s | -53.9°C | 1.7% | 134.2hPa | 2.6V | 00:00:00 | 00:00:00 | 00:00:00 | |
| SFWM-10 | 2026-09-01 05:48:02 | 49.72193 | 8.29644 | 92° | 60km/h | 14635m | 5.3m/s | -53.9°C | 0% | 0hPa | 2.6V | 00:00:00 | 00:00:00 | 00:00:00 | |
| DM0DOS-11 | 2026-09-01 05:48:00 | 49.72204 | 8.29429 | 98° | 68km/h | 14597m | 5m/s | -54.4°C | 4.7% | 135hPa | 2.6V | 04:05:34 | 01:16:33 | 00:00:00 | |
| BIOWL1-15 | 2026-09-01 05:47:59 | 49.72194 | 8.29551 | 94° | 58km/h | 14618m | 3.5m/s | -54.1°C | 1.1% | 134.6hPa | 2.6V | 04:05:37 | 01:16:38 | 00:00:00 | |
| DJ2DS-15 | 2026-09-01 05:47:58 | 49.72197 | 8.29504 | 95° | 62km/h | 14610m | 3.9m/s | -54.2°C | 1.7% | 134.8hPa | 2.6V | 00:00:00 | 00:00:00 | 00:00:00 | |
| DM3KS-11 | 2026-09-01 05:47:54 | 49.72206 | 8.29403 | 97° | 68km/h | 14592m | 4.1m/s | -54.4°C | 1.7% | 135.2hPa | 2.6V | 00:00:00 | 00:00:00 | 00:00:00 | |
| DK5PH-5 | 2026-09-01 05:47:53 | 49.72206 | 8.29403 | 98° | 68km/h | 14593m | 4.0m/s | -54.4°C | 4.7% | 135.1hPa | 2.6V | 00:00:00 | 01:16:32 | 00:00:00 | |
| DB0UT-9 | 2026-09-01 05:47:52 | 49.72206 | 8.29403 | 98° | 68km/h | 14593m | 4.1m/s | -54.4°C | 1.8% | 135.1hPa | 2.7V | 04:05:00 | 00:00:00 | 00:00:00 | |
| DJ2DS-15 | 2026-09-01 05:47:51 | 49.72210 | 8.29351 | 99° | 66km/h | 14584m | 4.2m/s | -54.5°C | 4.7% | 135.3hPa | 2.7V | 00:00:00 | 01:16:30 | 00:00:00 | |
| DM0DOS-11 | 2026-09-01 05:47:49 | 49.72221 | 8.29172 | 92° | 66km/h | 14553m | 4.8m/s | -54.6°C | 4.8% | 136hPa | 2.7V | 04:05:44 | 01:16:23 | 00:00:00 | |
| BIOWL1-15 | 2026-09-01 05:47:49 | 49.72215 | 8.29299 | 96° | 68km/h | 14575m | 4.5m/s | -54.6°C | 1.1% | 135.5hPa | 2.7V | 04:06:28 | 01:16:28 | 00:00:00 | |
| DL9PN | 2026-09-01 05:47:48 | 49.72216 | 8.29273 | 95° | 66km/h | 14570m | 4.2m/s | -54.7°C | 1.7% | 135.6hPa | 2.6V | 00:00:00 | 00:00:00 | 00:00:00 | |
| DK7TD | 2026-09-01 05:47:42 | 49.72222 | 8.29120 | 91° | 66km/h | 14544m | 5.2m/s | 0°C | 0% | 0hPa | 2.6V | 18:12:15 | 01:16:21 | 00:00:00 | |
| BIOWL1-15 | 2026-09-01 05:47:40 | 49.72223 | 8.29013 | 90° | 73km/h | 14527m | 3.4m/s | -54.5°C | 1.1% | 136.5hPa | 2.6V | 04:06:28 | 01:16:17 | 00:00:00 | |
| DM0DOS-11 | 2026-09-01 05:47:39 | 49.72220 | 8.28905 | 88° | 66km/h | 14510m | 4.6m/s | -54.3°C | 4.7% | 136.9hPa | 2.7V | 04:05:54 | 01:16:13 | 00:00:00 | |
| KANTATE | 2026-09-01 05:47:36 | 49.72223 | 8.28985 | 89° | 71km/h | 14523m | 4.5m/s | 0°C | 0% | 0hPa | 2.6V | 00:00:00 | 00:00:00 | 00:00:00 | |
| DF2AP-13 | 2026-09-01 05:47:35 | 49.72221 | 8.28931 | 88° | 66km/h | 14515m | 3.4m/s | -54.3°C | 4.8% | 136.7hPa | 2.6V | 00:00:00 | 01:16:14 | 00:00:00 | |
| DO3MHA-11 | 2026-09-01 05:47:34 | 49.72220 | 8.28905 | 89° | 66km/h | 14511m | 4.5m/s | -54.3°C | 4.7% | 136.8hPa | 2.6V | 00:00:00 | 01:16:13 | 00:00:00 | |
| DM7RM-13 | 2026-09-01 05:47:33 | 49.72220 | 8.28905 | 89° | 66km/h | 14511m | 4.6m/s | -54.3°C | 1.8% | 136.9hPa | 2.6V | 04:06:00 | 00:00:00 | 00:00:00 | |
| DB0UT-7 | 2026-09-01 05:47:32 | 49.72220 | 8.28854 | 92° | 66km/h | 14502m | 4.0m/s | -54.1°C | 4.7% | 137.0hPa | 2.6V | 00:00:00 | 00:00:00 | 00:00:00 | |
| DJ2DS-15 | 2026-09-01 05:47:31 | 49.72221 | 8.28828 | 91° | 66km/h | 14498m | 4.9m/s | -54.1°C | 4.7% | 137.1hPa | 2.6V | 00:00:00 | 01:16:10 | 00:00:00 | |
| DM0DOS-11 | 2026-09-01 05:47:29 | 49.72222 | 8.28646 | 91° | 68km/h | 14465m | 5m/s | -54°C | 4.7% | 137.9hPa | 2.7V | 04:06:04 | 01:16:03 | 00:00:00 | |
| BIOWL1-15 | 2026-09-01 05:47:28 | 49.72221 | 8.28751 | 92° | 66km/h | 14484m | 4.3m/s | -54.1°C | 1.1% | 137.5hPa | 2.6V | 04:06:28 | 01:16:07 | 00:00:00 | |
| DO3MHA-11 | 2026-09-01 05:47:24 | 49.72222 | 8.28646 | 92° | 64km/h | 14466m | 4.9m/s | -54.0°C | 4.7% | 137.8hPa | 2.7V | 00:00:00 | 01:16:03 | 00:00:00 | |
| DK5PH-5 | 2026-09-01 05:47:23 | 49.72223 | 8.28621 | 92° | 68km/h | 14461m | 3.1m/s | -54.0°C | 4.6% | 137.9hPa | 2.7V | 00:00:00 | 01:16:02 | 00:00:00 | |
| DM3KS-11 | 2026-09-01 05:47:22 | 49.72223 | 8.28595 | 90° | 64km/h | 14457m | 4.6m/s | -54.0°C | 1.7% | 138.0hPa | 2.7V | 00:00:00 | 00:00:00 | 00:00:00 | |
| DJ2DS-15 | 2026-09-01 05:47:21 | 49.72223 | 8.28570 | 89° | 62km/h | 14453m | 4.1m/s | -54.0°C | 1.7% | 138.1hPa | 2.7V | 00:00:00 | 00:00:00 | 00:00:00 | |
| DM0DOS-11 | 2026-09-01 05:47:18 | 49.72231 | 8.28369 | 94° | 68km/h | 14417m | 5.4m/s | -53.8°C | 4.4% | 138.8hPa | 2.7V | 04:06:15 | 01:15:52 | 00:00:00 | |
| BIOWL1-15 | 2026-09-01 05:47:18 | 49.72224 | 8.28497 | 93° | 62km/h | 14439m | 4.7m/s | -53.9°C | 1% | 138.4hPa | 2.7V | 04:06:28 | 01:15:57 | 00:00:00 | |
| BIOWL1-15 | 2026-09-01 05:47:11 | 49.72236 | 8.28214 | 93° | 66km/h | 14390m | 3.5m/s | -53.7°C | 1.1% | 139.5hPa | 2.7V | 04:06:28 | 01:15:46 | 00:00:00 | |
| DJ2KF-10 | 2026-09-01 05:47:11 | 49.72232 | 8.28316 | 93° | 71km/h | 14408m | 5.0m/s | -53.7°C | 4.5% | 139.0hPa | 2.7V | 00:00:00 | 01:15:50 | 00:00:00 | |
| DL8DAS-14 | 2026-09-01 05:47:08 | 49.72235 | 8.28239 | 92° | 64km/h | 14394m | 5.0m/s | -53.8°C | 1.7% | 139.4hPa | 2.7V | 00:00:00 | 00:00:00 | 00:00:00 | |
| DM0DOS-11 | 2026-09-01 05:47:08 | 49.72245 | 8.28113 | 100° | 66km/h | 14372m | 5.2m/s | -53.8°C | 4.6% | 139.8hPa | 2.7V | 04:06:25 | 01:15:42 | 00:00:00 | |
| BIOWL7-15 | 2026-09-01 05:47:06 | 49.72236 | 8.28214 | 94° | 66km/h | 14391m | 3.5m/s | -53.7°C | 1.7% | 139.5hPa | 2.7V | 00:00:00 | 00:00:00 | 00:00:00 | |
| DF2AP-13 | 2026-09-01 05:47:05 | 49.72239 | 8.28164 | 99° | 71km/h | 14381m | 4.4m/s | -53.7°C | 4.5% | 139.6hPa | 2.7V | 00:00:00 | 01:15:44 | 00:00:00 | |
| DO3MHA-11 | 2026-09-01 05:47:04 | 49.72242 | 8.28139 | 101° | 68km/h | 14377m | 4.0m/s | -53.7°C | 4.6% | 139.7hPa | 2.7V | 04:06:00 | 01:15:43 | 00:00:00 | |
| DB0ND-19 | 2026-09-01 05:47:03 | 49.72244 | 8.28113 | 100° | 66km/h | 14372m | 5.2m/s | -53.8°C | 1.7% | 139.8hPa | 2.7V | 00:00:00 | 00:00:00 | 00:00:00 | |
| DM0DOS-11 | 2026-09-01 05:46:58 | 49.72270 | 8.27850 | 99° | 64km/h | 14329m | 4.1m/s | -54.1°C | 4.5% | 140.8hPa | 2.7V | 04:06:35 | 01:15:32 | 00:00:00 | |
| BIOWL1-15 | 2026-09-01 05:46:57 | 49.72260 | 8.27954 | 97° | 69km/h | 14346m | 4.7m/s | -54.1°C | 1.1% | 140.4hPa | 2.7V | 04:07:19 | 01:15:36 | 00:00:00 | |
| DB0NH | 2026-09-01 05:46:55 | 49.72264 | 8.27901 | 99° | 68km/h | 14338m | 5.1m/s | 0°C | 0% | 0hPa | 2.6V | 00:00:00 | 01:15:34 | 00:00:00 | |
| DO3MHA-11 | 2026-09-01 05:46:54 | 49.72267 | 8.27875 | 100° | 71km/h | 14333m | 4.2m/s | -54.1°C | 4.5% | 140.6hPa | 2.6V | 00:00:00 | 01:15:33 | 00:00:00 | |
| DL8DAS-15 | 2026-09-01 05:46:53 | 49.72267 | 8.27875 | 100° | 66km/h | 14333m | 4.2m/s | -54.1°C | 1.7% | 140.7hPa | 2.6V | 00:00:00 | 00:00:00 | 00:00:00 | |
| DM7RM-13 | 2026-09-01 05:46:52 | 49.72270 | 8.27850 | 100° | 64km/h | 14329m | 4.1m/s | -54.1°C | 1.7% | 140.8hPa | 2.6V | 04:07:00 | 00:00:00 | 00:00:00 | |
| DL4BBY-15 | 2026-09-01 05:46:51 | 49.72274 | 8.27800 | 98° | 77km/h | 14321m | 3.2m/s | -53.1°C | 0% | 0hPa | 2.6V | 00:00:00 | 00:00:00 | 00:00:00 | |
| NBG1-10 | 2026-09-01 05:46:50 | 49.72277 | 8.27774 | 99° | 78km/h | 14317m | 4.5m/s | -54.0°C | 4.5% | 141.0hPa | 2.6V | 00:00:00 | 01:15:29 | 00:00:00 | |
| DM0DOS-11 | 2026-09-01 05:46:48 | 49.72292 | 8.27566 | 95° | 78km/h | 14286m | 4.2m/s | -54.2°C | 4.7% | 141.7hPa | 2.6V | 04:06:45 | 01:15:22 | 00:00:00 | |
| BIOWL1-15 | 2026-09-01 05:46:47 | 49.72285 | 8.27689 | 97° | 78km/h | 14304m | 4.3m/s | -54.1°C | 1.2% | 141.3hPa | 2.7V | 04:07:19 | 01:15:26 | 00:00:00 | |
| DO1YAY-16 | 2026-09-01 05:46:47 | 49.72285 | 8.27689 | 96° | 77km/h | 14304m | 4.3m/s | -54.1°C | 1.8% | 141.3hPa | 2.6V | 00:00:00 | 00:00:00 | 00:00:00 | |
| DL9PN | 2026-09-01 05:46:46 | 49.72287 | 8.27659 | 95° | 78km/h | 14300m | 4.2m/s | -54.2°C | 1.7% | 141.4hPa | 2.6V | 00:00:00 | 00:00:00 | 00:00:00 | |
| DJ2DS-15 | 2026-09-01 05:46:45 | 49.72288 | 8.27628 | 94° | 78km/h | 14295m | 4.3m/s | -54.2°C | 1.8% | 141.5hPa | 2.6V | 00:00:00 | 00:00:00 | 00:00:00 | |
| DO3MHA-11 | 2026-09-01 05:46:44 | 49.72290 | 8.27597 | 96° | 75km/h | 14291m | 4.9m/s | -54.2°C | 4.7% | 141.6hPa | 2.6V | 00:00:00 | 01:15:23 | 00:00:00 | |
| DF1GD-15 | 2026-09-01 05:46:42 | 49.72292 | 8.27566 | 96° | 78km/h | 14286m | 4.2m/s | -54.2°C | 1.8% | 141.7hPa | 2.6V | 04:07:00 | 00:00:00 | 00:00:00 | |
| DJ2KF-10 | 2026-09-01 05:46:40 | 49.72295 | 8.27476 | 93° | 77km/h | 14273m | 3.7m/s | -54.4°C | 4.6% | 142.0hPa | 2.6V | 04:06:00 | 01:15:19 | 00:00:00 | |
| DM0DOS-11 | 2026-09-01 05:46:38 | 49.72305 | 8.27277 | 95° | 77km/h | 14242m | 4.1m/s | -54.5°C | 4.8% | 142.7hPa | 2.6V | 04:06:55 | 01:15:12 | 00:00:00 | |
| BIOWL1-15 | 2026-09-01 05:46:36 | 49.72300 | 8.27363 | 94° | 71km/h | 14255m | 4.4m/s | -54.5°C | 1.2% | 142.4hPa | 2.7V | 04:07:19 | 01:15:15 | 00:00:00 | |
| DF2AP-13 | 2026-09-01 05:46:35 | 49.72301 | 8.27335 | 94° | 77km/h | 14251m | 3.4m/s | -54.4°C | 4.7% | 142.5hPa | 2.7V | 00:00:00 | 01:15:14 | 00:00:00 | |
| DO3MHA-11 | 2026-09-01 05:46:34 | 49.72303 | 8.27306 | 95° | 78km/h | 14247m | 4.9m/s | -54.5°C | 4.8% | 142.6hPa | 2.7V | 00:00:00 | 01:15:13 | 00:00:00 | |
| DB0UT-7 | 2026-09-01 05:46:32 | 49.72307 | 8.27246 | 96° | 78km/h | 14238m | 4.2m/s | -54.5°C | 4.7% | 142.8hPa | 2.7V | 00:00:00 | 00:00:00 | 00:00:00 | |
| DJ2DS-15 | 2026-09-01 05:46:31 | 49.72308 | 8.27216 | 95° | 78km/h | 14234m | 4.5m/s | -54.5°C | 4.7% | 142.9hPa | 2.7V | 00:00:00 | 01:15:10 | 00:00:00 | |
| DL1ZP-14 | 2026-09-01 05:46:30 | 49.72310 | 8.27186 | 94° | 78km/h | 14229m | 4.0m/s | -54.5°C | 1.8% | 143.0hPa | 2.7V | 00:00:00 | 00:00:00 | 00:00:00 | |
| DL1NUX | 2026-09-01 05:46:28 | 49.72314 | 8.26966 | 90° | 80km/h | 14197m | 5.4m/s | 0°C | 0% | 0hPa | 2.6V | 00:00:00 | 01:15:02 | 00:00:00 | |
| BIOWL1-15 | 2026-09-01 05:46:25 | 49.72314 | 8.27029 | 91° | 82km/h | 14206m | 5.2m/s | -54.5°C | 1.2% | 143.5hPa | 2.6V | 04:07:19 | 01:15:04 | 00:00:00 | |
| DO3MHA-11 | 2026-09-01 05:46:24 | 49.72314 | 8.26997 | 92° | 78km/h | 14202m | 4.1m/s | -54.4°C | 4.8% | 143.6hPa | 2.6V | 00:00:00 | 01:15:03 | 00:00:00 | |
| DF1GD-15 | 2026-09-01 05:46:22 | 49.72314 | 8.26966 | 91° | 80km/h | 14197m | 5.4m/s | -54.5°C | 1.9% | 143.7hPa | 2.6V | 04:07:00 | 00:00:00 | 00:00:00 | |
| DL4BBY-15 | 2026-09-01 05:46:21 | 49.72315 | 8.26904 | 93° | 75km/h | 14189m | 4.8m/s | -53.4°C | 0% | 0hPa | 2.6V | 00:00:00 | 00:00:00 | 00:00:00 | |
| DM3KS-11 | 2026-09-01 05:46:20 | 49.72316 | 8.26873 | 93° | 78km/h | 14183m | 4.1m/s | -54.4°C | 1.8% | 144.0hPa | 2.6V | 00:00:00 | 00:00:00 | 00:00:00 | |
| DL8DAS-15 | 2026-09-01 05:46:19 | 49.72316 | 8.26873 | 94° | 78km/h | 14183m | 4.1m/s | -54.4°C | 1.9% | 144.0hPa | 2.6V | 00:00:00 | 00:00:00 | 00:00:00 | |
| DM0DOS-11 | 2026-09-01 05:46:18 | 49.72322 | 8.26662 | 89° | 75km/h | 14153m | 4.4m/s | -54.2°C | 4.8% | 144.7hPa | 2.6V | 04:07:15 | 01:14:52 | 00:00:00 | |
| BIOWL1-15 | 2026-09-01 05:46:16 | 49.72321 | 8.26692 | 91° | 77km/h | 14158m | 4.8m/s | -54.3°C | 1.3% | 144.6hPa | 2.6V | 04:07:19 | 01:14:53 | 00:00:00 | |
| DO1YAY-16 | 2026-09-01 05:46:16 | 49.72321 | 8.26722 | 92° | 77km/h | 14162m | 4.3m/s | -54.3°C | 1.9% | 144.5hPa | 2.6V | 00:00:00 | 00:00:00 | 00:00:00 | |
| DL9PN | 2026-09-01 05:46:15 | 49.72321 | 8.26722 | 92° | 77km/h | 14162m | 4.3m/s | -54.3°C | 1.9% | 144.5hPa | 2.6V | 00:00:00 | 00:00:00 | 00:00:00 | |
| DO3MHA-11 | 2026-09-01 05:46:14 | 49.72321 | 8.26692 | 92° | 77km/h | 14158m | 4.8m/s | -54.3°C | 4.8% | 144.6hPa | 2.6V | 04:07:00 | 01:14:53 | 00:00:00 | |
| DJ2DS-15 | 2026-09-01 05:46:10 | 49.72320 | 8.26546 | 90° | 75km/h | 14136m | 4.4m/s | -54.3°C | 1.9% | 145.1hPa | 2.6V | 00:00:00 | 00:00:00 | 00:00:00 | |
| DM0DOS-11 | 2026-09-01 05:46:08 | 49.72320 | 8.26364 | 89° | 78km/h | 14109m | 4.9m/s | -54.3°C | 4.6% | 145.7hPa | 2.6V | 04:07:25 | 01:14:42 | 00:00:00 | |
| BIOWL1-15 | 2026-09-01 05:46:04 | 49.72320 | 8.26395 | 90° | 80km/h | 14113m | 4.3m/s | -54.3°C | 1.3% | 145.6hPa | 2.7V | 04:08:10 | 01:14:43 | 00:00:00 | |
| DO3MHA-11 | 2026-09-01 05:46:04 | 49.72320 | 8.26395 | 91° | 77km/h | 14113m | 4.3m/s | -54.3°C | 4.7% | 145.6hPa | 2.6V | 00:00:00 | 01:14:43 | 00:00:00 | |
| BEGRI65-1 | 2026-09-01 05:46:02 | 49.72320 | 8.26364 | 91° | 78km/h | 14109m | 4.9m/s | 0°C | 0% | 0hPa | 2.6V | 04:08:00 | 00:00:00 | 00:00:00 | |
| DB0ND-19 | 2026-09-01 05:46:01 | 49.72321 | 8.26272 | 91° | 77km/h | 14095m | 4.5m/s | -54.3°C | 1.8% | 146.0hPa | 2.6V | 00:00:00 | 00:00:00 | 00:00:00 | |
| DL1ZP-14 | 2026-09-01 05:45:59 | 49.72322 | 8.26242 | 92° | 73km/h | 14090m | 5.2m/s | -54.3°C | 1.9% | 146.2hPa | 2.6V | 00:00:00 | 00:00:00 | 00:00:00 | |
| DM0DOS-11 | 2026-09-01 05:45:58 | 49.72328 | 8.26068 | 92° | 77km/h | 14062m | 5m/s | -54.5°C | 4.8% | 146.8hPa | 2.6V | 04:07:35 | 01:14:32 | 00:00:00 | |
| BIOWL1-15 | 2026-09-01 05:45:55 | 49.72328 | 8.26069 | 93° | 77km/h | 14062m | 5m/s | -54.5°C | 1.4% | 146.8hPa | 2.6V | 04:08:10 | 01:14:32 | 00:00:00 | |
| DM3KS-11 | 2026-09-01 05:45:49 | 49.72329 | 8.25949 | 89° | 75km/h | 14045m | 4.2m/s | -54.7°C | 1.9% | 147.2hPa | 2.7V | 00:00:00 | 00:00:00 | 00:00:00 | |
| DM0DOS-11 | 2026-09-01 05:45:48 | 49.72329 | 8.25782 | 92° | 68km/h | 14017m | 4.3m/s | -55°C | 5.1% | 147.8hPa | 2.7V | 04:07:45 | 01:14:22 | 00:00:00 | |
| BIOWL1-15 | 2026-09-01 05:45:43 | 49.72329 | 8.25782 | 93° | 68km/h | 14017m | 4.3m/s | -55°C | 1.5% | 147.8hPa | 2.7V | 04:08:10 | 01:14:22 | 00:00:00 | |
| DF1GD-15 | 2026-09-01 05:45:41 | 49.72330 | 8.25756 | 95° | 66km/h | 14013m | 3.6m/s | -55.0°C | 2.0% | 147.9hPa | 2.6V | 04:08:00 | 00:00:00 | 00:00:00 | |
| DJ2KF-10 | 2026-09-01 05:45:40 | 49.72332 | 8.25707 | 94° | 69km/h | 14005m | 4.1m/s | -54.9°C | 5.1% | 148.1hPa | 2.6V | 00:00:00 | 01:14:19 | 00:00:00 | |
| DM0DOS-11 | 2026-09-01 05:45:39 | 49.72334 | 8.25508 | 89° | 80km/h | 13974m | 4.4m/s | -54.9°C | 5.1% | 148.9hPa | 2.6V | 04:07:55 | 01:14:12 | 00:00:00 | |
| BIOWL1-15 | 2026-09-01 05:45:33 | 49.72334 | 8.25508 | 90° | 80km/h | 13974m | 4.4m/s | -54.9°C | 1.5% | 148.9hPa | 2.6V | 04:08:10 | 01:14:12 | 00:00:00 | |
| DJ2DS-15 | 2026-09-01 05:45:31 | 49.72334 | 8.25446 | 89° | 71km/h | 13964m | 4.5m/s | -54.8°C | 5.1% | 149.0hPa | 2.6V | 04:07:00 | 01:14:10 | 00:00:00 | |
| BIOWL9-15 | 2026-09-01 05:45:30 | 49.72333 | 8.25416 | 89° | 75km/h | 13960m | 3.9m/s | -54.8°C | 2.0% | 149.2hPa | 2.7V | 00:00:00 | 00:00:00 | 00:00:00 | |
| DM7RM-13 | 2026-09-01 05:45:29 | 49.72333 | 8.25416 | 90° | 77km/h | 13960m | 3.9m/s | -54.8°C | 2.0% | 149.2hPa | 2.7V | 04:08:00 | 00:00:00 | 00:00:00 | |
| DM0DOS-11 | 2026-09-01 05:45:28 | 49.72332 | 8.25215 | 90° | 73km/h | 13928m | 4.2m/s | -54.6°C | 4.9% | 149.9hPa | 2.7V | 04:08:05 | 01:14:02 | 00:00:00 | |
| BIOWL1-15 | 2026-09-01 05:45:24 | 49.72332 | 8.25187 | 90° | 71km/h | 13923m | 5.6m/s | -54.6°C | 1.5% | 150hPa | 2.6V | 04:08:10 | 01:14:01 | 00:00:00 | |
| DO3MHA-11 | 2026-09-01 05:45:24 | 49.72332 | 8.25243 | 90° | 69km/h | 13932m | 4.9m/s | -54.6°C | 4.9% | 149.7hPa | 2.7V | 04:08:00 | 01:14:03 | 00:00:00 | |
| AM1SDL-15 | 2026-09-01 05:45:23 | 49.72332 | 8.25214 | 91° | 68km/h | 13928m | 4.2m/s | 0°C | 0% | 0hPa | 2.7V | 00:00:00 | 01:14:02 | 00:00:00 | |
| BIOWL7-15 | 2026-09-01 05:45:21 | 49.72332 | 8.25186 | 91° | 71km/h | 13923m | 5.6m/s | -54.6°C | 2.0% | 150.0hPa | 2.7V | 00:00:00 | 00:00:00 | 00:00:00 | |
| DL8DAS-15 | 2026-09-01 05:45:19 | 49.72332 | 8.25131 | 92° | 71km/h | 13913m | 5.4m/s | -54.6°C | 2.0% | 150.3hPa | 2.7V | 04:08:00 | 00:00:00 | 00:00:00 | |
| DM0DOS-11 | 2026-09-01 05:45:18 | 49.72337 | 8.24948 | 94° | 64km/h | 13882m | 3.9m/s | -54.7°C | 5% | 151hPa | 2.7V | 04:08:15 | 01:13:52 | 00:00:00 | |
| BIOWL1-15 | 2026-09-01 05:45:11 | 49.72339 | 8.24898 | 93° | 64km/h | 13873m | 3.9m/s | -54.6°C | 1.6% | 151.2hPa | 2.6V | 04:09:01 | 01:13:50 | 00:00:00 | |
| DJ2DS-15 | 2026-09-01 05:45:11 | 49.72339 | 8.24898 | 93° | 68km/h | 13873m | 3.8m/s | -54.6°C | 5.1% | 151.1hPa | 2.7V | 00:00:00 | 01:13:50 | 00:00:00 | |
| DJ2KF-10 | 2026-09-01 05:45:10 | 49.72340 | 8.24873 | 93° | 68km/h | 13869m | 4.7m/s | -54.6°C | 5.1% | 151.2hPa | 2.7V | 00:00:00 | 01:13:49 | 00:00:00 | |
| NBG1-10 | 2026-09-01 05:45:09 | 49.72340 | 8.24847 | 93° | 68km/h | 13865m | 3.4m/s | -54.5°C | 5.1% | 151.3hPa | 2.7V | 00:00:00 | 01:13:48 | 00:00:00 | |
| DM0DOS-11 | 2026-09-01 05:45:08 | 49.72343 | 8.24689 | 92° | 66km/h | 13838m | 4.9m/s | -54.6°C | 5% | 152hPa | 2.7V | 04:08:25 | 01:13:42 | 00:00:00 | |
| BIOWL1-15 | 2026-09-01 05:45:02 | 49.72346 | 8.24612 | 95° | 68km/h | 13825m | 5.4m/s | -54.6°C | 1.6% | 152.4hPa | 2.6V | 04:09:01 | 01:13:39 | 00:00:00 | |
| DB0ND-19 | 2026-09-01 05:44:59 | 49.72349 | 8.24560 | 96° | 66km/h | 13816m | 5.4m/s | -54.5°C | 2.0% | 152.5hPa | 2.7V | 00:00:00 | 00:00:00 | 00:00:00 | |
| DM0DOS-11 | 2026-09-01 05:44:58 | 49.72359 | 8.24428 | 96° | 68km/h | 13793m | 4.5m/s | -54.3°C | 5% | 153.1hPa | 2.7V | 04:08:35 | 01:13:32 | 00:00:00 | |
| BIOWL1-15 | 2026-09-01 05:44:52 | 49.72363 | 8.24349 | 94° | 69km/h | 13779m | 5.5m/s | -54.2°C | 1.7% | 153.4hPa | 2.6V | 04:09:01 | 01:13:29 | 00:00:00 | |
| DJ2DS-15 | 2026-09-01 05:44:51 | 49.72362 | 8.24375 | 95° | 69km/h | 13784m | 4.1m/s | -54.2°C | 5.1% | 153.2hPa | 2.7V | 00:00:00 | 01:13:30 | 00:00:00 | |
| DM0DOS-11 | 2026-09-01 05:44:48 | 49.72374 | 8.24160 | 97° | 66km/h | 13748m | 3.9m/s | -54°C | 4.9% | 154.2hPa | 2.7V | 04:08:45 | 01:13:22 | 00:00:00 | |
| DM3KS-11 | 2026-09-01 05:44:47 | 49.72367 | 8.24267 | 94° | 69km/h | 13766m | 3.4m/s | -54.1°C | 2.1% | 153.8hPa | 2.6V | 00:00:00 | 00:00:00 | 00:00:00 | |
| BIOWL1-15 | 2026-09-01 05:44:40 | 49.72381 | 8.24082 | 97° | 68km/h | 13734m | 4.9m/s | -54.1°C | 1.6% | 154.5hPa | 2.6V | 04:09:01 | 01:13:19 | 00:00:00 | |
| DJ2KF-10 | 2026-09-01 05:44:40 | 49.72381 | 8.24082 | 97° | 75km/h | 13735m | 4.8m/s | -54.0°C | 4.8% | 154.4hPa | 2.6V | 00:00:00 | 01:13:19 | 00:00:00 | |
| DL4BBY-15 | 2026-09-01 05:44:39 | 49.72383 | 8.24056 | 96° | 73km/h | 13730m | 4.6m/s | 0°C | 0% | 0hPa | 2.7V | 00:00:00 | 00:00:00 | 00:00:00 | |
| DM0DOS-11 | 2026-09-01 05:44:36 | 49.72391 | 8.23835 | 91° | 73km/h | 13694m | 5.8m/s | -54.3°C | 5% | 155.5hPa | 2.7V | 04:08:57 | 01:13:10 | 00:00:00 | |
| BIOWL1-15 | 2026-09-01 05:44:29 | 49.72392 | 8.23778 | 93° | 71km/h | 13684m | 5.6m/s | -54.4°C | 1.8% | 155.7hPa | 2.6V | 04:09:01 | 01:13:08 | 00:00:00 | |
| BIOWL9-15 | 2026-09-01 05:44:28 | 49.72393 | 8.23750 | 93° | 71km/h | 13680m | 4.0m/s | -54.4°C | 2.2% | 155.8hPa | 2.7V | 00:00:00 | 00:00:00 | 00:00:00 | |
| DM7RM-13 | 2026-09-01 05:44:27 | 49.72393 | 8.23750 | 94° | 71km/h | 13680m | 4.0m/s | -54.4°C | 2.2% | 155.8hPa | 2.7V | 04:09:00 | 00:00:00 | 00:00:00 | |
| DM0DOS-11 | 2026-09-01 05:44:26 | 49.72396 | 8.23538 | 88° | 82km/h | 13648m | 4.1m/s | -54.5°C | 5.2% | 156.6hPa | 2.7V | 04:09:07 | 01:13:00 | 00:00:00 | |
| BIOWL1-15 | 2026-09-01 05:44:20 | 49.72395 | 8.23442 | 90° | 82km/h | 13636m | 4.5m/s | -54.6°C | 1.9% | 156.8hPa | 2.6V | 04:09:52 | 01:12:57 | 00:00:00 | |
| DF1GD-15 | 2026-09-01 05:44:18 | 49.72395 | 8.23474 | 90° | 80km/h | 13640m | 3.3m/s | -54.6°C | 2.3% | 156.8hPa | 2.7V | 04:09:00 | 00:00:00 | 00:00:00 | |
| DM0DOS-11 | 2026-09-01 05:44:16 | 49.72405 | 8.23230 | 96° | 77km/h | 13606m | 4.6m/s | -54.5°C | 5.3% | 157.6hPa | 2.7V | 04:09:17 | 01:12:50 | 00:00:00 | |
| BIOWL1-15 | 2026-09-01 05:44:08 | 49.72408 | 8.23139 | 91° | 80km/h | 13593m | 4m/s | -54.5°C | 2.1% | 157.9hPa | 2.6V | 04:09:52 | 01:12:47 | 00:00:00 | |
| DM7RM-13 | 2026-09-01 05:44:06 | 49.72409 | 8.23107 | 92° | 84km/h | 13590m | 4.2m/s | -54.5°C | 2.3% | 158.0hPa | 2.6V | 04:09:00 | 00:00:00 | 00:00:00 | |
| DL0LBS | 2026-09-01 05:44:05 | 49.72409 | 8.23074 | 92° | 86km/h | 13586m | 4.0m/s | -54.4°C | 2.3% | 158.1hPa | 2.6V | 04:09:00 | 00:00:00 | 00:00:00 | |
| DL1NUX | 2026-09-01 05:44:04 | 49.72414 | 8.22849 | 93° | 78km/h | 13556m | 3.9m/s | 0°C | 0% | 0hPa | 2.6V | 00:00:00 | 01:12:38 | 00:00:00 | |
| BIOWL1-15 | 2026-09-01 05:43:57 | 49.72417 | 8.22787 | 94° | 82km/h | 13547m | 4.7m/s | -54.8°C | 2.3% | 159.1hPa | 2.7V | 04:09:52 | 01:12:36 | 00:00:00 | |
| DB0ND-19 | 2026-09-01 05:43:57 | 49.72418 | 8.22755 | 92° | 80km/h | 13542m | 4.9m/s | -54.9°C | 2.5% | 159.1hPa | 2.7V | 00:00:00 | 00:00:00 | 00:00:00 | |
| DM0DOS-11 | 2026-09-01 05:43:56 | 49.72421 | 8.22588 | 91° | 86km/h | 13520m | 5.1m/s | -55°C | 5.6% | 159.7hPa | 2.7V | 04:09:37 | 01:12:30 | 00:00:00 | |
| DB0UT-7 | 2026-09-01 05:43:55 | 49.72418 | 8.22723 | 92° | 80km/h | 13538m | 3.9m/s | -54.9°C | 5.7% | 159.2hPa | 2.6V | 00:00:00 | 01:12:34 | 00:00:00 | |
| DO3MHA-11 | 2026-09-01 05:43:54 | 49.72419 | 8.22690 | 92° | 86km/h | 13534m | 3.9m/s | -54.9°C | 5.6% | 159.3hPa | 2.6V | 00:00:00 | 01:12:33 | 00:00:00 | |
| HEMX73-11 | 2026-09-01 05:43:52 | 49.72420 | 8.22656 | 93° | 88km/h | 13529m | 5.1m/s | -55.0°C | 2.5% | 159.5hPa | 2.7V | 04:09:00 | 00:00:00 | 00:00:00 | |
| DJ2DS-15 | 2026-09-01 05:43:51 | 49.72421 | 8.22588 | 92° | 82km/h | 13520m | 5.0m/s | -55.0°C | 5.6% | 159.7hPa | 2.7V | 04:09:00 | 01:12:30 | 00:00:00 | |
| DM0DOS-11 | 2026-09-01 05:43:46 | 49.72422 | 8.22259 | 87° | 82km/h | 13476m | 4m/s | -55.4°C | 6.2% | 160.8hPa | 2.7V | 04:09:47 | 01:12:20 | 00:00:00 | |
| BIOWL1-15 | 2026-09-01 05:43:46 | 49.72424 | 8.22422 | 90° | 84km/h | 13498m | 5m/s | -55.5°C | 2.9% | 160.2hPa | 2.7V | 04:09:52 | 01:12:25 | 00:00:00 | |
| DJ2DS-15 | 2026-09-01 05:43:45 | 49.72424 | 8.22389 | 89° | 82km/h | 13494m | 3.6m/s | -55.5°C | 2.9% | 160.4hPa | 2.7V | 00:00:00 | 00:00:00 | 00:00:00 | |
| DO3MHA-11 | 2026-09-01 05:43:44 | 49.72424 | 8.22356 | 90° | 80km/h | 13490m | 4.9m/s | -55.4°C | 6.2% | 160.4hPa | 2.7V | 04:09:00 | 01:12:23 | 00:00:00 | |
| DJ2KF-10 | 2026-09-01 05:43:40 | 49.72421 | 8.22227 | 89° | 82km/h | 13472m | 4.5m/s | -55.4°C | 6.2% | 160.9hPa | 2.7V | 00:00:00 | 01:12:19 | 00:00:00 | |
| DH7VM-15 | 2026-09-01 05:43:39 | 49.72421 | 8.22227 | 89° | 82km/h | 13472m | 4.6m/s | -55.4°C | 2.9% | 160.9hPa | 2.7V | 00:00:00 | 00:00:00 | 00:00:00 | |
| DF1GD-15 | 2026-09-01 05:43:38 | 49.72421 | 8.22195 | 91° | 80km/h | 13468m | 4.1m/s | -55.4°C | 3.0% | 161.0hPa | 2.7V | 04:09:00 | 00:00:00 | 00:00:00 | |
| DM0DOS-11 | 2026-09-01 05:43:36 | 49.72427 | 8.21956 | 91° | 77km/h | 13434m | 3.2m/s | -55.3°C | 6.2% | 161.9hPa | 2.7V | 04:09:57 | 01:12:10 | 00:00:00 | |
| BIOWL1-15 | 2026-09-01 05:43:35 | 49.72423 | 8.22073 | 93° | 75km/h | 13451m | 3.8m/s | -55.4°C | 2.9% | 161.4hPa | 2.7V | 04:10:43 | 01:12:14 | 00:00:00 | |
| DO3MHA-11 | 2026-09-01 05:43:34 | 49.72424 | 8.22044 | 94° | 78km/h | 13446m | 4.6m/s | -55.3°C | 6.2% | 161.5hPa | 2.7V | 00:00:00 | 01:12:13 | 00:00:00 | |
| DJ2DS-15 | 2026-09-01 05:43:31 | 49.72427 | 8.21956 | 92° | 82km/h | 13434m | 3.2m/s | -55.3°C | 6.2% | 161.8hPa | 2.7V | 00:00:00 | 01:12:10 | 00:00:00 | |
| NBG1-10 | 2026-09-01 05:43:30 | 49.72427 | 8.21926 | 92° | 86km/h | 13430m | 4.6m/s | -55.2°C | 6.2% | 161.9hPa | 2.6V | 00:00:00 | 01:12:09 | 00:00:00 | |
| DB0NH | 2026-09-01 05:43:27 | 49.72429 | 8.21833 | 90° | 86km/h | 13419m | 4.9m/s | 0°C | 0% | 0hPa | 2.7V | 00:00:00 | 01:12:06 | 00:00:00 | |
| DM0DOS-11 | 2026-09-01 05:43:26 | 49.72428 | 8.21640 | 88° | 86km/h | 13392m | 4.8m/s | -55.1°C | 6.2% | 163hPa | 2.7V | 04:10:07 | 01:12:00 | 00:00:00 | |
| BIOWL1-15 | 2026-09-01 05:43:24 | 49.72428 | 8.21738 | 90° | 82km/h | 13405m | 5.4m/s | -55.2°C | 3.1% | 162.6hPa | 2.6V | 04:10:43 | 01:12:03 | 00:00:00 | |
| DO3MHA-11 | 2026-09-01 05:43:24 | 49.72427 | 8.21738 | 91° | 84km/h | 13406m | 5.3m/s | -55.1°C | 6.3% | 162.6hPa | 2.6V | 00:00:00 | 01:12:03 | 00:00:00 | |
| DL0LBS | 2026-09-01 05:43:23 | 49.72428 | 8.21738 | 91° | 82km/h | 13406m | 5.4m/s | -55.2°C | 3.1% | 162.6hPa | 2.7V | 04:10:00 | 00:00:00 | 00:00:00 | |
| DB0UT-7 | 2026-09-01 05:43:21 | 49.72428 | 8.21640 | 89° | 88km/h | 13392m | 4.7m/s | -55.1°C | 6.2% | 162.9hPa | 2.7V | 00:00:00 | 00:00:00 | 00:00:00 | |
| BIOWL7-15 | 2026-09-01 05:43:17 | 49.72427 | 8.21540 | 91° | 84km/h | 13379m | 5.0m/s | -55.1°C | 2.9% | 163.3hPa | 2.7V | 04:10:00 | 00:00:00 | 00:00:00 | |
| DM0DOS-11 | 2026-09-01 05:43:16 | 49.72417 | 8.21307 | 85° | 89km/h | 13346m | 4.5m/s | -55.1°C | 6.4% | 164.1hPa | 2.7V | 04:10:17 | 01:11:50 | 00:00:00 | |
| BIOWL1-15 | 2026-09-01 05:43:15 | 49.72421 | 8.21375 | 84° | 86km/h | 13355m | 3.8m/s | -55.1°C | 3.2% | 163.9hPa | 2.6V | 04:10:43 | 01:11:52 | 00:00:00 | |
| DO3MHA-11 | 2026-09-01 05:43:14 | 49.72423 | 8.21408 | 85° | 89km/h | 13359m | 4.1m/s | -55.1°C | 6.3% | 163.8hPa | 2.7V | 00:00:00 | 01:11:53 | 00:00:00 | |
| DJ2DS-15 | 2026-09-01 05:43:11 | 49.72417 | 8.21307 | 86° | 88km/h | 13347m | 4.4m/s | -55.1°C | 6.4% | 164.1hPa | 2.7V | 00:00:00 | 01:11:50 | 00:00:00 | |
| DJ2KF-10 | 2026-09-01 05:43:10 | 49.72415 | 8.21272 | 86° | 86km/h | 13342m | 4.4m/s | -55.1°C | 6.3% | 164.2hPa | 2.7V | 00:00:00 | 01:11:49 | 00:00:00 | |
| DJ2DS-15 | 2026-09-01 05:43:09 | 49.72411 | 8.21201 | 83° | 91km/h | 13332m | 4.4m/s | -55.1°C | 3.1% | 164.5hPa | 2.7V | 00:00:00 | 00:00:00 | 00:00:00 | |
| DL9PN | 2026-09-01 05:43:08 | 49.72411 | 8.21201 | 83° | 91km/h | 13332m | 4.4m/s | -55.1°C | 3.1% | 164.5hPa | 2.7V | 00:00:00 | 00:00:00 | 00:00:00 | |
| DM0DOS-11 | 2026-09-01 05:43:06 | 49.72398 | 8.20966 | 83° | 84km/h | 13300m | 3.9m/s | -54.9°C | 6.4% | 165.3hPa | 2.7V | 04:10:27 | 01:11:40 | 00:00:00 | |
| BIOWL1-15 | 2026-09-01 05:43:02 | 49.72401 | 8.20999 | 85° | 84km/h | 13305m | 5.3m/s | -54.9°C | 3.2% | 165.2hPa | 2.7V | 04:10:43 | 01:11:41 | 00:00:00 | |
| DL8DAS-14 | 2026-09-01 05:43:00 | 49.72396 | 8.20934 | 82° | 84km/h | 13296m | 4.0m/s | -54.8°C | 3.1% | 165.4hPa | 2.7V | 00:00:00 | 00:00:00 | 00:00:00 | |
| NBG1-10 | 2026-09-01 05:42:57 | 49.72388 | 8.20832 | 83° | 82km/h | 13284m | 4.2m/s | -54.7°C | 6.4% | 165.7hPa | 2.7V | 00:00:00 | 01:11:36 | 00:00:00 | |
| DM0DOS-11 | 2026-09-01 05:42:56 | 49.72366 | 8.20631 | 79° | 86km/h | 13258m | 4.8m/s | -54.5°C | 6.3% | 166.4hPa | 2.7V | 04:10:37 | 01:11:30 | 00:00:00 | |
| BIOWL1-15 | 2026-09-01 05:42:53 | 49.72366 | 8.20631 | 80° | 86km/h | 13258m | 4.8m/s | -54.5°C | 3.3% | 166.4hPa | 2.7V | 04:10:43 | 01:11:30 | 00:00:00 | |
| DL1ZP-14 | 2026-09-01 05:42:53 | 49.72370 | 8.20664 | 80° | 86km/h | 13263m | 4.2m/s | -54.6°C | 3.1% | 166.3hPa | 2.6V | 00:00:00 | 00:00:00 | 00:00:00 | |
| DB0UT-7 | 2026-09-01 05:42:51 | 49.72366 | 8.20631 | 80° | 82km/h | 13258m | 4.8m/s | -54.5°C | 6.3% | 166.4hPa | 2.7V | 00:00:00 | 01:11:30 | 00:00:00 | |
| DJ2DS-15 | 2026-09-01 05:42:50 | 49.72362 | 8.20599 | 81° | 82km/h | 13254m | 3.8m/s | -54.4°C | 6.2% | 166.4hPa | 2.7V | 00:00:00 | 01:11:29 | 00:00:00 | |
| DL8DAS-15 | 2026-09-01 05:42:49 | 49.72362 | 8.20599 | 81° | 84km/h | 13254m | 3.9m/s | -54.5°C | 3.1% | 166.5hPa | 2.7V | 00:00:00 | 00:00:00 | 00:00:00 | |
| DM0DOS-11 | 2026-09-01 05:42:46 | 49.72337 | 8.20307 | 81° | 82km/h | 13216m | 3.6m/s | -54.3°C | 6.4% | 167.5hPa | 2.7V | 04:10:47 | 01:11:20 | 00:00:00 | |
| BIOWL1-15 | 2026-09-01 05:42:40 | 49.72334 | 8.20275 | 82° | 84km/h | 13212m | 4.3m/s | -54.2°C | 3.4% | 167.6hPa | 2.7V | 04:11:34 | 01:11:19 | 00:00:00 | |
| DJ2KF-10 | 2026-09-01 05:42:40 | 49.72334 | 8.20275 | 82° | 80km/h | 13212m | 4.3m/s | -54.2°C | 6.4% | 167.6hPa | 2.7V | 00:00:00 | 01:11:19 | 00:00:00 | |
| DF7PN | 2026-09-01 05:42:39 | 49.72331 | 8.20243 | 82° | 84km/h | 13207m | 4.0m/s | -54.2°C | 3.2% | 167.7hPa | 2.7V | 00:00:00 | 00:00:00 | 00:00:00 | |
| DN1GJH-1 | 2026-09-01 05:42:37 | 49.72328 | 8.20210 | 83° | 84km/h | 13204m | 3.6m/s | 0°C | 0% | 0hPa | 2.7V | 00:00:00 | 00:00:00 | 00:00:00 | |
| DM0DOS-11 | 2026-09-01 05:42:36 | 49.72308 | 8.19992 | 81° | 78km/h | 13175m | 4.1m/s | -54.1°C | 6.4% | 168.6hPa | 2.7V | 04:10:57 | 01:11:10 | 00:00:00 | |
| BIOWL1-15 | 2026-09-01 05:42:32 | 49.72306 | 8.19961 | 83° | 80km/h | 13171m | 4.5m/s | -54°C | 3.7% | 168.7hPa | 2.6V | 04:11:34 | 01:11:09 | 00:00:00 | |
| DJ2DS-15 | 2026-09-01 05:42:30 | 49.72306 | 8.19961 | 83° | 77km/h | 13171m | 4.4m/s | -54.0°C | 6.5% | 168.6hPa | 2.6V | 00:00:00 | 01:11:09 | 00:00:00 | |
| DL8DAS-14 | 2026-09-01 05:42:29 | 49.72303 | 8.19930 | 82° | 80km/h | 13167m | 3.7m/s | -54.0°C | 3.3% | 168.8hPa | 2.7V | 00:00:00 | 00:00:00 | 00:00:00 | |
| DM0DOS-11 | 2026-09-01 05:42:26 | 49.72281 | 8.19690 | 81° | 77km/h | 13136m | 4.4m/s | -53.9°C | 6.7% | 169.6hPa | 2.7V | 04:11:07 | 01:11:00 | 00:00:00 | |
| BIOWL1-15 | 2026-09-01 05:42:19 | 49.72276 | 8.19629 | 83° | 78km/h | 13127m | 3.7m/s | -53.8°C | 4.1% | 169.8hPa | 2.6V | 04:11:34 | 01:10:58 | 00:00:00 | |
| DM0DOS-11 | 2026-09-01 05:42:16 | 49.72259 | 8.19394 | 85° | 69km/h | 13095m | 3.7m/s | -53.6°C | 7.1% | 170.7hPa | 2.7V | 04:11:17 | 01:10:50 | 00:00:00 | |
| BIOWL1-15 | 2026-09-01 05:42:08 | 49.72256 | 8.19311 | 86° | 73km/h | 13082m | 4.5m/s | -53.6°C | 4.8% | 171hPa | 2.6V | 04:11:34 | 01:10:47 | 00:00:00 | |
| DF7PN | 2026-09-01 05:42:08 | 49.72256 | 8.19311 | 85° | 71km/h | 13082m | 4.5m/s | -53.6°C | 3.9% | 171.0hPa | 2.7V | 00:00:00 | 00:00:00 | 00:00:00 | |
| DM0DOS-11 | 2026-09-01 05:42:06 | 49.72247 | 8.19101 | 87° | 77km/h | 13054m | 3.6m/s | -53.8°C | 7.4% | 171.8hPa | 2.7V | 04:11:27 | 01:10:40 | 00:00:00 | |
| BIOWL1-15 | 2026-09-01 05:42:02 | 49.72246 | 8.19013 | 88° | 73km/h | 13041m | 4.8m/s | -53.9°C | 5.9% | 172.1hPa | 2.6V | 04:11:34 | 01:10:37 | 00:00:00 | |
| DL8DAS-14 | 2026-09-01 05:41:58 | 49.72246 | 8.19013 | 87° | 73km/h | 13041m | 4.8m/s | -53.9°C | 4.5% | 172.1hPa | 2.7V | 00:00:00 | 00:00:00 | 00:00:00 | |
| DJ2DS-15 | 2026-09-01 05:41:57 | 49.72245 | 8.18985 | 88° | 71km/h | 13037m | 3.5m/s | -53.9°C | 4.6% | 172.3hPa | 2.7V | 00:00:00 | 00:00:00 | 00:00:00 | |
| DM0DOS-11 | 2026-09-01 05:41:56 | 49.72245 | 8.18809 | 92° | 78km/h | 13013m | 4.7m/s | -53.9°C | 8.7% | 172.9hPa | 2.7V | 04:11:37 | 01:10:30 | 00:00:00 | |
| BIOWL1-15 | 2026-09-01 05:41:48 | 49.72247 | 8.18715 | 91° | 80km/h | 13000m | 3.4m/s | -54.2°C | 7.6% | 173.2hPa | 2.6V | 04:12:25 | 01:10:27 | 00:00:00 | |
| BIOWL1-15 | 2026-09-01 05:41:39 | 49.72255 | 8.18379 | 94° | 82km/h | 12957m | 4.6m/s | -54.6°C | 9.6% | 174.4hPa | 2.6V | 04:12:25 | 01:10:16 | 00:00:00 | |
| DF7PN | 2026-09-01 05:41:37 | 49.72256 | 8.18347 | 95° | 82km/h | 12952m | 4.3m/s | -54.6°C | 6.6% | 174.5hPa | 2.6V | 00:00:00 | 00:00:00 | 00:00:00 | |
| DM0DOS-11 | 2026-09-01 05:41:36 | 49.72268 | 8.18192 | 100° | 78km/h | 12932m | 3.3m/s | -55.5°C | 12.1% | 175.1hPa | 2.6V | 04:11:57 | 01:10:10 | 00:00:00 | |
| DL9PN | 2026-09-01 05:41:35 | 49.72258 | 8.18315 | 94° | 80km/h | 12948m | 4.5m/s | -54.9°C | 7.0% | 174.6hPa | 2.6V | 00:00:00 | 00:00:00 | 00:00:00 | |
| DO3MHA-11 | 2026-09-01 05:41:34 | 49.72260 | 8.18284 | 96° | 78km/h | 12944m | 4.0m/s | -55.0°C | 11.4% | 174.7hPa | 2.6V | 00:00:00 | 01:10:13 | 00:00:00 | |
| BIOWL7-15 | 2026-09-01 05:41:33 | 49.72260 | 8.18284 | 96° | 80km/h | 12944m | 4.0m/s | -55.0°C | 7.4% | 174.7hPa | 2.6V | 00:00:00 | 00:00:00 | 00:00:00 | |
| DJ2KF-10 | 2026-09-01 05:41:32 | 49.72265 | 8.18223 | 99° | 78km/h | 12936m | 4.5m/s | -55.3°C | 11.9% | 174.9hPa | 2.6V | 04:11:00 | 01:10:11 | 00:00:00 | |
| DJ2DS-15 | 2026-09-01 05:41:30 | 49.72271 | 8.18162 | 101° | 82km/h | 12928m | 4.5m/s | -55.6°C | 12.4% | 175.1hPa | 2.7V | 00:00:00 | 01:10:09 | 00:00:00 | |
| DL8DAS-14 | 2026-09-01 05:41:27 | 49.72282 | 8.18073 | 100° | 77km/h | 12916m | 3.5m/s | -55.9°C | 8.6% | 175.5hPa | 2.7V | 00:00:00 | 00:00:00 | 00:00:00 | |
| DM0DOS-11 | 2026-09-01 05:41:26 | 49.72297 | 8.17891 | 96° | 82km/h | 12889m | 5.2m/s | -56.4°C | 14.1% | 176.2hPa | 2.7V | 04:12:07 | 01:10:00 | 00:00:00 | |
| BIOWL1-15 | 2026-09-01 05:41:26 | 49.72285 | 8.18044 | 99° | 77km/h | 12912m | 4.8m/s | -56°C | 12.3% | 175.6hPa | 2.7V | 04:12:25 | 01:10:05 | 00:00:00 | |
| DO3MHA-11 | 2026-09-01 05:41:24 | 49.72290 | 8.17984 | 97° | 84km/h | 12903m | 4.1m/s | -56.1°C | 13.3% | 175.8hPa | 2.6V | 00:00:00 | 01:10:03 | 00:00:00 | |
| DN1GJH-1 | 2026-09-01 05:41:23 | 49.72290 | 8.17984 | 97° | 78km/h | 12903m | 4.2m/s | 0°C | 0% | 0hPa | 2.7V | 00:00:00 | 00:00:00 | 00:00:00 | |
| DB0ND-19 | 2026-09-01 05:41:22 | 49.72297 | 8.17891 | 96° | 80km/h | 12889m | 5.2m/s | -56.4°C | 9.4% | 176.2hPa | 2.7V | 00:00:00 | 00:00:00 | 00:00:00 | |
| DB0UT-7 | 2026-09-01 05:41:21 | 49.72297 | 8.17891 | 97° | 93km/h | 12889m | 5.1m/s | -56.4°C | 14.1% | 176.2hPa | 2.7V | 00:00:00 | 00:00:00 | 00:00:00 | |
| DB0UT-9 | 2026-09-01 05:41:20 | 49.72297 | 8.17891 | 97° | 82km/h | 12889m | 5.2m/s | -56.4°C | 9.4% | 176.2hPa | 2.7V | 04:12:00 | 00:00:00 | 00:00:00 | |
| DL1ZP-14 | 2026-09-01 05:41:19 | 49.72302 | 8.17827 | 97° | 84km/h | 12881m | 4.4m/s | -56.5°C | 9.7% | 176.4hPa | 2.7V | 00:00:00 | 00:00:00 | 00:00:00 | |
| NBG1-10 | 2026-09-01 05:41:18 | 49.72304 | 8.17794 | 99° | 95km/h | 12877m | 3.6m/s | -56.4°C | 14.7% | 176.6hPa | 2.6V | 00:00:00 | 01:09:57 | 00:00:00 | |
| DM0DOS-11 | 2026-09-01 05:41:16 | 49.72325 | 8.17557 | 95° | 89km/h | 12848m | 3.6m/s | -56.7°C | 16.2% | 177.3hPa | 2.6V | 04:12:17 | 01:09:50 | 00:00:00 | |
| BIOWL1-15 | 2026-09-01 05:41:15 | 49.72313 | 8.17694 | 98° | 88km/h | 12865m | 3.4m/s | -56.5°C | 14.6% | 176.9hPa | 2.7V | 04:12:25 | 01:09:54 | 00:00:00 | |
| DO3MHA-11 | 2026-09-01 05:41:14 | 49.72316 | 8.17660 | 99° | 89km/h | 12861m | 4.6m/s | -56.5°C | 15.3% | 177.0hPa | 2.6V | 04:12:00 | 01:09:53 | 00:00:00 | |
| DJ2DS-15 | 2026-09-01 05:41:10 | 49.72327 | 8.17521 | 97° | 97km/h | 12844m | 4.7m/s | -56.7°C | 16.5% | 177.4hPa | 2.6V | 00:00:00 | 01:09:49 | 00:00:00 | |
| DM0DOS-11 | 2026-09-01 05:41:06 | 49.72348 | 8.17198 | 95° | 97km/h | 12807m | 4.7m/s | -57.5°C | 18.7% | 178.4hPa | 2.6V | 04:12:27 | 01:09:40 | 00:00:00 | |
| BIOWL1-15 | 2026-09-01 05:41:04 | 49.72341 | 8.17309 | 96° | 93km/h | 12819m | 3.4m/s | -57°C | 17.8% | 178.2hPa | 2.7V | 04:12:25 | 01:09:43 | 00:00:00 | |
| BIOWL1-15 | 2026-09-01 05:40:57 | 49.72364 | 8.16891 | 94° | 100km/h | 12773m | 4.5m/s | -57.9°C | 20.5% | 179.4hPa | 2.7V | 04:13:16 | 01:09:32 | 00:00:00 | |
| DM0DOS-11 | 2026-09-01 05:40:56 | 49.72367 | 8.16813 | 93° | 102km/h | 12765m | 3.4m/s | -57.9°C | 21% | 179.6hPa | 2.6V | 04:12:37 | 01:09:30 | 00:00:00 | |
| DL8DAS-14 | 2026-09-01 05:40:56 | 49.72359 | 8.17007 | 94° | 97km/h | 12786m | 4.0m/s | -57.8°C | 14.2% | 179.1hPa | 2.7V | 00:00:00 | 00:00:00 | 00:00:00 | |
| BIOWL9-15 | 2026-09-01 05:40:51 | 49.72369 | 8.16773 | 92° | 100km/h | 12761m | 4.6m/s | -57.9°C | 15.2% | 179.8hPa | 2.7V | 00:00:00 | 00:00:00 | 00:00:00 | |
| DB0ND-19 | 2026-09-01 05:40:50 | 49.72369 | 8.16773 | 92° | 100km/h | 12761m | 4.6m/s | -57.9°C | 15.2% | 179.8hPa | 2.7V | 00:00:00 | 00:00:00 | 00:00:00 | |
| DL1ZP-14 | 2026-09-01 05:40:48 | 49.72370 | 8.16694 | 91° | 99km/h | 12753m | 4.7m/s | -58.0°C | 15.6% | 180.0hPa | 2.7V | 00:00:00 | 00:00:00 | 00:00:00 | |
| DM0DOS-11 | 2026-09-01 05:40:46 | 49.72373 | 8.16429 | 90° | 97km/h | 12725m | 4.7m/s | -58.2°C | 24.1% | 180.8hPa | 2.7V | 04:12:47 | 01:09:20 | 00:00:00 | |
| BIOWL1-15 | 2026-09-01 05:40:43 | 49.72373 | 8.16503 | 91° | 95km/h | 12733m | 4.5m/s | -58.2°C | 23.6% | 180.6hPa | 2.6V | 04:13:16 | 01:09:22 | 00:00:00 | |
| DB0NH | 2026-09-01 05:40:40 | 49.72373 | 8.16392 | 90° | 51km/h | 12721m | 3.6m/s | 0°C | 0% | 0hPa | 2.6V | 00:00:00 | 01:09:19 | 00:00:00 | |
| SFWM-10 | 2026-09-01 05:40:39 | 49.72373 | 8.16392 | 91° | 95km/h | 12721m | 3.7m/s | 0°C | 0% | 0hPa | 2.6V | 00:00:00 | 00:00:00 | 00:00:00 | |
| DB0UT-9 | 2026-09-01 05:40:38 | 49.72373 | 8.16355 | 90° | 93km/h | 12717m | 5.1m/s | -58.5°C | 18.6% | 181.1hPa | 2.6V | 04:13:00 | 00:00:00 | 00:00:00 | |
| DH7VM-15 | 2026-09-01 05:40:36 | 49.72372 | 8.16283 | 89° | 91km/h | 12708m | 4.6m/s | -58.8°C | 19.6% | 181.3hPa | 2.6V | 00:00:00 | 00:00:00 | 00:00:00 | |
| DM0DOS-11 | 2026-09-01 05:40:35 | 49.72365 | 8.16038 | 87° | 88km/h | 12678m | 3.9m/s | -59.3°C | 28.5% | 182.2hPa | 2.6V | 04:12:58 | 01:09:09 | 00:00:00 | |
| BIOWL1-15 | 2026-09-01 05:40:32 | 49.72367 | 8.16108 | 87° | 89km/h | 12686m | 3.7m/s | -59.3°C | 27.4% | 182hPa | 2.6V | 04:13:16 | 01:09:11 | 00:00:00 | |
| DJ2DS-15 | 2026-09-01 05:40:30 | 49.72365 | 8.16038 | 88° | 88km/h | 12678m | 3.9m/s | -59.3°C | 28.5% | 182.2hPa | 2.6V | 04:12:00 | 01:09:09 | 00:00:00 | |
| DL8DAS-15 | 2026-09-01 05:40:29 | 49.72365 | 8.16038 | 89° | 88km/h | 12678m | 3.9m/s | -59.3°C | 21.1% | 182.2hPa | 2.6V | 00:00:00 | 00:00:00 | 00:00:00 | |
| DM0DOS-11 | 2026-09-01 05:40:25 | 49.72345 | 8.15699 | 80° | 84km/h | 12637m | 5m/s | -59.7°C | 31.3% | 183.4hPa | 2.6V | 04:13:08 | 01:08:59 | 00:00:00 | |
| BIOWL1-15 | 2026-09-01 05:40:21 | 49.72348 | 8.15731 | 82° | 84km/h | 12642m | 3.8m/s | -59.7°C | 29.1% | 183.3hPa | 2.7V | 04:13:16 | 01:09:00 | 00:00:00 | |
| DB0UT-7 | 2026-09-01 05:40:21 | 49.72348 | 8.15731 | 82° | 88km/h | 12642m | 3.7m/s | -59.7°C | 31.1% | 183.2hPa | 2.7V | 00:00:00 | 00:00:00 | 00:00:00 | |
| DJ2KF-10 | 2026-09-01 05:40:20 | 49.72344 | 8.15699 | 81° | 88km/h | 12638m | 4.9m/s | -59.6°C | 31.3% | 183.4hPa | 2.7V | 00:00:00 | 01:08:59 | 00:00:00 | |
| DM7RM-13 | 2026-09-01 05:40:19 | 49.72345 | 8.15699 | 82° | 84km/h | 12638m | 5.0m/s | -59.7°C | 23.3% | 183.4hPa | 2.7V | 04:13:00 | 00:00:00 | 00:00:00 | |
| DB0UT-9 | 2026-09-01 05:40:18 | 49.72341 | 8.15667 | 81° | 84km/h | 12633m | 4.2m/s | -59.7°C | 23.8% | 183.5hPa | 2.7V | 04:13:00 | 00:00:00 | 00:00:00 | |
| DL1ZP-14 | 2026-09-01 05:40:17 | 49.72333 | 8.15602 | 78° | 84km/h | 12624m | 3.5m/s | -59.6°C | 24.1% | 183.8hPa | 2.7V | 00:00:00 | 00:00:00 | 00:00:00 | |
| DM0DOS-11 | 2026-09-01 05:40:15 | 49.72304 | 8.15358 | 80° | 93km/h | 12598m | 4.3m/s | -59.6°C | 32.1% | 184.5hPa | 2.7V | 04:13:18 | 01:08:49 | 00:00:00 | |
| BIOWL1-15 | 2026-09-01 05:40:11 | 49.72308 | 8.15393 | 81° | 93km/h | 12602m | 3.7m/s | -59.6°C | 30.5% | 184.4hPa | 2.7V | 04:14:07 | 01:08:50 | 00:00:00 | |
| BIOWL1-15 | 2026-09-01 05:40:02 | 49.72254 | 8.15024 | 76° | 89km/h | 12555m | 4.3m/s | -59.6°C | 31.9% | 185.8hPa | 2.6V | 04:14:07 | 01:08:39 | 00:00:00 | |
| DM0DOS-11 | 2026-09-01 05:40:00 | 49.72254 | 8.15024 | 75° | 89km/h | 12555m | 4.3m/s | -59.6°C | 33.4% | 185.8hPa | 2.6V | 04:13:28 | 01:08:39 | 00:00:00 | |
| DF3TZ-5 | 2026-09-01 05:39:59 | 49.72184 | 8.14605 | 73° | 80km/h | 12502m | 3.2m/s | -59.4°C | 29.1% | 187.4hPa | 2.6V | 00:00:00 | 00:00:00 | 00:00:00 | |
| DB0UT-9 | 2026-09-01 05:39:57 | 49.72243 | 8.14956 | 78° | 89km/h | 12548m | 4.2m/s | -59.7°C | 25.9% | 186.1hPa | 2.6V | 04:14:00 | 00:00:00 | 00:00:00 | |
| DM0DOS-11 | 2026-09-01 05:39:55 | 49.72200 | 8.14696 | 74° | 80km/h | 12514m | 5m/s | -59.4°C | 36.6% | 187hPa | 2.6V | 04:13:38 | 01:08:29 | 00:00:00 | |
| BIOWL1-15 | 2026-09-01 05:39:53 | 49.72195 | 8.14666 | 75° | 80km/h | 12510m | 3.8m/s | -59.4°C | 34% | 187.1hPa | 2.6V | 04:14:07 | 01:08:28 | 00:00:00 | |
| DB0ND-19 | 2026-09-01 05:39:48 | 49.72190 | 8.14635 | 73° | 80km/h | 12506m | 5.0m/s | -59.4°C | 28.4% | 187.2hPa | 2.7V | 00:00:00 | 00:00:00 | 00:00:00 | |
| DL1ZP-14 | 2026-09-01 05:39:46 | 49.72178 | 8.14574 | 73° | 80km/h | 12498m | 3.9m/s | -59.4°C | 28.7% | 187.5hPa | 2.7V | 00:00:00 | 00:00:00 | 00:00:00 | |
| DM0DOS-11 | 2026-09-01 05:39:45 | 49.72149 | 8.14392 | 77° | 80km/h | 12474m | 4.4m/s | -59.3°C | 37.2% | 188.3hPa | 2.7V | 04:13:48 | 01:08:19 | 00:00:00 | |
| BIOWL1-15 | 2026-09-01 05:39:39 | 49.72145 | 8.14361 | 77° | 80km/h | 12469m | 4m/s | -59.3°C | 36.2% | 188.4hPa | 2.6V | 04:14:07 | 01:08:18 | 00:00:00 | |
| NBG1-10 | 2026-09-01 05:39:39 | 49.72145 | 8.14361 | 77° | 78km/h | 12470m | 3.9m/s | -59.3°C | 37.5% | 188.4hPa | 2.7V | 00:00:00 | 01:08:18 | 00:00:00 | |
| DM7RM-13 | 2026-09-01 05:39:38 | 49.72144 | 8.14361 | 78° | 80km/h | 12470m | 4.0m/s | -59.3°C | 28.8% | 188.4hPa | 2.7V | 04:14:00 | 00:00:00 | 00:00:00 | |
| BIOWL7-15 | 2026-09-01 05:39:37 | 49.72140 | 8.14331 | 76° | 80km/h | 12465m | 4.8m/s | -59.3°C | 29.0% | 188.5hPa | 2.7V | 04:14:00 | 00:00:00 | 00:00:00 | |
| DL0LBS | 2026-09-01 05:39:36 | 49.72134 | 8.14301 | 75° | 78km/h | 12461m | 3.1m/s | -59.3°C | 29.5% | 188.6hPa | 2.7V | 04:14:00 | 00:00:00 | 00:00:00 | |
| DM0DOS-11 | 2026-09-01 05:39:35 | 49.72100 | 8.14094 | 78° | 77km/h | 12433m | 3.6m/s | -59.2°C | 40.7% | 189.5hPa | 2.7V | 04:13:58 | 01:08:09 | 00:00:00 | |
| DO3MHA-11 | 2026-09-01 05:39:34 | 49.72119 | 8.14212 | 75° | 78km/h | 12449m | 4.6m/s | -59.2°C | 39.6% | 188.9hPa | 2.7V | 04:13:00 | 01:08:13 | 00:00:00 | |
| DJ2DS-15 | 2026-09-01 05:39:33 | 49.72109 | 8.14153 | 76° | 77km/h | 12441m | 4.0m/s | -59.2°C | 31.9% | 189.3hPa | 2.7V | 00:00:00 | 00:00:00 | 00:00:00 | |
| DO1YAY-16 | 2026-09-01 05:39:32 | 49.72104 | 8.14124 | 77° | 77km/h | 12437m | 4.0m/s | -59.2°C | 31.8% | 189.4hPa | 2.7V | 00:00:00 | 00:00:00 | 00:00:00 | |
| DL9PN | 2026-09-01 05:39:31 | 49.72104 | 8.14124 | 77° | 77km/h | 12437m | 4.0m/s | -59.2°C | 31.8% | 189.4hPa | 2.7V | 00:00:00 | 00:00:00 | 00:00:00 | |
| DJ2DS-15 | 2026-09-01 05:39:30 | 49.72100 | 8.14094 | 79° | 78km/h | 12433m | 3.5m/s | -59.1°C | 40.7% | 189.4hPa | 2.7V | 00:00:00 | 01:08:09 | 00:00:00 | |
| DF3TZ-5 | 2026-09-01 05:39:28 | 49.72088 | 8.14004 | 79° | 78km/h | 12421m | 5.2m/s | -59.4°C | 33.9% | 189.9hPa | 2.7V | 00:00:00 | 00:00:00 | 00:00:00 | |
| BIOWL1-15 | 2026-09-01 05:39:28 | 49.72092 | 8.14034 | 79° | 78km/h | 12425m | 3.7m/s | -59.3°C | 39.4% | 189.7hPa | 2.7V | 04:14:07 | 01:08:07 | 00:00:00 | |
| DO3MHA-11 | 2026-09-01 05:39:24 | 49.72077 | 8.13914 | 78° | 78km/h | 12408m | 4.7m/s | -59.4°C | 44.0% | 190.2hPa | 2.7V | 00:00:00 | 01:08:03 | 00:00:00 | |
| HEMX73-11 | 2026-09-01 05:39:23 | 49.72077 | 8.13914 | 79° | 78km/h | 12408m | 4.7m/s | -59.5°C | 34.3% | 190.3hPa | 2.6V | 04:14:00 | 00:00:00 | 00:00:00 | |
| DM0DOS-11 | 2026-09-01 05:39:21 | 49.72060 | 8.13793 | 77° | 78km/h | 12392m | 4.7m/s | -59.3°C | 44.2% | 190.7hPa | 2.6V | 04:14:08 | 01:07:59 | 00:00:00 | |
| BIOWL1-15 | 2026-09-01 05:39:18 | 49.72052 | 8.13734 | 78° | 77km/h | 12383m | 5m/s | -59.3°C | 41.2% | 191hPa | 2.7V | 04:14:58 | 01:07:57 | 00:00:00 | |
| BIOWL7-15 | 2026-09-01 05:39:17 | 49.72051 | 8.13734 | 79° | 77km/h | 12383m | 5.0m/s | -59.3°C | 35.1% | 191.0hPa | 2.7V | 00:00:00 | 00:00:00 | 00:00:00 | |
| DM0DOS-11 | 2026-09-01 05:39:15 | 49.72028 | 8.13490 | 80° | 84km/h | 12349m | 3.6m/s | -59°C | 42.2% | 192hPa | 2.7V | 04:14:18 | 01:07:49 | 00:00:00 | |
| BIOWL1-15 | 2026-09-01 05:39:09 | 49.72018 | 8.13395 | 82° | 78km/h | 12337m | 3.5m/s | -58.9°C | 41.6% | 192.4hPa | 2.6V | 04:14:58 | 01:07:46 | 00:00:00 | |
| DM3KS-11 | 2026-09-01 05:39:06 | 49.72012 | 8.13335 | 81° | 77km/h | 12328m | 4.5m/s | -58.9°C | 33.9% | 192.6hPa | 2.8V | 00:00:00 | 00:00:00 | 00:00:00 | |
| DM0DOS-11 | 2026-09-01 05:39:05 | 49.72005 | 8.13186 | 87° | 80km/h | 12307m | 4.3m/s | -59°C | 44.3% | 193.3hPa | 2.8V | 04:14:28 | 01:07:39 | 00:00:00 | |
| BIOWL1-15 | 2026-09-01 05:38:57 | 49.71999 | 8.13091 | 83° | 80km/h | 12293m | 4.9m/s | -59.1°C | 43.6% | 193.8hPa | 2.6V | 04:14:58 | 01:07:36 | 00:00:00 | |
| BIOWL1-15 | 2026-09-01 05:38:46 | 49.71989 | 8.12746 | 88° | 78km/h | 12245m | 4.5m/s | -59.6°C | 46.1% | 195.2hPa | 2.7V | 04:14:58 | 01:07:25 | 00:00:00 | |
| DO3MHA-11 | 2026-09-01 05:38:44 | 49.71987 | 8.12683 | 87° | 84km/h | 12237m | 4.6m/s | -59.4°C | 50.1% | 195.4hPa | 2.6V | 04:14:00 | 01:07:23 | 00:00:00 | |
| HEMX73-11 | 2026-09-01 05:38:42 | 49.71986 | 8.12651 | 87° | 82km/h | 12232m | 4.4m/s | -59.5°C | 39.5% | 195.6hPa | 2.6V | 04:14:00 | 00:00:00 | 00:00:00 | |
| DM0DOS-11 | 2026-09-01 05:38:38 | 49.71980 | 8.12454 | 89° | 84km/h | 12207m | 4.8m/s | -59.3°C | 49.5% | 196.4hPa | 2.6V | 04:14:51 | 01:07:16 | 00:00:00 | |
| BIOWL1-15 | 2026-09-01 05:38:37 | 49.71981 | 8.12388 | 92° | 84km/h | 12199m | 4.7m/s | -59.2°C | 47.1% | 196.7hPa | 2.8V | 04:14:58 | 01:07:14 | 00:00:00 | |
| DL8DAS-15 | 2026-09-01 05:38:36 | 49.71980 | 8.12454 | 91° | 84km/h | 12207m | 4.8m/s | -59.3°C | 39.3% | 196.4hPa | 2.6V | 00:00:00 | 00:00:00 | 00:00:00 | |
| DM3KS-11 | 2026-09-01 05:38:35 | 49.71981 | 8.12356 | 91° | 80km/h | 12194m | 3.6m/s | -59.2°C | 39.8% | 196.8hPa | 2.6V | 00:00:00 | 00:00:00 | 00:00:00 | |
| DO3MHA-11 | 2026-09-01 05:38:34 | 49.71981 | 8.12356 | 92° | 84km/h | 12195m | 3.5m/s | -59.1°C | 50.2% | 196.8hPa | 2.6V | 00:00:00 | 01:07:13 | 00:00:00 | |
| NBG1-10 | 2026-09-01 05:38:33 | 49.71982 | 8.12323 | 92° | 84km/h | 12191m | 3.2m/s | -59.1°C | 49.8% | 196.9hPa | 2.6V | 00:00:00 | 01:07:12 | 00:00:00 | |
| DJ2DS-15 | 2026-09-01 05:38:30 | 49.71982 | 8.12224 | 89° | 82km/h | 12179m | 4.4m/s | -59.1°C | 50.8% | 197.3hPa | 2.7V | 00:00:00 | 01:07:09 | 00:00:00 | |
| DL9PN | 2026-09-01 05:38:29 | 49.71981 | 8.12157 | 88° | 84km/h | 12171m | 3.4m/s | -59.1°C | 41.2% | 197.6hPa | 2.6V | 00:00:00 | 00:00:00 | 00:00:00 | |
| DM0DOS-11 | 2026-09-01 05:38:28 | 49.71981 | 8.12057 | 91° | 84km/h | 12159m | 4.8m/s | -59.2°C | 52.7% | 197.9hPa | 2.6V | 04:15:03 | 01:07:04 | 00:00:00 | |
| BIOWL1-15 | 2026-09-01 05:38:24 | 49.71984 | 8.11928 | 92° | 82km/h | 12142m | 4.6m/s | -59.3°C | 50.4% | 198.4hPa | 2.6V | 04:15:49 | 01:07:00 | 00:00:00 | |
| BIOWL1-15 | 2026-09-01 05:38:13 | 49.71984 | 8.11674 | 88° | 82km/h | 12109m | 4.2m/s | -59.5°C | 51.7% | 199.5hPa | 2.6V | 04:15:49 | 01:06:52 | 00:00:00 | |
| DL1ZP-14 | 2026-09-01 05:38:13 | 49.71984 | 8.11674 | 88° | 82km/h | 12109m | 4.2m/s | -59.5°C | 43.1% | 199.5hPa | 2.6V | 00:00:00 | 00:00:00 | 00:00:00 | |
| DJ2DS-15 | 2026-09-01 05:38:10 | 49.71982 | 8.11579 | 89° | 88km/h | 12097m | 2.5m/s | -59.5°C | 55.8% | 199.9hPa | 2.6V | 00:00:00 | 01:06:49 | 00:00:00 | |
| DF1GD-15 | 2026-09-01 05:38:09 | 49.71982 | 8.11579 | 89° | 82km/h | 12097m | 2.5m/s | -59.5°C | 44.7% | 199.9hPa | 2.6V | 04:15:00 | 00:00:00 | 00:00:00 | |
| DM0DOS-11 | 2026-09-01 05:38:08 | 49.71981 | 8.11372 | 89° | 91km/h | 12073m | 4.5m/s | -59.8°C | 60.1% | 200.7hPa | 2.6V | 04:15:24 | 01:06:43 | 00:00:00 | |
| BIOWL1-15 | 2026-09-01 05:38:02 | 49.71981 | 8.11234 | 89° | 86km/h | 12057m | 4.2m/s | -59.8°C | 54% | 201.2hPa | 2.6V | 04:15:49 | 01:06:39 | 00:00:00 | |
| BIOWL1-15 | 2026-09-01 05:37:53 | 49.71973 | 8.10931 | 89° | 89km/h | 12020m | 4.4m/s | -59.6°C | 55.2% | 202.4hPa | 2.6V | 04:15:49 | 01:06:30 | 00:00:00 | |
| BIOWL7-15 | 2026-09-01 05:37:52 | 49.71974 | 8.10999 | 89° | 88km/h | 12029m | 4.6m/s | -59.7°C | 48.2% | 202.1hPa | 2.6V | 00:00:00 | 00:00:00 | 00:00:00 | |
| DB0UT-7 | 2026-09-01 05:37:50 | 49.71973 | 8.10895 | 91° | 97km/h | 12016m | 2.8m/s | -59.5°C | 60.1% | 202.4hPa | 2.6V | 00:00:00 | 01:06:29 | 00:00:00 | |
| DF1GD-15 | 2026-09-01 05:37:49 | 49.71973 | 8.10895 | 91° | 91km/h | 12016m | 2.9m/s | -59.6°C | 48.5% | 202.5hPa | 2.6V | 04:15:00 | 00:00:00 | 00:00:00 | |
| DM0DOS-11 | 2026-09-01 05:37:48 | 49.71973 | 8.10751 | 91° | 93km/h | 11998m | 3.4m/s | -59.5°C | 60.7% | 203.2hPa | 2.6V | 04:15:42 | 01:06:25 | 00:00:00 | |
| BIOWL1-15 | 2026-09-01 05:37:41 | 49.71975 | 8.10568 | 91° | 93km/h | 11977m | 3.8m/s | -59.3°C | 57.5% | 203.8hPa | 2.8V | 04:15:49 | 01:06:20 | 00:00:00 | |
| DM0DOS-11 | 2026-09-01 05:37:38 | 49.71975 | 8.10385 | 90° | 95km/h | 11957m | 3.2m/s | -59.2°C | 64.8% | 204.5hPa | 2.8V | 04:15:52 | 01:06:15 | 00:00:00 | |
| BIOWL1-15 | 2026-09-01 05:37:30 | 49.71980 | 8.10119 | 92° | 100km/h | 11926m | 3.8m/s | -59.2°C | 63.4% | 205.4hPa | 2.6V | 04:16:40 | 01:06:08 | 00:00:00 | |
| DJ2DS-15 | 2026-09-01 05:37:30 | 49.71979 | 8.10158 | 93° | 100km/h | 11931m | 5.1m/s | -59.2°C | 68.3% | 205.2hPa | 2.6V | 00:00:00 | 01:06:09 | 00:00:00 | |
| DF1GD-15 | 2026-09-01 05:37:29 | 49.71980 | 8.10158 | 93° | 99km/h | 11931m | 5.1m/s | -59.2°C | 55.8% | 205.3hPa | 2.6V | 04:16:00 | 00:00:00 | 00:00:00 | |
| DM0DOS-11 | 2026-09-01 05:37:28 | 49.71978 | 8.09889 | 86° | 95km/h | 11898m | 3.7m/s | -59.6°C | 70.8% | 206.3hPa | 2.6V | 04:16:05 | 01:06:02 | 00:00:00 | |
| BIOWL1-15 | 2026-09-01 05:37:21 | 49.71974 | 8.09732 | 90° | 106km/h | 11881m | 4m/s | -59.5°C | 64.3% | 206.9hPa | 2.6V | 04:16:40 | 01:05:58 | 00:00:00 | |
| DB0UT-7 | 2026-09-01 05:37:20 | 49.71974 | 8.09773 | 89° | 102km/h | 11886m | 3.9m/s | -59.5°C | 70.6% | 206.7hPa | 2.6V | 00:00:00 | 00:00:00 | 00:00:00 | |
| DL8DAS-14 | 2026-09-01 05:37:19 | 49.71974 | 8.09691 | 91° | 104km/h | 11877m | 4.1m/s | -59.5°C | 57.6% | 207.1hPa | 2.6V | 00:00:00 | 00:00:00 | 00:00:00 | |
| DM0DOS-11 | 2026-09-01 05:37:18 | 49.71973 | 8.09488 | 85° | 102km/h | 11856m | 4.6m/s | -59.4°C | 71.7% | 207.7hPa | 2.6V | 04:16:15 | 01:05:52 | 00:00:00 | |
| BIOWL1-15 | 2026-09-01 05:37:08 | 49.71961 | 8.09247 | 86° | 102km/h | 11831m | 3.2m/s | -59.3°C | 67.2% | 208.6hPa | 2.8V | 04:16:40 | 01:05:46 | 00:00:00 | |
| BIOWL1-15 | 2026-09-01 05:36:58 | 49.71950 | 8.08806 | 89° | 102km/h | 11784m | 4m/s | -59.2°C | 71.7% | 210.1hPa | 2.6V | 04:16:40 | 01:05:35 | 00:00:00 | |
| DM0DOS-11 | 2026-09-01 05:36:58 | 49.71949 | 8.08689 | 89° | 100km/h | 11772m | 4.9m/s | -59.2°C | 80.1% | 210.5hPa | 2.8V | 04:16:35 | 01:05:32 | 00:00:00 | |
| BIOWL1-15 | 2026-09-01 05:36:50 | 49.71948 | 8.08489 | 90° | 106km/h | 11751m | 4.2m/s | -59.2°C | 72.5% | 211.3hPa | 2.6V | 04:16:40 | 01:05:27 | 00:00:00 | |
| DJ2DS-15 | 2026-09-01 05:36:49 | 49.71948 | 8.08530 | 90° | 106km/h | 11755m | 4.5m/s | 0°C | 0% | 0hPa | 2.6V | 00:00:00 | 01:05:28 | 00:00:00 | |
| DM0DOS-11 | 2026-09-01 05:36:48 | 49.71947 | 8.08282 | 90° | 104km/h | 11730m | 3.9m/s | -59.1°C | 79.6% | 211.9hPa | 2.6V | 04:16:45 | 01:05:22 | 00:00:00 | |
| DL8DAS-14 | 2026-09-01 05:36:48 | 49.71948 | 8.08447 | 89° | 106km/h | 11747m | 4.0m/s | -59.2°C | 68.1% | 211.4hPa | 2.8V | 00:00:00 | 00:00:00 | 00:00:00 | |
| DJ2KF-10 | 2026-09-01 05:36:47 | 49.71948 | 8.08447 | 90° | 108km/h | 11747m | 4.0m/s | -59.1°C | 82.3% | 211.3hPa | 2.8V | 00:00:00 | 01:05:26 | 00:00:00 | |
| BIOWL7-15 | 2026-09-01 05:36:46 | 49.71948 | 8.08447 | 91° | 106km/h | 11747m | 4.0m/s | -59.2°C | 68.2% | 211.4hPa | 2.8V | 00:00:00 | 00:00:00 | 00:00:00 | |
| DO3MHA-11 | 2026-09-01 05:36:44 | 49.71947 | 8.08323 | 90° | 104km/h | 11734m | 4.5m/s | -59.1°C | 80.3% | 211.8hPa | 2.8V | 00:00:00 | 01:05:23 | 00:00:00 | |
| DB0ND-19 | 2026-09-01 05:36:42 | 49.71947 | 8.08242 | 90° | 102km/h | 11726m | 4.4m/s | -59.1°C | 64.2% | 212.1hPa | 2.8V | 00:00:00 | 00:00:00 | 00:00:00 | |
| DL1ZP-14 | 2026-09-01 05:36:40 | 49.71947 | 8.08162 | 90° | 102km/h | 11717m | 4.2m/s | -59.1°C | 62.3% | 212.4hPa | 2.8V | 00:00:00 | 00:00:00 | 00:00:00 | |
| DM0DOS-11 | 2026-09-01 05:36:38 | 49.71949 | 8.07877 | 91° | 108km/h | 11688m | 4.7m/s | -58.9°C | 70.3% | 213.3hPa | 2.6V | 04:16:55 | 01:05:12 | 00:00:00 | |
| BIOWL1-15 | 2026-09-01 05:36:37 | 49.71948 | 8.08041 | 90° | 102km/h | 11705m | 4.2m/s | -59.1°C | 64.8% | 212.8hPa | 2.6V | 04:17:31 | 01:05:16 | 00:00:00 | |
| BIOWL1-15 | 2026-09-01 05:36:28 | 49.71956 | 8.07541 | 92° | 110km/h | 11656m | 4.2m/s | -58.7°C | 64.2% | 214.5hPa | 2.8V | 04:17:31 | 01:05:04 | 00:00:00 | |
| DM0DOS-11 | 2026-09-01 05:36:28 | 49.71957 | 8.07454 | 90° | 113km/h | 11648m | 4.3m/s | -58.6°C | 72% | 214.7hPa | 2.8V | 04:17:05 | 01:05:02 | 00:00:00 | |
| DF1GD-15 | 2026-09-01 05:36:27 | 49.71953 | 8.07666 | 93° | 106km/h | 11669m | 4.9m/s | -58.8°C | 58.3% | 214.1hPa | 2.7V | 04:17:00 | 00:00:00 | 00:00:00 | |
| DO3MHA-11 | 2026-09-01 05:36:24 | 49.71957 | 8.07497 | 91° | 113km/h | 11652m | 4.0m/s | -58.6°C | 71.8% | 214.5hPa | 2.7V | 00:00:00 | 01:05:03 | 00:00:00 | |
| SFWM-10 | 2026-09-01 05:36:22 | 49.71957 | 8.07453 | 91° | 113km/h | 11648m | 4.3m/s | 0°C | 0% | 0hPa | 2.8V | 00:00:00 | 00:00:00 | 00:00:00 | |
| DB0UT-7 | 2026-09-01 05:36:20 | 49.71957 | 8.07321 | 90° | 115km/h | 11635m | 4.1m/s | -58.5°C | 73.0% | 215.2hPa | 2.8V | 00:00:00 | 00:00:00 | 00:00:00 | |
| DM0DOS-11 | 2026-09-01 05:36:18 | 49.71956 | 8.07010 | 91° | 113km/h | 11605m | 4.6m/s | -58.4°C | 74.8% | 216.2hPa | 2.8V | 04:17:15 | 01:04:52 | 00:00:00 | |
| BIOWL1-15 | 2026-09-01 05:36:16 | 49.71956 | 8.07143 | 90° | 113km/h | 11617m | 3.6m/s | -58.5°C | 66.7% | 215.7hPa | 2.6V | 04:17:31 | 01:04:55 | 00:00:00 | |
| DO3MHA-11 | 2026-09-01 05:36:14 | 49.71956 | 8.07054 | 91° | 113km/h | 11609m | 3.8m/s | -58.4°C | 74.6% | 216.0hPa | 2.8V | 04:17:00 | 01:04:53 | 00:00:00 | |
| DL0LBS | 2026-09-01 05:36:12 | 49.71956 | 8.07010 | 92° | 113km/h | 11605m | 4.6m/s | -58.4°C | 61.9% | 216.2hPa | 2.8V | 04:17:00 | 00:00:00 | 00:00:00 | |
| DB0ND-19 | 2026-09-01 05:36:11 | 49.71957 | 8.06922 | 90° | 111km/h | 11596m | 5.1m/s | -58.4°C | 62.1% | 216.5hPa | 2.8V | 00:00:00 | 00:00:00 | 00:00:00 | |
| DJ2DS-15 | 2026-09-01 05:36:09 | 49.71957 | 8.06834 | 90° | 115km/h | 11587m | 5.7m/s | 0°C | 0% | 0hPa | 2.8V | 00:00:00 | 01:04:48 | 00:00:00 | |
| DM0DOS-11 | 2026-09-01 05:36:08 | 49.71951 | 8.06565 | 89° | 115km/h | 11560m | 3.8m/s | -58.1°C | 74.4% | 217.7hPa | 2.8V | 04:17:25 | 01:04:42 | 00:00:00 | |
| BIOWL1-15 | 2026-09-01 05:36:08 | 49.71954 | 8.06699 | 87° | 115km/h | 11574m | 5.2m/s | -58.2°C | 66.1% | 217.3hPa | 2.6V | 04:17:31 | 01:04:45 | 00:00:00 | |
| DF1GD-15 | 2026-09-01 05:36:07 | 49.71956 | 8.06790 | 90° | 115km/h | 11582m | 4.2m/s | -58.3°C | 63.2% | 217.0hPa | 2.7V | 04:17:00 | 00:00:00 | 00:00:00 | |
| DL8DAS-15 | 2026-09-01 05:36:06 | 49.71955 | 8.06744 | 89° | 117km/h | 11578m | 2.9m/s | -58.3°C | 62.4% | 217.1hPa | 2.7V | 04:17:00 | 00:00:00 | 00:00:00 | |
| DO3MHA-11 | 2026-09-01 05:36:04 | 49.71952 | 8.06610 | 89° | 117km/h | 11565m | 5.5m/s | -58.1°C | 74.4% | 217.5hPa | 2.7V | 00:00:00 | 01:04:43 | 00:00:00 | |
| DF2AP-13 | 2026-09-01 05:36:03 | 49.71951 | 8.06565 | 90° | 115km/h | 11560m | 3.7m/s | -58.1°C | 74.4% | 217.7hPa | 2.7V | 04:17:00 | 01:04:42 | 00:00:00 | |
| DM3KS-11 | 2026-09-01 05:35:59 | 49.71948 | 8.06386 | 87° | 117km/h | 11543m | 5.1m/s | -58.0°C | 60.4% | 218.3hPa | 2.8V | 00:00:00 | 00:00:00 | 00:00:00 | |
| DM0DOS-11 | 2026-09-01 05:35:58 | 49.71938 | 8.06112 | 86° | 113km/h | 11517m | 4.2m/s | -57.7°C | 71.7% | 219.3hPa | 2.8V | 04:17:35 | 01:04:32 | 00:00:00 | |
| BIOWL1-15 | 2026-09-01 05:35:55 | 49.71942 | 8.06201 | 86° | 117km/h | 11526m | 3.3m/s | -57.8°C | 64.5% | 218.9hPa | 2.6V | 04:18:22 | 01:04:34 | 00:00:00 | |
| BIOWL1-15 | 2026-09-01 05:35:51 | 49.71922 | 8.05756 | 86° | 119km/h | 11480m | 4.5m/s | -57.4°C | 63.2% | 220.5hPa | 2.6V | 04:18:22 | 01:04:24 | 00:00:00 | |
| DB0UT-7 | 2026-09-01 05:35:50 | 49.71932 | 8.05981 | 87° | 115km/h | 11503m | 5.2m/s | -57.5°C | 70.1% | 219.7hPa | 2.8V | 00:00:00 | 01:04:29 | 00:00:00 | |
| DJ2DS-15 | 2026-09-01 05:35:49 | 49.71930 | 8.05936 | 87° | 115km/h | 11498m | 3.7m/s | 0°C | 0% | 0hPa | 2.8V | 00:00:00 | 01:04:28 | 00:00:00 | |
| DM0DOS-11 | 2026-09-01 05:35:48 | 49.71917 | 8.05664 | 84° | 119km/h | 11471m | 4.5m/s | -57.3°C | 70.1% | 220.8hPa | 2.8V | 04:17:45 | 01:04:22 | 00:00:00 | |
| DL8DAS-14 | 2026-09-01 05:35:46 | 49.71922 | 8.05756 | 85° | 117km/h | 11480m | 4.5m/s | -57.4°C | 58.1% | 220.5hPa | 2.6V | 00:00:00 | 00:00:00 | 00:00:00 | |
| BIOWL1-15 | 2026-09-01 05:35:36 | 49.71899 | 8.05267 | 86° | 111km/h | 11433m | 4.1m/s | -56.9°C | 62.3% | 222.2hPa | 2.6V | 04:18:22 | 01:04:13 | 00:00:00 | |
| DO3MHA-11 | 2026-09-01 05:35:34 | 49.71899 | 8.05267 | 86° | 115km/h | 11433m | 4.1m/s | -56.9°C | 68.8% | 222.1hPa | 2.8V | 00:00:00 | 01:04:13 | 00:00:00 | |
| DF2AP-13 | 2026-09-01 05:35:33 | 49.71897 | 8.05223 | 85° | 115km/h | 11429m | 5.0m/s | -56.9°C | 69.0% | 222.3hPa | 2.8V | 00:00:00 | 01:04:12 | 00:00:00 | |
| DL0LBS | 2026-09-01 05:35:31 | 49.71894 | 8.05179 | 84° | 117km/h | 11424m | 3.9m/s | -56.8°C | 57.4% | 222.5hPa | 2.8V | 04:18:00 | 00:00:00 | 00:00:00 | |
| DJ2DS-15 | 2026-09-01 05:35:29 | 49.71884 | 8.05044 | 85° | 113km/h | 11412m | 3.5m/s | 0°C | 0% | 0hPa | 2.8V | 00:00:00 | 01:04:08 | 00:00:00 | |
| DM0DOS-11 | 2026-09-01 05:35:28 | 49.71873 | 8.04866 | 85° | 115km/h | 11394m | 3.9m/s | -56.6°C | 69.7% | 223.5hPa | 2.8V | 04:18:03 | 01:04:04 | 00:00:00 | |
| BIOWL1-15 | 2026-09-01 05:35:23 | 49.71869 | 8.04776 | 85° | 115km/h | 11386m | 4.7m/s | -56.5°C | 62.7% | 223.8hPa | 2.6V | 04:18:22 | 01:04:02 | 00:00:00 | |
| DL9PN | 2026-09-01 05:35:22 | 49.71866 | 8.04731 | 84° | 115km/h | 11382m | 3.2m/s | -56.5°C | 58.4% | 223.9hPa | 2.7V | 00:00:00 | 00:00:00 | 00:00:00 | |
| DB0UT-7 | 2026-09-01 05:35:20 | 49.71860 | 8.04641 | 86° | 113km/h | 11374m | 4.1m/s | -56.4°C | 70.1% | 224.2hPa | 2.7V | 00:00:00 | 00:00:00 | 00:00:00 | |
| DM0DOS-11 | 2026-09-01 05:35:18 | 49.71846 | 8.04414 | 84° | 115km/h | 11353m | 3.6m/s | -56.2°C | 70.1% | 225hPa | 2.8V | 04:18:13 | 01:03:54 | 00:00:00 | |
| BIOWL1-15 | 2026-09-01 05:35:12 | 49.71837 | 8.04280 | 84° | 115km/h | 11340m | 4.5m/s | -56.1°C | 63% | 225.4hPa | 2.6V | 04:18:22 | 01:03:51 | 00:00:00 | |
| BIOWL1-15 | 2026-09-01 05:35:03 | 49.71806 | 8.03795 | 83° | 115km/h | 11293m | 3.7m/s | -55.7°C | 62.2% | 227.1hPa | 2.8V | 04:19:13 | 01:03:40 | 00:00:00 | |
| DO3MHA-11 | 2026-09-01 05:35:03 | 49.71812 | 8.03885 | 86° | 115km/h | 11302m | 3.5m/s | -55.7°C | 68.6% | 226.7hPa | 2.8V | 00:00:00 | 01:03:42 | 00:00:00 | |
| DM0DOS-11 | 2026-09-01 05:34:58 | 49.71785 | 8.03529 | 83° | 111km/h | 11267m | 4.5m/s | -55.4°C | 67.7% | 228hPa | 2.8V | 04:18:33 | 01:03:34 | 00:00:00 | |
| BIOWL1-15 | 2026-09-01 05:34:50 | 49.71770 | 8.03316 | 83° | 111km/h | 11246m | 3.1m/s | -55.3°C | 61.9% | 228.8hPa | 2.8V | 04:19:13 | 01:03:29 | 00:00:00 | |
| DB0UT-7 | 2026-09-01 05:34:49 | 49.71766 | 8.03273 | 83° | 113km/h | 11242m | 4.0m/s | -55.2°C | 67.4% | 228.8hPa | 2.8V | 00:00:00 | 01:03:28 | 00:00:00 | |
| DM0DOS-11 | 2026-09-01 05:34:48 | 49.71751 | 8.03098 | 82° | 115km/h | 11225m | 3.7m/s | -55.1°C | 67.2% | 229.5hPa | 2.8V | 04:18:43 | 01:03:24 | 00:00:00 | |
| BIOWL1-15 | 2026-09-01 05:34:39 | 49.71729 | 8.02835 | 81° | 111km/h | 11199m | 3.7m/s | -54.9°C | 62% | 230.4hPa | 2.8V | 04:19:13 | 01:03:18 | 00:00:00 | |
| DM0DOS-11 | 2026-09-01 05:34:38 | 49.71712 | 8.02661 | 81° | 113km/h | 11183m | 4.6m/s | -54.8°C | 67.9% | 231hPa | 2.7V | 04:18:53 | 01:03:14 | 00:00:00 | |
| BIOWL1-15 | 2026-09-01 05:34:30 | 49.71683 | 8.02351 | 81° | 117km/h | 11154m | 4.8m/s | -54.5°C | 62.1% | 232hPa | 2.8V | 04:19:13 | 01:03:07 | 00:00:00 | |
| DL0LBS | 2026-09-01 05:34:29 | 49.71692 | 8.02440 | 83° | 115km/h | 11163m | 4.4m/s | -54.6°C | 56.7% | 231.7hPa | 2.8V | 04:19:00 | 00:00:00 | 00:00:00 | |
| DM0DOS-11 | 2026-09-01 05:34:28 | 49.71669 | 8.02218 | 81° | 113km/h | 11141m | 3.9m/s | -54.4°C | 67.7% | 232.6hPa | 2.8V | 04:19:03 | 01:03:04 | 00:00:00 | |
| BIOWL1-15 | 2026-09-01 05:34:20 | 49.71637 | 8.01915 | 81° | 111km/h | 11113m | 4.9m/s | -54.1°C | 62% | 233.5hPa | 2.6V | 04:19:13 | 01:02:57 | 00:00:00 | |
| DB0UT-7 | 2026-09-01 05:34:19 | 49.71642 | 8.01959 | 81° | 113km/h | 11117m | 3.5m/s | -54.1°C | 66.7% | 233.3hPa | 2.8V | 04:19:00 | 00:00:00 | 00:00:00 | |
| DM0DOS-11 | 2026-09-01 05:34:18 | 49.71624 | 8.01784 | 81° | 115km/h | 11101m | 3.6m/s | -54°C | 66.1% | 234hPa | 2.8V | 04:19:13 | 01:02:54 | 00:00:00 | |
| BIOWL1-15 | 2026-09-01 05:34:10 | 49.71593 | 8.01475 | 80° | 113km/h | 11074m | 4.3m/s | -53.8°C | 61.8% | 235hPa | 2.6V | 04:20:04 | 01:02:47 | 00:00:00 | |
| DM0DOS-11 | 2026-09-01 05:34:08 | 49.71579 | 8.01344 | 81° | 111km/h | 11062m | 3.4m/s | -53.7°C | 66.3% | 235.5hPa | 2.8V | 04:19:23 | 01:02:44 | 00:00:00 | |
| BIOWL9-15 | 2026-09-01 05:34:07 | 49.71588 | 8.01431 | 80° | 113km/h | 11070m | 3.8m/s | -53.8°C | 55.8% | 235.2hPa | 2.8V | 00:00:00 | 00:00:00 | 00:00:00 | |
| DL0LBS | 2026-09-01 05:34:06 | 49.71588 | 8.01431 | 81° | 113km/h | 11070m | 3.8m/s | -53.8°C | 55.9% | 235.2hPa | 2.8V | 04:20:00 | 00:00:00 | 00:00:00 | |
| NBG1-10 | 2026-09-01 05:34:05 | 49.71579 | 8.01344 | 82° | 113km/h | 11062m | 3.3m/s | -53.7°C | 66.3% | 235.4hPa | 2.8V | 00:00:00 | 01:02:44 | 00:00:00 | |
| DL1ZP-14 | 2026-09-01 05:34:04 | 49.71575 | 8.01301 | 81° | 113km/h | 11058m | 4.6m/s | -53.7°C | 55.6% | 235.6hPa | 2.8V | 00:00:00 | 00:00:00 | 00:00:00 | |
| DF2AP-13 | 2026-09-01 05:34:03 | 49.71571 | 8.01256 | 82° | 113km/h | 11054m | 3.0m/s | -53.6°C | 66.0% | 235.7hPa | 2.8V | 00:00:00 | 01:02:42 | 00:00:00 | |
| DM0DOS-11 | 2026-09-01 05:33:58 | 49.71538 | 8.00907 | 80° | 113km/h | 11022m | 3.5m/s | -53.6°C | 67.5% | 236.8hPa | 2.8V | 04:19:33 | 01:02:34 | 00:00:00 | |
| BIOWL1-15 | 2026-09-01 05:33:57 | 49.71547 | 8.00994 | 81° | 113km/h | 11030m | 4.3m/s | -53.7°C | 61.8% | 236.6hPa | 2.8V | 04:20:04 | 01:02:36 | 00:00:00 | |
| DM3KS-11 | 2026-09-01 05:33:55 | 49.71538 | 8.00907 | 80° | 113km/h | 11022m | 3.5m/s | -53.6°C | 56.8% | 236.9hPa | 2.7V | 00:00:00 | 00:00:00 | 00:00:00 | |
| DF7PN | 2026-09-01 05:33:51 | 49.71520 | 8.00733 | 81° | 113km/h | 11007m | 3.8m/s | -53.5°C | 56.4% | 237.4hPa | 2.7V | 00:00:00 | 00:00:00 | 00:00:00 | |
| DO1YAY-16 | 2026-09-01 05:33:50 | 49.71516 | 8.00689 | 81° | 113km/h | 11004m | 3.0m/s | -53.5°C | 56.1% | 237.6hPa | 2.7V | 00:00:00 | 00:00:00 | 00:00:00 | |
| DL9PN | 2026-09-01 05:33:49 | 49.71508 | 8.00602 | 80° | 111km/h | 10996m | 2.9m/s | -53.5°C | 55.8% | 237.9hPa | 2.7V | 00:00:00 | 00:00:00 | 00:00:00 | |
| DM0DOS-11 | 2026-09-01 05:33:48 | 49.71494 | 8.00472 | 80° | 111km/h | 10984m | 5.4m/s | -53.4°C | 64.9% | 238.2hPa | 2.7V | 04:19:43 | 01:02:24 | 00:00:00 | |
| BIOWL1-15 | 2026-09-01 05:33:48 | 49.71499 | 8.00515 | 81° | 113km/h | 10989m | 3m/s | -53.4°C | 60.4% | 238.1hPa | 2.6V | 04:20:04 | 01:02:25 | 00:00:00 | |
| DB0UT-7 | 2026-09-01 05:33:48 | 49.71508 | 8.00602 | 81° | 111km/h | 10997m | 2.8m/s | -53.4°C | 66.2% | 237.9hPa | 2.7V | 00:00:00 | 01:02:27 | 00:00:00 | |
| DL0LBS | 2026-09-01 05:33:46 | 49.71503 | 8.00558 | 82° | 113km/h | 10993m | 4.8m/s | -53.4°C | 55.4% | 238.0hPa | 2.8V | 04:20:00 | 00:00:00 | 00:00:00 | |
| DK5PH-5 | 2026-09-01 05:33:44 | 49.71489 | 8.00429 | 81° | 111km/h | 10980m | 4.1m/s | -53.3°C | 64.9% | 238.4hPa | 2.8V | 04:19:00 | 01:02:23 | 00:00:00 | |
| DL8DAS-14 | 2026-09-01 05:33:42 | 49.71476 | 8.00301 | 81° | 110km/h | 10968m | 5.1m/s | -53.2°C | 54.0% | 238.9hPa | 2.8V | 00:00:00 | 00:00:00 | 00:00:00 | |
| DL8DAS-15 | 2026-09-01 05:33:40 | 49.71476 | 8.00301 | 82° | 110km/h | 10968m | 5.1m/s | -53.2°C | 54.0% | 238.9hPa | 2.8V | 00:00:00 | 00:00:00 | 00:00:00 | |
| DM0DOS-11 | 2026-09-01 05:33:38 | 49.71446 | 8.00001 | 81° | 113km/h | 10939m | 3.3m/s | -52.9°C | 64.1% | 240hPa | 2.8V | 04:19:54 | 01:02:13 | 00:00:00 | |
| BIOWL1-15 | 2026-09-01 05:33:35 | 49.71451 | 8.00044 | 81° | 111km/h | 10943m | 4.5m/s | -53°C | 59.5% | 239.8hPa | 2.8V | 04:20:04 | 01:02:14 | 00:00:00 | |
| DL1ZP-14 | 2026-09-01 05:33:34 | 49.71442 | 7.99957 | 81° | 111km/h | 10936m | 3.9m/s | -52.9°C | 53.4% | 240.1hPa | 2.6V | 00:00:00 | 00:00:00 | 00:00:00 | |
| DF2AP-13 | 2026-09-01 05:33:33 | 49.71442 | 7.99957 | 82° | 111km/h | 10936m | 3.9m/s | -52.8°C | 63.4% | 240.0hPa | 2.7V | 04:19:00 | 01:02:12 | 00:00:00 | |
| NBG1-10 | 2026-09-01 05:33:32 | 49.71438 | 7.99914 | 82° | 111km/h | 10931m | 4.4m/s | -52.8°C | 63.8% | 240.2hPa | 2.7V | 00:00:00 | 01:02:11 | 00:00:00 | |
| DM7RM-13 | 2026-09-01 05:33:29 | 49.71429 | 7.99829 | 83° | 111km/h | 10923m | 3.7m/s | -52.8°C | 53.6% | 240.5hPa | 2.7V | 00:00:00 | 00:00:00 | 00:00:00 | |
| DM0DOS-11 | 2026-09-01 05:33:28 | 49.71403 | 7.99572 | 79° | 111km/h | 10900m | 4m/s | -52.6°C | 64.3% | 241.4hPa | 2.7V | 04:20:04 | 01:02:03 | 00:00:00 | |
| BIOWL1-15 | 2026-09-01 05:33:26 | 49.71403 | 7.99572 | 80° | 111km/h | 10900m | 4m/s | -52.6°C | 59.6% | 241.4hPa | 2.7V | 04:20:04 | 01:02:03 | 00:00:00 | |
| DL0LBS | 2026-09-01 05:33:25 | 49.71412 | 7.99658 | 81° | 113km/h | 10908m | 3.5m/s | -52.6°C | 53.9% | 241.1hPa | 2.8V | 04:20:00 | 00:00:00 | 00:00:00 | |
| DM3KS-11 | 2026-09-01 05:33:24 | 49.71403 | 7.99572 | 79° | 111km/h | 10900m | 4.0m/s | -52.6°C | 54.3% | 241.4hPa | 2.8V | 00:00:00 | 00:00:00 | 00:00:00 | |
| DB0UT-9 | 2026-09-01 05:33:23 | 49.71403 | 7.99571 | 81° | 111km/h | 10900m | 4.0m/s | -52.6°C | 54.4% | 241.4hPa | 2.8V | 04:20:00 | 00:00:00 | 00:00:00 | |
| DF1GD-15 | 2026-09-01 05:33:21 | 49.71393 | 7.99485 | 81° | 113km/h | 10893m | 4.4m/s | -52.5°C | 54.5% | 241.7hPa | 2.8V | 00:00:00 | 00:00:00 | 00:00:00 | |
| DF7PN | 2026-09-01 05:33:20 | 49.71384 | 7.99398 | 81° | 111km/h | 10886m | 3.8m/s | -52.4°C | 54.5% | 242.0hPa | 2.8V | 00:00:00 | 00:00:00 | 00:00:00 | |
| DO1YAY-16 | 2026-09-01 05:33:19 | 49.71380 | 7.99355 | 81° | 110km/h | 10882m | 4.1m/s | -52.4°C | 55.0% | 242.1hPa | 2.8V | 00:00:00 | 00:00:00 | 00:00:00 | |
| DM0DOS-11 | 2026-09-01 05:33:18 | 49.71359 | 7.99142 | 80° | 110km/h | 10863m | 4.4m/s | -52.2°C | 65.7% | 242.8hPa | 2.8V | 04:20:14 | 01:01:53 | 00:00:00 | |
| BIOWL1-15 | 2026-09-01 05:33:14 | 49.71359 | 7.99142 | 81° | 110km/h | 10863m | 4.4m/s | -52.3°C | 61.3% | 242.8hPa | 2.8V | 04:20:55 | 01:01:53 | 00:00:00 | |
| DK5PH-5 | 2026-09-01 05:33:14 | 49.71359 | 7.99142 | 81° | 111km/h | 10863m | 4.4m/s | -52.2°C | 65.7% | 242.7hPa | 2.8V | 00:00:00 | 01:01:53 | 00:00:00 | |
| BIOWL7-15 | 2026-09-01 05:33:13 | 49.71359 | 7.99142 | 82° | 110km/h | 10863m | 4.4m/s | -52.3°C | 55.7% | 242.8hPa | 2.8V | 00:00:00 | 00:00:00 | 00:00:00 | |
| DL8DAS-14 | 2026-09-01 05:33:11 | 49.71342 | 7.98969 | 81° | 111km/h | 10848m | 4.7m/s | -52.1°C | 56.6% | 243.4hPa | 2.8V | 00:00:00 | 00:00:00 | 00:00:00 | |
| DL8DAS-15 | 2026-09-01 05:33:09 | 49.71342 | 7.98969 | 82° | 111km/h | 10848m | 4.7m/s | -52.1°C | 56.6% | 243.4hPa | 2.8V | 00:00:00 | 00:00:00 | 00:00:00 | |
| DM0DOS-11 | 2026-09-01 05:33:08 | 49.71315 | 7.98707 | 80° | 111km/h | 10823m | 3.4m/s | -51.9°C | 67.8% | 244.3hPa | 2.8V | 04:20:24 | 01:01:43 | 00:00:00 | |
| BIOWL1-15 | 2026-09-01 05:33:03 | 49.71310 | 7.98664 | 81° | 113km/h | 10819m | 3.8m/s | -51.9°C | 63% | 244.4hPa | 2.8V | 04:20:55 | 01:01:42 | 00:00:00 | |
| DF2AP-13 | 2026-09-01 05:33:03 | 49.71310 | 7.98664 | 81° | 111km/h | 10820m | 3.8m/s | -51.8°C | 67.9% | 244.3hPa | 2.7V | 00:00:00 | 01:01:42 | 00:00:00 | |
| DL1ZP-14 | 2026-09-01 05:33:02 | 49.71306 | 7.98620 | 80° | 111km/h | 10816m | 3.4m/s | -51.8°C | 57.8% | 244.5hPa | 2.8V | 00:00:00 | 00:00:00 | 00:00:00 | |
| DL8DAS-15 | 2026-09-01 05:32:59 | 49.71296 | 7.98534 | 82° | 111km/h | 10808m | 3.6m/s | -51.8°C | 58.5% | 244.9hPa | 2.7V | 00:00:00 | 00:00:00 | 00:00:00 | |
| DM0DOS-11 | 2026-09-01 05:32:58 | 49.71270 | 7.98277 | 81° | 111km/h | 10785m | 4.3m/s | -51.5°C | 69.5% | 245.8hPa | 2.7V | 04:20:34 | 01:01:33 | 00:00:00 | |
| BIOWL1-15 | 2026-09-01 05:32:52 | 49.71261 | 7.98191 | 81° | 110km/h | 10777m | 4.5m/s | -51.5°C | 64.4% | 246.1hPa | 2.8V | 04:20:55 | 01:01:31 | 00:00:00 | |
| DF7PN | 2026-09-01 05:32:49 | 49.71243 | 7.98020 | 80° | 110km/h | 10761m | 4.3m/s | -51.3°C | 60.2% | 246.6hPa | 2.8V | 00:00:00 | 00:00:00 | 00:00:00 | |
| DM0DOS-11 | 2026-09-01 05:32:48 | 49.71226 | 7.97849 | 82° | 111km/h | 10746m | 4.3m/s | -51.2°C | 71.6% | 247.2hPa | 2.8V | 04:20:44 | 01:01:23 | 00:00:00 | |
| DL9PN | 2026-09-01 05:32:47 | 49.71238 | 7.97978 | 80° | 110km/h | 10757m | 3.7m/s | -51.3°C | 60.5% | 246.8hPa | 2.7V | 00:00:00 | 00:00:00 | 00:00:00 | |
| BIOWL1-15 | 2026-09-01 05:32:42 | 49.71219 | 7.97762 | 82° | 111km/h | 10738m | 4.4m/s | -51.1°C | 66.5% | 247.5hPa | 2.7V | 04:20:55 | 01:01:21 | 00:00:00 | |
| DM0DOS-11 | 2026-09-01 05:32:38 | 49.71184 | 7.97422 | 80° | 111km/h | 10706m | 3.7m/s | -50.9°C | 72.5% | 248.7hPa | 2.8V | 04:20:54 | 01:01:13 | 00:00:00 | |
| BIOWL1-15 | 2026-09-01 05:32:31 | 49.71171 | 7.97293 | 82° | 110km/h | 10694m | 4.5m/s | -50.8°C | 67.1% | 249.2hPa | 2.7V | 04:21:46 | 01:01:10 | 00:00:00 | |
| DM0DOS-11 | 2026-09-01 05:32:28 | 49.71143 | 7.96993 | 80° | 113km/h | 10666m | 3.4m/s | -50.5°C | 73.2% | 250.3hPa | 2.8V | 04:21:04 | 01:01:03 | 00:00:00 | |
| BIOWL1-15 | 2026-09-01 05:32:21 | 49.71129 | 7.96865 | 80° | 110km/h | 10655m | 3.3m/s | -50.4°C | 66.8% | 250.7hPa | 2.7V | 04:21:46 | 01:01:00 | 00:00:00 | |
| BIOWL1-15 | 2026-09-01 05:32:10 | 49.71081 | 7.96404 | 82° | 111km/h | 10611m | 5.3m/s | -50°C | 66.9% | 252.4hPa | 2.8V | 04:21:46 | 01:00:49 | 00:00:00 | |
| BIOWL1-15 | 2026-09-01 05:31:59 | 49.71038 | 7.95934 | 81° | 110km/h | 10568m | 3.3m/s | -49.6°C | 67.4% | 254.1hPa | 2.8V | 04:21:46 | 01:00:38 | 00:00:00 | |
| BIOWL1-15 | 2026-09-01 05:31:49 | 49.70996 | 7.95518 | 82° | 111km/h | 10525m | 4.9m/s | -49.3°C | 67.4% | 255.8hPa | 2.8V | 04:21:46 | 01:00:28 | 00:00:00 | |
| DM0DOS-11 | 2026-09-01 05:31:48 | 49.70977 | 7.95304 | 82° | 111km/h | 10504m | 3.3m/s | -49°C | 73.5% | 256.6hPa | 2.8V | 04:21:44 | 01:00:23 | 00:00:00 | |
| DF7PN | 2026-09-01 05:31:47 | 49.70985 | 7.95390 | 82° | 110km/h | 10513m | 3.8m/s | -49.1°C | 63.2% | 256.2hPa | 2.8V | 00:00:00 | 00:00:00 | 00:00:00 | |
| DO1YAY-16 | 2026-09-01 05:31:46 | 49.70985 | 7.95390 | 82° | 110km/h | 10513m | 3.8m/s | -49.1°C | 63.2% | 256.2hPa | 2.8V | 00:00:00 | 00:00:00 | 00:00:00 | |
| DL9PN | 2026-09-01 05:31:45 | 49.70981 | 7.95347 | 82° | 110km/h | 10508m | 4.8m/s | -49.1°C | 63.3% | 256.4hPa | 2.8V | 00:00:00 | 00:00:00 | 00:00:00 | |
| BIOWL1-15 | 2026-09-01 05:31:39 | 49.70957 | 7.95094 | 81° | 108km/h | 10484m | 4.9m/s | -48.9°C | 69% | 257.4hPa | 2.8V | 04:22:37 | 01:00:18 | 00:00:00 | |
| DM0DOS-11 | 2026-09-01 05:31:38 | 49.70936 | 7.94883 | 81° | 110km/h | 10464m | 4m/s | -48.7°C | 76.4% | 258.1hPa | 2.8V | 04:21:54 | 01:00:13 | 00:00:00 | |
| DL8DAS-14 | 2026-09-01 05:31:37 | 49.70948 | 7.95010 | 81° | 108km/h | 10476m | 4.7m/s | -48.8°C | 65.9% | 257.7hPa | 2.8V | 00:00:00 | 00:00:00 | 00:00:00 | |
| DM7RM-13 | 2026-09-01 05:31:35 | 49.70944 | 7.94968 | 82° | 111km/h | 10472m | 3.4m/s | -48.8°C | 66.4% | 257.8hPa | 2.8V | 04:22:00 | 00:00:00 | 00:00:00 | |
| DL8DAS-15 | 2026-09-01 05:31:34 | 49.70940 | 7.94925 | 83° | 111km/h | 10468m | 4.2m/s | -48.8°C | 0% | 257.9hPa | 2.8V | 00:00:00 | 00:00:00 | 00:00:00 | |
| HEMX73-11 | 2026-09-01 05:31:33 | 49.70936 | 7.94882 | 83° | 110km/h | 10464m | 4.0m/s | -48.7°C | 66.3% | 258.1hPa | 2.8V | 04:22:00 | 00:00:00 | 00:00:00 | |
| BIOWL9-15 | 2026-09-01 05:31:32 | 49.70923 | 7.94754 | 81° | 111km/h | 10453m | 3.5m/s | -48.6°C | 66.1% | 258.6hPa | 2.8V | 00:00:00 | 00:00:00 | 00:00:00 | |
| DO3MHA-11 | 2026-09-01 05:31:30 | 49.70919 | 7.94711 | 82° | 110km/h | 10449m | 4.7m/s | -48.5°C | 76.0% | 258.7hPa | 2.8V | 00:00:00 | 01:00:09 | 00:00:00 | |
| DM0DOS-11 | 2026-09-01 05:31:29 | 49.70895 | 7.94458 | 81° | 110km/h | 10424m | 5m/s | -48.3°C | 73.9% | 259.6hPa | 2.8V | 04:22:04 | 01:00:03 | 00:00:00 | |
| BIOWL1-15 | 2026-09-01 05:31:28 | 49.70911 | 7.94626 | 82° | 111km/h | 10441m | 4.6m/s | -48.5°C | 69.4% | 259.1hPa | 2.8V | 04:22:37 | 01:00:07 | 00:00:00 | |
| BIOWL1-15 | 2026-09-01 05:31:20 | 49.70868 | 7.94202 | 79° | 113km/h | 10400m | 3.7m/s | -48.1°C | 67.7% | 260.6hPa | 2.8V | 04:22:37 | 00:59:57 | 00:00:00 | |
| DO3MHA-11 | 2026-09-01 05:31:20 | 49.70878 | 7.94288 | 81° | 111km/h | 10408m | 3.8m/s | -48.1°C | 73.5% | 260.3hPa | 2.7V | 00:00:00 | 00:59:59 | 00:00:00 | |
| DM0DOS-11 | 2026-09-01 05:31:18 | 49.70849 | 7.94032 | 82° | 111km/h | 10384m | 3.4m/s | -48°C | 73.6% | 261.2hPa | 2.7V | 04:22:14 | 00:59:53 | 00:00:00 | |
| BIOWL1-15 | 2026-09-01 05:31:10 | 49.70827 | 7.93776 | 81° | 111km/h | 10361m | 4m/s | -47.7°C | 67.1% | 262.1hPa | 2.7V | 04:22:37 | 00:59:47 | 00:00:00 | |
| DO3MHA-11 | 2026-09-01 05:31:10 | 49.70836 | 7.93862 | 82° | 111km/h | 10369m | 4.5m/s | -47.8°C | 72.5% | 261.8hPa | 2.7V | 00:00:00 | 00:59:49 | 00:00:00 | |
| DM0DOS-11 | 2026-09-01 05:31:08 | 49.70810 | 7.93604 | 82° | 111km/h | 10344m | 5.1m/s | -47.6°C | 70.8% | 262.9hPa | 2.7V | 04:22:24 | 00:59:43 | 00:00:00 | |
| BIOWL1-15 | 2026-09-01 05:31:00 | 49.70787 | 7.93349 | 80° | 110km/h | 10317m | 4.7m/s | -47.4°C | 66.7% | 263.8hPa | 2.7V | 04:22:37 | 00:59:37 | 00:00:00 | |
| DO3MHA-11 | 2026-09-01 05:31:00 | 49.70796 | 7.93432 | 82° | 111km/h | 10326m | 4.9m/s | -47.4°C | 71.4% | 263.5hPa | 2.7V | 04:22:00 | 00:59:39 | 00:00:00 | |
| DB0UT-9 | 2026-09-01 05:30:59 | 49.70796 | 7.93432 | 83° | 110km/h | 10326m | 4.9m/s | -47.4°C | 62.2% | 263.5hPa | 2.7V | 04:22:00 | 00:00:00 | 00:00:00 | |
| DM0DOS-11 | 2026-09-01 05:30:58 | 49.70769 | 7.93176 | 82° | 111km/h | 10302m | 3m/s | -47.2°C | 71.7% | 264.5hPa | 2.7V | 04:22:34 | 00:59:33 | 00:00:00 | |
| BIOWL1-15 | 2026-09-01 05:30:49 | 49.70742 | 7.92874 | 82° | 110km/h | 10273m | 4.3m/s | -47°C | 67.8% | 265.7hPa | 2.7V | 04:23:28 | 00:59:26 | 00:00:00 | |
| DM3KS-11 | 2026-09-01 05:30:49 | 49.70746 | 7.92917 | 81° | 111km/h | 10277m | 3.4m/s | -47.0°C | 63.3% | 265.5hPa | 2.8V | 00:00:00 | 00:00:00 | 00:00:00 | |
| DM0DOS-11 | 2026-09-01 05:30:48 | 49.70729 | 7.92746 | 81° | 111km/h | 10261m | 3.3m/s | -46.9°C | 72.5% | 266.2hPa | 2.8V | 04:22:44 | 00:59:23 | 00:00:00 | |
| BIOWL1-15 | 2026-09-01 05:30:39 | 49.70701 | 7.92447 | 81° | 108km/h | 10234m | 2.9m/s | -46.7°C | 67.4% | 267.3hPa | 2.8V | 04:23:28 | 00:59:16 | 00:00:00 | |
| DM0DOS-11 | 2026-09-01 05:30:38 | 49.70689 | 7.92319 | 81° | 113km/h | 10222m | 3.4m/s | -46.6°C | 72.4% | 267.7hPa | 2.8V | 04:22:54 | 00:59:13 | 00:00:00 | |
| DO3MHA-11 | 2026-09-01 05:30:38 | 49.70705 | 7.92489 | 82° | 111km/h | 10237m | 4.1m/s | -46.7°C | 73.2% | 267.1hPa | 2.7V | 00:00:00 | 00:59:17 | 00:00:00 | |
| DL8DAS-14 | 2026-09-01 05:30:35 | 49.70693 | 7.92363 | 81° | 111km/h | 10226m | 4.3m/s | -46.6°C | 63.5% | 267.6hPa | 2.8V | 00:00:00 | 00:00:00 | 00:00:00 | |
| DM7RM-13 | 2026-09-01 05:30:33 | 49.70689 | 7.92319 | 83° | 113km/h | 10222m | 3.4m/s | -46.6°C | 63.3% | 267.7hPa | 2.8V | 04:23:00 | 00:00:00 | 00:00:00 | |
| DF2AP-13 | 2026-09-01 05:30:32 | 49.70682 | 7.92232 | 83° | 111km/h | 10214m | 4.4m/s | -46.5°C | 72.1% | 268.0hPa | 2.8V | 00:00:00 | 00:59:11 | 00:00:00 | |
| HEMX73-11 | 2026-09-01 05:30:31 | 49.70682 | 7.92232 | 83° | 111km/h | 10214m | 4.5m/s | -46.5°C | 63.1% | 268.0hPa | 2.8V | 04:23:00 | 00:00:00 | 00:00:00 | |
| BIOWL9-15 | 2026-09-01 05:30:30 | 49.70670 | 7.92103 | 81° | 113km/h | 10202m | 4.2m/s | -46.4°C | 63.3% | 268.6hPa | 2.8V | 00:00:00 | 00:00:00 | 00:00:00 | |
| DM0DOS-11 | 2026-09-01 05:30:28 | 49.70649 | 7.91887 | 80° | 110km/h | 10181m | 4m/s | -46.3°C | 71.8% | 269.4hPa | 2.8V | 04:23:04 | 00:59:03 | 00:00:00 | |
| BIOWL1-15 | 2026-09-01 05:30:26 | 49.70658 | 7.91972 | 81° | 110km/h | 10189m | 4.1m/s | -46.3°C | 66.7% | 269hPa | 2.7V | 04:23:28 | 00:59:05 | 00:00:00 | |
| DL0LBS | 2026-09-01 05:30:19 | 49.70630 | 7.91719 | 80° | 110km/h | 10164m | 3.7m/s | -46.2°C | 62.8% | 270.0hPa | 2.7V | 04:23:00 | 00:00:00 | 00:00:00 | |
| DM0DOS-11 | 2026-09-01 05:30:18 | 49.70601 | 7.91458 | 81° | 115km/h | 10140m | 3.2m/s | -46°C | 71.3% | 271.1hPa | 2.7V | 04:23:14 | 00:58:53 | 00:00:00 | |
| BIOWL1-15 | 2026-09-01 05:30:15 | 49.70605 | 7.91503 | 82° | 115km/h | 10143m | 4.3m/s | -46°C | 66% | 271hPa | 2.7V | 04:23:28 | 00:58:54 | 00:00:00 | |
| DK5PH-5 | 2026-09-01 05:30:14 | 49.70601 | 7.91458 | 82° | 111km/h | 10140m | 3.1m/s | -45.9°C | 71.3% | 271.0hPa | 2.7V | 00:00:00 | 00:58:53 | 00:00:00 | |
| DM7RM-13 | 2026-09-01 05:30:13 | 49.70601 | 7.91458 | 83° | 115km/h | 10140m | 3.2m/s | -46.0°C | 62.5% | 271.1hPa | 2.7V | 04:23:00 | 00:00:00 | 00:00:00 | |
| DL9PN | 2026-09-01 05:30:12 | 49.70588 | 7.91326 | 81° | 111km/h | 10128m | 4.3m/s | -45.9°C | 61.8% | 271.6hPa | 2.7V | 00:00:00 | 00:00:00 | 00:00:00 | |
| NBG1-10 | 2026-09-01 05:30:11 | 49.70588 | 7.91326 | 82° | 111km/h | 10128m | 4.3m/s | -45.8°C | 70.6% | 271.6hPa | 2.7V | 00:00:00 | 00:58:50 | 00:00:00 | |
| DF3TZ-5 | 2026-09-01 05:30:09 | 49.70580 | 7.91241 | 80° | 110km/h | 10120m | 5.1m/s | -45.8°C | 62.0% | 271.9hPa | 2.7V | 00:00:00 | 00:00:00 | 00:00:00 | |
| DM0DOS-11 | 2026-09-01 05:30:08 | 49.70554 | 7.91029 | 78° | 111km/h | 10099m | 3.5m/s | -45.6°C | 70.9% | 272.8hPa | 2.7V | 04:23:24 | 00:58:43 | 00:00:00 | |
| BIOWL1-15 | 2026-09-01 05:30:05 | 49.70559 | 7.91072 | 78° | 111km/h | 10103m | 5.2m/s | -45.6°C | 65.4% | 272.5hPa | 2.8V | 04:23:28 | 00:58:44 | 00:00:00 | |
| DL8DAS-14 | 2026-09-01 05:30:04 | 49.70553 | 7.91029 | 78° | 111km/h | 10099m | 3.5m/s | -45.6°C | 62.2% | 272.8hPa | 2.7V | 00:00:00 | 00:00:00 | 00:00:00 | |
| BIOWL9-15 | 2026-09-01 05:29:59 | 49.70523 | 7.90775 | 80° | 108km/h | 10074m | 3.5m/s | -45.4°C | 61.3% | 273.8hPa | 2.7V | 00:00:00 | 00:00:00 | 00:00:00 | |
| DM0DOS-11 | 2026-09-01 05:29:58 | 49.70503 | 7.90607 | 80° | 111km/h | 10057m | 4.7m/s | -45.2°C | 68.8% | 274.5hPa | 2.7V | 04:23:34 | 00:58:33 | 00:00:00 | |
| BIOWL1-15 | 2026-09-01 05:29:54 | 49.70503 | 7.90607 | 80° | 111km/h | 10057m | 4.7m/s | -45.2°C | 64.3% | 274.5hPa | 2.7V | 04:24:19 | 00:58:33 | 00:00:00 | |
| DM7RM-13 | 2026-09-01 05:29:52 | 49.70498 | 7.90564 | 81° | 111km/h | 10053m | 4.4m/s | -45.2°C | 60.2% | 274.7hPa | 2.8V | 04:24:00 | 00:00:00 | 00:00:00 | |
| HEMX73-11 | 2026-09-01 05:29:50 | 49.70488 | 7.90477 | 81° | 115km/h | 10044m | 3.6m/s | -45.1°C | 60.2% | 275.0hPa | 2.8V | 04:24:00 | 00:00:00 | 00:00:00 | |
| DM0DOS-11 | 2026-09-01 05:29:48 | 49.70453 | 7.90171 | 80° | 111km/h | 10014m | 4.8m/s | -44.9°C | 68.8% | 276.2hPa | 2.8V | 04:23:44 | 00:58:23 | 00:00:00 | |
| DM3KS-11 | 2026-09-01 05:29:47 | 49.70463 | 7.90257 | 80° | 111km/h | 10023m | 5.4m/s | -44.9°C | 59.8% | 275.8hPa | 2.8V | 00:00:00 | 00:00:00 | 00:00:00 | |
| BIOWL1-15 | 2026-09-01 05:29:46 | 49.70453 | 7.90171 | 80° | 111km/h | 10014m | 4.8m/s | -44.9°C | 63.9% | 276.2hPa | 2.8V | 04:24:19 | 00:58:23 | 00:00:00 | |
| DB0UT-7 | 2026-09-01 05:29:44 | 49.70453 | 7.90171 | 81° | 113km/h | 10015m | 4.8m/s | -44.8°C | 68.8% | 276.1hPa | 2.8V | 00:00:00 | 00:58:23 | 00:00:00 | |
| DF7PN | 2026-09-01 05:29:42 | 49.70444 | 7.90085 | 80° | 111km/h | 10006m | 5.0m/s | -44.8°C | 60.1% | 276.6hPa | 2.8V | 00:00:00 | 00:00:00 | 00:00:00 | |
| DL9PN | 2026-09-01 05:29:41 | 49.70434 | 7.89999 | 79° | 111km/h | 9997m | 4.8m/s | -44.7°C | 60.3% | 276.9hPa | 2.8V | 00:00:00 | 00:00:00 | 00:00:00 | |
| DM0DOS-11 | 2026-09-01 05:29:38 | 49.70404 | 7.89737 | 79° | 115km/h | 9974m | 3.4m/s | -44.5°C | 67.9% | 277.9hPa | 2.8V | 04:23:54 | 00:58:13 | 00:00:00 | |
| BIOWL1-15 | 2026-09-01 05:29:33 | 49.70399 | 7.89694 | 80° | 115km/h | 9969m | 5.2m/s | -44.5°C | 63.1% | 278.1hPa | 2.8V | 04:24:19 | 00:58:12 | 00:00:00 | |
| DF2AP-13 | 2026-09-01 05:29:32 | 49.70394 | 7.89649 | 81° | 113km/h | 9965m | 3.7m/s | 0°C | 0% | 0hPa | 2.8V | 00:00:00 | 00:58:11 | 00:00:00 | |
| DM7RM-13 | 2026-09-01 05:29:31 | 49.70395 | 7.89649 | 81° | 115km/h | 9965m | 3.7m/s | -44.4°C | 59.5% | 278.2hPa | 2.8V | 04:24:00 | 00:00:00 | 00:00:00 | |
| HEMX73-11 | 2026-09-01 05:29:30 | 49.70390 | 7.89606 | 81° | 113km/h | 9961m | 5.2m/s | -44.4°C | 59.1% | 278.5hPa | 2.8V | 04:24:00 | 00:00:00 | 00:00:00 | |
| DM0DOS-11 | 2026-09-01 05:29:28 | 49.70356 | 7.89297 | 81° | 117km/h | 9931m | 4.1m/s | -44.1°C | 66.8% | 279.7hPa | 2.8V | 04:24:04 | 00:58:03 | 00:00:00 | |
| BIOWL1-15 | 2026-09-01 05:29:22 | 49.70346 | 7.89208 | 81° | 117km/h | 9923m | 3.6m/s | -44°C | 62.6% | 280.1hPa | 2.8V | 04:24:19 | 00:58:01 | 00:00:00 | |
| BIOWL7-15 | 2026-09-01 05:29:19 | 49.70337 | 7.89117 | 82° | 117km/h | 9916m | 3.3m/s | -44.0°C | 59.2% | 280.4hPa | 2.8V | 00:00:00 | 00:00:00 | 00:00:00 | |
| DM0DOS-11 | 2026-09-01 05:29:18 | 49.70308 | 7.88855 | 80° | 113km/h | 9891m | 3.5m/s | -43.8°C | 67.6% | 281.4hPa | 2.8V | 04:24:14 | 00:57:53 | 00:00:00 | |
| BIOWL1-15 | 2026-09-01 05:29:12 | 49.70299 | 7.88768 | 82° | 113km/h | 9883m | 3.5m/s | -43.7°C | 62.9% | 281.7hPa | 2.8V | 04:24:19 | 00:57:51 | 00:00:00 | |
| DO1YAY-16 | 2026-09-01 05:29:11 | 49.70290 | 7.88680 | 81° | 113km/h | 9874m | 3.8m/s | -43.6°C | 59.5% | 282.1hPa | 2.7V | 00:00:00 | 00:00:00 | 00:00:00 | |
| DL9PN | 2026-09-01 05:29:10 | 49.70286 | 7.88636 | 81° | 113km/h | 9871m | 3.3m/s | -43.6°C | 59.2% | 282.2hPa | 2.7V | 00:00:00 | 00:00:00 | 00:00:00 | |
| DM0DOS-11 | 2026-09-01 05:29:08 | 49.70266 | 7.88420 | 82° | 110km/h | 9850m | 4.8m/s | -43.4°C | 67.5% | 283.1hPa | 2.7V | 04:24:24 | 00:57:43 | 00:00:00 | |
| BIOWL1-15 | 2026-09-01 05:29:01 | 49.70242 | 7.88161 | 82° | 113km/h | 9825m | 4.2m/s | -43.2°C | 63.6% | 284.1hPa | 2.7V | 04:25:10 | 00:57:37 | 00:00:00 | |
| DM0DOS-11 | 2026-09-01 05:28:58 | 49.70226 | 7.87986 | 83° | 113km/h | 9809m | 3.4m/s | -43°C | 69.1% | 284.8hPa | 2.7V | 04:24:34 | 00:57:33 | 00:00:00 | |
| BIOWL1-15 | 2026-09-01 05:28:52 | 49.70211 | 7.87812 | 82° | 113km/h | 9795m | 4.5m/s | -42.9°C | 64.3% | 285.4hPa | 2.8V | 04:25:10 | 00:57:29 | 00:00:00 | |
| BIOWL1-15 | 2026-09-01 05:28:40 | 49.70173 | 7.87383 | 82° | 108km/h | 9754m | 3.9m/s | -42.7°C | 65% | 287.2hPa | 2.8V | 04:25:10 | 00:57:19 | 00:00:00 | |
| BIOWL1-15 | 2026-09-01 05:28:31 | 49.70131 | 7.86922 | 81° | 108km/h | 9710m | 3.8m/s | -42.4°C | 65.9% | 289hPa | 2.8V | 04:25:10 | 00:57:08 | 00:00:00 | |
| DM7RM-13 | 2026-09-01 05:28:30 | 49.70138 | 7.87005 | 84° | 108km/h | 9719m | 3.8m/s | -42.4°C | 62.8% | 288.7hPa | 2.8V | 04:25:00 | 00:00:00 | 00:00:00 | |
| HEMX73-11 | 2026-09-01 05:28:29 | 49.70134 | 7.86963 | 83° | 108km/h | 9715m | 4.5m/s | -42.4°C | 62.6% | 288.8hPa | 2.8V | 04:25:00 | 00:00:00 | 00:00:00 | |
| DM0DOS-11 | 2026-09-01 05:28:28 | 49.70112 | 7.86717 | 82° | 106km/h | 9691m | 3.9m/s | -42.2°C | 71.1% | 289.9hPa | 2.8V | 04:25:04 | 00:57:03 | 00:00:00 | |
| BIOWL1-15 | 2026-09-01 05:28:19 | 49.70094 | 7.86509 | 82° | 108km/h | 9672m | 4.5m/s | -42.1°C | 66.4% | 290.7hPa | 2.7V | 04:25:10 | 00:56:58 | 00:00:00 | |
| DM0DOS-11 | 2026-09-01 05:28:18 | 49.70076 | 7.86302 | 82° | 106km/h | 9650m | 3.4m/s | -41.9°C | 71.4% | 291.6hPa | 2.7V | 04:25:14 | 00:56:53 | 00:00:00 | |
| BIOWL1-15 | 2026-09-01 05:28:10 | 49.70042 | 7.85927 | 82° | 110km/h | 9616m | 3.6m/s | -41.6°C | 66.9% | 293hPa | 2.8V | 04:26:01 | 00:56:44 | 00:00:00 | |
| DM7RM-13 | 2026-09-01 05:28:10 | 49.70064 | 7.86178 | 82° | 106km/h | 9639m | 3.5m/s | -41.8°C | 64.1% | 292.1hPa | 2.8V | 04:26:00 | 00:00:00 | 00:00:00 | |
| DF7PN | 2026-09-01 05:28:09 | 49.70056 | 7.86096 | 82° | 106km/h | 9631m | 4.0m/s | -41.8°C | 64.4% | 292.4hPa | 2.8V | 00:00:00 | 00:00:00 | 00:00:00 | |
| DM0DOS-11 | 2026-09-01 05:28:08 | 49.70038 | 7.85885 | 82° | 108km/h | 9612m | 3.8m/s | -41.6°C | 73% | 293.2hPa | 2.8V | 04:25:24 | 00:56:43 | 00:00:00 | |
| BIOWL1-15 | 2026-09-01 05:28:00 | 49.70015 | 7.85633 | 82° | 108km/h | 9589m | 4.6m/s | -41.4°C | 67.2% | 294.2hPa | 2.8V | 04:26:01 | 00:56:37 | 00:00:00 | |
| NBG1-10 | 2026-09-01 05:27:59 | 49.70019 | 7.85675 | 83° | 110km/h | 9593m | 3.9m/s | -41.4°C | 73.1% | 294.0hPa | 2.8V | 00:00:00 | 00:56:38 | 00:00:00 | |
| DM0DOS-11 | 2026-09-01 05:27:58 | 49.70001 | 7.85465 | 83° | 110km/h | 9573m | 3.6m/s | -41.2°C | 72.8% | 294.9hPa | 2.8V | 04:25:34 | 00:56:33 | 00:00:00 | |
| BIOWL1-15 | 2026-09-01 05:27:51 | 49.69975 | 7.85170 | 81° | 108km/h | 9546m | 4.1m/s | -41°C | 67.5% | 296.1hPa | 2.8V | 04:26:01 | 00:56:26 | 00:00:00 | |
| DM7RM-13 | 2026-09-01 05:27:49 | 49.69986 | 7.85295 | 84° | 110km/h | 9558m | 4.0m/s | -41.1°C | 65.1% | 295.6hPa | 2.8V | 04:26:00 | 00:00:00 | 00:00:00 | |
| DM0DOS-11 | 2026-09-01 05:27:48 | 49.69963 | 7.85043 | 82° | 110km/h | 9534m | 3.5m/s | -40.9°C | 72.1% | 296.5hPa | 2.8V | 04:25:44 | 00:56:23 | 00:00:00 | |
| DO3MHA-11 | 2026-09-01 05:27:48 | 49.69979 | 7.85211 | 82° | 110km/h | 9550m | 3.8m/s | -41.0°C | 72.9% | 295.8hPa | 2.7V | 00:00:00 | 00:56:27 | 00:00:00 | |
| HEMX73-11 | 2026-09-01 05:27:47 | 49.69979 | 7.85211 | 82° | 108km/h | 9550m | 3.8m/s | -41.0°C | 65.1% | 295.9hPa | 2.7V | 04:26:00 | 00:00:00 | 00:00:00 | |
| DK5PH-5 | 2026-09-01 05:27:44 | 49.69963 | 7.85043 | 83° | 110km/h | 9534m | 3.5m/s | -40.9°C | 72.1% | 296.5hPa | 2.7V | 00:00:00 | 00:56:23 | 00:00:00 | |
| DB0UT-7 | 2026-09-01 05:27:42 | 49.69955 | 7.84958 | 82° | 110km/h | 9526m | 3.7m/s | -40.8°C | 71.8% | 296.8hPa | 2.7V | 00:00:00 | 00:56:21 | 00:00:00 | |
| DM0DOS-11 | 2026-09-01 05:27:38 | 49.69925 | 7.84622 | 82° | 108km/h | 9494m | 3.8m/s | -40.6°C | 71.7% | 298.3hPa | 2.7V | 04:25:54 | 00:56:13 | 00:00:00 | |
| BIOWL1-15 | 2026-09-01 05:27:37 | 49.69935 | 7.84746 | 83° | 108km/h | 9506m | 4.1m/s | -40.7°C | 66.9% | 297.8hPa | 2.8V | 04:26:01 | 00:56:16 | 00:00:00 | |
| DL9PN | 2026-09-01 05:27:36 | 49.69932 | 7.84704 | 82° | 106km/h | 9502m | 4.0m/s | -40.6°C | 63.6% | 298.0hPa | 2.8V | 00:00:00 | 00:00:00 | 00:00:00 | |
| DF1GD-15 | 2026-09-01 05:27:35 | 49.69932 | 7.84704 | 84° | 108km/h | 9502m | 4.0m/s | -40.6°C | 63.7% | 298.0hPa | 2.8V | 04:26:00 | 00:00:00 | 00:00:00 | |
| DL0LBS | 2026-09-01 05:27:33 | 49.69925 | 7.84622 | 84° | 108km/h | 9495m | 3.8m/s | -40.6°C | 64.1% | 298.3hPa | 2.8V | 04:26:00 | 00:00:00 | 00:00:00 | |
| DB0UT-9 | 2026-09-01 05:27:32 | 49.69921 | 7.84580 | 84° | 108km/h | 9491m | 3.6m/s | -40.6°C | 64.5% | 298.5hPa | 2.8V | 04:26:00 | 00:00:00 | 00:00:00 | |
| DL8DAS-14 | 2026-09-01 05:27:29 | 49.69906 | 7.84410 | 81° | 111km/h | 9475m | 4.4m/s | -40.4°C | 65.2% | 299.1hPa | 2.8V | 00:00:00 | 00:00:00 | 00:00:00 | |
| DM0DOS-11 | 2026-09-01 05:27:28 | 49.69882 | 7.84152 | 82° | 111km/h | 9451m | 4.6m/s | -40.4°C | 72.7% | 300.2hPa | 2.8V | 04:26:05 | 00:56:02 | 00:00:00 | |
| BIOWL1-15 | 2026-09-01 05:27:26 | 49.69894 | 7.84281 | 82° | 111km/h | 9463m | 3.6m/s | -40.4°C | 67.7% | 299.7hPa | 2.8V | 04:26:52 | 00:56:05 | 00:00:00 | |
| NBG1-10 | 2026-09-01 05:27:26 | 49.69893 | 7.84281 | 82° | 113km/h | 9463m | 3.6m/s | -40.4°C | 73.9% | 299.6hPa | 2.8V | 00:00:00 | 00:56:05 | 00:00:00 | |
| DB0ND-19 | 2026-09-01 05:27:24 | 49.69882 | 7.84152 | 82° | 110km/h | 9451m | 4.6m/s | -40.4°C | 65.0% | 300.2hPa | 2.8V | 00:00:00 | 00:00:00 | 00:00:00 | |
| BIOWL9-15 | 2026-09-01 05:27:23 | 49.69882 | 7.84152 | 82° | 110km/h | 9451m | 4.6m/s | -40.4°C | 65.0% | 300.2hPa | 2.8V | 00:00:00 | 00:00:00 | 00:00:00 | |
| DL1ZP-14 | 2026-09-01 05:27:21 | 49.69870 | 7.84024 | 81° | 110km/h | 9439m | 3.8m/s | -40.3°C | 64.8% | 300.7hPa | 2.8V | 00:00:00 | 00:00:00 | 00:00:00 | |
| DM0DOS-11 | 2026-09-01 05:27:18 | 49.69842 | 7.83729 | 81° | 113km/h | 9410m | 4.5m/s | -40.1°C | 72% | 302.1hPa | 2.8V | 04:26:15 | 00:55:52 | 00:00:00 | |
| BIOWL1-15 | 2026-09-01 05:27:17 | 49.69850 | 7.83814 | 82° | 110km/h | 9419m | 2.4m/s | -40.1°C | 66.8% | 301.6hPa | 2.7V | 04:26:52 | 00:55:54 | 00:00:00 | |
| DF1GD-15 | 2026-09-01 05:27:15 | 49.69853 | 7.83856 | 83° | 110km/h | 9423m | 4.5m/s | -40.2°C | 64.6% | 301.5hPa | 2.7V | 04:26:00 | 00:00:00 | 00:00:00 | |
| DK5PH-5 | 2026-09-01 05:27:14 | 49.69845 | 7.83772 | 82° | 113km/h | 9415m | 5.1m/s | -40.1°C | 71.6% | 301.8hPa | 2.7V | 00:00:00 | 00:55:53 | 00:00:00 | |
| DL0LBS | 2026-09-01 05:27:13 | 49.69845 | 7.83772 | 83° | 110km/h | 9415m | 5.2m/s | -40.1°C | 64.2% | 301.9hPa | 2.7V | 04:26:00 | 00:00:00 | 00:00:00 | |
| DB0UT-7 | 2026-09-01 05:27:12 | 49.69838 | 7.83685 | 83° | 115km/h | 9406m | 3.7m/s | -40.0°C | 72.3% | 302.2hPa | 2.7V | 00:00:00 | 00:00:00 | 00:00:00 | |
| DM3KS-11 | 2026-09-01 05:27:11 | 49.69834 | 7.83641 | 83° | 113km/h | 9402m | 4.3m/s | -40.0°C | 64.0% | 302.3hPa | 2.7V | 00:00:00 | 00:00:00 | 00:00:00 | |
| DM0DOS-11 | 2026-09-01 05:27:08 | 49.69807 | 7.83296 | 82° | 113km/h | 9369m | 3.6m/s | -39.8°C | 72.1% | 303.9hPa | 2.7V | 04:26:25 | 00:55:42 | 00:00:00 | |
| BIOWL1-15 | 2026-09-01 05:27:08 | 49.69811 | 7.83339 | 83° | 111km/h | 9373m | 4.8m/s | -39.8°C | 67.1% | 303.7hPa | 2.7V | 04:26:52 | 00:55:43 | 00:00:00 | |
| DO3MHA-11 | 2026-09-01 05:27:08 | 49.69824 | 7.83510 | 84° | 113km/h | 9388m | 4.1m/s | -39.9°C | 72.1% | 302.9hPa | 2.7V | 00:00:00 | 00:55:47 | 00:00:00 | |
| DF7PN | 2026-09-01 05:27:07 | 49.69821 | 7.83467 | 83° | 110km/h | 9385m | 3.2m/s | -39.9°C | 64.4% | 303.3hPa | 2.8V | 00:00:00 | 00:00:00 | 00:00:00 | |
| HEMX73-11 | 2026-09-01 05:27:05 | 49.69817 | 7.83424 | 84° | 110km/h | 9381m | 4.7m/s | -39.9°C | 64.1% | 303.4hPa | 2.8V | 04:26:00 | 00:00:00 | 00:00:00 | |
| DM0DOS-11 | 2026-09-01 05:26:58 | 49.69783 | 7.82843 | 84° | 111km/h | 9331m | 3m/s | -39.5°C | 72.1% | 305.6hPa | 2.8V | 04:26:35 | 00:55:32 | 00:00:00 | |
| BIOWL1-15 | 2026-09-01 05:26:54 | 49.69786 | 7.82886 | 85° | 111km/h | 9334m | 3.7m/s | -39.5°C | 66.8% | 305.4hPa | 2.8V | 04:26:52 | 00:55:33 | 00:00:00 | |
| DB0ND-19 | 2026-09-01 05:26:53 | 49.69781 | 7.82800 | 84° | 110km/h | 9327m | 3.8m/s | -39.5°C | 64.7% | 305.8hPa | 2.8V | 00:00:00 | 00:00:00 | 00:00:00 | |
| BIOWL9-15 | 2026-09-01 05:26:52 | 49.69781 | 7.82800 | 84° | 110km/h | 9327m | 3.8m/s | -39.5°C | 64.7% | 305.8hPa | 2.8V | 00:00:00 | 00:00:00 | 00:00:00 | |
| DL1ZP-14 | 2026-09-01 05:26:50 | 49.69774 | 7.82671 | 85° | 111km/h | 9315m | 4.5m/s | -39.4°C | 64.7% | 306.3hPa | 2.8V | 00:00:00 | 00:00:00 | 00:00:00 | |
| DM0DOS-11 | 2026-09-01 05:26:48 | 49.69762 | 7.82401 | 86° | 115km/h | 9292m | 4.4m/s | -39.3°C | 72.9% | 307.3hPa | 2.8V | 04:26:45 | 00:55:22 | 00:00:00 | |
| BIOWL1-15 | 2026-09-01 05:26:46 | 49.69764 | 7.82446 | 86° | 115km/h | 9296m | 3.1m/s | -39.3°C | 67.7% | 307.1hPa | 2.8V | 04:26:52 | 00:55:23 | 00:00:00 | |
| DK5PH-5 | 2026-09-01 05:26:44 | 49.69764 | 7.82446 | 86° | 113km/h | 9296m | 3.0m/s | -39.2°C | 73.1% | 307.1hPa | 2.7V | 00:00:00 | 00:55:23 | 00:00:00 | |
| DB0UT-7 | 2026-09-01 05:26:40 | 49.69757 | 7.82269 | 87° | 113km/h | 9281m | 3.6m/s | -39.1°C | 72.9% | 307.7hPa | 2.7V | 04:26:00 | 00:55:19 | 00:00:00 | |
| DM0DOS-11 | 2026-09-01 05:26:38 | 49.69749 | 7.81964 | 87° | 110km/h | 9254m | 3.6m/s | -39.1°C | 73.7% | 309hPa | 2.7V | 04:26:55 | 00:55:12 | 00:00:00 | |
| BIOWL1-15 | 2026-09-01 05:26:35 | 49.69749 | 7.81964 | 88° | 110km/h | 9254m | 3.6m/s | -39.1°C | 69% | 309hPa | 2.7V | 04:27:43 | 00:55:12 | 00:00:00 | |
| BIOWL1-15 | 2026-09-01 05:26:24 | 49.69737 | 7.81489 | 89° | 113km/h | 9212m | 4.7m/s | -38.8°C | 69.1% | 310.9hPa | 2.7V | 04:27:43 | 00:55:01 | 00:00:00 | |
| HEMX73-11 | 2026-09-01 05:26:23 | 49.69738 | 7.81578 | 89° | 115km/h | 9220m | 3.5m/s | -38.8°C | 66.8% | 310.5hPa | 2.8V | 04:27:00 | 00:00:00 | 00:00:00 | |
| DB0ND-19 | 2026-09-01 05:26:22 | 49.69736 | 7.81445 | 87° | 111km/h | 9208m | 2.9m/s | -38.7°C | 67.3% | 311.1hPa | 2.8V | 00:00:00 | 00:00:00 | 00:00:00 | |
| BIOWL9-15 | 2026-09-01 05:26:21 | 49.69736 | 7.81445 | 87° | 111km/h | 9208m | 2.9m/s | -38.7°C | 67.3% | 311.1hPa | 2.8V | 00:00:00 | 00:00:00 | 00:00:00 | |
| NBG1-10 | 2026-09-01 05:26:20 | 49.69735 | 7.81401 | 88° | 117km/h | 9205m | 4.0m/s | -38.7°C | 74.6% | 311.1hPa | 2.8V | 04:27:00 | 00:54:59 | 00:00:00 | |
| DL1ZP-14 | 2026-09-01 05:26:19 | 49.69733 | 7.81311 | 88° | 115km/h | 9196m | 4.0m/s | -38.7°C | 67.8% | 311.6hPa | 2.8V | 00:00:00 | 00:00:00 | 00:00:00 | |
| DO3MHA-11 | 2026-09-01 05:26:18 | 49.69733 | 7.81311 | 89° | 117km/h | 9196m | 3.9m/s | -38.6°C | 75.2% | 311.5hPa | 2.8V | 00:00:00 | 00:54:57 | 00:00:00 | |
| DM0DOS-11 | 2026-09-01 05:26:17 | 49.69725 | 7.81039 | 86° | 117km/h | 9173m | 3.2m/s | -38.5°C | 75.8% | 312.6hPa | 2.8V | 04:27:16 | 00:54:51 | 00:00:00 | |
| BIOWL1-15 | 2026-09-01 05:26:11 | 49.69718 | 7.80856 | 86° | 117km/h | 9157m | 3m/s | -38.3°C | 70.8% | 313.4hPa | 2.8V | 04:27:43 | 00:54:47 | 00:00:00 | |
| DB0UT-7 | 2026-09-01 05:26:09 | 49.69720 | 7.80902 | 87° | 117km/h | 9161m | 4.2m/s | -38.3°C | 75.9% | 313.1hPa | 2.7V | 00:00:00 | 00:00:00 | 00:00:00 | |
| DO3MHA-11 | 2026-09-01 05:26:08 | 49.69718 | 7.80856 | 86° | 117km/h | 9157m | 3.0m/s | -38.3°C | 76.6% | 313.3hPa | 2.7V | 00:00:00 | 00:54:47 | 00:00:00 | |
| DM0DOS-11 | 2026-09-01 05:26:07 | 49.69714 | 7.80582 | 89° | 117km/h | 9135m | 3.3m/s | -38.2°C | 76.3% | 314.3hPa | 2.8V | 04:27:26 | 00:54:41 | 00:00:00 | |
| BIOWL1-15 | 2026-09-01 05:26:00 | 49.69713 | 7.80490 | 90° | 119km/h | 9127m | 4.2m/s | -38.1°C | 70.8% | 314.8hPa | 2.8V | 04:27:43 | 00:54:39 | 00:00:00 | |
| DO3MHA-11 | 2026-09-01 05:25:58 | 49.69712 | 7.80398 | 90° | 117km/h | 9119m | 2.7m/s | -38.0°C | 76.9% | 315.0hPa | 2.8V | 04:27:00 | 00:54:37 | 00:00:00 | |
| DM0DOS-11 | 2026-09-01 05:25:57 | 49.69706 | 7.80123 | 86° | 117km/h | 9097m | 4.2m/s | -37.9°C | 76.9% | 316.1hPa | 2.8V | 04:27:36 | 00:54:31 | 00:00:00 | |
| BIOWL1-15 | 2026-09-01 05:25:50 | 49.69703 | 7.80032 | 87° | 117km/h | 9089m | 3.7m/s | -37.9°C | 71.7% | 316.4hPa | 2.7V | 04:27:43 | 00:54:29 | 00:00:00 | |
| DL1ZP-14 | 2026-09-01 05:25:48 | 49.69700 | 7.79895 | 87° | 117km/h | 9078m | 4.0m/s | -37.8°C | 70.6% | 317.0hPa | 2.8V | 00:00:00 | 00:00:00 | 00:00:00 | |
| DM0DOS-11 | 2026-09-01 05:25:47 | 49.69694 | 7.79664 | 88° | 119km/h | 9059m | 4.2m/s | -37.6°C | 77% | 317.7hPa | 2.8V | 04:27:46 | 00:54:21 | 00:00:00 | |
| NBG1-10 | 2026-09-01 05:25:47 | 49.69699 | 7.79895 | 88° | 119km/h | 9078m | 3.9m/s | -37.7°C | 78.1% | 316.9hPa | 2.7V | 00:00:00 | 00:54:26 | 00:00:00 | |
| DM7RM-13 | 2026-09-01 05:25:46 | 49.69699 | 7.79895 | 89° | 119km/h | 9078m | 4.0m/s | -37.8°C | 70.7% | 317.0hPa | 2.7V | 04:27:00 | 00:00:00 | 00:00:00 | |
| DK5PH-5 | 2026-09-01 05:25:44 | 49.69696 | 7.79757 | 89° | 119km/h | 9067m | 3.3m/s | -37.7°C | 77.5% | 317.4hPa | 2.7V | 00:00:00 | 00:54:23 | 00:00:00 | |
| HEMX73-11 | 2026-09-01 05:25:41 | 49.69694 | 7.79664 | 89° | 120km/h | 9060m | 4.2m/s | -37.6°C | 69.6% | 317.7hPa | 2.7V | 04:28:00 | 00:00:00 | 00:00:00 | |
| DB0UT-7 | 2026-09-01 05:25:39 | 49.69691 | 7.79526 | 88° | 117km/h | 9048m | 3.8m/s | -37.5°C | 75.9% | 318.3hPa | 2.7V | 00:00:00 | 00:54:18 | 00:00:00 | |
| BIOWL1-15 | 2026-09-01 05:25:39 | 49.69691 | 7.79526 | 88° | 119km/h | 9048m | 3.8m/s | -37.6°C | 70.9% | 318.4hPa | 2.8V | 04:28:34 | 00:54:18 | 00:00:00 | |
| DO3MHA-11 | 2026-09-01 05:25:38 | 49.69690 | 7.79480 | 88° | 117km/h | 9044m | 4.0m/s | -37.5°C | 75.9% | 318.5hPa | 2.7V | 00:00:00 | 00:54:17 | 00:00:00 | |
| DM0DOS-11 | 2026-09-01 05:25:37 | 49.69683 | 7.79207 | 87° | 117km/h | 9021m | 3.6m/s | -37.3°C | 76.1% | 319.6hPa | 2.7V | 04:27:56 | 00:54:11 | 00:00:00 | |
| BIOWL1-15 | 2026-09-01 05:25:29 | 49.69679 | 7.79069 | 88° | 119km/h | 9010m | 3.2m/s | -37.2°C | 70.8% | 320.1hPa | 2.8V | 04:28:34 | 00:54:08 | 00:00:00 | |
| BIOWL1-15 | 2026-09-01 05:25:21 | 49.69670 | 7.78608 | 89° | 117km/h | 8972m | 3.2m/s | -36.9°C | 72.3% | 321.9hPa | 2.7V | 04:28:34 | 00:53:58 | 00:00:00 | |
| BIOWL1-15 | 2026-09-01 05:25:08 | 49.69660 | 7.78016 | 89° | 120km/h | 8923m | 4.2m/s | -36.6°C | 71.1% | 324.2hPa | 2.7V | 04:28:34 | 00:53:45 | 00:00:00 | |
| DO3MHA-11 | 2026-09-01 05:25:08 | 49.69661 | 7.78109 | 89° | 119km/h | 8930m | 3.5m/s | -36.6°C | 76.5% | 323.8hPa | 2.7V | 04:28:00 | 00:53:47 | 00:00:00 | |
| DM3KS-11 | 2026-09-01 05:25:07 | 49.69660 | 7.78063 | 88° | 119km/h | 8927m | 3.5m/s | -36.6°C | 68.6% | 323.9hPa | 2.8V | 00:00:00 | 00:00:00 | 00:00:00 | |
| DM0DOS-11 | 2026-09-01 05:25:06 | 49.69657 | 7.77781 | 88° | 120km/h | 8904m | 3.6m/s | -36.4°C | 76.7% | 325hPa | 2.8V | 04:28:27 | 00:53:40 | 00:00:00 | |
| BIOWL1-15 | 2026-09-01 05:24:58 | 49.69651 | 7.77550 | 88° | 119km/h | 8885m | 4.4m/s | -36.3°C | 73.9% | 325.9hPa | 2.8V | 04:28:34 | 00:53:35 | 00:00:00 | |
| DM0DOS-11 | 2026-09-01 05:24:56 | 49.69645 | 7.77322 | 87° | 117km/h | 8865m | 3.5m/s | -36.1°C | 79.2% | 326.9hPa | 2.8V | 04:28:37 | 00:53:30 | 00:00:00 | |
| BIOWL1-15 | 2026-09-01 05:24:50 | 49.69641 | 7.77187 | 88° | 119km/h | 8854m | 3.4m/s | -36.1°C | 74.5% | 327.4hPa | 2.8V | 04:29:25 | 00:53:27 | 00:00:00 | |
| BIOWL9-15 | 2026-09-01 05:24:48 | 49.69641 | 7.77187 | 88° | 117km/h | 8854m | 3.4m/s | -36.1°C | 72.5% | 327.4hPa | 2.8V | 00:00:00 | 00:00:00 | 00:00:00 | |
| DM0DOS-11 | 2026-09-01 05:24:46 | 49.69633 | 7.76859 | 86° | 120km/h | 8828m | 4.3m/s | -35.9°C | 78.2% | 328.6hPa | 2.8V | 04:28:47 | 00:53:20 | 00:00:00 | |
| DL1ZP-14 | 2026-09-01 05:24:45 | 49.69638 | 7.77047 | 88° | 119km/h | 8843m | 4.5m/s | -36.0°C | 71.5% | 327.9hPa | 2.8V | 00:00:00 | 00:00:00 | 00:00:00 | |
| BIOWL1-15 | 2026-09-01 05:24:37 | 49.69622 | 7.76583 | 87° | 119km/h | 8805m | 3.6m/s | -35.7°C | 72.9% | 329.7hPa | 2.8V | 04:29:25 | 00:53:14 | 00:00:00 | |
| DM0DOS-11 | 2026-09-01 05:24:36 | 49.69614 | 7.76401 | 86° | 117km/h | 8790m | 3.9m/s | -35.6°C | 75.5% | 330.5hPa | 2.8V | 04:28:57 | 00:53:10 | 00:00:00 | |
| BIOWL1-15 | 2026-09-01 05:24:26 | 49.69601 | 7.76129 | 86° | 117km/h | 8766m | 3.3m/s | -35.4°C | 70.4% | 331.6hPa | 2.8V | 04:29:25 | 00:53:04 | 00:00:00 | |
| DM0DOS-11 | 2026-09-01 05:24:26 | 49.69593 | 7.75947 | 85° | 117km/h | 8751m | 3.6m/s | -35.3°C | 74.1% | 332.1hPa | 2.8V | 04:29:07 | 00:53:00 | 00:00:00 | |
| DO3MHA-11 | 2026-09-01 05:24:25 | 49.69601 | 7.76129 | 86° | 117km/h | 8766m | 3.2m/s | -35.4°C | 74.6% | 331.5hPa | 2.8V | 00:00:00 | 00:53:04 | 00:00:00 | |
| DM7RM-13 | 2026-09-01 05:24:23 | 49.69599 | 7.76084 | 87° | 117km/h | 8763m | 3.9m/s | -35.4°C | 67.6% | 331.6hPa | 2.8V | 04:29:00 | 00:00:00 | 00:00:00 | |
| HEMX73-11 | 2026-09-01 05:24:18 | 49.69590 | 7.75856 | 88° | 117km/h | 8744m | 4.2m/s | -35.2°C | 67.0% | 332.6hPa | 2.8V | 04:29:00 | 00:00:00 | 00:00:00 | |
| BIOWL9-15 | 2026-09-01 05:24:17 | 49.69586 | 7.75765 | 85° | 115km/h | 8736m | 4.0m/s | -35.2°C | 66.8% | 333.0hPa | 2.8V | 00:00:00 | 00:00:00 | 00:00:00 | |
| DM0DOS-11 | 2026-09-01 05:24:16 | 49.69572 | 7.75495 | 85° | 115km/h | 8714m | 4.7m/s | -35°C | 72.5% | 334.1hPa | 2.8V | 04:29:17 | 00:52:50 | 00:00:00 | |
| BIOWL1-15 | 2026-09-01 05:24:15 | 49.69581 | 7.75675 | 86° | 117km/h | 8729m | 4.2m/s | -35.1°C | 69.1% | 333.3hPa | 2.8V | 04:29:25 | 00:52:54 | 00:00:00 | |
| DO3MHA-11 | 2026-09-01 05:24:15 | 49.69581 | 7.75675 | 86° | 115km/h | 8729m | 4.2m/s | -35.1°C | 72.9% | 333.3hPa | 2.8V | 04:29:00 | 00:52:54 | 00:00:00 | |
| DK5PH-5 | 2026-09-01 05:24:14 | 49.69579 | 7.75630 | 86° | 115km/h | 8726m | 3.6m/s | -35.0°C | 73.0% | 333.4hPa | 2.8V | 00:00:00 | 00:52:53 | 00:00:00 | |
| DL8DAS-15 | 2026-09-01 05:24:12 | 49.69577 | 7.75584 | 86° | 115km/h | 8722m | 4.4m/s | -35.1°C | 0% | 0hPa | 2.8V | 04:29:00 | 00:00:00 | 00:00:00 | |
| NBG1-10 | 2026-09-01 05:24:08 | 49.69566 | 7.75361 | 87° | 115km/h | 8702m | 4.6m/s | -34.9°C | 72.5% | 334.5hPa | 2.8V | 00:00:00 | 00:52:47 | 00:00:00 | |
| DB0UT-7 | 2026-09-01 05:24:07 | 49.69564 | 7.75317 | 86° | 115km/h | 8698m | 3.6m/s | -34.8°C | 72.6% | 334.7hPa | 2.8V | 04:29:00 | 00:00:00 | 00:00:00 | |
| DM0DOS-11 | 2026-09-01 05:24:06 | 49.69548 | 7.75049 | 83° | 115km/h | 8675m | 3.9m/s | -34.7°C | 72.4% | 335.9hPa | 2.8V | 04:29:27 | 00:52:40 | 00:00:00 | |
| BIOWL1-15 | 2026-09-01 05:24:05 | 49.69560 | 7.75228 | 86° | 115km/h | 8690m | 3.9m/s | -34.8°C | 68.3% | 335.2hPa | 2.8V | 04:29:25 | 00:52:44 | 00:00:00 | |
| BIOWL1-15 | 2026-09-01 05:23:57 | 49.69534 | 7.74782 | 87° | 115km/h | 8652m | 3.9m/s | -34.5°C | 68.3% | 337hPa | 2.8V | 04:30:16 | 00:52:34 | 00:00:00 | |
| DM0DOS-11 | 2026-09-01 05:23:56 | 49.69525 | 7.74605 | 84° | 113km/h | 8637m | 3.6m/s | -34.4°C | 73.7% | 337.8hPa | 2.8V | 04:29:37 | 00:52:30 | 00:00:00 | |
| DL8DAS-14 | 2026-09-01 05:23:52 | 49.69527 | 7.74649 | 85° | 113km/h | 8640m | 4.5m/s | -34.4°C | 66.4% | 337.5hPa | 2.8V | 00:00:00 | 00:00:00 | 00:00:00 | |
| BIOWL9-15 | 2026-09-01 05:23:46 | 49.69512 | 7.74385 | 85° | 113km/h | 8617m | 3.7m/s | -34.3°C | 68.8% | 338.7hPa | 2.8V | 00:00:00 | 00:00:00 | 00:00:00 | |
| BIOWL1-15 | 2026-09-01 05:23:44 | 49.69509 | 7.74296 | 86° | 115km/h | 8609m | 4.4m/s | -34.2°C | 71.3% | 339.1hPa | 2.8V | 04:30:16 | 00:52:23 | 00:00:00 | |
| DK5PH-5 | 2026-09-01 05:23:44 | 49.69508 | 7.74296 | 87° | 113km/h | 8609m | 4.4m/s | -34.2°C | 75.7% | 339.1hPa | 2.7V | 04:29:00 | 00:52:23 | 00:00:00 | |
| DL1ZP-14 | 2026-09-01 05:23:43 | 49.69506 | 7.74251 | 85° | 115km/h | 8605m | 4.0m/s | -34.2°C | 69.1% | 339.4hPa | 2.8V | 00:00:00 | 00:00:00 | 00:00:00 | |
| DM7RM-13 | 2026-09-01 05:23:42 | 49.69506 | 7.74251 | 86° | 115km/h | 8605m | 4.0m/s | -34.2°C | 69.2% | 339.3hPa | 2.8V | 00:00:00 | 00:00:00 | 00:00:00 | |
| DM0DOS-11 | 2026-09-01 05:23:40 | 49.69498 | 7.74119 | 83° | 113km/h | 8593m | 4.5m/s | -34.1°C | 75.7% | 339.9hPa | 2.8V | 04:29:48 | 00:52:19 | 00:00:00 | |
| HEMX73-11 | 2026-09-01 05:23:37 | 49.69492 | 7.74030 | 85° | 115km/h | 8585m | 4.1m/s | -34.0°C | 69.2% | 340.2hPa | 2.8V | 04:30:00 | 00:00:00 | 00:00:00 | |
| DB0UT-7 | 2026-09-01 05:23:36 | 49.69486 | 7.73942 | 85° | 113km/h | 8577m | 3.5m/s | -33.9°C | 76.1% | 340.6hPa | 2.8V | 00:00:00 | 00:52:15 | 00:00:00 | |
| DM0DOS-11 | 2026-09-01 05:23:35 | 49.69472 | 7.73682 | 86° | 111km/h | 8554m | 3.8m/s | -33.8°C | 75.8% | 341.8hPa | 2.8V | 04:29:58 | 00:52:09 | 00:00:00 | |
| BIOWL1-15 | 2026-09-01 05:23:35 | 49.69478 | 7.73811 | 85° | 111km/h | 8566m | 3.3m/s | -33.9°C | 71.5% | 341.2hPa | 2.8V | 04:30:16 | 00:52:12 | 00:00:00 | |
| BIOWL1-15 | 2026-09-01 05:23:25 | 49.69454 | 7.73371 | 85° | 113km/h | 8526m | 4.7m/s | -33.5°C | 71.1% | 343.1hPa | 2.8V | 04:30:16 | 00:52:02 | 00:00:00 | |
| DO3MHA-11 | 2026-09-01 05:23:25 | 49.69460 | 7.73460 | 85° | 113km/h | 8534m | 4.6m/s | 0°C | 0% | 0hPa | 2.8V | 04:30:00 | 00:52:04 | 00:00:00 | |
| DM0DOS-11 | 2026-09-01 05:23:20 | 49.69446 | 7.73243 | 84° | 110km/h | 8513m | 3.8m/s | -33.4°C | 74.7% | 343.8hPa | 2.8V | 04:30:08 | 00:51:59 | 00:00:00 | |
| DF1GD-15 | 2026-09-01 05:23:18 | 49.69443 | 7.73200 | 86° | 110km/h | 8509m | 4.4m/s | -33.4°C | 68.4% | 344.0hPa | 2.7V | 04:30:00 | 00:00:00 | 00:00:00 | |
| HEMX73-11 | 2026-09-01 05:23:16 | 49.69439 | 7.73113 | 86° | 113km/h | 8502m | 5.1m/s | -33.3°C | 67.7% | 344.2hPa | 2.7V | 04:30:00 | 00:00:00 | 00:00:00 | |
| DM0DOS-11 | 2026-09-01 05:23:15 | 49.69418 | 7.72802 | 83° | 113km/h | 8473m | 3.9m/s | -33.1°C | 75.4% | 345.7hPa | 2.7V | 04:30:18 | 00:51:49 | 00:00:00 | |
| BIOWL1-15 | 2026-09-01 05:23:13 | 49.69427 | 7.72935 | 83° | 115km/h | 8485m | 4.4m/s | -33.2°C | 70.9% | 345.1hPa | 2.8V | 04:30:16 | 00:51:52 | 00:00:00 | |
| BIOWL1-15 | 2026-09-01 05:23:02 | 49.69394 | 7.72451 | 83° | 113km/h | 8441m | 2.8m/s | -32.8°C | 71.5% | 347.3hPa | 2.8V | 04:31:07 | 00:51:41 | 00:00:00 | |
| BIOWL1-15 | 2026-09-01 05:22:51 | 49.69362 | 7.71974 | 86° | 111km/h | 8398m | 4.6m/s | -32.5°C | 72.1% | 349.3hPa | 2.8V | 04:31:07 | 00:51:30 | 00:00:00 | |
| BIOWL1-15 | 2026-09-01 05:22:41 | 49.69339 | 7.71538 | 85° | 111km/h | 8358m | 4.8m/s | -32.2°C | 71% | 351.3hPa | 2.8V | 04:31:07 | 00:51:20 | 00:00:00 | |
| DM0DOS-11 | 2026-09-01 05:22:40 | 49.69326 | 7.71320 | 84° | 111km/h | 8338m | 3.5m/s | -32°C | 73.8% | 352.2hPa | 2.7V | 04:30:52 | 00:51:15 | 00:00:00 | |
| BIOWL1-15 | 2026-09-01 05:22:33 | 49.69314 | 7.71109 | 86° | 108km/h | 8320m | 4.3m/s | -31.9°C | 71.1% | 353.3hPa | 2.8V | 04:31:07 | 00:51:10 | 00:00:00 | |
| DM3KS-11 | 2026-09-01 05:22:32 | 49.69314 | 7.71109 | 85° | 106km/h | 8320m | 4.3m/s | -31.9°C | 67.9% | 353.3hPa | 2.8V | 00:00:00 | 00:00:00 | 00:00:00 | |
| DM0DOS-11 | 2026-09-01 05:22:30 | 49.69304 | 7.70898 | 85° | 110km/h | 8300m | 3.9m/s | -31.8°C | 72.8% | 354.3hPa | 2.8V | 04:31:02 | 00:51:05 | 00:00:00 | |
| NBG1-10 | 2026-09-01 05:22:29 | 49.69311 | 7.71025 | 86° | 110km/h | 8311m | 4.5m/s | -31.8°C | 73.7% | 353.6hPa | 2.8V | 00:00:00 | 00:51:08 | 00:00:00 | |
| DO1YAY-16 | 2026-09-01 05:22:27 | 49.69306 | 7.70941 | 84° | 110km/h | 8304m | 3.7m/s | -31.8°C | 67.1% | 354.1hPa | 2.8V | 00:00:00 | 00:00:00 | 00:00:00 | |
| DL9PN | 2026-09-01 05:22:26 | 49.69304 | 7.70898 | 85° | 110km/h | 8300m | 3.9m/s | -31.8°C | 66.8% | 354.3hPa | 2.8V | 00:00:00 | 00:00:00 | 00:00:00 | |
| DL0LBS | 2026-09-01 05:22:25 | 49.69301 | 7.70855 | 86° | 110km/h | 8296m | 3.5m/s | -31.7°C | 66.5% | 354.5hPa | 2.8V | 00:00:00 | 00:00:00 | 00:00:00 | |
| DF3TZ-5 | 2026-09-01 05:22:24 | 49.69295 | 7.70770 | 83° | 110km/h | 8289m | 3.5m/s | -31.7°C | 66.2% | 354.8hPa | 2.8V | 00:00:00 | 00:00:00 | 00:00:00 | |
| DM0DOS-11 | 2026-09-01 05:22:20 | 49.69276 | 7.70429 | 85° | 110km/h | 8256m | 5.2m/s | -31.6°C | 72% | 356.4hPa | 2.8V | 04:31:13 | 00:50:54 | 00:00:00 | |
| BIOWL1-15 | 2026-09-01 05:22:20 | 49.69288 | 7.70641 | 85° | 110km/h | 8277m | 4.2m/s | -31.7°C | 68.9% | 355.4hPa | 2.7V | 04:32:49 | 00:50:59 | 00:00:00 | |
| BIOWL1-15 | 2026-09-01 05:22:15 | 49.69259 | 7.70170 | 83° | 111km/h | 8233m | 2.5m/s | -31.5°C | 71.8% | 357.6hPa | 2.8V | 04:32:49 | 00:50:48 | 00:00:00 | |
| DK5PH-5 | 2026-09-01 05:22:14 | 49.69273 | 7.70386 | 85° | 110km/h | 8252m | 3.4m/s | -31.5°C | 73.2% | 356.6hPa | 2.7V | 00:00:00 | 00:50:53 | 00:00:00 | |
| BIOWL9-15 | 2026-09-01 05:22:13 | 49.69271 | 7.70342 | 85° | 111km/h | 8248m | 4.8m/s | -31.6°C | 67.7% | 356.9hPa | 2.8V | 00:00:00 | 00:00:00 | 00:00:00 | |
| DM0DOS-11 | 2026-09-01 05:22:10 | 49.69247 | 7.69998 | 84° | 110km/h | 8217m | 3.8m/s | -31.4°C | 78.2% | 358.4hPa | 2.8V | 04:31:23 | 00:50:44 | 00:00:00 | |
| DL1ZP-14 | 2026-09-01 05:22:10 | 49.69263 | 7.70213 | 83° | 110km/h | 8236m | 3.9m/s | -31.5°C | 69.6% | 357.4hPa | 2.8V | 00:00:00 | 00:00:00 | 00:00:00 | |
| DB0UT-7 | 2026-09-01 05:22:06 | 49.69250 | 7.70041 | 85° | 110km/h | 8221m | 3.4m/s | -31.4°C | 77.6% | 358.1hPa | 2.8V | 00:00:00 | 00:00:00 | 00:00:00 | |
| DL0LBS | 2026-09-01 05:22:02 | 49.69242 | 7.69912 | 86° | 111km/h | 8209m | 4.0m/s | -31.3°C | 72.3% | 358.8hPa | 2.8V | 04:31:00 | 00:00:00 | 00:00:00 | |
| DM3KS-11 | 2026-09-01 05:22:01 | 49.69233 | 7.69784 | 84° | 108km/h | 8198m | 4.1m/s | -31.2°C | 71.3% | 359.4hPa | 2.8V | 00:00:00 | 00:00:00 | 00:00:00 | |
| DM0DOS-11 | 2026-09-01 05:21:59 | 49.69221 | 7.69530 | 85° | 111km/h | 8174m | 4.2m/s | -31°C | 76.4% | 360.6hPa | 2.8V | 04:31:34 | 00:50:33 | 00:00:00 | |
| BIOWL1-15 | 2026-09-01 05:21:59 | 49.69231 | 7.69742 | 85° | 108km/h | 8194m | 3.8m/s | -31.2°C | 73.1% | 359.6hPa | 2.7V | 04:32:49 | 00:50:38 | 00:00:00 | |
| BIOWL1-15 | 2026-09-01 05:21:48 | 49.69202 | 7.69272 | 84° | 111km/h | 8149m | 3.8m/s | -30.8°C | 73.4% | 361.9hPa | 2.8V | 04:32:49 | 00:50:27 | 00:00:00 | |
| DK5PH-5 | 2026-09-01 05:21:44 | 49.69191 | 7.69103 | 85° | 108km/h | 8134m | 3.2m/s | -30.7°C | 79.7% | 362.6hPa | 2.7V | 00:00:00 | 00:50:23 | 00:00:00 | |
| DB0ND-19 | 2026-09-01 05:21:42 | 49.69187 | 7.69018 | 86° | 108km/h | 8125m | 3.4m/s | -30.7°C | 73.2% | 363.1hPa | 2.7V | 00:00:00 | 00:00:00 | 00:00:00 | |
| DL0LBS | 2026-09-01 05:21:41 | 49.69187 | 7.69018 | 88° | 110km/h | 8125m | 3.4m/s | -30.7°C | 73.2% | 363.1hPa | 2.7V | 04:31:00 | 00:00:00 | 00:00:00 | |
| DM0DOS-11 | 2026-09-01 05:21:40 | 49.69173 | 7.68762 | 84° | 108km/h | 8099m | 4.6m/s | -30.5°C | 76% | 364.4hPa | 2.7V | 04:31:52 | 00:50:15 | 00:00:00 | |
| BIOWL1-15 | 2026-09-01 05:21:37 | 49.69176 | 7.68804 | 85° | 110km/h | 8104m | 5.1m/s | -30.5°C | 72.8% | 364.1hPa | 2.7V | 04:32:49 | 00:50:16 | 00:00:00 | |
| DB0UT-7 | 2026-09-01 05:21:36 | 49.69173 | 7.68762 | 85° | 106km/h | 8100m | 4.5m/s | -30.4°C | 76.0% | 364.3hPa | 2.7V | 04:31:00 | 00:50:15 | 00:00:00 | |
| DF1GD-15 | 2026-09-01 05:21:35 | 49.69173 | 7.68762 | 86° | 108km/h | 8100m | 4.6m/s | -30.5°C | 70.1% | 364.4hPa | 2.8V | 00:00:00 | 00:00:00 | 00:00:00 | |
| DM7RM-13 | 2026-09-01 05:21:33 | 49.69168 | 7.68679 | 86° | 106km/h | 8092m | 4.4m/s | -30.4°C | 0% | 364.8hPa | 2.8V | 04:31:00 | 00:00:00 | 00:00:00 | |
| HEMX73-11 | 2026-09-01 05:21:31 | 49.69164 | 7.68597 | 86° | 106km/h | 8082m | 5.2m/s | -30.4°C | 68.4% | 365.3hPa | 2.8V | 04:31:00 | 00:00:00 | 00:00:00 | |
| DM0DOS-11 | 2026-09-01 05:21:30 | 49.69149 | 7.68353 | 84° | 106km/h | 8057m | 4.7m/s | -30.3°C | 70.4% | 366.6hPa | 2.8V | 04:32:02 | 00:50:05 | 00:00:00 | |
| BIOWL1-15 | 2026-09-01 05:21:24 | 49.69143 | 7.68270 | 84° | 108km/h | 8049m | 4m/s | -30.2°C | 67.2% | 367hPa | 2.8V | 04:32:49 | 00:50:03 | 00:00:00 | |
| DL9PN | 2026-09-01 05:21:24 | 49.69141 | 7.68228 | 83° | 106km/h | 8044m | 4.2m/s | -30.2°C | 63.6% | 367.1hPa | 2.7V | 00:00:00 | 00:00:00 | 00:00:00 | |
| NBG1-10 | 2026-09-01 05:21:23 | 49.69140 | 7.68228 | 84° | 102km/h | 8045m | 4.2m/s | -30.2°C | 69.1% | 367.1hPa | 2.7V | 00:00:00 | 00:50:02 | 00:00:00 | |
| DL0LBS | 2026-09-01 05:21:21 | 49.69138 | 7.68187 | 85° | 106km/h | 8040m | 4.5m/s | -30.2°C | 63.5% | 367.3hPa | 2.7V | 04:32:00 | 00:00:00 | 00:00:00 | |
| DM0DOS-11 | 2026-09-01 05:21:20 | 49.69119 | 7.67942 | 84° | 106km/h | 8016m | 4.2m/s | -30°C | 68.4% | 368.7hPa | 2.7V | 04:32:12 | 00:49:55 | 00:00:00 | |
| DB0UT-9 | 2026-09-01 05:21:16 | 49.69122 | 7.67983 | 84° | 106km/h | 8020m | 3.3m/s | -30.0°C | 62.9% | 368.5hPa | 2.8V | 04:32:00 | 00:00:00 | 00:00:00 | |
| DK5PH-5 | 2026-09-01 05:21:14 | 49.69114 | 7.67861 | 84° | 102km/h | 8009m | 4.5m/s | -29.9°C | 68.2% | 369.0hPa | 2.8V | 04:32:00 | 00:49:53 | 00:00:00 | |
| DM7RM-13 | 2026-09-01 05:21:13 | 49.69114 | 7.67861 | 84° | 104km/h | 8009m | 4.6m/s | -29.9°C | 0% | 0hPa | 2.8V | 04:32:00 | 00:00:00 | 00:00:00 | |
| DB0ND-19 | 2026-09-01 05:21:11 | 49.69104 | 7.67742 | 82° | 102km/h | 7997m | 4.5m/s | -29.9°C | 62.6% | 369.7hPa | 2.8V | 00:00:00 | 00:00:00 | 00:00:00 | |
| DM0DOS-11 | 2026-09-01 05:21:10 | 49.69086 | 7.67541 | 83° | 104km/h | 7977m | 3.7m/s | -29.7°C | 68.4% | 370.8hPa | 2.8V | 04:32:22 | 00:49:45 | 00:00:00 | |
| BIOWL1-15 | 2026-09-01 05:21:05 | 49.69083 | 7.67501 | 83° | 102km/h | 7973m | 3.7m/s | -29.7°C | 65.3% | 371hPa | 2.8V | 04:32:49 | 00:49:44 | 00:00:00 | |
| DM0DOS-11 | 2026-09-01 05:21:00 | 49.69048 | 7.67149 | 81° | 100km/h | 7937m | 4.3m/s | -29.4°C | 57.8% | 372.9hPa | 2.8V | 04:32:32 | 00:49:35 | 00:00:00 | |
| BIOWL1-15 | 2026-09-01 05:20:54 | 49.69041 | 7.67072 | 82° | 99km/h | 7928m | 3.8m/s | -29.4°C | 48.5% | 373.3hPa | 2.7V | 04:32:49 | 00:49:33 | 00:00:00 | |
| DF7PN | 2026-09-01 05:20:54 | 49.69041 | 7.67072 | 82° | 99km/h | 7928m | 3.8m/s | -29.4°C | 45.3% | 373.3hPa | 2.7V | 00:00:00 | 00:00:00 | 00:00:00 | |
| DL9PN | 2026-09-01 05:20:53 | 49.69035 | 7.66994 | 82° | 102km/h | 7920m | 3.3m/s | -29.3°C | 42.8% | 373.8hPa | 2.7V | 00:00:00 | 00:00:00 | 00:00:00 | |
| DM7RM-13 | 2026-09-01 05:20:52 | 49.69038 | 7.67033 | 85° | 100km/h | 7924m | 5.0m/s | -29.3°C | 0% | 0hPa | 2.7V | 04:32:00 | 00:00:00 | 00:00:00 | |
| HEMX73-11 | 2026-09-01 05:20:51 | 49.69032 | 7.66954 | 84° | 102km/h | 7916m | 4.9m/s | -29.2°C | 41.1% | 373.9hPa | 2.7V | 04:32:00 | 00:00:00 | 00:00:00 | |
| DM0DOS-11 | 2026-09-01 05:20:50 | 49.69014 | 7.66717 | 82° | 99km/h | 7890m | 3.4m/s | -29°C | 42.5% | 375.2hPa | 2.7V | 04:32:43 | 00:49:24 | 00:00:00 | |
| BIOWL1-15 | 2026-09-01 05:20:46 | 49.69011 | 7.66679 | 83° | 99km/h | 7886m | 4.9m/s | -29°C | 40.7% | 375.5hPa | 2.8V | 04:32:49 | 00:49:23 | 00:00:00 | |
| DK5PH-5 | 2026-09-01 05:20:44 | 49.69011 | 7.66679 | 83° | 99km/h | 7886m | 4.8m/s | -28.9°C | 40.2% | 375.5hPa | 2.7V | 00:00:00 | 00:49:23 | 00:00:00 | |
| DM0DOS-11 | 2026-09-01 05:20:40 | 49.68987 | 7.66337 | 84° | 95km/h | 7847m | 3.5m/s | -28.6°C | 38.1% | 377.6hPa | 2.8V | 04:32:53 | 00:49:14 | 00:00:00 | |
| BIOWL1-15 | 2026-09-01 05:20:33 | 49.68982 | 7.66262 | 85° | 97km/h | 7839m | 4.8m/s | -28.5°C | 38% | 378.1hPa | 2.8V | 04:33:40 | 00:49:12 | 00:00:00 | |
| DM7RM-13 | 2026-09-01 05:20:31 | 49.68980 | 7.66224 | 85° | 99km/h | 7835m | 3.7m/s | 0°C | 0% | 0hPa | 2.8V | 00:00:00 | 00:00:00 | 00:00:00 | |
| DM0DOS-11 | 2026-09-01 05:20:30 | 49.68962 | 7.65957 | 84° | 97km/h | 7808m | 3.4m/s | -28.2°C | 34.2% | 379.7hPa | 2.8V | 04:33:03 | 00:49:04 | 00:00:00 | |
| BIOWL1-15 | 2026-09-01 05:20:22 | 49.68953 | 7.65844 | 82° | 97km/h | 7796m | 3.2m/s | -28.2°C | 36% | 380.3hPa | 2.7V | 04:33:40 | 00:49:01 | 00:00:00 | |
| BIOWL1-15 | 2026-09-01 05:20:15 | 49.68920 | 7.65421 | 84° | 99km/h | 7752m | 3.9m/s | -27.8°C | 35.8% | 382.7hPa | 2.8V | 04:33:40 | 00:48:50 | 00:00:00 | |
| BIOWL1-15 | 2026-09-01 05:20:02 | 49.68885 | 7.65012 | 81° | 99km/h | 7708m | 3.7m/s | -27.5°C | 43.3% | 385hPa | 2.8V | 04:33:40 | 00:48:39 | 00:00:00 | |
| DM0DOS-11 | 2026-09-01 05:20:00 | 49.68867 | 7.64823 | 81° | 95km/h | 7687m | 4.7m/s | -27.4°C | 46.1% | 386.1hPa | 2.8V | 04:33:33 | 00:48:34 | 00:00:00 | |
| DM3KS-11 | 2026-09-01 05:19:56 | 49.68870 | 7.64860 | 82° | 95km/h | 7692m | 4.5m/s | -27.5°C | 42.3% | 385.9hPa | 2.8V | 00:00:00 | 00:00:00 | 00:00:00 | |
| DO1YAY-16 | 2026-09-01 05:19:52 | 49.68857 | 7.64714 | 82° | 95km/h | 7675m | 3.8m/s | -27.3°C | 43.1% | 386.8hPa | 2.8V | 00:00:00 | 00:00:00 | 00:00:00 | |
| DM0DOS-11 | 2026-09-01 05:19:50 | 49.68837 | 7.64462 | 81° | 89km/h | 7646m | 3.5m/s | -27.2°C | 49.8% | 388.4hPa | 2.8V | 04:33:43 | 00:48:24 | 00:00:00 | |
| BIOWL1-15 | 2026-09-01 05:19:50 | 49.68851 | 7.64641 | 82° | 93km/h | 7667m | 3.8m/s | -27.3°C | 48% | 387.2hPa | 2.7V | 04:33:40 | 00:48:29 | 00:00:00 | |
| DF3TZ-5 | 2026-09-01 05:19:48 | 49.68845 | 7.64568 | 84° | 93km/h | 7658m | 3.5m/s | -27.2°C | 44.3% | 387.7hPa | 2.8V | 00:00:00 | 00:00:00 | 00:00:00 | |
| DK5PH-5 | 2026-09-01 05:19:44 | 49.68833 | 7.64427 | 81° | 91km/h | 7642m | 5.0m/s | -27.1°C | 49.7% | 388.5hPa | 2.8V | 00:00:00 | 00:48:23 | 00:00:00 | |
| NBG1-10 | 2026-09-01 05:19:41 | 49.68822 | 7.64319 | 81° | 91km/h | 7629m | 4.5m/s | -27.0°C | 49.7% | 389.2hPa | 2.8V | 00:00:00 | 00:48:20 | 00:00:00 | |
| DM0DOS-11 | 2026-09-01 05:19:40 | 49.68795 | 7.64104 | 79° | 91km/h | 7604m | 3.7m/s | -26.9°C | 52.5% | 390.5hPa | 2.8V | 04:33:53 | 00:48:14 | 00:00:00 | |
| BIOWL1-15 | 2026-09-01 05:19:39 | 49.68814 | 7.64248 | 79° | 95km/h | 7621m | 5.4m/s | -27°C | 50.6% | 389.6hPa | 2.8V | 04:34:31 | 00:48:18 | 00:00:00 | |
| BIOWL9-15 | 2026-09-01 05:19:38 | 49.68804 | 7.64175 | 78° | 93km/h | 7612m | 5.6m/s | -26.9°C | 47.5% | 390.1hPa | 2.8V | 00:00:00 | 00:00:00 | 00:00:00 | |
| DB0UT-7 | 2026-09-01 05:19:36 | 49.68800 | 7.64139 | 80° | 88km/h | 7608m | 3.3m/s | -26.9°C | 52.4% | 390.3hPa | 2.8V | 00:00:00 | 00:48:15 | 00:00:00 | |
| DL1ZP-14 | 2026-09-01 05:19:35 | 49.68791 | 7.64069 | 78° | 89km/h | 7600m | 4.4m/s | -26.9°C | 49.4% | 390.8hPa | 2.8V | 00:00:00 | 00:00:00 | 00:00:00 | |
| DB0UT-9 | 2026-09-01 05:19:31 | 49.68782 | 7.64001 | 80° | 89km/h | 7592m | 3.3m/s | -26.9°C | 51.9% | 391.2hPa | 2.7V | 04:34:00 | 00:00:00 | 00:00:00 | |
| DM0DOS-11 | 2026-09-01 05:19:30 | 49.68754 | 7.63760 | 80° | 89km/h | 7563m | 3.7m/s | -26.8°C | 64.9% | 392.8hPa | 2.7V | 04:34:03 | 00:48:04 | 00:00:00 | |
| BIOWL1-15 | 2026-09-01 05:19:28 | 49.68766 | 7.63864 | 79° | 89km/h | 7575m | 3.9m/s | -26.8°C | 58.3% | 392.1hPa | 2.8V | 04:34:31 | 00:48:07 | 00:00:00 | |
| DF1GD-15 | 2026-09-01 05:19:27 | 49.68766 | 7.63864 | 80° | 89km/h | 7575m | 3.9m/s | -26.8°C | 55.9% | 392.1hPa | 2.8V | 04:34:00 | 00:00:00 | 00:00:00 | |
| DM3KS-11 | 2026-09-01 05:19:25 | 49.68754 | 7.63760 | 80° | 88km/h | 7563m | 3.7m/s | -26.8°C | 60.3% | 392.8hPa | 2.8V | 00:00:00 | 00:00:00 | 00:00:00 | |
| DO1YAY-16 | 2026-09-01 05:19:21 | 49.68732 | 7.63586 | 77° | 89km/h | 7543m | 3.7m/s | -26.7°C | 60.5% | 393.9hPa | 2.8V | 00:00:00 | 00:00:00 | 00:00:00 | |
| DM0DOS-11 | 2026-09-01 05:19:20 | 49.68710 | 7.63419 | 80° | 86km/h | 7522m | 4.7m/s | -26.6°C | 63.6% | 394.9hPa | 2.8V | 04:34:13 | 00:47:54 | 00:00:00 | |
| BIOWL1-15 | 2026-09-01 05:19:17 | 49.68718 | 7.63485 | 79° | 88km/h | 7531m | 3.3m/s | -26.6°C | 62.9% | 394.5hPa | 2.8V | 04:34:31 | 00:47:56 | 00:00:00 | |
| DK5PH-5 | 2026-09-01 05:19:14 | 49.68706 | 7.63387 | 81° | 82km/h | 7518m | 3.6m/s | -26.5°C | 64.2% | 395.1hPa | 2.7V | 00:00:00 | 00:47:53 | 00:00:00 | |
| DB0UT-9 | 2026-09-01 05:19:11 | 49.68699 | 7.63323 | 81° | 84km/h | 7511m | 3.8m/s | -26.5°C | 59.9% | 395.6hPa | 2.8V | 04:34:00 | 00:00:00 | 00:00:00 | |
| DM0DOS-11 | 2026-09-01 05:19:10 | 49.68673 | 7.63103 | 80° | 80km/h | 7484m | 3.7m/s | -26.3°C | 56.6% | 397hPa | 2.8V | 04:34:23 | 00:47:44 | 00:00:00 | |
| BIOWL1-15 | 2026-09-01 05:19:07 | 49.68680 | 7.63165 | 78° | 82km/h | 7492m | 3.2m/s | -26.4°C | 57.9% | 396.6hPa | 2.8V | 04:34:31 | 00:47:46 | 00:00:00 | |
| BIOWL9-15 | 2026-09-01 05:19:07 | 49.68676 | 7.63134 | 79° | 80km/h | 7488m | 4.4m/s | -26.4°C | 53.6% | 396.8hPa | 2.8V | 00:00:00 | 00:00:00 | 00:00:00 | |
| DB0UT-7 | 2026-09-01 05:19:06 | 49.68676 | 7.63134 | 80° | 80km/h | 7488m | 4.3m/s | -26.3°C | 57.8% | 396.8hPa | 2.8V | 04:34:00 | 00:00:00 | 00:00:00 | |
| DL1ZP-14 | 2026-09-01 05:19:04 | 49.68666 | 7.63042 | 80° | 78km/h | 7477m | 4.1m/s | -26.3°C | 49.7% | 397.4hPa | 2.8V | 00:00:00 | 00:00:00 | 00:00:00 | |
| DM0DOS-11 | 2026-09-01 05:19:00 | 49.68642 | 7.62788 | 80° | 78km/h | 7446m | 4m/s | -26°C | 48.2% | 399hPa | 2.8V | 04:34:33 | 00:47:34 | 00:00:00 | |
| BIOWL1-15 | 2026-09-01 05:18:57 | 49.68648 | 7.62849 | 82° | 82km/h | 7454m | 3.3m/s | -26°C | 47.7% | 398.6hPa | 2.8V | 04:34:31 | 00:47:36 | 00:00:00 | |
| DM3KS-11 | 2026-09-01 05:18:54 | 49.68639 | 7.62758 | 80° | 77km/h | 7443m | 3.6m/s | -25.9°C | 44.4% | 399.2hPa | 2.8V | 00:00:00 | 00:00:00 | 00:00:00 | |
| DM0DOS-11 | 2026-09-01 05:18:50 | 49.68608 | 7.62474 | 80° | 78km/h | 7408m | 4.3m/s | -25.6°C | 42.3% | 401.1hPa | 2.8V | 04:34:43 | 00:47:24 | 00:00:00 | |
| BIOWL1-15 | 2026-09-01 05:18:46 | 49.68611 | 7.62504 | 81° | 80km/h | 7412m | 4.1m/s | -25.6°C | 42.8% | 400.9hPa | 2.8V | 04:35:22 | 00:47:25 | 00:00:00 | |
| DF1GD-15 | 2026-09-01 05:18:45 | 49.68611 | 7.62504 | 82° | 80km/h | 7412m | 4.1m/s | -25.6°C | 38.9% | 400.9hPa | 2.8V | 04:35:00 | 00:00:00 | 00:00:00 | |
| DK5PH-5 | 2026-09-01 05:18:44 | 49.68605 | 7.62445 | 80° | 78km/h | 7404m | 3.1m/s | -25.5°C | 42.2% | 401.4hPa | 2.8V | 04:34:00 | 00:47:23 | 00:00:00 | |
| DM0DOS-11 | 2026-09-01 05:18:40 | 49.68575 | 7.62174 | 81° | 80km/h | 7368m | 4.9m/s | -25.2°C | 38.6% | 403.5hPa | 2.8V | 04:34:53 | 00:47:14 | 00:00:00 | |
| BIOWL1-15 | 2026-09-01 05:18:36 | 49.68578 | 7.62206 | 81° | 82km/h | 7372m | 3.4m/s | -25.2°C | 39% | 403.2hPa | 2.7V | 04:35:22 | 00:47:15 | 00:00:00 | |
| BIOWL1-15 | 2026-09-01 05:18:26 | 49.68542 | 7.61898 | 80° | 80km/h | 7330m | 2.9m/s | -24.8°C | 33.7% | 405.4hPa | 2.8V | 04:35:22 | 00:47:05 | 00:00:00 | |
| BIOWL1-15 | 2026-09-01 05:18:17 | 49.68500 | 7.61565 | 79° | 80km/h | 7285m | 3.8m/s | -24.4°C | 32.4% | 408hPa | 2.8V | 04:35:22 | 00:46:54 | 00:00:00 | |
| DL0LBS | 2026-09-01 05:18:16 | 49.68508 | 7.61627 | 79° | 82km/h | 7293m | 4.0m/s | -24.5°C | 29.0% | 407.6hPa | 2.7V | 04:35:00 | 00:00:00 | 00:00:00 | |
| DF3TZ-5 | 2026-09-01 05:18:15 | 49.68496 | 7.61534 | 79° | 78km/h | 7281m | 4.3m/s | -24.4°C | 28.1% | 408.2hPa | 2.7V | 00:00:00 | 00:00:00 | 00:00:00 | |
| DK5PH-5 | 2026-09-01 05:18:14 | 49.68496 | 7.61534 | 80° | 82km/h | 7281m | 4.2m/s | -24.3°C | 30.5% | 408.2hPa | 2.7V | 00:00:00 | 00:46:53 | 00:00:00 | |
| DB0UT-9 | 2026-09-01 05:18:09 | 49.68481 | 7.61412 | 79° | 78km/h | 7265m | 4.0m/s | -24.2°C | 27.6% | 409.1hPa | 2.7V | 04:35:00 | 00:00:00 | 00:00:00 | |
| DM0DOS-11 | 2026-09-01 05:18:06 | 49.68438 | 7.61128 | 76° | 84km/h | 7231m | 4.1m/s | -23.9°C | 28.7% | 411hPa | 2.7V | 04:35:27 | 00:46:40 | 00:00:00 | |
| BIOWL1-15 | 2026-09-01 05:18:04 | 49.68453 | 7.61225 | 78° | 86km/h | 7243m | 2.9m/s | -24°C | 30.4% | 410.4hPa | 2.8V | 04:36:13 | 00:46:43 | 00:00:00 | |
| BIOWL1-15 | 2026-09-01 05:17:55 | 49.68399 | 7.60881 | 77° | 78km/h | 7200m | 5m/s | -23.6°C | 27.4% | 412.9hPa | 2.8V | 04:36:13 | 00:46:32 | 00:00:00 | |
| DM3KS-11 | 2026-09-01 05:17:52 | 49.68394 | 7.60852 | 76° | 78km/h | 7195m | 4.5m/s | -23.5°C | 23.5% | 413.1hPa | 2.7V | 00:00:00 | 00:00:00 | 00:00:00 | |
| DM0DOS-11 | 2026-09-01 05:17:50 | 49.68370 | 7.60669 | 76° | 82km/h | 7170m | 3.1m/s | 0°C | 0% | 0hPa | 2.7V | 04:35:42 | 00:46:25 | 00:00:00 | |
| DO1YAY-16 | 2026-09-01 05:17:48 | 49.68374 | 7.60700 | 78° | 78km/h | 7174m | 4.7m/s | -23.3°C | 22.9% | 414.3hPa | 2.8V | 00:00:00 | 00:00:00 | 00:00:00 | |
| DL9PN | 2026-09-01 05:17:46 | 49.68370 | 7.60669 | 76° | 82km/h | 7170m | 3.1m/s | -23.3°C | 22.9% | 414.5hPa | 2.8V | 00:00:00 | 00:00:00 | 00:00:00 | |
| BIOWL1-15 | 2026-09-01 05:17:44 | 49.68352 | 7.60540 | 79° | 82km/h | 7155m | 4m/s | -23.2°C | 26.1% | 415.4hPa | 2.8V | 04:36:13 | 00:46:21 | 00:00:00 | |
| BIOWL1-15 | 2026-09-01 05:17:34 | 49.68304 | 7.60226 | 77° | 84km/h | 7116m | 4m/s | -22.8°C | 25.7% | 417.5hPa | 2.7V | 04:36:13 | 00:46:11 | 00:00:00 | |
| BIOWL1-15 | 2026-09-01 05:17:21 | 49.68249 | 7.59874 | 76° | 84km/h | 7075m | 4.3m/s | -22.5°C | 24.7% | 419.9hPa | 2.9V | 04:36:13 | 00:46:00 | 00:00:00 | |
| DM0DOS-11 | 2026-09-01 05:17:20 | 49.68227 | 7.59710 | 79° | 88km/h | 7055m | 4.9m/s | -22.3°C | 22.4% | 421.1hPa | 2.9V | 04:36:12 | 00:45:55 | 00:00:00 | |
| BIOWL1-15 | 2026-09-01 05:17:11 | 49.68202 | 7.59542 | 77° | 89km/h | 7034m | 5m/s | -22.2°C | 23% | 422.2hPa | 2.8V | 04:37:04 | 00:45:50 | 00:00:00 | |
| DM0DOS-11 | 2026-09-01 05:17:10 | 49.68177 | 7.59376 | 78° | 86km/h | 7013m | 4.8m/s | -22.1°C | 20.2% | 423.5hPa | 2.9V | 04:36:22 | 00:45:45 | 00:00:00 | |
| DB0UT-9 | 2026-09-01 05:17:07 | 49.68186 | 7.59442 | 78° | 86km/h | 7022m | 4.1m/s | -22.1°C | 18.9% | 422.9hPa | 2.9V | 04:37:00 | 00:00:00 | 00:00:00 | |
| DB0UT-7 | 2026-09-01 05:17:06 | 49.68177 | 7.59375 | 79° | 89km/h | 7013m | 4.7m/s | -22.0°C | 20.2% | 423.4hPa | 2.9V | 00:00:00 | 00:00:00 | 00:00:00 | |
| HEMX73-11 | 2026-09-01 05:17:04 | 49.68173 | 7.59342 | 79° | 86km/h | 7009m | 3.3m/s | -22.1°C | 18.5% | 423.7hPa | 2.8V | 04:37:00 | 00:00:00 | 00:00:00 | |
| BIOWL9-15 | 2026-09-01 05:17:03 | 49.68159 | 7.59242 | 77° | 89km/h | 6996m | 2.8m/s | -22.0°C | 18.1% | 424.4hPa | 2.8V | 00:00:00 | 00:00:00 | 00:00:00 | |
| DM0DOS-11 | 2026-09-01 05:17:00 | 49.68137 | 7.59040 | 81° | 89km/h | 6971m | 5.2m/s | -21.8°C | 18.9% | 425.9hPa | 2.8V | 04:36:32 | 00:45:35 | 00:00:00 | |
| BIOWL1-15 | 2026-09-01 05:17:00 | 49.68151 | 7.59174 | 81° | 88km/h | 6988m | 4.3m/s | -21.9°C | 20.5% | 424.9hPa | 2.8V | 04:37:04 | 00:45:39 | 00:00:00 | |
| DL1ZP-14 | 2026-09-01 05:16:59 | 49.68148 | 7.59141 | 81° | 86km/h | 6984m | 4.2m/s | -21.9°C | 17.7% | 425.2hPa | 2.8V | 00:00:00 | 00:00:00 | 00:00:00 | |
| DL0LBS | 2026-09-01 05:16:53 | 49.68132 | 7.58970 | 84° | 91km/h | 6961m | 3.7m/s | -21.7°C | 17.3% | 426.5hPa | 2.7V | 04:37:00 | 00:00:00 | 00:00:00 | |
| NBG1-10 | 2026-09-01 05:16:52 | 49.68126 | 7.58900 | 82° | 89km/h | 6952m | 5.7m/s | -21.6°C | 18.4% | 427.0hPa | 2.7V | 00:00:00 | 00:45:31 | 00:00:00 | |
| DM0DOS-11 | 2026-09-01 05:16:51 | 49.68103 | 7.58693 | 83° | 89km/h | 6924m | 4.5m/s | -21.5°C | 17.8% | 428.7hPa | 2.9V | 04:36:42 | 00:45:25 | 00:00:00 | |
| BIOWL1-15 | 2026-09-01 05:16:49 | 49.68114 | 7.58796 | 78° | 89km/h | 6938m | 6.4m/s | -21.6°C | 19.3% | 427.9hPa | 2.9V | 04:37:04 | 00:45:28 | 00:00:00 | |
| DF7PN | 2026-09-01 05:16:46 | 49.68101 | 7.58658 | 83° | 89km/h | 6919m | 4.3m/s | -21.5°C | 16.4% | 428.9hPa | 2.9V | 00:00:00 | 00:00:00 | 00:00:00 | |
| DK5PH-5 | 2026-09-01 05:16:44 | 49.68098 | 7.58623 | 85° | 89km/h | 6915m | 5.2m/s | -21.4°C | 17.8% | 429.1hPa | 2.9V | 00:00:00 | 00:45:23 | 00:00:00 | |
| HEMX73-11 | 2026-09-01 05:16:43 | 49.68098 | 7.58623 | 86° | 89km/h | 6915m | 5.2m/s | -21.5°C | 16.4% | 429.2hPa | 2.9V | 04:37:00 | 00:00:00 | 00:00:00 | |
| DF3TZ-5 | 2026-09-01 05:16:42 | 49.68093 | 7.58554 | 82° | 89km/h | 6906m | 3.9m/s | -21.4°C | 16.4% | 429.7hPa | 2.9V | 00:00:00 | 00:00:00 | 00:00:00 | |
| DM0DOS-11 | 2026-09-01 05:16:40 | 49.68076 | 7.58341 | 85° | 91km/h | 6881m | 5.1m/s | -21.2°C | 18.2% | 431.1hPa | 2.9V | 04:36:52 | 00:45:15 | 00:00:00 | |
| BIOWL1-15 | 2026-09-01 05:16:38 | 49.68081 | 7.58412 | 83° | 91km/h | 6890m | 5.1m/s | -21.3°C | 19.4% | 430.6hPa | 2.7V | 04:37:04 | 00:45:17 | 00:00:00 | |
| BIOWL1-15 | 2026-09-01 05:16:30 | 49.68060 | 7.58027 | 84° | 89km/h | 6844m | 3.7m/s | -21.1°C | 20.9% | 433.3hPa | 2.9V | 04:37:04 | 00:45:06 | 00:00:00 | |
| BIOWL1-15 | 2026-09-01 05:16:17 | 49.68046 | 7.57645 | 89° | 89km/h | 6796m | 4.3m/s | -20.9°C | 21.7% | 436.1hPa | 2.9V | 04:37:55 | 00:44:55 | 00:00:00 | |
| DF7PN | 2026-09-01 05:16:15 | 49.68044 | 7.57575 | 88° | 88km/h | 6788m | 2.9m/s | -20.9°C | 18.9% | 436.6hPa | 2.9V | 00:00:00 | 00:00:00 | 00:00:00 | |
| DL9PN | 2026-09-01 05:16:14 | 49.68044 | 7.57541 | 89° | 88km/h | 6784m | 4.8m/s | -20.8°C | 18.8% | 436.8hPa | 2.9V | 00:00:00 | 00:00:00 | 00:00:00 | |
| DK5PH-5 | 2026-09-01 05:16:13 | 49.68044 | 7.57541 | 90° | 82km/h | 6785m | 4.8m/s | -20.8°C | 20.3% | 436.7hPa | 2.9V | 04:37:00 | 00:44:52 | 00:00:00 | |
| DL0LBS | 2026-09-01 05:16:12 | 49.68044 | 7.57541 | 90° | 89km/h | 6785m | 4.8m/s | -20.8°C | 18.8% | 436.8hPa | 2.9V | 04:37:00 | 00:00:00 | 00:00:00 | |
| DM0DOS-11 | 2026-09-01 05:16:10 | 49.68045 | 7.57272 | 89° | 84km/h | 6750m | 3.7m/s | -20.6°C | 20.5% | 438.8hPa | 2.9V | 04:37:23 | 00:44:44 | 00:00:00 | |
| BIOWL1-15 | 2026-09-01 05:16:05 | 49.68045 | 7.57272 | 89° | 84km/h | 6750m | 3.7m/s | -20.6°C | 21.9% | 438.8hPa | 2.9V | 04:37:55 | 00:44:44 | 00:00:00 | |
| DB0UT-7 | 2026-09-01 05:16:05 | 49.68045 | 7.57272 | 90° | 78km/h | 6750m | 3.6m/s | -20.6°C | 20.5% | 438.8hPa | 2.9V | 00:00:00 | 00:00:00 | 00:00:00 | |
| DB0UT-9 | 2026-09-01 05:16:04 | 49.68045 | 7.57272 | 90° | 84km/h | 6750m | 3.7m/s | -20.6°C | 18.9% | 438.8hPa | 2.9V | 04:37:00 | 00:00:00 | 00:00:00 | |
| HEMX73-11 | 2026-09-01 05:16:02 | 49.68044 | 7.57206 | 91° | 84km/h | 6742m | 3.6m/s | -20.6°C | 18.8% | 439.3hPa | 2.9V | 04:37:00 | 00:00:00 | 00:00:00 | |
| DB0ND-19 | 2026-09-01 05:16:01 | 49.68044 | 7.57141 | 88° | 82km/h | 6733m | 5.1m/s | -20.5°C | 18.5% | 439.8hPa | 2.9V | 00:00:00 | 00:00:00 | 00:00:00 | |
| DM0DOS-11 | 2026-09-01 05:16:00 | 49.68044 | 7.56950 | 91° | 78km/h | 6709m | 5m/s | -20.3°C | 19.5% | 441.3hPa | 2.9V | 04:37:33 | 00:44:34 | 00:00:00 | |
| BIOWL1-15 | 2026-09-01 05:15:58 | 49.68044 | 7.56950 | 91° | 78km/h | 6709m | 5m/s | -20.3°C | 20.9% | 441.3hPa | 2.9V | 04:37:55 | 00:44:34 | 00:00:00 | |
| DL1ZP-14 | 2026-09-01 05:15:57 | 49.68043 | 7.57013 | 90° | 82km/h | 6717m | 3.5m/s | -20.4°C | 18.2% | 440.8hPa | 2.9V | 00:00:00 | 00:00:00 | 00:00:00 | |
| DL0LBS | 2026-09-01 05:15:51 | 49.68045 | 7.56860 | 92° | 78km/h | 6697m | 4.2m/s | -20.3°C | 17.4% | 442.0hPa | 2.9V | 04:37:00 | 00:00:00 | 00:00:00 | |
| DM0DOS-11 | 2026-09-01 05:15:49 | 49.68048 | 7.56615 | 91° | 78km/h | 6664m | 4.8m/s | -20.1°C | 17.7% | 444hPa | 2.9V | 04:37:44 | 00:44:23 | 00:00:00 | |
| DM3KS-11 | 2026-09-01 05:15:48 | 49.68047 | 7.56737 | 91° | 78km/h | 6680m | 4.3m/s | -20.2°C | 16.6% | 443.0hPa | 2.9V | 00:00:00 | 00:00:00 | 00:00:00 | |
| BIOWL1-15 | 2026-09-01 05:15:44 | 49.68048 | 7.56615 | 91° | 78km/h | 6664m | 4.8m/s | -20.1°C | 19.1% | 444hPa | 2.9V | 04:37:55 | 00:44:23 | 00:00:00 | |
| DF7PN | 2026-09-01 05:15:44 | 49.68048 | 7.56585 | 92° | 77km/h | 6660m | 2.9m/s | -20.0°C | 16.3% | 444.2hPa | 2.9V | 00:00:00 | 00:00:00 | 00:00:00 | |
| DK5PH-5 | 2026-09-01 05:15:43 | 49.68048 | 7.56585 | 93° | 75km/h | 6660m | 2.9m/s | -20.0°C | 17.7% | 444.2hPa | 2.9V | 00:00:00 | 00:44:22 | 00:00:00 | |
| DL9PN | 2026-09-01 05:15:42 | 49.68049 | 7.56555 | 92° | 75km/h | 6657m | 4.8m/s | -20.0°C | 16.1% | 444.4hPa | 2.9V | 00:00:00 | 00:00:00 | 00:00:00 | |
| DF3TZ-5 | 2026-09-01 05:15:40 | 49.68054 | 7.56379 | 93° | 75km/h | 6631m | 4.5m/s | -20.0°C | 17.7% | 445.9hPa | 2.9V | 00:00:00 | 00:00:00 | 00:00:00 | |
| DM0DOS-11 | 2026-09-01 05:15:38 | 49.68055 | 7.56288 | 89° | 77km/h | 6619m | 4m/s | -20°C | 22.1% | 446.7hPa | 2.9V | 04:37:55 | 00:44:12 | 00:00:00 | |
| BIOWL1-15 | 2026-09-01 05:15:34 | 49.68055 | 7.56318 | 91° | 77km/h | 6622m | 3.8m/s | -20°C | 22.9% | 446.5hPa | 2.9V | 04:37:55 | 00:44:13 | 00:00:00 | |
| DL0LBS | 2026-09-01 05:15:31 | 49.68055 | 7.56258 | 91° | 75km/h | 6615m | 4.1m/s | -20.0°C | 21.2% | 447.0hPa | 2.8V | 04:38:00 | 00:00:00 | 00:00:00 | |
| DB0ND-19 | 2026-09-01 05:15:30 | 49.68054 | 7.56199 | 87° | 77km/h | 6606m | 4.5m/s | -20.0°C | 22.8% | 447.5hPa | 2.8V | 00:00:00 | 00:00:00 | 00:00:00 | |
| BIOWL9-15 | 2026-09-01 05:15:29 | 49.68054 | 7.56169 | 88° | 75km/h | 6602m | 5.0m/s | -20.0°C | 24.4% | 447.8hPa | 2.8V | 00:00:00 | 00:00:00 | 00:00:00 | |
| DM0DOS-11 | 2026-09-01 05:15:28 | 49.68050 | 7.55993 | 89° | 75km/h | 6578m | 4m/s | -20°C | 41% | 449.2hPa | 2.8V | 04:38:05 | 00:44:02 | 00:00:00 | |
| BIOWL1-15 | 2026-09-01 05:15:23 | 49.68050 | 7.55993 | 90° | 75km/h | 6578m | 4m/s | -20°C | 41.2% | 449.2hPa | 2.8V | 04:38:46 | 00:44:02 | 00:00:00 | |
| DB0UT-9 | 2026-09-01 05:15:22 | 49.68050 | 7.55993 | 91° | 75km/h | 6578m | 4.0m/s | -20.0°C | 38.5% | 449.2hPa | 2.9V | 04:38:00 | 00:00:00 | 00:00:00 | |
| HEMX73-11 | 2026-09-01 05:15:21 | 49.68050 | 7.55964 | 89° | 75km/h | 6574m | 4.7m/s | -20.0°C | 39.8% | 449.4hPa | 2.9V | 04:38:00 | 00:00:00 | 00:00:00 | |
| DM0DOS-11 | 2026-09-01 05:15:18 | 49.68047 | 7.55704 | 91° | 71km/h | 6537m | 5m/s | -19.9°C | 56.6% | 451.6hPa | 2.9V | 04:38:15 | 00:43:52 | 00:00:00 | |
| BIOWL1-15 | 2026-09-01 05:15:12 | 49.68047 | 7.55676 | 90° | 73km/h | 6533m | 4.6m/s | -19.8°C | 56.1% | 452hPa | 2.9V | 04:38:46 | 00:43:51 | 00:00:00 | |
| DL9PN | 2026-09-01 05:15:11 | 49.68047 | 7.55647 | 89° | 71km/h | 6528m | 4.2m/s | -19.8°C | 53.9% | 452.2hPa | 2.9V | 00:00:00 | 00:00:00 | 00:00:00 | |
| DL0LBS | 2026-09-01 05:15:10 | 49.68047 | 7.55647 | 90° | 71km/h | 6529m | 4.2m/s | -19.8°C | 53.9% | 452.2hPa | 2.9V | 04:38:00 | 00:00:00 | 00:00:00 | |
| DM0DOS-11 | 2026-09-01 05:15:08 | 49.68052 | 7.55435 | 94° | 66km/h | 6493m | 3.2m/s | -19.6°C | 62.9% | 454.4hPa | 2.9V | 04:38:25 | 00:43:42 | 00:00:00 | |
| BIOWL1-15 | 2026-09-01 05:15:01 | 49.68054 | 7.55385 | 95° | 66km/h | 6485m | 4.4m/s | -19.5°C | 60.4% | 454.9hPa | 2.9V | 04:38:46 | 00:43:40 | 00:00:00 | |
| DB0ND-19 | 2026-09-01 05:14:59 | 49.68057 | 7.55330 | 93° | 69km/h | 6477m | 4.4m/s | -19.5°C | 59.7% | 455.3hPa | 2.9V | 00:00:00 | 00:00:00 | 00:00:00 | |
| DM0DOS-11 | 2026-09-01 05:14:58 | 49.68068 | 7.55167 | 94° | 69km/h | 6450m | 5.3m/s | -19.3°C | 64.3% | 456.9hPa | 2.9V | 04:38:35 | 00:43:32 | 00:00:00 | |
| BIOWL1-15 | 2026-09-01 05:14:50 | 49.68071 | 7.55086 | 94° | 69km/h | 6437m | 5.4m/s | -19.2°C | 63.1% | 457.8hPa | 2.8V | 04:38:46 | 00:43:29 | 00:00:00 | |
| DM3KS-11 | 2026-09-01 05:14:46 | 49.68079 | 7.54981 | 97° | 66km/h | 6420m | 4.6m/s | -19.1°C | 60.2% | 458.9hPa | 2.9V | 00:00:00 | 00:00:00 | 00:00:00 | |
| DK5PH-5 | 2026-09-01 05:14:43 | 49.68086 | 7.54902 | 100° | 68km/h | 6408m | 3.4m/s | -19.0°C | 65.2% | 459.6hPa | 2.9V | 00:00:00 | 00:43:22 | 00:00:00 | |
| DF7PN | 2026-09-01 05:14:41 | 49.68092 | 7.54850 | 98° | 64km/h | 6400m | 1.7m/s | -19.0°C | 66.1% | 460.1hPa | 2.9V | 00:00:00 | 00:00:00 | 00:00:00 | |
| DM0DOS-11 | 2026-09-01 05:14:40 | 49.68103 | 7.54748 | 99° | 68km/h | 6384m | 5.5m/s | -18.9°C | 71.8% | 461.1hPa | 2.9V | 04:38:51 | 00:43:16 | 00:00:00 | |
| BIOWL1-15 | 2026-09-01 05:14:39 | 49.68098 | 7.54799 | 101° | 66km/h | 6392m | 5.4m/s | -19°C | 67.9% | 460.6hPa | 2.9V | 04:39:37 | 00:43:18 | 00:00:00 | |
| BIOWL1-15 | 2026-09-01 05:14:32 | 49.68133 | 7.54525 | 102° | 64km/h | 6349m | 4.4m/s | -18.6°C | 64.8% | 463.2hPa | 2.9V | 04:39:37 | 00:43:07 | 00:00:00 | |
| DL0LBS | 2026-09-01 05:14:29 | 49.68126 | 7.54574 | 103° | 64km/h | 6357m | 4.3m/s | -18.7°C | 63.7% | 462.8hPa | 2.9V | 04:39:00 | 00:00:00 | 00:00:00 | |
| DM0DOS-11 | 2026-09-01 05:14:28 | 49.68149 | 7.54396 | 99° | 68km/h | 6329m | 3.4m/s | -18.4°C | 59.7% | 464.5hPa | 2.9V | 04:39:05 | 00:43:02 | 00:00:00 | |
| DB0ND-19 | 2026-09-01 05:14:28 | 49.68133 | 7.54525 | 101° | 64km/h | 6349m | 4.4m/s | -18.6°C | 63.2% | 463.2hPa | 2.7V | 00:00:00 | 00:00:00 | 00:00:00 | |
| BIOWL9-15 | 2026-09-01 05:14:27 | 49.68136 | 7.54500 | 101° | 66km/h | 6345m | 4.0m/s | 0°C | -1.0% | -1.0hPa | 2.7V | 00:00:00 | 00:00:00 | 00:00:00 | |
| DL1ZP-14 | 2026-09-01 05:14:24 | 49.68146 | 7.54422 | 99° | 68km/h | 6333m | 4.6m/s | -18.4°C | 57.3% | 464.2hPa | 2.7V | 00:00:00 | 00:00:00 | 00:00:00 | |
| DB0UT-9 | 2026-09-01 05:14:20 | 49.68155 | 7.54344 | 102° | 69km/h | 6322m | 3.5m/s | -18.4°C | 56.3% | 465.0hPa | 2.9V | 04:39:00 | 00:00:00 | 00:00:00 | |
| HEMX73-11 | 2026-09-01 05:14:19 | 49.68158 | 7.54318 | 101° | 69km/h | 6318m | 3.5m/s | -18.4°C | 65.0% | 465.2hPa | 2.9V | 04:39:00 | 00:00:00 | 00:00:00 | |
| DM0DOS-11 | 2026-09-01 05:14:18 | 49.68179 | 7.54134 | 99° | 68km/h | 6290m | 4.2m/s | -18.3°C | 66.7% | 466.9hPa | 2.9V | 04:39:15 | 00:42:52 | 00:00:00 | |
| BIOWL1-15 | 2026-09-01 05:14:18 | 49.68164 | 7.54265 | 98° | 69km/h | 6310m | 3m/s | -18.4°C | 66.6% | 465.6hPa | 2.7V | 04:39:37 | 00:42:57 | 00:00:00 | |
| DM3KS-11 | 2026-09-01 05:14:15 | 49.68173 | 7.54186 | 100° | 68km/h | 6298m | 5.0m/s | -18.3°C | 64.9% | 466.4hPa | 2.7V | 00:00:00 | 00:00:00 | 00:00:00 | |
| DK5PH-5 | 2026-09-01 05:14:13 | 49.68179 | 7.54134 | 100° | 68km/h | 6290m | 4.1m/s | -18.2°C | 66.7% | 466.8hPa | 2.7V | 00:00:00 | 00:42:52 | 00:00:00 | |
| DF7PN | 2026-09-01 05:14:10 | 49.68188 | 7.54055 | 100° | 68km/h | 6279m | 4.4m/s | -18.2°C | 60.9% | 467.6hPa | 2.7V | 00:00:00 | 00:00:00 | 00:00:00 | |
| DL9PN | 2026-09-01 05:14:09 | 49.68194 | 7.54003 | 101° | 68km/h | 6271m | 4.1m/s | -18.1°C | 55.9% | 468.1hPa | 2.7V | 00:00:00 | 00:00:00 | 00:00:00 | |
| DM0DOS-11 | 2026-09-01 05:14:08 | 49.68215 | 7.53847 | 103° | 69km/h | 6249m | 3.2m/s | -17.9°C | 54.3% | 469.5hPa | 2.7V | 04:39:26 | 00:42:41 | 00:00:00 | |
| BIOWL1-15 | 2026-09-01 05:14:07 | 49.68197 | 7.53977 | 101° | 69km/h | 6268m | 3.2m/s | -18.1°C | 53.4% | 468.3hPa | 2.9V | 04:39:37 | 00:42:46 | 00:00:00 | |
| DH7VM-15 | 2026-09-01 05:14:04 | 49.68203 | 7.53924 | 103° | 68km/h | 6261m | 4.6m/s | -18.0°C | 0% | 468.7hPa | 2.9V | 00:00:00 | 00:00:00 | 00:00:00 | |
| DB0UT-7 | 2026-09-01 05:14:03 | 49.68211 | 7.53873 | 105° | 68km/h | 6253m | 4.5m/s | -17.9°C | 52.7% | 469.2hPa | 2.9V | 04:39:00 | 00:00:00 | 00:00:00 | |
| DB0UT-9 | 2026-09-01 05:14:00 | 49.68220 | 7.53820 | 106° | 69km/h | 6246m | 4.3m/s | -17.9°C | 51.6% | 469.7hPa | 2.9V | 04:39:00 | 00:00:00 | 00:00:00 | |
| HEMX73-11 | 2026-09-01 05:13:58 | 49.68229 | 7.53768 | 108° | 69km/h | 6238m | 2.3m/s | -17.9°C | 52.3% | 470.3hPa | 2.9V | 04:39:00 | 00:00:00 | 00:00:00 | |
| DM0DOS-11 | 2026-09-01 05:13:57 | 49.68260 | 7.53578 | 102° | 73km/h | 6212m | 3m/s | -17.8°C | 62.9% | 471.8hPa | 2.9V | 04:39:36 | 00:42:31 | 00:00:00 | |
| BIOWL1-15 | 2026-09-01 05:13:56 | 49.68256 | 7.53606 | 102° | 73km/h | 6215m | 4.1m/s | -17.8°C | 60.9% | 471.6hPa | 2.9V | 04:39:37 | 00:42:32 | 00:00:00 | |
| DL1ZP-14 | 2026-09-01 05:13:53 | 49.68256 | 7.53606 | 101° | 73km/h | 6215m | 4.1m/s | -17.8°C | 59.0% | 471.6hPa | 2.9V | 00:00:00 | 00:00:00 | 00:00:00 | |
| DM0DOS-11 | 2026-09-01 05:13:47 | 49.68295 | 7.53334 | 104° | 68km/h | 6172m | 5.9m/s | -17.5°C | 68.7% | 474.3hPa | 2.9V | 04:39:46 | 00:42:21 | 00:00:00 | |
| BIOWL1-15 | 2026-09-01 05:13:47 | 49.68282 | 7.53409 | 103° | 64km/h | 6185m | 4m/s | -17.6°C | 64% | 473.4hPa | 2.9V | 04:40:28 | 00:42:24 | 00:00:00 | |
| DF1GD-15 | 2026-09-01 05:13:46 | 49.68276 | 7.53456 | 100° | 60km/h | 6193m | 3.7m/s | -17.6°C | 61.8% | 473.0hPa | 2.9V | 00:00:00 | 00:00:00 | 00:00:00 | |
| DM3KS-11 | 2026-09-01 05:13:44 | 49.68286 | 7.53384 | 104° | 66km/h | 6181m | 3.9m/s | -17.6°C | 0% | 473.7hPa | 2.9V | 00:00:00 | 00:00:00 | 00:00:00 | |
| DF7PN | 2026-09-01 05:13:39 | 49.68307 | 7.53259 | 104° | 66km/h | 6156m | 4.2m/s | -17.4°C | 64.6% | 475.3hPa | 2.9V | 00:00:00 | 00:00:00 | 00:00:00 | |
| DL9PN | 2026-09-01 05:13:38 | 49.68314 | 7.53208 | 100° | 68km/h | 6148m | 4.3m/s | -17.3°C | 64.8% | 475.9hPa | 2.9V | 00:00:00 | 00:00:00 | 00:00:00 | |
| DM0DOS-11 | 2026-09-01 05:13:37 | 49.68332 | 7.53080 | 103° | 66km/h | 6124m | 5.7m/s | -17.2°C | 54.8% | 477.3hPa | 2.9V | 04:39:56 | 00:42:11 | 00:00:00 | |
| BIOWL1-15 | 2026-09-01 05:13:34 | 49.68325 | 7.53130 | 103° | 66km/h | 6133m | 5.2m/s | -17.3°C | 61% | 476.7hPa | 2.9V | 04:40:28 | 00:42:13 | 00:00:00 | |
| DK5PH-5 | 2026-09-01 05:13:33 | 49.68329 | 7.53105 | 104° | 62km/h | 6129m | 2.7m/s | -17.2°C | 57.9% | 477.0hPa | 2.9V | 04:39:00 | 00:42:12 | 00:00:00 | |
| Es werden nur die letzten 3500 von 3865 Frames angezeigt. GPX/KML und Diagramme bleiben verfügbar. | |||||||||||||||